<?xml version="1.0" encoding="UTF-8" standalone="no" ?>
<gpx xmlns="http://www.topografix.com/GPX/1/1" xmlns:xsi="http://www.w3.org/2001/XMLSchema-instance" xsi:schemaLocation="http://www.topografix.com/GPX/1/1 http://www.topografix.com/GPX/1/1/gpx.xsd" version="1.1" creator="VisuGPX - https://www.visugpx.com">
  <metadata>
    <name>J6 Voie Bleue : Charmes - Corny Sur Moselle</name>
    <desc><![CDATA[Voie Bleue réalisée dans le sens Sud (Lyon) Nord (Apach)

Pour l'itinéraire complet, suivre le [url=https://www.visugpx.com/membres/33867/voie-bleue/]dossier suivant[/url].]]></desc>
  </metadata>
  <trk>
    <name><![CDATA[Vélo sur route, 2026-05-18]]></name>
    <trkseg>
      <trkpt lat="48.37499" lon="6.28621">
        <ele>268.2998</ele>
        <time>2026-05-18T08:15:00+02:00</time>
      </trkpt>
      <trkpt lat="48.37498" lon="6.28623">
        <ele>268.2998</ele>
        <time>2026-05-18T08:16:09+02:00</time>
      </trkpt>
      <trkpt lat="48.37497" lon="6.28624">
        <ele>268.5</ele>
        <time>2026-05-18T08:16:10+02:00</time>
      </trkpt>
      <trkpt lat="48.37497" lon="6.28624">
        <ele>268.5</ele>
        <time>2026-05-18T08:16:11+02:00</time>
      </trkpt>
      <trkpt lat="48.37497" lon="6.28625">
        <ele>268.5</ele>
        <time>2026-05-18T08:16:12+02:00</time>
      </trkpt>
      <trkpt lat="48.37497" lon="6.28625">
        <ele>268.5</ele>
        <time>2026-05-18T08:16:13+02:00</time>
      </trkpt>
      <trkpt lat="48.37497" lon="6.28625">
        <ele>268.5</ele>
        <time>2026-05-18T08:16:14+02:00</time>
      </trkpt>
      <trkpt lat="48.37497" lon="6.2862">
        <ele>268.2998</ele>
        <time>2026-05-18T08:36:19+02:00</time>
      </trkpt>
      <trkpt lat="48.37497" lon="6.2862">
        <ele>268.2998</ele>
        <time>2026-05-18T08:36:20+02:00</time>
      </trkpt>
      <trkpt lat="48.37499" lon="6.2862">
        <ele>268.2998</ele>
        <time>2026-05-18T08:36:21+02:00</time>
      </trkpt>
      <trkpt lat="48.375" lon="6.28622">
        <ele>268.2998</ele>
        <time>2026-05-18T08:36:22+02:00</time>
      </trkpt>
      <trkpt lat="48.37501" lon="6.28624">
        <ele>268.4004</ele>
        <time>2026-05-18T08:36:23+02:00</time>
      </trkpt>
      <trkpt lat="48.37502" lon="6.28626">
        <ele>268.4004</ele>
        <time>2026-05-18T08:36:24+02:00</time>
      </trkpt>
      <trkpt lat="48.37504" lon="6.28628">
        <ele>268.4004</ele>
        <time>2026-05-18T08:36:25+02:00</time>
      </trkpt>
      <trkpt lat="48.37507" lon="6.28629">
        <ele>268.2998</ele>
        <time>2026-05-18T08:36:26+02:00</time>
      </trkpt>
      <trkpt lat="48.3751" lon="6.2863">
        <ele>268.2998</ele>
        <time>2026-05-18T08:36:27+02:00</time>
      </trkpt>
      <trkpt lat="48.37513" lon="6.2863">
        <ele>268.2002</ele>
        <time>2026-05-18T08:36:28+02:00</time>
      </trkpt>
      <trkpt lat="48.37515" lon="6.28631">
        <ele>268.2002</ele>
        <time>2026-05-18T08:36:29+02:00</time>
      </trkpt>
      <trkpt lat="48.37518" lon="6.28632">
        <ele>268.2002</ele>
        <time>2026-05-18T08:36:30+02:00</time>
      </trkpt>
      <trkpt lat="48.37521" lon="6.28633">
        <ele>268.2998</ele>
        <time>2026-05-18T08:36:31+02:00</time>
      </trkpt>
      <trkpt lat="48.37523" lon="6.28634">
        <ele>268.2998</ele>
        <time>2026-05-18T08:36:32+02:00</time>
      </trkpt>
      <trkpt lat="48.37526" lon="6.28636">
        <ele>268.2002</ele>
        <time>2026-05-18T08:36:33+02:00</time>
      </trkpt>
      <trkpt lat="48.37529" lon="6.28638">
        <ele>268.2002</ele>
        <time>2026-05-18T08:36:34+02:00</time>
      </trkpt>
      <trkpt lat="48.37532" lon="6.2864">
        <ele>268.1006</ele>
        <time>2026-05-18T08:36:35+02:00</time>
      </trkpt>
      <trkpt lat="48.37535" lon="6.28641">
        <ele>268.1006</ele>
        <time>2026-05-18T08:36:36+02:00</time>
      </trkpt>
      <trkpt lat="48.37539" lon="6.28643">
        <ele>268.1006</ele>
        <time>2026-05-18T08:36:37+02:00</time>
      </trkpt>
      <trkpt lat="48.37542" lon="6.28645">
        <ele>268</ele>
        <time>2026-05-18T08:36:38+02:00</time>
      </trkpt>
      <trkpt lat="48.37546" lon="6.28647">
        <ele>268</ele>
        <time>2026-05-18T08:36:39+02:00</time>
      </trkpt>
      <trkpt lat="48.3755" lon="6.28648">
        <ele>267.9004</ele>
        <time>2026-05-18T08:36:40+02:00</time>
      </trkpt>
      <trkpt lat="48.37554" lon="6.2865">
        <ele>267.9004</ele>
        <time>2026-05-18T08:36:41+02:00</time>
      </trkpt>
      <trkpt lat="48.37558" lon="6.28651">
        <ele>267.9004</ele>
        <time>2026-05-18T08:36:42+02:00</time>
      </trkpt>
      <trkpt lat="48.37562" lon="6.28653">
        <ele>267.7998</ele>
        <time>2026-05-18T08:36:43+02:00</time>
      </trkpt>
      <trkpt lat="48.37567" lon="6.28655">
        <ele>267.7002</ele>
        <time>2026-05-18T08:36:44+02:00</time>
      </trkpt>
      <trkpt lat="48.37571" lon="6.28658">
        <ele>267.7002</ele>
        <time>2026-05-18T08:36:45+02:00</time>
      </trkpt>
      <trkpt lat="48.37576" lon="6.2866">
        <ele>267.7998</ele>
        <time>2026-05-18T08:36:46+02:00</time>
      </trkpt>
      <trkpt lat="48.3758" lon="6.28662">
        <ele>267.7998</ele>
        <time>2026-05-18T08:36:47+02:00</time>
      </trkpt>
      <trkpt lat="48.37585" lon="6.28664">
        <ele>267.7002</ele>
        <time>2026-05-18T08:36:48+02:00</time>
      </trkpt>
      <trkpt lat="48.3759" lon="6.28666">
        <ele>267.7002</ele>
        <time>2026-05-18T08:36:49+02:00</time>
      </trkpt>
      <trkpt lat="48.37594" lon="6.28668">
        <ele>267.7002</ele>
        <time>2026-05-18T08:36:50+02:00</time>
      </trkpt>
      <trkpt lat="48.37599" lon="6.28671">
        <ele>267.7002</ele>
        <time>2026-05-18T08:36:51+02:00</time>
      </trkpt>
      <trkpt lat="48.37603" lon="6.28673">
        <ele>267.7002</ele>
        <time>2026-05-18T08:36:52+02:00</time>
      </trkpt>
      <trkpt lat="48.37608" lon="6.28675">
        <ele>267.6006</ele>
        <time>2026-05-18T08:36:53+02:00</time>
      </trkpt>
      <trkpt lat="48.37613" lon="6.28677">
        <ele>267.6006</ele>
        <time>2026-05-18T08:36:54+02:00</time>
      </trkpt>
      <trkpt lat="48.37617" lon="6.2868">
        <ele>267.6006</ele>
        <time>2026-05-18T08:36:55+02:00</time>
      </trkpt>
      <trkpt lat="48.37622" lon="6.28682">
        <ele>267.5</ele>
        <time>2026-05-18T08:36:56+02:00</time>
      </trkpt>
      <trkpt lat="48.37627" lon="6.28684">
        <ele>267.4004</ele>
        <time>2026-05-18T08:36:57+02:00</time>
      </trkpt>
      <trkpt lat="48.37631" lon="6.28687">
        <ele>267.5</ele>
        <time>2026-05-18T08:36:58+02:00</time>
      </trkpt>
      <trkpt lat="48.37636" lon="6.28689">
        <ele>267.5</ele>
        <time>2026-05-18T08:36:59+02:00</time>
      </trkpt>
      <trkpt lat="48.37641" lon="6.28691">
        <ele>267.4004</ele>
        <time>2026-05-18T08:37:00+02:00</time>
      </trkpt>
      <trkpt lat="48.37645" lon="6.28692">
        <ele>267.2998</ele>
        <time>2026-05-18T08:37:01+02:00</time>
      </trkpt>
      <trkpt lat="48.3765" lon="6.28693">
        <ele>267.2002</ele>
        <time>2026-05-18T08:37:02+02:00</time>
      </trkpt>
      <trkpt lat="48.37654" lon="6.28693">
        <ele>267.2002</ele>
        <time>2026-05-18T08:37:03+02:00</time>
      </trkpt>
      <trkpt lat="48.37658" lon="6.28693">
        <ele>267</ele>
        <time>2026-05-18T08:37:04+02:00</time>
      </trkpt>
      <trkpt lat="48.37663" lon="6.28693">
        <ele>266.6006</ele>
        <time>2026-05-18T08:37:05+02:00</time>
      </trkpt>
      <trkpt lat="48.37667" lon="6.28692">
        <ele>266.1006</ele>
        <time>2026-05-18T08:37:06+02:00</time>
      </trkpt>
      <trkpt lat="48.37671" lon="6.2869">
        <ele>266.1006</ele>
        <time>2026-05-18T08:37:07+02:00</time>
      </trkpt>
      <trkpt lat="48.37675" lon="6.28689">
        <ele>265.7998</ele>
        <time>2026-05-18T08:37:08+02:00</time>
      </trkpt>
      <trkpt lat="48.37679" lon="6.28687">
        <ele>265.5</ele>
        <time>2026-05-18T08:37:09+02:00</time>
      </trkpt>
      <trkpt lat="48.37682" lon="6.28687">
        <ele>265.5</ele>
        <time>2026-05-18T08:37:10+02:00</time>
      </trkpt>
      <trkpt lat="48.37686" lon="6.28686">
        <ele>265.2002</ele>
        <time>2026-05-18T08:37:11+02:00</time>
      </trkpt>
      <trkpt lat="48.37689" lon="6.28683">
        <ele>265.2002</ele>
        <time>2026-05-18T08:37:12+02:00</time>
      </trkpt>
      <trkpt lat="48.37692" lon="6.28678">
        <ele>265</ele>
        <time>2026-05-18T08:37:13+02:00</time>
      </trkpt>
      <trkpt lat="48.37693" lon="6.28672">
        <ele>264.9004</ele>
        <time>2026-05-18T08:37:14+02:00</time>
      </trkpt>
      <trkpt lat="48.37694" lon="6.28664">
        <ele>264.9004</ele>
        <time>2026-05-18T08:37:15+02:00</time>
      </trkpt>
      <trkpt lat="48.37694" lon="6.2866">
        <ele>264.9004</ele>
        <time>2026-05-18T08:37:16+02:00</time>
      </trkpt>
      <trkpt lat="48.37694" lon="6.28649">
        <ele>264.9004</ele>
        <time>2026-05-18T08:37:17+02:00</time>
      </trkpt>
      <trkpt lat="48.37694" lon="6.2864">
        <ele>264.9004</ele>
        <time>2026-05-18T08:37:18+02:00</time>
      </trkpt>
      <trkpt lat="48.37693" lon="6.28632">
        <ele>264.9004</ele>
        <time>2026-05-18T08:37:19+02:00</time>
      </trkpt>
      <trkpt lat="48.37692" lon="6.28623">
        <ele>264.9004</ele>
        <time>2026-05-18T08:37:20+02:00</time>
      </trkpt>
      <trkpt lat="48.37691" lon="6.28614">
        <ele>264.9004</ele>
        <time>2026-05-18T08:37:21+02:00</time>
      </trkpt>
      <trkpt lat="48.3769" lon="6.28605">
        <ele>264.7998</ele>
        <time>2026-05-18T08:37:22+02:00</time>
      </trkpt>
      <trkpt lat="48.37689" lon="6.28596">
        <ele>265</ele>
        <time>2026-05-18T08:37:23+02:00</time>
      </trkpt>
      <trkpt lat="48.37689" lon="6.28586">
        <ele>265</ele>
        <time>2026-05-18T08:37:24+02:00</time>
      </trkpt>
      <trkpt lat="48.37688" lon="6.28577">
        <ele>265</ele>
        <time>2026-05-18T08:37:25+02:00</time>
      </trkpt>
      <trkpt lat="48.37687" lon="6.28568">
        <ele>265</ele>
        <time>2026-05-18T08:37:26+02:00</time>
      </trkpt>
      <trkpt lat="48.37686" lon="6.28558">
        <ele>264.9004</ele>
        <time>2026-05-18T08:37:27+02:00</time>
      </trkpt>
      <trkpt lat="48.37686" lon="6.28549">
        <ele>264.9004</ele>
        <time>2026-05-18T08:37:28+02:00</time>
      </trkpt>
      <trkpt lat="48.37685" lon="6.28539">
        <ele>264.9004</ele>
        <time>2026-05-18T08:37:29+02:00</time>
      </trkpt>
      <trkpt lat="48.37684" lon="6.28529">
        <ele>264.9004</ele>
        <time>2026-05-18T08:37:30+02:00</time>
      </trkpt>
      <trkpt lat="48.37683" lon="6.28519">
        <ele>265</ele>
        <time>2026-05-18T08:37:31+02:00</time>
      </trkpt>
      <trkpt lat="48.37682" lon="6.28509">
        <ele>265</ele>
        <time>2026-05-18T08:37:32+02:00</time>
      </trkpt>
      <trkpt lat="48.37682" lon="6.28499">
        <ele>265.1006</ele>
        <time>2026-05-18T08:37:33+02:00</time>
      </trkpt>
      <trkpt lat="48.37679" lon="6.28461">
        <ele>265.1006</ele>
        <time>2026-05-18T08:37:34+02:00</time>
      </trkpt>
      <trkpt lat="48.37678" lon="6.28451">
        <ele>265.1006</ele>
        <time>2026-05-18T08:37:35+02:00</time>
      </trkpt>
      <trkpt lat="48.37677" lon="6.28442">
        <ele>265</ele>
        <time>2026-05-18T08:37:36+02:00</time>
      </trkpt>
      <trkpt lat="48.37676" lon="6.28433">
        <ele>264.9004</ele>
        <time>2026-05-18T08:37:37+02:00</time>
      </trkpt>
      <trkpt lat="48.37676" lon="6.28428">
        <ele>264.9004</ele>
        <time>2026-05-18T08:37:38+02:00</time>
      </trkpt>
      <trkpt lat="48.37674" lon="6.28414">
        <ele>265</ele>
        <time>2026-05-18T08:37:39+02:00</time>
      </trkpt>
      <trkpt lat="48.37674" lon="6.28405">
        <ele>265</ele>
        <time>2026-05-18T08:37:40+02:00</time>
      </trkpt>
      <trkpt lat="48.37673" lon="6.28395">
        <ele>265</ele>
        <time>2026-05-18T08:37:41+02:00</time>
      </trkpt>
      <trkpt lat="48.37672" lon="6.28386">
        <ele>265</ele>
        <time>2026-05-18T08:37:42+02:00</time>
      </trkpt>
      <trkpt lat="48.37671" lon="6.28377">
        <ele>264.9004</ele>
        <time>2026-05-18T08:37:43+02:00</time>
      </trkpt>
      <trkpt lat="48.3767" lon="6.28368">
        <ele>264.9004</ele>
        <time>2026-05-18T08:37:44+02:00</time>
      </trkpt>
      <trkpt lat="48.3767" lon="6.28359">
        <ele>264.9004</ele>
        <time>2026-05-18T08:37:45+02:00</time>
      </trkpt>
      <trkpt lat="48.37669" lon="6.28349">
        <ele>264.9004</ele>
        <time>2026-05-18T08:37:46+02:00</time>
      </trkpt>
      <trkpt lat="48.37668" lon="6.2834">
        <ele>264.9004</ele>
        <time>2026-05-18T08:37:47+02:00</time>
      </trkpt>
      <trkpt lat="48.37667" lon="6.28331">
        <ele>264.9004</ele>
        <time>2026-05-18T08:37:48+02:00</time>
      </trkpt>
      <trkpt lat="48.37666" lon="6.28322">
        <ele>264.7998</ele>
        <time>2026-05-18T08:37:49+02:00</time>
      </trkpt>
      <trkpt lat="48.37665" lon="6.28313">
        <ele>264.7998</ele>
        <time>2026-05-18T08:37:50+02:00</time>
      </trkpt>
      <trkpt lat="48.37664" lon="6.28304">
        <ele>264.7998</ele>
        <time>2026-05-18T08:37:51+02:00</time>
      </trkpt>
      <trkpt lat="48.37663" lon="6.28295">
        <ele>264.7998</ele>
        <time>2026-05-18T08:37:52+02:00</time>
      </trkpt>
      <trkpt lat="48.37662" lon="6.28286">
        <ele>264.7998</ele>
        <time>2026-05-18T08:37:53+02:00</time>
      </trkpt>
      <trkpt lat="48.37661" lon="6.28278">
        <ele>264.7998</ele>
        <time>2026-05-18T08:37:54+02:00</time>
      </trkpt>
      <trkpt lat="48.3766" lon="6.28269">
        <ele>264.7998</ele>
        <time>2026-05-18T08:37:55+02:00</time>
      </trkpt>
      <trkpt lat="48.3766" lon="6.28261">
        <ele>264.7998</ele>
        <time>2026-05-18T08:37:56+02:00</time>
      </trkpt>
      <trkpt lat="48.37659" lon="6.28253">
        <ele>264.7998</ele>
        <time>2026-05-18T08:37:57+02:00</time>
      </trkpt>
      <trkpt lat="48.37658" lon="6.28245">
        <ele>264.7998</ele>
        <time>2026-05-18T08:37:58+02:00</time>
      </trkpt>
      <trkpt lat="48.37657" lon="6.28237">
        <ele>264.7998</ele>
        <time>2026-05-18T08:37:59+02:00</time>
      </trkpt>
      <trkpt lat="48.37656" lon="6.28229">
        <ele>264.7998</ele>
        <time>2026-05-18T08:38:00+02:00</time>
      </trkpt>
      <trkpt lat="48.37656" lon="6.28221">
        <ele>264.7998</ele>
        <time>2026-05-18T08:38:01+02:00</time>
      </trkpt>
      <trkpt lat="48.37655" lon="6.28213">
        <ele>264.7998</ele>
        <time>2026-05-18T08:38:02+02:00</time>
      </trkpt>
      <trkpt lat="48.37654" lon="6.28206">
        <ele>264.7998</ele>
        <time>2026-05-18T08:38:03+02:00</time>
      </trkpt>
      <trkpt lat="48.37654" lon="6.28198">
        <ele>264.7998</ele>
        <time>2026-05-18T08:38:04+02:00</time>
      </trkpt>
      <trkpt lat="48.37653" lon="6.2819">
        <ele>264.9004</ele>
        <time>2026-05-18T08:38:05+02:00</time>
      </trkpt>
      <trkpt lat="48.37652" lon="6.28182">
        <ele>264.9004</ele>
        <time>2026-05-18T08:38:06+02:00</time>
      </trkpt>
      <trkpt lat="48.37651" lon="6.28174">
        <ele>264.9004</ele>
        <time>2026-05-18T08:38:07+02:00</time>
      </trkpt>
      <trkpt lat="48.3765" lon="6.28166">
        <ele>264.7998</ele>
        <time>2026-05-18T08:38:08+02:00</time>
      </trkpt>
      <trkpt lat="48.3765" lon="6.28158">
        <ele>264.7998</ele>
        <time>2026-05-18T08:38:09+02:00</time>
      </trkpt>
      <trkpt lat="48.37649" lon="6.2815">
        <ele>264.7998</ele>
        <time>2026-05-18T08:38:10+02:00</time>
      </trkpt>
      <trkpt lat="48.37648" lon="6.28143">
        <ele>264.7002</ele>
        <time>2026-05-18T08:38:11+02:00</time>
      </trkpt>
      <trkpt lat="48.37647" lon="6.28135">
        <ele>264.7002</ele>
        <time>2026-05-18T08:38:12+02:00</time>
      </trkpt>
      <trkpt lat="48.37646" lon="6.28127">
        <ele>264.7002</ele>
        <time>2026-05-18T08:38:13+02:00</time>
      </trkpt>
      <trkpt lat="48.37645" lon="6.2812">
        <ele>264.7002</ele>
        <time>2026-05-18T08:38:14+02:00</time>
      </trkpt>
      <trkpt lat="48.37644" lon="6.28113">
        <ele>264.7002</ele>
        <time>2026-05-18T08:38:15+02:00</time>
      </trkpt>
      <trkpt lat="48.37644" lon="6.28106">
        <ele>264.7002</ele>
        <time>2026-05-18T08:38:16+02:00</time>
      </trkpt>
      <trkpt lat="48.37643" lon="6.28102">
        <ele>264.7002</ele>
        <time>2026-05-18T08:38:17+02:00</time>
      </trkpt>
      <trkpt lat="48.37642" lon="6.28092">
        <ele>264.7002</ele>
        <time>2026-05-18T08:38:18+02:00</time>
      </trkpt>
      <trkpt lat="48.37641" lon="6.28085">
        <ele>264.6006</ele>
        <time>2026-05-18T08:38:19+02:00</time>
      </trkpt>
      <trkpt lat="48.3764" lon="6.28079">
        <ele>264.6006</ele>
        <time>2026-05-18T08:38:20+02:00</time>
      </trkpt>
      <trkpt lat="48.3764" lon="6.28073">
        <ele>264.6006</ele>
        <time>2026-05-18T08:38:21+02:00</time>
      </trkpt>
      <trkpt lat="48.3764" lon="6.28066">
        <ele>264.6006</ele>
        <time>2026-05-18T08:38:22+02:00</time>
      </trkpt>
      <trkpt lat="48.37639" lon="6.2806">
        <ele>264.6006</ele>
        <time>2026-05-18T08:38:23+02:00</time>
      </trkpt>
      <trkpt lat="48.37639" lon="6.28053">
        <ele>264.6006</ele>
        <time>2026-05-18T08:38:24+02:00</time>
      </trkpt>
      <trkpt lat="48.37639" lon="6.28045">
        <ele>264.6006</ele>
        <time>2026-05-18T08:38:25+02:00</time>
      </trkpt>
      <trkpt lat="48.37638" lon="6.28037">
        <ele>264.5</ele>
        <time>2026-05-18T08:38:26+02:00</time>
      </trkpt>
      <trkpt lat="48.37637" lon="6.28029">
        <ele>264.6006</ele>
        <time>2026-05-18T08:38:27+02:00</time>
      </trkpt>
      <trkpt lat="48.37637" lon="6.2802">
        <ele>264.6006</ele>
        <time>2026-05-18T08:38:28+02:00</time>
      </trkpt>
      <trkpt lat="48.37637" lon="6.28016">
        <ele>264.6006</ele>
        <time>2026-05-18T08:38:29+02:00</time>
      </trkpt>
      <trkpt lat="48.37636" lon="6.28003">
        <ele>264.4004</ele>
        <time>2026-05-18T08:38:30+02:00</time>
      </trkpt>
      <trkpt lat="48.37634" lon="6.27994">
        <ele>264.2998</ele>
        <time>2026-05-18T08:38:31+02:00</time>
      </trkpt>
      <trkpt lat="48.37633" lon="6.27985">
        <ele>264.2002</ele>
        <time>2026-05-18T08:38:32+02:00</time>
      </trkpt>
      <trkpt lat="48.37632" lon="6.27976">
        <ele>264.2002</ele>
        <time>2026-05-18T08:38:33+02:00</time>
      </trkpt>
      <trkpt lat="48.37631" lon="6.27967">
        <ele>264</ele>
        <time>2026-05-18T08:38:34+02:00</time>
      </trkpt>
      <trkpt lat="48.3763" lon="6.27959">
        <ele>263.9004</ele>
        <time>2026-05-18T08:38:35+02:00</time>
      </trkpt>
      <trkpt lat="48.37629" lon="6.27951">
        <ele>263.7002</ele>
        <time>2026-05-18T08:38:36+02:00</time>
      </trkpt>
      <trkpt lat="48.37628" lon="6.27943">
        <ele>263.6006</ele>
        <time>2026-05-18T08:38:37+02:00</time>
      </trkpt>
      <trkpt lat="48.37628" lon="6.27935">
        <ele>263.5</ele>
        <time>2026-05-18T08:38:38+02:00</time>
      </trkpt>
      <trkpt lat="48.37626" lon="6.27928">
        <ele>263.6006</ele>
        <time>2026-05-18T08:38:39+02:00</time>
      </trkpt>
      <trkpt lat="48.37626" lon="6.27921">
        <ele>263.6006</ele>
        <time>2026-05-18T08:38:40+02:00</time>
      </trkpt>
      <trkpt lat="48.37624" lon="6.27914">
        <ele>263.5</ele>
        <time>2026-05-18T08:38:41+02:00</time>
      </trkpt>
      <trkpt lat="48.37624" lon="6.27908">
        <ele>263.5</ele>
        <time>2026-05-18T08:38:42+02:00</time>
      </trkpt>
      <trkpt lat="48.37623" lon="6.27901">
        <ele>263.5</ele>
        <time>2026-05-18T08:38:43+02:00</time>
      </trkpt>
      <trkpt lat="48.37622" lon="6.27894">
        <ele>263.5</ele>
        <time>2026-05-18T08:38:44+02:00</time>
      </trkpt>
      <trkpt lat="48.37621" lon="6.27887">
        <ele>263.5</ele>
        <time>2026-05-18T08:38:45+02:00</time>
      </trkpt>
      <trkpt lat="48.3762" lon="6.27881">
        <ele>263.7998</ele>
        <time>2026-05-18T08:38:46+02:00</time>
      </trkpt>
      <trkpt lat="48.3762" lon="6.27874">
        <ele>263.9004</ele>
        <time>2026-05-18T08:38:47+02:00</time>
      </trkpt>
      <trkpt lat="48.37619" lon="6.27867">
        <ele>263.9004</ele>
        <time>2026-05-18T08:38:48+02:00</time>
      </trkpt>
      <trkpt lat="48.37618" lon="6.2786">
        <ele>264</ele>
        <time>2026-05-18T08:38:49+02:00</time>
      </trkpt>
      <trkpt lat="48.37617" lon="6.27853">
        <ele>264</ele>
        <time>2026-05-18T08:38:50+02:00</time>
      </trkpt>
      <trkpt lat="48.37617" lon="6.27846">
        <ele>264.2002</ele>
        <time>2026-05-18T08:38:51+02:00</time>
      </trkpt>
      <trkpt lat="48.37617" lon="6.27838">
        <ele>264.2998</ele>
        <time>2026-05-18T08:38:52+02:00</time>
      </trkpt>
      <trkpt lat="48.37617" lon="6.27831">
        <ele>264.4004</ele>
        <time>2026-05-18T08:38:53+02:00</time>
      </trkpt>
      <trkpt lat="48.37616" lon="6.27823">
        <ele>264.5</ele>
        <time>2026-05-18T08:38:54+02:00</time>
      </trkpt>
      <trkpt lat="48.37616" lon="6.27816">
        <ele>264.6006</ele>
        <time>2026-05-18T08:38:55+02:00</time>
      </trkpt>
      <trkpt lat="48.37616" lon="6.27809">
        <ele>264.6006</ele>
        <time>2026-05-18T08:38:56+02:00</time>
      </trkpt>
      <trkpt lat="48.37615" lon="6.27802">
        <ele>265</ele>
        <time>2026-05-18T08:38:57+02:00</time>
      </trkpt>
      <trkpt lat="48.37615" lon="6.27794">
        <ele>265.2002</ele>
        <time>2026-05-18T08:38:58+02:00</time>
      </trkpt>
      <trkpt lat="48.37615" lon="6.27787">
        <ele>265.2998</ele>
        <time>2026-05-18T08:38:59+02:00</time>
      </trkpt>
      <trkpt lat="48.37615" lon="6.2778">
        <ele>265.2998</ele>
        <time>2026-05-18T08:39:00+02:00</time>
      </trkpt>
      <trkpt lat="48.37615" lon="6.27773">
        <ele>265.2998</ele>
        <time>2026-05-18T08:39:01+02:00</time>
      </trkpt>
      <trkpt lat="48.37615" lon="6.27766">
        <ele>265.2998</ele>
        <time>2026-05-18T08:39:02+02:00</time>
      </trkpt>
      <trkpt lat="48.37616" lon="6.27759">
        <ele>264.9004</ele>
        <time>2026-05-18T08:39:03+02:00</time>
      </trkpt>
      <trkpt lat="48.37616" lon="6.27756">
        <ele>264.9004</ele>
        <time>2026-05-18T08:39:04+02:00</time>
      </trkpt>
      <trkpt lat="48.37616" lon="6.27745">
        <ele>264.9004</ele>
        <time>2026-05-18T08:39:05+02:00</time>
      </trkpt>
      <trkpt lat="48.37617" lon="6.27738">
        <ele>264.7998</ele>
        <time>2026-05-18T08:39:06+02:00</time>
      </trkpt>
      <trkpt lat="48.37617" lon="6.27731">
        <ele>264.7998</ele>
        <time>2026-05-18T08:39:07+02:00</time>
      </trkpt>
      <trkpt lat="48.37618" lon="6.27723">
        <ele>264.7998</ele>
        <time>2026-05-18T08:39:08+02:00</time>
      </trkpt>
      <trkpt lat="48.37618" lon="6.27716">
        <ele>264.7998</ele>
        <time>2026-05-18T08:39:09+02:00</time>
      </trkpt>
      <trkpt lat="48.37619" lon="6.27709">
        <ele>264.7998</ele>
        <time>2026-05-18T08:39:10+02:00</time>
      </trkpt>
      <trkpt lat="48.3762" lon="6.27701">
        <ele>264.7998</ele>
        <time>2026-05-18T08:39:11+02:00</time>
      </trkpt>
      <trkpt lat="48.3762" lon="6.27694">
        <ele>264.7998</ele>
        <time>2026-05-18T08:39:12+02:00</time>
      </trkpt>
      <trkpt lat="48.37621" lon="6.27687">
        <ele>264.4004</ele>
        <time>2026-05-18T08:39:13+02:00</time>
      </trkpt>
      <trkpt lat="48.37621" lon="6.27679">
        <ele>264.4004</ele>
        <time>2026-05-18T08:39:14+02:00</time>
      </trkpt>
      <trkpt lat="48.37622" lon="6.27672">
        <ele>264.4004</ele>
        <time>2026-05-18T08:39:15+02:00</time>
      </trkpt>
      <trkpt lat="48.37623" lon="6.27665">
        <ele>264.4004</ele>
        <time>2026-05-18T08:39:16+02:00</time>
      </trkpt>
      <trkpt lat="48.37624" lon="6.27661">
        <ele>264.4004</ele>
        <time>2026-05-18T08:39:17+02:00</time>
      </trkpt>
      <trkpt lat="48.37625" lon="6.27649">
        <ele>264.4004</ele>
        <time>2026-05-18T08:39:18+02:00</time>
      </trkpt>
      <trkpt lat="48.37626" lon="6.27642">
        <ele>264.5</ele>
        <time>2026-05-18T08:39:19+02:00</time>
      </trkpt>
      <trkpt lat="48.37627" lon="6.27635">
        <ele>264.5</ele>
        <time>2026-05-18T08:39:20+02:00</time>
      </trkpt>
      <trkpt lat="48.37628" lon="6.27627">
        <ele>264.7002</ele>
        <time>2026-05-18T08:39:21+02:00</time>
      </trkpt>
      <trkpt lat="48.3763" lon="6.2762">
        <ele>264.7002</ele>
        <time>2026-05-18T08:39:22+02:00</time>
      </trkpt>
      <trkpt lat="48.37631" lon="6.27612">
        <ele>264.9004</ele>
        <time>2026-05-18T08:39:23+02:00</time>
      </trkpt>
      <trkpt lat="48.37633" lon="6.27604">
        <ele>264.9004</ele>
        <time>2026-05-18T08:39:24+02:00</time>
      </trkpt>
      <trkpt lat="48.37634" lon="6.27597">
        <ele>264.9004</ele>
        <time>2026-05-18T08:39:25+02:00</time>
      </trkpt>
      <trkpt lat="48.37635" lon="6.27589">
        <ele>264.9004</ele>
        <time>2026-05-18T08:39:26+02:00</time>
      </trkpt>
      <trkpt lat="48.37637" lon="6.27581">
        <ele>264.9004</ele>
        <time>2026-05-18T08:39:27+02:00</time>
      </trkpt>
      <trkpt lat="48.37639" lon="6.27574">
        <ele>264.5</ele>
        <time>2026-05-18T08:39:28+02:00</time>
      </trkpt>
      <trkpt lat="48.37641" lon="6.27567">
        <ele>264.5</ele>
        <time>2026-05-18T08:39:29+02:00</time>
      </trkpt>
      <trkpt lat="48.37642" lon="6.2756">
        <ele>264.5</ele>
        <time>2026-05-18T08:39:30+02:00</time>
      </trkpt>
      <trkpt lat="48.37644" lon="6.27552">
        <ele>264.1006</ele>
        <time>2026-05-18T08:39:31+02:00</time>
      </trkpt>
      <trkpt lat="48.37645" lon="6.27545">
        <ele>264.2998</ele>
        <time>2026-05-18T08:39:32+02:00</time>
      </trkpt>
      <trkpt lat="48.37648" lon="6.27538">
        <ele>264.4004</ele>
        <time>2026-05-18T08:39:33+02:00</time>
      </trkpt>
      <trkpt lat="48.37649" lon="6.2753">
        <ele>264.6006</ele>
        <time>2026-05-18T08:39:34+02:00</time>
      </trkpt>
      <trkpt lat="48.37651" lon="6.27523">
        <ele>264.7002</ele>
        <time>2026-05-18T08:39:35+02:00</time>
      </trkpt>
      <trkpt lat="48.37653" lon="6.27515">
        <ele>264.9004</ele>
        <time>2026-05-18T08:39:36+02:00</time>
      </trkpt>
      <trkpt lat="48.37655" lon="6.27508">
        <ele>264.9004</ele>
        <time>2026-05-18T08:39:37+02:00</time>
      </trkpt>
      <trkpt lat="48.37657" lon="6.27501">
        <ele>264.7002</ele>
        <time>2026-05-18T08:39:38+02:00</time>
      </trkpt>
      <trkpt lat="48.3766" lon="6.27494">
        <ele>264.7002</ele>
        <time>2026-05-18T08:39:39+02:00</time>
      </trkpt>
      <trkpt lat="48.37662" lon="6.27487">
        <ele>264.2002</ele>
        <time>2026-05-18T08:39:40+02:00</time>
      </trkpt>
      <trkpt lat="48.37665" lon="6.2748">
        <ele>264.2002</ele>
        <time>2026-05-18T08:39:41+02:00</time>
      </trkpt>
      <trkpt lat="48.37667" lon="6.27473">
        <ele>263.7002</ele>
        <time>2026-05-18T08:39:42+02:00</time>
      </trkpt>
      <trkpt lat="48.37669" lon="6.27466">
        <ele>263.7002</ele>
        <time>2026-05-18T08:39:43+02:00</time>
      </trkpt>
      <trkpt lat="48.37671" lon="6.27459">
        <ele>263.9004</ele>
        <time>2026-05-18T08:39:44+02:00</time>
      </trkpt>
      <trkpt lat="48.37674" lon="6.27452">
        <ele>263.7998</ele>
        <time>2026-05-18T08:39:45+02:00</time>
      </trkpt>
      <trkpt lat="48.37676" lon="6.27445">
        <ele>264.1006</ele>
        <time>2026-05-18T08:39:46+02:00</time>
      </trkpt>
      <trkpt lat="48.37678" lon="6.27438">
        <ele>264.1006</ele>
        <time>2026-05-18T08:39:47+02:00</time>
      </trkpt>
      <trkpt lat="48.37681" lon="6.27432">
        <ele>264.1006</ele>
        <time>2026-05-18T08:39:48+02:00</time>
      </trkpt>
      <trkpt lat="48.37684" lon="6.27425">
        <ele>264</ele>
        <time>2026-05-18T08:39:49+02:00</time>
      </trkpt>
      <trkpt lat="48.37687" lon="6.27418">
        <ele>264.2002</ele>
        <time>2026-05-18T08:39:50+02:00</time>
      </trkpt>
      <trkpt lat="48.3769" lon="6.27411">
        <ele>264.2998</ele>
        <time>2026-05-18T08:39:51+02:00</time>
      </trkpt>
      <trkpt lat="48.37693" lon="6.27405">
        <ele>264.4004</ele>
        <time>2026-05-18T08:39:52+02:00</time>
      </trkpt>
      <trkpt lat="48.37696" lon="6.27399">
        <ele>264.2002</ele>
        <time>2026-05-18T08:39:53+02:00</time>
      </trkpt>
      <trkpt lat="48.37698" lon="6.27392">
        <ele>264.4004</ele>
        <time>2026-05-18T08:39:54+02:00</time>
      </trkpt>
      <trkpt lat="48.37701" lon="6.27386">
        <ele>264.4004</ele>
        <time>2026-05-18T08:39:55+02:00</time>
      </trkpt>
      <trkpt lat="48.37704" lon="6.2738">
        <ele>264.4004</ele>
        <time>2026-05-18T08:39:56+02:00</time>
      </trkpt>
      <trkpt lat="48.37707" lon="6.27374">
        <ele>264.4004</ele>
        <time>2026-05-18T08:39:57+02:00</time>
      </trkpt>
      <trkpt lat="48.37711" lon="6.27368">
        <ele>264.6006</ele>
        <time>2026-05-18T08:39:58+02:00</time>
      </trkpt>
      <trkpt lat="48.37714" lon="6.27362">
        <ele>264.6006</ele>
        <time>2026-05-18T08:39:59+02:00</time>
      </trkpt>
      <trkpt lat="48.37717" lon="6.27356">
        <ele>264.6006</ele>
        <time>2026-05-18T08:40:00+02:00</time>
      </trkpt>
      <trkpt lat="48.37721" lon="6.2735">
        <ele>264.6006</ele>
        <time>2026-05-18T08:40:01+02:00</time>
      </trkpt>
      <trkpt lat="48.37724" lon="6.27344">
        <ele>264.6006</ele>
        <time>2026-05-18T08:40:02+02:00</time>
      </trkpt>
      <trkpt lat="48.37727" lon="6.27338">
        <ele>264.6006</ele>
        <time>2026-05-18T08:40:03+02:00</time>
      </trkpt>
      <trkpt lat="48.3773" lon="6.27333">
        <ele>264.5</ele>
        <time>2026-05-18T08:40:04+02:00</time>
      </trkpt>
      <trkpt lat="48.37732" lon="6.27328">
        <ele>264.5</ele>
        <time>2026-05-18T08:40:05+02:00</time>
      </trkpt>
      <trkpt lat="48.37735" lon="6.27322">
        <ele>264.5</ele>
        <time>2026-05-18T08:40:06+02:00</time>
      </trkpt>
      <trkpt lat="48.37737" lon="6.2732">
        <ele>264.5</ele>
        <time>2026-05-18T08:40:07+02:00</time>
      </trkpt>
      <trkpt lat="48.37742" lon="6.27312">
        <ele>264.5</ele>
        <time>2026-05-18T08:40:08+02:00</time>
      </trkpt>
      <trkpt lat="48.37744" lon="6.27308">
        <ele>264.6006</ele>
        <time>2026-05-18T08:40:09+02:00</time>
      </trkpt>
      <trkpt lat="48.37747" lon="6.27303">
        <ele>264.5</ele>
        <time>2026-05-18T08:40:10+02:00</time>
      </trkpt>
      <trkpt lat="48.37749" lon="6.27301">
        <ele>264.6006</ele>
        <time>2026-05-18T08:40:11+02:00</time>
      </trkpt>
      <trkpt lat="48.37753" lon="6.27293">
        <ele>264.5</ele>
        <time>2026-05-18T08:40:12+02:00</time>
      </trkpt>
      <trkpt lat="48.37756" lon="6.27289">
        <ele>264.5</ele>
        <time>2026-05-18T08:40:13+02:00</time>
      </trkpt>
      <trkpt lat="48.3776" lon="6.27284">
        <ele>264.5</ele>
        <time>2026-05-18T08:40:14+02:00</time>
      </trkpt>
      <trkpt lat="48.37763" lon="6.27279">
        <ele>264.5</ele>
        <time>2026-05-18T08:40:15+02:00</time>
      </trkpt>
      <trkpt lat="48.37766" lon="6.27275">
        <ele>264.4004</ele>
        <time>2026-05-18T08:40:16+02:00</time>
      </trkpt>
      <trkpt lat="48.3777" lon="6.2727">
        <ele>264.2002</ele>
        <time>2026-05-18T08:40:17+02:00</time>
      </trkpt>
      <trkpt lat="48.37774" lon="6.27265">
        <ele>264.2998</ele>
        <time>2026-05-18T08:40:18+02:00</time>
      </trkpt>
      <trkpt lat="48.37778" lon="6.2726">
        <ele>264.1006</ele>
        <time>2026-05-18T08:40:19+02:00</time>
      </trkpt>
      <trkpt lat="48.37782" lon="6.27255">
        <ele>263.9004</ele>
        <time>2026-05-18T08:40:20+02:00</time>
      </trkpt>
      <trkpt lat="48.37786" lon="6.2725">
        <ele>263.7998</ele>
        <time>2026-05-18T08:40:21+02:00</time>
      </trkpt>
      <trkpt lat="48.3779" lon="6.27245">
        <ele>263.7998</ele>
        <time>2026-05-18T08:40:22+02:00</time>
      </trkpt>
      <trkpt lat="48.37795" lon="6.2724">
        <ele>263.7002</ele>
        <time>2026-05-18T08:40:23+02:00</time>
      </trkpt>
      <trkpt lat="48.37798" lon="6.27235">
        <ele>263.5</ele>
        <time>2026-05-18T08:40:24+02:00</time>
      </trkpt>
      <trkpt lat="48.37803" lon="6.27231">
        <ele>263.6006</ele>
        <time>2026-05-18T08:40:25+02:00</time>
      </trkpt>
      <trkpt lat="48.37807" lon="6.27227">
        <ele>263.4004</ele>
        <time>2026-05-18T08:40:26+02:00</time>
      </trkpt>
      <trkpt lat="48.37811" lon="6.27222">
        <ele>263.2998</ele>
        <time>2026-05-18T08:40:27+02:00</time>
      </trkpt>
      <trkpt lat="48.37816" lon="6.27218">
        <ele>263.1006</ele>
        <time>2026-05-18T08:40:28+02:00</time>
      </trkpt>
      <trkpt lat="48.37821" lon="6.27214">
        <ele>263</ele>
        <time>2026-05-18T08:40:29+02:00</time>
      </trkpt>
      <trkpt lat="48.37825" lon="6.27209">
        <ele>263</ele>
        <time>2026-05-18T08:40:30+02:00</time>
      </trkpt>
      <trkpt lat="48.3783" lon="6.27205">
        <ele>262.9004</ele>
        <time>2026-05-18T08:40:31+02:00</time>
      </trkpt>
      <trkpt lat="48.37834" lon="6.27201">
        <ele>262.7002</ele>
        <time>2026-05-18T08:40:32+02:00</time>
      </trkpt>
      <trkpt lat="48.37839" lon="6.27197">
        <ele>262.6006</ele>
        <time>2026-05-18T08:40:33+02:00</time>
      </trkpt>
      <trkpt lat="48.37845" lon="6.27192">
        <ele>262.4004</ele>
        <time>2026-05-18T08:40:34+02:00</time>
      </trkpt>
      <trkpt lat="48.3785" lon="6.27188">
        <ele>262.4004</ele>
        <time>2026-05-18T08:40:35+02:00</time>
      </trkpt>
      <trkpt lat="48.37852" lon="6.27185">
        <ele>262.4004</ele>
        <time>2026-05-18T08:40:36+02:00</time>
      </trkpt>
      <trkpt lat="48.3786" lon="6.27178">
        <ele>262.4004</ele>
        <time>2026-05-18T08:40:37+02:00</time>
      </trkpt>
      <trkpt lat="48.37865" lon="6.27174">
        <ele>262.2002</ele>
        <time>2026-05-18T08:40:38+02:00</time>
      </trkpt>
      <trkpt lat="48.37869" lon="6.27169">
        <ele>262.2002</ele>
        <time>2026-05-18T08:40:39+02:00</time>
      </trkpt>
      <trkpt lat="48.37872" lon="6.27167">
        <ele>262.1006</ele>
        <time>2026-05-18T08:40:40+02:00</time>
      </trkpt>
      <trkpt lat="48.37879" lon="6.27161">
        <ele>262.2002</ele>
        <time>2026-05-18T08:40:41+02:00</time>
      </trkpt>
      <trkpt lat="48.37883" lon="6.27157">
        <ele>262.1006</ele>
        <time>2026-05-18T08:40:42+02:00</time>
      </trkpt>
      <trkpt lat="48.37888" lon="6.27154">
        <ele>262.2002</ele>
        <time>2026-05-18T08:40:43+02:00</time>
      </trkpt>
      <trkpt lat="48.37891" lon="6.27153">
        <ele>262.2002</ele>
        <time>2026-05-18T08:40:44+02:00</time>
      </trkpt>
      <trkpt lat="48.37898" lon="6.27147">
        <ele>262.2002</ele>
        <time>2026-05-18T08:40:45+02:00</time>
      </trkpt>
      <trkpt lat="48.37903" lon="6.27143">
        <ele>262.1006</ele>
        <time>2026-05-18T08:40:46+02:00</time>
      </trkpt>
      <trkpt lat="48.37908" lon="6.2714">
        <ele>262</ele>
        <time>2026-05-18T08:40:47+02:00</time>
      </trkpt>
      <trkpt lat="48.37913" lon="6.27137">
        <ele>262</ele>
        <time>2026-05-18T08:40:48+02:00</time>
      </trkpt>
      <trkpt lat="48.37917" lon="6.27133">
        <ele>262</ele>
        <time>2026-05-18T08:40:49+02:00</time>
      </trkpt>
      <trkpt lat="48.37922" lon="6.2713">
        <ele>262</ele>
        <time>2026-05-18T08:40:50+02:00</time>
      </trkpt>
      <trkpt lat="48.37927" lon="6.27127">
        <ele>261.9004</ele>
        <time>2026-05-18T08:40:51+02:00</time>
      </trkpt>
      <trkpt lat="48.37932" lon="6.27123">
        <ele>261.7998</ele>
        <time>2026-05-18T08:40:52+02:00</time>
      </trkpt>
      <trkpt lat="48.37936" lon="6.27119">
        <ele>261.9004</ele>
        <time>2026-05-18T08:40:53+02:00</time>
      </trkpt>
      <trkpt lat="48.37941" lon="6.27115">
        <ele>261.9004</ele>
        <time>2026-05-18T08:40:54+02:00</time>
      </trkpt>
      <trkpt lat="48.37945" lon="6.27112">
        <ele>262</ele>
        <time>2026-05-18T08:40:55+02:00</time>
      </trkpt>
      <trkpt lat="48.3795" lon="6.27108">
        <ele>262</ele>
        <time>2026-05-18T08:40:56+02:00</time>
      </trkpt>
      <trkpt lat="48.37955" lon="6.27104">
        <ele>262</ele>
        <time>2026-05-18T08:40:57+02:00</time>
      </trkpt>
      <trkpt lat="48.37959" lon="6.27101">
        <ele>262</ele>
        <time>2026-05-18T08:40:58+02:00</time>
      </trkpt>
      <trkpt lat="48.37964" lon="6.27098">
        <ele>262.1006</ele>
        <time>2026-05-18T08:40:59+02:00</time>
      </trkpt>
      <trkpt lat="48.37969" lon="6.27095">
        <ele>262.2998</ele>
        <time>2026-05-18T08:41:00+02:00</time>
      </trkpt>
      <trkpt lat="48.37973" lon="6.27092">
        <ele>262.2998</ele>
        <time>2026-05-18T08:41:01+02:00</time>
      </trkpt>
      <trkpt lat="48.37978" lon="6.27089">
        <ele>262.4004</ele>
        <time>2026-05-18T08:41:02+02:00</time>
      </trkpt>
      <trkpt lat="48.37982" lon="6.27086">
        <ele>262.6006</ele>
        <time>2026-05-18T08:41:03+02:00</time>
      </trkpt>
      <trkpt lat="48.37987" lon="6.27082">
        <ele>262.6006</ele>
        <time>2026-05-18T08:41:04+02:00</time>
      </trkpt>
      <trkpt lat="48.37991" lon="6.27079">
        <ele>262.6006</ele>
        <time>2026-05-18T08:41:05+02:00</time>
      </trkpt>
      <trkpt lat="48.37996" lon="6.27075">
        <ele>262.7002</ele>
        <time>2026-05-18T08:41:06+02:00</time>
      </trkpt>
      <trkpt lat="48.38" lon="6.27071">
        <ele>262.7998</ele>
        <time>2026-05-18T08:41:07+02:00</time>
      </trkpt>
      <trkpt lat="48.38005" lon="6.27067">
        <ele>262.6006</ele>
        <time>2026-05-18T08:41:08+02:00</time>
      </trkpt>
      <trkpt lat="48.3801" lon="6.27063">
        <ele>262.7998</ele>
        <time>2026-05-18T08:41:09+02:00</time>
      </trkpt>
      <trkpt lat="48.38014" lon="6.2706">
        <ele>262.5</ele>
        <time>2026-05-18T08:41:10+02:00</time>
      </trkpt>
      <trkpt lat="48.38019" lon="6.27057">
        <ele>262.7998</ele>
        <time>2026-05-18T08:41:11+02:00</time>
      </trkpt>
      <trkpt lat="48.38024" lon="6.27054">
        <ele>263</ele>
        <time>2026-05-18T08:41:12+02:00</time>
      </trkpt>
      <trkpt lat="48.38026" lon="6.27052">
        <ele>262.9004</ele>
        <time>2026-05-18T08:41:13+02:00</time>
      </trkpt>
      <trkpt lat="48.38033" lon="6.27048">
        <ele>263</ele>
        <time>2026-05-18T08:41:14+02:00</time>
      </trkpt>
      <trkpt lat="48.38038" lon="6.27044">
        <ele>262.7998</ele>
        <time>2026-05-18T08:41:15+02:00</time>
      </trkpt>
      <trkpt lat="48.38042" lon="6.27041">
        <ele>262.7998</ele>
        <time>2026-05-18T08:41:16+02:00</time>
      </trkpt>
      <trkpt lat="48.38044" lon="6.27039">
        <ele>262.9004</ele>
        <time>2026-05-18T08:41:17+02:00</time>
      </trkpt>
      <trkpt lat="48.38052" lon="6.27034">
        <ele>262.7002</ele>
        <time>2026-05-18T08:41:18+02:00</time>
      </trkpt>
      <trkpt lat="48.38057" lon="6.2703">
        <ele>262.7998</ele>
        <time>2026-05-18T08:41:19+02:00</time>
      </trkpt>
      <trkpt lat="48.38061" lon="6.27027">
        <ele>262.9004</ele>
        <time>2026-05-18T08:41:20+02:00</time>
      </trkpt>
      <trkpt lat="48.38064" lon="6.27025">
        <ele>262.9004</ele>
        <time>2026-05-18T08:41:21+02:00</time>
      </trkpt>
      <trkpt lat="48.38072" lon="6.2702">
        <ele>263.2002</ele>
        <time>2026-05-18T08:41:22+02:00</time>
      </trkpt>
      <trkpt lat="48.38077" lon="6.27017">
        <ele>263.1006</ele>
        <time>2026-05-18T08:41:23+02:00</time>
      </trkpt>
      <trkpt lat="48.38083" lon="6.27014">
        <ele>263.2002</ele>
        <time>2026-05-18T08:41:24+02:00</time>
      </trkpt>
      <trkpt lat="48.38088" lon="6.2701">
        <ele>263</ele>
        <time>2026-05-18T08:41:25+02:00</time>
      </trkpt>
      <trkpt lat="48.38093" lon="6.27007">
        <ele>263.1006</ele>
        <time>2026-05-18T08:41:26+02:00</time>
      </trkpt>
      <trkpt lat="48.38098" lon="6.27004">
        <ele>263.1006</ele>
        <time>2026-05-18T08:41:27+02:00</time>
      </trkpt>
      <trkpt lat="48.38103" lon="6.27">
        <ele>263</ele>
        <time>2026-05-18T08:41:28+02:00</time>
      </trkpt>
      <trkpt lat="48.38109" lon="6.26997">
        <ele>263.2002</ele>
        <time>2026-05-18T08:41:29+02:00</time>
      </trkpt>
      <trkpt lat="48.38114" lon="6.26994">
        <ele>263.2998</ele>
        <time>2026-05-18T08:41:30+02:00</time>
      </trkpt>
      <trkpt lat="48.38119" lon="6.2699">
        <ele>263.2998</ele>
        <time>2026-05-18T08:41:31+02:00</time>
      </trkpt>
      <trkpt lat="48.38125" lon="6.26987">
        <ele>263.4004</ele>
        <time>2026-05-18T08:41:32+02:00</time>
      </trkpt>
      <trkpt lat="48.38127" lon="6.26985">
        <ele>263.4004</ele>
        <time>2026-05-18T08:41:33+02:00</time>
      </trkpt>
      <trkpt lat="48.38135" lon="6.26979">
        <ele>263.2998</ele>
        <time>2026-05-18T08:41:34+02:00</time>
      </trkpt>
      <trkpt lat="48.3814" lon="6.26974">
        <ele>263.1006</ele>
        <time>2026-05-18T08:41:35+02:00</time>
      </trkpt>
      <trkpt lat="48.38145" lon="6.26969">
        <ele>263.1006</ele>
        <time>2026-05-18T08:41:36+02:00</time>
      </trkpt>
      <trkpt lat="48.38149" lon="6.26964">
        <ele>263</ele>
        <time>2026-05-18T08:41:37+02:00</time>
      </trkpt>
      <trkpt lat="48.38152" lon="6.26958">
        <ele>263</ele>
        <time>2026-05-18T08:41:38+02:00</time>
      </trkpt>
      <trkpt lat="48.38155" lon="6.26952">
        <ele>263</ele>
        <time>2026-05-18T08:41:39+02:00</time>
      </trkpt>
      <trkpt lat="48.38157" lon="6.26947">
        <ele>263</ele>
        <time>2026-05-18T08:41:40+02:00</time>
      </trkpt>
      <trkpt lat="48.38159" lon="6.26943">
        <ele>263</ele>
        <time>2026-05-18T08:41:41+02:00</time>
      </trkpt>
      <trkpt lat="48.38162" lon="6.26939">
        <ele>262.7998</ele>
        <time>2026-05-18T08:41:42+02:00</time>
      </trkpt>
      <trkpt lat="48.38165" lon="6.26936">
        <ele>262.7998</ele>
        <time>2026-05-18T08:41:43+02:00</time>
      </trkpt>
      <trkpt lat="48.38169" lon="6.26933">
        <ele>262.6006</ele>
        <time>2026-05-18T08:41:44+02:00</time>
      </trkpt>
      <trkpt lat="48.38172" lon="6.2693">
        <ele>262.6006</ele>
        <time>2026-05-18T08:41:45+02:00</time>
      </trkpt>
      <trkpt lat="48.38176" lon="6.26927">
        <ele>262.6006</ele>
        <time>2026-05-18T08:41:46+02:00</time>
      </trkpt>
      <trkpt lat="48.38179" lon="6.26925">
        <ele>262.6006</ele>
        <time>2026-05-18T08:41:47+02:00</time>
      </trkpt>
      <trkpt lat="48.38183" lon="6.26922">
        <ele>262.2998</ele>
        <time>2026-05-18T08:41:48+02:00</time>
      </trkpt>
      <trkpt lat="48.38186" lon="6.2692">
        <ele>262.4004</ele>
        <time>2026-05-18T08:41:49+02:00</time>
      </trkpt>
      <trkpt lat="48.38189" lon="6.26919">
        <ele>262.4004</ele>
        <time>2026-05-18T08:41:50+02:00</time>
      </trkpt>
      <trkpt lat="48.38192" lon="6.26919">
        <ele>262.4004</ele>
        <time>2026-05-18T08:41:51+02:00</time>
      </trkpt>
      <trkpt lat="48.38194" lon="6.26919">
        <ele>262.4004</ele>
        <time>2026-05-18T08:41:52+02:00</time>
      </trkpt>
      <trkpt lat="48.38197" lon="6.26919">
        <ele>262.4004</ele>
        <time>2026-05-18T08:41:53+02:00</time>
      </trkpt>
      <trkpt lat="48.382" lon="6.26919">
        <ele>262.4004</ele>
        <time>2026-05-18T08:41:54+02:00</time>
      </trkpt>
      <trkpt lat="48.38202" lon="6.26919">
        <ele>262.4004</ele>
        <time>2026-05-18T08:41:55+02:00</time>
      </trkpt>
      <trkpt lat="48.38205" lon="6.26919">
        <ele>262.5</ele>
        <time>2026-05-18T08:41:56+02:00</time>
      </trkpt>
      <trkpt lat="48.38208" lon="6.26918">
        <ele>262.5</ele>
        <time>2026-05-18T08:41:57+02:00</time>
      </trkpt>
      <trkpt lat="48.38211" lon="6.26917">
        <ele>262.5</ele>
        <time>2026-05-18T08:41:58+02:00</time>
      </trkpt>
      <trkpt lat="48.38214" lon="6.26915">
        <ele>262.5</ele>
        <time>2026-05-18T08:41:59+02:00</time>
      </trkpt>
      <trkpt lat="48.38219" lon="6.26913">
        <ele>262.5</ele>
        <time>2026-05-18T08:42:00+02:00</time>
      </trkpt>
      <trkpt lat="48.38223" lon="6.2691">
        <ele>262.5</ele>
        <time>2026-05-18T08:42:01+02:00</time>
      </trkpt>
      <trkpt lat="48.38228" lon="6.26907">
        <ele>262.5</ele>
        <time>2026-05-18T08:42:02+02:00</time>
      </trkpt>
      <trkpt lat="48.38234" lon="6.26904">
        <ele>262.6006</ele>
        <time>2026-05-18T08:42:03+02:00</time>
      </trkpt>
      <trkpt lat="48.38239" lon="6.269">
        <ele>262.6006</ele>
        <time>2026-05-18T08:42:04+02:00</time>
      </trkpt>
      <trkpt lat="48.38245" lon="6.26897">
        <ele>262.5</ele>
        <time>2026-05-18T08:42:05+02:00</time>
      </trkpt>
      <trkpt lat="48.38251" lon="6.26893">
        <ele>262.5</ele>
        <time>2026-05-18T08:42:06+02:00</time>
      </trkpt>
      <trkpt lat="48.38256" lon="6.2689">
        <ele>262.4004</ele>
        <time>2026-05-18T08:42:07+02:00</time>
      </trkpt>
      <trkpt lat="48.38262" lon="6.26886">
        <ele>262.4004</ele>
        <time>2026-05-18T08:42:08+02:00</time>
      </trkpt>
      <trkpt lat="48.38267" lon="6.26882">
        <ele>262.4004</ele>
        <time>2026-05-18T08:42:09+02:00</time>
      </trkpt>
      <trkpt lat="48.3827" lon="6.2688">
        <ele>262.4004</ele>
        <time>2026-05-18T08:42:10+02:00</time>
      </trkpt>
      <trkpt lat="48.38279" lon="6.26874">
        <ele>262.4004</ele>
        <time>2026-05-18T08:42:11+02:00</time>
      </trkpt>
      <trkpt lat="48.38285" lon="6.2687">
        <ele>262.2002</ele>
        <time>2026-05-18T08:42:12+02:00</time>
      </trkpt>
      <trkpt lat="48.38291" lon="6.26866">
        <ele>262.2002</ele>
        <time>2026-05-18T08:42:13+02:00</time>
      </trkpt>
      <trkpt lat="48.38297" lon="6.26862">
        <ele>262</ele>
        <time>2026-05-18T08:42:14+02:00</time>
      </trkpt>
      <trkpt lat="48.38303" lon="6.26858">
        <ele>261.9004</ele>
        <time>2026-05-18T08:42:15+02:00</time>
      </trkpt>
      <trkpt lat="48.38308" lon="6.26854">
        <ele>261.7002</ele>
        <time>2026-05-18T08:42:16+02:00</time>
      </trkpt>
      <trkpt lat="48.38314" lon="6.2685">
        <ele>261.6006</ele>
        <time>2026-05-18T08:42:17+02:00</time>
      </trkpt>
      <trkpt lat="48.3832" lon="6.26846">
        <ele>261.2998</ele>
        <time>2026-05-18T08:42:18+02:00</time>
      </trkpt>
      <trkpt lat="48.38326" lon="6.26842">
        <ele>261.1006</ele>
        <time>2026-05-18T08:42:19+02:00</time>
      </trkpt>
      <trkpt lat="48.38332" lon="6.26838">
        <ele>260.9004</ele>
        <time>2026-05-18T08:42:20+02:00</time>
      </trkpt>
      <trkpt lat="48.38337" lon="6.26834">
        <ele>260.7002</ele>
        <time>2026-05-18T08:42:21+02:00</time>
      </trkpt>
      <trkpt lat="48.38343" lon="6.26829">
        <ele>260.5</ele>
        <time>2026-05-18T08:42:22+02:00</time>
      </trkpt>
      <trkpt lat="48.38349" lon="6.26825">
        <ele>260.2998</ele>
        <time>2026-05-18T08:42:23+02:00</time>
      </trkpt>
      <trkpt lat="48.38355" lon="6.26821">
        <ele>260.1006</ele>
        <time>2026-05-18T08:42:24+02:00</time>
      </trkpt>
      <trkpt lat="48.38361" lon="6.26817">
        <ele>259.9004</ele>
        <time>2026-05-18T08:42:25+02:00</time>
      </trkpt>
      <trkpt lat="48.38364" lon="6.26815">
        <ele>259.7998</ele>
        <time>2026-05-18T08:42:26+02:00</time>
      </trkpt>
      <trkpt lat="48.38373" lon="6.26809">
        <ele>259.7002</ele>
        <time>2026-05-18T08:42:27+02:00</time>
      </trkpt>
      <trkpt lat="48.38378" lon="6.26805">
        <ele>259.5</ele>
        <time>2026-05-18T08:42:28+02:00</time>
      </trkpt>
      <trkpt lat="48.38384" lon="6.26801">
        <ele>259.5</ele>
        <time>2026-05-18T08:42:29+02:00</time>
      </trkpt>
      <trkpt lat="48.38386" lon="6.26799">
        <ele>259.4004</ele>
        <time>2026-05-18T08:42:30+02:00</time>
      </trkpt>
      <trkpt lat="48.38395" lon="6.26793">
        <ele>259.5</ele>
        <time>2026-05-18T08:42:31+02:00</time>
      </trkpt>
      <trkpt lat="48.384" lon="6.26788">
        <ele>259.4004</ele>
        <time>2026-05-18T08:42:32+02:00</time>
      </trkpt>
      <trkpt lat="48.38406" lon="6.26784">
        <ele>259.5</ele>
        <time>2026-05-18T08:42:33+02:00</time>
      </trkpt>
      <trkpt lat="48.38412" lon="6.2678">
        <ele>259.4004</ele>
        <time>2026-05-18T08:42:34+02:00</time>
      </trkpt>
      <trkpt lat="48.38418" lon="6.26776">
        <ele>259.6006</ele>
        <time>2026-05-18T08:42:35+02:00</time>
      </trkpt>
      <trkpt lat="48.38423" lon="6.26771">
        <ele>259.5</ele>
        <time>2026-05-18T08:42:36+02:00</time>
      </trkpt>
      <trkpt lat="48.38429" lon="6.26767">
        <ele>259.6006</ele>
        <time>2026-05-18T08:42:37+02:00</time>
      </trkpt>
      <trkpt lat="48.38432" lon="6.26765">
        <ele>259.6006</ele>
        <time>2026-05-18T08:42:38+02:00</time>
      </trkpt>
      <trkpt lat="48.38442" lon="6.26758">
        <ele>259.5</ele>
        <time>2026-05-18T08:42:39+02:00</time>
      </trkpt>
      <trkpt lat="48.38447" lon="6.26754">
        <ele>259.5</ele>
        <time>2026-05-18T08:42:40+02:00</time>
      </trkpt>
      <trkpt lat="48.38453" lon="6.26749">
        <ele>259.4004</ele>
        <time>2026-05-18T08:42:41+02:00</time>
      </trkpt>
      <trkpt lat="48.3846" lon="6.26745">
        <ele>259.2002</ele>
        <time>2026-05-18T08:42:42+02:00</time>
      </trkpt>
      <trkpt lat="48.38466" lon="6.26741">
        <ele>259.1006</ele>
        <time>2026-05-18T08:42:43+02:00</time>
      </trkpt>
      <trkpt lat="48.38472" lon="6.26737">
        <ele>258.9004</ele>
        <time>2026-05-18T08:42:44+02:00</time>
      </trkpt>
      <trkpt lat="48.38478" lon="6.26733">
        <ele>258.7998</ele>
        <time>2026-05-18T08:42:45+02:00</time>
      </trkpt>
      <trkpt lat="48.38484" lon="6.26729">
        <ele>258.6006</ele>
        <time>2026-05-18T08:42:46+02:00</time>
      </trkpt>
      <trkpt lat="48.3849" lon="6.26724">
        <ele>258.4004</ele>
        <time>2026-05-18T08:42:47+02:00</time>
      </trkpt>
      <trkpt lat="48.38496" lon="6.2672">
        <ele>258.2002</ele>
        <time>2026-05-18T08:42:48+02:00</time>
      </trkpt>
      <trkpt lat="48.38502" lon="6.26715">
        <ele>258</ele>
        <time>2026-05-18T08:42:49+02:00</time>
      </trkpt>
      <trkpt lat="48.38508" lon="6.26711">
        <ele>257.7998</ele>
        <time>2026-05-18T08:42:50+02:00</time>
      </trkpt>
      <trkpt lat="48.38513" lon="6.26707">
        <ele>257.7002</ele>
        <time>2026-05-18T08:42:51+02:00</time>
      </trkpt>
      <trkpt lat="48.38519" lon="6.26703">
        <ele>257.6006</ele>
        <time>2026-05-18T08:42:52+02:00</time>
      </trkpt>
      <trkpt lat="48.38525" lon="6.26699">
        <ele>257.5</ele>
        <time>2026-05-18T08:42:53+02:00</time>
      </trkpt>
      <trkpt lat="48.38531" lon="6.26695">
        <ele>257.2998</ele>
        <time>2026-05-18T08:42:54+02:00</time>
      </trkpt>
      <trkpt lat="48.38537" lon="6.26691">
        <ele>257.1006</ele>
        <time>2026-05-18T08:42:55+02:00</time>
      </trkpt>
      <trkpt lat="48.38542" lon="6.26688">
        <ele>256.7998</ele>
        <time>2026-05-18T08:42:56+02:00</time>
      </trkpt>
      <trkpt lat="48.38548" lon="6.26684">
        <ele>256.7998</ele>
        <time>2026-05-18T08:42:57+02:00</time>
      </trkpt>
      <trkpt lat="48.38553" lon="6.2668">
        <ele>256.6006</ele>
        <time>2026-05-18T08:42:58+02:00</time>
      </trkpt>
      <trkpt lat="48.38558" lon="6.26676">
        <ele>256.6006</ele>
        <time>2026-05-18T08:42:59+02:00</time>
      </trkpt>
      <trkpt lat="48.38563" lon="6.26672">
        <ele>256.7998</ele>
        <time>2026-05-18T08:43:00+02:00</time>
      </trkpt>
      <trkpt lat="48.38569" lon="6.26669">
        <ele>256.7998</ele>
        <time>2026-05-18T08:43:01+02:00</time>
      </trkpt>
      <trkpt lat="48.38574" lon="6.26665">
        <ele>256.7998</ele>
        <time>2026-05-18T08:43:02+02:00</time>
      </trkpt>
      <trkpt lat="48.38579" lon="6.26661">
        <ele>256.7998</ele>
        <time>2026-05-18T08:43:03+02:00</time>
      </trkpt>
      <trkpt lat="48.38584" lon="6.26657">
        <ele>256.7002</ele>
        <time>2026-05-18T08:43:04+02:00</time>
      </trkpt>
      <trkpt lat="48.3859" lon="6.26654">
        <ele>256.7998</ele>
        <time>2026-05-18T08:43:05+02:00</time>
      </trkpt>
      <trkpt lat="48.38595" lon="6.2665">
        <ele>256.7998</ele>
        <time>2026-05-18T08:43:06+02:00</time>
      </trkpt>
      <trkpt lat="48.38601" lon="6.26646">
        <ele>256.9004</ele>
        <time>2026-05-18T08:43:07+02:00</time>
      </trkpt>
      <trkpt lat="48.38606" lon="6.26642">
        <ele>257.1006</ele>
        <time>2026-05-18T08:43:08+02:00</time>
      </trkpt>
      <trkpt lat="48.38612" lon="6.26638">
        <ele>257.2002</ele>
        <time>2026-05-18T08:43:09+02:00</time>
      </trkpt>
      <trkpt lat="48.38617" lon="6.26634">
        <ele>257.2998</ele>
        <time>2026-05-18T08:43:10+02:00</time>
      </trkpt>
      <trkpt lat="48.38623" lon="6.26629">
        <ele>257.4004</ele>
        <time>2026-05-18T08:43:11+02:00</time>
      </trkpt>
      <trkpt lat="48.38629" lon="6.26625">
        <ele>257.5</ele>
        <time>2026-05-18T08:43:12+02:00</time>
      </trkpt>
      <trkpt lat="48.38634" lon="6.2662">
        <ele>257.5</ele>
        <time>2026-05-18T08:43:13+02:00</time>
      </trkpt>
      <trkpt lat="48.3864" lon="6.26616">
        <ele>257.6006</ele>
        <time>2026-05-18T08:43:14+02:00</time>
      </trkpt>
      <trkpt lat="48.38645" lon="6.26612">
        <ele>257.7002</ele>
        <time>2026-05-18T08:43:15+02:00</time>
      </trkpt>
      <trkpt lat="48.38651" lon="6.26607">
        <ele>257.7998</ele>
        <time>2026-05-18T08:43:16+02:00</time>
      </trkpt>
      <trkpt lat="48.38656" lon="6.26603">
        <ele>257.7002</ele>
        <time>2026-05-18T08:43:17+02:00</time>
      </trkpt>
      <trkpt lat="48.38662" lon="6.26598">
        <ele>257.5</ele>
        <time>2026-05-18T08:43:18+02:00</time>
      </trkpt>
      <trkpt lat="48.38667" lon="6.26594">
        <ele>257.5</ele>
        <time>2026-05-18T08:43:19+02:00</time>
      </trkpt>
      <trkpt lat="48.38673" lon="6.2659">
        <ele>257.5</ele>
        <time>2026-05-18T08:43:20+02:00</time>
      </trkpt>
      <trkpt lat="48.38678" lon="6.26586">
        <ele>257.5</ele>
        <time>2026-05-18T08:43:21+02:00</time>
      </trkpt>
      <trkpt lat="48.38683" lon="6.26582">
        <ele>257.6006</ele>
        <time>2026-05-18T08:43:22+02:00</time>
      </trkpt>
      <trkpt lat="48.38688" lon="6.26579">
        <ele>257.5</ele>
        <time>2026-05-18T08:43:23+02:00</time>
      </trkpt>
      <trkpt lat="48.38693" lon="6.26576">
        <ele>257.4004</ele>
        <time>2026-05-18T08:43:24+02:00</time>
      </trkpt>
      <trkpt lat="48.38698" lon="6.26572">
        <ele>257.2998</ele>
        <time>2026-05-18T08:43:25+02:00</time>
      </trkpt>
      <trkpt lat="48.38703" lon="6.26569">
        <ele>257.2002</ele>
        <time>2026-05-18T08:43:26+02:00</time>
      </trkpt>
      <trkpt lat="48.38708" lon="6.26565">
        <ele>257.1006</ele>
        <time>2026-05-18T08:43:27+02:00</time>
      </trkpt>
      <trkpt lat="48.38714" lon="6.26561">
        <ele>256.9004</ele>
        <time>2026-05-18T08:43:28+02:00</time>
      </trkpt>
      <trkpt lat="48.38719" lon="6.26557">
        <ele>256.9004</ele>
        <time>2026-05-18T08:43:29+02:00</time>
      </trkpt>
      <trkpt lat="48.38725" lon="6.26554">
        <ele>256.7002</ele>
        <time>2026-05-18T08:43:30+02:00</time>
      </trkpt>
      <trkpt lat="48.3873" lon="6.2655">
        <ele>256.7002</ele>
        <time>2026-05-18T08:43:31+02:00</time>
      </trkpt>
      <trkpt lat="48.38736" lon="6.26546">
        <ele>256.6006</ele>
        <time>2026-05-18T08:43:32+02:00</time>
      </trkpt>
      <trkpt lat="48.38742" lon="6.26542">
        <ele>256.7002</ele>
        <time>2026-05-18T08:43:33+02:00</time>
      </trkpt>
      <trkpt lat="48.38748" lon="6.26538">
        <ele>256.7002</ele>
        <time>2026-05-18T08:43:34+02:00</time>
      </trkpt>
      <trkpt lat="48.38753" lon="6.26534">
        <ele>256.7002</ele>
        <time>2026-05-18T08:43:35+02:00</time>
      </trkpt>
      <trkpt lat="48.38759" lon="6.26529">
        <ele>256.7002</ele>
        <time>2026-05-18T08:43:36+02:00</time>
      </trkpt>
      <trkpt lat="48.38764" lon="6.26525">
        <ele>256.5</ele>
        <time>2026-05-18T08:43:37+02:00</time>
      </trkpt>
      <trkpt lat="48.3877" lon="6.26521">
        <ele>256.5</ele>
        <time>2026-05-18T08:43:38+02:00</time>
      </trkpt>
      <trkpt lat="48.38775" lon="6.26517">
        <ele>256.5</ele>
        <time>2026-05-18T08:43:39+02:00</time>
      </trkpt>
      <trkpt lat="48.38781" lon="6.26513">
        <ele>256.5</ele>
        <time>2026-05-18T08:43:40+02:00</time>
      </trkpt>
      <trkpt lat="48.38786" lon="6.26509">
        <ele>256.4004</ele>
        <time>2026-05-18T08:43:41+02:00</time>
      </trkpt>
      <trkpt lat="48.38792" lon="6.26505">
        <ele>256.5</ele>
        <time>2026-05-18T08:43:42+02:00</time>
      </trkpt>
      <trkpt lat="48.38798" lon="6.26501">
        <ele>256.4004</ele>
        <time>2026-05-18T08:43:43+02:00</time>
      </trkpt>
      <trkpt lat="48.38803" lon="6.26497">
        <ele>256.5</ele>
        <time>2026-05-18T08:43:44+02:00</time>
      </trkpt>
      <trkpt lat="48.38808" lon="6.26492">
        <ele>256.6006</ele>
        <time>2026-05-18T08:43:45+02:00</time>
      </trkpt>
      <trkpt lat="48.38813" lon="6.26487">
        <ele>256.7002</ele>
        <time>2026-05-18T08:43:46+02:00</time>
      </trkpt>
      <trkpt lat="48.38818" lon="6.26481">
        <ele>256.7998</ele>
        <time>2026-05-18T08:43:47+02:00</time>
      </trkpt>
      <trkpt lat="48.38822" lon="6.26476">
        <ele>256.7002</ele>
        <time>2026-05-18T08:43:48+02:00</time>
      </trkpt>
      <trkpt lat="48.38825" lon="6.2647">
        <ele>256.9004</ele>
        <time>2026-05-18T08:43:49+02:00</time>
      </trkpt>
      <trkpt lat="48.3883" lon="6.26466">
        <ele>256.7002</ele>
        <time>2026-05-18T08:43:50+02:00</time>
      </trkpt>
      <trkpt lat="48.38834" lon="6.26462">
        <ele>256.7002</ele>
        <time>2026-05-18T08:43:51+02:00</time>
      </trkpt>
      <trkpt lat="48.38839" lon="6.26458">
        <ele>256.5</ele>
        <time>2026-05-18T08:43:52+02:00</time>
      </trkpt>
      <trkpt lat="48.38844" lon="6.26455">
        <ele>256.7002</ele>
        <time>2026-05-18T08:43:53+02:00</time>
      </trkpt>
      <trkpt lat="48.38849" lon="6.26452">
        <ele>256.6006</ele>
        <time>2026-05-18T08:43:54+02:00</time>
      </trkpt>
      <trkpt lat="48.38855" lon="6.26448">
        <ele>257</ele>
        <time>2026-05-18T08:43:55+02:00</time>
      </trkpt>
      <trkpt lat="48.3886" lon="6.26444">
        <ele>257.2002</ele>
        <time>2026-05-18T08:43:56+02:00</time>
      </trkpt>
      <trkpt lat="48.38865" lon="6.2644">
        <ele>257.2998</ele>
        <time>2026-05-18T08:43:57+02:00</time>
      </trkpt>
      <trkpt lat="48.3887" lon="6.26437">
        <ele>257.5</ele>
        <time>2026-05-18T08:43:58+02:00</time>
      </trkpt>
      <trkpt lat="48.38876" lon="6.26433">
        <ele>257.1006</ele>
        <time>2026-05-18T08:43:59+02:00</time>
      </trkpt>
      <trkpt lat="48.38881" lon="6.26429">
        <ele>257.2002</ele>
        <time>2026-05-18T08:44:00+02:00</time>
      </trkpt>
      <trkpt lat="48.38886" lon="6.26425">
        <ele>256.6006</ele>
        <time>2026-05-18T08:44:01+02:00</time>
      </trkpt>
      <trkpt lat="48.38891" lon="6.26421">
        <ele>256.7998</ele>
        <time>2026-05-18T08:44:02+02:00</time>
      </trkpt>
      <trkpt lat="48.38896" lon="6.26417">
        <ele>256.9004</ele>
        <time>2026-05-18T08:44:03+02:00</time>
      </trkpt>
      <trkpt lat="48.38902" lon="6.26414">
        <ele>257.2002</ele>
        <time>2026-05-18T08:44:04+02:00</time>
      </trkpt>
      <trkpt lat="48.38907" lon="6.2641">
        <ele>257.2002</ele>
        <time>2026-05-18T08:44:05+02:00</time>
      </trkpt>
      <trkpt lat="48.38909" lon="6.26408">
        <ele>257</ele>
        <time>2026-05-18T08:44:06+02:00</time>
      </trkpt>
      <trkpt lat="48.38917" lon="6.26403">
        <ele>256.7998</ele>
        <time>2026-05-18T08:44:07+02:00</time>
      </trkpt>
      <trkpt lat="48.38921" lon="6.26399">
        <ele>256.7998</ele>
        <time>2026-05-18T08:44:08+02:00</time>
      </trkpt>
      <trkpt lat="48.38927" lon="6.26396">
        <ele>256.6006</ele>
        <time>2026-05-18T08:44:09+02:00</time>
      </trkpt>
      <trkpt lat="48.38932" lon="6.26392">
        <ele>256.5</ele>
        <time>2026-05-18T08:44:10+02:00</time>
      </trkpt>
      <trkpt lat="48.38937" lon="6.26389">
        <ele>256.5</ele>
        <time>2026-05-18T08:44:11+02:00</time>
      </trkpt>
      <trkpt lat="48.38942" lon="6.26385">
        <ele>256.2998</ele>
        <time>2026-05-18T08:44:12+02:00</time>
      </trkpt>
      <trkpt lat="48.38947" lon="6.26382">
        <ele>256.2998</ele>
        <time>2026-05-18T08:44:13+02:00</time>
      </trkpt>
      <trkpt lat="48.38952" lon="6.26378">
        <ele>256.1006</ele>
        <time>2026-05-18T08:44:14+02:00</time>
      </trkpt>
      <trkpt lat="48.38957" lon="6.26374">
        <ele>256.1006</ele>
        <time>2026-05-18T08:44:15+02:00</time>
      </trkpt>
      <trkpt lat="48.38962" lon="6.26371">
        <ele>256</ele>
        <time>2026-05-18T08:44:16+02:00</time>
      </trkpt>
      <trkpt lat="48.38968" lon="6.26367">
        <ele>255.90039</ele>
        <time>2026-05-18T08:44:17+02:00</time>
      </trkpt>
      <trkpt lat="48.38973" lon="6.26363">
        <ele>256</ele>
        <time>2026-05-18T08:44:18+02:00</time>
      </trkpt>
      <trkpt lat="48.38978" lon="6.2636">
        <ele>256</ele>
        <time>2026-05-18T08:44:19+02:00</time>
      </trkpt>
      <trkpt lat="48.38983" lon="6.26356">
        <ele>256</ele>
        <time>2026-05-18T08:44:20+02:00</time>
      </trkpt>
      <trkpt lat="48.38988" lon="6.26352">
        <ele>256</ele>
        <time>2026-05-18T08:44:21+02:00</time>
      </trkpt>
      <trkpt lat="48.38994" lon="6.26349">
        <ele>256</ele>
        <time>2026-05-18T08:44:22+02:00</time>
      </trkpt>
      <trkpt lat="48.38999" lon="6.26345">
        <ele>256</ele>
        <time>2026-05-18T08:44:23+02:00</time>
      </trkpt>
      <trkpt lat="48.39004" lon="6.26341">
        <ele>255.90039</ele>
        <time>2026-05-18T08:44:24+02:00</time>
      </trkpt>
      <trkpt lat="48.39008" lon="6.26338">
        <ele>255.90039</ele>
        <time>2026-05-18T08:44:25+02:00</time>
      </trkpt>
      <trkpt lat="48.39011" lon="6.26336">
        <ele>255.90039</ele>
        <time>2026-05-18T08:44:26+02:00</time>
      </trkpt>
      <trkpt lat="48.39018" lon="6.26331">
        <ele>255.90039</ele>
        <time>2026-05-18T08:44:27+02:00</time>
      </trkpt>
      <trkpt lat="48.39023" lon="6.26328">
        <ele>255.90039</ele>
        <time>2026-05-18T08:44:28+02:00</time>
      </trkpt>
      <trkpt lat="48.39028" lon="6.26324">
        <ele>255.90039</ele>
        <time>2026-05-18T08:44:29+02:00</time>
      </trkpt>
      <trkpt lat="48.39033" lon="6.2632">
        <ele>255.90039</ele>
        <time>2026-05-18T08:44:30+02:00</time>
      </trkpt>
      <trkpt lat="48.39039" lon="6.26316">
        <ele>255.90039</ele>
        <time>2026-05-18T08:44:31+02:00</time>
      </trkpt>
      <trkpt lat="48.39044" lon="6.26312">
        <ele>255.90039</ele>
        <time>2026-05-18T08:44:32+02:00</time>
      </trkpt>
      <trkpt lat="48.39049" lon="6.26309">
        <ele>255.90039</ele>
        <time>2026-05-18T08:44:33+02:00</time>
      </trkpt>
      <trkpt lat="48.39055" lon="6.26305">
        <ele>255.90039</ele>
        <time>2026-05-18T08:44:34+02:00</time>
      </trkpt>
      <trkpt lat="48.3906" lon="6.26301">
        <ele>255.90039</ele>
        <time>2026-05-18T08:44:35+02:00</time>
      </trkpt>
      <trkpt lat="48.39065" lon="6.26297">
        <ele>256</ele>
        <time>2026-05-18T08:44:36+02:00</time>
      </trkpt>
      <trkpt lat="48.39071" lon="6.26294">
        <ele>256</ele>
        <time>2026-05-18T08:44:37+02:00</time>
      </trkpt>
      <trkpt lat="48.39076" lon="6.2629">
        <ele>255.90039</ele>
        <time>2026-05-18T08:44:38+02:00</time>
      </trkpt>
      <trkpt lat="48.39082" lon="6.26287">
        <ele>256</ele>
        <time>2026-05-18T08:44:39+02:00</time>
      </trkpt>
      <trkpt lat="48.39087" lon="6.26283">
        <ele>256</ele>
        <time>2026-05-18T08:44:40+02:00</time>
      </trkpt>
      <trkpt lat="48.39093" lon="6.26279">
        <ele>255.90039</ele>
        <time>2026-05-18T08:44:41+02:00</time>
      </trkpt>
      <trkpt lat="48.39098" lon="6.26276">
        <ele>255.90039</ele>
        <time>2026-05-18T08:44:42+02:00</time>
      </trkpt>
      <trkpt lat="48.39104" lon="6.26272">
        <ele>255.7998</ele>
        <time>2026-05-18T08:44:43+02:00</time>
      </trkpt>
      <trkpt lat="48.39109" lon="6.26269">
        <ele>255.90039</ele>
        <time>2026-05-18T08:44:44+02:00</time>
      </trkpt>
      <trkpt lat="48.39115" lon="6.26266">
        <ele>255.90039</ele>
        <time>2026-05-18T08:44:45+02:00</time>
      </trkpt>
      <trkpt lat="48.3912" lon="6.26263">
        <ele>255.90039</ele>
        <time>2026-05-18T08:44:46+02:00</time>
      </trkpt>
      <trkpt lat="48.39125" lon="6.2626">
        <ele>255.90039</ele>
        <time>2026-05-18T08:44:47+02:00</time>
      </trkpt>
      <trkpt lat="48.39131" lon="6.26257">
        <ele>255.90039</ele>
        <time>2026-05-18T08:44:48+02:00</time>
      </trkpt>
      <trkpt lat="48.39136" lon="6.26254">
        <ele>256</ele>
        <time>2026-05-18T08:44:49+02:00</time>
      </trkpt>
      <trkpt lat="48.39141" lon="6.26251">
        <ele>256</ele>
        <time>2026-05-18T08:44:50+02:00</time>
      </trkpt>
      <trkpt lat="48.39144" lon="6.26249">
        <ele>256</ele>
        <time>2026-05-18T08:44:51+02:00</time>
      </trkpt>
      <trkpt lat="48.39152" lon="6.26245">
        <ele>256</ele>
        <time>2026-05-18T08:44:52+02:00</time>
      </trkpt>
      <trkpt lat="48.39157" lon="6.26242">
        <ele>256</ele>
        <time>2026-05-18T08:44:53+02:00</time>
      </trkpt>
      <trkpt lat="48.39163" lon="6.26239">
        <ele>256</ele>
        <time>2026-05-18T08:44:54+02:00</time>
      </trkpt>
      <trkpt lat="48.39168" lon="6.26236">
        <ele>256.2002</ele>
        <time>2026-05-18T08:44:55+02:00</time>
      </trkpt>
      <trkpt lat="48.39173" lon="6.26233">
        <ele>256.2002</ele>
        <time>2026-05-18T08:44:56+02:00</time>
      </trkpt>
      <trkpt lat="48.39179" lon="6.2623">
        <ele>256.1006</ele>
        <time>2026-05-18T08:44:57+02:00</time>
      </trkpt>
      <trkpt lat="48.39184" lon="6.26227">
        <ele>256.2002</ele>
        <time>2026-05-18T08:44:58+02:00</time>
      </trkpt>
      <trkpt lat="48.3919" lon="6.26224">
        <ele>256.2002</ele>
        <time>2026-05-18T08:44:59+02:00</time>
      </trkpt>
      <trkpt lat="48.39195" lon="6.26221">
        <ele>256.2002</ele>
        <time>2026-05-18T08:45:00+02:00</time>
      </trkpt>
      <trkpt lat="48.39201" lon="6.26218">
        <ele>256.2998</ele>
        <time>2026-05-18T08:45:01+02:00</time>
      </trkpt>
      <trkpt lat="48.39206" lon="6.26215">
        <ele>256.2998</ele>
        <time>2026-05-18T08:45:02+02:00</time>
      </trkpt>
      <trkpt lat="48.39212" lon="6.26211">
        <ele>256.4004</ele>
        <time>2026-05-18T08:45:03+02:00</time>
      </trkpt>
      <trkpt lat="48.39217" lon="6.26208">
        <ele>256.2998</ele>
        <time>2026-05-18T08:45:04+02:00</time>
      </trkpt>
      <trkpt lat="48.39222" lon="6.26205">
        <ele>256.2998</ele>
        <time>2026-05-18T08:45:05+02:00</time>
      </trkpt>
      <trkpt lat="48.39228" lon="6.26203">
        <ele>256.2998</ele>
        <time>2026-05-18T08:45:06+02:00</time>
      </trkpt>
      <trkpt lat="48.39234" lon="6.262">
        <ele>256.1006</ele>
        <time>2026-05-18T08:45:07+02:00</time>
      </trkpt>
      <trkpt lat="48.39239" lon="6.26197">
        <ele>256.1006</ele>
        <time>2026-05-18T08:45:08+02:00</time>
      </trkpt>
      <trkpt lat="48.39245" lon="6.26194">
        <ele>256.2998</ele>
        <time>2026-05-18T08:45:09+02:00</time>
      </trkpt>
      <trkpt lat="48.39247" lon="6.26192">
        <ele>256.2002</ele>
        <time>2026-05-18T08:45:10+02:00</time>
      </trkpt>
      <trkpt lat="48.39256" lon="6.26188">
        <ele>256.2002</ele>
        <time>2026-05-18T08:45:11+02:00</time>
      </trkpt>
      <trkpt lat="48.39261" lon="6.26186">
        <ele>256.2998</ele>
        <time>2026-05-18T08:45:12+02:00</time>
      </trkpt>
      <trkpt lat="48.39267" lon="6.26183">
        <ele>256.2002</ele>
        <time>2026-05-18T08:45:13+02:00</time>
      </trkpt>
      <trkpt lat="48.39272" lon="6.26181">
        <ele>256.2002</ele>
        <time>2026-05-18T08:45:14+02:00</time>
      </trkpt>
      <trkpt lat="48.39277" lon="6.26178">
        <ele>256.2002</ele>
        <time>2026-05-18T08:45:15+02:00</time>
      </trkpt>
      <trkpt lat="48.39283" lon="6.26175">
        <ele>256.2002</ele>
        <time>2026-05-18T08:45:16+02:00</time>
      </trkpt>
      <trkpt lat="48.39288" lon="6.26172">
        <ele>256.2002</ele>
        <time>2026-05-18T08:45:17+02:00</time>
      </trkpt>
      <trkpt lat="48.39294" lon="6.26169">
        <ele>256.2002</ele>
        <time>2026-05-18T08:45:18+02:00</time>
      </trkpt>
      <trkpt lat="48.39299" lon="6.26165">
        <ele>256.2002</ele>
        <time>2026-05-18T08:45:19+02:00</time>
      </trkpt>
      <trkpt lat="48.39304" lon="6.26162">
        <ele>256.2998</ele>
        <time>2026-05-18T08:45:20+02:00</time>
      </trkpt>
      <trkpt lat="48.39309" lon="6.26159">
        <ele>256.1006</ele>
        <time>2026-05-18T08:45:21+02:00</time>
      </trkpt>
      <trkpt lat="48.39314" lon="6.26155">
        <ele>256.2002</ele>
        <time>2026-05-18T08:45:22+02:00</time>
      </trkpt>
      <trkpt lat="48.39319" lon="6.26151">
        <ele>256.1006</ele>
        <time>2026-05-18T08:45:23+02:00</time>
      </trkpt>
      <trkpt lat="48.39324" lon="6.26147">
        <ele>256.1006</ele>
        <time>2026-05-18T08:45:24+02:00</time>
      </trkpt>
      <trkpt lat="48.39329" lon="6.26143">
        <ele>256.2002</ele>
        <time>2026-05-18T08:45:25+02:00</time>
      </trkpt>
      <trkpt lat="48.39334" lon="6.2614">
        <ele>256.4004</ele>
        <time>2026-05-18T08:45:26+02:00</time>
      </trkpt>
      <trkpt lat="48.39339" lon="6.26138">
        <ele>256.6006</ele>
        <time>2026-05-18T08:45:27+02:00</time>
      </trkpt>
      <trkpt lat="48.39344" lon="6.26136">
        <ele>256.7002</ele>
        <time>2026-05-18T08:45:28+02:00</time>
      </trkpt>
      <trkpt lat="48.39348" lon="6.26136">
        <ele>256.7002</ele>
        <time>2026-05-18T08:45:29+02:00</time>
      </trkpt>
      <trkpt lat="48.39353" lon="6.26137">
        <ele>256.7002</ele>
        <time>2026-05-18T08:45:30+02:00</time>
      </trkpt>
      <trkpt lat="48.39357" lon="6.26138">
        <ele>256.7002</ele>
        <time>2026-05-18T08:45:31+02:00</time>
      </trkpt>
      <trkpt lat="48.39361" lon="6.26138">
        <ele>256.7998</ele>
        <time>2026-05-18T08:45:32+02:00</time>
      </trkpt>
      <trkpt lat="48.39365" lon="6.26136">
        <ele>256.7998</ele>
        <time>2026-05-18T08:45:33+02:00</time>
      </trkpt>
      <trkpt lat="48.39369" lon="6.26134">
        <ele>256.7002</ele>
        <time>2026-05-18T08:45:34+02:00</time>
      </trkpt>
      <trkpt lat="48.39374" lon="6.26131">
        <ele>256.7002</ele>
        <time>2026-05-18T08:45:35+02:00</time>
      </trkpt>
      <trkpt lat="48.39378" lon="6.26127">
        <ele>256.7998</ele>
        <time>2026-05-18T08:45:36+02:00</time>
      </trkpt>
      <trkpt lat="48.39383" lon="6.26123">
        <ele>256.6006</ele>
        <time>2026-05-18T08:45:37+02:00</time>
      </trkpt>
      <trkpt lat="48.39388" lon="6.2612">
        <ele>256.6006</ele>
        <time>2026-05-18T08:45:38+02:00</time>
      </trkpt>
      <trkpt lat="48.39394" lon="6.26117">
        <ele>256.4004</ele>
        <time>2026-05-18T08:45:39+02:00</time>
      </trkpt>
      <trkpt lat="48.39399" lon="6.26114">
        <ele>256.4004</ele>
        <time>2026-05-18T08:45:40+02:00</time>
      </trkpt>
      <trkpt lat="48.39405" lon="6.26112">
        <ele>256.5</ele>
        <time>2026-05-18T08:45:41+02:00</time>
      </trkpt>
      <trkpt lat="48.39411" lon="6.26109">
        <ele>256.4004</ele>
        <time>2026-05-18T08:45:42+02:00</time>
      </trkpt>
      <trkpt lat="48.39416" lon="6.26106">
        <ele>256.4004</ele>
        <time>2026-05-18T08:45:43+02:00</time>
      </trkpt>
      <trkpt lat="48.39422" lon="6.26103">
        <ele>256.4004</ele>
        <time>2026-05-18T08:45:44+02:00</time>
      </trkpt>
      <trkpt lat="48.39427" lon="6.261">
        <ele>256.4004</ele>
        <time>2026-05-18T08:45:45+02:00</time>
      </trkpt>
      <trkpt lat="48.39433" lon="6.26097">
        <ele>256.2998</ele>
        <time>2026-05-18T08:45:46+02:00</time>
      </trkpt>
      <trkpt lat="48.39438" lon="6.26094">
        <ele>256.2998</ele>
        <time>2026-05-18T08:45:47+02:00</time>
      </trkpt>
      <trkpt lat="48.39444" lon="6.26091">
        <ele>256.2998</ele>
        <time>2026-05-18T08:45:48+02:00</time>
      </trkpt>
      <trkpt lat="48.39449" lon="6.26087">
        <ele>256.2002</ele>
        <time>2026-05-18T08:45:49+02:00</time>
      </trkpt>
      <trkpt lat="48.39455" lon="6.26085">
        <ele>256</ele>
        <time>2026-05-18T08:45:50+02:00</time>
      </trkpt>
      <trkpt lat="48.39461" lon="6.26082">
        <ele>256.2002</ele>
        <time>2026-05-18T08:45:51+02:00</time>
      </trkpt>
      <trkpt lat="48.39467" lon="6.26079">
        <ele>256.1006</ele>
        <time>2026-05-18T08:45:52+02:00</time>
      </trkpt>
      <trkpt lat="48.39472" lon="6.26076">
        <ele>256.1006</ele>
        <time>2026-05-18T08:45:53+02:00</time>
      </trkpt>
      <trkpt lat="48.39475" lon="6.26074">
        <ele>256.2002</ele>
        <time>2026-05-18T08:45:54+02:00</time>
      </trkpt>
      <trkpt lat="48.39484" lon="6.26069">
        <ele>256.1006</ele>
        <time>2026-05-18T08:45:55+02:00</time>
      </trkpt>
      <trkpt lat="48.39489" lon="6.26066">
        <ele>256.1006</ele>
        <time>2026-05-18T08:45:56+02:00</time>
      </trkpt>
      <trkpt lat="48.39495" lon="6.26063">
        <ele>256</ele>
        <time>2026-05-18T08:45:57+02:00</time>
      </trkpt>
      <trkpt lat="48.395" lon="6.26059">
        <ele>255.90039</ele>
        <time>2026-05-18T08:45:58+02:00</time>
      </trkpt>
      <trkpt lat="48.39505" lon="6.26056">
        <ele>256</ele>
        <time>2026-05-18T08:45:59+02:00</time>
      </trkpt>
      <trkpt lat="48.39511" lon="6.26053">
        <ele>256</ele>
        <time>2026-05-18T08:46:00+02:00</time>
      </trkpt>
      <trkpt lat="48.39516" lon="6.2605">
        <ele>256</ele>
        <time>2026-05-18T08:46:01+02:00</time>
      </trkpt>
      <trkpt lat="48.39522" lon="6.26048">
        <ele>256</ele>
        <time>2026-05-18T08:46:02+02:00</time>
      </trkpt>
      <trkpt lat="48.39524" lon="6.26046">
        <ele>256</ele>
        <time>2026-05-18T08:46:03+02:00</time>
      </trkpt>
      <trkpt lat="48.39533" lon="6.26043">
        <ele>256</ele>
        <time>2026-05-18T08:46:04+02:00</time>
      </trkpt>
      <trkpt lat="48.39538" lon="6.2604">
        <ele>256.1006</ele>
        <time>2026-05-18T08:46:05+02:00</time>
      </trkpt>
      <trkpt lat="48.39543" lon="6.26037">
        <ele>256.1006</ele>
        <time>2026-05-18T08:46:06+02:00</time>
      </trkpt>
      <trkpt lat="48.39549" lon="6.26034">
        <ele>256.1006</ele>
        <time>2026-05-18T08:46:07+02:00</time>
      </trkpt>
      <trkpt lat="48.39554" lon="6.26031">
        <ele>256.1006</ele>
        <time>2026-05-18T08:46:08+02:00</time>
      </trkpt>
      <trkpt lat="48.39559" lon="6.26027">
        <ele>256</ele>
        <time>2026-05-18T08:46:09+02:00</time>
      </trkpt>
      <trkpt lat="48.39564" lon="6.26024">
        <ele>256</ele>
        <time>2026-05-18T08:46:10+02:00</time>
      </trkpt>
      <trkpt lat="48.39567" lon="6.26023">
        <ele>256.1006</ele>
        <time>2026-05-18T08:46:11+02:00</time>
      </trkpt>
      <trkpt lat="48.39574" lon="6.26019">
        <ele>256</ele>
        <time>2026-05-18T08:46:12+02:00</time>
      </trkpt>
      <trkpt lat="48.39579" lon="6.26016">
        <ele>256</ele>
        <time>2026-05-18T08:46:13+02:00</time>
      </trkpt>
      <trkpt lat="48.39584" lon="6.26013">
        <ele>256</ele>
        <time>2026-05-18T08:46:14+02:00</time>
      </trkpt>
      <trkpt lat="48.39589" lon="6.2601">
        <ele>256</ele>
        <time>2026-05-18T08:46:15+02:00</time>
      </trkpt>
      <trkpt lat="48.39592" lon="6.26008">
        <ele>256</ele>
        <time>2026-05-18T08:46:16+02:00</time>
      </trkpt>
      <trkpt lat="48.396" lon="6.26004">
        <ele>256.1006</ele>
        <time>2026-05-18T08:46:17+02:00</time>
      </trkpt>
      <trkpt lat="48.39605" lon="6.26001">
        <ele>256.1006</ele>
        <time>2026-05-18T08:46:18+02:00</time>
      </trkpt>
      <trkpt lat="48.39611" lon="6.25998">
        <ele>256.1006</ele>
        <time>2026-05-18T08:46:19+02:00</time>
      </trkpt>
      <trkpt lat="48.39614" lon="6.25997">
        <ele>256.1006</ele>
        <time>2026-05-18T08:46:20+02:00</time>
      </trkpt>
      <trkpt lat="48.39622" lon="6.25993">
        <ele>256.1006</ele>
        <time>2026-05-18T08:46:21+02:00</time>
      </trkpt>
      <trkpt lat="48.39627" lon="6.2599">
        <ele>256.1006</ele>
        <time>2026-05-18T08:46:22+02:00</time>
      </trkpt>
      <trkpt lat="48.39633" lon="6.25987">
        <ele>256.2002</ele>
        <time>2026-05-18T08:46:23+02:00</time>
      </trkpt>
      <trkpt lat="48.39638" lon="6.25985">
        <ele>256.2002</ele>
        <time>2026-05-18T08:46:24+02:00</time>
      </trkpt>
      <trkpt lat="48.39643" lon="6.25982">
        <ele>256.2998</ele>
        <time>2026-05-18T08:46:25+02:00</time>
      </trkpt>
      <trkpt lat="48.39648" lon="6.25978">
        <ele>256.5</ele>
        <time>2026-05-18T08:46:26+02:00</time>
      </trkpt>
      <trkpt lat="48.39654" lon="6.25976">
        <ele>256.5</ele>
        <time>2026-05-18T08:46:27+02:00</time>
      </trkpt>
      <trkpt lat="48.39659" lon="6.25973">
        <ele>256.6006</ele>
        <time>2026-05-18T08:46:28+02:00</time>
      </trkpt>
      <trkpt lat="48.39664" lon="6.2597">
        <ele>256.5</ele>
        <time>2026-05-18T08:46:29+02:00</time>
      </trkpt>
      <trkpt lat="48.39669" lon="6.25966">
        <ele>256.6006</ele>
        <time>2026-05-18T08:46:30+02:00</time>
      </trkpt>
      <trkpt lat="48.39674" lon="6.25964">
        <ele>256.7002</ele>
        <time>2026-05-18T08:46:31+02:00</time>
      </trkpt>
      <trkpt lat="48.39679" lon="6.25961">
        <ele>256.6006</ele>
        <time>2026-05-18T08:46:32+02:00</time>
      </trkpt>
      <trkpt lat="48.39682" lon="6.2596">
        <ele>256.6006</ele>
        <time>2026-05-18T08:46:33+02:00</time>
      </trkpt>
      <trkpt lat="48.39689" lon="6.25955">
        <ele>256.7998</ele>
        <time>2026-05-18T08:46:34+02:00</time>
      </trkpt>
      <trkpt lat="48.39694" lon="6.25953">
        <ele>256.9004</ele>
        <time>2026-05-18T08:46:35+02:00</time>
      </trkpt>
      <trkpt lat="48.39699" lon="6.2595">
        <ele>257</ele>
        <time>2026-05-18T08:46:36+02:00</time>
      </trkpt>
      <trkpt lat="48.39704" lon="6.25948">
        <ele>257</ele>
        <time>2026-05-18T08:46:37+02:00</time>
      </trkpt>
      <trkpt lat="48.3971" lon="6.25945">
        <ele>256.7998</ele>
        <time>2026-05-18T08:46:38+02:00</time>
      </trkpt>
      <trkpt lat="48.39715" lon="6.25942">
        <ele>256.7002</ele>
        <time>2026-05-18T08:46:39+02:00</time>
      </trkpt>
      <trkpt lat="48.3972" lon="6.25939">
        <ele>256.6006</ele>
        <time>2026-05-18T08:46:40+02:00</time>
      </trkpt>
      <trkpt lat="48.39725" lon="6.25937">
        <ele>256.4004</ele>
        <time>2026-05-18T08:46:41+02:00</time>
      </trkpt>
      <trkpt lat="48.3973" lon="6.25934">
        <ele>256.2002</ele>
        <time>2026-05-18T08:46:42+02:00</time>
      </trkpt>
      <trkpt lat="48.39735" lon="6.25931">
        <ele>256.2002</ele>
        <time>2026-05-18T08:46:43+02:00</time>
      </trkpt>
      <trkpt lat="48.3974" lon="6.25928">
        <ele>256.2002</ele>
        <time>2026-05-18T08:46:44+02:00</time>
      </trkpt>
      <trkpt lat="48.39745" lon="6.25925">
        <ele>256.1006</ele>
        <time>2026-05-18T08:46:45+02:00</time>
      </trkpt>
      <trkpt lat="48.3975" lon="6.25922">
        <ele>256.1006</ele>
        <time>2026-05-18T08:46:46+02:00</time>
      </trkpt>
      <trkpt lat="48.39755" lon="6.2592">
        <ele>256.1006</ele>
        <time>2026-05-18T08:46:47+02:00</time>
      </trkpt>
      <trkpt lat="48.3976" lon="6.25916">
        <ele>256.1006</ele>
        <time>2026-05-18T08:46:48+02:00</time>
      </trkpt>
      <trkpt lat="48.39766" lon="6.25913">
        <ele>256.1006</ele>
        <time>2026-05-18T08:46:49+02:00</time>
      </trkpt>
      <trkpt lat="48.39771" lon="6.25911">
        <ele>256.2002</ele>
        <time>2026-05-18T08:46:50+02:00</time>
      </trkpt>
      <trkpt lat="48.39776" lon="6.25908">
        <ele>256.2002</ele>
        <time>2026-05-18T08:46:51+02:00</time>
      </trkpt>
      <trkpt lat="48.39781" lon="6.25905">
        <ele>256.2002</ele>
        <time>2026-05-18T08:46:52+02:00</time>
      </trkpt>
      <trkpt lat="48.39787" lon="6.25902">
        <ele>256.2998</ele>
        <time>2026-05-18T08:46:53+02:00</time>
      </trkpt>
      <trkpt lat="48.39789" lon="6.25901">
        <ele>256.2998</ele>
        <time>2026-05-18T08:46:54+02:00</time>
      </trkpt>
      <trkpt lat="48.39797" lon="6.25897">
        <ele>256.2998</ele>
        <time>2026-05-18T08:46:55+02:00</time>
      </trkpt>
      <trkpt lat="48.39802" lon="6.25894">
        <ele>256.4004</ele>
        <time>2026-05-18T08:46:56+02:00</time>
      </trkpt>
      <trkpt lat="48.39808" lon="6.25891">
        <ele>256.4004</ele>
        <time>2026-05-18T08:46:57+02:00</time>
      </trkpt>
      <trkpt lat="48.39813" lon="6.25888">
        <ele>256.4004</ele>
        <time>2026-05-18T08:46:58+02:00</time>
      </trkpt>
      <trkpt lat="48.39819" lon="6.25885">
        <ele>256.4004</ele>
        <time>2026-05-18T08:46:59+02:00</time>
      </trkpt>
      <trkpt lat="48.39824" lon="6.25882">
        <ele>256.2998</ele>
        <time>2026-05-18T08:47:00+02:00</time>
      </trkpt>
      <trkpt lat="48.39829" lon="6.2588">
        <ele>256.2002</ele>
        <time>2026-05-18T08:47:01+02:00</time>
      </trkpt>
      <trkpt lat="48.39834" lon="6.25877">
        <ele>256.2998</ele>
        <time>2026-05-18T08:47:02+02:00</time>
      </trkpt>
      <trkpt lat="48.39839" lon="6.25874">
        <ele>256.2998</ele>
        <time>2026-05-18T08:47:03+02:00</time>
      </trkpt>
      <trkpt lat="48.39845" lon="6.25872">
        <ele>256.2002</ele>
        <time>2026-05-18T08:47:04+02:00</time>
      </trkpt>
      <trkpt lat="48.3985" lon="6.25868">
        <ele>256.2998</ele>
        <time>2026-05-18T08:47:05+02:00</time>
      </trkpt>
      <trkpt lat="48.39856" lon="6.25865">
        <ele>256.2998</ele>
        <time>2026-05-18T08:47:06+02:00</time>
      </trkpt>
      <trkpt lat="48.39861" lon="6.25862">
        <ele>256.2998</ele>
        <time>2026-05-18T08:47:07+02:00</time>
      </trkpt>
      <trkpt lat="48.39867" lon="6.25859">
        <ele>256.2998</ele>
        <time>2026-05-18T08:47:08+02:00</time>
      </trkpt>
      <trkpt lat="48.39872" lon="6.25857">
        <ele>256.2998</ele>
        <time>2026-05-18T08:47:09+02:00</time>
      </trkpt>
      <trkpt lat="48.39875" lon="6.25855">
        <ele>256.2998</ele>
        <time>2026-05-18T08:47:10+02:00</time>
      </trkpt>
      <trkpt lat="48.39882" lon="6.25851">
        <ele>256.2998</ele>
        <time>2026-05-18T08:47:11+02:00</time>
      </trkpt>
      <trkpt lat="48.39888" lon="6.25848">
        <ele>256.2002</ele>
        <time>2026-05-18T08:47:12+02:00</time>
      </trkpt>
      <trkpt lat="48.39893" lon="6.25845">
        <ele>256.1006</ele>
        <time>2026-05-18T08:47:13+02:00</time>
      </trkpt>
      <trkpt lat="48.39898" lon="6.25842">
        <ele>256.2002</ele>
        <time>2026-05-18T08:47:14+02:00</time>
      </trkpt>
      <trkpt lat="48.39902" lon="6.25839">
        <ele>256.1006</ele>
        <time>2026-05-18T08:47:15+02:00</time>
      </trkpt>
      <trkpt lat="48.39907" lon="6.25837">
        <ele>256.1006</ele>
        <time>2026-05-18T08:47:16+02:00</time>
      </trkpt>
      <trkpt lat="48.39912" lon="6.25834">
        <ele>256.2002</ele>
        <time>2026-05-18T08:47:17+02:00</time>
      </trkpt>
      <trkpt lat="48.39917" lon="6.25832">
        <ele>256.2002</ele>
        <time>2026-05-18T08:47:18+02:00</time>
      </trkpt>
      <trkpt lat="48.39922" lon="6.25829">
        <ele>256.2002</ele>
        <time>2026-05-18T08:47:19+02:00</time>
      </trkpt>
      <trkpt lat="48.39927" lon="6.25826">
        <ele>256.2998</ele>
        <time>2026-05-18T08:47:20+02:00</time>
      </trkpt>
      <trkpt lat="48.39933" lon="6.25823">
        <ele>256.2998</ele>
        <time>2026-05-18T08:47:21+02:00</time>
      </trkpt>
      <trkpt lat="48.39938" lon="6.2582">
        <ele>256.4004</ele>
        <time>2026-05-18T08:47:22+02:00</time>
      </trkpt>
      <trkpt lat="48.39943" lon="6.25818">
        <ele>256.4004</ele>
        <time>2026-05-18T08:47:23+02:00</time>
      </trkpt>
      <trkpt lat="48.39949" lon="6.25815">
        <ele>256.4004</ele>
        <time>2026-05-18T08:47:24+02:00</time>
      </trkpt>
      <trkpt lat="48.39954" lon="6.25812">
        <ele>256.4004</ele>
        <time>2026-05-18T08:47:25+02:00</time>
      </trkpt>
      <trkpt lat="48.39959" lon="6.25809">
        <ele>256.5</ele>
        <time>2026-05-18T08:47:26+02:00</time>
      </trkpt>
      <trkpt lat="48.39965" lon="6.25805">
        <ele>256.5</ele>
        <time>2026-05-18T08:47:27+02:00</time>
      </trkpt>
      <trkpt lat="48.3997" lon="6.25802">
        <ele>256.4004</ele>
        <time>2026-05-18T08:47:28+02:00</time>
      </trkpt>
      <trkpt lat="48.39976" lon="6.25799">
        <ele>256.4004</ele>
        <time>2026-05-18T08:47:29+02:00</time>
      </trkpt>
      <trkpt lat="48.39981" lon="6.25796">
        <ele>256.2998</ele>
        <time>2026-05-18T08:47:30+02:00</time>
      </trkpt>
      <trkpt lat="48.39987" lon="6.25793">
        <ele>256.2998</ele>
        <time>2026-05-18T08:47:31+02:00</time>
      </trkpt>
      <trkpt lat="48.39992" lon="6.25791">
        <ele>256.2998</ele>
        <time>2026-05-18T08:47:32+02:00</time>
      </trkpt>
      <trkpt lat="48.39997" lon="6.25788">
        <ele>256.2998</ele>
        <time>2026-05-18T08:47:33+02:00</time>
      </trkpt>
      <trkpt lat="48.40003" lon="6.25785">
        <ele>256.2998</ele>
        <time>2026-05-18T08:47:34+02:00</time>
      </trkpt>
      <trkpt lat="48.40008" lon="6.25782">
        <ele>256.2998</ele>
        <time>2026-05-18T08:47:35+02:00</time>
      </trkpt>
      <trkpt lat="48.40013" lon="6.25778">
        <ele>256.2998</ele>
        <time>2026-05-18T08:47:36+02:00</time>
      </trkpt>
      <trkpt lat="48.40019" lon="6.25775">
        <ele>256.2998</ele>
        <time>2026-05-18T08:47:37+02:00</time>
      </trkpt>
      <trkpt lat="48.40024" lon="6.25773">
        <ele>256.2998</ele>
        <time>2026-05-18T08:47:38+02:00</time>
      </trkpt>
      <trkpt lat="48.40029" lon="6.2577">
        <ele>256.2998</ele>
        <time>2026-05-18T08:47:39+02:00</time>
      </trkpt>
      <trkpt lat="48.40035" lon="6.25767">
        <ele>256.2998</ele>
        <time>2026-05-18T08:47:40+02:00</time>
      </trkpt>
      <trkpt lat="48.4004" lon="6.25764">
        <ele>256.2998</ele>
        <time>2026-05-18T08:47:41+02:00</time>
      </trkpt>
      <trkpt lat="48.40046" lon="6.25762">
        <ele>256.2002</ele>
        <time>2026-05-18T08:47:42+02:00</time>
      </trkpt>
      <trkpt lat="48.40051" lon="6.25758">
        <ele>256.2002</ele>
        <time>2026-05-18T08:47:43+02:00</time>
      </trkpt>
      <trkpt lat="48.40056" lon="6.25755">
        <ele>256.2998</ele>
        <time>2026-05-18T08:47:44+02:00</time>
      </trkpt>
      <trkpt lat="48.40062" lon="6.25752">
        <ele>256.2998</ele>
        <time>2026-05-18T08:47:45+02:00</time>
      </trkpt>
      <trkpt lat="48.40067" lon="6.25749">
        <ele>256.2998</ele>
        <time>2026-05-18T08:47:46+02:00</time>
      </trkpt>
      <trkpt lat="48.40072" lon="6.25746">
        <ele>256.4004</ele>
        <time>2026-05-18T08:47:47+02:00</time>
      </trkpt>
      <trkpt lat="48.40078" lon="6.25743">
        <ele>256.4004</ele>
        <time>2026-05-18T08:47:48+02:00</time>
      </trkpt>
      <trkpt lat="48.40083" lon="6.2574">
        <ele>256.4004</ele>
        <time>2026-05-18T08:47:49+02:00</time>
      </trkpt>
      <trkpt lat="48.40088" lon="6.25737">
        <ele>256.4004</ele>
        <time>2026-05-18T08:47:50+02:00</time>
      </trkpt>
      <trkpt lat="48.40093" lon="6.25734">
        <ele>256.4004</ele>
        <time>2026-05-18T08:47:51+02:00</time>
      </trkpt>
      <trkpt lat="48.40099" lon="6.25731">
        <ele>256.5</ele>
        <time>2026-05-18T08:47:52+02:00</time>
      </trkpt>
      <trkpt lat="48.40104" lon="6.25729">
        <ele>256.4004</ele>
        <time>2026-05-18T08:47:53+02:00</time>
      </trkpt>
      <trkpt lat="48.40109" lon="6.25726">
        <ele>256.2998</ele>
        <time>2026-05-18T08:47:54+02:00</time>
      </trkpt>
      <trkpt lat="48.40114" lon="6.25723">
        <ele>256.2002</ele>
        <time>2026-05-18T08:47:55+02:00</time>
      </trkpt>
      <trkpt lat="48.40119" lon="6.2572">
        <ele>256.2998</ele>
        <time>2026-05-18T08:47:56+02:00</time>
      </trkpt>
      <trkpt lat="48.40125" lon="6.25717">
        <ele>256.2002</ele>
        <time>2026-05-18T08:47:57+02:00</time>
      </trkpt>
      <trkpt lat="48.4013" lon="6.25714">
        <ele>256.2998</ele>
        <time>2026-05-18T08:47:58+02:00</time>
      </trkpt>
      <trkpt lat="48.40135" lon="6.25711">
        <ele>256.2002</ele>
        <time>2026-05-18T08:47:59+02:00</time>
      </trkpt>
      <trkpt lat="48.4014" lon="6.25709">
        <ele>256.2002</ele>
        <time>2026-05-18T08:48:00+02:00</time>
      </trkpt>
      <trkpt lat="48.40145" lon="6.25706">
        <ele>256.2002</ele>
        <time>2026-05-18T08:48:01+02:00</time>
      </trkpt>
      <trkpt lat="48.40151" lon="6.25703">
        <ele>256.2002</ele>
        <time>2026-05-18T08:48:02+02:00</time>
      </trkpt>
      <trkpt lat="48.40156" lon="6.25701">
        <ele>256.2002</ele>
        <time>2026-05-18T08:48:03+02:00</time>
      </trkpt>
      <trkpt lat="48.40162" lon="6.25698">
        <ele>256.2002</ele>
        <time>2026-05-18T08:48:04+02:00</time>
      </trkpt>
      <trkpt lat="48.40167" lon="6.25696">
        <ele>256.2998</ele>
        <time>2026-05-18T08:48:05+02:00</time>
      </trkpt>
      <trkpt lat="48.40173" lon="6.25693">
        <ele>256.2002</ele>
        <time>2026-05-18T08:48:06+02:00</time>
      </trkpt>
      <trkpt lat="48.40173" lon="6.25693">
        <ele>256.2002</ele>
        <time>2026-05-18T08:48:07+02:00</time>
      </trkpt>
      <trkpt lat="48.40173" lon="6.25693">
        <ele>256.2002</ele>
        <time>2026-05-18T08:48:08+02:00</time>
      </trkpt>
      <trkpt lat="48.40187" lon="6.25687">
        <ele>256.2002</ele>
        <time>2026-05-18T08:48:09+02:00</time>
      </trkpt>
      <trkpt lat="48.40195" lon="6.25684">
        <ele>256.1006</ele>
        <time>2026-05-18T08:48:10+02:00</time>
      </trkpt>
      <trkpt lat="48.40201" lon="6.25682">
        <ele>256.1006</ele>
        <time>2026-05-18T08:48:11+02:00</time>
      </trkpt>
      <trkpt lat="48.40207" lon="6.25679">
        <ele>256.2002</ele>
        <time>2026-05-18T08:48:12+02:00</time>
      </trkpt>
      <trkpt lat="48.40212" lon="6.25677">
        <ele>256.2002</ele>
        <time>2026-05-18T08:48:13+02:00</time>
      </trkpt>
      <trkpt lat="48.40218" lon="6.25675">
        <ele>256.2002</ele>
        <time>2026-05-18T08:48:14+02:00</time>
      </trkpt>
      <trkpt lat="48.40223" lon="6.25673">
        <ele>256.2002</ele>
        <time>2026-05-18T08:48:15+02:00</time>
      </trkpt>
      <trkpt lat="48.40229" lon="6.25671">
        <ele>256.2998</ele>
        <time>2026-05-18T08:48:16+02:00</time>
      </trkpt>
      <trkpt lat="48.40235" lon="6.25669">
        <ele>256.2998</ele>
        <time>2026-05-18T08:48:17+02:00</time>
      </trkpt>
      <trkpt lat="48.40241" lon="6.25667">
        <ele>256.2998</ele>
        <time>2026-05-18T08:48:18+02:00</time>
      </trkpt>
      <trkpt lat="48.40246" lon="6.25665">
        <ele>256.2998</ele>
        <time>2026-05-18T08:48:19+02:00</time>
      </trkpt>
      <trkpt lat="48.40252" lon="6.25663">
        <ele>256.2002</ele>
        <time>2026-05-18T08:48:20+02:00</time>
      </trkpt>
      <trkpt lat="48.40257" lon="6.25661">
        <ele>256.2002</ele>
        <time>2026-05-18T08:48:21+02:00</time>
      </trkpt>
      <trkpt lat="48.40263" lon="6.2566">
        <ele>256.2002</ele>
        <time>2026-05-18T08:48:22+02:00</time>
      </trkpt>
      <trkpt lat="48.40269" lon="6.25658">
        <ele>256.2002</ele>
        <time>2026-05-18T08:48:23+02:00</time>
      </trkpt>
      <trkpt lat="48.40275" lon="6.25656">
        <ele>256.2002</ele>
        <time>2026-05-18T08:48:24+02:00</time>
      </trkpt>
      <trkpt lat="48.40281" lon="6.25654">
        <ele>256.2002</ele>
        <time>2026-05-18T08:48:25+02:00</time>
      </trkpt>
      <trkpt lat="48.40287" lon="6.25653">
        <ele>256.2002</ele>
        <time>2026-05-18T08:48:26+02:00</time>
      </trkpt>
      <trkpt lat="48.40293" lon="6.25651">
        <ele>256.1006</ele>
        <time>2026-05-18T08:48:27+02:00</time>
      </trkpt>
      <trkpt lat="48.40299" lon="6.2565">
        <ele>256.1006</ele>
        <time>2026-05-18T08:48:28+02:00</time>
      </trkpt>
      <trkpt lat="48.40304" lon="6.25648">
        <ele>256</ele>
        <time>2026-05-18T08:48:29+02:00</time>
      </trkpt>
      <trkpt lat="48.4031" lon="6.25647">
        <ele>256</ele>
        <time>2026-05-18T08:48:30+02:00</time>
      </trkpt>
      <trkpt lat="48.40316" lon="6.25646">
        <ele>256</ele>
        <time>2026-05-18T08:48:31+02:00</time>
      </trkpt>
      <trkpt lat="48.40322" lon="6.25645">
        <ele>256.1006</ele>
        <time>2026-05-18T08:48:32+02:00</time>
      </trkpt>
      <trkpt lat="48.40328" lon="6.25644">
        <ele>256.1006</ele>
        <time>2026-05-18T08:48:33+02:00</time>
      </trkpt>
      <trkpt lat="48.40334" lon="6.25643">
        <ele>256.1006</ele>
        <time>2026-05-18T08:48:34+02:00</time>
      </trkpt>
      <trkpt lat="48.4034" lon="6.25643">
        <ele>256.1006</ele>
        <time>2026-05-18T08:48:35+02:00</time>
      </trkpt>
      <trkpt lat="48.40346" lon="6.25641">
        <ele>256.1006</ele>
        <time>2026-05-18T08:48:36+02:00</time>
      </trkpt>
      <trkpt lat="48.40352" lon="6.2564">
        <ele>256.1006</ele>
        <time>2026-05-18T08:48:37+02:00</time>
      </trkpt>
      <trkpt lat="48.40357" lon="6.25639">
        <ele>256.1006</ele>
        <time>2026-05-18T08:48:38+02:00</time>
      </trkpt>
      <trkpt lat="48.40363" lon="6.25639">
        <ele>256.1006</ele>
        <time>2026-05-18T08:48:39+02:00</time>
      </trkpt>
      <trkpt lat="48.40368" lon="6.25638">
        <ele>256.1006</ele>
        <time>2026-05-18T08:48:40+02:00</time>
      </trkpt>
      <trkpt lat="48.40374" lon="6.25637">
        <ele>256.2998</ele>
        <time>2026-05-18T08:48:41+02:00</time>
      </trkpt>
      <trkpt lat="48.4038" lon="6.25637">
        <ele>256.2998</ele>
        <time>2026-05-18T08:48:42+02:00</time>
      </trkpt>
      <trkpt lat="48.40383" lon="6.25636">
        <ele>256.2998</ele>
        <time>2026-05-18T08:48:43+02:00</time>
      </trkpt>
      <trkpt lat="48.40391" lon="6.25635">
        <ele>256.2998</ele>
        <time>2026-05-18T08:48:44+02:00</time>
      </trkpt>
      <trkpt lat="48.40397" lon="6.25634">
        <ele>256.2998</ele>
        <time>2026-05-18T08:48:45+02:00</time>
      </trkpt>
      <trkpt lat="48.40402" lon="6.25633">
        <ele>256.2998</ele>
        <time>2026-05-18T08:48:46+02:00</time>
      </trkpt>
      <trkpt lat="48.40408" lon="6.25632">
        <ele>256.2998</ele>
        <time>2026-05-18T08:48:47+02:00</time>
      </trkpt>
      <trkpt lat="48.40414" lon="6.25632">
        <ele>256.2002</ele>
        <time>2026-05-18T08:48:48+02:00</time>
      </trkpt>
      <trkpt lat="48.4042" lon="6.25631">
        <ele>256.2002</ele>
        <time>2026-05-18T08:48:49+02:00</time>
      </trkpt>
      <trkpt lat="48.40425" lon="6.25631">
        <ele>256.2002</ele>
        <time>2026-05-18T08:48:50+02:00</time>
      </trkpt>
      <trkpt lat="48.40431" lon="6.25631">
        <ele>256.2002</ele>
        <time>2026-05-18T08:48:51+02:00</time>
      </trkpt>
      <trkpt lat="48.40436" lon="6.2563">
        <ele>256.2002</ele>
        <time>2026-05-18T08:48:52+02:00</time>
      </trkpt>
      <trkpt lat="48.40442" lon="6.2563">
        <ele>256.2002</ele>
        <time>2026-05-18T08:48:53+02:00</time>
      </trkpt>
      <trkpt lat="48.40447" lon="6.25631">
        <ele>256.2002</ele>
        <time>2026-05-18T08:48:54+02:00</time>
      </trkpt>
      <trkpt lat="48.40453" lon="6.25631">
        <ele>256.2002</ele>
        <time>2026-05-18T08:48:55+02:00</time>
      </trkpt>
      <trkpt lat="48.40458" lon="6.25631">
        <ele>256.2002</ele>
        <time>2026-05-18T08:48:56+02:00</time>
      </trkpt>
      <trkpt lat="48.40464" lon="6.25631">
        <ele>256.2002</ele>
        <time>2026-05-18T08:48:57+02:00</time>
      </trkpt>
      <trkpt lat="48.40469" lon="6.25632">
        <ele>256.2002</ele>
        <time>2026-05-18T08:48:58+02:00</time>
      </trkpt>
      <trkpt lat="48.40474" lon="6.25632">
        <ele>256.2002</ele>
        <time>2026-05-18T08:48:59+02:00</time>
      </trkpt>
      <trkpt lat="48.4048" lon="6.25632">
        <ele>256.2002</ele>
        <time>2026-05-18T08:49:00+02:00</time>
      </trkpt>
      <trkpt lat="48.40485" lon="6.25633">
        <ele>256.2002</ele>
        <time>2026-05-18T08:49:01+02:00</time>
      </trkpt>
      <trkpt lat="48.4049" lon="6.25633">
        <ele>256.2002</ele>
        <time>2026-05-18T08:49:02+02:00</time>
      </trkpt>
      <trkpt lat="48.40493" lon="6.25633">
        <ele>256.2002</ele>
        <time>2026-05-18T08:49:03+02:00</time>
      </trkpt>
      <trkpt lat="48.40501" lon="6.25633">
        <ele>256.1006</ele>
        <time>2026-05-18T08:49:04+02:00</time>
      </trkpt>
      <trkpt lat="48.40506" lon="6.25634">
        <ele>256.1006</ele>
        <time>2026-05-18T08:49:05+02:00</time>
      </trkpt>
      <trkpt lat="48.40512" lon="6.25635">
        <ele>256.1006</ele>
        <time>2026-05-18T08:49:06+02:00</time>
      </trkpt>
      <trkpt lat="48.40518" lon="6.25635">
        <ele>256.1006</ele>
        <time>2026-05-18T08:49:07+02:00</time>
      </trkpt>
      <trkpt lat="48.40523" lon="6.25635">
        <ele>256.1006</ele>
        <time>2026-05-18T08:49:08+02:00</time>
      </trkpt>
      <trkpt lat="48.40528" lon="6.25636">
        <ele>256.1006</ele>
        <time>2026-05-18T08:49:09+02:00</time>
      </trkpt>
      <trkpt lat="48.40534" lon="6.25637">
        <ele>256.1006</ele>
        <time>2026-05-18T08:49:10+02:00</time>
      </trkpt>
      <trkpt lat="48.40539" lon="6.25637">
        <ele>256.1006</ele>
        <time>2026-05-18T08:49:11+02:00</time>
      </trkpt>
      <trkpt lat="48.40545" lon="6.25638">
        <ele>256</ele>
        <time>2026-05-18T08:49:12+02:00</time>
      </trkpt>
      <trkpt lat="48.4055" lon="6.25639">
        <ele>256</ele>
        <time>2026-05-18T08:49:13+02:00</time>
      </trkpt>
      <trkpt lat="48.40556" lon="6.2564">
        <ele>256</ele>
        <time>2026-05-18T08:49:14+02:00</time>
      </trkpt>
      <trkpt lat="48.40561" lon="6.25641">
        <ele>256</ele>
        <time>2026-05-18T08:49:15+02:00</time>
      </trkpt>
      <trkpt lat="48.40567" lon="6.25641">
        <ele>256</ele>
        <time>2026-05-18T08:49:16+02:00</time>
      </trkpt>
      <trkpt lat="48.40573" lon="6.25642">
        <ele>255.90039</ele>
        <time>2026-05-18T08:49:17+02:00</time>
      </trkpt>
      <trkpt lat="48.40578" lon="6.25643">
        <ele>255.90039</ele>
        <time>2026-05-18T08:49:18+02:00</time>
      </trkpt>
      <trkpt lat="48.40584" lon="6.25644">
        <ele>255.90039</ele>
        <time>2026-05-18T08:49:19+02:00</time>
      </trkpt>
      <trkpt lat="48.40589" lon="6.25645">
        <ele>255.90039</ele>
        <time>2026-05-18T08:49:20+02:00</time>
      </trkpt>
      <trkpt lat="48.40595" lon="6.25646">
        <ele>255.7998</ele>
        <time>2026-05-18T08:49:21+02:00</time>
      </trkpt>
      <trkpt lat="48.406" lon="6.25647">
        <ele>255.90039</ele>
        <time>2026-05-18T08:49:22+02:00</time>
      </trkpt>
      <trkpt lat="48.40606" lon="6.25648">
        <ele>255.90039</ele>
        <time>2026-05-18T08:49:23+02:00</time>
      </trkpt>
      <trkpt lat="48.40611" lon="6.25649">
        <ele>256</ele>
        <time>2026-05-18T08:49:24+02:00</time>
      </trkpt>
      <trkpt lat="48.40617" lon="6.25649">
        <ele>256.1006</ele>
        <time>2026-05-18T08:49:25+02:00</time>
      </trkpt>
      <trkpt lat="48.40623" lon="6.2565">
        <ele>256.4004</ele>
        <time>2026-05-18T08:49:26+02:00</time>
      </trkpt>
      <trkpt lat="48.40629" lon="6.25651">
        <ele>256.6006</ele>
        <time>2026-05-18T08:49:27+02:00</time>
      </trkpt>
      <trkpt lat="48.40634" lon="6.25652">
        <ele>256.7998</ele>
        <time>2026-05-18T08:49:28+02:00</time>
      </trkpt>
      <trkpt lat="48.40639" lon="6.25653">
        <ele>256.7998</ele>
        <time>2026-05-18T08:49:29+02:00</time>
      </trkpt>
      <trkpt lat="48.40645" lon="6.25654">
        <ele>256.7002</ele>
        <time>2026-05-18T08:49:30+02:00</time>
      </trkpt>
      <trkpt lat="48.4065" lon="6.25655">
        <ele>256.9004</ele>
        <time>2026-05-18T08:49:31+02:00</time>
      </trkpt>
      <trkpt lat="48.40656" lon="6.25655">
        <ele>257</ele>
        <time>2026-05-18T08:49:32+02:00</time>
      </trkpt>
      <trkpt lat="48.40661" lon="6.25657">
        <ele>257.1006</ele>
        <time>2026-05-18T08:49:33+02:00</time>
      </trkpt>
      <trkpt lat="48.40667" lon="6.25658">
        <ele>257.2998</ele>
        <time>2026-05-18T08:49:34+02:00</time>
      </trkpt>
      <trkpt lat="48.40673" lon="6.2566">
        <ele>257.4004</ele>
        <time>2026-05-18T08:49:35+02:00</time>
      </trkpt>
      <trkpt lat="48.40679" lon="6.25661">
        <ele>257.5</ele>
        <time>2026-05-18T08:49:36+02:00</time>
      </trkpt>
      <trkpt lat="48.40685" lon="6.25662">
        <ele>257.6006</ele>
        <time>2026-05-18T08:49:37+02:00</time>
      </trkpt>
      <trkpt lat="48.4069" lon="6.25663">
        <ele>258.5</ele>
        <time>2026-05-18T08:49:38+02:00</time>
      </trkpt>
      <trkpt lat="48.40696" lon="6.25664">
        <ele>258.6006</ele>
        <time>2026-05-18T08:49:39+02:00</time>
      </trkpt>
      <trkpt lat="48.40702" lon="6.25666">
        <ele>258.7998</ele>
        <time>2026-05-18T08:49:40+02:00</time>
      </trkpt>
      <trkpt lat="48.40708" lon="6.25667">
        <ele>258.9004</ele>
        <time>2026-05-18T08:49:41+02:00</time>
      </trkpt>
      <trkpt lat="48.40714" lon="6.25669">
        <ele>259</ele>
        <time>2026-05-18T08:49:42+02:00</time>
      </trkpt>
      <trkpt lat="48.40719" lon="6.2567">
        <ele>259</ele>
        <time>2026-05-18T08:49:43+02:00</time>
      </trkpt>
      <trkpt lat="48.40725" lon="6.25671">
        <ele>259.1006</ele>
        <time>2026-05-18T08:49:44+02:00</time>
      </trkpt>
      <trkpt lat="48.40731" lon="6.25673">
        <ele>259.9004</ele>
        <time>2026-05-18T08:49:45+02:00</time>
      </trkpt>
      <trkpt lat="48.40737" lon="6.25674">
        <ele>259.9004</ele>
        <time>2026-05-18T08:49:46+02:00</time>
      </trkpt>
      <trkpt lat="48.40743" lon="6.25675">
        <ele>259.9004</ele>
        <time>2026-05-18T08:49:47+02:00</time>
      </trkpt>
      <trkpt lat="48.40748" lon="6.25676">
        <ele>259.7998</ele>
        <time>2026-05-18T08:49:48+02:00</time>
      </trkpt>
      <trkpt lat="48.40754" lon="6.25677">
        <ele>259.7998</ele>
        <time>2026-05-18T08:49:49+02:00</time>
      </trkpt>
      <trkpt lat="48.4076" lon="6.25678">
        <ele>259.7002</ele>
        <time>2026-05-18T08:49:50+02:00</time>
      </trkpt>
      <trkpt lat="48.40766" lon="6.25679">
        <ele>259.5</ele>
        <time>2026-05-18T08:49:51+02:00</time>
      </trkpt>
      <trkpt lat="48.40771" lon="6.2568">
        <ele>259.5</ele>
        <time>2026-05-18T08:49:52+02:00</time>
      </trkpt>
      <trkpt lat="48.40777" lon="6.25681">
        <ele>259.2002</ele>
        <time>2026-05-18T08:49:53+02:00</time>
      </trkpt>
      <trkpt lat="48.40783" lon="6.25681">
        <ele>258.7998</ele>
        <time>2026-05-18T08:49:54+02:00</time>
      </trkpt>
      <trkpt lat="48.40788" lon="6.25682">
        <ele>258.4004</ele>
        <time>2026-05-18T08:49:55+02:00</time>
      </trkpt>
      <trkpt lat="48.40794" lon="6.25683">
        <ele>258.1006</ele>
        <time>2026-05-18T08:49:56+02:00</time>
      </trkpt>
      <trkpt lat="48.408" lon="6.25684">
        <ele>257.7998</ele>
        <time>2026-05-18T08:49:57+02:00</time>
      </trkpt>
      <trkpt lat="48.40806" lon="6.25686">
        <ele>257.7002</ele>
        <time>2026-05-18T08:49:58+02:00</time>
      </trkpt>
      <trkpt lat="48.40812" lon="6.25687">
        <ele>257.6006</ele>
        <time>2026-05-18T08:49:59+02:00</time>
      </trkpt>
      <trkpt lat="48.40817" lon="6.25687">
        <ele>257.5</ele>
        <time>2026-05-18T08:50:00+02:00</time>
      </trkpt>
      <trkpt lat="48.40823" lon="6.25687">
        <ele>257.5</ele>
        <time>2026-05-18T08:50:01+02:00</time>
      </trkpt>
      <trkpt lat="48.4083" lon="6.25687">
        <ele>257.5</ele>
        <time>2026-05-18T08:50:02+02:00</time>
      </trkpt>
      <trkpt lat="48.40835" lon="6.25686">
        <ele>257.5</ele>
        <time>2026-05-18T08:50:03+02:00</time>
      </trkpt>
      <trkpt lat="48.40841" lon="6.25687">
        <ele>257.5</ele>
        <time>2026-05-18T08:50:04+02:00</time>
      </trkpt>
      <trkpt lat="48.40844" lon="6.25687">
        <ele>257.5</ele>
        <time>2026-05-18T08:50:05+02:00</time>
      </trkpt>
      <trkpt lat="48.40853" lon="6.25688">
        <ele>257.6006</ele>
        <time>2026-05-18T08:50:06+02:00</time>
      </trkpt>
      <trkpt lat="48.40859" lon="6.2569">
        <ele>258</ele>
        <time>2026-05-18T08:50:07+02:00</time>
      </trkpt>
      <trkpt lat="48.40864" lon="6.25692">
        <ele>258</ele>
        <time>2026-05-18T08:50:08+02:00</time>
      </trkpt>
      <trkpt lat="48.4087" lon="6.25695">
        <ele>257.9004</ele>
        <time>2026-05-18T08:50:09+02:00</time>
      </trkpt>
      <trkpt lat="48.40876" lon="6.25697">
        <ele>257.7998</ele>
        <time>2026-05-18T08:50:10+02:00</time>
      </trkpt>
      <trkpt lat="48.40882" lon="6.25699">
        <ele>257.9004</ele>
        <time>2026-05-18T08:50:11+02:00</time>
      </trkpt>
      <trkpt lat="48.40889" lon="6.257">
        <ele>257.7002</ele>
        <time>2026-05-18T08:50:12+02:00</time>
      </trkpt>
      <trkpt lat="48.40896" lon="6.25702">
        <ele>257.4004</ele>
        <time>2026-05-18T08:50:13+02:00</time>
      </trkpt>
      <trkpt lat="48.40902" lon="6.25704">
        <ele>257.2002</ele>
        <time>2026-05-18T08:50:14+02:00</time>
      </trkpt>
      <trkpt lat="48.40909" lon="6.25705">
        <ele>257</ele>
        <time>2026-05-18T08:50:15+02:00</time>
      </trkpt>
      <trkpt lat="48.40917" lon="6.25707">
        <ele>257.4004</ele>
        <time>2026-05-18T08:50:16+02:00</time>
      </trkpt>
      <trkpt lat="48.40923" lon="6.25708">
        <ele>257.2998</ele>
        <time>2026-05-18T08:50:17+02:00</time>
      </trkpt>
      <trkpt lat="48.4093" lon="6.2571">
        <ele>257.2998</ele>
        <time>2026-05-18T08:50:18+02:00</time>
      </trkpt>
      <trkpt lat="48.40936" lon="6.25711">
        <ele>257.2998</ele>
        <time>2026-05-18T08:50:19+02:00</time>
      </trkpt>
      <trkpt lat="48.40943" lon="6.25712">
        <ele>257.4004</ele>
        <time>2026-05-18T08:50:20+02:00</time>
      </trkpt>
      <trkpt lat="48.40949" lon="6.25713">
        <ele>257.4004</ele>
        <time>2026-05-18T08:50:21+02:00</time>
      </trkpt>
      <trkpt lat="48.40955" lon="6.25714">
        <ele>257.5</ele>
        <time>2026-05-18T08:50:22+02:00</time>
      </trkpt>
      <trkpt lat="48.40962" lon="6.25715">
        <ele>258</ele>
        <time>2026-05-18T08:50:23+02:00</time>
      </trkpt>
      <trkpt lat="48.40968" lon="6.25717">
        <ele>258</ele>
        <time>2026-05-18T08:50:24+02:00</time>
      </trkpt>
      <trkpt lat="48.40974" lon="6.25718">
        <ele>258.1006</ele>
        <time>2026-05-18T08:50:25+02:00</time>
      </trkpt>
      <trkpt lat="48.4098" lon="6.25719">
        <ele>258.1006</ele>
        <time>2026-05-18T08:50:26+02:00</time>
      </trkpt>
      <trkpt lat="48.40983" lon="6.2572">
        <ele>258.1006</ele>
        <time>2026-05-18T08:50:27+02:00</time>
      </trkpt>
      <trkpt lat="48.40992" lon="6.25721">
        <ele>258.2002</ele>
        <time>2026-05-18T08:50:28+02:00</time>
      </trkpt>
      <trkpt lat="48.40998" lon="6.25722">
        <ele>258.2002</ele>
        <time>2026-05-18T08:50:29+02:00</time>
      </trkpt>
      <trkpt lat="48.41004" lon="6.25723">
        <ele>258.7002</ele>
        <time>2026-05-18T08:50:30+02:00</time>
      </trkpt>
      <trkpt lat="48.4101" lon="6.25724">
        <ele>258.5</ele>
        <time>2026-05-18T08:50:31+02:00</time>
      </trkpt>
      <trkpt lat="48.41017" lon="6.25725">
        <ele>258.2002</ele>
        <time>2026-05-18T08:50:32+02:00</time>
      </trkpt>
      <trkpt lat="48.41023" lon="6.25726">
        <ele>258</ele>
        <time>2026-05-18T08:50:33+02:00</time>
      </trkpt>
      <trkpt lat="48.41029" lon="6.25727">
        <ele>257.4004</ele>
        <time>2026-05-18T08:50:34+02:00</time>
      </trkpt>
      <trkpt lat="48.41032" lon="6.25728">
        <ele>257.4004</ele>
        <time>2026-05-18T08:50:35+02:00</time>
      </trkpt>
      <trkpt lat="48.41041" lon="6.25729">
        <ele>257.1006</ele>
        <time>2026-05-18T08:50:36+02:00</time>
      </trkpt>
      <trkpt lat="48.41047" lon="6.25731">
        <ele>257</ele>
        <time>2026-05-18T08:50:37+02:00</time>
      </trkpt>
      <trkpt lat="48.41053" lon="6.25732">
        <ele>257.4004</ele>
        <time>2026-05-18T08:50:38+02:00</time>
      </trkpt>
      <trkpt lat="48.4106" lon="6.25734">
        <ele>257.2998</ele>
        <time>2026-05-18T08:50:39+02:00</time>
      </trkpt>
      <trkpt lat="48.41066" lon="6.25735">
        <ele>257.2002</ele>
        <time>2026-05-18T08:50:40+02:00</time>
      </trkpt>
      <trkpt lat="48.41072" lon="6.25736">
        <ele>257.1006</ele>
        <time>2026-05-18T08:50:41+02:00</time>
      </trkpt>
      <trkpt lat="48.41078" lon="6.25737">
        <ele>257</ele>
        <time>2026-05-18T08:50:42+02:00</time>
      </trkpt>
      <trkpt lat="48.41084" lon="6.25738">
        <ele>257</ele>
        <time>2026-05-18T08:50:43+02:00</time>
      </trkpt>
      <trkpt lat="48.4109" lon="6.25739">
        <ele>256.9004</ele>
        <time>2026-05-18T08:50:44+02:00</time>
      </trkpt>
      <trkpt lat="48.41096" lon="6.25739">
        <ele>257</ele>
        <time>2026-05-18T08:50:45+02:00</time>
      </trkpt>
      <trkpt lat="48.41102" lon="6.25741">
        <ele>257</ele>
        <time>2026-05-18T08:50:46+02:00</time>
      </trkpt>
      <trkpt lat="48.41108" lon="6.25742">
        <ele>256.9004</ele>
        <time>2026-05-18T08:50:47+02:00</time>
      </trkpt>
      <trkpt lat="48.41113" lon="6.25743">
        <ele>256.9004</ele>
        <time>2026-05-18T08:50:48+02:00</time>
      </trkpt>
      <trkpt lat="48.41119" lon="6.25744">
        <ele>256.9004</ele>
        <time>2026-05-18T08:50:49+02:00</time>
      </trkpt>
      <trkpt lat="48.41124" lon="6.25745">
        <ele>257</ele>
        <time>2026-05-18T08:50:50+02:00</time>
      </trkpt>
      <trkpt lat="48.41129" lon="6.25745">
        <ele>257.1006</ele>
        <time>2026-05-18T08:50:51+02:00</time>
      </trkpt>
      <trkpt lat="48.41136" lon="6.25746">
        <ele>257.2998</ele>
        <time>2026-05-18T08:50:52+02:00</time>
      </trkpt>
      <trkpt lat="48.41142" lon="6.25748">
        <ele>257.4004</ele>
        <time>2026-05-18T08:50:53+02:00</time>
      </trkpt>
      <trkpt lat="48.41148" lon="6.25749">
        <ele>257.5</ele>
        <time>2026-05-18T08:50:54+02:00</time>
      </trkpt>
      <trkpt lat="48.41154" lon="6.2575">
        <ele>257.5</ele>
        <time>2026-05-18T08:50:55+02:00</time>
      </trkpt>
      <trkpt lat="48.4116" lon="6.25751">
        <ele>257.5</ele>
        <time>2026-05-18T08:50:56+02:00</time>
      </trkpt>
      <trkpt lat="48.41165" lon="6.25753">
        <ele>257.2998</ele>
        <time>2026-05-18T08:50:57+02:00</time>
      </trkpt>
      <trkpt lat="48.41171" lon="6.25754">
        <ele>257.1006</ele>
        <time>2026-05-18T08:50:58+02:00</time>
      </trkpt>
      <trkpt lat="48.41177" lon="6.25755">
        <ele>257</ele>
        <time>2026-05-18T08:50:59+02:00</time>
      </trkpt>
      <trkpt lat="48.41182" lon="6.25756">
        <ele>256.9004</ele>
        <time>2026-05-18T08:51:00+02:00</time>
      </trkpt>
      <trkpt lat="48.41188" lon="6.25757">
        <ele>256.9004</ele>
        <time>2026-05-18T08:51:01+02:00</time>
      </trkpt>
      <trkpt lat="48.41191" lon="6.25758">
        <ele>257.2998</ele>
        <time>2026-05-18T08:51:02+02:00</time>
      </trkpt>
      <trkpt lat="48.412" lon="6.2576">
        <ele>257.4004</ele>
        <time>2026-05-18T08:51:03+02:00</time>
      </trkpt>
      <trkpt lat="48.41205" lon="6.25761">
        <ele>257.4004</ele>
        <time>2026-05-18T08:51:04+02:00</time>
      </trkpt>
      <trkpt lat="48.41211" lon="6.25762">
        <ele>257.5</ele>
        <time>2026-05-18T08:51:05+02:00</time>
      </trkpt>
      <trkpt lat="48.41216" lon="6.25763">
        <ele>257.7002</ele>
        <time>2026-05-18T08:51:06+02:00</time>
      </trkpt>
      <trkpt lat="48.41222" lon="6.25764">
        <ele>257.7998</ele>
        <time>2026-05-18T08:51:07+02:00</time>
      </trkpt>
      <trkpt lat="48.41227" lon="6.25764">
        <ele>257.9004</ele>
        <time>2026-05-18T08:51:08+02:00</time>
      </trkpt>
      <trkpt lat="48.41232" lon="6.25765">
        <ele>257.9004</ele>
        <time>2026-05-18T08:51:09+02:00</time>
      </trkpt>
      <trkpt lat="48.41238" lon="6.25766">
        <ele>258.4004</ele>
        <time>2026-05-18T08:51:10+02:00</time>
      </trkpt>
      <trkpt lat="48.41244" lon="6.25767">
        <ele>258.4004</ele>
        <time>2026-05-18T08:51:11+02:00</time>
      </trkpt>
      <trkpt lat="48.4125" lon="6.25768">
        <ele>258.4004</ele>
        <time>2026-05-18T08:51:12+02:00</time>
      </trkpt>
      <trkpt lat="48.41255" lon="6.25769">
        <ele>258.2998</ele>
        <time>2026-05-18T08:51:13+02:00</time>
      </trkpt>
      <trkpt lat="48.4126" lon="6.25771">
        <ele>258.1006</ele>
        <time>2026-05-18T08:51:14+02:00</time>
      </trkpt>
      <trkpt lat="48.41266" lon="6.25772">
        <ele>257.7998</ele>
        <time>2026-05-18T08:51:15+02:00</time>
      </trkpt>
      <trkpt lat="48.41272" lon="6.25773">
        <ele>257.6006</ele>
        <time>2026-05-18T08:51:16+02:00</time>
      </trkpt>
      <trkpt lat="48.41278" lon="6.25774">
        <ele>257.2998</ele>
        <time>2026-05-18T08:51:17+02:00</time>
      </trkpt>
      <trkpt lat="48.41284" lon="6.25775">
        <ele>257.4004</ele>
        <time>2026-05-18T08:51:18+02:00</time>
      </trkpt>
      <trkpt lat="48.41289" lon="6.25776">
        <ele>257.2002</ele>
        <time>2026-05-18T08:51:19+02:00</time>
      </trkpt>
      <trkpt lat="48.41294" lon="6.25778">
        <ele>257</ele>
        <time>2026-05-18T08:51:20+02:00</time>
      </trkpt>
      <trkpt lat="48.41299" lon="6.25781">
        <ele>256.9004</ele>
        <time>2026-05-18T08:51:21+02:00</time>
      </trkpt>
      <trkpt lat="48.41303" lon="6.25786">
        <ele>257.2998</ele>
        <time>2026-05-18T08:51:22+02:00</time>
      </trkpt>
      <trkpt lat="48.41306" lon="6.25792">
        <ele>257.6006</ele>
        <time>2026-05-18T08:51:23+02:00</time>
      </trkpt>
      <trkpt lat="48.41307" lon="6.258">
        <ele>257.6006</ele>
        <time>2026-05-18T08:51:24+02:00</time>
      </trkpt>
      <trkpt lat="48.41308" lon="6.25808">
        <ele>257.9004</ele>
        <time>2026-05-18T08:51:25+02:00</time>
      </trkpt>
      <trkpt lat="48.41308" lon="6.25816">
        <ele>258.2002</ele>
        <time>2026-05-18T08:51:26+02:00</time>
      </trkpt>
      <trkpt lat="48.41308" lon="6.25825">
        <ele>258.2998</ele>
        <time>2026-05-18T08:51:27+02:00</time>
      </trkpt>
      <trkpt lat="48.41309" lon="6.25834">
        <ele>258.2002</ele>
        <time>2026-05-18T08:51:28+02:00</time>
      </trkpt>
      <trkpt lat="48.41311" lon="6.25842">
        <ele>258</ele>
        <time>2026-05-18T08:51:29+02:00</time>
      </trkpt>
      <trkpt lat="48.41313" lon="6.25851">
        <ele>257.7998</ele>
        <time>2026-05-18T08:51:30+02:00</time>
      </trkpt>
      <trkpt lat="48.41328" lon="6.25878">
        <ele>257.2998</ele>
        <time>2026-05-18T08:51:31+02:00</time>
      </trkpt>
      <trkpt lat="48.4133" lon="6.25882">
        <ele>257.2998</ele>
        <time>2026-05-18T08:51:32+02:00</time>
      </trkpt>
      <trkpt lat="48.41333" lon="6.25885">
        <ele>257.4004</ele>
        <time>2026-05-18T08:51:33+02:00</time>
      </trkpt>
      <trkpt lat="48.41337" lon="6.25888">
        <ele>257.2998</ele>
        <time>2026-05-18T08:51:34+02:00</time>
      </trkpt>
      <trkpt lat="48.41341" lon="6.2589">
        <ele>257.2998</ele>
        <time>2026-05-18T08:51:35+02:00</time>
      </trkpt>
      <trkpt lat="48.41345" lon="6.25892">
        <ele>257.4004</ele>
        <time>2026-05-18T08:51:36+02:00</time>
      </trkpt>
      <trkpt lat="48.4135" lon="6.25893">
        <ele>257.6006</ele>
        <time>2026-05-18T08:51:37+02:00</time>
      </trkpt>
      <trkpt lat="48.41355" lon="6.25893">
        <ele>257.7998</ele>
        <time>2026-05-18T08:51:38+02:00</time>
      </trkpt>
      <trkpt lat="48.4136" lon="6.25892">
        <ele>257.9004</ele>
        <time>2026-05-18T08:51:39+02:00</time>
      </trkpt>
      <trkpt lat="48.41365" lon="6.25889">
        <ele>258</ele>
        <time>2026-05-18T08:51:40+02:00</time>
      </trkpt>
      <trkpt lat="48.4137" lon="6.25885">
        <ele>258.2002</ele>
        <time>2026-05-18T08:51:41+02:00</time>
      </trkpt>
      <trkpt lat="48.41374" lon="6.25879">
        <ele>258.2998</ele>
        <time>2026-05-18T08:51:42+02:00</time>
      </trkpt>
      <trkpt lat="48.41377" lon="6.25873">
        <ele>258.5</ele>
        <time>2026-05-18T08:51:43+02:00</time>
      </trkpt>
      <trkpt lat="48.4138" lon="6.25865">
        <ele>258.6006</ele>
        <time>2026-05-18T08:51:44+02:00</time>
      </trkpt>
      <trkpt lat="48.41382" lon="6.25858">
        <ele>258.7002</ele>
        <time>2026-05-18T08:51:45+02:00</time>
      </trkpt>
      <trkpt lat="48.41385" lon="6.2585">
        <ele>258.7002</ele>
        <time>2026-05-18T08:51:46+02:00</time>
      </trkpt>
      <trkpt lat="48.41388" lon="6.25842">
        <ele>258.6006</ele>
        <time>2026-05-18T08:51:47+02:00</time>
      </trkpt>
      <trkpt lat="48.41392" lon="6.25836">
        <ele>258.6006</ele>
        <time>2026-05-18T08:51:48+02:00</time>
      </trkpt>
      <trkpt lat="48.41396" lon="6.25831">
        <ele>258.4004</ele>
        <time>2026-05-18T08:51:49+02:00</time>
      </trkpt>
      <trkpt lat="48.41402" lon="6.25827">
        <ele>258.2998</ele>
        <time>2026-05-18T08:51:50+02:00</time>
      </trkpt>
      <trkpt lat="48.41408" lon="6.25825">
        <ele>258</ele>
        <time>2026-05-18T08:51:51+02:00</time>
      </trkpt>
      <trkpt lat="48.41414" lon="6.25824">
        <ele>257.9004</ele>
        <time>2026-05-18T08:51:52+02:00</time>
      </trkpt>
      <trkpt lat="48.4142" lon="6.25824">
        <ele>257.7998</ele>
        <time>2026-05-18T08:51:53+02:00</time>
      </trkpt>
      <trkpt lat="48.41426" lon="6.25824">
        <ele>257.7998</ele>
        <time>2026-05-18T08:51:54+02:00</time>
      </trkpt>
      <trkpt lat="48.41429" lon="6.25825">
        <ele>257.7998</ele>
        <time>2026-05-18T08:51:55+02:00</time>
      </trkpt>
      <trkpt lat="48.41438" lon="6.25827">
        <ele>258.2998</ele>
        <time>2026-05-18T08:51:56+02:00</time>
      </trkpt>
      <trkpt lat="48.41444" lon="6.25828">
        <ele>258.2998</ele>
        <time>2026-05-18T08:51:57+02:00</time>
      </trkpt>
      <trkpt lat="48.41449" lon="6.25829">
        <ele>258.2998</ele>
        <time>2026-05-18T08:51:58+02:00</time>
      </trkpt>
      <trkpt lat="48.41452" lon="6.25829">
        <ele>258.2998</ele>
        <time>2026-05-18T08:51:59+02:00</time>
      </trkpt>
      <trkpt lat="48.41459" lon="6.25826">
        <ele>258.2998</ele>
        <time>2026-05-18T08:52:00+02:00</time>
      </trkpt>
      <trkpt lat="48.41463" lon="6.25824">
        <ele>257.9004</ele>
        <time>2026-05-18T08:52:01+02:00</time>
      </trkpt>
      <trkpt lat="48.41467" lon="6.25822">
        <ele>257.9004</ele>
        <time>2026-05-18T08:52:02+02:00</time>
      </trkpt>
      <trkpt lat="48.41471" lon="6.25822">
        <ele>257.9004</ele>
        <time>2026-05-18T08:52:03+02:00</time>
      </trkpt>
      <trkpt lat="48.41476" lon="6.25822">
        <ele>257.9004</ele>
        <time>2026-05-18T08:52:04+02:00</time>
      </trkpt>
      <trkpt lat="48.4148" lon="6.25823">
        <ele>257.9004</ele>
        <time>2026-05-18T08:52:05+02:00</time>
      </trkpt>
      <trkpt lat="48.41484" lon="6.25824">
        <ele>257.9004</ele>
        <time>2026-05-18T08:52:06+02:00</time>
      </trkpt>
      <trkpt lat="48.41488" lon="6.25824">
        <ele>257.7998</ele>
        <time>2026-05-18T08:52:07+02:00</time>
      </trkpt>
      <trkpt lat="48.41491" lon="6.25825">
        <ele>257.7002</ele>
        <time>2026-05-18T08:52:08+02:00</time>
      </trkpt>
      <trkpt lat="48.41498" lon="6.25827">
        <ele>257.7998</ele>
        <time>2026-05-18T08:52:09+02:00</time>
      </trkpt>
      <trkpt lat="48.41503" lon="6.25829">
        <ele>257.6006</ele>
        <time>2026-05-18T08:52:10+02:00</time>
      </trkpt>
      <trkpt lat="48.41508" lon="6.2583">
        <ele>257.2998</ele>
        <time>2026-05-18T08:52:11+02:00</time>
      </trkpt>
      <trkpt lat="48.41514" lon="6.25832">
        <ele>257.1006</ele>
        <time>2026-05-18T08:52:12+02:00</time>
      </trkpt>
      <trkpt lat="48.41519" lon="6.25834">
        <ele>257.1006</ele>
        <time>2026-05-18T08:52:13+02:00</time>
      </trkpt>
      <trkpt lat="48.41524" lon="6.25836">
        <ele>257.6006</ele>
        <time>2026-05-18T08:52:14+02:00</time>
      </trkpt>
      <trkpt lat="48.4153" lon="6.25838">
        <ele>257.5</ele>
        <time>2026-05-18T08:52:15+02:00</time>
      </trkpt>
      <trkpt lat="48.41535" lon="6.2584">
        <ele>257.4004</ele>
        <time>2026-05-18T08:52:16+02:00</time>
      </trkpt>
      <trkpt lat="48.4154" lon="6.25842">
        <ele>257.4004</ele>
        <time>2026-05-18T08:52:17+02:00</time>
      </trkpt>
      <trkpt lat="48.41546" lon="6.25844">
        <ele>257.7002</ele>
        <time>2026-05-18T08:52:18+02:00</time>
      </trkpt>
      <trkpt lat="48.41551" lon="6.25846">
        <ele>257.7002</ele>
        <time>2026-05-18T08:52:19+02:00</time>
      </trkpt>
      <trkpt lat="48.41557" lon="6.25848">
        <ele>257.6006</ele>
        <time>2026-05-18T08:52:20+02:00</time>
      </trkpt>
      <trkpt lat="48.41562" lon="6.2585">
        <ele>257.5</ele>
        <time>2026-05-18T08:52:21+02:00</time>
      </trkpt>
      <trkpt lat="48.41567" lon="6.25852">
        <ele>257.6006</ele>
        <time>2026-05-18T08:52:22+02:00</time>
      </trkpt>
      <trkpt lat="48.41572" lon="6.25854">
        <ele>257.4004</ele>
        <time>2026-05-18T08:52:23+02:00</time>
      </trkpt>
      <trkpt lat="48.41577" lon="6.25855">
        <ele>257.2002</ele>
        <time>2026-05-18T08:52:24+02:00</time>
      </trkpt>
      <trkpt lat="48.41582" lon="6.25858">
        <ele>257.1006</ele>
        <time>2026-05-18T08:52:25+02:00</time>
      </trkpt>
      <trkpt lat="48.41588" lon="6.2586">
        <ele>257</ele>
        <time>2026-05-18T08:52:26+02:00</time>
      </trkpt>
      <trkpt lat="48.41593" lon="6.25863">
        <ele>257.6006</ele>
        <time>2026-05-18T08:52:27+02:00</time>
      </trkpt>
      <trkpt lat="48.41598" lon="6.25865">
        <ele>257.6006</ele>
        <time>2026-05-18T08:52:28+02:00</time>
      </trkpt>
      <trkpt lat="48.41604" lon="6.25868">
        <ele>257.5</ele>
        <time>2026-05-18T08:52:29+02:00</time>
      </trkpt>
      <trkpt lat="48.41609" lon="6.2587">
        <ele>257.9004</ele>
        <time>2026-05-18T08:52:30+02:00</time>
      </trkpt>
      <trkpt lat="48.41614" lon="6.25872">
        <ele>257.9004</ele>
        <time>2026-05-18T08:52:31+02:00</time>
      </trkpt>
      <trkpt lat="48.41619" lon="6.25874">
        <ele>257.7998</ele>
        <time>2026-05-18T08:52:32+02:00</time>
      </trkpt>
      <trkpt lat="48.41625" lon="6.25877">
        <ele>257.7002</ele>
        <time>2026-05-18T08:52:33+02:00</time>
      </trkpt>
      <trkpt lat="48.4163" lon="6.25879">
        <ele>257.9004</ele>
        <time>2026-05-18T08:52:34+02:00</time>
      </trkpt>
      <trkpt lat="48.41635" lon="6.25882">
        <ele>257.7002</ele>
        <time>2026-05-18T08:52:35+02:00</time>
      </trkpt>
      <trkpt lat="48.4164" lon="6.25885">
        <ele>257.4004</ele>
        <time>2026-05-18T08:52:36+02:00</time>
      </trkpt>
      <trkpt lat="48.41646" lon="6.25888">
        <ele>257.7002</ele>
        <time>2026-05-18T08:52:37+02:00</time>
      </trkpt>
      <trkpt lat="48.41651" lon="6.25891">
        <ele>257.5</ele>
        <time>2026-05-18T08:52:38+02:00</time>
      </trkpt>
      <trkpt lat="48.41657" lon="6.25894">
        <ele>257.4004</ele>
        <time>2026-05-18T08:52:39+02:00</time>
      </trkpt>
      <trkpt lat="48.41663" lon="6.25897">
        <ele>257.7002</ele>
        <time>2026-05-18T08:52:40+02:00</time>
      </trkpt>
      <trkpt lat="48.41668" lon="6.25901">
        <ele>257.5</ele>
        <time>2026-05-18T08:52:41+02:00</time>
      </trkpt>
      <trkpt lat="48.41673" lon="6.25903">
        <ele>257.4004</ele>
        <time>2026-05-18T08:52:42+02:00</time>
      </trkpt>
      <trkpt lat="48.41679" lon="6.25906">
        <ele>257.7002</ele>
        <time>2026-05-18T08:52:43+02:00</time>
      </trkpt>
      <trkpt lat="48.41683" lon="6.25908">
        <ele>257.7002</ele>
        <time>2026-05-18T08:52:44+02:00</time>
      </trkpt>
      <trkpt lat="48.41689" lon="6.25911">
        <ele>257.7002</ele>
        <time>2026-05-18T08:52:45+02:00</time>
      </trkpt>
      <trkpt lat="48.41693" lon="6.25913">
        <ele>257.9004</ele>
        <time>2026-05-18T08:52:46+02:00</time>
      </trkpt>
      <trkpt lat="48.41698" lon="6.25916">
        <ele>257.7002</ele>
        <time>2026-05-18T08:52:47+02:00</time>
      </trkpt>
      <trkpt lat="48.41703" lon="6.25919">
        <ele>257.5</ele>
        <time>2026-05-18T08:52:48+02:00</time>
      </trkpt>
      <trkpt lat="48.41709" lon="6.25922">
        <ele>257.5</ele>
        <time>2026-05-18T08:52:49+02:00</time>
      </trkpt>
      <trkpt lat="48.41714" lon="6.25925">
        <ele>257.4004</ele>
        <time>2026-05-18T08:52:50+02:00</time>
      </trkpt>
      <trkpt lat="48.4172" lon="6.25929">
        <ele>257.5</ele>
        <time>2026-05-18T08:52:51+02:00</time>
      </trkpt>
      <trkpt lat="48.41726" lon="6.25932">
        <ele>257.4004</ele>
        <time>2026-05-18T08:52:52+02:00</time>
      </trkpt>
      <trkpt lat="48.41732" lon="6.25936">
        <ele>257.4004</ele>
        <time>2026-05-18T08:52:53+02:00</time>
      </trkpt>
      <trkpt lat="48.41737" lon="6.25939">
        <ele>257.6006</ele>
        <time>2026-05-18T08:52:54+02:00</time>
      </trkpt>
      <trkpt lat="48.41742" lon="6.25941">
        <ele>257.6006</ele>
        <time>2026-05-18T08:52:55+02:00</time>
      </trkpt>
      <trkpt lat="48.41747" lon="6.25944">
        <ele>257.6006</ele>
        <time>2026-05-18T08:52:56+02:00</time>
      </trkpt>
      <trkpt lat="48.41752" lon="6.25947">
        <ele>257.9004</ele>
        <time>2026-05-18T08:52:57+02:00</time>
      </trkpt>
      <trkpt lat="48.41758" lon="6.25951">
        <ele>257.9004</ele>
        <time>2026-05-18T08:52:58+02:00</time>
      </trkpt>
      <trkpt lat="48.41764" lon="6.25954">
        <ele>257.7998</ele>
        <time>2026-05-18T08:52:59+02:00</time>
      </trkpt>
      <trkpt lat="48.4177" lon="6.25957">
        <ele>257.9004</ele>
        <time>2026-05-18T08:53:00+02:00</time>
      </trkpt>
      <trkpt lat="48.41775" lon="6.2596">
        <ele>257.9004</ele>
        <time>2026-05-18T08:53:01+02:00</time>
      </trkpt>
      <trkpt lat="48.4178" lon="6.25962">
        <ele>257.9004</ele>
        <time>2026-05-18T08:53:02+02:00</time>
      </trkpt>
      <trkpt lat="48.41785" lon="6.25965">
        <ele>258.2998</ele>
        <time>2026-05-18T08:53:03+02:00</time>
      </trkpt>
      <trkpt lat="48.41791" lon="6.25968">
        <ele>258.2998</ele>
        <time>2026-05-18T08:53:04+02:00</time>
      </trkpt>
      <trkpt lat="48.41796" lon="6.2597">
        <ele>258.2998</ele>
        <time>2026-05-18T08:53:05+02:00</time>
      </trkpt>
      <trkpt lat="48.41802" lon="6.25973">
        <ele>258.6006</ele>
        <time>2026-05-18T08:53:06+02:00</time>
      </trkpt>
      <trkpt lat="48.41804" lon="6.25974">
        <ele>258.4004</ele>
        <time>2026-05-18T08:53:07+02:00</time>
      </trkpt>
      <trkpt lat="48.41812" lon="6.25978">
        <ele>258.2998</ele>
        <time>2026-05-18T08:53:08+02:00</time>
      </trkpt>
      <trkpt lat="48.41816" lon="6.25981">
        <ele>258.5</ele>
        <time>2026-05-18T08:53:09+02:00</time>
      </trkpt>
      <trkpt lat="48.41821" lon="6.25984">
        <ele>258.4004</ele>
        <time>2026-05-18T08:53:10+02:00</time>
      </trkpt>
      <trkpt lat="48.41826" lon="6.25986">
        <ele>258.4004</ele>
        <time>2026-05-18T08:53:11+02:00</time>
      </trkpt>
      <trkpt lat="48.41831" lon="6.25989">
        <ele>258.9004</ele>
        <time>2026-05-18T08:53:12+02:00</time>
      </trkpt>
      <trkpt lat="48.41836" lon="6.25992">
        <ele>258.7998</ele>
        <time>2026-05-18T08:53:13+02:00</time>
      </trkpt>
      <trkpt lat="48.41841" lon="6.25994">
        <ele>258.7998</ele>
        <time>2026-05-18T08:53:14+02:00</time>
      </trkpt>
      <trkpt lat="48.41846" lon="6.25997">
        <ele>258.6006</ele>
        <time>2026-05-18T08:53:15+02:00</time>
      </trkpt>
      <trkpt lat="48.41851" lon="6.26">
        <ele>258.9004</ele>
        <time>2026-05-18T08:53:16+02:00</time>
      </trkpt>
      <trkpt lat="48.41857" lon="6.26003">
        <ele>258.6006</ele>
        <time>2026-05-18T08:53:17+02:00</time>
      </trkpt>
      <trkpt lat="48.41861" lon="6.26006">
        <ele>258.2998</ele>
        <time>2026-05-18T08:53:18+02:00</time>
      </trkpt>
      <trkpt lat="48.41867" lon="6.26008">
        <ele>258.6006</ele>
        <time>2026-05-18T08:53:19+02:00</time>
      </trkpt>
      <trkpt lat="48.41873" lon="6.26011">
        <ele>258.5</ele>
        <time>2026-05-18T08:53:20+02:00</time>
      </trkpt>
      <trkpt lat="48.41877" lon="6.26014">
        <ele>258.5</ele>
        <time>2026-05-18T08:53:21+02:00</time>
      </trkpt>
      <trkpt lat="48.41883" lon="6.26017">
        <ele>259.1006</ele>
        <time>2026-05-18T08:53:22+02:00</time>
      </trkpt>
      <trkpt lat="48.41889" lon="6.26021">
        <ele>259</ele>
        <time>2026-05-18T08:53:23+02:00</time>
      </trkpt>
      <trkpt lat="48.41894" lon="6.26024">
        <ele>259.7002</ele>
        <time>2026-05-18T08:53:24+02:00</time>
      </trkpt>
      <trkpt lat="48.41899" lon="6.26027">
        <ele>259.7002</ele>
        <time>2026-05-18T08:53:25+02:00</time>
      </trkpt>
      <trkpt lat="48.41905" lon="6.2603">
        <ele>259.7002</ele>
        <time>2026-05-18T08:53:26+02:00</time>
      </trkpt>
      <trkpt lat="48.41911" lon="6.26033">
        <ele>260.4004</ele>
        <time>2026-05-18T08:53:27+02:00</time>
      </trkpt>
      <trkpt lat="48.41916" lon="6.26036">
        <ele>260.2998</ele>
        <time>2026-05-18T08:53:28+02:00</time>
      </trkpt>
      <trkpt lat="48.41921" lon="6.26039">
        <ele>260</ele>
        <time>2026-05-18T08:53:29+02:00</time>
      </trkpt>
      <trkpt lat="48.41926" lon="6.26041">
        <ele>260.2998</ele>
        <time>2026-05-18T08:53:30+02:00</time>
      </trkpt>
      <trkpt lat="48.41931" lon="6.26044">
        <ele>260</ele>
        <time>2026-05-18T08:53:31+02:00</time>
      </trkpt>
      <trkpt lat="48.41936" lon="6.26046">
        <ele>259.7998</ele>
        <time>2026-05-18T08:53:32+02:00</time>
      </trkpt>
      <trkpt lat="48.41941" lon="6.26049">
        <ele>259.7002</ele>
        <time>2026-05-18T08:53:33+02:00</time>
      </trkpt>
      <trkpt lat="48.41946" lon="6.26052">
        <ele>260.2002</ele>
        <time>2026-05-18T08:53:34+02:00</time>
      </trkpt>
      <trkpt lat="48.41952" lon="6.26055">
        <ele>259.9004</ele>
        <time>2026-05-18T08:53:35+02:00</time>
      </trkpt>
      <trkpt lat="48.41957" lon="6.26058">
        <ele>260.4004</ele>
        <time>2026-05-18T08:53:36+02:00</time>
      </trkpt>
      <trkpt lat="48.41962" lon="6.26061">
        <ele>260</ele>
        <time>2026-05-18T08:53:37+02:00</time>
      </trkpt>
      <trkpt lat="48.41967" lon="6.26063">
        <ele>259.6006</ele>
        <time>2026-05-18T08:53:38+02:00</time>
      </trkpt>
      <trkpt lat="48.41972" lon="6.26066">
        <ele>259.1006</ele>
        <time>2026-05-18T08:53:39+02:00</time>
      </trkpt>
      <trkpt lat="48.41977" lon="6.26069">
        <ele>259.1006</ele>
        <time>2026-05-18T08:53:40+02:00</time>
      </trkpt>
      <trkpt lat="48.41983" lon="6.26072">
        <ele>258.7998</ele>
        <time>2026-05-18T08:53:41+02:00</time>
      </trkpt>
      <trkpt lat="48.41988" lon="6.26074">
        <ele>258.5</ele>
        <time>2026-05-18T08:53:42+02:00</time>
      </trkpt>
      <trkpt lat="48.41993" lon="6.26077">
        <ele>258.7002</ele>
        <time>2026-05-18T08:53:43+02:00</time>
      </trkpt>
      <trkpt lat="48.41998" lon="6.2608">
        <ele>258.4004</ele>
        <time>2026-05-18T08:53:44+02:00</time>
      </trkpt>
      <trkpt lat="48.42004" lon="6.26083">
        <ele>258.1006</ele>
        <time>2026-05-18T08:53:45+02:00</time>
      </trkpt>
      <trkpt lat="48.42009" lon="6.26086">
        <ele>258.2002</ele>
        <time>2026-05-18T08:53:46+02:00</time>
      </trkpt>
      <trkpt lat="48.42014" lon="6.26089">
        <ele>258.2002</ele>
        <time>2026-05-18T08:53:47+02:00</time>
      </trkpt>
      <trkpt lat="48.4202" lon="6.26092">
        <ele>258.2002</ele>
        <time>2026-05-18T08:53:48+02:00</time>
      </trkpt>
      <trkpt lat="48.42026" lon="6.26095">
        <ele>257.7998</ele>
        <time>2026-05-18T08:53:49+02:00</time>
      </trkpt>
      <trkpt lat="48.42031" lon="6.26099">
        <ele>257.7998</ele>
        <time>2026-05-18T08:53:50+02:00</time>
      </trkpt>
      <trkpt lat="48.42038" lon="6.26103">
        <ele>257.6006</ele>
        <time>2026-05-18T08:53:51+02:00</time>
      </trkpt>
      <trkpt lat="48.42043" lon="6.26106">
        <ele>257.4004</ele>
        <time>2026-05-18T08:53:52+02:00</time>
      </trkpt>
      <trkpt lat="48.4205" lon="6.2611">
        <ele>257.2002</ele>
        <time>2026-05-18T08:53:53+02:00</time>
      </trkpt>
      <trkpt lat="48.42055" lon="6.26113">
        <ele>257.1006</ele>
        <time>2026-05-18T08:53:54+02:00</time>
      </trkpt>
      <trkpt lat="48.42061" lon="6.26117">
        <ele>257</ele>
        <time>2026-05-18T08:53:55+02:00</time>
      </trkpt>
      <trkpt lat="48.42066" lon="6.26119">
        <ele>256.9004</ele>
        <time>2026-05-18T08:53:56+02:00</time>
      </trkpt>
      <trkpt lat="48.42072" lon="6.26122">
        <ele>256.9004</ele>
        <time>2026-05-18T08:53:57+02:00</time>
      </trkpt>
      <trkpt lat="48.42075" lon="6.26122">
        <ele>256.9004</ele>
        <time>2026-05-18T08:53:58+02:00</time>
      </trkpt>
      <trkpt lat="48.42083" lon="6.26125">
        <ele>256.7002</ele>
        <time>2026-05-18T08:53:59+02:00</time>
      </trkpt>
      <trkpt lat="48.42089" lon="6.26128">
        <ele>256.7998</ele>
        <time>2026-05-18T08:54:00+02:00</time>
      </trkpt>
      <trkpt lat="48.42094" lon="6.26131">
        <ele>256.7998</ele>
        <time>2026-05-18T08:54:01+02:00</time>
      </trkpt>
      <trkpt lat="48.42099" lon="6.26135">
        <ele>256.7998</ele>
        <time>2026-05-18T08:54:02+02:00</time>
      </trkpt>
      <trkpt lat="48.42104" lon="6.2614">
        <ele>256.7002</ele>
        <time>2026-05-18T08:54:03+02:00</time>
      </trkpt>
      <trkpt lat="48.42109" lon="6.26145">
        <ele>256.6006</ele>
        <time>2026-05-18T08:54:04+02:00</time>
      </trkpt>
      <trkpt lat="48.42114" lon="6.26149">
        <ele>256.6006</ele>
        <time>2026-05-18T08:54:05+02:00</time>
      </trkpt>
      <trkpt lat="48.42119" lon="6.26153">
        <ele>256.7002</ele>
        <time>2026-05-18T08:54:06+02:00</time>
      </trkpt>
      <trkpt lat="48.42123" lon="6.26156">
        <ele>256.7002</ele>
        <time>2026-05-18T08:54:07+02:00</time>
      </trkpt>
      <trkpt lat="48.42128" lon="6.26158">
        <ele>256.7002</ele>
        <time>2026-05-18T08:54:08+02:00</time>
      </trkpt>
      <trkpt lat="48.42133" lon="6.26161">
        <ele>256.9004</ele>
        <time>2026-05-18T08:54:09+02:00</time>
      </trkpt>
      <trkpt lat="48.42138" lon="6.26164">
        <ele>257</ele>
        <time>2026-05-18T08:54:10+02:00</time>
      </trkpt>
      <trkpt lat="48.42143" lon="6.26168">
        <ele>257</ele>
        <time>2026-05-18T08:54:11+02:00</time>
      </trkpt>
      <trkpt lat="48.42149" lon="6.26171">
        <ele>257.1006</ele>
        <time>2026-05-18T08:54:12+02:00</time>
      </trkpt>
      <trkpt lat="48.42156" lon="6.26174">
        <ele>257.2002</ele>
        <time>2026-05-18T08:54:13+02:00</time>
      </trkpt>
      <trkpt lat="48.42162" lon="6.26176">
        <ele>257.2002</ele>
        <time>2026-05-18T08:54:14+02:00</time>
      </trkpt>
      <trkpt lat="48.42168" lon="6.26178">
        <ele>257.4004</ele>
        <time>2026-05-18T08:54:15+02:00</time>
      </trkpt>
      <trkpt lat="48.42174" lon="6.2618">
        <ele>257.6006</ele>
        <time>2026-05-18T08:54:16+02:00</time>
      </trkpt>
      <trkpt lat="48.4218" lon="6.26184">
        <ele>257.6006</ele>
        <time>2026-05-18T08:54:17+02:00</time>
      </trkpt>
      <trkpt lat="48.42186" lon="6.26188">
        <ele>257.9004</ele>
        <time>2026-05-18T08:54:18+02:00</time>
      </trkpt>
      <trkpt lat="48.42193" lon="6.26191">
        <ele>257.7998</ele>
        <time>2026-05-18T08:54:19+02:00</time>
      </trkpt>
      <trkpt lat="48.42199" lon="6.26195">
        <ele>258</ele>
        <time>2026-05-18T08:54:20+02:00</time>
      </trkpt>
      <trkpt lat="48.42205" lon="6.26198">
        <ele>257.9004</ele>
        <time>2026-05-18T08:54:21+02:00</time>
      </trkpt>
      <trkpt lat="48.4221" lon="6.26201">
        <ele>257.9004</ele>
        <time>2026-05-18T08:54:22+02:00</time>
      </trkpt>
      <trkpt lat="48.42216" lon="6.26204">
        <ele>258.2998</ele>
        <time>2026-05-18T08:54:23+02:00</time>
      </trkpt>
      <trkpt lat="48.42222" lon="6.26207">
        <ele>258.2998</ele>
        <time>2026-05-18T08:54:24+02:00</time>
      </trkpt>
      <trkpt lat="48.42227" lon="6.2621">
        <ele>258.4004</ele>
        <time>2026-05-18T08:54:25+02:00</time>
      </trkpt>
      <trkpt lat="48.42233" lon="6.26212">
        <ele>258.4004</ele>
        <time>2026-05-18T08:54:26+02:00</time>
      </trkpt>
      <trkpt lat="48.42238" lon="6.26215">
        <ele>258.9004</ele>
        <time>2026-05-18T08:54:27+02:00</time>
      </trkpt>
      <trkpt lat="48.42244" lon="6.26218">
        <ele>258.9004</ele>
        <time>2026-05-18T08:54:28+02:00</time>
      </trkpt>
      <trkpt lat="48.42249" lon="6.26221">
        <ele>259.2998</ele>
        <time>2026-05-18T08:54:29+02:00</time>
      </trkpt>
      <trkpt lat="48.42255" lon="6.26224">
        <ele>259.2002</ele>
        <time>2026-05-18T08:54:30+02:00</time>
      </trkpt>
      <trkpt lat="48.4226" lon="6.26227">
        <ele>259</ele>
        <time>2026-05-18T08:54:31+02:00</time>
      </trkpt>
      <trkpt lat="48.42266" lon="6.26231">
        <ele>258.9004</ele>
        <time>2026-05-18T08:54:32+02:00</time>
      </trkpt>
      <trkpt lat="48.42272" lon="6.26234">
        <ele>258.7002</ele>
        <time>2026-05-18T08:54:33+02:00</time>
      </trkpt>
      <trkpt lat="48.42277" lon="6.26237">
        <ele>258.6006</ele>
        <time>2026-05-18T08:54:34+02:00</time>
      </trkpt>
      <trkpt lat="48.42282" lon="6.2624">
        <ele>258.7998</ele>
        <time>2026-05-18T08:54:35+02:00</time>
      </trkpt>
      <trkpt lat="48.42286" lon="6.26243">
        <ele>258.7998</ele>
        <time>2026-05-18T08:54:36+02:00</time>
      </trkpt>
      <trkpt lat="48.42292" lon="6.26245">
        <ele>258.7002</ele>
        <time>2026-05-18T08:54:37+02:00</time>
      </trkpt>
      <trkpt lat="48.42297" lon="6.26248">
        <ele>258.7998</ele>
        <time>2026-05-18T08:54:38+02:00</time>
      </trkpt>
      <trkpt lat="48.42302" lon="6.26251">
        <ele>258.7002</ele>
        <time>2026-05-18T08:54:39+02:00</time>
      </trkpt>
      <trkpt lat="48.42308" lon="6.26254">
        <ele>258.4004</ele>
        <time>2026-05-18T08:54:40+02:00</time>
      </trkpt>
      <trkpt lat="48.42313" lon="6.26257">
        <ele>258.2998</ele>
        <time>2026-05-18T08:54:41+02:00</time>
      </trkpt>
      <trkpt lat="48.42318" lon="6.2626">
        <ele>258.1006</ele>
        <time>2026-05-18T08:54:42+02:00</time>
      </trkpt>
      <trkpt lat="48.42324" lon="6.26263">
        <ele>258</ele>
        <time>2026-05-18T08:54:43+02:00</time>
      </trkpt>
      <trkpt lat="48.42329" lon="6.26266">
        <ele>258.1006</ele>
        <time>2026-05-18T08:54:44+02:00</time>
      </trkpt>
      <trkpt lat="48.42335" lon="6.26269">
        <ele>258</ele>
        <time>2026-05-18T08:54:45+02:00</time>
      </trkpt>
      <trkpt lat="48.4234" lon="6.26272">
        <ele>258</ele>
        <time>2026-05-18T08:54:46+02:00</time>
      </trkpt>
      <trkpt lat="48.42346" lon="6.26274">
        <ele>258.1006</ele>
        <time>2026-05-18T08:54:47+02:00</time>
      </trkpt>
      <trkpt lat="48.42351" lon="6.26277">
        <ele>257.9004</ele>
        <time>2026-05-18T08:54:48+02:00</time>
      </trkpt>
      <trkpt lat="48.42356" lon="6.2628">
        <ele>257.9004</ele>
        <time>2026-05-18T08:54:49+02:00</time>
      </trkpt>
      <trkpt lat="48.42362" lon="6.26283">
        <ele>257.9004</ele>
        <time>2026-05-18T08:54:50+02:00</time>
      </trkpt>
      <trkpt lat="48.42367" lon="6.26286">
        <ele>257.7002</ele>
        <time>2026-05-18T08:54:51+02:00</time>
      </trkpt>
      <trkpt lat="48.42372" lon="6.26289">
        <ele>257.6006</ele>
        <time>2026-05-18T08:54:52+02:00</time>
      </trkpt>
      <trkpt lat="48.42378" lon="6.26292">
        <ele>257.7002</ele>
        <time>2026-05-18T08:54:53+02:00</time>
      </trkpt>
      <trkpt lat="48.42383" lon="6.26295">
        <ele>257.6006</ele>
        <time>2026-05-18T08:54:54+02:00</time>
      </trkpt>
      <trkpt lat="48.42388" lon="6.26298">
        <ele>257.7998</ele>
        <time>2026-05-18T08:54:55+02:00</time>
      </trkpt>
      <trkpt lat="48.42393" lon="6.26301">
        <ele>257.7002</ele>
        <time>2026-05-18T08:54:56+02:00</time>
      </trkpt>
      <trkpt lat="48.42399" lon="6.26304">
        <ele>257.6006</ele>
        <time>2026-05-18T08:54:57+02:00</time>
      </trkpt>
      <trkpt lat="48.42405" lon="6.26307">
        <ele>257.5</ele>
        <time>2026-05-18T08:54:58+02:00</time>
      </trkpt>
      <trkpt lat="48.4241" lon="6.2631">
        <ele>257.4004</ele>
        <time>2026-05-18T08:54:59+02:00</time>
      </trkpt>
      <trkpt lat="48.42415" lon="6.26313">
        <ele>257.2002</ele>
        <time>2026-05-18T08:55:00+02:00</time>
      </trkpt>
      <trkpt lat="48.4242" lon="6.26316">
        <ele>257.2998</ele>
        <time>2026-05-18T08:55:01+02:00</time>
      </trkpt>
      <trkpt lat="48.42425" lon="6.26319">
        <ele>257.2002</ele>
        <time>2026-05-18T08:55:02+02:00</time>
      </trkpt>
      <trkpt lat="48.42431" lon="6.26322">
        <ele>257.1006</ele>
        <time>2026-05-18T08:55:03+02:00</time>
      </trkpt>
      <trkpt lat="48.42436" lon="6.26325">
        <ele>257.2998</ele>
        <time>2026-05-18T08:55:04+02:00</time>
      </trkpt>
      <trkpt lat="48.42441" lon="6.26328">
        <ele>257.2998</ele>
        <time>2026-05-18T08:55:05+02:00</time>
      </trkpt>
      <trkpt lat="48.42447" lon="6.26332">
        <ele>257.2002</ele>
        <time>2026-05-18T08:55:06+02:00</time>
      </trkpt>
      <trkpt lat="48.42453" lon="6.26335">
        <ele>257.2002</ele>
        <time>2026-05-18T08:55:07+02:00</time>
      </trkpt>
      <trkpt lat="48.42458" lon="6.26338">
        <ele>257</ele>
        <time>2026-05-18T08:55:08+02:00</time>
      </trkpt>
      <trkpt lat="48.42463" lon="6.2634">
        <ele>256.9004</ele>
        <time>2026-05-18T08:55:09+02:00</time>
      </trkpt>
      <trkpt lat="48.42468" lon="6.26343">
        <ele>256.9004</ele>
        <time>2026-05-18T08:55:10+02:00</time>
      </trkpt>
      <trkpt lat="48.42473" lon="6.26346">
        <ele>256.7998</ele>
        <time>2026-05-18T08:55:11+02:00</time>
      </trkpt>
      <trkpt lat="48.42479" lon="6.26349">
        <ele>256.7998</ele>
        <time>2026-05-18T08:55:12+02:00</time>
      </trkpt>
      <trkpt lat="48.42484" lon="6.26352">
        <ele>256.7998</ele>
        <time>2026-05-18T08:55:13+02:00</time>
      </trkpt>
      <trkpt lat="48.42488" lon="6.26356">
        <ele>256.7998</ele>
        <time>2026-05-18T08:55:14+02:00</time>
      </trkpt>
      <trkpt lat="48.42493" lon="6.26358">
        <ele>256.7998</ele>
        <time>2026-05-18T08:55:15+02:00</time>
      </trkpt>
      <trkpt lat="48.42499" lon="6.26362">
        <ele>256.7002</ele>
        <time>2026-05-18T08:55:16+02:00</time>
      </trkpt>
      <trkpt lat="48.42504" lon="6.26366">
        <ele>256.7002</ele>
        <time>2026-05-18T08:55:17+02:00</time>
      </trkpt>
      <trkpt lat="48.4251" lon="6.26369">
        <ele>256.6006</ele>
        <time>2026-05-18T08:55:18+02:00</time>
      </trkpt>
      <trkpt lat="48.42515" lon="6.26374">
        <ele>256.5</ele>
        <time>2026-05-18T08:55:19+02:00</time>
      </trkpt>
      <trkpt lat="48.4252" lon="6.26377">
        <ele>256.5</ele>
        <time>2026-05-18T08:55:20+02:00</time>
      </trkpt>
      <trkpt lat="48.42525" lon="6.2638">
        <ele>256.5</ele>
        <time>2026-05-18T08:55:21+02:00</time>
      </trkpt>
      <trkpt lat="48.4253" lon="6.26384">
        <ele>256.5</ele>
        <time>2026-05-18T08:55:22+02:00</time>
      </trkpt>
      <trkpt lat="48.42535" lon="6.26387">
        <ele>256.6006</ele>
        <time>2026-05-18T08:55:23+02:00</time>
      </trkpt>
      <trkpt lat="48.4254" lon="6.26391">
        <ele>256.6006</ele>
        <time>2026-05-18T08:55:24+02:00</time>
      </trkpt>
      <trkpt lat="48.42545" lon="6.26394">
        <ele>256.5</ele>
        <time>2026-05-18T08:55:25+02:00</time>
      </trkpt>
      <trkpt lat="48.4255" lon="6.26398">
        <ele>256.4004</ele>
        <time>2026-05-18T08:55:26+02:00</time>
      </trkpt>
      <trkpt lat="48.42555" lon="6.26402">
        <ele>256.2998</ele>
        <time>2026-05-18T08:55:27+02:00</time>
      </trkpt>
      <trkpt lat="48.4256" lon="6.26405">
        <ele>256.2998</ele>
        <time>2026-05-18T08:55:28+02:00</time>
      </trkpt>
      <trkpt lat="48.42565" lon="6.26408">
        <ele>256.2002</ele>
        <time>2026-05-18T08:55:29+02:00</time>
      </trkpt>
      <trkpt lat="48.4257" lon="6.26412">
        <ele>256.1006</ele>
        <time>2026-05-18T08:55:30+02:00</time>
      </trkpt>
      <trkpt lat="48.42575" lon="6.26416">
        <ele>255.90039</ele>
        <time>2026-05-18T08:55:31+02:00</time>
      </trkpt>
      <trkpt lat="48.4258" lon="6.2642">
        <ele>255.90039</ele>
        <time>2026-05-18T08:55:32+02:00</time>
      </trkpt>
      <trkpt lat="48.42585" lon="6.26424">
        <ele>255.7002</ele>
        <time>2026-05-18T08:55:33+02:00</time>
      </trkpt>
      <trkpt lat="48.4259" lon="6.26428">
        <ele>256</ele>
        <time>2026-05-18T08:55:34+02:00</time>
      </trkpt>
      <trkpt lat="48.42595" lon="6.26431">
        <ele>256</ele>
        <time>2026-05-18T08:55:35+02:00</time>
      </trkpt>
      <trkpt lat="48.426" lon="6.26435">
        <ele>256</ele>
        <time>2026-05-18T08:55:36+02:00</time>
      </trkpt>
      <trkpt lat="48.42605" lon="6.26439">
        <ele>256.2002</ele>
        <time>2026-05-18T08:55:37+02:00</time>
      </trkpt>
      <trkpt lat="48.4261" lon="6.26443">
        <ele>256.1006</ele>
        <time>2026-05-18T08:55:38+02:00</time>
      </trkpt>
      <trkpt lat="48.42614" lon="6.26447">
        <ele>256.1006</ele>
        <time>2026-05-18T08:55:39+02:00</time>
      </trkpt>
      <trkpt lat="48.42619" lon="6.26451">
        <ele>255.90039</ele>
        <time>2026-05-18T08:55:40+02:00</time>
      </trkpt>
      <trkpt lat="48.42624" lon="6.26455">
        <ele>256</ele>
        <time>2026-05-18T08:55:41+02:00</time>
      </trkpt>
      <trkpt lat="48.42629" lon="6.26458">
        <ele>256</ele>
        <time>2026-05-18T08:55:42+02:00</time>
      </trkpt>
      <trkpt lat="48.42634" lon="6.26462">
        <ele>256.2002</ele>
        <time>2026-05-18T08:55:43+02:00</time>
      </trkpt>
      <trkpt lat="48.42638" lon="6.26466">
        <ele>256.2002</ele>
        <time>2026-05-18T08:55:44+02:00</time>
      </trkpt>
      <trkpt lat="48.42643" lon="6.2647">
        <ele>256.2998</ele>
        <time>2026-05-18T08:55:45+02:00</time>
      </trkpt>
      <trkpt lat="48.42648" lon="6.26474">
        <ele>256.2998</ele>
        <time>2026-05-18T08:55:46+02:00</time>
      </trkpt>
      <trkpt lat="48.42653" lon="6.26478">
        <ele>256.1006</ele>
        <time>2026-05-18T08:55:47+02:00</time>
      </trkpt>
      <trkpt lat="48.42658" lon="6.26482">
        <ele>256.2002</ele>
        <time>2026-05-18T08:55:48+02:00</time>
      </trkpt>
      <trkpt lat="48.42663" lon="6.26487">
        <ele>255.90039</ele>
        <time>2026-05-18T08:55:49+02:00</time>
      </trkpt>
      <trkpt lat="48.42668" lon="6.26491">
        <ele>255.7002</ele>
        <time>2026-05-18T08:55:50+02:00</time>
      </trkpt>
      <trkpt lat="48.42672" lon="6.26495">
        <ele>255.40039</ele>
        <time>2026-05-18T08:55:51+02:00</time>
      </trkpt>
      <trkpt lat="48.42677" lon="6.265">
        <ele>255.10059</ele>
        <time>2026-05-18T08:55:52+02:00</time>
      </trkpt>
      <trkpt lat="48.42683" lon="6.26504">
        <ele>254.40039</ele>
        <time>2026-05-18T08:55:53+02:00</time>
      </trkpt>
      <trkpt lat="48.42688" lon="6.26509">
        <ele>254.2002</ele>
        <time>2026-05-18T08:55:54+02:00</time>
      </trkpt>
      <trkpt lat="48.42693" lon="6.26512">
        <ele>254.10059</ele>
        <time>2026-05-18T08:55:55+02:00</time>
      </trkpt>
      <trkpt lat="48.42697" lon="6.26517">
        <ele>253.2998</ele>
        <time>2026-05-18T08:55:56+02:00</time>
      </trkpt>
      <trkpt lat="48.42702" lon="6.26521">
        <ele>253.2998</ele>
        <time>2026-05-18T08:55:57+02:00</time>
      </trkpt>
      <trkpt lat="48.42705" lon="6.26523">
        <ele>252.7002</ele>
        <time>2026-05-18T08:55:58+02:00</time>
      </trkpt>
      <trkpt lat="48.42712" lon="6.2653">
        <ele>252.40039</ele>
        <time>2026-05-18T08:55:59+02:00</time>
      </trkpt>
      <trkpt lat="48.42717" lon="6.26534">
        <ele>252.40039</ele>
        <time>2026-05-18T08:56:00+02:00</time>
      </trkpt>
      <trkpt lat="48.42722" lon="6.26538">
        <ele>252.2998</ele>
        <time>2026-05-18T08:56:01+02:00</time>
      </trkpt>
      <trkpt lat="48.42727" lon="6.26543">
        <ele>252.2998</ele>
        <time>2026-05-18T08:56:02+02:00</time>
      </trkpt>
      <trkpt lat="48.42732" lon="6.26547">
        <ele>252.2998</ele>
        <time>2026-05-18T08:56:03+02:00</time>
      </trkpt>
      <trkpt lat="48.42736" lon="6.26551">
        <ele>252.40039</ele>
        <time>2026-05-18T08:56:04+02:00</time>
      </trkpt>
      <trkpt lat="48.42741" lon="6.26555">
        <ele>252.5</ele>
        <time>2026-05-18T08:56:05+02:00</time>
      </trkpt>
      <trkpt lat="48.42745" lon="6.26559">
        <ele>252.5</ele>
        <time>2026-05-18T08:56:06+02:00</time>
      </trkpt>
      <trkpt lat="48.42749" lon="6.26563">
        <ele>252.5</ele>
        <time>2026-05-18T08:56:07+02:00</time>
      </trkpt>
      <trkpt lat="48.42753" lon="6.26567">
        <ele>252.5</ele>
        <time>2026-05-18T08:56:08+02:00</time>
      </trkpt>
      <trkpt lat="48.42758" lon="6.26571">
        <ele>252.40039</ele>
        <time>2026-05-18T08:56:09+02:00</time>
      </trkpt>
      <trkpt lat="48.42763" lon="6.26575">
        <ele>252.2002</ele>
        <time>2026-05-18T08:56:10+02:00</time>
      </trkpt>
      <trkpt lat="48.42766" lon="6.26578">
        <ele>252.2002</ele>
        <time>2026-05-18T08:56:11+02:00</time>
      </trkpt>
      <trkpt lat="48.42771" lon="6.26582">
        <ele>252.2002</ele>
        <time>2026-05-18T08:56:12+02:00</time>
      </trkpt>
      <trkpt lat="48.42775" lon="6.26586">
        <ele>252.2998</ele>
        <time>2026-05-18T08:56:13+02:00</time>
      </trkpt>
      <trkpt lat="48.4278" lon="6.2659">
        <ele>252.5</ele>
        <time>2026-05-18T08:56:14+02:00</time>
      </trkpt>
      <trkpt lat="48.42784" lon="6.26594">
        <ele>252.7998</ele>
        <time>2026-05-18T08:56:15+02:00</time>
      </trkpt>
      <trkpt lat="48.42788" lon="6.26599">
        <ele>252.7002</ele>
        <time>2026-05-18T08:56:16+02:00</time>
      </trkpt>
      <trkpt lat="48.42793" lon="6.26603">
        <ele>253.10059</ele>
        <time>2026-05-18T08:56:17+02:00</time>
      </trkpt>
      <trkpt lat="48.42798" lon="6.26606">
        <ele>253.40039</ele>
        <time>2026-05-18T08:56:18+02:00</time>
      </trkpt>
      <trkpt lat="48.42801" lon="6.2661">
        <ele>253.5</ele>
        <time>2026-05-18T08:56:19+02:00</time>
      </trkpt>
      <trkpt lat="48.42807" lon="6.26615">
        <ele>253.90039</ele>
        <time>2026-05-18T08:56:20+02:00</time>
      </trkpt>
      <trkpt lat="48.42811" lon="6.26619">
        <ele>253.60059</ele>
        <time>2026-05-18T08:56:21+02:00</time>
      </trkpt>
      <trkpt lat="48.42816" lon="6.26623">
        <ele>254.2002</ele>
        <time>2026-05-18T08:56:22+02:00</time>
      </trkpt>
      <trkpt lat="48.4282" lon="6.26627">
        <ele>254.5</ele>
        <time>2026-05-18T08:56:23+02:00</time>
      </trkpt>
      <trkpt lat="48.42825" lon="6.26631">
        <ele>254.90039</ele>
        <time>2026-05-18T08:56:24+02:00</time>
      </trkpt>
      <trkpt lat="48.4283" lon="6.26636">
        <ele>254.60059</ele>
        <time>2026-05-18T08:56:25+02:00</time>
      </trkpt>
      <trkpt lat="48.42835" lon="6.26641">
        <ele>254.90039</ele>
        <time>2026-05-18T08:56:26+02:00</time>
      </trkpt>
      <trkpt lat="48.4284" lon="6.26647">
        <ele>254.2998</ele>
        <time>2026-05-18T08:56:27+02:00</time>
      </trkpt>
      <trkpt lat="48.42845" lon="6.26652">
        <ele>254.60059</ele>
        <time>2026-05-18T08:56:28+02:00</time>
      </trkpt>
      <trkpt lat="48.4285" lon="6.26656">
        <ele>255.2002</ele>
        <time>2026-05-18T08:56:29+02:00</time>
      </trkpt>
      <trkpt lat="48.42855" lon="6.26661">
        <ele>255.5</ele>
        <time>2026-05-18T08:56:30+02:00</time>
      </trkpt>
      <trkpt lat="48.4286" lon="6.26665">
        <ele>255.90039</ele>
        <time>2026-05-18T08:56:31+02:00</time>
      </trkpt>
      <trkpt lat="48.42865" lon="6.26669">
        <ele>256.4004</ele>
        <time>2026-05-18T08:56:32+02:00</time>
      </trkpt>
      <trkpt lat="48.42869" lon="6.26673">
        <ele>256.7002</ele>
        <time>2026-05-18T08:56:33+02:00</time>
      </trkpt>
      <trkpt lat="48.42874" lon="6.26677">
        <ele>256.7998</ele>
        <time>2026-05-18T08:56:34+02:00</time>
      </trkpt>
      <trkpt lat="48.42879" lon="6.26682">
        <ele>257</ele>
        <time>2026-05-18T08:56:35+02:00</time>
      </trkpt>
      <trkpt lat="48.42884" lon="6.26687">
        <ele>257</ele>
        <time>2026-05-18T08:56:36+02:00</time>
      </trkpt>
      <trkpt lat="48.4289" lon="6.26691">
        <ele>256.9004</ele>
        <time>2026-05-18T08:56:37+02:00</time>
      </trkpt>
      <trkpt lat="48.42895" lon="6.26696">
        <ele>256.7998</ele>
        <time>2026-05-18T08:56:38+02:00</time>
      </trkpt>
      <trkpt lat="48.429" lon="6.26701">
        <ele>256.7002</ele>
        <time>2026-05-18T08:56:39+02:00</time>
      </trkpt>
      <trkpt lat="48.42905" lon="6.26706">
        <ele>256.6006</ele>
        <time>2026-05-18T08:56:40+02:00</time>
      </trkpt>
      <trkpt lat="48.4291" lon="6.26711">
        <ele>256.5</ele>
        <time>2026-05-18T08:56:41+02:00</time>
      </trkpt>
      <trkpt lat="48.42915" lon="6.26716">
        <ele>256.4004</ele>
        <time>2026-05-18T08:56:42+02:00</time>
      </trkpt>
      <trkpt lat="48.4292" lon="6.26721">
        <ele>256.4004</ele>
        <time>2026-05-18T08:56:43+02:00</time>
      </trkpt>
      <trkpt lat="48.42925" lon="6.26726">
        <ele>256.4004</ele>
        <time>2026-05-18T08:56:44+02:00</time>
      </trkpt>
      <trkpt lat="48.4293" lon="6.26731">
        <ele>256.6006</ele>
        <time>2026-05-18T08:56:45+02:00</time>
      </trkpt>
      <trkpt lat="48.42935" lon="6.26735">
        <ele>256.6006</ele>
        <time>2026-05-18T08:56:46+02:00</time>
      </trkpt>
      <trkpt lat="48.42939" lon="6.2674">
        <ele>256.4004</ele>
        <time>2026-05-18T08:56:47+02:00</time>
      </trkpt>
      <trkpt lat="48.42944" lon="6.26745">
        <ele>256.2002</ele>
        <time>2026-05-18T08:56:48+02:00</time>
      </trkpt>
      <trkpt lat="48.42948" lon="6.26751">
        <ele>256.2002</ele>
        <time>2026-05-18T08:56:49+02:00</time>
      </trkpt>
      <trkpt lat="48.42951" lon="6.26755">
        <ele>256.4004</ele>
        <time>2026-05-18T08:56:50+02:00</time>
      </trkpt>
      <trkpt lat="48.42955" lon="6.2676">
        <ele>256.4004</ele>
        <time>2026-05-18T08:56:51+02:00</time>
      </trkpt>
      <trkpt lat="48.42959" lon="6.26766">
        <ele>256.5</ele>
        <time>2026-05-18T08:56:52+02:00</time>
      </trkpt>
      <trkpt lat="48.42963" lon="6.26772">
        <ele>256.2998</ele>
        <time>2026-05-18T08:56:53+02:00</time>
      </trkpt>
      <trkpt lat="48.42967" lon="6.26777">
        <ele>256.1006</ele>
        <time>2026-05-18T08:56:54+02:00</time>
      </trkpt>
      <trkpt lat="48.4297" lon="6.26782">
        <ele>256.1006</ele>
        <time>2026-05-18T08:56:55+02:00</time>
      </trkpt>
      <trkpt lat="48.42973" lon="6.26789">
        <ele>256</ele>
        <time>2026-05-18T08:56:56+02:00</time>
      </trkpt>
      <trkpt lat="48.42977" lon="6.26794">
        <ele>255.90039</ele>
        <time>2026-05-18T08:56:57+02:00</time>
      </trkpt>
      <trkpt lat="48.4298" lon="6.268">
        <ele>256</ele>
        <time>2026-05-18T08:56:58+02:00</time>
      </trkpt>
      <trkpt lat="48.42981" lon="6.26803">
        <ele>256</ele>
        <time>2026-05-18T08:56:59+02:00</time>
      </trkpt>
      <trkpt lat="48.42985" lon="6.26812">
        <ele>255.90039</ele>
        <time>2026-05-18T08:57:00+02:00</time>
      </trkpt>
      <trkpt lat="48.42988" lon="6.26819">
        <ele>256</ele>
        <time>2026-05-18T08:57:01+02:00</time>
      </trkpt>
      <trkpt lat="48.42991" lon="6.26825">
        <ele>255.90039</ele>
        <time>2026-05-18T08:57:02+02:00</time>
      </trkpt>
      <trkpt lat="48.42993" lon="6.2683">
        <ele>255.90039</ele>
        <time>2026-05-18T08:57:03+02:00</time>
      </trkpt>
      <trkpt lat="48.42998" lon="6.26842">
        <ele>255.7998</ele>
        <time>2026-05-18T08:57:04+02:00</time>
      </trkpt>
      <trkpt lat="48.43002" lon="6.2685">
        <ele>255.60059</ele>
        <time>2026-05-18T08:57:05+02:00</time>
      </trkpt>
      <trkpt lat="48.43006" lon="6.26858">
        <ele>255.40039</ele>
        <time>2026-05-18T08:57:06+02:00</time>
      </trkpt>
      <trkpt lat="48.43009" lon="6.26867">
        <ele>255.2998</ele>
        <time>2026-05-18T08:57:07+02:00</time>
      </trkpt>
      <trkpt lat="48.43013" lon="6.26875">
        <ele>255.10059</ele>
        <time>2026-05-18T08:57:08+02:00</time>
      </trkpt>
      <trkpt lat="48.43016" lon="6.26883">
        <ele>255</ele>
        <time>2026-05-18T08:57:09+02:00</time>
      </trkpt>
      <trkpt lat="48.43019" lon="6.26891">
        <ele>254.7998</ele>
        <time>2026-05-18T08:57:10+02:00</time>
      </trkpt>
      <trkpt lat="48.43022" lon="6.26899">
        <ele>254.7998</ele>
        <time>2026-05-18T08:57:11+02:00</time>
      </trkpt>
      <trkpt lat="48.43025" lon="6.26907">
        <ele>254.7002</ele>
        <time>2026-05-18T08:57:12+02:00</time>
      </trkpt>
      <trkpt lat="48.43028" lon="6.26915">
        <ele>254.60059</ele>
        <time>2026-05-18T08:57:13+02:00</time>
      </trkpt>
      <trkpt lat="48.43031" lon="6.26922">
        <ele>254.60059</ele>
        <time>2026-05-18T08:57:14+02:00</time>
      </trkpt>
      <trkpt lat="48.43034" lon="6.26929">
        <ele>254.60059</ele>
        <time>2026-05-18T08:57:15+02:00</time>
      </trkpt>
      <trkpt lat="48.43038" lon="6.26937">
        <ele>254.60059</ele>
        <time>2026-05-18T08:57:16+02:00</time>
      </trkpt>
      <trkpt lat="48.4304" lon="6.26944">
        <ele>254.5</ele>
        <time>2026-05-18T08:57:17+02:00</time>
      </trkpt>
      <trkpt lat="48.43043" lon="6.26951">
        <ele>254.5</ele>
        <time>2026-05-18T08:57:18+02:00</time>
      </trkpt>
      <trkpt lat="48.43046" lon="6.26958">
        <ele>254.5</ele>
        <time>2026-05-18T08:57:19+02:00</time>
      </trkpt>
      <trkpt lat="48.43048" lon="6.26965">
        <ele>254.40039</ele>
        <time>2026-05-18T08:57:20+02:00</time>
      </trkpt>
      <trkpt lat="48.43051" lon="6.26972">
        <ele>254.2998</ele>
        <time>2026-05-18T08:57:21+02:00</time>
      </trkpt>
      <trkpt lat="48.43054" lon="6.2698">
        <ele>254.2002</ele>
        <time>2026-05-18T08:57:22+02:00</time>
      </trkpt>
      <trkpt lat="48.43056" lon="6.26987">
        <ele>253.90039</ele>
        <time>2026-05-18T08:57:23+02:00</time>
      </trkpt>
      <trkpt lat="48.43059" lon="6.26994">
        <ele>253.60059</ele>
        <time>2026-05-18T08:57:24+02:00</time>
      </trkpt>
      <trkpt lat="48.43062" lon="6.27001">
        <ele>253.60059</ele>
        <time>2026-05-18T08:57:25+02:00</time>
      </trkpt>
      <trkpt lat="48.43064" lon="6.27008">
        <ele>253.40039</ele>
        <time>2026-05-18T08:57:26+02:00</time>
      </trkpt>
      <trkpt lat="48.43067" lon="6.27015">
        <ele>253.40039</ele>
        <time>2026-05-18T08:57:27+02:00</time>
      </trkpt>
      <trkpt lat="48.4307" lon="6.27021">
        <ele>254</ele>
        <time>2026-05-18T08:57:28+02:00</time>
      </trkpt>
      <trkpt lat="48.43072" lon="6.27029">
        <ele>254.60059</ele>
        <time>2026-05-18T08:57:29+02:00</time>
      </trkpt>
      <trkpt lat="48.43075" lon="6.27035">
        <ele>254.7002</ele>
        <time>2026-05-18T08:57:30+02:00</time>
      </trkpt>
      <trkpt lat="48.43078" lon="6.27042">
        <ele>255</ele>
        <time>2026-05-18T08:57:31+02:00</time>
      </trkpt>
      <trkpt lat="48.4308" lon="6.27049">
        <ele>255.10059</ele>
        <time>2026-05-18T08:57:32+02:00</time>
      </trkpt>
      <trkpt lat="48.43083" lon="6.27056">
        <ele>255.10059</ele>
        <time>2026-05-18T08:57:33+02:00</time>
      </trkpt>
      <trkpt lat="48.43086" lon="6.27064">
        <ele>255.10059</ele>
        <time>2026-05-18T08:57:34+02:00</time>
      </trkpt>
      <trkpt lat="48.43089" lon="6.27072">
        <ele>255.10059</ele>
        <time>2026-05-18T08:57:35+02:00</time>
      </trkpt>
      <trkpt lat="48.43092" lon="6.2708">
        <ele>255.10059</ele>
        <time>2026-05-18T08:57:36+02:00</time>
      </trkpt>
      <trkpt lat="48.43095" lon="6.27088">
        <ele>255.10059</ele>
        <time>2026-05-18T08:57:37+02:00</time>
      </trkpt>
      <trkpt lat="48.43097" lon="6.27096">
        <ele>255.10059</ele>
        <time>2026-05-18T08:57:38+02:00</time>
      </trkpt>
      <trkpt lat="48.431" lon="6.27103">
        <ele>255.10059</ele>
        <time>2026-05-18T08:57:39+02:00</time>
      </trkpt>
      <trkpt lat="48.43102" lon="6.27111">
        <ele>255.10059</ele>
        <time>2026-05-18T08:57:40+02:00</time>
      </trkpt>
      <trkpt lat="48.43105" lon="6.27119">
        <ele>255.2002</ele>
        <time>2026-05-18T08:57:41+02:00</time>
      </trkpt>
      <trkpt lat="48.43108" lon="6.27127">
        <ele>255.2998</ele>
        <time>2026-05-18T08:57:42+02:00</time>
      </trkpt>
      <trkpt lat="48.43111" lon="6.27134">
        <ele>255.2002</ele>
        <time>2026-05-18T08:57:43+02:00</time>
      </trkpt>
      <trkpt lat="48.43113" lon="6.2714">
        <ele>255.2998</ele>
        <time>2026-05-18T08:57:44+02:00</time>
      </trkpt>
      <trkpt lat="48.43116" lon="6.27148">
        <ele>255.10059</ele>
        <time>2026-05-18T08:57:45+02:00</time>
      </trkpt>
      <trkpt lat="48.43119" lon="6.27155">
        <ele>255.10059</ele>
        <time>2026-05-18T08:57:46+02:00</time>
      </trkpt>
      <trkpt lat="48.43122" lon="6.27162">
        <ele>255</ele>
        <time>2026-05-18T08:57:47+02:00</time>
      </trkpt>
      <trkpt lat="48.43125" lon="6.27169">
        <ele>255.10059</ele>
        <time>2026-05-18T08:57:48+02:00</time>
      </trkpt>
      <trkpt lat="48.43127" lon="6.27175">
        <ele>255.10059</ele>
        <time>2026-05-18T08:57:49+02:00</time>
      </trkpt>
      <trkpt lat="48.4313" lon="6.27181">
        <ele>255.10059</ele>
        <time>2026-05-18T08:57:50+02:00</time>
      </trkpt>
      <trkpt lat="48.43132" lon="6.27187">
        <ele>255.2998</ele>
        <time>2026-05-18T08:57:51+02:00</time>
      </trkpt>
      <trkpt lat="48.43135" lon="6.27194">
        <ele>255.7002</ele>
        <time>2026-05-18T08:57:52+02:00</time>
      </trkpt>
      <trkpt lat="48.43137" lon="6.272">
        <ele>255.2998</ele>
        <time>2026-05-18T08:57:53+02:00</time>
      </trkpt>
      <trkpt lat="48.43139" lon="6.27207">
        <ele>255.2998</ele>
        <time>2026-05-18T08:57:54+02:00</time>
      </trkpt>
      <trkpt lat="48.43142" lon="6.27214">
        <ele>255.2998</ele>
        <time>2026-05-18T08:57:55+02:00</time>
      </trkpt>
      <trkpt lat="48.43144" lon="6.27221">
        <ele>255</ele>
        <time>2026-05-18T08:57:56+02:00</time>
      </trkpt>
      <trkpt lat="48.43147" lon="6.27227">
        <ele>254.90039</ele>
        <time>2026-05-18T08:57:57+02:00</time>
      </trkpt>
      <trkpt lat="48.4315" lon="6.27233">
        <ele>255</ele>
        <time>2026-05-18T08:57:58+02:00</time>
      </trkpt>
      <trkpt lat="48.43152" lon="6.2724">
        <ele>254.90039</ele>
        <time>2026-05-18T08:57:59+02:00</time>
      </trkpt>
      <trkpt lat="48.43155" lon="6.27247">
        <ele>254.90039</ele>
        <time>2026-05-18T08:58:00+02:00</time>
      </trkpt>
      <trkpt lat="48.43158" lon="6.27254">
        <ele>254.90039</ele>
        <time>2026-05-18T08:58:01+02:00</time>
      </trkpt>
      <trkpt lat="48.43163" lon="6.27261">
        <ele>254.90039</ele>
        <time>2026-05-18T08:58:02+02:00</time>
      </trkpt>
      <trkpt lat="48.43166" lon="6.27268">
        <ele>254.90039</ele>
        <time>2026-05-18T08:58:03+02:00</time>
      </trkpt>
      <trkpt lat="48.4317" lon="6.27275">
        <ele>254.90039</ele>
        <time>2026-05-18T08:58:04+02:00</time>
      </trkpt>
      <trkpt lat="48.43173" lon="6.27282">
        <ele>255.10059</ele>
        <time>2026-05-18T08:58:05+02:00</time>
      </trkpt>
      <trkpt lat="48.43176" lon="6.2729">
        <ele>255.10059</ele>
        <time>2026-05-18T08:58:06+02:00</time>
      </trkpt>
      <trkpt lat="48.43179" lon="6.27298">
        <ele>255.2002</ele>
        <time>2026-05-18T08:58:07+02:00</time>
      </trkpt>
      <trkpt lat="48.43183" lon="6.27306">
        <ele>255</ele>
        <time>2026-05-18T08:58:08+02:00</time>
      </trkpt>
      <trkpt lat="48.43186" lon="6.27314">
        <ele>254.5</ele>
        <time>2026-05-18T08:58:09+02:00</time>
      </trkpt>
      <trkpt lat="48.43189" lon="6.27322">
        <ele>253.60059</ele>
        <time>2026-05-18T08:58:10+02:00</time>
      </trkpt>
      <trkpt lat="48.43193" lon="6.27329">
        <ele>253</ele>
        <time>2026-05-18T08:58:11+02:00</time>
      </trkpt>
      <trkpt lat="48.43196" lon="6.27337">
        <ele>252.7002</ele>
        <time>2026-05-18T08:58:12+02:00</time>
      </trkpt>
      <trkpt lat="48.43199" lon="6.27345">
        <ele>252.7998</ele>
        <time>2026-05-18T08:58:13+02:00</time>
      </trkpt>
      <trkpt lat="48.43203" lon="6.27352">
        <ele>252.7998</ele>
        <time>2026-05-18T08:58:14+02:00</time>
      </trkpt>
      <trkpt lat="48.43206" lon="6.27359">
        <ele>253.2002</ele>
        <time>2026-05-18T08:58:15+02:00</time>
      </trkpt>
      <trkpt lat="48.43209" lon="6.27367">
        <ele>253.2998</ele>
        <time>2026-05-18T08:58:16+02:00</time>
      </trkpt>
      <trkpt lat="48.43212" lon="6.27374">
        <ele>253.5</ele>
        <time>2026-05-18T08:58:17+02:00</time>
      </trkpt>
      <trkpt lat="48.43215" lon="6.27382">
        <ele>253.5</ele>
        <time>2026-05-18T08:58:18+02:00</time>
      </trkpt>
      <trkpt lat="48.43219" lon="6.27389">
        <ele>253.2998</ele>
        <time>2026-05-18T08:58:19+02:00</time>
      </trkpt>
      <trkpt lat="48.43222" lon="6.27396">
        <ele>252.7998</ele>
        <time>2026-05-18T08:58:20+02:00</time>
      </trkpt>
      <trkpt lat="48.43225" lon="6.27403">
        <ele>252.90039</ele>
        <time>2026-05-18T08:58:21+02:00</time>
      </trkpt>
      <trkpt lat="48.43228" lon="6.27409">
        <ele>252.7998</ele>
        <time>2026-05-18T08:58:22+02:00</time>
      </trkpt>
      <trkpt lat="48.43231" lon="6.27415">
        <ele>253.2002</ele>
        <time>2026-05-18T08:58:23+02:00</time>
      </trkpt>
      <trkpt lat="48.43234" lon="6.27422">
        <ele>253.2002</ele>
        <time>2026-05-18T08:58:24+02:00</time>
      </trkpt>
      <trkpt lat="48.43237" lon="6.27429">
        <ele>253.60059</ele>
        <time>2026-05-18T08:58:25+02:00</time>
      </trkpt>
      <trkpt lat="48.43241" lon="6.27436">
        <ele>253.90039</ele>
        <time>2026-05-18T08:58:26+02:00</time>
      </trkpt>
      <trkpt lat="48.43244" lon="6.27442">
        <ele>254</ele>
        <time>2026-05-18T08:58:27+02:00</time>
      </trkpt>
      <trkpt lat="48.43247" lon="6.27449">
        <ele>253.5</ele>
        <time>2026-05-18T08:58:28+02:00</time>
      </trkpt>
      <trkpt lat="48.4325" lon="6.27456">
        <ele>253.5</ele>
        <time>2026-05-18T08:58:29+02:00</time>
      </trkpt>
      <trkpt lat="48.43253" lon="6.27462">
        <ele>252.90039</ele>
        <time>2026-05-18T08:58:30+02:00</time>
      </trkpt>
      <trkpt lat="48.43256" lon="6.27469">
        <ele>253.2002</ele>
        <time>2026-05-18T08:58:31+02:00</time>
      </trkpt>
      <trkpt lat="48.43259" lon="6.27475">
        <ele>253.10059</ele>
        <time>2026-05-18T08:58:32+02:00</time>
      </trkpt>
      <trkpt lat="48.43262" lon="6.27482">
        <ele>252.7998</ele>
        <time>2026-05-18T08:58:33+02:00</time>
      </trkpt>
      <trkpt lat="48.43265" lon="6.27489">
        <ele>253.40039</ele>
        <time>2026-05-18T08:58:34+02:00</time>
      </trkpt>
      <trkpt lat="48.43268" lon="6.27496">
        <ele>253.40039</ele>
        <time>2026-05-18T08:58:35+02:00</time>
      </trkpt>
      <trkpt lat="48.43271" lon="6.27502">
        <ele>253.90039</ele>
        <time>2026-05-18T08:58:36+02:00</time>
      </trkpt>
      <trkpt lat="48.43274" lon="6.27508">
        <ele>253.2002</ele>
        <time>2026-05-18T08:58:37+02:00</time>
      </trkpt>
      <trkpt lat="48.43277" lon="6.27515">
        <ele>253.90039</ele>
        <time>2026-05-18T08:58:38+02:00</time>
      </trkpt>
      <trkpt lat="48.4328" lon="6.27522">
        <ele>254.40039</ele>
        <time>2026-05-18T08:58:39+02:00</time>
      </trkpt>
      <trkpt lat="48.43283" lon="6.27528">
        <ele>255.2998</ele>
        <time>2026-05-18T08:58:40+02:00</time>
      </trkpt>
      <trkpt lat="48.43286" lon="6.27535">
        <ele>255.5</ele>
        <time>2026-05-18T08:58:41+02:00</time>
      </trkpt>
      <trkpt lat="48.43289" lon="6.27542">
        <ele>255.5</ele>
        <time>2026-05-18T08:58:42+02:00</time>
      </trkpt>
      <trkpt lat="48.43293" lon="6.27548">
        <ele>254.7998</ele>
        <time>2026-05-18T08:58:43+02:00</time>
      </trkpt>
      <trkpt lat="48.43296" lon="6.27554">
        <ele>253.7002</ele>
        <time>2026-05-18T08:58:44+02:00</time>
      </trkpt>
      <trkpt lat="48.43299" lon="6.27561">
        <ele>253.90039</ele>
        <time>2026-05-18T08:58:45+02:00</time>
      </trkpt>
      <trkpt lat="48.43303" lon="6.27567">
        <ele>252.90039</ele>
        <time>2026-05-18T08:58:46+02:00</time>
      </trkpt>
      <trkpt lat="48.43307" lon="6.27572">
        <ele>253.40039</ele>
        <time>2026-05-18T08:58:47+02:00</time>
      </trkpt>
      <trkpt lat="48.43311" lon="6.27578">
        <ele>253.5</ele>
        <time>2026-05-18T08:58:48+02:00</time>
      </trkpt>
      <trkpt lat="48.43315" lon="6.27584">
        <ele>252.7998</ele>
        <time>2026-05-18T08:58:49+02:00</time>
      </trkpt>
      <trkpt lat="48.43318" lon="6.27589">
        <ele>253.7002</ele>
        <time>2026-05-18T08:58:50+02:00</time>
      </trkpt>
      <trkpt lat="48.43322" lon="6.27594">
        <ele>252.7002</ele>
        <time>2026-05-18T08:58:51+02:00</time>
      </trkpt>
      <trkpt lat="48.43326" lon="6.27599">
        <ele>252.5</ele>
        <time>2026-05-18T08:58:52+02:00</time>
      </trkpt>
      <trkpt lat="48.4333" lon="6.27604">
        <ele>253.40039</ele>
        <time>2026-05-18T08:58:53+02:00</time>
      </trkpt>
      <trkpt lat="48.43334" lon="6.27609">
        <ele>253.10059</ele>
        <time>2026-05-18T08:58:54+02:00</time>
      </trkpt>
      <trkpt lat="48.43336" lon="6.27612">
        <ele>254.2002</ele>
        <time>2026-05-18T08:58:55+02:00</time>
      </trkpt>
      <trkpt lat="48.43342" lon="6.2762">
        <ele>254.40039</ele>
        <time>2026-05-18T08:58:56+02:00</time>
      </trkpt>
      <trkpt lat="48.43347" lon="6.27625">
        <ele>254.40039</ele>
        <time>2026-05-18T08:58:57+02:00</time>
      </trkpt>
      <trkpt lat="48.43351" lon="6.27631">
        <ele>253.2002</ele>
        <time>2026-05-18T08:58:58+02:00</time>
      </trkpt>
      <trkpt lat="48.43356" lon="6.27636">
        <ele>252.40039</ele>
        <time>2026-05-18T08:58:59+02:00</time>
      </trkpt>
      <trkpt lat="48.4336" lon="6.27642">
        <ele>253.7002</ele>
        <time>2026-05-18T08:59:00+02:00</time>
      </trkpt>
      <trkpt lat="48.43365" lon="6.27648">
        <ele>254.60059</ele>
        <time>2026-05-18T08:59:01+02:00</time>
      </trkpt>
      <trkpt lat="48.4337" lon="6.27653">
        <ele>254.60059</ele>
        <time>2026-05-18T08:59:02+02:00</time>
      </trkpt>
      <trkpt lat="48.43374" lon="6.27659">
        <ele>254.2002</ele>
        <time>2026-05-18T08:59:03+02:00</time>
      </trkpt>
      <trkpt lat="48.43377" lon="6.27662">
        <ele>253.2002</ele>
        <time>2026-05-18T08:59:04+02:00</time>
      </trkpt>
      <trkpt lat="48.43384" lon="6.2767">
        <ele>251.90039</ele>
        <time>2026-05-18T08:59:05+02:00</time>
      </trkpt>
      <trkpt lat="48.43388" lon="6.27676">
        <ele>251.7998</ele>
        <time>2026-05-18T08:59:06+02:00</time>
      </trkpt>
      <trkpt lat="48.43393" lon="6.27681">
        <ele>252</ele>
        <time>2026-05-18T08:59:07+02:00</time>
      </trkpt>
      <trkpt lat="48.43397" lon="6.27687">
        <ele>252</ele>
        <time>2026-05-18T08:59:08+02:00</time>
      </trkpt>
      <trkpt lat="48.43402" lon="6.27692">
        <ele>252.2002</ele>
        <time>2026-05-18T08:59:09+02:00</time>
      </trkpt>
      <trkpt lat="48.43406" lon="6.27697">
        <ele>252.40039</ele>
        <time>2026-05-18T08:59:10+02:00</time>
      </trkpt>
      <trkpt lat="48.43411" lon="6.27703">
        <ele>251.7002</ele>
        <time>2026-05-18T08:59:11+02:00</time>
      </trkpt>
      <trkpt lat="48.43416" lon="6.27708">
        <ele>251.7002</ele>
        <time>2026-05-18T08:59:12+02:00</time>
      </trkpt>
      <trkpt lat="48.43419" lon="6.27713">
        <ele>251.7002</ele>
        <time>2026-05-18T08:59:13+02:00</time>
      </trkpt>
      <trkpt lat="48.43423" lon="6.27717">
        <ele>251.7002</ele>
        <time>2026-05-18T08:59:14+02:00</time>
      </trkpt>
      <trkpt lat="48.43427" lon="6.27722">
        <ele>251.7002</ele>
        <time>2026-05-18T08:59:15+02:00</time>
      </trkpt>
      <trkpt lat="48.43431" lon="6.27726">
        <ele>251.90039</ele>
        <time>2026-05-18T08:59:16+02:00</time>
      </trkpt>
      <trkpt lat="48.43435" lon="6.27731">
        <ele>251.40039</ele>
        <time>2026-05-18T08:59:17+02:00</time>
      </trkpt>
      <trkpt lat="48.43439" lon="6.27736">
        <ele>251.2002</ele>
        <time>2026-05-18T08:59:18+02:00</time>
      </trkpt>
      <trkpt lat="48.43443" lon="6.27741">
        <ele>251.90039</ele>
        <time>2026-05-18T08:59:19+02:00</time>
      </trkpt>
      <trkpt lat="48.43448" lon="6.27746">
        <ele>251.10059</ele>
        <time>2026-05-18T08:59:20+02:00</time>
      </trkpt>
      <trkpt lat="48.43452" lon="6.27752">
        <ele>251.2002</ele>
        <time>2026-05-18T08:59:21+02:00</time>
      </trkpt>
      <trkpt lat="48.43456" lon="6.27757">
        <ele>251</ele>
        <time>2026-05-18T08:59:22+02:00</time>
      </trkpt>
      <trkpt lat="48.43461" lon="6.27762">
        <ele>251.5</ele>
        <time>2026-05-18T08:59:23+02:00</time>
      </trkpt>
      <trkpt lat="48.43466" lon="6.27767">
        <ele>252.60059</ele>
        <time>2026-05-18T08:59:24+02:00</time>
      </trkpt>
      <trkpt lat="48.43469" lon="6.27771">
        <ele>252.7002</ele>
        <time>2026-05-18T08:59:25+02:00</time>
      </trkpt>
      <trkpt lat="48.43474" lon="6.27776">
        <ele>255</ele>
        <time>2026-05-18T08:59:26+02:00</time>
      </trkpt>
      <trkpt lat="48.43478" lon="6.27782">
        <ele>255</ele>
        <time>2026-05-18T08:59:27+02:00</time>
      </trkpt>
      <trkpt lat="48.43483" lon="6.27787">
        <ele>256.2002</ele>
        <time>2026-05-18T08:59:28+02:00</time>
      </trkpt>
      <trkpt lat="48.43487" lon="6.27792">
        <ele>255.2002</ele>
        <time>2026-05-18T08:59:29+02:00</time>
      </trkpt>
      <trkpt lat="48.43492" lon="6.27797">
        <ele>253.40039</ele>
        <time>2026-05-18T08:59:30+02:00</time>
      </trkpt>
      <trkpt lat="48.43496" lon="6.27802">
        <ele>253.2998</ele>
        <time>2026-05-18T08:59:31+02:00</time>
      </trkpt>
      <trkpt lat="48.435" lon="6.27805">
        <ele>253.2998</ele>
        <time>2026-05-18T08:59:32+02:00</time>
      </trkpt>
      <trkpt lat="48.43504" lon="6.27809">
        <ele>254.10059</ele>
        <time>2026-05-18T08:59:33+02:00</time>
      </trkpt>
      <trkpt lat="48.43508" lon="6.27813">
        <ele>252.7998</ele>
        <time>2026-05-18T08:59:34+02:00</time>
      </trkpt>
      <trkpt lat="48.43512" lon="6.27816">
        <ele>252.7998</ele>
        <time>2026-05-18T08:59:35+02:00</time>
      </trkpt>
      <trkpt lat="48.43516" lon="6.2782">
        <ele>252.90039</ele>
        <time>2026-05-18T08:59:36+02:00</time>
      </trkpt>
      <trkpt lat="48.4352" lon="6.27824">
        <ele>251.90039</ele>
        <time>2026-05-18T08:59:37+02:00</time>
      </trkpt>
      <trkpt lat="48.43524" lon="6.27828">
        <ele>252.90039</ele>
        <time>2026-05-18T08:59:38+02:00</time>
      </trkpt>
      <trkpt lat="48.43528" lon="6.27832">
        <ele>252.90039</ele>
        <time>2026-05-18T08:59:39+02:00</time>
      </trkpt>
      <trkpt lat="48.43532" lon="6.27837">
        <ele>254.10059</ele>
        <time>2026-05-18T08:59:40+02:00</time>
      </trkpt>
      <trkpt lat="48.43536" lon="6.27841">
        <ele>253.90039</ele>
        <time>2026-05-18T08:59:41+02:00</time>
      </trkpt>
      <trkpt lat="48.4354" lon="6.27845">
        <ele>255.60059</ele>
        <time>2026-05-18T08:59:42+02:00</time>
      </trkpt>
      <trkpt lat="48.43545" lon="6.27848">
        <ele>255</ele>
        <time>2026-05-18T08:59:43+02:00</time>
      </trkpt>
      <trkpt lat="48.43549" lon="6.27851">
        <ele>254.2998</ele>
        <time>2026-05-18T08:59:44+02:00</time>
      </trkpt>
      <trkpt lat="48.43552" lon="6.27853">
        <ele>255.40039</ele>
        <time>2026-05-18T08:59:45+02:00</time>
      </trkpt>
      <trkpt lat="48.43559" lon="6.27858">
        <ele>253.10059</ele>
        <time>2026-05-18T08:59:46+02:00</time>
      </trkpt>
      <trkpt lat="48.43564" lon="6.27861">
        <ele>253.7002</ele>
        <time>2026-05-18T08:59:47+02:00</time>
      </trkpt>
      <trkpt lat="48.43568" lon="6.27864">
        <ele>253.7002</ele>
        <time>2026-05-18T08:59:48+02:00</time>
      </trkpt>
      <trkpt lat="48.43573" lon="6.27867">
        <ele>253.10059</ele>
        <time>2026-05-18T08:59:49+02:00</time>
      </trkpt>
      <trkpt lat="48.43578" lon="6.27871">
        <ele>255.10059</ele>
        <time>2026-05-18T08:59:50+02:00</time>
      </trkpt>
      <trkpt lat="48.43583" lon="6.27875">
        <ele>255.10059</ele>
        <time>2026-05-18T08:59:51+02:00</time>
      </trkpt>
      <trkpt lat="48.43588" lon="6.27878">
        <ele>256.7002</ele>
        <time>2026-05-18T08:59:52+02:00</time>
      </trkpt>
      <trkpt lat="48.43593" lon="6.27882">
        <ele>256.1006</ele>
        <time>2026-05-18T08:59:53+02:00</time>
      </trkpt>
      <trkpt lat="48.43597" lon="6.27885">
        <ele>256.1006</ele>
        <time>2026-05-18T08:59:54+02:00</time>
      </trkpt>
      <trkpt lat="48.43602" lon="6.27889">
        <ele>255.40039</ele>
        <time>2026-05-18T08:59:55+02:00</time>
      </trkpt>
      <trkpt lat="48.43606" lon="6.27892">
        <ele>253.7002</ele>
        <time>2026-05-18T08:59:56+02:00</time>
      </trkpt>
      <trkpt lat="48.43611" lon="6.27895">
        <ele>253.90039</ele>
        <time>2026-05-18T08:59:57+02:00</time>
      </trkpt>
      <trkpt lat="48.43617" lon="6.27899">
        <ele>253.5</ele>
        <time>2026-05-18T08:59:58+02:00</time>
      </trkpt>
      <trkpt lat="48.43622" lon="6.27903">
        <ele>254.90039</ele>
        <time>2026-05-18T08:59:59+02:00</time>
      </trkpt>
      <trkpt lat="48.43627" lon="6.27906">
        <ele>254.60059</ele>
        <time>2026-05-18T09:00:00+02:00</time>
      </trkpt>
      <trkpt lat="48.43633" lon="6.27909">
        <ele>254.2002</ele>
        <time>2026-05-18T09:00:01+02:00</time>
      </trkpt>
      <trkpt lat="48.43638" lon="6.27913">
        <ele>254.60059</ele>
        <time>2026-05-18T09:00:02+02:00</time>
      </trkpt>
      <trkpt lat="48.43643" lon="6.27916">
        <ele>254.60059</ele>
        <time>2026-05-18T09:00:03+02:00</time>
      </trkpt>
      <trkpt lat="48.43647" lon="6.2792">
        <ele>253.7002</ele>
        <time>2026-05-18T09:00:04+02:00</time>
      </trkpt>
      <trkpt lat="48.43652" lon="6.27923">
        <ele>253.90039</ele>
        <time>2026-05-18T09:00:05+02:00</time>
      </trkpt>
      <trkpt lat="48.43657" lon="6.27927">
        <ele>253.2998</ele>
        <time>2026-05-18T09:00:06+02:00</time>
      </trkpt>
      <trkpt lat="48.43662" lon="6.2793">
        <ele>254.5</ele>
        <time>2026-05-18T09:00:07+02:00</time>
      </trkpt>
      <trkpt lat="48.43667" lon="6.27933">
        <ele>254.2002</ele>
        <time>2026-05-18T09:00:08+02:00</time>
      </trkpt>
      <trkpt lat="48.43672" lon="6.27937">
        <ele>253.90039</ele>
        <time>2026-05-18T09:00:09+02:00</time>
      </trkpt>
      <trkpt lat="48.43677" lon="6.2794">
        <ele>255.2002</ele>
        <time>2026-05-18T09:00:10+02:00</time>
      </trkpt>
      <trkpt lat="48.43682" lon="6.27944">
        <ele>254.7002</ele>
        <time>2026-05-18T09:00:11+02:00</time>
      </trkpt>
      <trkpt lat="48.43688" lon="6.27948">
        <ele>254.5</ele>
        <time>2026-05-18T09:00:12+02:00</time>
      </trkpt>
      <trkpt lat="48.43693" lon="6.27951">
        <ele>253.7002</ele>
        <time>2026-05-18T09:00:13+02:00</time>
      </trkpt>
      <trkpt lat="48.43699" lon="6.27955">
        <ele>253.40039</ele>
        <time>2026-05-18T09:00:14+02:00</time>
      </trkpt>
      <trkpt lat="48.43704" lon="6.27959">
        <ele>252.7998</ele>
        <time>2026-05-18T09:00:15+02:00</time>
      </trkpt>
      <trkpt lat="48.4371" lon="6.27963">
        <ele>252.2998</ele>
        <time>2026-05-18T09:00:16+02:00</time>
      </trkpt>
      <trkpt lat="48.43715" lon="6.27967">
        <ele>253.10059</ele>
        <time>2026-05-18T09:00:17+02:00</time>
      </trkpt>
      <trkpt lat="48.43721" lon="6.2797">
        <ele>253.40039</ele>
        <time>2026-05-18T09:00:18+02:00</time>
      </trkpt>
      <trkpt lat="48.43726" lon="6.27974">
        <ele>254.5</ele>
        <time>2026-05-18T09:00:19+02:00</time>
      </trkpt>
      <trkpt lat="48.43731" lon="6.27978">
        <ele>254.7998</ele>
        <time>2026-05-18T09:00:20+02:00</time>
      </trkpt>
      <trkpt lat="48.43736" lon="6.27982">
        <ele>254.5</ele>
        <time>2026-05-18T09:00:21+02:00</time>
      </trkpt>
      <trkpt lat="48.43742" lon="6.27986">
        <ele>254.5</ele>
        <time>2026-05-18T09:00:22+02:00</time>
      </trkpt>
      <trkpt lat="48.43747" lon="6.27989">
        <ele>253.10059</ele>
        <time>2026-05-18T09:00:23+02:00</time>
      </trkpt>
      <trkpt lat="48.43752" lon="6.27992">
        <ele>252.7998</ele>
        <time>2026-05-18T09:00:24+02:00</time>
      </trkpt>
      <trkpt lat="48.43757" lon="6.27996">
        <ele>252.7998</ele>
        <time>2026-05-18T09:00:25+02:00</time>
      </trkpt>
      <trkpt lat="48.43762" lon="6.28">
        <ele>251.7998</ele>
        <time>2026-05-18T09:00:26+02:00</time>
      </trkpt>
      <trkpt lat="48.43767" lon="6.28003">
        <ele>251.60059</ele>
        <time>2026-05-18T09:00:27+02:00</time>
      </trkpt>
      <trkpt lat="48.43772" lon="6.28007">
        <ele>251.5</ele>
        <time>2026-05-18T09:00:28+02:00</time>
      </trkpt>
      <trkpt lat="48.43777" lon="6.28011">
        <ele>251.5</ele>
        <time>2026-05-18T09:00:29+02:00</time>
      </trkpt>
      <trkpt lat="48.43782" lon="6.28015">
        <ele>251.60059</ele>
        <time>2026-05-18T09:00:30+02:00</time>
      </trkpt>
      <trkpt lat="48.43787" lon="6.28018">
        <ele>251.60059</ele>
        <time>2026-05-18T09:00:31+02:00</time>
      </trkpt>
      <trkpt lat="48.43792" lon="6.28022">
        <ele>251.60059</ele>
        <time>2026-05-18T09:00:32+02:00</time>
      </trkpt>
      <trkpt lat="48.43798" lon="6.28025">
        <ele>251.5</ele>
        <time>2026-05-18T09:00:33+02:00</time>
      </trkpt>
      <trkpt lat="48.43804" lon="6.28029">
        <ele>251.5</ele>
        <time>2026-05-18T09:00:34+02:00</time>
      </trkpt>
      <trkpt lat="48.43809" lon="6.28033">
        <ele>251.60059</ele>
        <time>2026-05-18T09:00:35+02:00</time>
      </trkpt>
      <trkpt lat="48.43814" lon="6.28037">
        <ele>251.60059</ele>
        <time>2026-05-18T09:00:36+02:00</time>
      </trkpt>
      <trkpt lat="48.43819" lon="6.28041">
        <ele>251.40039</ele>
        <time>2026-05-18T09:00:37+02:00</time>
      </trkpt>
      <trkpt lat="48.43824" lon="6.28045">
        <ele>251.40039</ele>
        <time>2026-05-18T09:00:38+02:00</time>
      </trkpt>
      <trkpt lat="48.43828" lon="6.28048">
        <ele>251.2998</ele>
        <time>2026-05-18T09:00:39+02:00</time>
      </trkpt>
      <trkpt lat="48.43833" lon="6.28052">
        <ele>251</ele>
        <time>2026-05-18T09:00:40+02:00</time>
      </trkpt>
      <trkpt lat="48.43838" lon="6.28055">
        <ele>250.90039</ele>
        <time>2026-05-18T09:00:41+02:00</time>
      </trkpt>
      <trkpt lat="48.43844" lon="6.28059">
        <ele>250.7998</ele>
        <time>2026-05-18T09:00:42+02:00</time>
      </trkpt>
      <trkpt lat="48.43848" lon="6.28061">
        <ele>250.7998</ele>
        <time>2026-05-18T09:00:43+02:00</time>
      </trkpt>
      <trkpt lat="48.43853" lon="6.28063">
        <ele>250.7998</ele>
        <time>2026-05-18T09:00:44+02:00</time>
      </trkpt>
      <trkpt lat="48.43857" lon="6.28066">
        <ele>250.7002</ele>
        <time>2026-05-18T09:00:45+02:00</time>
      </trkpt>
      <trkpt lat="48.43862" lon="6.28068">
        <ele>250.7002</ele>
        <time>2026-05-18T09:00:46+02:00</time>
      </trkpt>
      <trkpt lat="48.43866" lon="6.2807">
        <ele>250.60059</ele>
        <time>2026-05-18T09:00:47+02:00</time>
      </trkpt>
      <trkpt lat="48.4387" lon="6.28071">
        <ele>250.60059</ele>
        <time>2026-05-18T09:00:48+02:00</time>
      </trkpt>
      <trkpt lat="48.43874" lon="6.28073">
        <ele>250.60059</ele>
        <time>2026-05-18T09:00:49+02:00</time>
      </trkpt>
      <trkpt lat="48.43877" lon="6.28075">
        <ele>250.60059</ele>
        <time>2026-05-18T09:00:50+02:00</time>
      </trkpt>
      <trkpt lat="48.43881" lon="6.28077">
        <ele>250.60059</ele>
        <time>2026-05-18T09:00:51+02:00</time>
      </trkpt>
      <trkpt lat="48.43884" lon="6.28078">
        <ele>250.60059</ele>
        <time>2026-05-18T09:00:52+02:00</time>
      </trkpt>
      <trkpt lat="48.43886" lon="6.28081">
        <ele>250.60059</ele>
        <time>2026-05-18T09:00:53+02:00</time>
      </trkpt>
      <trkpt lat="48.43887" lon="6.28085">
        <ele>250.60059</ele>
        <time>2026-05-18T09:00:54+02:00</time>
      </trkpt>
      <trkpt lat="48.4389" lon="6.28089">
        <ele>250.60059</ele>
        <time>2026-05-18T09:00:55+02:00</time>
      </trkpt>
      <trkpt lat="48.43892" lon="6.28091">
        <ele>250.60059</ele>
        <time>2026-05-18T09:00:56+02:00</time>
      </trkpt>
      <trkpt lat="48.43894" lon="6.28093">
        <ele>250.60059</ele>
        <time>2026-05-18T09:00:57+02:00</time>
      </trkpt>
      <trkpt lat="48.43895" lon="6.28095">
        <ele>250.7998</ele>
        <time>2026-05-18T09:00:58+02:00</time>
      </trkpt>
      <trkpt lat="48.43897" lon="6.28096">
        <ele>250.7998</ele>
        <time>2026-05-18T09:00:59+02:00</time>
      </trkpt>
      <trkpt lat="48.43898" lon="6.28097">
        <ele>250.7998</ele>
        <time>2026-05-18T09:01:00+02:00</time>
      </trkpt>
      <trkpt lat="48.43898" lon="6.28098">
        <ele>250.7998</ele>
        <time>2026-05-18T09:01:01+02:00</time>
      </trkpt>
      <trkpt lat="48.43898" lon="6.28098">
        <ele>250.7998</ele>
        <time>2026-05-18T09:01:02+02:00</time>
      </trkpt>
      <trkpt lat="48.43898" lon="6.28098">
        <ele>250.7998</ele>
        <time>2026-05-18T09:01:03+02:00</time>
      </trkpt>
      <trkpt lat="48.4392" lon="6.28114">
        <ele>251.5</ele>
        <time>2026-05-18T09:01:46+02:00</time>
      </trkpt>
      <trkpt lat="48.43924" lon="6.28117">
        <ele>252</ele>
        <time>2026-05-18T09:01:47+02:00</time>
      </trkpt>
      <trkpt lat="48.43927" lon="6.28119">
        <ele>251.7002</ele>
        <time>2026-05-18T09:01:48+02:00</time>
      </trkpt>
      <trkpt lat="48.4393" lon="6.28121">
        <ele>252.2998</ele>
        <time>2026-05-18T09:01:49+02:00</time>
      </trkpt>
      <trkpt lat="48.43932" lon="6.28123">
        <ele>252.2998</ele>
        <time>2026-05-18T09:01:50+02:00</time>
      </trkpt>
      <trkpt lat="48.43935" lon="6.28126">
        <ele>252.60059</ele>
        <time>2026-05-18T09:01:51+02:00</time>
      </trkpt>
      <trkpt lat="48.43938" lon="6.28128">
        <ele>252.40039</ele>
        <time>2026-05-18T09:01:52+02:00</time>
      </trkpt>
      <trkpt lat="48.43941" lon="6.2813">
        <ele>252.60059</ele>
        <time>2026-05-18T09:01:53+02:00</time>
      </trkpt>
      <trkpt lat="48.43945" lon="6.28132">
        <ele>252.60059</ele>
        <time>2026-05-18T09:01:54+02:00</time>
      </trkpt>
      <trkpt lat="48.43948" lon="6.28135">
        <ele>252.60059</ele>
        <time>2026-05-18T09:01:55+02:00</time>
      </trkpt>
      <trkpt lat="48.43952" lon="6.28137">
        <ele>253</ele>
        <time>2026-05-18T09:01:56+02:00</time>
      </trkpt>
      <trkpt lat="48.43957" lon="6.2814">
        <ele>253.2002</ele>
        <time>2026-05-18T09:01:57+02:00</time>
      </trkpt>
      <trkpt lat="48.4396" lon="6.28143">
        <ele>253.2002</ele>
        <time>2026-05-18T09:01:58+02:00</time>
      </trkpt>
      <trkpt lat="48.43965" lon="6.28146">
        <ele>253.5</ele>
        <time>2026-05-18T09:01:59+02:00</time>
      </trkpt>
      <trkpt lat="48.43969" lon="6.28149">
        <ele>253.60059</ele>
        <time>2026-05-18T09:02:00+02:00</time>
      </trkpt>
      <trkpt lat="48.43974" lon="6.28152">
        <ele>253.60059</ele>
        <time>2026-05-18T09:02:01+02:00</time>
      </trkpt>
      <trkpt lat="48.43978" lon="6.28156">
        <ele>253.60059</ele>
        <time>2026-05-18T09:02:02+02:00</time>
      </trkpt>
      <trkpt lat="48.43983" lon="6.28159">
        <ele>253.7002</ele>
        <time>2026-05-18T09:02:03+02:00</time>
      </trkpt>
      <trkpt lat="48.43987" lon="6.28161">
        <ele>253.90039</ele>
        <time>2026-05-18T09:02:04+02:00</time>
      </trkpt>
      <trkpt lat="48.43992" lon="6.28164">
        <ele>254.10059</ele>
        <time>2026-05-18T09:02:05+02:00</time>
      </trkpt>
      <trkpt lat="48.43995" lon="6.28166">
        <ele>254.10059</ele>
        <time>2026-05-18T09:02:06+02:00</time>
      </trkpt>
      <trkpt lat="48.44002" lon="6.28171">
        <ele>254.7002</ele>
        <time>2026-05-18T09:02:07+02:00</time>
      </trkpt>
      <trkpt lat="48.44007" lon="6.28175">
        <ele>254.7002</ele>
        <time>2026-05-18T09:02:08+02:00</time>
      </trkpt>
      <trkpt lat="48.44012" lon="6.28178">
        <ele>255.2002</ele>
        <time>2026-05-18T09:02:09+02:00</time>
      </trkpt>
      <trkpt lat="48.44017" lon="6.28181">
        <ele>255.2002</ele>
        <time>2026-05-18T09:02:10+02:00</time>
      </trkpt>
      <trkpt lat="48.44021" lon="6.28184">
        <ele>255.2002</ele>
        <time>2026-05-18T09:02:11+02:00</time>
      </trkpt>
      <trkpt lat="48.44026" lon="6.28187">
        <ele>255.5</ele>
        <time>2026-05-18T09:02:12+02:00</time>
      </trkpt>
      <trkpt lat="48.4403" lon="6.2819">
        <ele>255.5</ele>
        <time>2026-05-18T09:02:13+02:00</time>
      </trkpt>
      <trkpt lat="48.44035" lon="6.28193">
        <ele>255.40039</ele>
        <time>2026-05-18T09:02:14+02:00</time>
      </trkpt>
      <trkpt lat="48.4404" lon="6.28197">
        <ele>255.90039</ele>
        <time>2026-05-18T09:02:15+02:00</time>
      </trkpt>
      <trkpt lat="48.44044" lon="6.282">
        <ele>255.90039</ele>
        <time>2026-05-18T09:02:16+02:00</time>
      </trkpt>
      <trkpt lat="48.44049" lon="6.28204">
        <ele>256.7998</ele>
        <time>2026-05-18T09:02:17+02:00</time>
      </trkpt>
      <trkpt lat="48.44054" lon="6.28207">
        <ele>256.7998</ele>
        <time>2026-05-18T09:02:18+02:00</time>
      </trkpt>
      <trkpt lat="48.44059" lon="6.28211">
        <ele>256.7002</ele>
        <time>2026-05-18T09:02:19+02:00</time>
      </trkpt>
      <trkpt lat="48.44064" lon="6.28214">
        <ele>257.6006</ele>
        <time>2026-05-18T09:02:20+02:00</time>
      </trkpt>
      <trkpt lat="48.44068" lon="6.28217">
        <ele>257.6006</ele>
        <time>2026-05-18T09:02:21+02:00</time>
      </trkpt>
      <trkpt lat="48.44072" lon="6.2822">
        <ele>257.5</ele>
        <time>2026-05-18T09:02:22+02:00</time>
      </trkpt>
      <trkpt lat="48.44077" lon="6.28224">
        <ele>257.9004</ele>
        <time>2026-05-18T09:02:23+02:00</time>
      </trkpt>
      <trkpt lat="48.44079" lon="6.28225">
        <ele>257.9004</ele>
        <time>2026-05-18T09:02:24+02:00</time>
      </trkpt>
      <trkpt lat="48.44085" lon="6.2823">
        <ele>257.7998</ele>
        <time>2026-05-18T09:02:25+02:00</time>
      </trkpt>
      <trkpt lat="48.44089" lon="6.28233">
        <ele>257.7002</ele>
        <time>2026-05-18T09:02:26+02:00</time>
      </trkpt>
      <trkpt lat="48.44094" lon="6.28236">
        <ele>257.5</ele>
        <time>2026-05-18T09:02:27+02:00</time>
      </trkpt>
      <trkpt lat="48.44098" lon="6.28239">
        <ele>258</ele>
        <time>2026-05-18T09:02:28+02:00</time>
      </trkpt>
      <trkpt lat="48.44103" lon="6.28242">
        <ele>257.7998</ele>
        <time>2026-05-18T09:02:29+02:00</time>
      </trkpt>
      <trkpt lat="48.44107" lon="6.28245">
        <ele>257.4004</ele>
        <time>2026-05-18T09:02:30+02:00</time>
      </trkpt>
      <trkpt lat="48.44111" lon="6.28248">
        <ele>257.4004</ele>
        <time>2026-05-18T09:02:31+02:00</time>
      </trkpt>
      <trkpt lat="48.44116" lon="6.28251">
        <ele>257.4004</ele>
        <time>2026-05-18T09:02:32+02:00</time>
      </trkpt>
      <trkpt lat="48.44121" lon="6.28255">
        <ele>257.5</ele>
        <time>2026-05-18T09:02:33+02:00</time>
      </trkpt>
      <trkpt lat="48.44125" lon="6.28258">
        <ele>257.2998</ele>
        <time>2026-05-18T09:02:34+02:00</time>
      </trkpt>
      <trkpt lat="48.4413" lon="6.28261">
        <ele>257.1006</ele>
        <time>2026-05-18T09:02:35+02:00</time>
      </trkpt>
      <trkpt lat="48.44134" lon="6.28264">
        <ele>257.7998</ele>
        <time>2026-05-18T09:02:36+02:00</time>
      </trkpt>
      <trkpt lat="48.44138" lon="6.28267">
        <ele>257.7998</ele>
        <time>2026-05-18T09:02:37+02:00</time>
      </trkpt>
      <trkpt lat="48.44143" lon="6.28271">
        <ele>257.7002</ele>
        <time>2026-05-18T09:02:38+02:00</time>
      </trkpt>
      <trkpt lat="48.44148" lon="6.28275">
        <ele>258.2002</ele>
        <time>2026-05-18T09:02:39+02:00</time>
      </trkpt>
      <trkpt lat="48.44154" lon="6.28278">
        <ele>258</ele>
        <time>2026-05-18T09:02:40+02:00</time>
      </trkpt>
      <trkpt lat="48.44159" lon="6.28281">
        <ele>258.1006</ele>
        <time>2026-05-18T09:02:41+02:00</time>
      </trkpt>
      <trkpt lat="48.44165" lon="6.28286">
        <ele>257.7998</ele>
        <time>2026-05-18T09:02:42+02:00</time>
      </trkpt>
      <trkpt lat="48.4417" lon="6.28289">
        <ele>257.6006</ele>
        <time>2026-05-18T09:02:43+02:00</time>
      </trkpt>
      <trkpt lat="48.44175" lon="6.28294">
        <ele>258.2002</ele>
        <time>2026-05-18T09:02:44+02:00</time>
      </trkpt>
      <trkpt lat="48.4418" lon="6.28298">
        <ele>258.9004</ele>
        <time>2026-05-18T09:02:45+02:00</time>
      </trkpt>
      <trkpt lat="48.44186" lon="6.28302">
        <ele>258.7998</ele>
        <time>2026-05-18T09:02:46+02:00</time>
      </trkpt>
      <trkpt lat="48.44192" lon="6.28306">
        <ele>258.7998</ele>
        <time>2026-05-18T09:02:47+02:00</time>
      </trkpt>
      <trkpt lat="48.44198" lon="6.2831">
        <ele>259.2002</ele>
        <time>2026-05-18T09:02:48+02:00</time>
      </trkpt>
      <trkpt lat="48.44203" lon="6.28314">
        <ele>259</ele>
        <time>2026-05-18T09:02:49+02:00</time>
      </trkpt>
      <trkpt lat="48.44208" lon="6.28317">
        <ele>259.2002</ele>
        <time>2026-05-18T09:02:50+02:00</time>
      </trkpt>
      <trkpt lat="48.44212" lon="6.2832">
        <ele>259.2002</ele>
        <time>2026-05-18T09:02:51+02:00</time>
      </trkpt>
      <trkpt lat="48.44218" lon="6.28324">
        <ele>259.6006</ele>
        <time>2026-05-18T09:02:52+02:00</time>
      </trkpt>
      <trkpt lat="48.44222" lon="6.28327">
        <ele>259.7002</ele>
        <time>2026-05-18T09:02:53+02:00</time>
      </trkpt>
      <trkpt lat="48.44228" lon="6.28331">
        <ele>259.9004</ele>
        <time>2026-05-18T09:02:54+02:00</time>
      </trkpt>
      <trkpt lat="48.44233" lon="6.28335">
        <ele>259.6006</ele>
        <time>2026-05-18T09:02:55+02:00</time>
      </trkpt>
      <trkpt lat="48.44238" lon="6.28339">
        <ele>259.1006</ele>
        <time>2026-05-18T09:02:56+02:00</time>
      </trkpt>
      <trkpt lat="48.44244" lon="6.28343">
        <ele>258.7002</ele>
        <time>2026-05-18T09:02:57+02:00</time>
      </trkpt>
      <trkpt lat="48.44249" lon="6.28347">
        <ele>258.2002</ele>
        <time>2026-05-18T09:02:58+02:00</time>
      </trkpt>
      <trkpt lat="48.44255" lon="6.28351">
        <ele>258.4004</ele>
        <time>2026-05-18T09:02:59+02:00</time>
      </trkpt>
      <trkpt lat="48.44261" lon="6.28355">
        <ele>257.6006</ele>
        <time>2026-05-18T09:03:00+02:00</time>
      </trkpt>
      <trkpt lat="48.44265" lon="6.28359">
        <ele>257.6006</ele>
        <time>2026-05-18T09:03:01+02:00</time>
      </trkpt>
      <trkpt lat="48.44271" lon="6.28364">
        <ele>256.7998</ele>
        <time>2026-05-18T09:03:02+02:00</time>
      </trkpt>
      <trkpt lat="48.44276" lon="6.28367">
        <ele>258.2002</ele>
        <time>2026-05-18T09:03:03+02:00</time>
      </trkpt>
      <trkpt lat="48.44282" lon="6.28371">
        <ele>257.9004</ele>
        <time>2026-05-18T09:03:04+02:00</time>
      </trkpt>
      <trkpt lat="48.44287" lon="6.28375">
        <ele>257.5</ele>
        <time>2026-05-18T09:03:05+02:00</time>
      </trkpt>
      <trkpt lat="48.44292" lon="6.28378">
        <ele>259.2002</ele>
        <time>2026-05-18T09:03:06+02:00</time>
      </trkpt>
      <trkpt lat="48.44296" lon="6.2838">
        <ele>258.6006</ele>
        <time>2026-05-18T09:03:07+02:00</time>
      </trkpt>
      <trkpt lat="48.44301" lon="6.28383">
        <ele>257.7998</ele>
        <time>2026-05-18T09:03:08+02:00</time>
      </trkpt>
      <trkpt lat="48.44305" lon="6.28387">
        <ele>258.2002</ele>
        <time>2026-05-18T09:03:09+02:00</time>
      </trkpt>
      <trkpt lat="48.4431" lon="6.2839">
        <ele>257.2998</ele>
        <time>2026-05-18T09:03:10+02:00</time>
      </trkpt>
      <trkpt lat="48.44315" lon="6.28393">
        <ele>259</ele>
        <time>2026-05-18T09:03:11+02:00</time>
      </trkpt>
      <trkpt lat="48.4432" lon="6.28397">
        <ele>258.6006</ele>
        <time>2026-05-18T09:03:12+02:00</time>
      </trkpt>
      <trkpt lat="48.44325" lon="6.28401">
        <ele>260.2998</ele>
        <time>2026-05-18T09:03:13+02:00</time>
      </trkpt>
      <trkpt lat="48.44331" lon="6.28405">
        <ele>259.9004</ele>
        <time>2026-05-18T09:03:14+02:00</time>
      </trkpt>
      <trkpt lat="48.44336" lon="6.28409">
        <ele>259.5</ele>
        <time>2026-05-18T09:03:15+02:00</time>
      </trkpt>
      <trkpt lat="48.44341" lon="6.28413">
        <ele>260.5</ele>
        <time>2026-05-18T09:03:16+02:00</time>
      </trkpt>
      <trkpt lat="48.44346" lon="6.28417">
        <ele>259.4004</ele>
        <time>2026-05-18T09:03:17+02:00</time>
      </trkpt>
      <trkpt lat="48.44352" lon="6.2842">
        <ele>259.7998</ele>
        <time>2026-05-18T09:03:18+02:00</time>
      </trkpt>
      <trkpt lat="48.44356" lon="6.28425">
        <ele>258.6006</ele>
        <time>2026-05-18T09:03:19+02:00</time>
      </trkpt>
      <trkpt lat="48.44362" lon="6.2843">
        <ele>259.6006</ele>
        <time>2026-05-18T09:03:20+02:00</time>
      </trkpt>
      <trkpt lat="48.44367" lon="6.28434">
        <ele>258.6006</ele>
        <time>2026-05-18T09:03:21+02:00</time>
      </trkpt>
      <trkpt lat="48.44372" lon="6.28438">
        <ele>258.9004</ele>
        <time>2026-05-18T09:03:22+02:00</time>
      </trkpt>
      <trkpt lat="48.44377" lon="6.28443">
        <ele>258.9004</ele>
        <time>2026-05-18T09:03:23+02:00</time>
      </trkpt>
      <trkpt lat="48.44381" lon="6.28449">
        <ele>258.5</ele>
        <time>2026-05-18T09:03:24+02:00</time>
      </trkpt>
      <trkpt lat="48.44386" lon="6.28453">
        <ele>258.2998</ele>
        <time>2026-05-18T09:03:25+02:00</time>
      </trkpt>
      <trkpt lat="48.4439" lon="6.28458">
        <ele>257</ele>
        <time>2026-05-18T09:03:26+02:00</time>
      </trkpt>
      <trkpt lat="48.44395" lon="6.28464">
        <ele>257.6006</ele>
        <time>2026-05-18T09:03:27+02:00</time>
      </trkpt>
      <trkpt lat="48.44399" lon="6.28469">
        <ele>257.6006</ele>
        <time>2026-05-18T09:03:28+02:00</time>
      </trkpt>
      <trkpt lat="48.44403" lon="6.28474">
        <ele>257.5</ele>
        <time>2026-05-18T09:03:29+02:00</time>
      </trkpt>
      <trkpt lat="48.44407" lon="6.2848">
        <ele>257</ele>
        <time>2026-05-18T09:03:30+02:00</time>
      </trkpt>
      <trkpt lat="48.44411" lon="6.28486">
        <ele>257</ele>
        <time>2026-05-18T09:03:31+02:00</time>
      </trkpt>
      <trkpt lat="48.44415" lon="6.28492">
        <ele>257.2998</ele>
        <time>2026-05-18T09:03:32+02:00</time>
      </trkpt>
      <trkpt lat="48.44418" lon="6.28499">
        <ele>257.7998</ele>
        <time>2026-05-18T09:03:33+02:00</time>
      </trkpt>
      <trkpt lat="48.44422" lon="6.28505">
        <ele>258.9004</ele>
        <time>2026-05-18T09:03:34+02:00</time>
      </trkpt>
      <trkpt lat="48.44426" lon="6.28512">
        <ele>257.6006</ele>
        <time>2026-05-18T09:03:35+02:00</time>
      </trkpt>
      <trkpt lat="48.4443" lon="6.28518">
        <ele>257.2002</ele>
        <time>2026-05-18T09:03:36+02:00</time>
      </trkpt>
      <trkpt lat="48.44434" lon="6.28525">
        <ele>258.5</ele>
        <time>2026-05-18T09:03:37+02:00</time>
      </trkpt>
      <trkpt lat="48.44438" lon="6.28532">
        <ele>258.7002</ele>
        <time>2026-05-18T09:03:38+02:00</time>
      </trkpt>
      <trkpt lat="48.44441" lon="6.28538">
        <ele>257.7002</ele>
        <time>2026-05-18T09:03:39+02:00</time>
      </trkpt>
      <trkpt lat="48.44446" lon="6.28546">
        <ele>257.6006</ele>
        <time>2026-05-18T09:03:40+02:00</time>
      </trkpt>
      <trkpt lat="48.44449" lon="6.28552">
        <ele>258.2998</ele>
        <time>2026-05-18T09:03:41+02:00</time>
      </trkpt>
      <trkpt lat="48.44454" lon="6.28558">
        <ele>258.2998</ele>
        <time>2026-05-18T09:03:42+02:00</time>
      </trkpt>
      <trkpt lat="48.44458" lon="6.28566">
        <ele>258.4004</ele>
        <time>2026-05-18T09:03:43+02:00</time>
      </trkpt>
      <trkpt lat="48.44462" lon="6.28572">
        <ele>258.4004</ele>
        <time>2026-05-18T09:03:44+02:00</time>
      </trkpt>
      <trkpt lat="48.44466" lon="6.28579">
        <ele>258.4004</ele>
        <time>2026-05-18T09:03:45+02:00</time>
      </trkpt>
      <trkpt lat="48.4447" lon="6.28586">
        <ele>258.1006</ele>
        <time>2026-05-18T09:03:46+02:00</time>
      </trkpt>
      <trkpt lat="48.44473" lon="6.28592">
        <ele>258.7002</ele>
        <time>2026-05-18T09:03:47+02:00</time>
      </trkpt>
      <trkpt lat="48.44478" lon="6.28598">
        <ele>258.1006</ele>
        <time>2026-05-18T09:03:48+02:00</time>
      </trkpt>
      <trkpt lat="48.44481" lon="6.28605">
        <ele>258.2002</ele>
        <time>2026-05-18T09:03:49+02:00</time>
      </trkpt>
      <trkpt lat="48.44484" lon="6.28611">
        <ele>258.7002</ele>
        <time>2026-05-18T09:03:50+02:00</time>
      </trkpt>
      <trkpt lat="48.44488" lon="6.28618">
        <ele>258.5</ele>
        <time>2026-05-18T09:03:51+02:00</time>
      </trkpt>
      <trkpt lat="48.44492" lon="6.28623">
        <ele>257.9004</ele>
        <time>2026-05-18T09:03:52+02:00</time>
      </trkpt>
      <trkpt lat="48.44495" lon="6.28629">
        <ele>258.4004</ele>
        <time>2026-05-18T09:03:53+02:00</time>
      </trkpt>
      <trkpt lat="48.44499" lon="6.28635">
        <ele>258.5</ele>
        <time>2026-05-18T09:03:54+02:00</time>
      </trkpt>
      <trkpt lat="48.44502" lon="6.28642">
        <ele>259.2002</ele>
        <time>2026-05-18T09:03:55+02:00</time>
      </trkpt>
      <trkpt lat="48.44506" lon="6.28648">
        <ele>258.7002</ele>
        <time>2026-05-18T09:03:56+02:00</time>
      </trkpt>
      <trkpt lat="48.4451" lon="6.28655">
        <ele>258.2998</ele>
        <time>2026-05-18T09:03:57+02:00</time>
      </trkpt>
      <trkpt lat="48.44512" lon="6.28658">
        <ele>258.2998</ele>
        <time>2026-05-18T09:03:58+02:00</time>
      </trkpt>
      <trkpt lat="48.44518" lon="6.28668">
        <ele>258.2002</ele>
        <time>2026-05-18T09:03:59+02:00</time>
      </trkpt>
      <trkpt lat="48.44522" lon="6.28674">
        <ele>257.7002</ele>
        <time>2026-05-18T09:04:00+02:00</time>
      </trkpt>
      <trkpt lat="48.44526" lon="6.28679">
        <ele>257.5</ele>
        <time>2026-05-18T09:04:01+02:00</time>
      </trkpt>
      <trkpt lat="48.44531" lon="6.28684">
        <ele>257.5</ele>
        <time>2026-05-18T09:04:02+02:00</time>
      </trkpt>
      <trkpt lat="48.44535" lon="6.28689">
        <ele>257.1006</ele>
        <time>2026-05-18T09:04:03+02:00</time>
      </trkpt>
      <trkpt lat="48.44539" lon="6.28694">
        <ele>256.7002</ele>
        <time>2026-05-18T09:04:04+02:00</time>
      </trkpt>
      <trkpt lat="48.44544" lon="6.28699">
        <ele>256.4004</ele>
        <time>2026-05-18T09:04:05+02:00</time>
      </trkpt>
      <trkpt lat="48.44549" lon="6.28704">
        <ele>256.4004</ele>
        <time>2026-05-18T09:04:06+02:00</time>
      </trkpt>
      <trkpt lat="48.44554" lon="6.2871">
        <ele>256.6006</ele>
        <time>2026-05-18T09:04:07+02:00</time>
      </trkpt>
      <trkpt lat="48.44559" lon="6.28715">
        <ele>256.6006</ele>
        <time>2026-05-18T09:04:08+02:00</time>
      </trkpt>
      <trkpt lat="48.44564" lon="6.2872">
        <ele>256.5</ele>
        <time>2026-05-18T09:04:09+02:00</time>
      </trkpt>
      <trkpt lat="48.4457" lon="6.28725">
        <ele>256.2998</ele>
        <time>2026-05-18T09:04:10+02:00</time>
      </trkpt>
      <trkpt lat="48.44575" lon="6.2873">
        <ele>255.7998</ele>
        <time>2026-05-18T09:04:11+02:00</time>
      </trkpt>
      <trkpt lat="48.44581" lon="6.28735">
        <ele>255.40039</ele>
        <time>2026-05-18T09:04:12+02:00</time>
      </trkpt>
      <trkpt lat="48.44586" lon="6.28739">
        <ele>255.10059</ele>
        <time>2026-05-18T09:04:13+02:00</time>
      </trkpt>
      <trkpt lat="48.44591" lon="6.28744">
        <ele>254.7998</ele>
        <time>2026-05-18T09:04:14+02:00</time>
      </trkpt>
      <trkpt lat="48.44596" lon="6.28748">
        <ele>254.5</ele>
        <time>2026-05-18T09:04:15+02:00</time>
      </trkpt>
      <trkpt lat="48.44601" lon="6.28753">
        <ele>254</ele>
        <time>2026-05-18T09:04:16+02:00</time>
      </trkpt>
      <trkpt lat="48.44606" lon="6.28757">
        <ele>253.7002</ele>
        <time>2026-05-18T09:04:17+02:00</time>
      </trkpt>
      <trkpt lat="48.44611" lon="6.28761">
        <ele>253.7002</ele>
        <time>2026-05-18T09:04:18+02:00</time>
      </trkpt>
      <trkpt lat="48.44616" lon="6.28765">
        <ele>253.5</ele>
        <time>2026-05-18T09:04:19+02:00</time>
      </trkpt>
      <trkpt lat="48.4462" lon="6.28768">
        <ele>253.40039</ele>
        <time>2026-05-18T09:04:20+02:00</time>
      </trkpt>
      <trkpt lat="48.44625" lon="6.28772">
        <ele>253.2002</ele>
        <time>2026-05-18T09:04:21+02:00</time>
      </trkpt>
      <trkpt lat="48.4463" lon="6.28776">
        <ele>253.10059</ele>
        <time>2026-05-18T09:04:22+02:00</time>
      </trkpt>
      <trkpt lat="48.44632" lon="6.28778">
        <ele>253.10059</ele>
        <time>2026-05-18T09:04:23+02:00</time>
      </trkpt>
      <trkpt lat="48.4464" lon="6.28783">
        <ele>252.2998</ele>
        <time>2026-05-18T09:04:24+02:00</time>
      </trkpt>
      <trkpt lat="48.44645" lon="6.28787">
        <ele>252.2998</ele>
        <time>2026-05-18T09:04:25+02:00</time>
      </trkpt>
      <trkpt lat="48.4465" lon="6.28792">
        <ele>252.10059</ele>
        <time>2026-05-18T09:04:26+02:00</time>
      </trkpt>
      <trkpt lat="48.44655" lon="6.28796">
        <ele>252</ele>
        <time>2026-05-18T09:04:27+02:00</time>
      </trkpt>
      <trkpt lat="48.44661" lon="6.28801">
        <ele>251.7998</ele>
        <time>2026-05-18T09:04:28+02:00</time>
      </trkpt>
      <trkpt lat="48.44663" lon="6.28803">
        <ele>251.60059</ele>
        <time>2026-05-18T09:04:29+02:00</time>
      </trkpt>
      <trkpt lat="48.44672" lon="6.28811">
        <ele>251.60059</ele>
        <time>2026-05-18T09:04:30+02:00</time>
      </trkpt>
      <trkpt lat="48.44677" lon="6.28815">
        <ele>251.60059</ele>
        <time>2026-05-18T09:04:31+02:00</time>
      </trkpt>
      <trkpt lat="48.44683" lon="6.2882">
        <ele>251.60059</ele>
        <time>2026-05-18T09:04:32+02:00</time>
      </trkpt>
      <trkpt lat="48.44689" lon="6.28823">
        <ele>251.7998</ele>
        <time>2026-05-18T09:04:33+02:00</time>
      </trkpt>
      <trkpt lat="48.44695" lon="6.28827">
        <ele>251.90039</ele>
        <time>2026-05-18T09:04:34+02:00</time>
      </trkpt>
      <trkpt lat="48.44698" lon="6.28828">
        <ele>252</ele>
        <time>2026-05-18T09:04:35+02:00</time>
      </trkpt>
      <trkpt lat="48.44706" lon="6.28834">
        <ele>252</ele>
        <time>2026-05-18T09:04:36+02:00</time>
      </trkpt>
      <trkpt lat="48.44711" lon="6.28839">
        <ele>251.90039</ele>
        <time>2026-05-18T09:04:37+02:00</time>
      </trkpt>
      <trkpt lat="48.44715" lon="6.28844">
        <ele>251.7002</ele>
        <time>2026-05-18T09:04:38+02:00</time>
      </trkpt>
      <trkpt lat="48.44719" lon="6.28849">
        <ele>252</ele>
        <time>2026-05-18T09:04:39+02:00</time>
      </trkpt>
      <trkpt lat="48.44722" lon="6.28853">
        <ele>251.7998</ele>
        <time>2026-05-18T09:04:40+02:00</time>
      </trkpt>
      <trkpt lat="48.44724" lon="6.28857">
        <ele>252</ele>
        <time>2026-05-18T09:04:41+02:00</time>
      </trkpt>
      <trkpt lat="48.44726" lon="6.2886">
        <ele>251.90039</ele>
        <time>2026-05-18T09:04:42+02:00</time>
      </trkpt>
      <trkpt lat="48.4473" lon="6.28867">
        <ele>252.10059</ele>
        <time>2026-05-18T09:04:43+02:00</time>
      </trkpt>
      <trkpt lat="48.44734" lon="6.28872">
        <ele>252</ele>
        <time>2026-05-18T09:04:44+02:00</time>
      </trkpt>
      <trkpt lat="48.44739" lon="6.28877">
        <ele>252.2998</ele>
        <time>2026-05-18T09:04:45+02:00</time>
      </trkpt>
      <trkpt lat="48.44743" lon="6.28882">
        <ele>252.60059</ele>
        <time>2026-05-18T09:04:46+02:00</time>
      </trkpt>
      <trkpt lat="48.44748" lon="6.28886">
        <ele>252.5</ele>
        <time>2026-05-18T09:04:47+02:00</time>
      </trkpt>
      <trkpt lat="48.44753" lon="6.2889">
        <ele>252.5</ele>
        <time>2026-05-18T09:04:48+02:00</time>
      </trkpt>
      <trkpt lat="48.44759" lon="6.28894">
        <ele>252.7998</ele>
        <time>2026-05-18T09:04:49+02:00</time>
      </trkpt>
      <trkpt lat="48.44764" lon="6.28898">
        <ele>252.60059</ele>
        <time>2026-05-18T09:04:50+02:00</time>
      </trkpt>
      <trkpt lat="48.44769" lon="6.28902">
        <ele>252.7002</ele>
        <time>2026-05-18T09:04:51+02:00</time>
      </trkpt>
      <trkpt lat="48.44775" lon="6.28906">
        <ele>252.40039</ele>
        <time>2026-05-18T09:04:52+02:00</time>
      </trkpt>
      <trkpt lat="48.4478" lon="6.28911">
        <ele>252.60059</ele>
        <time>2026-05-18T09:04:53+02:00</time>
      </trkpt>
      <trkpt lat="48.44786" lon="6.28915">
        <ele>252.5</ele>
        <time>2026-05-18T09:04:54+02:00</time>
      </trkpt>
      <trkpt lat="48.44791" lon="6.2892">
        <ele>252.7002</ele>
        <time>2026-05-18T09:04:55+02:00</time>
      </trkpt>
      <trkpt lat="48.44796" lon="6.28924">
        <ele>252.60059</ele>
        <time>2026-05-18T09:04:56+02:00</time>
      </trkpt>
      <trkpt lat="48.44801" lon="6.28928">
        <ele>252.90039</ele>
        <time>2026-05-18T09:04:57+02:00</time>
      </trkpt>
      <trkpt lat="48.44806" lon="6.28933">
        <ele>252.90039</ele>
        <time>2026-05-18T09:04:58+02:00</time>
      </trkpt>
      <trkpt lat="48.44811" lon="6.28937">
        <ele>252.7998</ele>
        <time>2026-05-18T09:04:59+02:00</time>
      </trkpt>
      <trkpt lat="48.44816" lon="6.28941">
        <ele>252.7998</ele>
        <time>2026-05-18T09:05:00+02:00</time>
      </trkpt>
      <trkpt lat="48.44821" lon="6.28944">
        <ele>252.7998</ele>
        <time>2026-05-18T09:05:01+02:00</time>
      </trkpt>
      <trkpt lat="48.44825" lon="6.28948">
        <ele>252.7998</ele>
        <time>2026-05-18T09:05:02+02:00</time>
      </trkpt>
      <trkpt lat="48.4483" lon="6.28952">
        <ele>253</ele>
        <time>2026-05-18T09:05:03+02:00</time>
      </trkpt>
      <trkpt lat="48.44834" lon="6.28956">
        <ele>253</ele>
        <time>2026-05-18T09:05:04+02:00</time>
      </trkpt>
      <trkpt lat="48.44839" lon="6.2896">
        <ele>253.40039</ele>
        <time>2026-05-18T09:05:05+02:00</time>
      </trkpt>
      <trkpt lat="48.44844" lon="6.28964">
        <ele>253.40039</ele>
        <time>2026-05-18T09:05:06+02:00</time>
      </trkpt>
      <trkpt lat="48.44849" lon="6.28969">
        <ele>253.60059</ele>
        <time>2026-05-18T09:05:07+02:00</time>
      </trkpt>
      <trkpt lat="48.44854" lon="6.28973">
        <ele>253.5</ele>
        <time>2026-05-18T09:05:08+02:00</time>
      </trkpt>
      <trkpt lat="48.44858" lon="6.28977">
        <ele>253.60059</ele>
        <time>2026-05-18T09:05:09+02:00</time>
      </trkpt>
      <trkpt lat="48.44862" lon="6.28981">
        <ele>253.5</ele>
        <time>2026-05-18T09:05:10+02:00</time>
      </trkpt>
      <trkpt lat="48.44867" lon="6.28986">
        <ele>253.7998</ele>
        <time>2026-05-18T09:05:11+02:00</time>
      </trkpt>
      <trkpt lat="48.44872" lon="6.2899">
        <ele>253.90039</ele>
        <time>2026-05-18T09:05:12+02:00</time>
      </trkpt>
      <trkpt lat="48.44877" lon="6.28995">
        <ele>254.2998</ele>
        <time>2026-05-18T09:05:13+02:00</time>
      </trkpt>
      <trkpt lat="48.44882" lon="6.28999">
        <ele>254.5</ele>
        <time>2026-05-18T09:05:14+02:00</time>
      </trkpt>
      <trkpt lat="48.44887" lon="6.29003">
        <ele>254.90039</ele>
        <time>2026-05-18T09:05:15+02:00</time>
      </trkpt>
      <trkpt lat="48.44891" lon="6.29006">
        <ele>254.7998</ele>
        <time>2026-05-18T09:05:16+02:00</time>
      </trkpt>
      <trkpt lat="48.44896" lon="6.2901">
        <ele>254.7002</ele>
        <time>2026-05-18T09:05:17+02:00</time>
      </trkpt>
      <trkpt lat="48.44902" lon="6.29014">
        <ele>254.7998</ele>
        <time>2026-05-18T09:05:18+02:00</time>
      </trkpt>
      <trkpt lat="48.44906" lon="6.29018">
        <ele>254.7998</ele>
        <time>2026-05-18T09:05:19+02:00</time>
      </trkpt>
      <trkpt lat="48.44911" lon="6.29022">
        <ele>255</ele>
        <time>2026-05-18T09:05:20+02:00</time>
      </trkpt>
      <trkpt lat="48.44917" lon="6.29027">
        <ele>255</ele>
        <time>2026-05-18T09:05:21+02:00</time>
      </trkpt>
      <trkpt lat="48.44922" lon="6.29031">
        <ele>255.5</ele>
        <time>2026-05-18T09:05:22+02:00</time>
      </trkpt>
      <trkpt lat="48.44928" lon="6.29035">
        <ele>255.7002</ele>
        <time>2026-05-18T09:05:23+02:00</time>
      </trkpt>
      <trkpt lat="48.44933" lon="6.29039">
        <ele>255.90039</ele>
        <time>2026-05-18T09:05:24+02:00</time>
      </trkpt>
      <trkpt lat="48.4494" lon="6.29043">
        <ele>255.7998</ele>
        <time>2026-05-18T09:05:25+02:00</time>
      </trkpt>
      <trkpt lat="48.44945" lon="6.29047">
        <ele>255.7002</ele>
        <time>2026-05-18T09:05:26+02:00</time>
      </trkpt>
      <trkpt lat="48.4495" lon="6.2905">
        <ele>255.40039</ele>
        <time>2026-05-18T09:05:27+02:00</time>
      </trkpt>
      <trkpt lat="48.44956" lon="6.29054">
        <ele>255.40039</ele>
        <time>2026-05-18T09:05:28+02:00</time>
      </trkpt>
      <trkpt lat="48.44961" lon="6.29058">
        <ele>255.2998</ele>
        <time>2026-05-18T09:05:29+02:00</time>
      </trkpt>
      <trkpt lat="48.44967" lon="6.29061">
        <ele>255.40039</ele>
        <time>2026-05-18T09:05:30+02:00</time>
      </trkpt>
      <trkpt lat="48.44972" lon="6.29063">
        <ele>255.5</ele>
        <time>2026-05-18T09:05:31+02:00</time>
      </trkpt>
      <trkpt lat="48.44978" lon="6.29066">
        <ele>255.40039</ele>
        <time>2026-05-18T09:05:32+02:00</time>
      </trkpt>
      <trkpt lat="48.44983" lon="6.29069">
        <ele>255.2998</ele>
        <time>2026-05-18T09:05:33+02:00</time>
      </trkpt>
      <trkpt lat="48.44989" lon="6.29072">
        <ele>255</ele>
        <time>2026-05-18T09:05:34+02:00</time>
      </trkpt>
      <trkpt lat="48.44994" lon="6.29075">
        <ele>254.60059</ele>
        <time>2026-05-18T09:05:35+02:00</time>
      </trkpt>
      <trkpt lat="48.44999" lon="6.29078">
        <ele>254.2998</ele>
        <time>2026-05-18T09:05:36+02:00</time>
      </trkpt>
      <trkpt lat="48.45004" lon="6.29081">
        <ele>254.2998</ele>
        <time>2026-05-18T09:05:37+02:00</time>
      </trkpt>
      <trkpt lat="48.4501" lon="6.29084">
        <ele>254.10059</ele>
        <time>2026-05-18T09:05:38+02:00</time>
      </trkpt>
      <trkpt lat="48.45015" lon="6.29087">
        <ele>254.10059</ele>
        <time>2026-05-18T09:05:39+02:00</time>
      </trkpt>
      <trkpt lat="48.45021" lon="6.29089">
        <ele>254</ele>
        <time>2026-05-18T09:05:40+02:00</time>
      </trkpt>
      <trkpt lat="48.45027" lon="6.29092">
        <ele>253.7998</ele>
        <time>2026-05-18T09:05:41+02:00</time>
      </trkpt>
      <trkpt lat="48.45033" lon="6.29094">
        <ele>253.60059</ele>
        <time>2026-05-18T09:05:42+02:00</time>
      </trkpt>
      <trkpt lat="48.45039" lon="6.29095">
        <ele>253.40039</ele>
        <time>2026-05-18T09:05:43+02:00</time>
      </trkpt>
      <trkpt lat="48.45044" lon="6.29097">
        <ele>253.2998</ele>
        <time>2026-05-18T09:05:44+02:00</time>
      </trkpt>
      <trkpt lat="48.45048" lon="6.29098">
        <ele>253.2998</ele>
        <time>2026-05-18T09:05:45+02:00</time>
      </trkpt>
      <trkpt lat="48.45056" lon="6.29099">
        <ele>253.2002</ele>
        <time>2026-05-18T09:05:46+02:00</time>
      </trkpt>
      <trkpt lat="48.45062" lon="6.291">
        <ele>253.10059</ele>
        <time>2026-05-18T09:05:47+02:00</time>
      </trkpt>
      <trkpt lat="48.45067" lon="6.29103">
        <ele>253</ele>
        <time>2026-05-18T09:05:48+02:00</time>
      </trkpt>
      <trkpt lat="48.45072" lon="6.29106">
        <ele>253.2998</ele>
        <time>2026-05-18T09:05:49+02:00</time>
      </trkpt>
      <trkpt lat="48.45077" lon="6.29109">
        <ele>253.2002</ele>
        <time>2026-05-18T09:05:50+02:00</time>
      </trkpt>
      <trkpt lat="48.45082" lon="6.29111">
        <ele>253.10059</ele>
        <time>2026-05-18T09:05:51+02:00</time>
      </trkpt>
      <trkpt lat="48.45088" lon="6.29113">
        <ele>252.90039</ele>
        <time>2026-05-18T09:05:52+02:00</time>
      </trkpt>
      <trkpt lat="48.45093" lon="6.29114">
        <ele>253</ele>
        <time>2026-05-18T09:05:53+02:00</time>
      </trkpt>
      <trkpt lat="48.45098" lon="6.29116">
        <ele>252.7998</ele>
        <time>2026-05-18T09:05:54+02:00</time>
      </trkpt>
      <trkpt lat="48.45104" lon="6.29118">
        <ele>252.7002</ele>
        <time>2026-05-18T09:05:55+02:00</time>
      </trkpt>
      <trkpt lat="48.45109" lon="6.29119">
        <ele>252.60059</ele>
        <time>2026-05-18T09:05:56+02:00</time>
      </trkpt>
      <trkpt lat="48.45115" lon="6.29121">
        <ele>252.5</ele>
        <time>2026-05-18T09:05:57+02:00</time>
      </trkpt>
      <trkpt lat="48.4512" lon="6.29123">
        <ele>252.90039</ele>
        <time>2026-05-18T09:05:58+02:00</time>
      </trkpt>
      <trkpt lat="48.45126" lon="6.29125">
        <ele>252.7998</ele>
        <time>2026-05-18T09:05:59+02:00</time>
      </trkpt>
      <trkpt lat="48.45131" lon="6.29127">
        <ele>252.7998</ele>
        <time>2026-05-18T09:06:00+02:00</time>
      </trkpt>
      <trkpt lat="48.45136" lon="6.29129">
        <ele>252.7002</ele>
        <time>2026-05-18T09:06:01+02:00</time>
      </trkpt>
      <trkpt lat="48.45141" lon="6.2913">
        <ele>252.7002</ele>
        <time>2026-05-18T09:06:02+02:00</time>
      </trkpt>
      <trkpt lat="48.45147" lon="6.29132">
        <ele>253.2998</ele>
        <time>2026-05-18T09:06:03+02:00</time>
      </trkpt>
      <trkpt lat="48.45152" lon="6.29133">
        <ele>253.2998</ele>
        <time>2026-05-18T09:06:04+02:00</time>
      </trkpt>
      <trkpt lat="48.45157" lon="6.29135">
        <ele>253.40039</ele>
        <time>2026-05-18T09:06:05+02:00</time>
      </trkpt>
      <trkpt lat="48.45162" lon="6.29136">
        <ele>253.40039</ele>
        <time>2026-05-18T09:06:06+02:00</time>
      </trkpt>
      <trkpt lat="48.45167" lon="6.29138">
        <ele>253.2002</ele>
        <time>2026-05-18T09:06:07+02:00</time>
      </trkpt>
      <trkpt lat="48.45172" lon="6.2914">
        <ele>253.10059</ele>
        <time>2026-05-18T09:06:08+02:00</time>
      </trkpt>
      <trkpt lat="48.45177" lon="6.29142">
        <ele>252.7002</ele>
        <time>2026-05-18T09:06:09+02:00</time>
      </trkpt>
      <trkpt lat="48.45199" lon="6.29149">
        <ele>252.7998</ele>
        <time>2026-05-18T09:06:10+02:00</time>
      </trkpt>
      <trkpt lat="48.45205" lon="6.29151">
        <ele>252.7002</ele>
        <time>2026-05-18T09:06:11+02:00</time>
      </trkpt>
      <trkpt lat="48.45211" lon="6.29153">
        <ele>252.7002</ele>
        <time>2026-05-18T09:06:12+02:00</time>
      </trkpt>
      <trkpt lat="48.45216" lon="6.29154">
        <ele>252.60059</ele>
        <time>2026-05-18T09:06:13+02:00</time>
      </trkpt>
      <trkpt lat="48.45219" lon="6.29155">
        <ele>252.60059</ele>
        <time>2026-05-18T09:06:14+02:00</time>
      </trkpt>
      <trkpt lat="48.45227" lon="6.29157">
        <ele>252.90039</ele>
        <time>2026-05-18T09:06:15+02:00</time>
      </trkpt>
      <trkpt lat="48.45233" lon="6.29159">
        <ele>252.60059</ele>
        <time>2026-05-18T09:06:16+02:00</time>
      </trkpt>
      <trkpt lat="48.45235" lon="6.29159">
        <ele>252.60059</ele>
        <time>2026-05-18T09:06:17+02:00</time>
      </trkpt>
      <trkpt lat="48.45244" lon="6.29162">
        <ele>251.7998</ele>
        <time>2026-05-18T09:06:18+02:00</time>
      </trkpt>
      <trkpt lat="48.45249" lon="6.29164">
        <ele>251.40039</ele>
        <time>2026-05-18T09:06:19+02:00</time>
      </trkpt>
      <trkpt lat="48.45255" lon="6.29166">
        <ele>252</ele>
        <time>2026-05-18T09:06:20+02:00</time>
      </trkpt>
      <trkpt lat="48.4526" lon="6.29168">
        <ele>252</ele>
        <time>2026-05-18T09:06:21+02:00</time>
      </trkpt>
      <trkpt lat="48.45266" lon="6.29169">
        <ele>251.7998</ele>
        <time>2026-05-18T09:06:22+02:00</time>
      </trkpt>
      <trkpt lat="48.45271" lon="6.29171">
        <ele>251.7998</ele>
        <time>2026-05-18T09:06:23+02:00</time>
      </trkpt>
      <trkpt lat="48.45276" lon="6.29173">
        <ele>251.7002</ele>
        <time>2026-05-18T09:06:24+02:00</time>
      </trkpt>
      <trkpt lat="48.45282" lon="6.29175">
        <ele>252.40039</ele>
        <time>2026-05-18T09:06:25+02:00</time>
      </trkpt>
      <trkpt lat="48.45288" lon="6.29176">
        <ele>252.40039</ele>
        <time>2026-05-18T09:06:26+02:00</time>
      </trkpt>
      <trkpt lat="48.45294" lon="6.29178">
        <ele>252.40039</ele>
        <time>2026-05-18T09:06:27+02:00</time>
      </trkpt>
      <trkpt lat="48.45298" lon="6.2918">
        <ele>252.5</ele>
        <time>2026-05-18T09:06:28+02:00</time>
      </trkpt>
      <trkpt lat="48.45303" lon="6.29183">
        <ele>253.10059</ele>
        <time>2026-05-18T09:06:29+02:00</time>
      </trkpt>
      <trkpt lat="48.45307" lon="6.29188">
        <ele>253</ele>
        <time>2026-05-18T09:06:30+02:00</time>
      </trkpt>
      <trkpt lat="48.45312" lon="6.29192">
        <ele>253.2998</ele>
        <time>2026-05-18T09:06:31+02:00</time>
      </trkpt>
      <trkpt lat="48.45317" lon="6.29195">
        <ele>253.2998</ele>
        <time>2026-05-18T09:06:32+02:00</time>
      </trkpt>
      <trkpt lat="48.45323" lon="6.29198">
        <ele>252.90039</ele>
        <time>2026-05-18T09:06:33+02:00</time>
      </trkpt>
      <trkpt lat="48.45328" lon="6.29199">
        <ele>252.90039</ele>
        <time>2026-05-18T09:06:34+02:00</time>
      </trkpt>
      <trkpt lat="48.45333" lon="6.292">
        <ele>253.10059</ele>
        <time>2026-05-18T09:06:35+02:00</time>
      </trkpt>
      <trkpt lat="48.45337" lon="6.29201">
        <ele>252.90039</ele>
        <time>2026-05-18T09:06:36+02:00</time>
      </trkpt>
      <trkpt lat="48.45342" lon="6.29202">
        <ele>252.7002</ele>
        <time>2026-05-18T09:06:37+02:00</time>
      </trkpt>
      <trkpt lat="48.45345" lon="6.29202">
        <ele>252.7002</ele>
        <time>2026-05-18T09:06:38+02:00</time>
      </trkpt>
      <trkpt lat="48.45348" lon="6.29201">
        <ele>252.60059</ele>
        <time>2026-05-18T09:06:39+02:00</time>
      </trkpt>
      <trkpt lat="48.45351" lon="6.29203">
        <ele>252.60059</ele>
        <time>2026-05-18T09:06:40+02:00</time>
      </trkpt>
      <trkpt lat="48.45354" lon="6.29205">
        <ele>252.40039</ele>
        <time>2026-05-18T09:06:41+02:00</time>
      </trkpt>
      <trkpt lat="48.45357" lon="6.29208">
        <ele>252.90039</ele>
        <time>2026-05-18T09:06:42+02:00</time>
      </trkpt>
      <trkpt lat="48.45361" lon="6.2921">
        <ele>252.90039</ele>
        <time>2026-05-18T09:06:43+02:00</time>
      </trkpt>
      <trkpt lat="48.45365" lon="6.29212">
        <ele>252.7998</ele>
        <time>2026-05-18T09:06:44+02:00</time>
      </trkpt>
      <trkpt lat="48.4537" lon="6.29213">
        <ele>252.7002</ele>
        <time>2026-05-18T09:06:45+02:00</time>
      </trkpt>
      <trkpt lat="48.45375" lon="6.29212">
        <ele>252.7002</ele>
        <time>2026-05-18T09:06:46+02:00</time>
      </trkpt>
      <trkpt lat="48.45379" lon="6.29209">
        <ele>252.7002</ele>
        <time>2026-05-18T09:06:47+02:00</time>
      </trkpt>
      <trkpt lat="48.45384" lon="6.29204">
        <ele>252.2002</ele>
        <time>2026-05-18T09:06:48+02:00</time>
      </trkpt>
      <trkpt lat="48.45389" lon="6.29202">
        <ele>252.2002</ele>
        <time>2026-05-18T09:06:49+02:00</time>
      </trkpt>
      <trkpt lat="48.45394" lon="6.29202">
        <ele>252.2998</ele>
        <time>2026-05-18T09:06:50+02:00</time>
      </trkpt>
      <trkpt lat="48.45398" lon="6.29204">
        <ele>252.2998</ele>
        <time>2026-05-18T09:06:51+02:00</time>
      </trkpt>
      <trkpt lat="48.45403" lon="6.29206">
        <ele>252.40039</ele>
        <time>2026-05-18T09:06:52+02:00</time>
      </trkpt>
      <trkpt lat="48.45408" lon="6.29208">
        <ele>252.7998</ele>
        <time>2026-05-18T09:06:53+02:00</time>
      </trkpt>
      <trkpt lat="48.45414" lon="6.2921">
        <ele>252.5</ele>
        <time>2026-05-18T09:06:54+02:00</time>
      </trkpt>
      <trkpt lat="48.45419" lon="6.29212">
        <ele>252.5</ele>
        <time>2026-05-18T09:06:55+02:00</time>
      </trkpt>
      <trkpt lat="48.45425" lon="6.29214">
        <ele>252</ele>
        <time>2026-05-18T09:06:56+02:00</time>
      </trkpt>
      <trkpt lat="48.45431" lon="6.29216">
        <ele>250.90039</ele>
        <time>2026-05-18T09:06:57+02:00</time>
      </trkpt>
      <trkpt lat="48.45436" lon="6.29217">
        <ele>251.60059</ele>
        <time>2026-05-18T09:06:58+02:00</time>
      </trkpt>
      <trkpt lat="48.45439" lon="6.29219">
        <ele>251.40039</ele>
        <time>2026-05-18T09:06:59+02:00</time>
      </trkpt>
      <trkpt lat="48.45448" lon="6.29221">
        <ele>251.2998</ele>
        <time>2026-05-18T09:07:00+02:00</time>
      </trkpt>
      <trkpt lat="48.45454" lon="6.29223">
        <ele>251.2002</ele>
        <time>2026-05-18T09:07:01+02:00</time>
      </trkpt>
      <trkpt lat="48.45457" lon="6.29224">
        <ele>251.2002</ele>
        <time>2026-05-18T09:07:02+02:00</time>
      </trkpt>
      <trkpt lat="48.45466" lon="6.29227">
        <ele>251.60059</ele>
        <time>2026-05-18T09:07:03+02:00</time>
      </trkpt>
      <trkpt lat="48.45472" lon="6.29229">
        <ele>251.60059</ele>
        <time>2026-05-18T09:07:04+02:00</time>
      </trkpt>
      <trkpt lat="48.45478" lon="6.29231">
        <ele>251.60059</ele>
        <time>2026-05-18T09:07:05+02:00</time>
      </trkpt>
      <trkpt lat="48.45484" lon="6.29234">
        <ele>252</ele>
        <time>2026-05-18T09:07:06+02:00</time>
      </trkpt>
      <trkpt lat="48.4549" lon="6.29236">
        <ele>252</ele>
        <time>2026-05-18T09:07:07+02:00</time>
      </trkpt>
      <trkpt lat="48.45496" lon="6.29238">
        <ele>252</ele>
        <time>2026-05-18T09:07:08+02:00</time>
      </trkpt>
      <trkpt lat="48.45503" lon="6.2924">
        <ele>252</ele>
        <time>2026-05-18T09:07:09+02:00</time>
      </trkpt>
      <trkpt lat="48.45509" lon="6.29242">
        <ele>252</ele>
        <time>2026-05-18T09:07:10+02:00</time>
      </trkpt>
      <trkpt lat="48.45516" lon="6.29244">
        <ele>251.7998</ele>
        <time>2026-05-18T09:07:11+02:00</time>
      </trkpt>
      <trkpt lat="48.45522" lon="6.29247">
        <ele>251.40039</ele>
        <time>2026-05-18T09:07:12+02:00</time>
      </trkpt>
      <trkpt lat="48.45527" lon="6.29249">
        <ele>251.2002</ele>
        <time>2026-05-18T09:07:13+02:00</time>
      </trkpt>
      <trkpt lat="48.45534" lon="6.29251">
        <ele>251.5</ele>
        <time>2026-05-18T09:07:14+02:00</time>
      </trkpt>
      <trkpt lat="48.4554" lon="6.29253">
        <ele>251.5</ele>
        <time>2026-05-18T09:07:15+02:00</time>
      </trkpt>
      <trkpt lat="48.45546" lon="6.29255">
        <ele>251.40039</ele>
        <time>2026-05-18T09:07:16+02:00</time>
      </trkpt>
      <trkpt lat="48.45553" lon="6.29257">
        <ele>251.40039</ele>
        <time>2026-05-18T09:07:17+02:00</time>
      </trkpt>
      <trkpt lat="48.45559" lon="6.29259">
        <ele>251.40039</ele>
        <time>2026-05-18T09:07:18+02:00</time>
      </trkpt>
      <trkpt lat="48.45565" lon="6.29261">
        <ele>251.7002</ele>
        <time>2026-05-18T09:07:19+02:00</time>
      </trkpt>
      <trkpt lat="48.45571" lon="6.29263">
        <ele>251.60059</ele>
        <time>2026-05-18T09:07:20+02:00</time>
      </trkpt>
      <trkpt lat="48.45578" lon="6.29266">
        <ele>251.5</ele>
        <time>2026-05-18T09:07:21+02:00</time>
      </trkpt>
      <trkpt lat="48.45584" lon="6.29268">
        <ele>251.60059</ele>
        <time>2026-05-18T09:07:22+02:00</time>
      </trkpt>
      <trkpt lat="48.4559" lon="6.2927">
        <ele>251.2998</ele>
        <time>2026-05-18T09:07:23+02:00</time>
      </trkpt>
      <trkpt lat="48.45596" lon="6.29272">
        <ele>251.10059</ele>
        <time>2026-05-18T09:07:24+02:00</time>
      </trkpt>
      <trkpt lat="48.45602" lon="6.29273">
        <ele>250.90039</ele>
        <time>2026-05-18T09:07:25+02:00</time>
      </trkpt>
      <trkpt lat="48.45608" lon="6.29275">
        <ele>250.90039</ele>
        <time>2026-05-18T09:07:26+02:00</time>
      </trkpt>
      <trkpt lat="48.45613" lon="6.29276">
        <ele>250.90039</ele>
        <time>2026-05-18T09:07:27+02:00</time>
      </trkpt>
      <trkpt lat="48.45616" lon="6.29277">
        <ele>251.2998</ele>
        <time>2026-05-18T09:07:28+02:00</time>
      </trkpt>
      <trkpt lat="48.45625" lon="6.2928">
        <ele>251.2998</ele>
        <time>2026-05-18T09:07:29+02:00</time>
      </trkpt>
      <trkpt lat="48.4563" lon="6.29282">
        <ele>251.2998</ele>
        <time>2026-05-18T09:07:30+02:00</time>
      </trkpt>
      <trkpt lat="48.45636" lon="6.29284">
        <ele>251.2998</ele>
        <time>2026-05-18T09:07:31+02:00</time>
      </trkpt>
      <trkpt lat="48.45641" lon="6.29286">
        <ele>251.7002</ele>
        <time>2026-05-18T09:07:32+02:00</time>
      </trkpt>
      <trkpt lat="48.45648" lon="6.29288">
        <ele>251.7002</ele>
        <time>2026-05-18T09:07:33+02:00</time>
      </trkpt>
      <trkpt lat="48.45653" lon="6.2929">
        <ele>251.7002</ele>
        <time>2026-05-18T09:07:34+02:00</time>
      </trkpt>
      <trkpt lat="48.45659" lon="6.29292">
        <ele>251.7002</ele>
        <time>2026-05-18T09:07:35+02:00</time>
      </trkpt>
      <trkpt lat="48.45665" lon="6.29294">
        <ele>252.10059</ele>
        <time>2026-05-18T09:07:36+02:00</time>
      </trkpt>
      <trkpt lat="48.45671" lon="6.29296">
        <ele>252.10059</ele>
        <time>2026-05-18T09:07:37+02:00</time>
      </trkpt>
      <trkpt lat="48.45677" lon="6.29297">
        <ele>252.2002</ele>
        <time>2026-05-18T09:07:38+02:00</time>
      </trkpt>
      <trkpt lat="48.45682" lon="6.29299">
        <ele>252.10059</ele>
        <time>2026-05-18T09:07:39+02:00</time>
      </trkpt>
      <trkpt lat="48.45687" lon="6.293">
        <ele>252.10059</ele>
        <time>2026-05-18T09:07:40+02:00</time>
      </trkpt>
      <trkpt lat="48.4569" lon="6.29301">
        <ele>252</ele>
        <time>2026-05-18T09:07:41+02:00</time>
      </trkpt>
      <trkpt lat="48.45698" lon="6.29303">
        <ele>251.90039</ele>
        <time>2026-05-18T09:07:42+02:00</time>
      </trkpt>
      <trkpt lat="48.45702" lon="6.29304">
        <ele>251.7002</ele>
        <time>2026-05-18T09:07:43+02:00</time>
      </trkpt>
      <trkpt lat="48.45707" lon="6.29305">
        <ele>251.5</ele>
        <time>2026-05-18T09:07:44+02:00</time>
      </trkpt>
      <trkpt lat="48.45713" lon="6.29307">
        <ele>251.40039</ele>
        <time>2026-05-18T09:07:45+02:00</time>
      </trkpt>
      <trkpt lat="48.45718" lon="6.29309">
        <ele>251.2998</ele>
        <time>2026-05-18T09:07:46+02:00</time>
      </trkpt>
      <trkpt lat="48.45724" lon="6.29311">
        <ele>251.7002</ele>
        <time>2026-05-18T09:07:47+02:00</time>
      </trkpt>
      <trkpt lat="48.4573" lon="6.29314">
        <ele>251.7002</ele>
        <time>2026-05-18T09:07:48+02:00</time>
      </trkpt>
      <trkpt lat="48.45735" lon="6.29316">
        <ele>251.7002</ele>
        <time>2026-05-18T09:07:49+02:00</time>
      </trkpt>
      <trkpt lat="48.45741" lon="6.29317">
        <ele>251.7002</ele>
        <time>2026-05-18T09:07:50+02:00</time>
      </trkpt>
      <trkpt lat="48.45746" lon="6.29319">
        <ele>251.7002</ele>
        <time>2026-05-18T09:07:51+02:00</time>
      </trkpt>
      <trkpt lat="48.45749" lon="6.2932">
        <ele>252.10059</ele>
        <time>2026-05-18T09:07:52+02:00</time>
      </trkpt>
      <trkpt lat="48.45758" lon="6.29324">
        <ele>252.2002</ele>
        <time>2026-05-18T09:07:53+02:00</time>
      </trkpt>
      <trkpt lat="48.45764" lon="6.29326">
        <ele>252.2998</ele>
        <time>2026-05-18T09:07:54+02:00</time>
      </trkpt>
      <trkpt lat="48.45769" lon="6.29328">
        <ele>252.7002</ele>
        <time>2026-05-18T09:07:55+02:00</time>
      </trkpt>
      <trkpt lat="48.45775" lon="6.2933">
        <ele>252.60059</ele>
        <time>2026-05-18T09:07:56+02:00</time>
      </trkpt>
      <trkpt lat="48.45781" lon="6.29332">
        <ele>252.5</ele>
        <time>2026-05-18T09:07:57+02:00</time>
      </trkpt>
      <trkpt lat="48.45786" lon="6.29334">
        <ele>252.2998</ele>
        <time>2026-05-18T09:07:58+02:00</time>
      </trkpt>
      <trkpt lat="48.45791" lon="6.29336">
        <ele>252</ele>
        <time>2026-05-18T09:07:59+02:00</time>
      </trkpt>
      <trkpt lat="48.45796" lon="6.29337">
        <ele>252.5</ele>
        <time>2026-05-18T09:08:00+02:00</time>
      </trkpt>
      <trkpt lat="48.45802" lon="6.29339">
        <ele>252.40039</ele>
        <time>2026-05-18T09:08:01+02:00</time>
      </trkpt>
      <trkpt lat="48.45807" lon="6.29341">
        <ele>252.2998</ele>
        <time>2026-05-18T09:08:02+02:00</time>
      </trkpt>
      <trkpt lat="48.45814" lon="6.29343">
        <ele>252.2998</ele>
        <time>2026-05-18T09:08:03+02:00</time>
      </trkpt>
      <trkpt lat="48.45819" lon="6.29345">
        <ele>252.90039</ele>
        <time>2026-05-18T09:08:04+02:00</time>
      </trkpt>
      <trkpt lat="48.45825" lon="6.29347">
        <ele>252.7998</ele>
        <time>2026-05-18T09:08:05+02:00</time>
      </trkpt>
      <trkpt lat="48.45831" lon="6.29349">
        <ele>252.7998</ele>
        <time>2026-05-18T09:08:06+02:00</time>
      </trkpt>
      <trkpt lat="48.45836" lon="6.29351">
        <ele>252.7002</ele>
        <time>2026-05-18T09:08:07+02:00</time>
      </trkpt>
      <trkpt lat="48.45842" lon="6.29353">
        <ele>252.5</ele>
        <time>2026-05-18T09:08:08+02:00</time>
      </trkpt>
      <trkpt lat="48.45847" lon="6.29355">
        <ele>252.7998</ele>
        <time>2026-05-18T09:08:09+02:00</time>
      </trkpt>
      <trkpt lat="48.45853" lon="6.29357">
        <ele>252.5</ele>
        <time>2026-05-18T09:08:10+02:00</time>
      </trkpt>
      <trkpt lat="48.45859" lon="6.29359">
        <ele>252.10059</ele>
        <time>2026-05-18T09:08:11+02:00</time>
      </trkpt>
      <trkpt lat="48.45865" lon="6.29361">
        <ele>251.7998</ele>
        <time>2026-05-18T09:08:12+02:00</time>
      </trkpt>
      <trkpt lat="48.4587" lon="6.29363">
        <ele>252.40039</ele>
        <time>2026-05-18T09:08:13+02:00</time>
      </trkpt>
      <trkpt lat="48.45876" lon="6.29365">
        <ele>252.2002</ele>
        <time>2026-05-18T09:08:14+02:00</time>
      </trkpt>
      <trkpt lat="48.45882" lon="6.29367">
        <ele>252.10059</ele>
        <time>2026-05-18T09:08:15+02:00</time>
      </trkpt>
      <trkpt lat="48.45888" lon="6.29368">
        <ele>252</ele>
        <time>2026-05-18T09:08:16+02:00</time>
      </trkpt>
      <trkpt lat="48.45893" lon="6.29369">
        <ele>252</ele>
        <time>2026-05-18T09:08:17+02:00</time>
      </trkpt>
      <trkpt lat="48.45899" lon="6.29371">
        <ele>252.40039</ele>
        <time>2026-05-18T09:08:18+02:00</time>
      </trkpt>
      <trkpt lat="48.45904" lon="6.29373">
        <ele>252.40039</ele>
        <time>2026-05-18T09:08:19+02:00</time>
      </trkpt>
      <trkpt lat="48.45909" lon="6.29375">
        <ele>252.40039</ele>
        <time>2026-05-18T09:08:20+02:00</time>
      </trkpt>
      <trkpt lat="48.45915" lon="6.29377">
        <ele>252.40039</ele>
        <time>2026-05-18T09:08:21+02:00</time>
      </trkpt>
      <trkpt lat="48.45921" lon="6.29378">
        <ele>252.40039</ele>
        <time>2026-05-18T09:08:22+02:00</time>
      </trkpt>
      <trkpt lat="48.45927" lon="6.2938">
        <ele>252.7998</ele>
        <time>2026-05-18T09:08:23+02:00</time>
      </trkpt>
      <trkpt lat="48.45932" lon="6.29382">
        <ele>252.7998</ele>
        <time>2026-05-18T09:08:24+02:00</time>
      </trkpt>
      <trkpt lat="48.45938" lon="6.29384">
        <ele>252.7002</ele>
        <time>2026-05-18T09:08:25+02:00</time>
      </trkpt>
      <trkpt lat="48.45944" lon="6.29386">
        <ele>252.7002</ele>
        <time>2026-05-18T09:08:26+02:00</time>
      </trkpt>
      <trkpt lat="48.45949" lon="6.29387">
        <ele>252.7002</ele>
        <time>2026-05-18T09:08:27+02:00</time>
      </trkpt>
      <trkpt lat="48.45955" lon="6.29389">
        <ele>252.7998</ele>
        <time>2026-05-18T09:08:28+02:00</time>
      </trkpt>
      <trkpt lat="48.45961" lon="6.29391">
        <ele>252.7002</ele>
        <time>2026-05-18T09:08:29+02:00</time>
      </trkpt>
      <trkpt lat="48.45966" lon="6.29394">
        <ele>252.7002</ele>
        <time>2026-05-18T09:08:30+02:00</time>
      </trkpt>
      <trkpt lat="48.45972" lon="6.29395">
        <ele>252.2998</ele>
        <time>2026-05-18T09:08:31+02:00</time>
      </trkpt>
      <trkpt lat="48.45978" lon="6.29398">
        <ele>252.60059</ele>
        <time>2026-05-18T09:08:32+02:00</time>
      </trkpt>
      <trkpt lat="48.45984" lon="6.294">
        <ele>252.5</ele>
        <time>2026-05-18T09:08:33+02:00</time>
      </trkpt>
      <trkpt lat="48.45989" lon="6.29402">
        <ele>252.5</ele>
        <time>2026-05-18T09:08:34+02:00</time>
      </trkpt>
      <trkpt lat="48.45995" lon="6.29404">
        <ele>252.2002</ele>
        <time>2026-05-18T09:08:35+02:00</time>
      </trkpt>
      <trkpt lat="48.46001" lon="6.29406">
        <ele>252.60059</ele>
        <time>2026-05-18T09:08:36+02:00</time>
      </trkpt>
      <trkpt lat="48.46007" lon="6.29407">
        <ele>252.5</ele>
        <time>2026-05-18T09:08:37+02:00</time>
      </trkpt>
      <trkpt lat="48.46012" lon="6.29409">
        <ele>252.5</ele>
        <time>2026-05-18T09:08:38+02:00</time>
      </trkpt>
      <trkpt lat="48.46018" lon="6.29411">
        <ele>252.5</ele>
        <time>2026-05-18T09:08:39+02:00</time>
      </trkpt>
      <trkpt lat="48.46023" lon="6.29412">
        <ele>252.5</ele>
        <time>2026-05-18T09:08:40+02:00</time>
      </trkpt>
      <trkpt lat="48.46029" lon="6.29414">
        <ele>252.7998</ele>
        <time>2026-05-18T09:08:41+02:00</time>
      </trkpt>
      <trkpt lat="48.46034" lon="6.29416">
        <ele>252.7998</ele>
        <time>2026-05-18T09:08:42+02:00</time>
      </trkpt>
      <trkpt lat="48.46039" lon="6.29417">
        <ele>252.7002</ele>
        <time>2026-05-18T09:08:43+02:00</time>
      </trkpt>
      <trkpt lat="48.46045" lon="6.29418">
        <ele>252.5</ele>
        <time>2026-05-18T09:08:44+02:00</time>
      </trkpt>
      <trkpt lat="48.4605" lon="6.29419">
        <ele>252.2998</ele>
        <time>2026-05-18T09:08:45+02:00</time>
      </trkpt>
      <trkpt lat="48.46056" lon="6.29421">
        <ele>252.2002</ele>
        <time>2026-05-18T09:08:46+02:00</time>
      </trkpt>
      <trkpt lat="48.46061" lon="6.29423">
        <ele>252.2002</ele>
        <time>2026-05-18T09:08:47+02:00</time>
      </trkpt>
      <trkpt lat="48.46067" lon="6.29425">
        <ele>252</ele>
        <time>2026-05-18T09:08:48+02:00</time>
      </trkpt>
      <trkpt lat="48.46069" lon="6.29426">
        <ele>251.90039</ele>
        <time>2026-05-18T09:08:49+02:00</time>
      </trkpt>
      <trkpt lat="48.46077" lon="6.29428">
        <ele>251.7998</ele>
        <time>2026-05-18T09:08:50+02:00</time>
      </trkpt>
      <trkpt lat="48.46082" lon="6.2943">
        <ele>251.7002</ele>
        <time>2026-05-18T09:08:51+02:00</time>
      </trkpt>
      <trkpt lat="48.46088" lon="6.29432">
        <ele>251.7998</ele>
        <time>2026-05-18T09:08:52+02:00</time>
      </trkpt>
      <trkpt lat="48.46094" lon="6.29434">
        <ele>251.7998</ele>
        <time>2026-05-18T09:08:53+02:00</time>
      </trkpt>
      <trkpt lat="48.461" lon="6.29436">
        <ele>251.7002</ele>
        <time>2026-05-18T09:08:54+02:00</time>
      </trkpt>
      <trkpt lat="48.46105" lon="6.29438">
        <ele>251.60059</ele>
        <time>2026-05-18T09:08:55+02:00</time>
      </trkpt>
      <trkpt lat="48.46111" lon="6.2944">
        <ele>251.7002</ele>
        <time>2026-05-18T09:08:56+02:00</time>
      </trkpt>
      <trkpt lat="48.46117" lon="6.29442">
        <ele>251.60059</ele>
        <time>2026-05-18T09:08:57+02:00</time>
      </trkpt>
      <trkpt lat="48.46122" lon="6.29444">
        <ele>251.5</ele>
        <time>2026-05-18T09:08:58+02:00</time>
      </trkpt>
      <trkpt lat="48.46129" lon="6.29446">
        <ele>251.40039</ele>
        <time>2026-05-18T09:08:59+02:00</time>
      </trkpt>
      <trkpt lat="48.46134" lon="6.29449">
        <ele>251.5</ele>
        <time>2026-05-18T09:09:00+02:00</time>
      </trkpt>
      <trkpt lat="48.4614" lon="6.2945">
        <ele>251.5</ele>
        <time>2026-05-18T09:09:01+02:00</time>
      </trkpt>
      <trkpt lat="48.46145" lon="6.29452">
        <ele>251.40039</ele>
        <time>2026-05-18T09:09:02+02:00</time>
      </trkpt>
      <trkpt lat="48.46148" lon="6.29452">
        <ele>251.40039</ele>
        <time>2026-05-18T09:09:03+02:00</time>
      </trkpt>
      <trkpt lat="48.46157" lon="6.29455">
        <ele>251.2998</ele>
        <time>2026-05-18T09:09:04+02:00</time>
      </trkpt>
      <trkpt lat="48.46163" lon="6.29457">
        <ele>251.40039</ele>
        <time>2026-05-18T09:09:05+02:00</time>
      </trkpt>
      <trkpt lat="48.46168" lon="6.29459">
        <ele>251.40039</ele>
        <time>2026-05-18T09:09:06+02:00</time>
      </trkpt>
      <trkpt lat="48.46174" lon="6.29461">
        <ele>251.40039</ele>
        <time>2026-05-18T09:09:07+02:00</time>
      </trkpt>
      <trkpt lat="48.4618" lon="6.29463">
        <ele>251.5</ele>
        <time>2026-05-18T09:09:08+02:00</time>
      </trkpt>
      <trkpt lat="48.46186" lon="6.29466">
        <ele>251.7002</ele>
        <time>2026-05-18T09:09:09+02:00</time>
      </trkpt>
      <trkpt lat="48.46192" lon="6.29468">
        <ele>251.7002</ele>
        <time>2026-05-18T09:09:10+02:00</time>
      </trkpt>
      <trkpt lat="48.46198" lon="6.2947">
        <ele>251.7002</ele>
        <time>2026-05-18T09:09:11+02:00</time>
      </trkpt>
      <trkpt lat="48.46203" lon="6.29472">
        <ele>251.60059</ele>
        <time>2026-05-18T09:09:12+02:00</time>
      </trkpt>
      <trkpt lat="48.46209" lon="6.29473">
        <ele>251.5</ele>
        <time>2026-05-18T09:09:13+02:00</time>
      </trkpt>
      <trkpt lat="48.46214" lon="6.29475">
        <ele>251.60059</ele>
        <time>2026-05-18T09:09:14+02:00</time>
      </trkpt>
      <trkpt lat="48.4622" lon="6.29477">
        <ele>251.5</ele>
        <time>2026-05-18T09:09:15+02:00</time>
      </trkpt>
      <trkpt lat="48.46225" lon="6.29478">
        <ele>251.40039</ele>
        <time>2026-05-18T09:09:16+02:00</time>
      </trkpt>
      <trkpt lat="48.46231" lon="6.2948">
        <ele>251.2998</ele>
        <time>2026-05-18T09:09:17+02:00</time>
      </trkpt>
      <trkpt lat="48.46237" lon="6.29482">
        <ele>251.2998</ele>
        <time>2026-05-18T09:09:18+02:00</time>
      </trkpt>
      <trkpt lat="48.46242" lon="6.29484">
        <ele>251.40039</ele>
        <time>2026-05-18T09:09:19+02:00</time>
      </trkpt>
      <trkpt lat="48.46247" lon="6.29485">
        <ele>251.40039</ele>
        <time>2026-05-18T09:09:20+02:00</time>
      </trkpt>
      <trkpt lat="48.46252" lon="6.29487">
        <ele>251.2998</ele>
        <time>2026-05-18T09:09:21+02:00</time>
      </trkpt>
      <trkpt lat="48.46258" lon="6.29489">
        <ele>251.2998</ele>
        <time>2026-05-18T09:09:22+02:00</time>
      </trkpt>
      <trkpt lat="48.46263" lon="6.29491">
        <ele>251.60059</ele>
        <time>2026-05-18T09:09:23+02:00</time>
      </trkpt>
      <trkpt lat="48.46269" lon="6.29493">
        <ele>251.60059</ele>
        <time>2026-05-18T09:09:24+02:00</time>
      </trkpt>
      <trkpt lat="48.46274" lon="6.29494">
        <ele>251.7002</ele>
        <time>2026-05-18T09:09:25+02:00</time>
      </trkpt>
      <trkpt lat="48.46279" lon="6.29496">
        <ele>251.7002</ele>
        <time>2026-05-18T09:09:26+02:00</time>
      </trkpt>
      <trkpt lat="48.46284" lon="6.29498">
        <ele>251.7002</ele>
        <time>2026-05-18T09:09:27+02:00</time>
      </trkpt>
      <trkpt lat="48.4629" lon="6.295">
        <ele>251.90039</ele>
        <time>2026-05-18T09:09:28+02:00</time>
      </trkpt>
      <trkpt lat="48.46296" lon="6.29502">
        <ele>251.7998</ele>
        <time>2026-05-18T09:09:29+02:00</time>
      </trkpt>
      <trkpt lat="48.46301" lon="6.29504">
        <ele>251.7998</ele>
        <time>2026-05-18T09:09:30+02:00</time>
      </trkpt>
      <trkpt lat="48.46307" lon="6.29506">
        <ele>251.7002</ele>
        <time>2026-05-18T09:09:31+02:00</time>
      </trkpt>
      <trkpt lat="48.46313" lon="6.29508">
        <ele>251.60059</ele>
        <time>2026-05-18T09:09:32+02:00</time>
      </trkpt>
      <trkpt lat="48.46319" lon="6.2951">
        <ele>251.7002</ele>
        <time>2026-05-18T09:09:33+02:00</time>
      </trkpt>
      <trkpt lat="48.46324" lon="6.29512">
        <ele>251.7002</ele>
        <time>2026-05-18T09:09:34+02:00</time>
      </trkpt>
      <trkpt lat="48.4633" lon="6.29514">
        <ele>251.60059</ele>
        <time>2026-05-18T09:09:35+02:00</time>
      </trkpt>
      <trkpt lat="48.46335" lon="6.29516">
        <ele>251.60059</ele>
        <time>2026-05-18T09:09:36+02:00</time>
      </trkpt>
      <trkpt lat="48.4634" lon="6.29517">
        <ele>251.7998</ele>
        <time>2026-05-18T09:09:37+02:00</time>
      </trkpt>
      <trkpt lat="48.46346" lon="6.29519">
        <ele>251.7002</ele>
        <time>2026-05-18T09:09:38+02:00</time>
      </trkpt>
      <trkpt lat="48.46351" lon="6.29521">
        <ele>251.7002</ele>
        <time>2026-05-18T09:09:39+02:00</time>
      </trkpt>
      <trkpt lat="48.46356" lon="6.29523">
        <ele>251.60059</ele>
        <time>2026-05-18T09:09:40+02:00</time>
      </trkpt>
      <trkpt lat="48.46361" lon="6.29524">
        <ele>251.60059</ele>
        <time>2026-05-18T09:09:41+02:00</time>
      </trkpt>
      <trkpt lat="48.46366" lon="6.29526">
        <ele>251.7002</ele>
        <time>2026-05-18T09:09:42+02:00</time>
      </trkpt>
      <trkpt lat="48.46371" lon="6.29527">
        <ele>251.60059</ele>
        <time>2026-05-18T09:09:43+02:00</time>
      </trkpt>
      <trkpt lat="48.46376" lon="6.29528">
        <ele>251.5</ele>
        <time>2026-05-18T09:09:44+02:00</time>
      </trkpt>
      <trkpt lat="48.46381" lon="6.2953">
        <ele>251.5</ele>
        <time>2026-05-18T09:09:45+02:00</time>
      </trkpt>
      <trkpt lat="48.46387" lon="6.29532">
        <ele>251.40039</ele>
        <time>2026-05-18T09:09:46+02:00</time>
      </trkpt>
      <trkpt lat="48.46392" lon="6.29534">
        <ele>251.60059</ele>
        <time>2026-05-18T09:09:47+02:00</time>
      </trkpt>
      <trkpt lat="48.46397" lon="6.29536">
        <ele>251.5</ele>
        <time>2026-05-18T09:09:48+02:00</time>
      </trkpt>
      <trkpt lat="48.46402" lon="6.29538">
        <ele>251.40039</ele>
        <time>2026-05-18T09:09:49+02:00</time>
      </trkpt>
      <trkpt lat="48.46407" lon="6.29539">
        <ele>251.40039</ele>
        <time>2026-05-18T09:09:50+02:00</time>
      </trkpt>
      <trkpt lat="48.46412" lon="6.2954">
        <ele>251.2998</ele>
        <time>2026-05-18T09:09:51+02:00</time>
      </trkpt>
      <trkpt lat="48.46417" lon="6.29543">
        <ele>251.5</ele>
        <time>2026-05-18T09:09:52+02:00</time>
      </trkpt>
      <trkpt lat="48.46423" lon="6.29545">
        <ele>251.5</ele>
        <time>2026-05-18T09:09:53+02:00</time>
      </trkpt>
      <trkpt lat="48.46428" lon="6.29547">
        <ele>251.40039</ele>
        <time>2026-05-18T09:09:54+02:00</time>
      </trkpt>
      <trkpt lat="48.46434" lon="6.29549">
        <ele>251.40039</ele>
        <time>2026-05-18T09:09:55+02:00</time>
      </trkpt>
      <trkpt lat="48.46439" lon="6.29551">
        <ele>251.5</ele>
        <time>2026-05-18T09:09:56+02:00</time>
      </trkpt>
      <trkpt lat="48.46444" lon="6.29553">
        <ele>251.5</ele>
        <time>2026-05-18T09:09:57+02:00</time>
      </trkpt>
      <trkpt lat="48.4645" lon="6.29554">
        <ele>251.2002</ele>
        <time>2026-05-18T09:09:58+02:00</time>
      </trkpt>
      <trkpt lat="48.46455" lon="6.29556">
        <ele>251.2002</ele>
        <time>2026-05-18T09:09:59+02:00</time>
      </trkpt>
      <trkpt lat="48.4646" lon="6.29558">
        <ele>251</ele>
        <time>2026-05-18T09:10:00+02:00</time>
      </trkpt>
      <trkpt lat="48.46465" lon="6.2956">
        <ele>251</ele>
        <time>2026-05-18T09:10:01+02:00</time>
      </trkpt>
      <trkpt lat="48.46469" lon="6.29561">
        <ele>250.90039</ele>
        <time>2026-05-18T09:10:02+02:00</time>
      </trkpt>
      <trkpt lat="48.46474" lon="6.29562">
        <ele>250.7998</ele>
        <time>2026-05-18T09:10:03+02:00</time>
      </trkpt>
      <trkpt lat="48.46478" lon="6.29564">
        <ele>250.7998</ele>
        <time>2026-05-18T09:10:04+02:00</time>
      </trkpt>
      <trkpt lat="48.46481" lon="6.29567">
        <ele>250.7002</ele>
        <time>2026-05-18T09:10:05+02:00</time>
      </trkpt>
      <trkpt lat="48.46484" lon="6.29571">
        <ele>250.7998</ele>
        <time>2026-05-18T09:10:06+02:00</time>
      </trkpt>
      <trkpt lat="48.46488" lon="6.29574">
        <ele>250.7002</ele>
        <time>2026-05-18T09:10:07+02:00</time>
      </trkpt>
      <trkpt lat="48.46491" lon="6.29576">
        <ele>250.60059</ele>
        <time>2026-05-18T09:10:08+02:00</time>
      </trkpt>
      <trkpt lat="48.46496" lon="6.29577">
        <ele>250.60059</ele>
        <time>2026-05-18T09:10:09+02:00</time>
      </trkpt>
      <trkpt lat="48.465" lon="6.29578">
        <ele>250.60059</ele>
        <time>2026-05-18T09:10:10+02:00</time>
      </trkpt>
      <trkpt lat="48.46504" lon="6.29579">
        <ele>250.5</ele>
        <time>2026-05-18T09:10:11+02:00</time>
      </trkpt>
      <trkpt lat="48.46509" lon="6.29578">
        <ele>250.5</ele>
        <time>2026-05-18T09:10:12+02:00</time>
      </trkpt>
      <trkpt lat="48.46513" lon="6.29575">
        <ele>250.5</ele>
        <time>2026-05-18T09:10:13+02:00</time>
      </trkpt>
      <trkpt lat="48.46515" lon="6.29571">
        <ele>250.5</ele>
        <time>2026-05-18T09:10:14+02:00</time>
      </trkpt>
      <trkpt lat="48.46517" lon="6.29567">
        <ele>250.5</ele>
        <time>2026-05-18T09:10:15+02:00</time>
      </trkpt>
      <trkpt lat="48.46518" lon="6.29563">
        <ele>250.5</ele>
        <time>2026-05-18T09:10:16+02:00</time>
      </trkpt>
      <trkpt lat="48.46519" lon="6.29559">
        <ele>250.5</ele>
        <time>2026-05-18T09:10:17+02:00</time>
      </trkpt>
      <trkpt lat="48.46521" lon="6.29555">
        <ele>250.5</ele>
        <time>2026-05-18T09:10:18+02:00</time>
      </trkpt>
      <trkpt lat="48.46524" lon="6.29553">
        <ele>250.5</ele>
        <time>2026-05-18T09:10:19+02:00</time>
      </trkpt>
      <trkpt lat="48.46529" lon="6.29552">
        <ele>250.5</ele>
        <time>2026-05-18T09:10:20+02:00</time>
      </trkpt>
      <trkpt lat="48.46533" lon="6.29553">
        <ele>250.5</ele>
        <time>2026-05-18T09:10:21+02:00</time>
      </trkpt>
      <trkpt lat="48.46539" lon="6.29555">
        <ele>250.5</ele>
        <time>2026-05-18T09:10:22+02:00</time>
      </trkpt>
      <trkpt lat="48.46544" lon="6.29557">
        <ele>250.5</ele>
        <time>2026-05-18T09:10:23+02:00</time>
      </trkpt>
      <trkpt lat="48.46551" lon="6.29559">
        <ele>250.40039</ele>
        <time>2026-05-18T09:10:24+02:00</time>
      </trkpt>
      <trkpt lat="48.46557" lon="6.29561">
        <ele>250.2998</ele>
        <time>2026-05-18T09:10:25+02:00</time>
      </trkpt>
      <trkpt lat="48.46564" lon="6.29563">
        <ele>250</ele>
        <time>2026-05-18T09:10:26+02:00</time>
      </trkpt>
      <trkpt lat="48.4657" lon="6.29564">
        <ele>249.7998</ele>
        <time>2026-05-18T09:10:27+02:00</time>
      </trkpt>
      <trkpt lat="48.46576" lon="6.29566">
        <ele>249.7998</ele>
        <time>2026-05-18T09:10:28+02:00</time>
      </trkpt>
      <trkpt lat="48.46582" lon="6.29568">
        <ele>249.7998</ele>
        <time>2026-05-18T09:10:29+02:00</time>
      </trkpt>
      <trkpt lat="48.46588" lon="6.2957">
        <ele>249.90039</ele>
        <time>2026-05-18T09:10:30+02:00</time>
      </trkpt>
      <trkpt lat="48.46594" lon="6.29572">
        <ele>249.90039</ele>
        <time>2026-05-18T09:10:31+02:00</time>
      </trkpt>
      <trkpt lat="48.46596" lon="6.29573">
        <ele>249.90039</ele>
        <time>2026-05-18T09:10:32+02:00</time>
      </trkpt>
      <trkpt lat="48.46605" lon="6.29576">
        <ele>249.90039</ele>
        <time>2026-05-18T09:10:33+02:00</time>
      </trkpt>
      <trkpt lat="48.46611" lon="6.29578">
        <ele>250.10059</ele>
        <time>2026-05-18T09:10:34+02:00</time>
      </trkpt>
      <trkpt lat="48.46617" lon="6.29579">
        <ele>250.10059</ele>
        <time>2026-05-18T09:10:35+02:00</time>
      </trkpt>
      <trkpt lat="48.46623" lon="6.29581">
        <ele>250</ele>
        <time>2026-05-18T09:10:36+02:00</time>
      </trkpt>
      <trkpt lat="48.46628" lon="6.29583">
        <ele>249.90039</ele>
        <time>2026-05-18T09:10:37+02:00</time>
      </trkpt>
      <trkpt lat="48.46634" lon="6.29585">
        <ele>249.7998</ele>
        <time>2026-05-18T09:10:38+02:00</time>
      </trkpt>
      <trkpt lat="48.46637" lon="6.29586">
        <ele>249.90039</ele>
        <time>2026-05-18T09:10:39+02:00</time>
      </trkpt>
      <trkpt lat="48.46645" lon="6.29589">
        <ele>249.7002</ele>
        <time>2026-05-18T09:10:40+02:00</time>
      </trkpt>
      <trkpt lat="48.46651" lon="6.29591">
        <ele>249.7002</ele>
        <time>2026-05-18T09:10:41+02:00</time>
      </trkpt>
      <trkpt lat="48.46657" lon="6.29593">
        <ele>249.7002</ele>
        <time>2026-05-18T09:10:42+02:00</time>
      </trkpt>
      <trkpt lat="48.46662" lon="6.29595">
        <ele>249.7998</ele>
        <time>2026-05-18T09:10:43+02:00</time>
      </trkpt>
      <trkpt lat="48.46668" lon="6.29597">
        <ele>249.7998</ele>
        <time>2026-05-18T09:10:44+02:00</time>
      </trkpt>
      <trkpt lat="48.46674" lon="6.29599">
        <ele>249.7998</ele>
        <time>2026-05-18T09:10:45+02:00</time>
      </trkpt>
      <trkpt lat="48.4668" lon="6.296">
        <ele>249.7998</ele>
        <time>2026-05-18T09:10:46+02:00</time>
      </trkpt>
      <trkpt lat="48.46686" lon="6.29602">
        <ele>249.7998</ele>
        <time>2026-05-18T09:10:47+02:00</time>
      </trkpt>
      <trkpt lat="48.46692" lon="6.29604">
        <ele>249.90039</ele>
        <time>2026-05-18T09:10:48+02:00</time>
      </trkpt>
      <trkpt lat="48.46697" lon="6.29606">
        <ele>249.90039</ele>
        <time>2026-05-18T09:10:49+02:00</time>
      </trkpt>
      <trkpt lat="48.46703" lon="6.29608">
        <ele>249.90039</ele>
        <time>2026-05-18T09:10:50+02:00</time>
      </trkpt>
      <trkpt lat="48.46709" lon="6.2961">
        <ele>249.90039</ele>
        <time>2026-05-18T09:10:51+02:00</time>
      </trkpt>
      <trkpt lat="48.46715" lon="6.29612">
        <ele>250</ele>
        <time>2026-05-18T09:10:52+02:00</time>
      </trkpt>
      <trkpt lat="48.46721" lon="6.29614">
        <ele>249.90039</ele>
        <time>2026-05-18T09:10:53+02:00</time>
      </trkpt>
      <trkpt lat="48.46727" lon="6.29617">
        <ele>249.7998</ele>
        <time>2026-05-18T09:10:54+02:00</time>
      </trkpt>
      <trkpt lat="48.46733" lon="6.29619">
        <ele>249.7002</ele>
        <time>2026-05-18T09:10:55+02:00</time>
      </trkpt>
      <trkpt lat="48.46739" lon="6.29621">
        <ele>249.7002</ele>
        <time>2026-05-18T09:10:56+02:00</time>
      </trkpt>
      <trkpt lat="48.46745" lon="6.29623">
        <ele>249.60059</ele>
        <time>2026-05-18T09:10:57+02:00</time>
      </trkpt>
      <trkpt lat="48.46751" lon="6.29625">
        <ele>249.7002</ele>
        <time>2026-05-18T09:10:58+02:00</time>
      </trkpt>
      <trkpt lat="48.46757" lon="6.29627">
        <ele>249.60059</ele>
        <time>2026-05-18T09:10:59+02:00</time>
      </trkpt>
      <trkpt lat="48.46764" lon="6.29629">
        <ele>249.5</ele>
        <time>2026-05-18T09:11:00+02:00</time>
      </trkpt>
      <trkpt lat="48.4677" lon="6.29631">
        <ele>249.5</ele>
        <time>2026-05-18T09:11:01+02:00</time>
      </trkpt>
      <trkpt lat="48.46776" lon="6.29633">
        <ele>249.40039</ele>
        <time>2026-05-18T09:11:02+02:00</time>
      </trkpt>
      <trkpt lat="48.46782" lon="6.29635">
        <ele>249.2998</ele>
        <time>2026-05-18T09:11:03+02:00</time>
      </trkpt>
      <trkpt lat="48.46788" lon="6.29637">
        <ele>249.2998</ele>
        <time>2026-05-18T09:11:04+02:00</time>
      </trkpt>
      <trkpt lat="48.46794" lon="6.29639">
        <ele>249.2002</ele>
        <time>2026-05-18T09:11:05+02:00</time>
      </trkpt>
      <trkpt lat="48.468" lon="6.29641">
        <ele>249.10059</ele>
        <time>2026-05-18T09:11:06+02:00</time>
      </trkpt>
      <trkpt lat="48.46806" lon="6.29643">
        <ele>249.10059</ele>
        <time>2026-05-18T09:11:07+02:00</time>
      </trkpt>
      <trkpt lat="48.46812" lon="6.29645">
        <ele>249.10059</ele>
        <time>2026-05-18T09:11:08+02:00</time>
      </trkpt>
      <trkpt lat="48.46818" lon="6.29647">
        <ele>249.2002</ele>
        <time>2026-05-18T09:11:09+02:00</time>
      </trkpt>
      <trkpt lat="48.46824" lon="6.2965">
        <ele>249.2002</ele>
        <time>2026-05-18T09:11:10+02:00</time>
      </trkpt>
      <trkpt lat="48.4683" lon="6.29652">
        <ele>249.2998</ele>
        <time>2026-05-18T09:11:11+02:00</time>
      </trkpt>
      <trkpt lat="48.46833" lon="6.29653">
        <ele>249.40039</ele>
        <time>2026-05-18T09:11:12+02:00</time>
      </trkpt>
      <trkpt lat="48.46842" lon="6.29655">
        <ele>249.60059</ele>
        <time>2026-05-18T09:11:13+02:00</time>
      </trkpt>
      <trkpt lat="48.46848" lon="6.29657">
        <ele>249.7002</ele>
        <time>2026-05-18T09:11:14+02:00</time>
      </trkpt>
      <trkpt lat="48.46854" lon="6.29659">
        <ele>249.7998</ele>
        <time>2026-05-18T09:11:15+02:00</time>
      </trkpt>
      <trkpt lat="48.4686" lon="6.29661">
        <ele>249.7998</ele>
        <time>2026-05-18T09:11:16+02:00</time>
      </trkpt>
      <trkpt lat="48.46866" lon="6.29663">
        <ele>250.10059</ele>
        <time>2026-05-18T09:11:17+02:00</time>
      </trkpt>
      <trkpt lat="48.46872" lon="6.29665">
        <ele>250</ele>
        <time>2026-05-18T09:11:18+02:00</time>
      </trkpt>
      <trkpt lat="48.46878" lon="6.29667">
        <ele>249.7998</ele>
        <time>2026-05-18T09:11:19+02:00</time>
      </trkpt>
      <trkpt lat="48.46884" lon="6.29669">
        <ele>249.5</ele>
        <time>2026-05-18T09:11:20+02:00</time>
      </trkpt>
      <trkpt lat="48.4689" lon="6.29671">
        <ele>249.2998</ele>
        <time>2026-05-18T09:11:21+02:00</time>
      </trkpt>
      <trkpt lat="48.46895" lon="6.29673">
        <ele>249.60059</ele>
        <time>2026-05-18T09:11:22+02:00</time>
      </trkpt>
      <trkpt lat="48.469" lon="6.29674">
        <ele>249.60059</ele>
        <time>2026-05-18T09:11:23+02:00</time>
      </trkpt>
      <trkpt lat="48.46906" lon="6.29676">
        <ele>249.60059</ele>
        <time>2026-05-18T09:11:24+02:00</time>
      </trkpt>
      <trkpt lat="48.46911" lon="6.29678">
        <ele>249.60059</ele>
        <time>2026-05-18T09:11:25+02:00</time>
      </trkpt>
      <trkpt lat="48.46917" lon="6.2968">
        <ele>250</ele>
        <time>2026-05-18T09:11:26+02:00</time>
      </trkpt>
      <trkpt lat="48.46922" lon="6.29681">
        <ele>250</ele>
        <time>2026-05-18T09:11:27+02:00</time>
      </trkpt>
      <trkpt lat="48.46927" lon="6.29683">
        <ele>250</ele>
        <time>2026-05-18T09:11:28+02:00</time>
      </trkpt>
      <trkpt lat="48.46933" lon="6.29685">
        <ele>250</ele>
        <time>2026-05-18T09:11:29+02:00</time>
      </trkpt>
      <trkpt lat="48.46938" lon="6.29686">
        <ele>250</ele>
        <time>2026-05-18T09:11:30+02:00</time>
      </trkpt>
      <trkpt lat="48.46943" lon="6.29688">
        <ele>250</ele>
        <time>2026-05-18T09:11:31+02:00</time>
      </trkpt>
      <trkpt lat="48.46948" lon="6.2969">
        <ele>250.60059</ele>
        <time>2026-05-18T09:11:32+02:00</time>
      </trkpt>
      <trkpt lat="48.46953" lon="6.29692">
        <ele>250.7002</ele>
        <time>2026-05-18T09:11:33+02:00</time>
      </trkpt>
      <trkpt lat="48.46956" lon="6.29692">
        <ele>250.7002</ele>
        <time>2026-05-18T09:11:34+02:00</time>
      </trkpt>
      <trkpt lat="48.46964" lon="6.29695">
        <ele>250.60059</ele>
        <time>2026-05-18T09:11:35+02:00</time>
      </trkpt>
      <trkpt lat="48.4697" lon="6.29697">
        <ele>250.5</ele>
        <time>2026-05-18T09:11:36+02:00</time>
      </trkpt>
      <trkpt lat="48.46975" lon="6.29699">
        <ele>250</ele>
        <time>2026-05-18T09:11:37+02:00</time>
      </trkpt>
      <trkpt lat="48.46981" lon="6.29701">
        <ele>249.60059</ele>
        <time>2026-05-18T09:11:38+02:00</time>
      </trkpt>
      <trkpt lat="48.46987" lon="6.29703">
        <ele>249.5</ele>
        <time>2026-05-18T09:11:39+02:00</time>
      </trkpt>
      <trkpt lat="48.46992" lon="6.29704">
        <ele>249.5</ele>
        <time>2026-05-18T09:11:40+02:00</time>
      </trkpt>
      <trkpt lat="48.46998" lon="6.29706">
        <ele>249.7002</ele>
        <time>2026-05-18T09:11:41+02:00</time>
      </trkpt>
      <trkpt lat="48.47003" lon="6.29708">
        <ele>249.7002</ele>
        <time>2026-05-18T09:11:42+02:00</time>
      </trkpt>
      <trkpt lat="48.47009" lon="6.2971">
        <ele>249.7002</ele>
        <time>2026-05-18T09:11:43+02:00</time>
      </trkpt>
      <trkpt lat="48.47015" lon="6.29713">
        <ele>249.7002</ele>
        <time>2026-05-18T09:11:44+02:00</time>
      </trkpt>
      <trkpt lat="48.4702" lon="6.29715">
        <ele>250</ele>
        <time>2026-05-18T09:11:45+02:00</time>
      </trkpt>
      <trkpt lat="48.47025" lon="6.29717">
        <ele>250</ele>
        <time>2026-05-18T09:11:46+02:00</time>
      </trkpt>
      <trkpt lat="48.47031" lon="6.29718">
        <ele>250</ele>
        <time>2026-05-18T09:11:47+02:00</time>
      </trkpt>
      <trkpt lat="48.47034" lon="6.29719">
        <ele>250</ele>
        <time>2026-05-18T09:11:48+02:00</time>
      </trkpt>
      <trkpt lat="48.47042" lon="6.29721">
        <ele>249.7002</ele>
        <time>2026-05-18T09:11:49+02:00</time>
      </trkpt>
      <trkpt lat="48.47048" lon="6.29723">
        <ele>249.5</ele>
        <time>2026-05-18T09:11:50+02:00</time>
      </trkpt>
      <trkpt lat="48.47053" lon="6.29725">
        <ele>249.40039</ele>
        <time>2026-05-18T09:11:51+02:00</time>
      </trkpt>
      <trkpt lat="48.47058" lon="6.29727">
        <ele>249.40039</ele>
        <time>2026-05-18T09:11:52+02:00</time>
      </trkpt>
      <trkpt lat="48.47064" lon="6.29729">
        <ele>249.40039</ele>
        <time>2026-05-18T09:11:53+02:00</time>
      </trkpt>
      <trkpt lat="48.47069" lon="6.29731">
        <ele>249.40039</ele>
        <time>2026-05-18T09:11:54+02:00</time>
      </trkpt>
      <trkpt lat="48.47072" lon="6.29732">
        <ele>249.5</ele>
        <time>2026-05-18T09:11:55+02:00</time>
      </trkpt>
      <trkpt lat="48.4708" lon="6.29735">
        <ele>249.5</ele>
        <time>2026-05-18T09:11:56+02:00</time>
      </trkpt>
      <trkpt lat="48.47086" lon="6.29737">
        <ele>249.5</ele>
        <time>2026-05-18T09:11:57+02:00</time>
      </trkpt>
      <trkpt lat="48.47091" lon="6.29739">
        <ele>249.5</ele>
        <time>2026-05-18T09:11:58+02:00</time>
      </trkpt>
      <trkpt lat="48.47097" lon="6.29741">
        <ele>249.7002</ele>
        <time>2026-05-18T09:11:59+02:00</time>
      </trkpt>
      <trkpt lat="48.47102" lon="6.29743">
        <ele>249.7002</ele>
        <time>2026-05-18T09:12:00+02:00</time>
      </trkpt>
      <trkpt lat="48.47108" lon="6.29745">
        <ele>249.7002</ele>
        <time>2026-05-18T09:12:01+02:00</time>
      </trkpt>
      <trkpt lat="48.47113" lon="6.29746">
        <ele>249.7002</ele>
        <time>2026-05-18T09:12:02+02:00</time>
      </trkpt>
      <trkpt lat="48.47119" lon="6.29748">
        <ele>249.7002</ele>
        <time>2026-05-18T09:12:03+02:00</time>
      </trkpt>
      <trkpt lat="48.47124" lon="6.2975">
        <ele>249.7998</ele>
        <time>2026-05-18T09:12:04+02:00</time>
      </trkpt>
      <trkpt lat="48.4713" lon="6.29751">
        <ele>249.7002</ele>
        <time>2026-05-18T09:12:05+02:00</time>
      </trkpt>
      <trkpt lat="48.47135" lon="6.29753">
        <ele>249.60059</ele>
        <time>2026-05-18T09:12:06+02:00</time>
      </trkpt>
      <trkpt lat="48.4714" lon="6.29755">
        <ele>249.5</ele>
        <time>2026-05-18T09:12:07+02:00</time>
      </trkpt>
      <trkpt lat="48.47146" lon="6.29757">
        <ele>249.5</ele>
        <time>2026-05-18T09:12:08+02:00</time>
      </trkpt>
      <trkpt lat="48.47151" lon="6.29758">
        <ele>249.5</ele>
        <time>2026-05-18T09:12:09+02:00</time>
      </trkpt>
      <trkpt lat="48.47156" lon="6.2976">
        <ele>249.5</ele>
        <time>2026-05-18T09:12:10+02:00</time>
      </trkpt>
      <trkpt lat="48.47162" lon="6.29762">
        <ele>249.5</ele>
        <time>2026-05-18T09:12:11+02:00</time>
      </trkpt>
      <trkpt lat="48.47167" lon="6.29764">
        <ele>249.5</ele>
        <time>2026-05-18T09:12:12+02:00</time>
      </trkpt>
      <trkpt lat="48.4717" lon="6.29765">
        <ele>249.5</ele>
        <time>2026-05-18T09:12:13+02:00</time>
      </trkpt>
      <trkpt lat="48.47178" lon="6.29768">
        <ele>249.7002</ele>
        <time>2026-05-18T09:12:14+02:00</time>
      </trkpt>
      <trkpt lat="48.47184" lon="6.2977">
        <ele>249.7002</ele>
        <time>2026-05-18T09:12:15+02:00</time>
      </trkpt>
      <trkpt lat="48.47189" lon="6.29772">
        <ele>249.7002</ele>
        <time>2026-05-18T09:12:16+02:00</time>
      </trkpt>
      <trkpt lat="48.47194" lon="6.29774">
        <ele>249.7002</ele>
        <time>2026-05-18T09:12:17+02:00</time>
      </trkpt>
      <trkpt lat="48.472" lon="6.29776">
        <ele>250</ele>
        <time>2026-05-18T09:12:18+02:00</time>
      </trkpt>
      <trkpt lat="48.47205" lon="6.29778">
        <ele>250.10059</ele>
        <time>2026-05-18T09:12:19+02:00</time>
      </trkpt>
      <trkpt lat="48.4721" lon="6.2978">
        <ele>250.10059</ele>
        <time>2026-05-18T09:12:20+02:00</time>
      </trkpt>
      <trkpt lat="48.47215" lon="6.29782">
        <ele>250</ele>
        <time>2026-05-18T09:12:21+02:00</time>
      </trkpt>
      <trkpt lat="48.47221" lon="6.29783">
        <ele>250</ele>
        <time>2026-05-18T09:12:22+02:00</time>
      </trkpt>
      <trkpt lat="48.47226" lon="6.29785">
        <ele>249.7998</ele>
        <time>2026-05-18T09:12:23+02:00</time>
      </trkpt>
      <trkpt lat="48.47231" lon="6.29787">
        <ele>249.5</ele>
        <time>2026-05-18T09:12:24+02:00</time>
      </trkpt>
      <trkpt lat="48.47237" lon="6.29789">
        <ele>249.5</ele>
        <time>2026-05-18T09:12:25+02:00</time>
      </trkpt>
      <trkpt lat="48.47242" lon="6.29791">
        <ele>249.5</ele>
        <time>2026-05-18T09:12:26+02:00</time>
      </trkpt>
      <trkpt lat="48.47248" lon="6.29792">
        <ele>249.7998</ele>
        <time>2026-05-18T09:12:27+02:00</time>
      </trkpt>
      <trkpt lat="48.47253" lon="6.29794">
        <ele>249.7998</ele>
        <time>2026-05-18T09:12:28+02:00</time>
      </trkpt>
      <trkpt lat="48.47259" lon="6.29796">
        <ele>249.7998</ele>
        <time>2026-05-18T09:12:29+02:00</time>
      </trkpt>
      <trkpt lat="48.47264" lon="6.29798">
        <ele>249.7998</ele>
        <time>2026-05-18T09:12:30+02:00</time>
      </trkpt>
      <trkpt lat="48.4727" lon="6.29799">
        <ele>249.7998</ele>
        <time>2026-05-18T09:12:31+02:00</time>
      </trkpt>
      <trkpt lat="48.47275" lon="6.29801">
        <ele>250</ele>
        <time>2026-05-18T09:12:32+02:00</time>
      </trkpt>
      <trkpt lat="48.4728" lon="6.29802">
        <ele>250</ele>
        <time>2026-05-18T09:12:33+02:00</time>
      </trkpt>
      <trkpt lat="48.47286" lon="6.29804">
        <ele>249.90039</ele>
        <time>2026-05-18T09:12:34+02:00</time>
      </trkpt>
      <trkpt lat="48.47292" lon="6.29806">
        <ele>249.7002</ele>
        <time>2026-05-18T09:12:35+02:00</time>
      </trkpt>
      <trkpt lat="48.47297" lon="6.29808">
        <ele>249.5</ele>
        <time>2026-05-18T09:12:36+02:00</time>
      </trkpt>
      <trkpt lat="48.47303" lon="6.29809">
        <ele>249.5</ele>
        <time>2026-05-18T09:12:37+02:00</time>
      </trkpt>
      <trkpt lat="48.47305" lon="6.2981">
        <ele>249.5</ele>
        <time>2026-05-18T09:12:38+02:00</time>
      </trkpt>
      <trkpt lat="48.47313" lon="6.29813">
        <ele>249.5</ele>
        <time>2026-05-18T09:12:39+02:00</time>
      </trkpt>
      <trkpt lat="48.47319" lon="6.29815">
        <ele>249.40039</ele>
        <time>2026-05-18T09:12:40+02:00</time>
      </trkpt>
      <trkpt lat="48.47325" lon="6.29817">
        <ele>249.60059</ele>
        <time>2026-05-18T09:12:41+02:00</time>
      </trkpt>
      <trkpt lat="48.4733" lon="6.29818">
        <ele>249.60059</ele>
        <time>2026-05-18T09:12:42+02:00</time>
      </trkpt>
      <trkpt lat="48.47336" lon="6.2982">
        <ele>249.5</ele>
        <time>2026-05-18T09:12:43+02:00</time>
      </trkpt>
      <trkpt lat="48.47342" lon="6.29822">
        <ele>249.5</ele>
        <time>2026-05-18T09:12:44+02:00</time>
      </trkpt>
      <trkpt lat="48.47347" lon="6.29824">
        <ele>249.5</ele>
        <time>2026-05-18T09:12:45+02:00</time>
      </trkpt>
      <trkpt lat="48.47353" lon="6.29825">
        <ele>249.5</ele>
        <time>2026-05-18T09:12:46+02:00</time>
      </trkpt>
      <trkpt lat="48.47358" lon="6.29827">
        <ele>249.5</ele>
        <time>2026-05-18T09:12:47+02:00</time>
      </trkpt>
      <trkpt lat="48.47363" lon="6.29828">
        <ele>249.40039</ele>
        <time>2026-05-18T09:12:48+02:00</time>
      </trkpt>
      <trkpt lat="48.47368" lon="6.2983">
        <ele>249.40039</ele>
        <time>2026-05-18T09:12:49+02:00</time>
      </trkpt>
      <trkpt lat="48.47374" lon="6.29832">
        <ele>249.2002</ele>
        <time>2026-05-18T09:12:50+02:00</time>
      </trkpt>
      <trkpt lat="48.47379" lon="6.29833">
        <ele>249.10059</ele>
        <time>2026-05-18T09:12:51+02:00</time>
      </trkpt>
      <trkpt lat="48.47384" lon="6.29834">
        <ele>248.90039</ele>
        <time>2026-05-18T09:12:52+02:00</time>
      </trkpt>
      <trkpt lat="48.4739" lon="6.29835">
        <ele>248.7002</ele>
        <time>2026-05-18T09:12:53+02:00</time>
      </trkpt>
      <trkpt lat="48.47395" lon="6.29836">
        <ele>248.60059</ele>
        <time>2026-05-18T09:12:54+02:00</time>
      </trkpt>
      <trkpt lat="48.474" lon="6.29837">
        <ele>248.60059</ele>
        <time>2026-05-18T09:12:55+02:00</time>
      </trkpt>
      <trkpt lat="48.47405" lon="6.29838">
        <ele>248.60059</ele>
        <time>2026-05-18T09:12:56+02:00</time>
      </trkpt>
      <trkpt lat="48.4741" lon="6.29838">
        <ele>248.60059</ele>
        <time>2026-05-18T09:12:57+02:00</time>
      </trkpt>
      <trkpt lat="48.47413" lon="6.29838">
        <ele>248.7002</ele>
        <time>2026-05-18T09:12:58+02:00</time>
      </trkpt>
      <trkpt lat="48.47421" lon="6.29839">
        <ele>248.60059</ele>
        <time>2026-05-18T09:12:59+02:00</time>
      </trkpt>
      <trkpt lat="48.47426" lon="6.29839">
        <ele>248.40039</ele>
        <time>2026-05-18T09:13:00+02:00</time>
      </trkpt>
      <trkpt lat="48.47429" lon="6.29839">
        <ele>248.2998</ele>
        <time>2026-05-18T09:13:01+02:00</time>
      </trkpt>
      <trkpt lat="48.47437" lon="6.2984">
        <ele>248.10059</ele>
        <time>2026-05-18T09:13:02+02:00</time>
      </trkpt>
      <trkpt lat="48.47442" lon="6.2984">
        <ele>248</ele>
        <time>2026-05-18T09:13:03+02:00</time>
      </trkpt>
      <trkpt lat="48.47447" lon="6.2984">
        <ele>248</ele>
        <time>2026-05-18T09:13:04+02:00</time>
      </trkpt>
      <trkpt lat="48.47452" lon="6.29841">
        <ele>247.90039</ele>
        <time>2026-05-18T09:13:05+02:00</time>
      </trkpt>
      <trkpt lat="48.47458" lon="6.29841">
        <ele>247.7998</ele>
        <time>2026-05-18T09:13:06+02:00</time>
      </trkpt>
      <trkpt lat="48.47463" lon="6.29841">
        <ele>247.7998</ele>
        <time>2026-05-18T09:13:07+02:00</time>
      </trkpt>
      <trkpt lat="48.47468" lon="6.29841">
        <ele>247.7998</ele>
        <time>2026-05-18T09:13:08+02:00</time>
      </trkpt>
      <trkpt lat="48.47473" lon="6.29842">
        <ele>247.7002</ele>
        <time>2026-05-18T09:13:09+02:00</time>
      </trkpt>
      <trkpt lat="48.47477" lon="6.29843">
        <ele>247.60059</ele>
        <time>2026-05-18T09:13:10+02:00</time>
      </trkpt>
      <trkpt lat="48.47481" lon="6.29844">
        <ele>247.60059</ele>
        <time>2026-05-18T09:13:11+02:00</time>
      </trkpt>
      <trkpt lat="48.47485" lon="6.29844">
        <ele>247.60059</ele>
        <time>2026-05-18T09:13:12+02:00</time>
      </trkpt>
      <trkpt lat="48.47488" lon="6.29844">
        <ele>247.5</ele>
        <time>2026-05-18T09:13:13+02:00</time>
      </trkpt>
      <trkpt lat="48.47491" lon="6.29844">
        <ele>247.5</ele>
        <time>2026-05-18T09:13:14+02:00</time>
      </trkpt>
      <trkpt lat="48.47493" lon="6.29844">
        <ele>247.40039</ele>
        <time>2026-05-18T09:13:15+02:00</time>
      </trkpt>
      <trkpt lat="48.47497" lon="6.29845">
        <ele>247.2998</ele>
        <time>2026-05-18T09:13:16+02:00</time>
      </trkpt>
      <trkpt lat="48.47499" lon="6.29846">
        <ele>247.2998</ele>
        <time>2026-05-18T09:13:17+02:00</time>
      </trkpt>
      <trkpt lat="48.47502" lon="6.29847">
        <ele>247.2998</ele>
        <time>2026-05-18T09:13:18+02:00</time>
      </trkpt>
      <trkpt lat="48.47506" lon="6.29846">
        <ele>247.2002</ele>
        <time>2026-05-18T09:13:19+02:00</time>
      </trkpt>
      <trkpt lat="48.4751" lon="6.29846">
        <ele>247.2002</ele>
        <time>2026-05-18T09:13:20+02:00</time>
      </trkpt>
      <trkpt lat="48.47514" lon="6.29845">
        <ele>247.2002</ele>
        <time>2026-05-18T09:13:21+02:00</time>
      </trkpt>
      <trkpt lat="48.47518" lon="6.29845">
        <ele>247.2002</ele>
        <time>2026-05-18T09:13:22+02:00</time>
      </trkpt>
      <trkpt lat="48.47521" lon="6.29845">
        <ele>247.2002</ele>
        <time>2026-05-18T09:13:23+02:00</time>
      </trkpt>
      <trkpt lat="48.47524" lon="6.29845">
        <ele>247.2002</ele>
        <time>2026-05-18T09:13:24+02:00</time>
      </trkpt>
      <trkpt lat="48.47526" lon="6.29845">
        <ele>247.10059</ele>
        <time>2026-05-18T09:13:25+02:00</time>
      </trkpt>
      <trkpt lat="48.47529" lon="6.29848">
        <ele>247.10059</ele>
        <time>2026-05-18T09:13:26+02:00</time>
      </trkpt>
      <trkpt lat="48.4753" lon="6.29851">
        <ele>247.10059</ele>
        <time>2026-05-18T09:13:27+02:00</time>
      </trkpt>
      <trkpt lat="48.4753" lon="6.29856">
        <ele>246.90039</ele>
        <time>2026-05-18T09:13:28+02:00</time>
      </trkpt>
      <trkpt lat="48.47531" lon="6.29861">
        <ele>246.7998</ele>
        <time>2026-05-18T09:13:29+02:00</time>
      </trkpt>
      <trkpt lat="48.47531" lon="6.29866">
        <ele>246.7998</ele>
        <time>2026-05-18T09:13:30+02:00</time>
      </trkpt>
      <trkpt lat="48.47532" lon="6.2987">
        <ele>246.7998</ele>
        <time>2026-05-18T09:13:31+02:00</time>
      </trkpt>
      <trkpt lat="48.47533" lon="6.29874">
        <ele>246.7998</ele>
        <time>2026-05-18T09:13:32+02:00</time>
      </trkpt>
      <trkpt lat="48.47535" lon="6.29876">
        <ele>246.7998</ele>
        <time>2026-05-18T09:13:33+02:00</time>
      </trkpt>
      <trkpt lat="48.47538" lon="6.29876">
        <ele>246.7998</ele>
        <time>2026-05-18T09:13:34+02:00</time>
      </trkpt>
      <trkpt lat="48.47541" lon="6.29875">
        <ele>246.7998</ele>
        <time>2026-05-18T09:13:35+02:00</time>
      </trkpt>
      <trkpt lat="48.47545" lon="6.29874">
        <ele>246.7998</ele>
        <time>2026-05-18T09:13:36+02:00</time>
      </trkpt>
      <trkpt lat="48.4755" lon="6.29873">
        <ele>246.7998</ele>
        <time>2026-05-18T09:13:37+02:00</time>
      </trkpt>
      <trkpt lat="48.47554" lon="6.29873">
        <ele>246.7998</ele>
        <time>2026-05-18T09:13:38+02:00</time>
      </trkpt>
      <trkpt lat="48.47558" lon="6.29873">
        <ele>246.7998</ele>
        <time>2026-05-18T09:13:39+02:00</time>
      </trkpt>
      <trkpt lat="48.47561" lon="6.29873">
        <ele>246.7002</ele>
        <time>2026-05-18T09:13:40+02:00</time>
      </trkpt>
      <trkpt lat="48.47564" lon="6.29872">
        <ele>246.7002</ele>
        <time>2026-05-18T09:13:41+02:00</time>
      </trkpt>
      <trkpt lat="48.47566" lon="6.29873">
        <ele>246.7002</ele>
        <time>2026-05-18T09:13:42+02:00</time>
      </trkpt>
      <trkpt lat="48.47568" lon="6.29874">
        <ele>246.7002</ele>
        <time>2026-05-18T09:13:43+02:00</time>
      </trkpt>
      <trkpt lat="48.4757" lon="6.29874">
        <ele>246.7002</ele>
        <time>2026-05-18T09:13:44+02:00</time>
      </trkpt>
      <trkpt lat="48.47573" lon="6.29873">
        <ele>246.7998</ele>
        <time>2026-05-18T09:13:45+02:00</time>
      </trkpt>
      <trkpt lat="48.47576" lon="6.29873">
        <ele>246.7998</ele>
        <time>2026-05-18T09:13:46+02:00</time>
      </trkpt>
      <trkpt lat="48.47579" lon="6.29873">
        <ele>246.7998</ele>
        <time>2026-05-18T09:13:47+02:00</time>
      </trkpt>
      <trkpt lat="48.47581" lon="6.29872">
        <ele>246.7998</ele>
        <time>2026-05-18T09:13:48+02:00</time>
      </trkpt>
      <trkpt lat="48.47584" lon="6.29872">
        <ele>246.90039</ele>
        <time>2026-05-18T09:13:49+02:00</time>
      </trkpt>
      <trkpt lat="48.47587" lon="6.29872">
        <ele>246.90039</ele>
        <time>2026-05-18T09:13:50+02:00</time>
      </trkpt>
      <trkpt lat="48.4759" lon="6.29872">
        <ele>247</ele>
        <time>2026-05-18T09:13:51+02:00</time>
      </trkpt>
      <trkpt lat="48.47592" lon="6.29873">
        <ele>247</ele>
        <time>2026-05-18T09:13:52+02:00</time>
      </trkpt>
      <trkpt lat="48.47594" lon="6.29873">
        <ele>247</ele>
        <time>2026-05-18T09:13:53+02:00</time>
      </trkpt>
      <trkpt lat="48.47596" lon="6.29873">
        <ele>247</ele>
        <time>2026-05-18T09:13:54+02:00</time>
      </trkpt>
      <trkpt lat="48.47596" lon="6.29873">
        <ele>247</ele>
        <time>2026-05-18T09:13:55+02:00</time>
      </trkpt>
      <trkpt lat="48.47596" lon="6.29873">
        <ele>247</ele>
        <time>2026-05-18T09:13:56+02:00</time>
      </trkpt>
      <trkpt lat="48.47596" lon="6.29873">
        <ele>247</ele>
        <time>2026-05-18T09:13:57+02:00</time>
      </trkpt>
      <trkpt lat="48.47596" lon="6.29873">
        <ele>247</ele>
        <time>2026-05-18T09:13:58+02:00</time>
      </trkpt>
      <trkpt lat="48.47613" lon="6.29874">
        <ele>246.7998</ele>
        <time>2026-05-18T09:16:44+02:00</time>
      </trkpt>
      <trkpt lat="48.47616" lon="6.29873">
        <ele>246.7998</ele>
        <time>2026-05-18T09:16:45+02:00</time>
      </trkpt>
      <trkpt lat="48.4762" lon="6.29873">
        <ele>246.7002</ele>
        <time>2026-05-18T09:16:46+02:00</time>
      </trkpt>
      <trkpt lat="48.47624" lon="6.29873">
        <ele>246.7002</ele>
        <time>2026-05-18T09:16:47+02:00</time>
      </trkpt>
      <trkpt lat="48.47628" lon="6.29872">
        <ele>246.60059</ele>
        <time>2026-05-18T09:16:48+02:00</time>
      </trkpt>
      <trkpt lat="48.47632" lon="6.29872">
        <ele>246.60059</ele>
        <time>2026-05-18T09:16:49+02:00</time>
      </trkpt>
      <trkpt lat="48.47637" lon="6.29871">
        <ele>246.60059</ele>
        <time>2026-05-18T09:16:50+02:00</time>
      </trkpt>
      <trkpt lat="48.47641" lon="6.29869">
        <ele>246.60059</ele>
        <time>2026-05-18T09:16:51+02:00</time>
      </trkpt>
      <trkpt lat="48.47646" lon="6.29869">
        <ele>246.5</ele>
        <time>2026-05-18T09:16:52+02:00</time>
      </trkpt>
      <trkpt lat="48.4765" lon="6.29868">
        <ele>246.60059</ele>
        <time>2026-05-18T09:16:53+02:00</time>
      </trkpt>
      <trkpt lat="48.47654" lon="6.29867">
        <ele>246.5</ele>
        <time>2026-05-18T09:16:54+02:00</time>
      </trkpt>
      <trkpt lat="48.47659" lon="6.29866">
        <ele>246.5</ele>
        <time>2026-05-18T09:16:55+02:00</time>
      </trkpt>
      <trkpt lat="48.47663" lon="6.29865">
        <ele>246.5</ele>
        <time>2026-05-18T09:16:56+02:00</time>
      </trkpt>
      <trkpt lat="48.47667" lon="6.29864">
        <ele>246.5</ele>
        <time>2026-05-18T09:16:57+02:00</time>
      </trkpt>
      <trkpt lat="48.47672" lon="6.29862">
        <ele>246.5</ele>
        <time>2026-05-18T09:16:58+02:00</time>
      </trkpt>
      <trkpt lat="48.47676" lon="6.29861">
        <ele>246.40039</ele>
        <time>2026-05-18T09:16:59+02:00</time>
      </trkpt>
      <trkpt lat="48.47681" lon="6.29859">
        <ele>246.40039</ele>
        <time>2026-05-18T09:17:00+02:00</time>
      </trkpt>
      <trkpt lat="48.47686" lon="6.29858">
        <ele>246.40039</ele>
        <time>2026-05-18T09:17:01+02:00</time>
      </trkpt>
      <trkpt lat="48.47691" lon="6.29856">
        <ele>246.40039</ele>
        <time>2026-05-18T09:17:02+02:00</time>
      </trkpt>
      <trkpt lat="48.47696" lon="6.29854">
        <ele>246.40039</ele>
        <time>2026-05-18T09:17:03+02:00</time>
      </trkpt>
      <trkpt lat="48.47701" lon="6.29853">
        <ele>246.2998</ele>
        <time>2026-05-18T09:17:04+02:00</time>
      </trkpt>
      <trkpt lat="48.47706" lon="6.2985">
        <ele>246.2998</ele>
        <time>2026-05-18T09:17:05+02:00</time>
      </trkpt>
      <trkpt lat="48.47711" lon="6.29848">
        <ele>246.2998</ele>
        <time>2026-05-18T09:17:06+02:00</time>
      </trkpt>
      <trkpt lat="48.47715" lon="6.29846">
        <ele>246.2998</ele>
        <time>2026-05-18T09:17:07+02:00</time>
      </trkpt>
      <trkpt lat="48.4772" lon="6.29844">
        <ele>246.2002</ele>
        <time>2026-05-18T09:17:08+02:00</time>
      </trkpt>
      <trkpt lat="48.47725" lon="6.29842">
        <ele>246.2002</ele>
        <time>2026-05-18T09:17:09+02:00</time>
      </trkpt>
      <trkpt lat="48.47729" lon="6.29839">
        <ele>246.2002</ele>
        <time>2026-05-18T09:17:10+02:00</time>
      </trkpt>
      <trkpt lat="48.47734" lon="6.29837">
        <ele>246.2002</ele>
        <time>2026-05-18T09:17:11+02:00</time>
      </trkpt>
      <trkpt lat="48.47739" lon="6.29834">
        <ele>246.2002</ele>
        <time>2026-05-18T09:17:12+02:00</time>
      </trkpt>
      <trkpt lat="48.47745" lon="6.29832">
        <ele>246.2002</ele>
        <time>2026-05-18T09:17:13+02:00</time>
      </trkpt>
      <trkpt lat="48.47749" lon="6.29829">
        <ele>246.2002</ele>
        <time>2026-05-18T09:17:14+02:00</time>
      </trkpt>
      <trkpt lat="48.47754" lon="6.29826">
        <ele>246.2002</ele>
        <time>2026-05-18T09:17:15+02:00</time>
      </trkpt>
      <trkpt lat="48.47759" lon="6.29824">
        <ele>246.2002</ele>
        <time>2026-05-18T09:17:16+02:00</time>
      </trkpt>
      <trkpt lat="48.47764" lon="6.29821">
        <ele>246.2002</ele>
        <time>2026-05-18T09:17:17+02:00</time>
      </trkpt>
      <trkpt lat="48.47768" lon="6.29818">
        <ele>246.2002</ele>
        <time>2026-05-18T09:17:18+02:00</time>
      </trkpt>
      <trkpt lat="48.47773" lon="6.29815">
        <ele>246.2002</ele>
        <time>2026-05-18T09:17:19+02:00</time>
      </trkpt>
      <trkpt lat="48.47777" lon="6.29812">
        <ele>246.2998</ele>
        <time>2026-05-18T09:17:20+02:00</time>
      </trkpt>
      <trkpt lat="48.47782" lon="6.29809">
        <ele>246.40039</ele>
        <time>2026-05-18T09:17:21+02:00</time>
      </trkpt>
      <trkpt lat="48.47786" lon="6.29806">
        <ele>246.2998</ele>
        <time>2026-05-18T09:17:22+02:00</time>
      </trkpt>
      <trkpt lat="48.47791" lon="6.29803">
        <ele>246.2998</ele>
        <time>2026-05-18T09:17:23+02:00</time>
      </trkpt>
      <trkpt lat="48.47795" lon="6.298">
        <ele>246.2998</ele>
        <time>2026-05-18T09:17:24+02:00</time>
      </trkpt>
      <trkpt lat="48.478" lon="6.29797">
        <ele>246.2002</ele>
        <time>2026-05-18T09:17:25+02:00</time>
      </trkpt>
      <trkpt lat="48.47804" lon="6.29794">
        <ele>246.2002</ele>
        <time>2026-05-18T09:17:26+02:00</time>
      </trkpt>
      <trkpt lat="48.47809" lon="6.29791">
        <ele>246</ele>
        <time>2026-05-18T09:17:27+02:00</time>
      </trkpt>
      <trkpt lat="48.47813" lon="6.29787">
        <ele>245.90039</ele>
        <time>2026-05-18T09:17:28+02:00</time>
      </trkpt>
      <trkpt lat="48.47818" lon="6.29784">
        <ele>245.90039</ele>
        <time>2026-05-18T09:17:29+02:00</time>
      </trkpt>
      <trkpt lat="48.47822" lon="6.29781">
        <ele>245.7998</ele>
        <time>2026-05-18T09:17:30+02:00</time>
      </trkpt>
      <trkpt lat="48.47827" lon="6.29778">
        <ele>245.7998</ele>
        <time>2026-05-18T09:17:31+02:00</time>
      </trkpt>
      <trkpt lat="48.47831" lon="6.29775">
        <ele>245.7998</ele>
        <time>2026-05-18T09:17:32+02:00</time>
      </trkpt>
      <trkpt lat="48.47836" lon="6.29772">
        <ele>245.7002</ele>
        <time>2026-05-18T09:17:33+02:00</time>
      </trkpt>
      <trkpt lat="48.47841" lon="6.29769">
        <ele>245.60059</ele>
        <time>2026-05-18T09:17:34+02:00</time>
      </trkpt>
      <trkpt lat="48.47845" lon="6.29765">
        <ele>245.5</ele>
        <time>2026-05-18T09:17:35+02:00</time>
      </trkpt>
      <trkpt lat="48.4785" lon="6.29762">
        <ele>245.5</ele>
        <time>2026-05-18T09:17:36+02:00</time>
      </trkpt>
      <trkpt lat="48.47854" lon="6.29758">
        <ele>245.5</ele>
        <time>2026-05-18T09:17:37+02:00</time>
      </trkpt>
      <trkpt lat="48.47859" lon="6.29755">
        <ele>245.5</ele>
        <time>2026-05-18T09:17:38+02:00</time>
      </trkpt>
      <trkpt lat="48.47864" lon="6.29752">
        <ele>245.5</ele>
        <time>2026-05-18T09:17:39+02:00</time>
      </trkpt>
      <trkpt lat="48.47868" lon="6.29749">
        <ele>245.5</ele>
        <time>2026-05-18T09:17:40+02:00</time>
      </trkpt>
      <trkpt lat="48.47873" lon="6.29746">
        <ele>245.40039</ele>
        <time>2026-05-18T09:17:41+02:00</time>
      </trkpt>
      <trkpt lat="48.47878" lon="6.29743">
        <ele>245.40039</ele>
        <time>2026-05-18T09:17:42+02:00</time>
      </trkpt>
      <trkpt lat="48.47883" lon="6.29739">
        <ele>245.5</ele>
        <time>2026-05-18T09:17:43+02:00</time>
      </trkpt>
      <trkpt lat="48.47888" lon="6.29736">
        <ele>245.5</ele>
        <time>2026-05-18T09:17:44+02:00</time>
      </trkpt>
      <trkpt lat="48.47893" lon="6.29733">
        <ele>245.40039</ele>
        <time>2026-05-18T09:17:45+02:00</time>
      </trkpt>
      <trkpt lat="48.47897" lon="6.2973">
        <ele>245.40039</ele>
        <time>2026-05-18T09:17:46+02:00</time>
      </trkpt>
      <trkpt lat="48.47902" lon="6.29726">
        <ele>245.40039</ele>
        <time>2026-05-18T09:17:47+02:00</time>
      </trkpt>
      <trkpt lat="48.47907" lon="6.29723">
        <ele>245.2998</ele>
        <time>2026-05-18T09:17:48+02:00</time>
      </trkpt>
      <trkpt lat="48.47912" lon="6.29719">
        <ele>245.2998</ele>
        <time>2026-05-18T09:17:49+02:00</time>
      </trkpt>
      <trkpt lat="48.47917" lon="6.29716">
        <ele>245.2002</ele>
        <time>2026-05-18T09:17:50+02:00</time>
      </trkpt>
      <trkpt lat="48.47922" lon="6.29713">
        <ele>245.2002</ele>
        <time>2026-05-18T09:17:51+02:00</time>
      </trkpt>
      <trkpt lat="48.47926" lon="6.2971">
        <ele>245.10059</ele>
        <time>2026-05-18T09:17:52+02:00</time>
      </trkpt>
      <trkpt lat="48.47931" lon="6.29707">
        <ele>245.2002</ele>
        <time>2026-05-18T09:17:53+02:00</time>
      </trkpt>
      <trkpt lat="48.47936" lon="6.29704">
        <ele>245.2002</ele>
        <time>2026-05-18T09:17:54+02:00</time>
      </trkpt>
      <trkpt lat="48.47941" lon="6.297">
        <ele>245.2002</ele>
        <time>2026-05-18T09:17:55+02:00</time>
      </trkpt>
      <trkpt lat="48.47946" lon="6.29697">
        <ele>245.2002</ele>
        <time>2026-05-18T09:17:56+02:00</time>
      </trkpt>
      <trkpt lat="48.47951" lon="6.29695">
        <ele>245.2002</ele>
        <time>2026-05-18T09:17:57+02:00</time>
      </trkpt>
      <trkpt lat="48.47956" lon="6.29691">
        <ele>245.2002</ele>
        <time>2026-05-18T09:17:58+02:00</time>
      </trkpt>
      <trkpt lat="48.47961" lon="6.29688">
        <ele>245.2002</ele>
        <time>2026-05-18T09:17:59+02:00</time>
      </trkpt>
      <trkpt lat="48.47966" lon="6.29684">
        <ele>245.10059</ele>
        <time>2026-05-18T09:18:00+02:00</time>
      </trkpt>
      <trkpt lat="48.47971" lon="6.29681">
        <ele>245.10059</ele>
        <time>2026-05-18T09:18:01+02:00</time>
      </trkpt>
      <trkpt lat="48.47976" lon="6.29678">
        <ele>245.10059</ele>
        <time>2026-05-18T09:18:02+02:00</time>
      </trkpt>
      <trkpt lat="48.47981" lon="6.29674">
        <ele>245.10059</ele>
        <time>2026-05-18T09:18:03+02:00</time>
      </trkpt>
      <trkpt lat="48.47986" lon="6.29671">
        <ele>245.10059</ele>
        <time>2026-05-18T09:18:04+02:00</time>
      </trkpt>
      <trkpt lat="48.47991" lon="6.29667">
        <ele>245.2002</ele>
        <time>2026-05-18T09:18:05+02:00</time>
      </trkpt>
      <trkpt lat="48.47996" lon="6.29664">
        <ele>245.2002</ele>
        <time>2026-05-18T09:18:06+02:00</time>
      </trkpt>
      <trkpt lat="48.48" lon="6.2966">
        <ele>245.2998</ele>
        <time>2026-05-18T09:18:07+02:00</time>
      </trkpt>
      <trkpt lat="48.48005" lon="6.29657">
        <ele>245.2002</ele>
        <time>2026-05-18T09:18:08+02:00</time>
      </trkpt>
      <trkpt lat="48.48011" lon="6.29654">
        <ele>245.2002</ele>
        <time>2026-05-18T09:18:09+02:00</time>
      </trkpt>
      <trkpt lat="48.48015" lon="6.29651">
        <ele>245.2002</ele>
        <time>2026-05-18T09:18:10+02:00</time>
      </trkpt>
      <trkpt lat="48.4802" lon="6.29647">
        <ele>245.2002</ele>
        <time>2026-05-18T09:18:11+02:00</time>
      </trkpt>
      <trkpt lat="48.48024" lon="6.29643">
        <ele>245.10059</ele>
        <time>2026-05-18T09:18:12+02:00</time>
      </trkpt>
      <trkpt lat="48.48029" lon="6.2964">
        <ele>245</ele>
        <time>2026-05-18T09:18:13+02:00</time>
      </trkpt>
      <trkpt lat="48.48034" lon="6.29637">
        <ele>245</ele>
        <time>2026-05-18T09:18:14+02:00</time>
      </trkpt>
      <trkpt lat="48.48039" lon="6.29633">
        <ele>245</ele>
        <time>2026-05-18T09:18:15+02:00</time>
      </trkpt>
      <trkpt lat="48.48044" lon="6.2963">
        <ele>245</ele>
        <time>2026-05-18T09:18:16+02:00</time>
      </trkpt>
      <trkpt lat="48.48049" lon="6.29626">
        <ele>244.90039</ele>
        <time>2026-05-18T09:18:17+02:00</time>
      </trkpt>
      <trkpt lat="48.48054" lon="6.29623">
        <ele>244.90039</ele>
        <time>2026-05-18T09:18:18+02:00</time>
      </trkpt>
      <trkpt lat="48.48059" lon="6.2962">
        <ele>245</ele>
        <time>2026-05-18T09:18:19+02:00</time>
      </trkpt>
      <trkpt lat="48.48065" lon="6.29616">
        <ele>245</ele>
        <time>2026-05-18T09:18:20+02:00</time>
      </trkpt>
      <trkpt lat="48.4807" lon="6.29613">
        <ele>245.10059</ele>
        <time>2026-05-18T09:18:21+02:00</time>
      </trkpt>
      <trkpt lat="48.48074" lon="6.29609">
        <ele>245.10059</ele>
        <time>2026-05-18T09:18:22+02:00</time>
      </trkpt>
      <trkpt lat="48.48079" lon="6.29606">
        <ele>245.2998</ele>
        <time>2026-05-18T09:18:23+02:00</time>
      </trkpt>
      <trkpt lat="48.48085" lon="6.29602">
        <ele>245.10059</ele>
        <time>2026-05-18T09:18:24+02:00</time>
      </trkpt>
      <trkpt lat="48.4809" lon="6.29599">
        <ele>245.2002</ele>
        <time>2026-05-18T09:18:25+02:00</time>
      </trkpt>
      <trkpt lat="48.48095" lon="6.29596">
        <ele>245.2002</ele>
        <time>2026-05-18T09:18:26+02:00</time>
      </trkpt>
      <trkpt lat="48.48101" lon="6.29592">
        <ele>245</ele>
        <time>2026-05-18T09:18:27+02:00</time>
      </trkpt>
      <trkpt lat="48.48106" lon="6.29589">
        <ele>245.10059</ele>
        <time>2026-05-18T09:18:28+02:00</time>
      </trkpt>
      <trkpt lat="48.48111" lon="6.29586">
        <ele>245.10059</ele>
        <time>2026-05-18T09:18:29+02:00</time>
      </trkpt>
      <trkpt lat="48.48116" lon="6.29582">
        <ele>245.2002</ele>
        <time>2026-05-18T09:18:30+02:00</time>
      </trkpt>
      <trkpt lat="48.48121" lon="6.29579">
        <ele>245.40039</ele>
        <time>2026-05-18T09:18:31+02:00</time>
      </trkpt>
      <trkpt lat="48.48126" lon="6.29575">
        <ele>245.5</ele>
        <time>2026-05-18T09:18:32+02:00</time>
      </trkpt>
      <trkpt lat="48.48132" lon="6.29572">
        <ele>245.60059</ele>
        <time>2026-05-18T09:18:33+02:00</time>
      </trkpt>
      <trkpt lat="48.48137" lon="6.29569">
        <ele>245.60059</ele>
        <time>2026-05-18T09:18:34+02:00</time>
      </trkpt>
      <trkpt lat="48.48142" lon="6.29565">
        <ele>245.2998</ele>
        <time>2026-05-18T09:18:35+02:00</time>
      </trkpt>
      <trkpt lat="48.48148" lon="6.29562">
        <ele>245.2998</ele>
        <time>2026-05-18T09:18:36+02:00</time>
      </trkpt>
      <trkpt lat="48.48153" lon="6.29559">
        <ele>245</ele>
        <time>2026-05-18T09:18:37+02:00</time>
      </trkpt>
      <trkpt lat="48.48158" lon="6.29555">
        <ele>245</ele>
        <time>2026-05-18T09:18:38+02:00</time>
      </trkpt>
      <trkpt lat="48.48164" lon="6.29552">
        <ele>245.10059</ele>
        <time>2026-05-18T09:18:39+02:00</time>
      </trkpt>
      <trkpt lat="48.48169" lon="6.29548">
        <ele>244.90039</ele>
        <time>2026-05-18T09:18:40+02:00</time>
      </trkpt>
      <trkpt lat="48.48174" lon="6.29545">
        <ele>244.90039</ele>
        <time>2026-05-18T09:18:41+02:00</time>
      </trkpt>
      <trkpt lat="48.48179" lon="6.29542">
        <ele>245</ele>
        <time>2026-05-18T09:18:42+02:00</time>
      </trkpt>
      <trkpt lat="48.48185" lon="6.29539">
        <ele>245.2998</ele>
        <time>2026-05-18T09:18:43+02:00</time>
      </trkpt>
      <trkpt lat="48.4819" lon="6.29536">
        <ele>245.60059</ele>
        <time>2026-05-18T09:18:44+02:00</time>
      </trkpt>
      <trkpt lat="48.48195" lon="6.29533">
        <ele>245.5</ele>
        <time>2026-05-18T09:18:45+02:00</time>
      </trkpt>
      <trkpt lat="48.482" lon="6.29531">
        <ele>245.60059</ele>
        <time>2026-05-18T09:18:46+02:00</time>
      </trkpt>
      <trkpt lat="48.48206" lon="6.29528">
        <ele>245.60059</ele>
        <time>2026-05-18T09:18:47+02:00</time>
      </trkpt>
      <trkpt lat="48.48211" lon="6.29525">
        <ele>245.2002</ele>
        <time>2026-05-18T09:18:48+02:00</time>
      </trkpt>
      <trkpt lat="48.48214" lon="6.29523">
        <ele>245.2002</ele>
        <time>2026-05-18T09:18:49+02:00</time>
      </trkpt>
      <trkpt lat="48.48222" lon="6.29519">
        <ele>245.2002</ele>
        <time>2026-05-18T09:18:50+02:00</time>
      </trkpt>
      <trkpt lat="48.48227" lon="6.29517">
        <ele>245.2998</ele>
        <time>2026-05-18T09:18:51+02:00</time>
      </trkpt>
      <trkpt lat="48.48232" lon="6.29514">
        <ele>244.90039</ele>
        <time>2026-05-18T09:18:52+02:00</time>
      </trkpt>
      <trkpt lat="48.48238" lon="6.29511">
        <ele>245</ele>
        <time>2026-05-18T09:18:53+02:00</time>
      </trkpt>
      <trkpt lat="48.48243" lon="6.29509">
        <ele>245.2998</ele>
        <time>2026-05-18T09:18:54+02:00</time>
      </trkpt>
      <trkpt lat="48.48249" lon="6.29506">
        <ele>245.5</ele>
        <time>2026-05-18T09:18:55+02:00</time>
      </trkpt>
      <trkpt lat="48.48255" lon="6.29504">
        <ele>245.90039</ele>
        <time>2026-05-18T09:18:56+02:00</time>
      </trkpt>
      <trkpt lat="48.4826" lon="6.29502">
        <ele>246.10059</ele>
        <time>2026-05-18T09:18:57+02:00</time>
      </trkpt>
      <trkpt lat="48.48265" lon="6.29499">
        <ele>245.7998</ele>
        <time>2026-05-18T09:18:58+02:00</time>
      </trkpt>
      <trkpt lat="48.48271" lon="6.29496">
        <ele>245.7998</ele>
        <time>2026-05-18T09:18:59+02:00</time>
      </trkpt>
      <trkpt lat="48.48276" lon="6.29494">
        <ele>245.7998</ele>
        <time>2026-05-18T09:19:00+02:00</time>
      </trkpt>
      <trkpt lat="48.48282" lon="6.29492">
        <ele>245.7998</ele>
        <time>2026-05-18T09:19:01+02:00</time>
      </trkpt>
      <trkpt lat="48.48287" lon="6.2949">
        <ele>245.40039</ele>
        <time>2026-05-18T09:19:02+02:00</time>
      </trkpt>
      <trkpt lat="48.48293" lon="6.29487">
        <ele>245.40039</ele>
        <time>2026-05-18T09:19:03+02:00</time>
      </trkpt>
      <trkpt lat="48.48298" lon="6.29485">
        <ele>245.40039</ele>
        <time>2026-05-18T09:19:04+02:00</time>
      </trkpt>
      <trkpt lat="48.48304" lon="6.29483">
        <ele>245.40039</ele>
        <time>2026-05-18T09:19:05+02:00</time>
      </trkpt>
      <trkpt lat="48.4831" lon="6.29481">
        <ele>245</ele>
        <time>2026-05-18T09:19:06+02:00</time>
      </trkpt>
      <trkpt lat="48.48316" lon="6.29479">
        <ele>245</ele>
        <time>2026-05-18T09:19:07+02:00</time>
      </trkpt>
      <trkpt lat="48.48321" lon="6.29477">
        <ele>245</ele>
        <time>2026-05-18T09:19:08+02:00</time>
      </trkpt>
      <trkpt lat="48.48326" lon="6.29475">
        <ele>245</ele>
        <time>2026-05-18T09:19:09+02:00</time>
      </trkpt>
      <trkpt lat="48.48332" lon="6.29474">
        <ele>245.10059</ele>
        <time>2026-05-18T09:19:10+02:00</time>
      </trkpt>
      <trkpt lat="48.48337" lon="6.29472">
        <ele>244.7998</ele>
        <time>2026-05-18T09:19:11+02:00</time>
      </trkpt>
      <trkpt lat="48.48343" lon="6.29471">
        <ele>244.7998</ele>
        <time>2026-05-18T09:19:12+02:00</time>
      </trkpt>
      <trkpt lat="48.48348" lon="6.29469">
        <ele>244.7998</ele>
        <time>2026-05-18T09:19:13+02:00</time>
      </trkpt>
      <trkpt lat="48.48354" lon="6.29468">
        <ele>244.7998</ele>
        <time>2026-05-18T09:19:14+02:00</time>
      </trkpt>
      <trkpt lat="48.48359" lon="6.29466">
        <ele>244.7998</ele>
        <time>2026-05-18T09:19:15+02:00</time>
      </trkpt>
      <trkpt lat="48.48365" lon="6.29464">
        <ele>244.60059</ele>
        <time>2026-05-18T09:19:16+02:00</time>
      </trkpt>
      <trkpt lat="48.4837" lon="6.29463">
        <ele>244.60059</ele>
        <time>2026-05-18T09:19:17+02:00</time>
      </trkpt>
      <trkpt lat="48.48376" lon="6.29462">
        <ele>244.7002</ele>
        <time>2026-05-18T09:19:18+02:00</time>
      </trkpt>
      <trkpt lat="48.48382" lon="6.2946">
        <ele>245</ele>
        <time>2026-05-18T09:19:19+02:00</time>
      </trkpt>
      <trkpt lat="48.48388" lon="6.29459">
        <ele>245.40039</ele>
        <time>2026-05-18T09:19:20+02:00</time>
      </trkpt>
      <trkpt lat="48.48393" lon="6.29459">
        <ele>245.7002</ele>
        <time>2026-05-18T09:19:21+02:00</time>
      </trkpt>
      <trkpt lat="48.48399" lon="6.29457">
        <ele>245.7998</ele>
        <time>2026-05-18T09:19:22+02:00</time>
      </trkpt>
      <trkpt lat="48.48405" lon="6.29457">
        <ele>245.90039</ele>
        <time>2026-05-18T09:19:23+02:00</time>
      </trkpt>
      <trkpt lat="48.48411" lon="6.29456">
        <ele>245.60059</ele>
        <time>2026-05-18T09:19:24+02:00</time>
      </trkpt>
      <trkpt lat="48.48417" lon="6.29455">
        <ele>245.7002</ele>
        <time>2026-05-18T09:19:25+02:00</time>
      </trkpt>
      <trkpt lat="48.48422" lon="6.29455">
        <ele>245.7002</ele>
        <time>2026-05-18T09:19:26+02:00</time>
      </trkpt>
      <trkpt lat="48.48428" lon="6.29455">
        <ele>245.7002</ele>
        <time>2026-05-18T09:19:27+02:00</time>
      </trkpt>
      <trkpt lat="48.48434" lon="6.29454">
        <ele>245.7002</ele>
        <time>2026-05-18T09:19:28+02:00</time>
      </trkpt>
      <trkpt lat="48.4844" lon="6.29454">
        <ele>245.7002</ele>
        <time>2026-05-18T09:19:29+02:00</time>
      </trkpt>
      <trkpt lat="48.48445" lon="6.29453">
        <ele>245.7002</ele>
        <time>2026-05-18T09:19:30+02:00</time>
      </trkpt>
      <trkpt lat="48.48451" lon="6.29452">
        <ele>245.60059</ele>
        <time>2026-05-18T09:19:31+02:00</time>
      </trkpt>
      <trkpt lat="48.48457" lon="6.29452">
        <ele>245.60059</ele>
        <time>2026-05-18T09:19:32+02:00</time>
      </trkpt>
      <trkpt lat="48.48463" lon="6.29451">
        <ele>245.60059</ele>
        <time>2026-05-18T09:19:33+02:00</time>
      </trkpt>
      <trkpt lat="48.48469" lon="6.29451">
        <ele>245.60059</ele>
        <time>2026-05-18T09:19:34+02:00</time>
      </trkpt>
      <trkpt lat="48.48475" lon="6.2945">
        <ele>245.5</ele>
        <time>2026-05-18T09:19:35+02:00</time>
      </trkpt>
      <trkpt lat="48.48481" lon="6.2945">
        <ele>245.5</ele>
        <time>2026-05-18T09:19:36+02:00</time>
      </trkpt>
      <trkpt lat="48.48486" lon="6.29449">
        <ele>245.5</ele>
        <time>2026-05-18T09:19:37+02:00</time>
      </trkpt>
      <trkpt lat="48.48492" lon="6.29449">
        <ele>245.40039</ele>
        <time>2026-05-18T09:19:38+02:00</time>
      </trkpt>
      <trkpt lat="48.48498" lon="6.29448">
        <ele>245.40039</ele>
        <time>2026-05-18T09:19:39+02:00</time>
      </trkpt>
      <trkpt lat="48.48503" lon="6.29447">
        <ele>245.10059</ele>
        <time>2026-05-18T09:19:40+02:00</time>
      </trkpt>
      <trkpt lat="48.48508" lon="6.29446">
        <ele>245.10059</ele>
        <time>2026-05-18T09:19:41+02:00</time>
      </trkpt>
      <trkpt lat="48.48514" lon="6.29445">
        <ele>245</ele>
        <time>2026-05-18T09:19:42+02:00</time>
      </trkpt>
      <trkpt lat="48.48519" lon="6.29445">
        <ele>245</ele>
        <time>2026-05-18T09:19:43+02:00</time>
      </trkpt>
      <trkpt lat="48.48524" lon="6.29444">
        <ele>244.90039</ele>
        <time>2026-05-18T09:19:44+02:00</time>
      </trkpt>
      <trkpt lat="48.4853" lon="6.29444">
        <ele>244.90039</ele>
        <time>2026-05-18T09:19:45+02:00</time>
      </trkpt>
      <trkpt lat="48.48536" lon="6.29443">
        <ele>244.90039</ele>
        <time>2026-05-18T09:19:46+02:00</time>
      </trkpt>
      <trkpt lat="48.48542" lon="6.29443">
        <ele>244.7998</ele>
        <time>2026-05-18T09:19:47+02:00</time>
      </trkpt>
      <trkpt lat="48.48547" lon="6.29442">
        <ele>244.7998</ele>
        <time>2026-05-18T09:19:48+02:00</time>
      </trkpt>
      <trkpt lat="48.48553" lon="6.29441">
        <ele>244.7998</ele>
        <time>2026-05-18T09:19:49+02:00</time>
      </trkpt>
      <trkpt lat="48.48559" lon="6.29441">
        <ele>244.7002</ele>
        <time>2026-05-18T09:19:50+02:00</time>
      </trkpt>
      <trkpt lat="48.48565" lon="6.2944">
        <ele>244.7002</ele>
        <time>2026-05-18T09:19:51+02:00</time>
      </trkpt>
      <trkpt lat="48.4857" lon="6.29439">
        <ele>244.60059</ele>
        <time>2026-05-18T09:19:52+02:00</time>
      </trkpt>
      <trkpt lat="48.48576" lon="6.29439">
        <ele>244.60059</ele>
        <time>2026-05-18T09:19:53+02:00</time>
      </trkpt>
      <trkpt lat="48.48581" lon="6.29438">
        <ele>244.5</ele>
        <time>2026-05-18T09:19:54+02:00</time>
      </trkpt>
      <trkpt lat="48.48584" lon="6.29437">
        <ele>244.5</ele>
        <time>2026-05-18T09:19:55+02:00</time>
      </trkpt>
      <trkpt lat="48.48593" lon="6.29436">
        <ele>244.5</ele>
        <time>2026-05-18T09:19:56+02:00</time>
      </trkpt>
      <trkpt lat="48.48598" lon="6.29436">
        <ele>244.40039</ele>
        <time>2026-05-18T09:19:57+02:00</time>
      </trkpt>
      <trkpt lat="48.48604" lon="6.29435">
        <ele>244.5</ele>
        <time>2026-05-18T09:19:58+02:00</time>
      </trkpt>
      <trkpt lat="48.4861" lon="6.29434">
        <ele>244.5</ele>
        <time>2026-05-18T09:19:59+02:00</time>
      </trkpt>
      <trkpt lat="48.48615" lon="6.29433">
        <ele>244.60059</ele>
        <time>2026-05-18T09:20:00+02:00</time>
      </trkpt>
      <trkpt lat="48.48621" lon="6.29432">
        <ele>244.7998</ele>
        <time>2026-05-18T09:20:01+02:00</time>
      </trkpt>
      <trkpt lat="48.48626" lon="6.29432">
        <ele>244.90039</ele>
        <time>2026-05-18T09:20:02+02:00</time>
      </trkpt>
      <trkpt lat="48.48633" lon="6.29431">
        <ele>245.10059</ele>
        <time>2026-05-18T09:20:03+02:00</time>
      </trkpt>
      <trkpt lat="48.48638" lon="6.2943">
        <ele>245.60059</ele>
        <time>2026-05-18T09:20:04+02:00</time>
      </trkpt>
      <trkpt lat="48.48644" lon="6.2943">
        <ele>245.7998</ele>
        <time>2026-05-18T09:20:05+02:00</time>
      </trkpt>
      <trkpt lat="48.48649" lon="6.29429">
        <ele>245.7998</ele>
        <time>2026-05-18T09:20:06+02:00</time>
      </trkpt>
      <trkpt lat="48.48655" lon="6.29428">
        <ele>245.90039</ele>
        <time>2026-05-18T09:20:07+02:00</time>
      </trkpt>
      <trkpt lat="48.48661" lon="6.29427">
        <ele>245.90039</ele>
        <time>2026-05-18T09:20:08+02:00</time>
      </trkpt>
      <trkpt lat="48.48663" lon="6.29426">
        <ele>245.90039</ele>
        <time>2026-05-18T09:20:09+02:00</time>
      </trkpt>
      <trkpt lat="48.48672" lon="6.29425">
        <ele>245.7002</ele>
        <time>2026-05-18T09:20:10+02:00</time>
      </trkpt>
      <trkpt lat="48.48678" lon="6.29424">
        <ele>245.60059</ele>
        <time>2026-05-18T09:20:11+02:00</time>
      </trkpt>
      <trkpt lat="48.48683" lon="6.29423">
        <ele>245.5</ele>
        <time>2026-05-18T09:20:12+02:00</time>
      </trkpt>
      <trkpt lat="48.48689" lon="6.29423">
        <ele>245.2998</ele>
        <time>2026-05-18T09:20:13+02:00</time>
      </trkpt>
      <trkpt lat="48.48695" lon="6.29422">
        <ele>245.10059</ele>
        <time>2026-05-18T09:20:14+02:00</time>
      </trkpt>
      <trkpt lat="48.487" lon="6.29421">
        <ele>244.7002</ele>
        <time>2026-05-18T09:20:15+02:00</time>
      </trkpt>
      <trkpt lat="48.48703" lon="6.29421">
        <ele>244.7002</ele>
        <time>2026-05-18T09:20:16+02:00</time>
      </trkpt>
      <trkpt lat="48.48712" lon="6.2942">
        <ele>244.40039</ele>
        <time>2026-05-18T09:20:17+02:00</time>
      </trkpt>
      <trkpt lat="48.48718" lon="6.29419">
        <ele>244.5</ele>
        <time>2026-05-18T09:20:18+02:00</time>
      </trkpt>
      <trkpt lat="48.48724" lon="6.29418">
        <ele>244.60059</ele>
        <time>2026-05-18T09:20:19+02:00</time>
      </trkpt>
      <trkpt lat="48.4873" lon="6.29417">
        <ele>244.7002</ele>
        <time>2026-05-18T09:20:20+02:00</time>
      </trkpt>
      <trkpt lat="48.48736" lon="6.29416">
        <ele>244.7998</ele>
        <time>2026-05-18T09:20:21+02:00</time>
      </trkpt>
      <trkpt lat="48.48742" lon="6.29415">
        <ele>244.7998</ele>
        <time>2026-05-18T09:20:22+02:00</time>
      </trkpt>
      <trkpt lat="48.48747" lon="6.29415">
        <ele>244.90039</ele>
        <time>2026-05-18T09:20:23+02:00</time>
      </trkpt>
      <trkpt lat="48.48753" lon="6.29414">
        <ele>245</ele>
        <time>2026-05-18T09:20:24+02:00</time>
      </trkpt>
      <trkpt lat="48.48758" lon="6.29413">
        <ele>245</ele>
        <time>2026-05-18T09:20:25+02:00</time>
      </trkpt>
      <trkpt lat="48.48764" lon="6.29412">
        <ele>245</ele>
        <time>2026-05-18T09:20:26+02:00</time>
      </trkpt>
      <trkpt lat="48.48769" lon="6.29412">
        <ele>245</ele>
        <time>2026-05-18T09:20:27+02:00</time>
      </trkpt>
      <trkpt lat="48.48775" lon="6.29411">
        <ele>245.10059</ele>
        <time>2026-05-18T09:20:28+02:00</time>
      </trkpt>
      <trkpt lat="48.48781" lon="6.2941">
        <ele>245.10059</ele>
        <time>2026-05-18T09:20:29+02:00</time>
      </trkpt>
      <trkpt lat="48.48786" lon="6.29409">
        <ele>245.2002</ele>
        <time>2026-05-18T09:20:30+02:00</time>
      </trkpt>
      <trkpt lat="48.48792" lon="6.29408">
        <ele>245.2002</ele>
        <time>2026-05-18T09:20:31+02:00</time>
      </trkpt>
      <trkpt lat="48.48798" lon="6.29408">
        <ele>245.2998</ele>
        <time>2026-05-18T09:20:32+02:00</time>
      </trkpt>
      <trkpt lat="48.48803" lon="6.29407">
        <ele>245.40039</ele>
        <time>2026-05-18T09:20:33+02:00</time>
      </trkpt>
      <trkpt lat="48.4881" lon="6.29407">
        <ele>245.5</ele>
        <time>2026-05-18T09:20:34+02:00</time>
      </trkpt>
      <trkpt lat="48.48815" lon="6.29406">
        <ele>245.60059</ele>
        <time>2026-05-18T09:20:35+02:00</time>
      </trkpt>
      <trkpt lat="48.48821" lon="6.29405">
        <ele>245.7002</ele>
        <time>2026-05-18T09:20:36+02:00</time>
      </trkpt>
      <trkpt lat="48.48827" lon="6.29404">
        <ele>245.60059</ele>
        <time>2026-05-18T09:20:37+02:00</time>
      </trkpt>
      <trkpt lat="48.48833" lon="6.29403">
        <ele>245.60059</ele>
        <time>2026-05-18T09:20:38+02:00</time>
      </trkpt>
      <trkpt lat="48.48839" lon="6.29403">
        <ele>245.7002</ele>
        <time>2026-05-18T09:20:39+02:00</time>
      </trkpt>
      <trkpt lat="48.48844" lon="6.29401">
        <ele>245.7002</ele>
        <time>2026-05-18T09:20:40+02:00</time>
      </trkpt>
      <trkpt lat="48.48849" lon="6.29401">
        <ele>245.7002</ele>
        <time>2026-05-18T09:20:41+02:00</time>
      </trkpt>
      <trkpt lat="48.48855" lon="6.294">
        <ele>245.60059</ele>
        <time>2026-05-18T09:20:42+02:00</time>
      </trkpt>
      <trkpt lat="48.4886" lon="6.29399">
        <ele>245.5</ele>
        <time>2026-05-18T09:20:43+02:00</time>
      </trkpt>
      <trkpt lat="48.48865" lon="6.29398">
        <ele>245.5</ele>
        <time>2026-05-18T09:20:44+02:00</time>
      </trkpt>
      <trkpt lat="48.48871" lon="6.29397">
        <ele>245.5</ele>
        <time>2026-05-18T09:20:45+02:00</time>
      </trkpt>
      <trkpt lat="48.48876" lon="6.29397">
        <ele>245.40039</ele>
        <time>2026-05-18T09:20:46+02:00</time>
      </trkpt>
      <trkpt lat="48.48881" lon="6.29396">
        <ele>245.2002</ele>
        <time>2026-05-18T09:20:47+02:00</time>
      </trkpt>
      <trkpt lat="48.48887" lon="6.29395">
        <ele>245.2002</ele>
        <time>2026-05-18T09:20:48+02:00</time>
      </trkpt>
      <trkpt lat="48.48892" lon="6.29394">
        <ele>245.2002</ele>
        <time>2026-05-18T09:20:49+02:00</time>
      </trkpt>
      <trkpt lat="48.48897" lon="6.29393">
        <ele>245.2002</ele>
        <time>2026-05-18T09:20:50+02:00</time>
      </trkpt>
      <trkpt lat="48.48903" lon="6.29392">
        <ele>245.2002</ele>
        <time>2026-05-18T09:20:51+02:00</time>
      </trkpt>
      <trkpt lat="48.48908" lon="6.29391">
        <ele>245.2002</ele>
        <time>2026-05-18T09:20:52+02:00</time>
      </trkpt>
      <trkpt lat="48.48913" lon="6.2939">
        <ele>245.2002</ele>
        <time>2026-05-18T09:20:53+02:00</time>
      </trkpt>
      <trkpt lat="48.48919" lon="6.29389">
        <ele>245.10059</ele>
        <time>2026-05-18T09:20:54+02:00</time>
      </trkpt>
      <trkpt lat="48.48924" lon="6.29389">
        <ele>245.10059</ele>
        <time>2026-05-18T09:20:55+02:00</time>
      </trkpt>
      <trkpt lat="48.48929" lon="6.29388">
        <ele>245.10059</ele>
        <time>2026-05-18T09:20:56+02:00</time>
      </trkpt>
      <trkpt lat="48.48935" lon="6.29388">
        <ele>245.2002</ele>
        <time>2026-05-18T09:20:57+02:00</time>
      </trkpt>
      <trkpt lat="48.4894" lon="6.29387">
        <ele>245.2002</ele>
        <time>2026-05-18T09:20:58+02:00</time>
      </trkpt>
      <trkpt lat="48.48946" lon="6.29386">
        <ele>245.60059</ele>
        <time>2026-05-18T09:20:59+02:00</time>
      </trkpt>
      <trkpt lat="48.48951" lon="6.29385">
        <ele>245.90039</ele>
        <time>2026-05-18T09:21:00+02:00</time>
      </trkpt>
      <trkpt lat="48.48956" lon="6.29384">
        <ele>246.2002</ele>
        <time>2026-05-18T09:21:01+02:00</time>
      </trkpt>
      <trkpt lat="48.48962" lon="6.29382">
        <ele>246.5</ele>
        <time>2026-05-18T09:21:02+02:00</time>
      </trkpt>
      <trkpt lat="48.48967" lon="6.29381">
        <ele>246.7002</ele>
        <time>2026-05-18T09:21:03+02:00</time>
      </trkpt>
      <trkpt lat="48.48973" lon="6.2938">
        <ele>246.90039</ele>
        <time>2026-05-18T09:21:04+02:00</time>
      </trkpt>
      <trkpt lat="48.48979" lon="6.29379">
        <ele>247</ele>
        <time>2026-05-18T09:21:05+02:00</time>
      </trkpt>
      <trkpt lat="48.48984" lon="6.29378">
        <ele>247</ele>
        <time>2026-05-18T09:21:06+02:00</time>
      </trkpt>
      <trkpt lat="48.4899" lon="6.29377">
        <ele>246.90039</ele>
        <time>2026-05-18T09:21:07+02:00</time>
      </trkpt>
      <trkpt lat="48.48996" lon="6.29376">
        <ele>246.7002</ele>
        <time>2026-05-18T09:21:08+02:00</time>
      </trkpt>
      <trkpt lat="48.49001" lon="6.29374">
        <ele>246.7998</ele>
        <time>2026-05-18T09:21:09+02:00</time>
      </trkpt>
      <trkpt lat="48.49007" lon="6.29373">
        <ele>246.90039</ele>
        <time>2026-05-18T09:21:10+02:00</time>
      </trkpt>
      <trkpt lat="48.49013" lon="6.29371">
        <ele>247</ele>
        <time>2026-05-18T09:21:11+02:00</time>
      </trkpt>
      <trkpt lat="48.49018" lon="6.2937">
        <ele>247</ele>
        <time>2026-05-18T09:21:12+02:00</time>
      </trkpt>
      <trkpt lat="48.49024" lon="6.29369">
        <ele>247</ele>
        <time>2026-05-18T09:21:13+02:00</time>
      </trkpt>
      <trkpt lat="48.4903" lon="6.29367">
        <ele>247</ele>
        <time>2026-05-18T09:21:14+02:00</time>
      </trkpt>
      <trkpt lat="48.49035" lon="6.29365">
        <ele>247</ele>
        <time>2026-05-18T09:21:15+02:00</time>
      </trkpt>
      <trkpt lat="48.4904" lon="6.29364">
        <ele>246.90039</ele>
        <time>2026-05-18T09:21:16+02:00</time>
      </trkpt>
      <trkpt lat="48.49046" lon="6.29363">
        <ele>246.90039</ele>
        <time>2026-05-18T09:21:17+02:00</time>
      </trkpt>
      <trkpt lat="48.49052" lon="6.29361">
        <ele>246.90039</ele>
        <time>2026-05-18T09:21:18+02:00</time>
      </trkpt>
      <trkpt lat="48.49055" lon="6.2936">
        <ele>246.90039</ele>
        <time>2026-05-18T09:21:19+02:00</time>
      </trkpt>
      <trkpt lat="48.49064" lon="6.29358">
        <ele>247</ele>
        <time>2026-05-18T09:21:20+02:00</time>
      </trkpt>
      <trkpt lat="48.4907" lon="6.29356">
        <ele>247</ele>
        <time>2026-05-18T09:21:21+02:00</time>
      </trkpt>
      <trkpt lat="48.49076" lon="6.29354">
        <ele>247</ele>
        <time>2026-05-18T09:21:22+02:00</time>
      </trkpt>
      <trkpt lat="48.49082" lon="6.29353">
        <ele>247</ele>
        <time>2026-05-18T09:21:23+02:00</time>
      </trkpt>
      <trkpt lat="48.49088" lon="6.29351">
        <ele>247</ele>
        <time>2026-05-18T09:21:24+02:00</time>
      </trkpt>
      <trkpt lat="48.49094" lon="6.29348">
        <ele>247</ele>
        <time>2026-05-18T09:21:25+02:00</time>
      </trkpt>
      <trkpt lat="48.491" lon="6.29346">
        <ele>247</ele>
        <time>2026-05-18T09:21:26+02:00</time>
      </trkpt>
      <trkpt lat="48.49106" lon="6.29344">
        <ele>247</ele>
        <time>2026-05-18T09:21:27+02:00</time>
      </trkpt>
      <trkpt lat="48.49112" lon="6.29342">
        <ele>247</ele>
        <time>2026-05-18T09:21:28+02:00</time>
      </trkpt>
      <trkpt lat="48.49119" lon="6.2934">
        <ele>247</ele>
        <time>2026-05-18T09:21:29+02:00</time>
      </trkpt>
      <trkpt lat="48.49124" lon="6.29338">
        <ele>247</ele>
        <time>2026-05-18T09:21:30+02:00</time>
      </trkpt>
      <trkpt lat="48.49129" lon="6.29336">
        <ele>247</ele>
        <time>2026-05-18T09:21:31+02:00</time>
      </trkpt>
      <trkpt lat="48.49135" lon="6.29334">
        <ele>247</ele>
        <time>2026-05-18T09:21:32+02:00</time>
      </trkpt>
      <trkpt lat="48.49138" lon="6.29333">
        <ele>247</ele>
        <time>2026-05-18T09:21:33+02:00</time>
      </trkpt>
      <trkpt lat="48.49146" lon="6.2933">
        <ele>247</ele>
        <time>2026-05-18T09:21:34+02:00</time>
      </trkpt>
      <trkpt lat="48.49152" lon="6.29328">
        <ele>247</ele>
        <time>2026-05-18T09:21:35+02:00</time>
      </trkpt>
      <trkpt lat="48.49157" lon="6.29326">
        <ele>247</ele>
        <time>2026-05-18T09:21:36+02:00</time>
      </trkpt>
      <trkpt lat="48.49162" lon="6.29323">
        <ele>246.90039</ele>
        <time>2026-05-18T09:21:37+02:00</time>
      </trkpt>
      <trkpt lat="48.49167" lon="6.29321">
        <ele>246.90039</ele>
        <time>2026-05-18T09:21:38+02:00</time>
      </trkpt>
      <trkpt lat="48.49173" lon="6.29319">
        <ele>246.90039</ele>
        <time>2026-05-18T09:21:39+02:00</time>
      </trkpt>
      <trkpt lat="48.49178" lon="6.29316">
        <ele>246.90039</ele>
        <time>2026-05-18T09:21:40+02:00</time>
      </trkpt>
      <trkpt lat="48.49183" lon="6.29314">
        <ele>246.90039</ele>
        <time>2026-05-18T09:21:41+02:00</time>
      </trkpt>
      <trkpt lat="48.49189" lon="6.29312">
        <ele>246.90039</ele>
        <time>2026-05-18T09:21:42+02:00</time>
      </trkpt>
      <trkpt lat="48.49191" lon="6.29311">
        <ele>246.90039</ele>
        <time>2026-05-18T09:21:43+02:00</time>
      </trkpt>
      <trkpt lat="48.49199" lon="6.29308">
        <ele>246.7998</ele>
        <time>2026-05-18T09:21:44+02:00</time>
      </trkpt>
      <trkpt lat="48.49205" lon="6.29305">
        <ele>246.7998</ele>
        <time>2026-05-18T09:21:45+02:00</time>
      </trkpt>
      <trkpt lat="48.4921" lon="6.29302">
        <ele>246.7998</ele>
        <time>2026-05-18T09:21:46+02:00</time>
      </trkpt>
      <trkpt lat="48.49216" lon="6.293">
        <ele>246.7998</ele>
        <time>2026-05-18T09:21:47+02:00</time>
      </trkpt>
      <trkpt lat="48.49222" lon="6.29297">
        <ele>246.7002</ele>
        <time>2026-05-18T09:21:48+02:00</time>
      </trkpt>
      <trkpt lat="48.49228" lon="6.29294">
        <ele>246.7002</ele>
        <time>2026-05-18T09:21:49+02:00</time>
      </trkpt>
      <trkpt lat="48.49233" lon="6.29292">
        <ele>246.5</ele>
        <time>2026-05-18T09:21:50+02:00</time>
      </trkpt>
      <trkpt lat="48.49238" lon="6.29289">
        <ele>246.5</ele>
        <time>2026-05-18T09:21:51+02:00</time>
      </trkpt>
      <trkpt lat="48.49244" lon="6.29286">
        <ele>246.40039</ele>
        <time>2026-05-18T09:21:52+02:00</time>
      </trkpt>
      <trkpt lat="48.49247" lon="6.29285">
        <ele>246.40039</ele>
        <time>2026-05-18T09:21:53+02:00</time>
      </trkpt>
      <trkpt lat="48.49256" lon="6.2928">
        <ele>246.2002</ele>
        <time>2026-05-18T09:21:54+02:00</time>
      </trkpt>
      <trkpt lat="48.49261" lon="6.29278">
        <ele>246.2002</ele>
        <time>2026-05-18T09:21:55+02:00</time>
      </trkpt>
      <trkpt lat="48.49264" lon="6.29276">
        <ele>246.10059</ele>
        <time>2026-05-18T09:21:56+02:00</time>
      </trkpt>
      <trkpt lat="48.49272" lon="6.29271">
        <ele>246.10059</ele>
        <time>2026-05-18T09:21:57+02:00</time>
      </trkpt>
      <trkpt lat="48.49278" lon="6.29268">
        <ele>246.10059</ele>
        <time>2026-05-18T09:21:58+02:00</time>
      </trkpt>
      <trkpt lat="48.49283" lon="6.29265">
        <ele>246</ele>
        <time>2026-05-18T09:21:59+02:00</time>
      </trkpt>
      <trkpt lat="48.49288" lon="6.29262">
        <ele>246</ele>
        <time>2026-05-18T09:22:00+02:00</time>
      </trkpt>
      <trkpt lat="48.49293" lon="6.29258">
        <ele>245.90039</ele>
        <time>2026-05-18T09:22:01+02:00</time>
      </trkpt>
      <trkpt lat="48.49298" lon="6.29256">
        <ele>245.90039</ele>
        <time>2026-05-18T09:22:02+02:00</time>
      </trkpt>
      <trkpt lat="48.49304" lon="6.29253">
        <ele>245.90039</ele>
        <time>2026-05-18T09:22:03+02:00</time>
      </trkpt>
      <trkpt lat="48.49309" lon="6.2925">
        <ele>245.90039</ele>
        <time>2026-05-18T09:22:04+02:00</time>
      </trkpt>
      <trkpt lat="48.49314" lon="6.29248">
        <ele>245.90039</ele>
        <time>2026-05-18T09:22:05+02:00</time>
      </trkpt>
      <trkpt lat="48.49319" lon="6.29245">
        <ele>245.90039</ele>
        <time>2026-05-18T09:22:06+02:00</time>
      </trkpt>
      <trkpt lat="48.49323" lon="6.29242">
        <ele>245.90039</ele>
        <time>2026-05-18T09:22:07+02:00</time>
      </trkpt>
      <trkpt lat="48.49328" lon="6.29239">
        <ele>245.7998</ele>
        <time>2026-05-18T09:22:08+02:00</time>
      </trkpt>
      <trkpt lat="48.49334" lon="6.29236">
        <ele>245.7998</ele>
        <time>2026-05-18T09:22:09+02:00</time>
      </trkpt>
      <trkpt lat="48.49338" lon="6.29233">
        <ele>245.7998</ele>
        <time>2026-05-18T09:22:10+02:00</time>
      </trkpt>
      <trkpt lat="48.49343" lon="6.2923">
        <ele>245.7998</ele>
        <time>2026-05-18T09:22:11+02:00</time>
      </trkpt>
      <trkpt lat="48.49348" lon="6.29227">
        <ele>245.7998</ele>
        <time>2026-05-18T09:22:12+02:00</time>
      </trkpt>
      <trkpt lat="48.49354" lon="6.29224">
        <ele>245.7998</ele>
        <time>2026-05-18T09:22:13+02:00</time>
      </trkpt>
      <trkpt lat="48.49356" lon="6.29222">
        <ele>245.7998</ele>
        <time>2026-05-18T09:22:14+02:00</time>
      </trkpt>
      <trkpt lat="48.49365" lon="6.29217">
        <ele>245.7998</ele>
        <time>2026-05-18T09:22:15+02:00</time>
      </trkpt>
      <trkpt lat="48.4937" lon="6.29213">
        <ele>245.90039</ele>
        <time>2026-05-18T09:22:16+02:00</time>
      </trkpt>
      <trkpt lat="48.49376" lon="6.29209">
        <ele>245.90039</ele>
        <time>2026-05-18T09:22:17+02:00</time>
      </trkpt>
      <trkpt lat="48.49382" lon="6.29206">
        <ele>245.7998</ele>
        <time>2026-05-18T09:22:18+02:00</time>
      </trkpt>
      <trkpt lat="48.49388" lon="6.29201">
        <ele>245.7002</ele>
        <time>2026-05-18T09:22:19+02:00</time>
      </trkpt>
      <trkpt lat="48.49394" lon="6.29197">
        <ele>245.60059</ele>
        <time>2026-05-18T09:22:20+02:00</time>
      </trkpt>
      <trkpt lat="48.49397" lon="6.29195">
        <ele>245.60059</ele>
        <time>2026-05-18T09:22:21+02:00</time>
      </trkpt>
      <trkpt lat="48.49407" lon="6.29189">
        <ele>245.5</ele>
        <time>2026-05-18T09:22:22+02:00</time>
      </trkpt>
      <trkpt lat="48.49413" lon="6.29185">
        <ele>245.40039</ele>
        <time>2026-05-18T09:22:23+02:00</time>
      </trkpt>
      <trkpt lat="48.49418" lon="6.29181">
        <ele>245.5</ele>
        <time>2026-05-18T09:22:24+02:00</time>
      </trkpt>
      <trkpt lat="48.49424" lon="6.29177">
        <ele>245.5</ele>
        <time>2026-05-18T09:22:25+02:00</time>
      </trkpt>
      <trkpt lat="48.49429" lon="6.29172">
        <ele>245.7002</ele>
        <time>2026-05-18T09:22:26+02:00</time>
      </trkpt>
      <trkpt lat="48.49435" lon="6.29168">
        <ele>245.7998</ele>
        <time>2026-05-18T09:22:27+02:00</time>
      </trkpt>
      <trkpt lat="48.4944" lon="6.29164">
        <ele>245.60059</ele>
        <time>2026-05-18T09:22:28+02:00</time>
      </trkpt>
      <trkpt lat="48.49445" lon="6.2916">
        <ele>245.60059</ele>
        <time>2026-05-18T09:22:29+02:00</time>
      </trkpt>
      <trkpt lat="48.4945" lon="6.29156">
        <ele>245.5</ele>
        <time>2026-05-18T09:22:30+02:00</time>
      </trkpt>
      <trkpt lat="48.49457" lon="6.29152">
        <ele>245.5</ele>
        <time>2026-05-18T09:22:31+02:00</time>
      </trkpt>
      <trkpt lat="48.49462" lon="6.29147">
        <ele>245.40039</ele>
        <time>2026-05-18T09:22:32+02:00</time>
      </trkpt>
      <trkpt lat="48.49468" lon="6.29142">
        <ele>245.40039</ele>
        <time>2026-05-18T09:22:33+02:00</time>
      </trkpt>
      <trkpt lat="48.49474" lon="6.29138">
        <ele>245.40039</ele>
        <time>2026-05-18T09:22:34+02:00</time>
      </trkpt>
      <trkpt lat="48.49479" lon="6.29134">
        <ele>245.5</ele>
        <time>2026-05-18T09:22:35+02:00</time>
      </trkpt>
      <trkpt lat="48.49485" lon="6.2913">
        <ele>245.5</ele>
        <time>2026-05-18T09:22:36+02:00</time>
      </trkpt>
      <trkpt lat="48.49491" lon="6.29126">
        <ele>245.5</ele>
        <time>2026-05-18T09:22:37+02:00</time>
      </trkpt>
      <trkpt lat="48.49496" lon="6.29121">
        <ele>245.40039</ele>
        <time>2026-05-18T09:22:38+02:00</time>
      </trkpt>
      <trkpt lat="48.49502" lon="6.29117">
        <ele>245.40039</ele>
        <time>2026-05-18T09:22:39+02:00</time>
      </trkpt>
      <trkpt lat="48.49507" lon="6.29113">
        <ele>245.40039</ele>
        <time>2026-05-18T09:22:40+02:00</time>
      </trkpt>
      <trkpt lat="48.49511" lon="6.29109">
        <ele>245.2998</ele>
        <time>2026-05-18T09:22:41+02:00</time>
      </trkpt>
      <trkpt lat="48.49516" lon="6.29105">
        <ele>245.2998</ele>
        <time>2026-05-18T09:22:42+02:00</time>
      </trkpt>
      <trkpt lat="48.49521" lon="6.29101">
        <ele>245.2002</ele>
        <time>2026-05-18T09:22:43+02:00</time>
      </trkpt>
      <trkpt lat="48.49526" lon="6.29096">
        <ele>245</ele>
        <time>2026-05-18T09:22:44+02:00</time>
      </trkpt>
      <trkpt lat="48.49531" lon="6.29092">
        <ele>244.90039</ele>
        <time>2026-05-18T09:22:45+02:00</time>
      </trkpt>
      <trkpt lat="48.49536" lon="6.29087">
        <ele>244.7998</ele>
        <time>2026-05-18T09:22:46+02:00</time>
      </trkpt>
      <trkpt lat="48.4954" lon="6.29083">
        <ele>244.7002</ele>
        <time>2026-05-18T09:22:47+02:00</time>
      </trkpt>
      <trkpt lat="48.49545" lon="6.29079">
        <ele>244.7002</ele>
        <time>2026-05-18T09:22:48+02:00</time>
      </trkpt>
      <trkpt lat="48.49549" lon="6.29075">
        <ele>244.60059</ele>
        <time>2026-05-18T09:22:49+02:00</time>
      </trkpt>
      <trkpt lat="48.49554" lon="6.2907">
        <ele>244.5</ele>
        <time>2026-05-18T09:22:50+02:00</time>
      </trkpt>
      <trkpt lat="48.49559" lon="6.29066">
        <ele>244.40039</ele>
        <time>2026-05-18T09:22:51+02:00</time>
      </trkpt>
      <trkpt lat="48.49576" lon="6.29048">
        <ele>244.40039</ele>
        <time>2026-05-18T09:22:52+02:00</time>
      </trkpt>
      <trkpt lat="48.49581" lon="6.29044">
        <ele>244.40039</ele>
        <time>2026-05-18T09:22:53+02:00</time>
      </trkpt>
      <trkpt lat="48.49585" lon="6.2904">
        <ele>244.2998</ele>
        <time>2026-05-18T09:22:54+02:00</time>
      </trkpt>
      <trkpt lat="48.4959" lon="6.29035">
        <ele>244.2998</ele>
        <time>2026-05-18T09:22:55+02:00</time>
      </trkpt>
      <trkpt lat="48.49594" lon="6.29031">
        <ele>244.2998</ele>
        <time>2026-05-18T09:22:56+02:00</time>
      </trkpt>
      <trkpt lat="48.49599" lon="6.29026">
        <ele>244.2998</ele>
        <time>2026-05-18T09:22:57+02:00</time>
      </trkpt>
      <trkpt lat="48.49604" lon="6.29022">
        <ele>244.2998</ele>
        <time>2026-05-18T09:22:58+02:00</time>
      </trkpt>
      <trkpt lat="48.49609" lon="6.29017">
        <ele>244.2002</ele>
        <time>2026-05-18T09:22:59+02:00</time>
      </trkpt>
      <trkpt lat="48.49614" lon="6.29012">
        <ele>244.2002</ele>
        <time>2026-05-18T09:23:00+02:00</time>
      </trkpt>
      <trkpt lat="48.49617" lon="6.29009">
        <ele>244.10059</ele>
        <time>2026-05-18T09:23:01+02:00</time>
      </trkpt>
      <trkpt lat="48.49624" lon="6.29002">
        <ele>244.10059</ele>
        <time>2026-05-18T09:23:02+02:00</time>
      </trkpt>
      <trkpt lat="48.49629" lon="6.28997">
        <ele>244.10059</ele>
        <time>2026-05-18T09:23:03+02:00</time>
      </trkpt>
      <trkpt lat="48.49634" lon="6.28992">
        <ele>244.10059</ele>
        <time>2026-05-18T09:23:04+02:00</time>
      </trkpt>
      <trkpt lat="48.49639" lon="6.28986">
        <ele>244.10059</ele>
        <time>2026-05-18T09:23:05+02:00</time>
      </trkpt>
      <trkpt lat="48.49644" lon="6.28981">
        <ele>244.10059</ele>
        <time>2026-05-18T09:23:06+02:00</time>
      </trkpt>
      <trkpt lat="48.49649" lon="6.28976">
        <ele>244.10059</ele>
        <time>2026-05-18T09:23:07+02:00</time>
      </trkpt>
      <trkpt lat="48.49654" lon="6.2897">
        <ele>244.10059</ele>
        <time>2026-05-18T09:23:08+02:00</time>
      </trkpt>
      <trkpt lat="48.49658" lon="6.28965">
        <ele>244</ele>
        <time>2026-05-18T09:23:09+02:00</time>
      </trkpt>
      <trkpt lat="48.49663" lon="6.2896">
        <ele>244</ele>
        <time>2026-05-18T09:23:10+02:00</time>
      </trkpt>
      <trkpt lat="48.49666" lon="6.28957">
        <ele>244</ele>
        <time>2026-05-18T09:23:11+02:00</time>
      </trkpt>
      <trkpt lat="48.49674" lon="6.28949">
        <ele>244</ele>
        <time>2026-05-18T09:23:12+02:00</time>
      </trkpt>
      <trkpt lat="48.49679" lon="6.28943">
        <ele>244</ele>
        <time>2026-05-18T09:23:13+02:00</time>
      </trkpt>
      <trkpt lat="48.49683" lon="6.28938">
        <ele>244</ele>
        <time>2026-05-18T09:23:14+02:00</time>
      </trkpt>
      <trkpt lat="48.49688" lon="6.28933">
        <ele>244</ele>
        <time>2026-05-18T09:23:15+02:00</time>
      </trkpt>
      <trkpt lat="48.49693" lon="6.28927">
        <ele>244.10059</ele>
        <time>2026-05-18T09:23:16+02:00</time>
      </trkpt>
      <trkpt lat="48.49697" lon="6.28922">
        <ele>244.10059</ele>
        <time>2026-05-18T09:23:17+02:00</time>
      </trkpt>
      <trkpt lat="48.49702" lon="6.28917">
        <ele>244.10059</ele>
        <time>2026-05-18T09:23:18+02:00</time>
      </trkpt>
      <trkpt lat="48.49706" lon="6.28912">
        <ele>244</ele>
        <time>2026-05-18T09:23:19+02:00</time>
      </trkpt>
      <trkpt lat="48.49711" lon="6.28907">
        <ele>243.7998</ele>
        <time>2026-05-18T09:23:20+02:00</time>
      </trkpt>
      <trkpt lat="48.49716" lon="6.28902">
        <ele>243.7998</ele>
        <time>2026-05-18T09:23:21+02:00</time>
      </trkpt>
      <trkpt lat="48.49721" lon="6.28896">
        <ele>243.7998</ele>
        <time>2026-05-18T09:23:22+02:00</time>
      </trkpt>
      <trkpt lat="48.49726" lon="6.28892">
        <ele>243.7998</ele>
        <time>2026-05-18T09:23:23+02:00</time>
      </trkpt>
      <trkpt lat="48.4973" lon="6.28887">
        <ele>243.7998</ele>
        <time>2026-05-18T09:23:24+02:00</time>
      </trkpt>
      <trkpt lat="48.49734" lon="6.28882">
        <ele>243.7998</ele>
        <time>2026-05-18T09:23:25+02:00</time>
      </trkpt>
      <trkpt lat="48.49739" lon="6.28877">
        <ele>243.7998</ele>
        <time>2026-05-18T09:23:26+02:00</time>
      </trkpt>
      <trkpt lat="48.49743" lon="6.28872">
        <ele>243.90039</ele>
        <time>2026-05-18T09:23:27+02:00</time>
      </trkpt>
      <trkpt lat="48.49748" lon="6.28867">
        <ele>243.7998</ele>
        <time>2026-05-18T09:23:28+02:00</time>
      </trkpt>
      <trkpt lat="48.49753" lon="6.28862">
        <ele>243.7002</ele>
        <time>2026-05-18T09:23:29+02:00</time>
      </trkpt>
      <trkpt lat="48.49758" lon="6.28857">
        <ele>243.7002</ele>
        <time>2026-05-18T09:23:30+02:00</time>
      </trkpt>
      <trkpt lat="48.49762" lon="6.28852">
        <ele>243.7998</ele>
        <time>2026-05-18T09:23:31+02:00</time>
      </trkpt>
      <trkpt lat="48.49767" lon="6.28847">
        <ele>243.7998</ele>
        <time>2026-05-18T09:23:32+02:00</time>
      </trkpt>
      <trkpt lat="48.49772" lon="6.28842">
        <ele>243.7998</ele>
        <time>2026-05-18T09:23:33+02:00</time>
      </trkpt>
      <trkpt lat="48.49777" lon="6.28837">
        <ele>243.7002</ele>
        <time>2026-05-18T09:23:34+02:00</time>
      </trkpt>
      <trkpt lat="48.49781" lon="6.28831">
        <ele>243.7002</ele>
        <time>2026-05-18T09:23:35+02:00</time>
      </trkpt>
      <trkpt lat="48.49786" lon="6.28826">
        <ele>243.60059</ele>
        <time>2026-05-18T09:23:36+02:00</time>
      </trkpt>
      <trkpt lat="48.4979" lon="6.28822">
        <ele>243.60059</ele>
        <time>2026-05-18T09:23:37+02:00</time>
      </trkpt>
      <trkpt lat="48.49795" lon="6.28816">
        <ele>243.60059</ele>
        <time>2026-05-18T09:23:38+02:00</time>
      </trkpt>
      <trkpt lat="48.49799" lon="6.28811">
        <ele>243.7998</ele>
        <time>2026-05-18T09:23:39+02:00</time>
      </trkpt>
      <trkpt lat="48.49804" lon="6.28806">
        <ele>243.7998</ele>
        <time>2026-05-18T09:23:40+02:00</time>
      </trkpt>
      <trkpt lat="48.49809" lon="6.28801">
        <ele>243.7998</ele>
        <time>2026-05-18T09:23:41+02:00</time>
      </trkpt>
      <trkpt lat="48.49813" lon="6.28796">
        <ele>243.7998</ele>
        <time>2026-05-18T09:23:42+02:00</time>
      </trkpt>
      <trkpt lat="48.49817" lon="6.28792">
        <ele>243.60059</ele>
        <time>2026-05-18T09:23:43+02:00</time>
      </trkpt>
      <trkpt lat="48.49822" lon="6.28787">
        <ele>243.60059</ele>
        <time>2026-05-18T09:23:44+02:00</time>
      </trkpt>
      <trkpt lat="48.49826" lon="6.28782">
        <ele>243.60059</ele>
        <time>2026-05-18T09:23:45+02:00</time>
      </trkpt>
      <trkpt lat="48.49831" lon="6.28777">
        <ele>243.5</ele>
        <time>2026-05-18T09:23:46+02:00</time>
      </trkpt>
      <trkpt lat="48.49836" lon="6.28772">
        <ele>243.60059</ele>
        <time>2026-05-18T09:23:47+02:00</time>
      </trkpt>
      <trkpt lat="48.49841" lon="6.28766">
        <ele>243.5</ele>
        <time>2026-05-18T09:23:48+02:00</time>
      </trkpt>
      <trkpt lat="48.49845" lon="6.28761">
        <ele>243.40039</ele>
        <time>2026-05-18T09:23:49+02:00</time>
      </trkpt>
      <trkpt lat="48.49848" lon="6.28758">
        <ele>243.5</ele>
        <time>2026-05-18T09:23:50+02:00</time>
      </trkpt>
      <trkpt lat="48.49854" lon="6.2875">
        <ele>243.5</ele>
        <time>2026-05-18T09:23:51+02:00</time>
      </trkpt>
      <trkpt lat="48.49859" lon="6.28745">
        <ele>243.5</ele>
        <time>2026-05-18T09:23:52+02:00</time>
      </trkpt>
      <trkpt lat="48.49864" lon="6.28739">
        <ele>243.40039</ele>
        <time>2026-05-18T09:23:53+02:00</time>
      </trkpt>
      <trkpt lat="48.49868" lon="6.28733">
        <ele>243.5</ele>
        <time>2026-05-18T09:23:54+02:00</time>
      </trkpt>
      <trkpt lat="48.49872" lon="6.28728">
        <ele>243.40039</ele>
        <time>2026-05-18T09:23:55+02:00</time>
      </trkpt>
      <trkpt lat="48.49877" lon="6.28723">
        <ele>243.2998</ele>
        <time>2026-05-18T09:23:56+02:00</time>
      </trkpt>
      <trkpt lat="48.49878" lon="6.28721">
        <ele>243.2998</ele>
        <time>2026-05-18T09:23:57+02:00</time>
      </trkpt>
      <trkpt lat="48.49885" lon="6.28713">
        <ele>243.2998</ele>
        <time>2026-05-18T09:23:58+02:00</time>
      </trkpt>
      <trkpt lat="48.4989" lon="6.28708">
        <ele>243.2998</ele>
        <time>2026-05-18T09:23:59+02:00</time>
      </trkpt>
      <trkpt lat="48.49894" lon="6.28703">
        <ele>243.2998</ele>
        <time>2026-05-18T09:24:00+02:00</time>
      </trkpt>
      <trkpt lat="48.49898" lon="6.28698">
        <ele>243.2998</ele>
        <time>2026-05-18T09:24:01+02:00</time>
      </trkpt>
      <trkpt lat="48.49903" lon="6.28693">
        <ele>243.2998</ele>
        <time>2026-05-18T09:24:02+02:00</time>
      </trkpt>
      <trkpt lat="48.49907" lon="6.28688">
        <ele>243.40039</ele>
        <time>2026-05-18T09:24:03+02:00</time>
      </trkpt>
      <trkpt lat="48.49911" lon="6.28684">
        <ele>243.40039</ele>
        <time>2026-05-18T09:24:04+02:00</time>
      </trkpt>
      <trkpt lat="48.49915" lon="6.2868">
        <ele>243.2998</ele>
        <time>2026-05-18T09:24:05+02:00</time>
      </trkpt>
      <trkpt lat="48.4992" lon="6.28676">
        <ele>243.2998</ele>
        <time>2026-05-18T09:24:06+02:00</time>
      </trkpt>
      <trkpt lat="48.49924" lon="6.28673">
        <ele>243.2002</ele>
        <time>2026-05-18T09:24:07+02:00</time>
      </trkpt>
      <trkpt lat="48.49928" lon="6.2867">
        <ele>243.10059</ele>
        <time>2026-05-18T09:24:08+02:00</time>
      </trkpt>
      <trkpt lat="48.49933" lon="6.28667">
        <ele>243</ele>
        <time>2026-05-18T09:24:09+02:00</time>
      </trkpt>
      <trkpt lat="48.49937" lon="6.28663">
        <ele>243</ele>
        <time>2026-05-18T09:24:10+02:00</time>
      </trkpt>
      <trkpt lat="48.49942" lon="6.28658">
        <ele>242.90039</ele>
        <time>2026-05-18T09:24:11+02:00</time>
      </trkpt>
      <trkpt lat="48.49947" lon="6.28652">
        <ele>242.7998</ele>
        <time>2026-05-18T09:24:12+02:00</time>
      </trkpt>
      <trkpt lat="48.49952" lon="6.28646">
        <ele>242.7002</ele>
        <time>2026-05-18T09:24:13+02:00</time>
      </trkpt>
      <trkpt lat="48.49957" lon="6.2864">
        <ele>242.5</ele>
        <time>2026-05-18T09:24:14+02:00</time>
      </trkpt>
      <trkpt lat="48.49962" lon="6.28634">
        <ele>242.2998</ele>
        <time>2026-05-18T09:24:15+02:00</time>
      </trkpt>
      <trkpt lat="48.49967" lon="6.28628">
        <ele>242.2002</ele>
        <time>2026-05-18T09:24:16+02:00</time>
      </trkpt>
      <trkpt lat="48.49972" lon="6.28622">
        <ele>242.10059</ele>
        <time>2026-05-18T09:24:17+02:00</time>
      </trkpt>
      <trkpt lat="48.49978" lon="6.28617">
        <ele>242</ele>
        <time>2026-05-18T09:24:18+02:00</time>
      </trkpt>
      <trkpt lat="48.49983" lon="6.28611">
        <ele>242</ele>
        <time>2026-05-18T09:24:19+02:00</time>
      </trkpt>
      <trkpt lat="48.49988" lon="6.28605">
        <ele>241.90039</ele>
        <time>2026-05-18T09:24:20+02:00</time>
      </trkpt>
      <trkpt lat="48.49993" lon="6.286">
        <ele>241.7002</ele>
        <time>2026-05-18T09:24:21+02:00</time>
      </trkpt>
      <trkpt lat="48.49999" lon="6.28594">
        <ele>241.7002</ele>
        <time>2026-05-18T09:24:22+02:00</time>
      </trkpt>
      <trkpt lat="48.50004" lon="6.28589">
        <ele>241.60059</ele>
        <time>2026-05-18T09:24:23+02:00</time>
      </trkpt>
      <trkpt lat="48.50009" lon="6.28583">
        <ele>241.5</ele>
        <time>2026-05-18T09:24:24+02:00</time>
      </trkpt>
      <trkpt lat="48.50013" lon="6.28578">
        <ele>241.60059</ele>
        <time>2026-05-18T09:24:25+02:00</time>
      </trkpt>
      <trkpt lat="48.50018" lon="6.28572">
        <ele>241.60059</ele>
        <time>2026-05-18T09:24:26+02:00</time>
      </trkpt>
      <trkpt lat="48.50023" lon="6.28566">
        <ele>241.60059</ele>
        <time>2026-05-18T09:24:27+02:00</time>
      </trkpt>
      <trkpt lat="48.50028" lon="6.28561">
        <ele>241.7002</ele>
        <time>2026-05-18T09:24:28+02:00</time>
      </trkpt>
      <trkpt lat="48.50033" lon="6.28555">
        <ele>241.7998</ele>
        <time>2026-05-18T09:24:29+02:00</time>
      </trkpt>
      <trkpt lat="48.50038" lon="6.2855">
        <ele>241.7002</ele>
        <time>2026-05-18T09:24:30+02:00</time>
      </trkpt>
      <trkpt lat="48.50043" lon="6.28544">
        <ele>241.60059</ele>
        <time>2026-05-18T09:24:31+02:00</time>
      </trkpt>
      <trkpt lat="48.50049" lon="6.28539">
        <ele>241.5</ele>
        <time>2026-05-18T09:24:32+02:00</time>
      </trkpt>
      <trkpt lat="48.50054" lon="6.28533">
        <ele>241.40039</ele>
        <time>2026-05-18T09:24:33+02:00</time>
      </trkpt>
      <trkpt lat="48.50059" lon="6.28528">
        <ele>241.2998</ele>
        <time>2026-05-18T09:24:34+02:00</time>
      </trkpt>
      <trkpt lat="48.50064" lon="6.28522">
        <ele>241.2998</ele>
        <time>2026-05-18T09:24:35+02:00</time>
      </trkpt>
      <trkpt lat="48.50069" lon="6.28517">
        <ele>241.2002</ele>
        <time>2026-05-18T09:24:36+02:00</time>
      </trkpt>
      <trkpt lat="48.50074" lon="6.28511">
        <ele>241.10059</ele>
        <time>2026-05-18T09:24:37+02:00</time>
      </trkpt>
      <trkpt lat="48.50079" lon="6.28505">
        <ele>241.10059</ele>
        <time>2026-05-18T09:24:38+02:00</time>
      </trkpt>
      <trkpt lat="48.50084" lon="6.28499">
        <ele>241.10059</ele>
        <time>2026-05-18T09:24:39+02:00</time>
      </trkpt>
      <trkpt lat="48.50089" lon="6.28494">
        <ele>241.2002</ele>
        <time>2026-05-18T09:24:40+02:00</time>
      </trkpt>
      <trkpt lat="48.50094" lon="6.28488">
        <ele>241.2002</ele>
        <time>2026-05-18T09:24:41+02:00</time>
      </trkpt>
      <trkpt lat="48.50099" lon="6.28483">
        <ele>241.2998</ele>
        <time>2026-05-18T09:24:42+02:00</time>
      </trkpt>
      <trkpt lat="48.50104" lon="6.28477">
        <ele>241.2998</ele>
        <time>2026-05-18T09:24:43+02:00</time>
      </trkpt>
      <trkpt lat="48.50109" lon="6.28472">
        <ele>241.10059</ele>
        <time>2026-05-18T09:24:44+02:00</time>
      </trkpt>
      <trkpt lat="48.50114" lon="6.28466">
        <ele>241</ele>
        <time>2026-05-18T09:24:45+02:00</time>
      </trkpt>
      <trkpt lat="48.50119" lon="6.2846">
        <ele>241.10059</ele>
        <time>2026-05-18T09:24:46+02:00</time>
      </trkpt>
      <trkpt lat="48.50124" lon="6.28455">
        <ele>241</ele>
        <time>2026-05-18T09:24:47+02:00</time>
      </trkpt>
      <trkpt lat="48.50129" lon="6.28449">
        <ele>241.2002</ele>
        <time>2026-05-18T09:24:48+02:00</time>
      </trkpt>
      <trkpt lat="48.50135" lon="6.28443">
        <ele>241.7002</ele>
        <time>2026-05-18T09:24:49+02:00</time>
      </trkpt>
      <trkpt lat="48.5014" lon="6.28438">
        <ele>241.7002</ele>
        <time>2026-05-18T09:24:50+02:00</time>
      </trkpt>
      <trkpt lat="48.50145" lon="6.28432">
        <ele>241.90039</ele>
        <time>2026-05-18T09:24:51+02:00</time>
      </trkpt>
      <trkpt lat="48.5015" lon="6.28426">
        <ele>241.7998</ele>
        <time>2026-05-18T09:24:52+02:00</time>
      </trkpt>
      <trkpt lat="48.50155" lon="6.2842">
        <ele>241.40039</ele>
        <time>2026-05-18T09:24:53+02:00</time>
      </trkpt>
      <trkpt lat="48.50161" lon="6.28415">
        <ele>241.2002</ele>
        <time>2026-05-18T09:24:54+02:00</time>
      </trkpt>
      <trkpt lat="48.50166" lon="6.28409">
        <ele>241.2002</ele>
        <time>2026-05-18T09:24:55+02:00</time>
      </trkpt>
      <trkpt lat="48.50171" lon="6.28403">
        <ele>241.10059</ele>
        <time>2026-05-18T09:24:56+02:00</time>
      </trkpt>
      <trkpt lat="48.50176" lon="6.28397">
        <ele>241.2002</ele>
        <time>2026-05-18T09:24:57+02:00</time>
      </trkpt>
      <trkpt lat="48.50181" lon="6.28392">
        <ele>241.10059</ele>
        <time>2026-05-18T09:24:58+02:00</time>
      </trkpt>
      <trkpt lat="48.50186" lon="6.28386">
        <ele>240.90039</ele>
        <time>2026-05-18T09:24:59+02:00</time>
      </trkpt>
      <trkpt lat="48.50191" lon="6.28381">
        <ele>241</ele>
        <time>2026-05-18T09:25:00+02:00</time>
      </trkpt>
      <trkpt lat="48.50196" lon="6.28375">
        <ele>241.40039</ele>
        <time>2026-05-18T09:25:01+02:00</time>
      </trkpt>
      <trkpt lat="48.502" lon="6.2837">
        <ele>241.40039</ele>
        <time>2026-05-18T09:25:02+02:00</time>
      </trkpt>
      <trkpt lat="48.50206" lon="6.28364">
        <ele>241.7998</ele>
        <time>2026-05-18T09:25:03+02:00</time>
      </trkpt>
      <trkpt lat="48.50211" lon="6.28359">
        <ele>241.7002</ele>
        <time>2026-05-18T09:25:04+02:00</time>
      </trkpt>
      <trkpt lat="48.50216" lon="6.28353">
        <ele>241.90039</ele>
        <time>2026-05-18T09:25:05+02:00</time>
      </trkpt>
      <trkpt lat="48.50221" lon="6.28348">
        <ele>241.60059</ele>
        <time>2026-05-18T09:25:06+02:00</time>
      </trkpt>
      <trkpt lat="48.50226" lon="6.28342">
        <ele>241.2002</ele>
        <time>2026-05-18T09:25:07+02:00</time>
      </trkpt>
      <trkpt lat="48.50231" lon="6.28337">
        <ele>241.2002</ele>
        <time>2026-05-18T09:25:08+02:00</time>
      </trkpt>
      <trkpt lat="48.50236" lon="6.28332">
        <ele>241.2998</ele>
        <time>2026-05-18T09:25:09+02:00</time>
      </trkpt>
      <trkpt lat="48.50241" lon="6.28327">
        <ele>241.10059</ele>
        <time>2026-05-18T09:25:10+02:00</time>
      </trkpt>
      <trkpt lat="48.50246" lon="6.28322">
        <ele>240.90039</ele>
        <time>2026-05-18T09:25:11+02:00</time>
      </trkpt>
      <trkpt lat="48.50251" lon="6.28317">
        <ele>240.90039</ele>
        <time>2026-05-18T09:25:12+02:00</time>
      </trkpt>
      <trkpt lat="48.50255" lon="6.28312">
        <ele>241.10059</ele>
        <time>2026-05-18T09:25:13+02:00</time>
      </trkpt>
      <trkpt lat="48.5026" lon="6.28307">
        <ele>241.10059</ele>
        <time>2026-05-18T09:25:14+02:00</time>
      </trkpt>
      <trkpt lat="48.50265" lon="6.28302">
        <ele>241.2998</ele>
        <time>2026-05-18T09:25:15+02:00</time>
      </trkpt>
      <trkpt lat="48.5027" lon="6.28297">
        <ele>241.5</ele>
        <time>2026-05-18T09:25:16+02:00</time>
      </trkpt>
      <trkpt lat="48.50275" lon="6.28293">
        <ele>241.40039</ele>
        <time>2026-05-18T09:25:17+02:00</time>
      </trkpt>
      <trkpt lat="48.5028" lon="6.28288">
        <ele>241.2998</ele>
        <time>2026-05-18T09:25:18+02:00</time>
      </trkpt>
      <trkpt lat="48.50285" lon="6.28283">
        <ele>241.10059</ele>
        <time>2026-05-18T09:25:19+02:00</time>
      </trkpt>
      <trkpt lat="48.5029" lon="6.28278">
        <ele>241.2002</ele>
        <time>2026-05-18T09:25:20+02:00</time>
      </trkpt>
      <trkpt lat="48.50295" lon="6.28274">
        <ele>241</ele>
        <time>2026-05-18T09:25:21+02:00</time>
      </trkpt>
      <trkpt lat="48.503" lon="6.28269">
        <ele>241.10059</ele>
        <time>2026-05-18T09:25:22+02:00</time>
      </trkpt>
      <trkpt lat="48.50305" lon="6.28265">
        <ele>241.2002</ele>
        <time>2026-05-18T09:25:23+02:00</time>
      </trkpt>
      <trkpt lat="48.5031" lon="6.2826">
        <ele>241.5</ele>
        <time>2026-05-18T09:25:24+02:00</time>
      </trkpt>
      <trkpt lat="48.50314" lon="6.28256">
        <ele>241.40039</ele>
        <time>2026-05-18T09:25:25+02:00</time>
      </trkpt>
      <trkpt lat="48.50317" lon="6.28254">
        <ele>241.7002</ele>
        <time>2026-05-18T09:25:26+02:00</time>
      </trkpt>
      <trkpt lat="48.50325" lon="6.28248">
        <ele>241.2998</ele>
        <time>2026-05-18T09:25:27+02:00</time>
      </trkpt>
      <trkpt lat="48.5033" lon="6.28244">
        <ele>241.10059</ele>
        <time>2026-05-18T09:25:28+02:00</time>
      </trkpt>
      <trkpt lat="48.50335" lon="6.2824">
        <ele>241.10059</ele>
        <time>2026-05-18T09:25:29+02:00</time>
      </trkpt>
      <trkpt lat="48.5034" lon="6.28236">
        <ele>241.10059</ele>
        <time>2026-05-18T09:25:30+02:00</time>
      </trkpt>
      <trkpt lat="48.50345" lon="6.28232">
        <ele>241.10059</ele>
        <time>2026-05-18T09:25:31+02:00</time>
      </trkpt>
      <trkpt lat="48.5035" lon="6.28227">
        <ele>241.40039</ele>
        <time>2026-05-18T09:25:32+02:00</time>
      </trkpt>
      <trkpt lat="48.50355" lon="6.28224">
        <ele>241.40039</ele>
        <time>2026-05-18T09:25:33+02:00</time>
      </trkpt>
      <trkpt lat="48.5036" lon="6.2822">
        <ele>241.7002</ele>
        <time>2026-05-18T09:25:34+02:00</time>
      </trkpt>
      <trkpt lat="48.50365" lon="6.28216">
        <ele>241.5</ele>
        <time>2026-05-18T09:25:35+02:00</time>
      </trkpt>
      <trkpt lat="48.5037" lon="6.28212">
        <ele>241.2998</ele>
        <time>2026-05-18T09:25:36+02:00</time>
      </trkpt>
      <trkpt lat="48.50375" lon="6.28208">
        <ele>241.2998</ele>
        <time>2026-05-18T09:25:37+02:00</time>
      </trkpt>
      <trkpt lat="48.50381" lon="6.28204">
        <ele>241</ele>
        <time>2026-05-18T09:25:38+02:00</time>
      </trkpt>
      <trkpt lat="48.50386" lon="6.282">
        <ele>241</ele>
        <time>2026-05-18T09:25:39+02:00</time>
      </trkpt>
      <trkpt lat="48.50392" lon="6.28195">
        <ele>241</ele>
        <time>2026-05-18T09:25:40+02:00</time>
      </trkpt>
      <trkpt lat="48.50397" lon="6.28192">
        <ele>241.10059</ele>
        <time>2026-05-18T09:25:41+02:00</time>
      </trkpt>
      <trkpt lat="48.50402" lon="6.28188">
        <ele>241.2002</ele>
        <time>2026-05-18T09:25:42+02:00</time>
      </trkpt>
      <trkpt lat="48.50407" lon="6.28184">
        <ele>241.2998</ele>
        <time>2026-05-18T09:25:43+02:00</time>
      </trkpt>
      <trkpt lat="48.50412" lon="6.28179">
        <ele>241.60059</ele>
        <time>2026-05-18T09:25:44+02:00</time>
      </trkpt>
      <trkpt lat="48.50417" lon="6.28176">
        <ele>241.5</ele>
        <time>2026-05-18T09:25:45+02:00</time>
      </trkpt>
      <trkpt lat="48.50422" lon="6.28171">
        <ele>241.7002</ele>
        <time>2026-05-18T09:25:46+02:00</time>
      </trkpt>
      <trkpt lat="48.50428" lon="6.28167">
        <ele>241.2998</ele>
        <time>2026-05-18T09:25:47+02:00</time>
      </trkpt>
      <trkpt lat="48.50433" lon="6.28163">
        <ele>241.40039</ele>
        <time>2026-05-18T09:25:48+02:00</time>
      </trkpt>
      <trkpt lat="48.50438" lon="6.28159">
        <ele>241.10059</ele>
        <time>2026-05-18T09:25:49+02:00</time>
      </trkpt>
      <trkpt lat="48.50443" lon="6.28155">
        <ele>241.10059</ele>
        <time>2026-05-18T09:25:50+02:00</time>
      </trkpt>
      <trkpt lat="48.50449" lon="6.28151">
        <ele>241.10059</ele>
        <time>2026-05-18T09:25:51+02:00</time>
      </trkpt>
      <trkpt lat="48.50454" lon="6.28147">
        <ele>241.2002</ele>
        <time>2026-05-18T09:25:52+02:00</time>
      </trkpt>
      <trkpt lat="48.50459" lon="6.28143">
        <ele>241.2998</ele>
        <time>2026-05-18T09:25:53+02:00</time>
      </trkpt>
      <trkpt lat="48.50464" lon="6.2814">
        <ele>241.40039</ele>
        <time>2026-05-18T09:25:54+02:00</time>
      </trkpt>
      <trkpt lat="48.50469" lon="6.28135">
        <ele>241.5</ele>
        <time>2026-05-18T09:25:55+02:00</time>
      </trkpt>
      <trkpt lat="48.50474" lon="6.28131">
        <ele>241.5</ele>
        <time>2026-05-18T09:25:56+02:00</time>
      </trkpt>
      <trkpt lat="48.50479" lon="6.28127">
        <ele>241.60059</ele>
        <time>2026-05-18T09:25:57+02:00</time>
      </trkpt>
      <trkpt lat="48.50484" lon="6.28124">
        <ele>241.60059</ele>
        <time>2026-05-18T09:25:58+02:00</time>
      </trkpt>
      <trkpt lat="48.50489" lon="6.2812">
        <ele>241.60059</ele>
        <time>2026-05-18T09:25:59+02:00</time>
      </trkpt>
      <trkpt lat="48.50494" lon="6.28115">
        <ele>241.60059</ele>
        <time>2026-05-18T09:26:00+02:00</time>
      </trkpt>
      <trkpt lat="48.50499" lon="6.28112">
        <ele>241.60059</ele>
        <time>2026-05-18T09:26:01+02:00</time>
      </trkpt>
      <trkpt lat="48.50504" lon="6.28108">
        <ele>241.40039</ele>
        <time>2026-05-18T09:26:02+02:00</time>
      </trkpt>
      <trkpt lat="48.50509" lon="6.28104">
        <ele>241.5</ele>
        <time>2026-05-18T09:26:03+02:00</time>
      </trkpt>
      <trkpt lat="48.50514" lon="6.281">
        <ele>241.40039</ele>
        <time>2026-05-18T09:26:04+02:00</time>
      </trkpt>
      <trkpt lat="48.50519" lon="6.28096">
        <ele>241.5</ele>
        <time>2026-05-18T09:26:05+02:00</time>
      </trkpt>
      <trkpt lat="48.50524" lon="6.28092">
        <ele>241.60059</ele>
        <time>2026-05-18T09:26:06+02:00</time>
      </trkpt>
      <trkpt lat="48.50528" lon="6.28089">
        <ele>241.5</ele>
        <time>2026-05-18T09:26:07+02:00</time>
      </trkpt>
      <trkpt lat="48.50533" lon="6.28085">
        <ele>241.60059</ele>
        <time>2026-05-18T09:26:08+02:00</time>
      </trkpt>
      <trkpt lat="48.50538" lon="6.28081">
        <ele>241.60059</ele>
        <time>2026-05-18T09:26:09+02:00</time>
      </trkpt>
      <trkpt lat="48.50543" lon="6.28077">
        <ele>241.7002</ele>
        <time>2026-05-18T09:26:10+02:00</time>
      </trkpt>
      <trkpt lat="48.50548" lon="6.28074">
        <ele>241.60059</ele>
        <time>2026-05-18T09:26:11+02:00</time>
      </trkpt>
      <trkpt lat="48.50553" lon="6.28069">
        <ele>241.60059</ele>
        <time>2026-05-18T09:26:12+02:00</time>
      </trkpt>
      <trkpt lat="48.50558" lon="6.28066">
        <ele>241.40039</ele>
        <time>2026-05-18T09:26:13+02:00</time>
      </trkpt>
      <trkpt lat="48.50562" lon="6.28061">
        <ele>241.40039</ele>
        <time>2026-05-18T09:26:14+02:00</time>
      </trkpt>
      <trkpt lat="48.50568" lon="6.28058">
        <ele>241.40039</ele>
        <time>2026-05-18T09:26:15+02:00</time>
      </trkpt>
      <trkpt lat="48.50573" lon="6.28055">
        <ele>241.40039</ele>
        <time>2026-05-18T09:26:16+02:00</time>
      </trkpt>
      <trkpt lat="48.50578" lon="6.28051">
        <ele>241.5</ele>
        <time>2026-05-18T09:26:17+02:00</time>
      </trkpt>
      <trkpt lat="48.50583" lon="6.28047">
        <ele>241.5</ele>
        <time>2026-05-18T09:26:18+02:00</time>
      </trkpt>
      <trkpt lat="48.50588" lon="6.28043">
        <ele>241.5</ele>
        <time>2026-05-18T09:26:19+02:00</time>
      </trkpt>
      <trkpt lat="48.50593" lon="6.28039">
        <ele>241.5</ele>
        <time>2026-05-18T09:26:20+02:00</time>
      </trkpt>
      <trkpt lat="48.50598" lon="6.28035">
        <ele>241.5</ele>
        <time>2026-05-18T09:26:21+02:00</time>
      </trkpt>
      <trkpt lat="48.50602" lon="6.28031">
        <ele>241.40039</ele>
        <time>2026-05-18T09:26:22+02:00</time>
      </trkpt>
      <trkpt lat="48.50607" lon="6.28027">
        <ele>241.40039</ele>
        <time>2026-05-18T09:26:23+02:00</time>
      </trkpt>
      <trkpt lat="48.50612" lon="6.28023">
        <ele>241.2998</ele>
        <time>2026-05-18T09:26:24+02:00</time>
      </trkpt>
      <trkpt lat="48.50617" lon="6.28019">
        <ele>241.2998</ele>
        <time>2026-05-18T09:26:25+02:00</time>
      </trkpt>
      <trkpt lat="48.50622" lon="6.28015">
        <ele>241.40039</ele>
        <time>2026-05-18T09:26:26+02:00</time>
      </trkpt>
      <trkpt lat="48.50627" lon="6.28012">
        <ele>241.40039</ele>
        <time>2026-05-18T09:26:27+02:00</time>
      </trkpt>
      <trkpt lat="48.50632" lon="6.28008">
        <ele>241.60059</ele>
        <time>2026-05-18T09:26:28+02:00</time>
      </trkpt>
      <trkpt lat="48.50637" lon="6.28005">
        <ele>241.7002</ele>
        <time>2026-05-18T09:26:29+02:00</time>
      </trkpt>
      <trkpt lat="48.50642" lon="6.28001">
        <ele>241.7002</ele>
        <time>2026-05-18T09:26:30+02:00</time>
      </trkpt>
      <trkpt lat="48.50646" lon="6.27998">
        <ele>241.7998</ele>
        <time>2026-05-18T09:26:31+02:00</time>
      </trkpt>
      <trkpt lat="48.50651" lon="6.27994">
        <ele>241.7998</ele>
        <time>2026-05-18T09:26:32+02:00</time>
      </trkpt>
      <trkpt lat="48.50656" lon="6.2799">
        <ele>242</ele>
        <time>2026-05-18T09:26:33+02:00</time>
      </trkpt>
      <trkpt lat="48.50661" lon="6.27987">
        <ele>242.10059</ele>
        <time>2026-05-18T09:26:34+02:00</time>
      </trkpt>
      <trkpt lat="48.50666" lon="6.27983">
        <ele>242.2002</ele>
        <time>2026-05-18T09:26:35+02:00</time>
      </trkpt>
      <trkpt lat="48.50671" lon="6.27979">
        <ele>242</ele>
        <time>2026-05-18T09:26:36+02:00</time>
      </trkpt>
      <trkpt lat="48.50675" lon="6.27975">
        <ele>242.10059</ele>
        <time>2026-05-18T09:26:37+02:00</time>
      </trkpt>
      <trkpt lat="48.5068" lon="6.27972">
        <ele>242.2002</ele>
        <time>2026-05-18T09:26:38+02:00</time>
      </trkpt>
      <trkpt lat="48.50685" lon="6.27968">
        <ele>242</ele>
        <time>2026-05-18T09:26:39+02:00</time>
      </trkpt>
      <trkpt lat="48.5069" lon="6.27964">
        <ele>242.10059</ele>
        <time>2026-05-18T09:26:40+02:00</time>
      </trkpt>
      <trkpt lat="48.50695" lon="6.27961">
        <ele>241.90039</ele>
        <time>2026-05-18T09:26:41+02:00</time>
      </trkpt>
      <trkpt lat="48.507" lon="6.27957">
        <ele>242.10059</ele>
        <time>2026-05-18T09:26:42+02:00</time>
      </trkpt>
      <trkpt lat="48.50705" lon="6.27953">
        <ele>241.7002</ele>
        <time>2026-05-18T09:26:43+02:00</time>
      </trkpt>
      <trkpt lat="48.5071" lon="6.27949">
        <ele>241.7998</ele>
        <time>2026-05-18T09:26:44+02:00</time>
      </trkpt>
      <trkpt lat="48.50715" lon="6.27945">
        <ele>241.60059</ele>
        <time>2026-05-18T09:26:45+02:00</time>
      </trkpt>
      <trkpt lat="48.5072" lon="6.27941">
        <ele>241.90039</ele>
        <time>2026-05-18T09:26:46+02:00</time>
      </trkpt>
      <trkpt lat="48.50723" lon="6.27939">
        <ele>242.10059</ele>
        <time>2026-05-18T09:26:47+02:00</time>
      </trkpt>
      <trkpt lat="48.5073" lon="6.27933">
        <ele>242.10059</ele>
        <time>2026-05-18T09:26:48+02:00</time>
      </trkpt>
      <trkpt lat="48.50735" lon="6.27929">
        <ele>242.40039</ele>
        <time>2026-05-18T09:26:49+02:00</time>
      </trkpt>
      <trkpt lat="48.5074" lon="6.27925">
        <ele>242.2002</ele>
        <time>2026-05-18T09:26:50+02:00</time>
      </trkpt>
      <trkpt lat="48.50745" lon="6.27921">
        <ele>242.40039</ele>
        <time>2026-05-18T09:26:51+02:00</time>
      </trkpt>
      <trkpt lat="48.5075" lon="6.27917">
        <ele>241.90039</ele>
        <time>2026-05-18T09:26:52+02:00</time>
      </trkpt>
      <trkpt lat="48.50755" lon="6.27914">
        <ele>242</ele>
        <time>2026-05-18T09:26:53+02:00</time>
      </trkpt>
      <trkpt lat="48.50759" lon="6.2791">
        <ele>241.7998</ele>
        <time>2026-05-18T09:26:54+02:00</time>
      </trkpt>
      <trkpt lat="48.50765" lon="6.27906">
        <ele>242</ele>
        <time>2026-05-18T09:26:55+02:00</time>
      </trkpt>
      <trkpt lat="48.5077" lon="6.27902">
        <ele>242</ele>
        <time>2026-05-18T09:26:56+02:00</time>
      </trkpt>
      <trkpt lat="48.50775" lon="6.27899">
        <ele>242</ele>
        <time>2026-05-18T09:26:57+02:00</time>
      </trkpt>
      <trkpt lat="48.50779" lon="6.27895">
        <ele>242</ele>
        <time>2026-05-18T09:26:58+02:00</time>
      </trkpt>
      <trkpt lat="48.50784" lon="6.27891">
        <ele>241.7998</ele>
        <time>2026-05-18T09:26:59+02:00</time>
      </trkpt>
      <trkpt lat="48.5079" lon="6.27887">
        <ele>241.60059</ele>
        <time>2026-05-18T09:27:00+02:00</time>
      </trkpt>
      <trkpt lat="48.50795" lon="6.27883">
        <ele>241.40039</ele>
        <time>2026-05-18T09:27:01+02:00</time>
      </trkpt>
      <trkpt lat="48.508" lon="6.27879">
        <ele>241.2998</ele>
        <time>2026-05-18T09:27:02+02:00</time>
      </trkpt>
      <trkpt lat="48.50805" lon="6.27876">
        <ele>241.40039</ele>
        <time>2026-05-18T09:27:03+02:00</time>
      </trkpt>
      <trkpt lat="48.5081" lon="6.27872">
        <ele>241.5</ele>
        <time>2026-05-18T09:27:04+02:00</time>
      </trkpt>
      <trkpt lat="48.50815" lon="6.27868">
        <ele>241.7002</ele>
        <time>2026-05-18T09:27:05+02:00</time>
      </trkpt>
      <trkpt lat="48.5082" lon="6.27864">
        <ele>241.5</ele>
        <time>2026-05-18T09:27:06+02:00</time>
      </trkpt>
      <trkpt lat="48.50825" lon="6.2786">
        <ele>241.40039</ele>
        <time>2026-05-18T09:27:07+02:00</time>
      </trkpt>
      <trkpt lat="48.50828" lon="6.27858">
        <ele>241.40039</ele>
        <time>2026-05-18T09:27:08+02:00</time>
      </trkpt>
      <trkpt lat="48.50836" lon="6.27852">
        <ele>240.90039</ele>
        <time>2026-05-18T09:27:09+02:00</time>
      </trkpt>
      <trkpt lat="48.50841" lon="6.27848">
        <ele>240.90039</ele>
        <time>2026-05-18T09:27:10+02:00</time>
      </trkpt>
      <trkpt lat="48.50846" lon="6.27844">
        <ele>240.7998</ele>
        <time>2026-05-18T09:27:11+02:00</time>
      </trkpt>
      <trkpt lat="48.50852" lon="6.2784">
        <ele>240.90039</ele>
        <time>2026-05-18T09:27:12+02:00</time>
      </trkpt>
      <trkpt lat="48.50857" lon="6.27836">
        <ele>240.90039</ele>
        <time>2026-05-18T09:27:13+02:00</time>
      </trkpt>
      <trkpt lat="48.50862" lon="6.27831">
        <ele>241</ele>
        <time>2026-05-18T09:27:14+02:00</time>
      </trkpt>
      <trkpt lat="48.50867" lon="6.27827">
        <ele>240.90039</ele>
        <time>2026-05-18T09:27:15+02:00</time>
      </trkpt>
      <trkpt lat="48.50873" lon="6.27824">
        <ele>240.90039</ele>
        <time>2026-05-18T09:27:16+02:00</time>
      </trkpt>
      <trkpt lat="48.50878" lon="6.2782">
        <ele>240.7998</ele>
        <time>2026-05-18T09:27:17+02:00</time>
      </trkpt>
      <trkpt lat="48.50883" lon="6.27816">
        <ele>240.7998</ele>
        <time>2026-05-18T09:27:18+02:00</time>
      </trkpt>
      <trkpt lat="48.50888" lon="6.27812">
        <ele>240.7002</ele>
        <time>2026-05-18T09:27:19+02:00</time>
      </trkpt>
      <trkpt lat="48.50894" lon="6.27807">
        <ele>240.7998</ele>
        <time>2026-05-18T09:27:20+02:00</time>
      </trkpt>
      <trkpt lat="48.50896" lon="6.27805">
        <ele>240.7998</ele>
        <time>2026-05-18T09:27:21+02:00</time>
      </trkpt>
      <trkpt lat="48.50904" lon="6.27799">
        <ele>240.90039</ele>
        <time>2026-05-18T09:27:22+02:00</time>
      </trkpt>
      <trkpt lat="48.50909" lon="6.27795">
        <ele>240.90039</ele>
        <time>2026-05-18T09:27:23+02:00</time>
      </trkpt>
      <trkpt lat="48.50914" lon="6.27791">
        <ele>241</ele>
        <time>2026-05-18T09:27:24+02:00</time>
      </trkpt>
      <trkpt lat="48.50917" lon="6.2779">
        <ele>240.7998</ele>
        <time>2026-05-18T09:27:25+02:00</time>
      </trkpt>
      <trkpt lat="48.50924" lon="6.27784">
        <ele>240.7002</ele>
        <time>2026-05-18T09:27:26+02:00</time>
      </trkpt>
      <trkpt lat="48.50929" lon="6.2778">
        <ele>240.7002</ele>
        <time>2026-05-18T09:27:27+02:00</time>
      </trkpt>
      <trkpt lat="48.50934" lon="6.27776">
        <ele>240.60059</ele>
        <time>2026-05-18T09:27:28+02:00</time>
      </trkpt>
      <trkpt lat="48.5094" lon="6.27772">
        <ele>240.7002</ele>
        <time>2026-05-18T09:27:29+02:00</time>
      </trkpt>
      <trkpt lat="48.50945" lon="6.27768">
        <ele>240.60059</ele>
        <time>2026-05-18T09:27:30+02:00</time>
      </trkpt>
      <trkpt lat="48.5095" lon="6.27764">
        <ele>240.7998</ele>
        <time>2026-05-18T09:27:31+02:00</time>
      </trkpt>
      <trkpt lat="48.50955" lon="6.2776">
        <ele>240.7998</ele>
        <time>2026-05-18T09:27:32+02:00</time>
      </trkpt>
      <trkpt lat="48.5096" lon="6.27756">
        <ele>241</ele>
        <time>2026-05-18T09:27:33+02:00</time>
      </trkpt>
      <trkpt lat="48.50965" lon="6.27752">
        <ele>241</ele>
        <time>2026-05-18T09:27:34+02:00</time>
      </trkpt>
      <trkpt lat="48.5097" lon="6.27748">
        <ele>241.10059</ele>
        <time>2026-05-18T09:27:35+02:00</time>
      </trkpt>
      <trkpt lat="48.50975" lon="6.27745">
        <ele>241.10059</ele>
        <time>2026-05-18T09:27:36+02:00</time>
      </trkpt>
      <trkpt lat="48.5098" lon="6.27741">
        <ele>240.90039</ele>
        <time>2026-05-18T09:27:37+02:00</time>
      </trkpt>
      <trkpt lat="48.50985" lon="6.27737">
        <ele>240.90039</ele>
        <time>2026-05-18T09:27:38+02:00</time>
      </trkpt>
      <trkpt lat="48.5099" lon="6.27733">
        <ele>240.7998</ele>
        <time>2026-05-18T09:27:39+02:00</time>
      </trkpt>
      <trkpt lat="48.50995" lon="6.27729">
        <ele>240.90039</ele>
        <time>2026-05-18T09:27:40+02:00</time>
      </trkpt>
      <trkpt lat="48.51" lon="6.27725">
        <ele>240.7998</ele>
        <time>2026-05-18T09:27:41+02:00</time>
      </trkpt>
      <trkpt lat="48.51005" lon="6.27721">
        <ele>241</ele>
        <time>2026-05-18T09:27:42+02:00</time>
      </trkpt>
      <trkpt lat="48.51011" lon="6.27717">
        <ele>240.90039</ele>
        <time>2026-05-18T09:27:43+02:00</time>
      </trkpt>
      <trkpt lat="48.51016" lon="6.27712">
        <ele>241.10059</ele>
        <time>2026-05-18T09:27:44+02:00</time>
      </trkpt>
      <trkpt lat="48.51021" lon="6.27708">
        <ele>241.10059</ele>
        <time>2026-05-18T09:27:45+02:00</time>
      </trkpt>
      <trkpt lat="48.51026" lon="6.27705">
        <ele>241.10059</ele>
        <time>2026-05-18T09:27:46+02:00</time>
      </trkpt>
      <trkpt lat="48.51031" lon="6.277">
        <ele>241.10059</ele>
        <time>2026-05-18T09:27:47+02:00</time>
      </trkpt>
      <trkpt lat="48.51036" lon="6.27696">
        <ele>241</ele>
        <time>2026-05-18T09:27:48+02:00</time>
      </trkpt>
      <trkpt lat="48.51041" lon="6.27692">
        <ele>240.90039</ele>
        <time>2026-05-18T09:27:49+02:00</time>
      </trkpt>
      <trkpt lat="48.51046" lon="6.27688">
        <ele>241</ele>
        <time>2026-05-18T09:27:50+02:00</time>
      </trkpt>
      <trkpt lat="48.5105" lon="6.27685">
        <ele>240.90039</ele>
        <time>2026-05-18T09:27:51+02:00</time>
      </trkpt>
      <trkpt lat="48.51055" lon="6.27681">
        <ele>240.7998</ele>
        <time>2026-05-18T09:27:52+02:00</time>
      </trkpt>
      <trkpt lat="48.5106" lon="6.27678">
        <ele>240.90039</ele>
        <time>2026-05-18T09:27:53+02:00</time>
      </trkpt>
      <trkpt lat="48.51064" lon="6.27675">
        <ele>240.7998</ele>
        <time>2026-05-18T09:27:54+02:00</time>
      </trkpt>
      <trkpt lat="48.51068" lon="6.27672">
        <ele>240.7998</ele>
        <time>2026-05-18T09:27:55+02:00</time>
      </trkpt>
      <trkpt lat="48.51073" lon="6.27669">
        <ele>240.90039</ele>
        <time>2026-05-18T09:27:56+02:00</time>
      </trkpt>
      <trkpt lat="48.51078" lon="6.27666">
        <ele>240.7002</ele>
        <time>2026-05-18T09:27:57+02:00</time>
      </trkpt>
      <trkpt lat="48.51083" lon="6.27662">
        <ele>240.7002</ele>
        <time>2026-05-18T09:27:58+02:00</time>
      </trkpt>
      <trkpt lat="48.51087" lon="6.27659">
        <ele>240.60059</ele>
        <time>2026-05-18T09:27:59+02:00</time>
      </trkpt>
      <trkpt lat="48.51092" lon="6.27655">
        <ele>240.40039</ele>
        <time>2026-05-18T09:28:00+02:00</time>
      </trkpt>
      <trkpt lat="48.51096" lon="6.27652">
        <ele>240.5</ele>
        <time>2026-05-18T09:28:01+02:00</time>
      </trkpt>
      <trkpt lat="48.51101" lon="6.27648">
        <ele>240.40039</ele>
        <time>2026-05-18T09:28:02+02:00</time>
      </trkpt>
      <trkpt lat="48.51106" lon="6.27645">
        <ele>240.40039</ele>
        <time>2026-05-18T09:28:03+02:00</time>
      </trkpt>
      <trkpt lat="48.51111" lon="6.27641">
        <ele>240.2998</ele>
        <time>2026-05-18T09:28:04+02:00</time>
      </trkpt>
      <trkpt lat="48.51116" lon="6.27638">
        <ele>240.2002</ele>
        <time>2026-05-18T09:28:05+02:00</time>
      </trkpt>
      <trkpt lat="48.51121" lon="6.27634">
        <ele>240.10059</ele>
        <time>2026-05-18T09:28:06+02:00</time>
      </trkpt>
      <trkpt lat="48.51125" lon="6.2763">
        <ele>240.10059</ele>
        <time>2026-05-18T09:28:07+02:00</time>
      </trkpt>
      <trkpt lat="48.5113" lon="6.27627">
        <ele>240.10059</ele>
        <time>2026-05-18T09:28:08+02:00</time>
      </trkpt>
      <trkpt lat="48.51135" lon="6.27623">
        <ele>240.2002</ele>
        <time>2026-05-18T09:28:09+02:00</time>
      </trkpt>
      <trkpt lat="48.5114" lon="6.27619">
        <ele>240.2002</ele>
        <time>2026-05-18T09:28:10+02:00</time>
      </trkpt>
      <trkpt lat="48.51145" lon="6.27615">
        <ele>240.2002</ele>
        <time>2026-05-18T09:28:11+02:00</time>
      </trkpt>
      <trkpt lat="48.5115" lon="6.27611">
        <ele>240.10059</ele>
        <time>2026-05-18T09:28:12+02:00</time>
      </trkpt>
      <trkpt lat="48.51155" lon="6.27607">
        <ele>240.10059</ele>
        <time>2026-05-18T09:28:13+02:00</time>
      </trkpt>
      <trkpt lat="48.5116" lon="6.27603">
        <ele>240.10059</ele>
        <time>2026-05-18T09:28:14+02:00</time>
      </trkpt>
      <trkpt lat="48.51165" lon="6.27599">
        <ele>240.10059</ele>
        <time>2026-05-18T09:28:15+02:00</time>
      </trkpt>
      <trkpt lat="48.5117" lon="6.27595">
        <ele>240.10059</ele>
        <time>2026-05-18T09:28:16+02:00</time>
      </trkpt>
      <trkpt lat="48.51175" lon="6.27591">
        <ele>240.10059</ele>
        <time>2026-05-18T09:28:17+02:00</time>
      </trkpt>
      <trkpt lat="48.5118" lon="6.27587">
        <ele>240.10059</ele>
        <time>2026-05-18T09:28:18+02:00</time>
      </trkpt>
      <trkpt lat="48.51185" lon="6.27583">
        <ele>240.10059</ele>
        <time>2026-05-18T09:28:19+02:00</time>
      </trkpt>
      <trkpt lat="48.5119" lon="6.27579">
        <ele>240.10059</ele>
        <time>2026-05-18T09:28:20+02:00</time>
      </trkpt>
      <trkpt lat="48.51192" lon="6.27578">
        <ele>240.10059</ele>
        <time>2026-05-18T09:28:21+02:00</time>
      </trkpt>
      <trkpt lat="48.512" lon="6.27572">
        <ele>240.10059</ele>
        <time>2026-05-18T09:28:22+02:00</time>
      </trkpt>
      <trkpt lat="48.51205" lon="6.27568">
        <ele>240</ele>
        <time>2026-05-18T09:28:23+02:00</time>
      </trkpt>
      <trkpt lat="48.5121" lon="6.27565">
        <ele>240</ele>
        <time>2026-05-18T09:28:24+02:00</time>
      </trkpt>
      <trkpt lat="48.51214" lon="6.27561">
        <ele>240.10059</ele>
        <time>2026-05-18T09:28:25+02:00</time>
      </trkpt>
      <trkpt lat="48.51219" lon="6.27557">
        <ele>240.10059</ele>
        <time>2026-05-18T09:28:26+02:00</time>
      </trkpt>
      <trkpt lat="48.51224" lon="6.27554">
        <ele>240.2002</ele>
        <time>2026-05-18T09:28:27+02:00</time>
      </trkpt>
      <trkpt lat="48.51229" lon="6.2755">
        <ele>240.2002</ele>
        <time>2026-05-18T09:28:28+02:00</time>
      </trkpt>
      <trkpt lat="48.51234" lon="6.27546">
        <ele>240.2002</ele>
        <time>2026-05-18T09:28:29+02:00</time>
      </trkpt>
      <trkpt lat="48.51239" lon="6.27543">
        <ele>240.2002</ele>
        <time>2026-05-18T09:28:30+02:00</time>
      </trkpt>
      <trkpt lat="48.51244" lon="6.27539">
        <ele>240.10059</ele>
        <time>2026-05-18T09:28:31+02:00</time>
      </trkpt>
      <trkpt lat="48.51249" lon="6.27535">
        <ele>240.10059</ele>
        <time>2026-05-18T09:28:32+02:00</time>
      </trkpt>
      <trkpt lat="48.51254" lon="6.27532">
        <ele>240</ele>
        <time>2026-05-18T09:28:33+02:00</time>
      </trkpt>
      <trkpt lat="48.51259" lon="6.27528">
        <ele>240</ele>
        <time>2026-05-18T09:28:34+02:00</time>
      </trkpt>
      <trkpt lat="48.51264" lon="6.27524">
        <ele>240</ele>
        <time>2026-05-18T09:28:35+02:00</time>
      </trkpt>
      <trkpt lat="48.51268" lon="6.27521">
        <ele>240</ele>
        <time>2026-05-18T09:28:36+02:00</time>
      </trkpt>
      <trkpt lat="48.51272" lon="6.27517">
        <ele>240</ele>
        <time>2026-05-18T09:28:37+02:00</time>
      </trkpt>
      <trkpt lat="48.51277" lon="6.27513">
        <ele>240</ele>
        <time>2026-05-18T09:28:38+02:00</time>
      </trkpt>
      <trkpt lat="48.51281" lon="6.2751">
        <ele>240.10059</ele>
        <time>2026-05-18T09:28:39+02:00</time>
      </trkpt>
      <trkpt lat="48.51286" lon="6.27506">
        <ele>240</ele>
        <time>2026-05-18T09:28:40+02:00</time>
      </trkpt>
      <trkpt lat="48.51291" lon="6.27503">
        <ele>240.10059</ele>
        <time>2026-05-18T09:28:41+02:00</time>
      </trkpt>
      <trkpt lat="48.51296" lon="6.27499">
        <ele>240</ele>
        <time>2026-05-18T09:28:42+02:00</time>
      </trkpt>
      <trkpt lat="48.51301" lon="6.27495">
        <ele>240</ele>
        <time>2026-05-18T09:28:43+02:00</time>
      </trkpt>
      <trkpt lat="48.51304" lon="6.27493">
        <ele>240.10059</ele>
        <time>2026-05-18T09:28:44+02:00</time>
      </trkpt>
      <trkpt lat="48.51311" lon="6.27487">
        <ele>240</ele>
        <time>2026-05-18T09:28:45+02:00</time>
      </trkpt>
      <trkpt lat="48.51317" lon="6.27483">
        <ele>240</ele>
        <time>2026-05-18T09:28:46+02:00</time>
      </trkpt>
      <trkpt lat="48.51319" lon="6.27482">
        <ele>240.10059</ele>
        <time>2026-05-18T09:28:47+02:00</time>
      </trkpt>
      <trkpt lat="48.51327" lon="6.27476">
        <ele>240.10059</ele>
        <time>2026-05-18T09:28:48+02:00</time>
      </trkpt>
      <trkpt lat="48.51331" lon="6.27472">
        <ele>240.2998</ele>
        <time>2026-05-18T09:28:49+02:00</time>
      </trkpt>
      <trkpt lat="48.51336" lon="6.27468">
        <ele>240.2998</ele>
        <time>2026-05-18T09:28:50+02:00</time>
      </trkpt>
      <trkpt lat="48.51341" lon="6.27464">
        <ele>240.2002</ele>
        <time>2026-05-18T09:28:51+02:00</time>
      </trkpt>
      <trkpt lat="48.51346" lon="6.2746">
        <ele>240.2002</ele>
        <time>2026-05-18T09:28:52+02:00</time>
      </trkpt>
      <trkpt lat="48.51351" lon="6.27456">
        <ele>240</ele>
        <time>2026-05-18T09:28:53+02:00</time>
      </trkpt>
      <trkpt lat="48.51354" lon="6.27454">
        <ele>240</ele>
        <time>2026-05-18T09:28:54+02:00</time>
      </trkpt>
      <trkpt lat="48.51361" lon="6.27449">
        <ele>240</ele>
        <time>2026-05-18T09:28:55+02:00</time>
      </trkpt>
      <trkpt lat="48.51366" lon="6.27445">
        <ele>240.10059</ele>
        <time>2026-05-18T09:28:56+02:00</time>
      </trkpt>
      <trkpt lat="48.51371" lon="6.27441">
        <ele>240.2002</ele>
        <time>2026-05-18T09:28:57+02:00</time>
      </trkpt>
      <trkpt lat="48.51373" lon="6.27439">
        <ele>240.2002</ele>
        <time>2026-05-18T09:28:58+02:00</time>
      </trkpt>
      <trkpt lat="48.51381" lon="6.27433">
        <ele>240.2998</ele>
        <time>2026-05-18T09:28:59+02:00</time>
      </trkpt>
      <trkpt lat="48.51386" lon="6.27429">
        <ele>240.2002</ele>
        <time>2026-05-18T09:29:00+02:00</time>
      </trkpt>
      <trkpt lat="48.51391" lon="6.27425">
        <ele>240.2002</ele>
        <time>2026-05-18T09:29:01+02:00</time>
      </trkpt>
      <trkpt lat="48.51395" lon="6.27421">
        <ele>240</ele>
        <time>2026-05-18T09:29:02+02:00</time>
      </trkpt>
      <trkpt lat="48.514" lon="6.27417">
        <ele>240.10059</ele>
        <time>2026-05-18T09:29:03+02:00</time>
      </trkpt>
      <trkpt lat="48.51405" lon="6.27414">
        <ele>240.10059</ele>
        <time>2026-05-18T09:29:04+02:00</time>
      </trkpt>
      <trkpt lat="48.5141" lon="6.2741">
        <ele>240</ele>
        <time>2026-05-18T09:29:05+02:00</time>
      </trkpt>
      <trkpt lat="48.51415" lon="6.27407">
        <ele>240.10059</ele>
        <time>2026-05-18T09:29:06+02:00</time>
      </trkpt>
      <trkpt lat="48.5142" lon="6.27403">
        <ele>240.2002</ele>
        <time>2026-05-18T09:29:07+02:00</time>
      </trkpt>
      <trkpt lat="48.51424" lon="6.27399">
        <ele>240.2998</ele>
        <time>2026-05-18T09:29:08+02:00</time>
      </trkpt>
      <trkpt lat="48.51429" lon="6.27396">
        <ele>240.2002</ele>
        <time>2026-05-18T09:29:09+02:00</time>
      </trkpt>
      <trkpt lat="48.51434" lon="6.27392">
        <ele>240.2002</ele>
        <time>2026-05-18T09:29:10+02:00</time>
      </trkpt>
      <trkpt lat="48.51439" lon="6.27389">
        <ele>240.2002</ele>
        <time>2026-05-18T09:29:11+02:00</time>
      </trkpt>
      <trkpt lat="48.51443" lon="6.27386">
        <ele>240</ele>
        <time>2026-05-18T09:29:12+02:00</time>
      </trkpt>
      <trkpt lat="48.51448" lon="6.27382">
        <ele>240.10059</ele>
        <time>2026-05-18T09:29:13+02:00</time>
      </trkpt>
      <trkpt lat="48.51453" lon="6.27378">
        <ele>240</ele>
        <time>2026-05-18T09:29:14+02:00</time>
      </trkpt>
      <trkpt lat="48.51458" lon="6.27374">
        <ele>240.10059</ele>
        <time>2026-05-18T09:29:15+02:00</time>
      </trkpt>
      <trkpt lat="48.51463" lon="6.2737">
        <ele>240.2998</ele>
        <time>2026-05-18T09:29:16+02:00</time>
      </trkpt>
      <trkpt lat="48.51468" lon="6.27367">
        <ele>240.40039</ele>
        <time>2026-05-18T09:29:17+02:00</time>
      </trkpt>
      <trkpt lat="48.51473" lon="6.27363">
        <ele>240.5</ele>
        <time>2026-05-18T09:29:18+02:00</time>
      </trkpt>
      <trkpt lat="48.51477" lon="6.27359">
        <ele>240.40039</ele>
        <time>2026-05-18T09:29:19+02:00</time>
      </trkpt>
      <trkpt lat="48.51482" lon="6.27355">
        <ele>240.40039</ele>
        <time>2026-05-18T09:29:20+02:00</time>
      </trkpt>
      <trkpt lat="48.51487" lon="6.27351">
        <ele>240.2002</ele>
        <time>2026-05-18T09:29:21+02:00</time>
      </trkpt>
      <trkpt lat="48.51492" lon="6.27347">
        <ele>240.2002</ele>
        <time>2026-05-18T09:29:22+02:00</time>
      </trkpt>
      <trkpt lat="48.51496" lon="6.27343">
        <ele>240.10059</ele>
        <time>2026-05-18T09:29:23+02:00</time>
      </trkpt>
      <trkpt lat="48.51501" lon="6.27339">
        <ele>240.10059</ele>
        <time>2026-05-18T09:29:24+02:00</time>
      </trkpt>
      <trkpt lat="48.51506" lon="6.27336">
        <ele>240</ele>
        <time>2026-05-18T09:29:25+02:00</time>
      </trkpt>
      <trkpt lat="48.5151" lon="6.27332">
        <ele>240</ele>
        <time>2026-05-18T09:29:26+02:00</time>
      </trkpt>
      <trkpt lat="48.51515" lon="6.27328">
        <ele>240</ele>
        <time>2026-05-18T09:29:27+02:00</time>
      </trkpt>
      <trkpt lat="48.5152" lon="6.27325">
        <ele>240</ele>
        <time>2026-05-18T09:29:28+02:00</time>
      </trkpt>
      <trkpt lat="48.51525" lon="6.27322">
        <ele>240.10059</ele>
        <time>2026-05-18T09:29:29+02:00</time>
      </trkpt>
      <trkpt lat="48.51529" lon="6.27318">
        <ele>240</ele>
        <time>2026-05-18T09:29:30+02:00</time>
      </trkpt>
      <trkpt lat="48.51534" lon="6.27314">
        <ele>240.10059</ele>
        <time>2026-05-18T09:29:31+02:00</time>
      </trkpt>
      <trkpt lat="48.51539" lon="6.2731">
        <ele>240.10059</ele>
        <time>2026-05-18T09:29:32+02:00</time>
      </trkpt>
      <trkpt lat="48.51544" lon="6.27306">
        <ele>240.2002</ele>
        <time>2026-05-18T09:29:33+02:00</time>
      </trkpt>
      <trkpt lat="48.51549" lon="6.27303">
        <ele>240.40039</ele>
        <time>2026-05-18T09:29:34+02:00</time>
      </trkpt>
      <trkpt lat="48.51554" lon="6.27299">
        <ele>240.5</ele>
        <time>2026-05-18T09:29:35+02:00</time>
      </trkpt>
      <trkpt lat="48.51559" lon="6.27295">
        <ele>240.7002</ele>
        <time>2026-05-18T09:29:36+02:00</time>
      </trkpt>
      <trkpt lat="48.51564" lon="6.27291">
        <ele>240.60059</ele>
        <time>2026-05-18T09:29:37+02:00</time>
      </trkpt>
      <trkpt lat="48.51569" lon="6.27287">
        <ele>240.60059</ele>
        <time>2026-05-18T09:29:38+02:00</time>
      </trkpt>
      <trkpt lat="48.51574" lon="6.27283">
        <ele>240.40039</ele>
        <time>2026-05-18T09:29:39+02:00</time>
      </trkpt>
      <trkpt lat="48.51579" lon="6.27279">
        <ele>240.40039</ele>
        <time>2026-05-18T09:29:40+02:00</time>
      </trkpt>
      <trkpt lat="48.51585" lon="6.27275">
        <ele>240.2002</ele>
        <time>2026-05-18T09:29:41+02:00</time>
      </trkpt>
      <trkpt lat="48.5159" lon="6.27271">
        <ele>240.2002</ele>
        <time>2026-05-18T09:29:42+02:00</time>
      </trkpt>
      <trkpt lat="48.51595" lon="6.27267">
        <ele>240.10059</ele>
        <time>2026-05-18T09:29:43+02:00</time>
      </trkpt>
      <trkpt lat="48.516" lon="6.27263">
        <ele>240.10059</ele>
        <time>2026-05-18T09:29:44+02:00</time>
      </trkpt>
      <trkpt lat="48.51606" lon="6.27259">
        <ele>240</ele>
        <time>2026-05-18T09:29:45+02:00</time>
      </trkpt>
      <trkpt lat="48.51611" lon="6.27255">
        <ele>240</ele>
        <time>2026-05-18T09:29:46+02:00</time>
      </trkpt>
      <trkpt lat="48.51616" lon="6.27251">
        <ele>240.10059</ele>
        <time>2026-05-18T09:29:47+02:00</time>
      </trkpt>
      <trkpt lat="48.51621" lon="6.27247">
        <ele>240.10059</ele>
        <time>2026-05-18T09:29:48+02:00</time>
      </trkpt>
      <trkpt lat="48.51626" lon="6.27243">
        <ele>240.10059</ele>
        <time>2026-05-18T09:29:49+02:00</time>
      </trkpt>
      <trkpt lat="48.51631" lon="6.27239">
        <ele>240.10059</ele>
        <time>2026-05-18T09:29:50+02:00</time>
      </trkpt>
      <trkpt lat="48.51636" lon="6.27235">
        <ele>240.10059</ele>
        <time>2026-05-18T09:29:51+02:00</time>
      </trkpt>
      <trkpt lat="48.51641" lon="6.27232">
        <ele>240</ele>
        <time>2026-05-18T09:29:52+02:00</time>
      </trkpt>
      <trkpt lat="48.51646" lon="6.27228">
        <ele>240</ele>
        <time>2026-05-18T09:29:53+02:00</time>
      </trkpt>
      <trkpt lat="48.51651" lon="6.27224">
        <ele>240</ele>
        <time>2026-05-18T09:29:54+02:00</time>
      </trkpt>
      <trkpt lat="48.51656" lon="6.27221">
        <ele>240</ele>
        <time>2026-05-18T09:29:55+02:00</time>
      </trkpt>
      <trkpt lat="48.51661" lon="6.27217">
        <ele>240</ele>
        <time>2026-05-18T09:29:56+02:00</time>
      </trkpt>
      <trkpt lat="48.51666" lon="6.27213">
        <ele>240</ele>
        <time>2026-05-18T09:29:57+02:00</time>
      </trkpt>
      <trkpt lat="48.51671" lon="6.27209">
        <ele>240</ele>
        <time>2026-05-18T09:29:58+02:00</time>
      </trkpt>
      <trkpt lat="48.51676" lon="6.27205">
        <ele>240</ele>
        <time>2026-05-18T09:29:59+02:00</time>
      </trkpt>
      <trkpt lat="48.51681" lon="6.27202">
        <ele>240</ele>
        <time>2026-05-18T09:30:00+02:00</time>
      </trkpt>
      <trkpt lat="48.51685" lon="6.27198">
        <ele>240</ele>
        <time>2026-05-18T09:30:01+02:00</time>
      </trkpt>
      <trkpt lat="48.5169" lon="6.27194">
        <ele>240</ele>
        <time>2026-05-18T09:30:02+02:00</time>
      </trkpt>
      <trkpt lat="48.51696" lon="6.2719">
        <ele>240</ele>
        <time>2026-05-18T09:30:03+02:00</time>
      </trkpt>
      <trkpt lat="48.517" lon="6.27186">
        <ele>240</ele>
        <time>2026-05-18T09:30:04+02:00</time>
      </trkpt>
      <trkpt lat="48.51705" lon="6.27182">
        <ele>240.10059</ele>
        <time>2026-05-18T09:30:05+02:00</time>
      </trkpt>
      <trkpt lat="48.5171" lon="6.27179">
        <ele>240.2998</ele>
        <time>2026-05-18T09:30:06+02:00</time>
      </trkpt>
      <trkpt lat="48.51715" lon="6.27175">
        <ele>240.40039</ele>
        <time>2026-05-18T09:30:07+02:00</time>
      </trkpt>
      <trkpt lat="48.5172" lon="6.27171">
        <ele>240.2998</ele>
        <time>2026-05-18T09:30:08+02:00</time>
      </trkpt>
      <trkpt lat="48.51725" lon="6.27168">
        <ele>240.2998</ele>
        <time>2026-05-18T09:30:09+02:00</time>
      </trkpt>
      <trkpt lat="48.5173" lon="6.27164">
        <ele>240.10059</ele>
        <time>2026-05-18T09:30:10+02:00</time>
      </trkpt>
      <trkpt lat="48.51734" lon="6.2716">
        <ele>240.10059</ele>
        <time>2026-05-18T09:30:11+02:00</time>
      </trkpt>
      <trkpt lat="48.5174" lon="6.27157">
        <ele>240.10059</ele>
        <time>2026-05-18T09:30:12+02:00</time>
      </trkpt>
      <trkpt lat="48.51745" lon="6.27153">
        <ele>240</ele>
        <time>2026-05-18T09:30:13+02:00</time>
      </trkpt>
      <trkpt lat="48.5175" lon="6.2715">
        <ele>240</ele>
        <time>2026-05-18T09:30:14+02:00</time>
      </trkpt>
      <trkpt lat="48.51755" lon="6.27146">
        <ele>240</ele>
        <time>2026-05-18T09:30:15+02:00</time>
      </trkpt>
      <trkpt lat="48.51759" lon="6.27143">
        <ele>240</ele>
        <time>2026-05-18T09:30:16+02:00</time>
      </trkpt>
      <trkpt lat="48.51764" lon="6.2714">
        <ele>240.10059</ele>
        <time>2026-05-18T09:30:17+02:00</time>
      </trkpt>
      <trkpt lat="48.51767" lon="6.27138">
        <ele>240.2998</ele>
        <time>2026-05-18T09:30:18+02:00</time>
      </trkpt>
      <trkpt lat="48.51774" lon="6.27133">
        <ele>240.40039</ele>
        <time>2026-05-18T09:30:19+02:00</time>
      </trkpt>
      <trkpt lat="48.51779" lon="6.27129">
        <ele>240.2998</ele>
        <time>2026-05-18T09:30:20+02:00</time>
      </trkpt>
      <trkpt lat="48.51784" lon="6.27126">
        <ele>240.2002</ele>
        <time>2026-05-18T09:30:21+02:00</time>
      </trkpt>
      <trkpt lat="48.5179" lon="6.27123">
        <ele>240.2002</ele>
        <time>2026-05-18T09:30:22+02:00</time>
      </trkpt>
      <trkpt lat="48.51795" lon="6.2712">
        <ele>240</ele>
        <time>2026-05-18T09:30:23+02:00</time>
      </trkpt>
      <trkpt lat="48.518" lon="6.27117">
        <ele>240</ele>
        <time>2026-05-18T09:30:24+02:00</time>
      </trkpt>
      <trkpt lat="48.51805" lon="6.27114">
        <ele>240</ele>
        <time>2026-05-18T09:30:25+02:00</time>
      </trkpt>
      <trkpt lat="48.5181" lon="6.27111">
        <ele>240</ele>
        <time>2026-05-18T09:30:26+02:00</time>
      </trkpt>
      <trkpt lat="48.51815" lon="6.27108">
        <ele>239.90039</ele>
        <time>2026-05-18T09:30:27+02:00</time>
      </trkpt>
      <trkpt lat="48.5182" lon="6.27105">
        <ele>239.90039</ele>
        <time>2026-05-18T09:30:28+02:00</time>
      </trkpt>
      <trkpt lat="48.51825" lon="6.27103">
        <ele>240.10059</ele>
        <time>2026-05-18T09:30:29+02:00</time>
      </trkpt>
      <trkpt lat="48.5183" lon="6.271">
        <ele>240.10059</ele>
        <time>2026-05-18T09:30:30+02:00</time>
      </trkpt>
      <trkpt lat="48.51834" lon="6.27098">
        <ele>240.2002</ele>
        <time>2026-05-18T09:30:31+02:00</time>
      </trkpt>
      <trkpt lat="48.51838" lon="6.27096">
        <ele>240.2998</ele>
        <time>2026-05-18T09:30:32+02:00</time>
      </trkpt>
      <trkpt lat="48.51842" lon="6.27093">
        <ele>240.2998</ele>
        <time>2026-05-18T09:30:33+02:00</time>
      </trkpt>
      <trkpt lat="48.51846" lon="6.27091">
        <ele>240.2998</ele>
        <time>2026-05-18T09:30:34+02:00</time>
      </trkpt>
      <trkpt lat="48.51851" lon="6.27089">
        <ele>240.2998</ele>
        <time>2026-05-18T09:30:35+02:00</time>
      </trkpt>
      <trkpt lat="48.51855" lon="6.27087">
        <ele>240</ele>
        <time>2026-05-18T09:30:36+02:00</time>
      </trkpt>
      <trkpt lat="48.51859" lon="6.27085">
        <ele>240</ele>
        <time>2026-05-18T09:30:37+02:00</time>
      </trkpt>
      <trkpt lat="48.51863" lon="6.27083">
        <ele>240</ele>
        <time>2026-05-18T09:30:38+02:00</time>
      </trkpt>
      <trkpt lat="48.51868" lon="6.27081">
        <ele>240</ele>
        <time>2026-05-18T09:30:39+02:00</time>
      </trkpt>
      <trkpt lat="48.51873" lon="6.27078">
        <ele>240</ele>
        <time>2026-05-18T09:30:40+02:00</time>
      </trkpt>
      <trkpt lat="48.51878" lon="6.27076">
        <ele>240</ele>
        <time>2026-05-18T09:30:41+02:00</time>
      </trkpt>
      <trkpt lat="48.51883" lon="6.27073">
        <ele>240</ele>
        <time>2026-05-18T09:30:42+02:00</time>
      </trkpt>
      <trkpt lat="48.51887" lon="6.2707">
        <ele>240</ele>
        <time>2026-05-18T09:30:43+02:00</time>
      </trkpt>
      <trkpt lat="48.51892" lon="6.27068">
        <ele>240</ele>
        <time>2026-05-18T09:30:44+02:00</time>
      </trkpt>
      <trkpt lat="48.51897" lon="6.27065">
        <ele>240</ele>
        <time>2026-05-18T09:30:45+02:00</time>
      </trkpt>
      <trkpt lat="48.51903" lon="6.27062">
        <ele>240.10059</ele>
        <time>2026-05-18T09:30:46+02:00</time>
      </trkpt>
      <trkpt lat="48.51907" lon="6.27059">
        <ele>240.10059</ele>
        <time>2026-05-18T09:30:47+02:00</time>
      </trkpt>
      <trkpt lat="48.51913" lon="6.27056">
        <ele>240.2002</ele>
        <time>2026-05-18T09:30:48+02:00</time>
      </trkpt>
      <trkpt lat="48.51918" lon="6.27053">
        <ele>240.10059</ele>
        <time>2026-05-18T09:30:49+02:00</time>
      </trkpt>
      <trkpt lat="48.51922" lon="6.2705">
        <ele>240.10059</ele>
        <time>2026-05-18T09:30:50+02:00</time>
      </trkpt>
      <trkpt lat="48.51927" lon="6.27047">
        <ele>240.10059</ele>
        <time>2026-05-18T09:30:51+02:00</time>
      </trkpt>
      <trkpt lat="48.51932" lon="6.27045">
        <ele>240.2002</ele>
        <time>2026-05-18T09:30:52+02:00</time>
      </trkpt>
      <trkpt lat="48.51936" lon="6.27043">
        <ele>240</ele>
        <time>2026-05-18T09:30:53+02:00</time>
      </trkpt>
      <trkpt lat="48.51941" lon="6.2704">
        <ele>240</ele>
        <time>2026-05-18T09:30:54+02:00</time>
      </trkpt>
      <trkpt lat="48.51947" lon="6.27037">
        <ele>240</ele>
        <time>2026-05-18T09:30:55+02:00</time>
      </trkpt>
      <trkpt lat="48.51952" lon="6.27034">
        <ele>239.90039</ele>
        <time>2026-05-18T09:30:56+02:00</time>
      </trkpt>
      <trkpt lat="48.51958" lon="6.27031">
        <ele>239.90039</ele>
        <time>2026-05-18T09:30:57+02:00</time>
      </trkpt>
      <trkpt lat="48.51963" lon="6.27028">
        <ele>240.10059</ele>
        <time>2026-05-18T09:30:58+02:00</time>
      </trkpt>
      <trkpt lat="48.51969" lon="6.27025">
        <ele>240.2998</ele>
        <time>2026-05-18T09:30:59+02:00</time>
      </trkpt>
      <trkpt lat="48.51973" lon="6.27022">
        <ele>240.2998</ele>
        <time>2026-05-18T09:31:00+02:00</time>
      </trkpt>
      <trkpt lat="48.51978" lon="6.27019">
        <ele>240.60059</ele>
        <time>2026-05-18T09:31:01+02:00</time>
      </trkpt>
      <trkpt lat="48.51983" lon="6.27016">
        <ele>240.60059</ele>
        <time>2026-05-18T09:31:02+02:00</time>
      </trkpt>
      <trkpt lat="48.51989" lon="6.27014">
        <ele>240.60059</ele>
        <time>2026-05-18T09:31:03+02:00</time>
      </trkpt>
      <trkpt lat="48.51994" lon="6.27011">
        <ele>240.5</ele>
        <time>2026-05-18T09:31:04+02:00</time>
      </trkpt>
      <trkpt lat="48.52" lon="6.27008">
        <ele>240.2002</ele>
        <time>2026-05-18T09:31:05+02:00</time>
      </trkpt>
      <trkpt lat="48.52006" lon="6.27005">
        <ele>240.2002</ele>
        <time>2026-05-18T09:31:06+02:00</time>
      </trkpt>
      <trkpt lat="48.52012" lon="6.27002">
        <ele>240.2002</ele>
        <time>2026-05-18T09:31:07+02:00</time>
      </trkpt>
      <trkpt lat="48.52017" lon="6.26998">
        <ele>240</ele>
        <time>2026-05-18T09:31:08+02:00</time>
      </trkpt>
      <trkpt lat="48.52023" lon="6.26995">
        <ele>240</ele>
        <time>2026-05-18T09:31:09+02:00</time>
      </trkpt>
      <trkpt lat="48.52028" lon="6.26992">
        <ele>239.90039</ele>
        <time>2026-05-18T09:31:10+02:00</time>
      </trkpt>
      <trkpt lat="48.52034" lon="6.2699">
        <ele>240.10059</ele>
        <time>2026-05-18T09:31:11+02:00</time>
      </trkpt>
      <trkpt lat="48.52039" lon="6.26987">
        <ele>240.40039</ele>
        <time>2026-05-18T09:31:12+02:00</time>
      </trkpt>
      <trkpt lat="48.52044" lon="6.26984">
        <ele>240.60059</ele>
        <time>2026-05-18T09:31:13+02:00</time>
      </trkpt>
      <trkpt lat="48.52049" lon="6.26982">
        <ele>240.7002</ele>
        <time>2026-05-18T09:31:14+02:00</time>
      </trkpt>
      <trkpt lat="48.52055" lon="6.26979">
        <ele>240.7002</ele>
        <time>2026-05-18T09:31:15+02:00</time>
      </trkpt>
      <trkpt lat="48.5206" lon="6.26976">
        <ele>240.2998</ele>
        <time>2026-05-18T09:31:16+02:00</time>
      </trkpt>
      <trkpt lat="48.52065" lon="6.26973">
        <ele>240.2998</ele>
        <time>2026-05-18T09:31:17+02:00</time>
      </trkpt>
      <trkpt lat="48.52071" lon="6.26971">
        <ele>240.2998</ele>
        <time>2026-05-18T09:31:18+02:00</time>
      </trkpt>
      <trkpt lat="48.52076" lon="6.26968">
        <ele>240.2998</ele>
        <time>2026-05-18T09:31:19+02:00</time>
      </trkpt>
      <trkpt lat="48.52081" lon="6.26965">
        <ele>240.10059</ele>
        <time>2026-05-18T09:31:20+02:00</time>
      </trkpt>
      <trkpt lat="48.52086" lon="6.26962">
        <ele>240.10059</ele>
        <time>2026-05-18T09:31:21+02:00</time>
      </trkpt>
      <trkpt lat="48.52089" lon="6.26961">
        <ele>240.10059</ele>
        <time>2026-05-18T09:31:22+02:00</time>
      </trkpt>
      <trkpt lat="48.52097" lon="6.26957">
        <ele>240</ele>
        <time>2026-05-18T09:31:23+02:00</time>
      </trkpt>
      <trkpt lat="48.52102" lon="6.26954">
        <ele>240.2002</ele>
        <time>2026-05-18T09:31:24+02:00</time>
      </trkpt>
      <trkpt lat="48.52107" lon="6.26952">
        <ele>240.40039</ele>
        <time>2026-05-18T09:31:25+02:00</time>
      </trkpt>
      <trkpt lat="48.52112" lon="6.26949">
        <ele>240.5</ele>
        <time>2026-05-18T09:31:26+02:00</time>
      </trkpt>
      <trkpt lat="48.52116" lon="6.26947">
        <ele>240.5</ele>
        <time>2026-05-18T09:31:27+02:00</time>
      </trkpt>
      <trkpt lat="48.52121" lon="6.26944">
        <ele>240.5</ele>
        <time>2026-05-18T09:31:28+02:00</time>
      </trkpt>
      <trkpt lat="48.52125" lon="6.26942">
        <ele>240.5</ele>
        <time>2026-05-18T09:31:29+02:00</time>
      </trkpt>
      <trkpt lat="48.5213" lon="6.26939">
        <ele>240.2998</ele>
        <time>2026-05-18T09:31:30+02:00</time>
      </trkpt>
      <trkpt lat="48.52135" lon="6.26936">
        <ele>240.2998</ele>
        <time>2026-05-18T09:31:31+02:00</time>
      </trkpt>
      <trkpt lat="48.52138" lon="6.26935">
        <ele>240.2998</ele>
        <time>2026-05-18T09:31:32+02:00</time>
      </trkpt>
      <trkpt lat="48.52145" lon="6.26931">
        <ele>240.10059</ele>
        <time>2026-05-18T09:31:33+02:00</time>
      </trkpt>
      <trkpt lat="48.5215" lon="6.26929">
        <ele>240</ele>
        <time>2026-05-18T09:31:34+02:00</time>
      </trkpt>
      <trkpt lat="48.52155" lon="6.26926">
        <ele>240</ele>
        <time>2026-05-18T09:31:35+02:00</time>
      </trkpt>
      <trkpt lat="48.52159" lon="6.26923">
        <ele>239.90039</ele>
        <time>2026-05-18T09:31:36+02:00</time>
      </trkpt>
      <trkpt lat="48.52165" lon="6.26921">
        <ele>239.90039</ele>
        <time>2026-05-18T09:31:37+02:00</time>
      </trkpt>
      <trkpt lat="48.52169" lon="6.26918">
        <ele>239.90039</ele>
        <time>2026-05-18T09:31:38+02:00</time>
      </trkpt>
      <trkpt lat="48.52174" lon="6.26915">
        <ele>239.7998</ele>
        <time>2026-05-18T09:31:39+02:00</time>
      </trkpt>
      <trkpt lat="48.52178" lon="6.26913">
        <ele>239.90039</ele>
        <time>2026-05-18T09:31:40+02:00</time>
      </trkpt>
      <trkpt lat="48.52184" lon="6.2691">
        <ele>239.90039</ele>
        <time>2026-05-18T09:31:41+02:00</time>
      </trkpt>
      <trkpt lat="48.52189" lon="6.26907">
        <ele>239.90039</ele>
        <time>2026-05-18T09:31:42+02:00</time>
      </trkpt>
      <trkpt lat="48.52194" lon="6.26904">
        <ele>240.10059</ele>
        <time>2026-05-18T09:31:43+02:00</time>
      </trkpt>
      <trkpt lat="48.52199" lon="6.26902">
        <ele>240.2002</ele>
        <time>2026-05-18T09:31:44+02:00</time>
      </trkpt>
      <trkpt lat="48.52204" lon="6.26899">
        <ele>240.2002</ele>
        <time>2026-05-18T09:31:45+02:00</time>
      </trkpt>
      <trkpt lat="48.5221" lon="6.26896">
        <ele>240</ele>
        <time>2026-05-18T09:31:46+02:00</time>
      </trkpt>
      <trkpt lat="48.52215" lon="6.26893">
        <ele>239.90039</ele>
        <time>2026-05-18T09:31:47+02:00</time>
      </trkpt>
      <trkpt lat="48.52221" lon="6.2689">
        <ele>239.7002</ele>
        <time>2026-05-18T09:31:48+02:00</time>
      </trkpt>
      <trkpt lat="48.52226" lon="6.26887">
        <ele>239.7002</ele>
        <time>2026-05-18T09:31:49+02:00</time>
      </trkpt>
      <trkpt lat="48.52231" lon="6.26885">
        <ele>239.60059</ele>
        <time>2026-05-18T09:31:50+02:00</time>
      </trkpt>
      <trkpt lat="48.52237" lon="6.26882">
        <ele>239.60059</ele>
        <time>2026-05-18T09:31:51+02:00</time>
      </trkpt>
      <trkpt lat="48.52242" lon="6.26879">
        <ele>239.7002</ele>
        <time>2026-05-18T09:31:52+02:00</time>
      </trkpt>
      <trkpt lat="48.52247" lon="6.26876">
        <ele>239.7002</ele>
        <time>2026-05-18T09:31:53+02:00</time>
      </trkpt>
      <trkpt lat="48.52252" lon="6.26874">
        <ele>239.7002</ele>
        <time>2026-05-18T09:31:54+02:00</time>
      </trkpt>
      <trkpt lat="48.52257" lon="6.26871">
        <ele>240</ele>
        <time>2026-05-18T09:31:55+02:00</time>
      </trkpt>
      <trkpt lat="48.52262" lon="6.26868">
        <ele>240.10059</ele>
        <time>2026-05-18T09:31:56+02:00</time>
      </trkpt>
      <trkpt lat="48.52267" lon="6.26865">
        <ele>240.2002</ele>
        <time>2026-05-18T09:31:57+02:00</time>
      </trkpt>
      <trkpt lat="48.52273" lon="6.26862">
        <ele>240.2998</ele>
        <time>2026-05-18T09:31:58+02:00</time>
      </trkpt>
      <trkpt lat="48.52278" lon="6.26859">
        <ele>240.10059</ele>
        <time>2026-05-18T09:31:59+02:00</time>
      </trkpt>
      <trkpt lat="48.5228" lon="6.26858">
        <ele>240.10059</ele>
        <time>2026-05-18T09:32:00+02:00</time>
      </trkpt>
      <trkpt lat="48.52288" lon="6.26854">
        <ele>239.60059</ele>
        <time>2026-05-18T09:32:01+02:00</time>
      </trkpt>
      <trkpt lat="48.52293" lon="6.26851">
        <ele>239.5</ele>
        <time>2026-05-18T09:32:02+02:00</time>
      </trkpt>
      <trkpt lat="48.52298" lon="6.26848">
        <ele>239.40039</ele>
        <time>2026-05-18T09:32:03+02:00</time>
      </trkpt>
      <trkpt lat="48.523" lon="6.26846">
        <ele>239.60059</ele>
        <time>2026-05-18T09:32:04+02:00</time>
      </trkpt>
      <trkpt lat="48.52307" lon="6.26841">
        <ele>239.5</ele>
        <time>2026-05-18T09:32:05+02:00</time>
      </trkpt>
      <trkpt lat="48.52311" lon="6.26837">
        <ele>239.7002</ele>
        <time>2026-05-18T09:32:06+02:00</time>
      </trkpt>
      <trkpt lat="48.52316" lon="6.26834">
        <ele>239.7002</ele>
        <time>2026-05-18T09:32:07+02:00</time>
      </trkpt>
      <trkpt lat="48.5232" lon="6.26831">
        <ele>239.7998</ele>
        <time>2026-05-18T09:32:08+02:00</time>
      </trkpt>
      <trkpt lat="48.52324" lon="6.26828">
        <ele>239.90039</ele>
        <time>2026-05-18T09:32:09+02:00</time>
      </trkpt>
      <trkpt lat="48.52328" lon="6.26826">
        <ele>240</ele>
        <time>2026-05-18T09:32:10+02:00</time>
      </trkpt>
      <trkpt lat="48.52331" lon="6.26826">
        <ele>240</ele>
        <time>2026-05-18T09:32:11+02:00</time>
      </trkpt>
      <trkpt lat="48.52336" lon="6.26823">
        <ele>240</ele>
        <time>2026-05-18T09:32:12+02:00</time>
      </trkpt>
      <trkpt lat="48.5234" lon="6.26821">
        <ele>240</ele>
        <time>2026-05-18T09:32:13+02:00</time>
      </trkpt>
      <trkpt lat="48.52344" lon="6.2682">
        <ele>240</ele>
        <time>2026-05-18T09:32:14+02:00</time>
      </trkpt>
      <trkpt lat="48.52347" lon="6.26819">
        <ele>240</ele>
        <time>2026-05-18T09:32:15+02:00</time>
      </trkpt>
      <trkpt lat="48.52352" lon="6.2682">
        <ele>240</ele>
        <time>2026-05-18T09:32:16+02:00</time>
      </trkpt>
      <trkpt lat="48.52356" lon="6.2682">
        <ele>240</ele>
        <time>2026-05-18T09:32:17+02:00</time>
      </trkpt>
      <trkpt lat="48.5236" lon="6.2682">
        <ele>240</ele>
        <time>2026-05-18T09:32:18+02:00</time>
      </trkpt>
      <trkpt lat="48.52363" lon="6.2682">
        <ele>240</ele>
        <time>2026-05-18T09:32:19+02:00</time>
      </trkpt>
      <trkpt lat="48.52366" lon="6.2682">
        <ele>240</ele>
        <time>2026-05-18T09:32:20+02:00</time>
      </trkpt>
      <trkpt lat="48.52369" lon="6.26819">
        <ele>240</ele>
        <time>2026-05-18T09:32:21+02:00</time>
      </trkpt>
      <trkpt lat="48.52374" lon="6.26817">
        <ele>240</ele>
        <time>2026-05-18T09:32:22+02:00</time>
      </trkpt>
      <trkpt lat="48.52378" lon="6.26814">
        <ele>240</ele>
        <time>2026-05-18T09:32:23+02:00</time>
      </trkpt>
      <trkpt lat="48.52382" lon="6.2681">
        <ele>239.90039</ele>
        <time>2026-05-18T09:32:24+02:00</time>
      </trkpt>
      <trkpt lat="48.52388" lon="6.26805">
        <ele>239.90039</ele>
        <time>2026-05-18T09:32:25+02:00</time>
      </trkpt>
      <trkpt lat="48.52393" lon="6.26801">
        <ele>239.7002</ele>
        <time>2026-05-18T09:32:26+02:00</time>
      </trkpt>
      <trkpt lat="48.52399" lon="6.26796">
        <ele>239.7002</ele>
        <time>2026-05-18T09:32:27+02:00</time>
      </trkpt>
      <trkpt lat="48.52403" lon="6.26793">
        <ele>239.7002</ele>
        <time>2026-05-18T09:32:28+02:00</time>
      </trkpt>
      <trkpt lat="48.52408" lon="6.2679">
        <ele>239.90039</ele>
        <time>2026-05-18T09:32:29+02:00</time>
      </trkpt>
      <trkpt lat="48.52411" lon="6.26788">
        <ele>240.10059</ele>
        <time>2026-05-18T09:32:30+02:00</time>
      </trkpt>
      <trkpt lat="48.52416" lon="6.26786">
        <ele>240.2002</ele>
        <time>2026-05-18T09:32:31+02:00</time>
      </trkpt>
      <trkpt lat="48.5242" lon="6.26784">
        <ele>240.5</ele>
        <time>2026-05-18T09:32:32+02:00</time>
      </trkpt>
      <trkpt lat="48.52424" lon="6.26782">
        <ele>240.60059</ele>
        <time>2026-05-18T09:32:33+02:00</time>
      </trkpt>
      <trkpt lat="48.5243" lon="6.26778">
        <ele>240.7002</ele>
        <time>2026-05-18T09:32:34+02:00</time>
      </trkpt>
      <trkpt lat="48.52435" lon="6.26775">
        <ele>240.7002</ele>
        <time>2026-05-18T09:32:35+02:00</time>
      </trkpt>
      <trkpt lat="48.52439" lon="6.26772">
        <ele>240.7002</ele>
        <time>2026-05-18T09:32:36+02:00</time>
      </trkpt>
      <trkpt lat="48.52444" lon="6.2677">
        <ele>240.7002</ele>
        <time>2026-05-18T09:32:37+02:00</time>
      </trkpt>
      <trkpt lat="48.52449" lon="6.26767">
        <ele>240.7002</ele>
        <time>2026-05-18T09:32:38+02:00</time>
      </trkpt>
      <trkpt lat="48.52454" lon="6.26764">
        <ele>240.7002</ele>
        <time>2026-05-18T09:32:39+02:00</time>
      </trkpt>
      <trkpt lat="48.52459" lon="6.26762">
        <ele>240.7002</ele>
        <time>2026-05-18T09:32:40+02:00</time>
      </trkpt>
      <trkpt lat="48.52464" lon="6.26759">
        <ele>240.7998</ele>
        <time>2026-05-18T09:32:41+02:00</time>
      </trkpt>
      <trkpt lat="48.52469" lon="6.26757">
        <ele>240.7002</ele>
        <time>2026-05-18T09:32:42+02:00</time>
      </trkpt>
      <trkpt lat="48.52474" lon="6.26754">
        <ele>240.7002</ele>
        <time>2026-05-18T09:32:43+02:00</time>
      </trkpt>
      <trkpt lat="48.5248" lon="6.26751">
        <ele>240.7998</ele>
        <time>2026-05-18T09:32:44+02:00</time>
      </trkpt>
      <trkpt lat="48.52485" lon="6.26748">
        <ele>240.7998</ele>
        <time>2026-05-18T09:32:45+02:00</time>
      </trkpt>
      <trkpt lat="48.5249" lon="6.26746">
        <ele>240.7998</ele>
        <time>2026-05-18T09:32:46+02:00</time>
      </trkpt>
      <trkpt lat="48.52496" lon="6.26743">
        <ele>240.90039</ele>
        <time>2026-05-18T09:32:47+02:00</time>
      </trkpt>
      <trkpt lat="48.52501" lon="6.26741">
        <ele>240.90039</ele>
        <time>2026-05-18T09:32:48+02:00</time>
      </trkpt>
      <trkpt lat="48.52506" lon="6.26738">
        <ele>240.7998</ele>
        <time>2026-05-18T09:32:49+02:00</time>
      </trkpt>
      <trkpt lat="48.52511" lon="6.26735">
        <ele>240.90039</ele>
        <time>2026-05-18T09:32:50+02:00</time>
      </trkpt>
      <trkpt lat="48.52516" lon="6.26733">
        <ele>240.90039</ele>
        <time>2026-05-18T09:32:51+02:00</time>
      </trkpt>
      <trkpt lat="48.52521" lon="6.2673">
        <ele>240.7998</ele>
        <time>2026-05-18T09:32:52+02:00</time>
      </trkpt>
      <trkpt lat="48.52527" lon="6.26727">
        <ele>240.90039</ele>
        <time>2026-05-18T09:32:53+02:00</time>
      </trkpt>
      <trkpt lat="48.52532" lon="6.26724">
        <ele>240.7998</ele>
        <time>2026-05-18T09:32:54+02:00</time>
      </trkpt>
      <trkpt lat="48.52538" lon="6.26722">
        <ele>240.7998</ele>
        <time>2026-05-18T09:32:55+02:00</time>
      </trkpt>
      <trkpt lat="48.52543" lon="6.26719">
        <ele>240.7998</ele>
        <time>2026-05-18T09:32:56+02:00</time>
      </trkpt>
      <trkpt lat="48.52548" lon="6.26716">
        <ele>240.90039</ele>
        <time>2026-05-18T09:32:57+02:00</time>
      </trkpt>
      <trkpt lat="48.52553" lon="6.26713">
        <ele>240.90039</ele>
        <time>2026-05-18T09:32:58+02:00</time>
      </trkpt>
      <trkpt lat="48.52558" lon="6.2671">
        <ele>240.90039</ele>
        <time>2026-05-18T09:32:59+02:00</time>
      </trkpt>
      <trkpt lat="48.52562" lon="6.26708">
        <ele>241</ele>
        <time>2026-05-18T09:33:00+02:00</time>
      </trkpt>
      <trkpt lat="48.52567" lon="6.26705">
        <ele>240.90039</ele>
        <time>2026-05-18T09:33:01+02:00</time>
      </trkpt>
      <trkpt lat="48.52573" lon="6.26702">
        <ele>240.90039</ele>
        <time>2026-05-18T09:33:02+02:00</time>
      </trkpt>
      <trkpt lat="48.52578" lon="6.267">
        <ele>240.90039</ele>
        <time>2026-05-18T09:33:03+02:00</time>
      </trkpt>
      <trkpt lat="48.52583" lon="6.26697">
        <ele>240.7998</ele>
        <time>2026-05-18T09:33:04+02:00</time>
      </trkpt>
      <trkpt lat="48.52586" lon="6.26696">
        <ele>240.7998</ele>
        <time>2026-05-18T09:33:05+02:00</time>
      </trkpt>
      <trkpt lat="48.52595" lon="6.26691">
        <ele>240.7002</ele>
        <time>2026-05-18T09:33:06+02:00</time>
      </trkpt>
      <trkpt lat="48.526" lon="6.26688">
        <ele>240.60059</ele>
        <time>2026-05-18T09:33:07+02:00</time>
      </trkpt>
      <trkpt lat="48.52605" lon="6.26685">
        <ele>240.60059</ele>
        <time>2026-05-18T09:33:08+02:00</time>
      </trkpt>
      <trkpt lat="48.5261" lon="6.26682">
        <ele>240.60059</ele>
        <time>2026-05-18T09:33:09+02:00</time>
      </trkpt>
      <trkpt lat="48.52615" lon="6.2668">
        <ele>240.60059</ele>
        <time>2026-05-18T09:33:10+02:00</time>
      </trkpt>
      <trkpt lat="48.5262" lon="6.26677">
        <ele>240.5</ele>
        <time>2026-05-18T09:33:11+02:00</time>
      </trkpt>
      <trkpt lat="48.52625" lon="6.26674">
        <ele>240.60059</ele>
        <time>2026-05-18T09:33:12+02:00</time>
      </trkpt>
      <trkpt lat="48.5263" lon="6.26671">
        <ele>240.5</ele>
        <time>2026-05-18T09:33:13+02:00</time>
      </trkpt>
      <trkpt lat="48.52636" lon="6.26668">
        <ele>240.2998</ele>
        <time>2026-05-18T09:33:14+02:00</time>
      </trkpt>
      <trkpt lat="48.52638" lon="6.26666">
        <ele>240.5</ele>
        <time>2026-05-18T09:33:15+02:00</time>
      </trkpt>
      <trkpt lat="48.52645" lon="6.26663">
        <ele>240.2002</ele>
        <time>2026-05-18T09:33:16+02:00</time>
      </trkpt>
      <trkpt lat="48.52651" lon="6.26659">
        <ele>240.10059</ele>
        <time>2026-05-18T09:33:17+02:00</time>
      </trkpt>
      <trkpt lat="48.52656" lon="6.26656">
        <ele>240</ele>
        <time>2026-05-18T09:33:18+02:00</time>
      </trkpt>
      <trkpt lat="48.52661" lon="6.26653">
        <ele>239.90039</ele>
        <time>2026-05-18T09:33:19+02:00</time>
      </trkpt>
      <trkpt lat="48.52666" lon="6.26651">
        <ele>239.90039</ele>
        <time>2026-05-18T09:33:20+02:00</time>
      </trkpt>
      <trkpt lat="48.52672" lon="6.26648">
        <ele>239.90039</ele>
        <time>2026-05-18T09:33:21+02:00</time>
      </trkpt>
      <trkpt lat="48.52677" lon="6.26645">
        <ele>239.7998</ele>
        <time>2026-05-18T09:33:22+02:00</time>
      </trkpt>
      <trkpt lat="48.52682" lon="6.26642">
        <ele>239.7998</ele>
        <time>2026-05-18T09:33:23+02:00</time>
      </trkpt>
      <trkpt lat="48.52688" lon="6.26639">
        <ele>239.90039</ele>
        <time>2026-05-18T09:33:24+02:00</time>
      </trkpt>
      <trkpt lat="48.52693" lon="6.26637">
        <ele>239.7998</ele>
        <time>2026-05-18T09:33:25+02:00</time>
      </trkpt>
      <trkpt lat="48.52698" lon="6.26634">
        <ele>239.7002</ele>
        <time>2026-05-18T09:33:26+02:00</time>
      </trkpt>
      <trkpt lat="48.52703" lon="6.26631">
        <ele>239.7002</ele>
        <time>2026-05-18T09:33:27+02:00</time>
      </trkpt>
      <trkpt lat="48.52708" lon="6.26628">
        <ele>239.60059</ele>
        <time>2026-05-18T09:33:28+02:00</time>
      </trkpt>
      <trkpt lat="48.52714" lon="6.26625">
        <ele>239.5</ele>
        <time>2026-05-18T09:33:29+02:00</time>
      </trkpt>
      <trkpt lat="48.52719" lon="6.26622">
        <ele>239.5</ele>
        <time>2026-05-18T09:33:30+02:00</time>
      </trkpt>
      <trkpt lat="48.52725" lon="6.2662">
        <ele>239.40039</ele>
        <time>2026-05-18T09:33:31+02:00</time>
      </trkpt>
      <trkpt lat="48.5273" lon="6.26617">
        <ele>239.40039</ele>
        <time>2026-05-18T09:33:32+02:00</time>
      </trkpt>
      <trkpt lat="48.52735" lon="6.26614">
        <ele>239.40039</ele>
        <time>2026-05-18T09:33:33+02:00</time>
      </trkpt>
      <trkpt lat="48.52741" lon="6.26611">
        <ele>239.2998</ele>
        <time>2026-05-18T09:33:34+02:00</time>
      </trkpt>
      <trkpt lat="48.52746" lon="6.26608">
        <ele>239.2998</ele>
        <time>2026-05-18T09:33:35+02:00</time>
      </trkpt>
      <trkpt lat="48.52751" lon="6.26605">
        <ele>239.2998</ele>
        <time>2026-05-18T09:33:36+02:00</time>
      </trkpt>
      <trkpt lat="48.52756" lon="6.26602">
        <ele>239.2998</ele>
        <time>2026-05-18T09:33:37+02:00</time>
      </trkpt>
      <trkpt lat="48.52761" lon="6.26599">
        <ele>239.2998</ele>
        <time>2026-05-18T09:33:38+02:00</time>
      </trkpt>
      <trkpt lat="48.52766" lon="6.26596">
        <ele>239.2998</ele>
        <time>2026-05-18T09:33:39+02:00</time>
      </trkpt>
      <trkpt lat="48.52771" lon="6.26593">
        <ele>239.2998</ele>
        <time>2026-05-18T09:33:40+02:00</time>
      </trkpt>
      <trkpt lat="48.52776" lon="6.2659">
        <ele>239.2002</ele>
        <time>2026-05-18T09:33:41+02:00</time>
      </trkpt>
      <trkpt lat="48.52782" lon="6.26588">
        <ele>239.2002</ele>
        <time>2026-05-18T09:33:42+02:00</time>
      </trkpt>
      <trkpt lat="48.52787" lon="6.26585">
        <ele>239.2002</ele>
        <time>2026-05-18T09:33:43+02:00</time>
      </trkpt>
      <trkpt lat="48.52792" lon="6.26582">
        <ele>239.2002</ele>
        <time>2026-05-18T09:33:44+02:00</time>
      </trkpt>
      <trkpt lat="48.52797" lon="6.26579">
        <ele>239.2002</ele>
        <time>2026-05-18T09:33:45+02:00</time>
      </trkpt>
      <trkpt lat="48.52802" lon="6.26576">
        <ele>239.10059</ele>
        <time>2026-05-18T09:33:46+02:00</time>
      </trkpt>
      <trkpt lat="48.52807" lon="6.26573">
        <ele>239.10059</ele>
        <time>2026-05-18T09:33:47+02:00</time>
      </trkpt>
      <trkpt lat="48.52813" lon="6.2657">
        <ele>238.90039</ele>
        <time>2026-05-18T09:33:48+02:00</time>
      </trkpt>
      <trkpt lat="48.52818" lon="6.26567">
        <ele>238.7002</ele>
        <time>2026-05-18T09:33:49+02:00</time>
      </trkpt>
      <trkpt lat="48.52825" lon="6.26563">
        <ele>238.5</ele>
        <time>2026-05-18T09:33:50+02:00</time>
      </trkpt>
      <trkpt lat="48.52827" lon="6.26562">
        <ele>238.2998</ele>
        <time>2026-05-18T09:33:51+02:00</time>
      </trkpt>
      <trkpt lat="48.52835" lon="6.26557">
        <ele>238.2002</ele>
        <time>2026-05-18T09:33:52+02:00</time>
      </trkpt>
      <trkpt lat="48.52841" lon="6.26554">
        <ele>237.7998</ele>
        <time>2026-05-18T09:33:53+02:00</time>
      </trkpt>
      <trkpt lat="48.52846" lon="6.26551">
        <ele>237.7002</ele>
        <time>2026-05-18T09:33:54+02:00</time>
      </trkpt>
      <trkpt lat="48.52851" lon="6.26549">
        <ele>237.60059</ele>
        <time>2026-05-18T09:33:55+02:00</time>
      </trkpt>
      <trkpt lat="48.52857" lon="6.26546">
        <ele>237.2002</ele>
        <time>2026-05-18T09:33:56+02:00</time>
      </trkpt>
      <trkpt lat="48.52861" lon="6.26543">
        <ele>237.10059</ele>
        <time>2026-05-18T09:33:57+02:00</time>
      </trkpt>
      <trkpt lat="48.52866" lon="6.26541">
        <ele>237</ele>
        <time>2026-05-18T09:33:58+02:00</time>
      </trkpt>
      <trkpt lat="48.52872" lon="6.26538">
        <ele>236.7998</ele>
        <time>2026-05-18T09:33:59+02:00</time>
      </trkpt>
      <trkpt lat="48.52878" lon="6.26535">
        <ele>236.7998</ele>
        <time>2026-05-18T09:34:00+02:00</time>
      </trkpt>
      <trkpt lat="48.52883" lon="6.26532">
        <ele>236.7998</ele>
        <time>2026-05-18T09:34:01+02:00</time>
      </trkpt>
      <trkpt lat="48.52889" lon="6.26529">
        <ele>236.40039</ele>
        <time>2026-05-18T09:34:02+02:00</time>
      </trkpt>
      <trkpt lat="48.52894" lon="6.26526">
        <ele>236.40039</ele>
        <time>2026-05-18T09:34:03+02:00</time>
      </trkpt>
      <trkpt lat="48.529" lon="6.26523">
        <ele>236</ele>
        <time>2026-05-18T09:34:04+02:00</time>
      </trkpt>
      <trkpt lat="48.52905" lon="6.2652">
        <ele>235.60059</ele>
        <time>2026-05-18T09:34:05+02:00</time>
      </trkpt>
      <trkpt lat="48.52908" lon="6.26519">
        <ele>235.40039</ele>
        <time>2026-05-18T09:34:06+02:00</time>
      </trkpt>
      <trkpt lat="48.52916" lon="6.26514">
        <ele>235.40039</ele>
        <time>2026-05-18T09:34:07+02:00</time>
      </trkpt>
      <trkpt lat="48.52922" lon="6.26511">
        <ele>234.7998</ele>
        <time>2026-05-18T09:34:08+02:00</time>
      </trkpt>
      <trkpt lat="48.52928" lon="6.26508">
        <ele>235.10059</ele>
        <time>2026-05-18T09:34:09+02:00</time>
      </trkpt>
      <trkpt lat="48.52933" lon="6.26505">
        <ele>235.10059</ele>
        <time>2026-05-18T09:34:10+02:00</time>
      </trkpt>
      <trkpt lat="48.52939" lon="6.26502">
        <ele>234.7002</ele>
        <time>2026-05-18T09:34:11+02:00</time>
      </trkpt>
      <trkpt lat="48.52944" lon="6.26499">
        <ele>235</ele>
        <time>2026-05-18T09:34:12+02:00</time>
      </trkpt>
      <trkpt lat="48.5295" lon="6.26496">
        <ele>235.2002</ele>
        <time>2026-05-18T09:34:13+02:00</time>
      </trkpt>
      <trkpt lat="48.52955" lon="6.26493">
        <ele>235.10059</ele>
        <time>2026-05-18T09:34:14+02:00</time>
      </trkpt>
      <trkpt lat="48.5296" lon="6.2649">
        <ele>235.40039</ele>
        <time>2026-05-18T09:34:15+02:00</time>
      </trkpt>
      <trkpt lat="48.52966" lon="6.26487">
        <ele>235.7998</ele>
        <time>2026-05-18T09:34:16+02:00</time>
      </trkpt>
      <trkpt lat="48.52971" lon="6.26484">
        <ele>236.2002</ele>
        <time>2026-05-18T09:34:17+02:00</time>
      </trkpt>
      <trkpt lat="48.52976" lon="6.26481">
        <ele>236.60059</ele>
        <time>2026-05-18T09:34:18+02:00</time>
      </trkpt>
      <trkpt lat="48.52981" lon="6.26478">
        <ele>236.7002</ele>
        <time>2026-05-18T09:34:19+02:00</time>
      </trkpt>
      <trkpt lat="48.52984" lon="6.26476">
        <ele>236.7002</ele>
        <time>2026-05-18T09:34:20+02:00</time>
      </trkpt>
      <trkpt lat="48.52992" lon="6.26472">
        <ele>236.90039</ele>
        <time>2026-05-18T09:34:21+02:00</time>
      </trkpt>
      <trkpt lat="48.52997" lon="6.26469">
        <ele>236.7998</ele>
        <time>2026-05-18T09:34:22+02:00</time>
      </trkpt>
      <trkpt lat="48.53003" lon="6.26466">
        <ele>236.7998</ele>
        <time>2026-05-18T09:34:23+02:00</time>
      </trkpt>
      <trkpt lat="48.53008" lon="6.26463">
        <ele>236.90039</ele>
        <time>2026-05-18T09:34:24+02:00</time>
      </trkpt>
      <trkpt lat="48.53014" lon="6.26461">
        <ele>236.60059</ele>
        <time>2026-05-18T09:34:25+02:00</time>
      </trkpt>
      <trkpt lat="48.53019" lon="6.26458">
        <ele>236.60059</ele>
        <time>2026-05-18T09:34:26+02:00</time>
      </trkpt>
      <trkpt lat="48.53024" lon="6.26454">
        <ele>236.7002</ele>
        <time>2026-05-18T09:34:27+02:00</time>
      </trkpt>
      <trkpt lat="48.5303" lon="6.26451">
        <ele>236.40039</ele>
        <time>2026-05-18T09:34:28+02:00</time>
      </trkpt>
      <trkpt lat="48.53035" lon="6.26448">
        <ele>236.2998</ele>
        <time>2026-05-18T09:34:29+02:00</time>
      </trkpt>
      <trkpt lat="48.5304" lon="6.26445">
        <ele>236.40039</ele>
        <time>2026-05-18T09:34:30+02:00</time>
      </trkpt>
      <trkpt lat="48.53045" lon="6.26443">
        <ele>236.2998</ele>
        <time>2026-05-18T09:34:31+02:00</time>
      </trkpt>
      <trkpt lat="48.53049" lon="6.2644">
        <ele>236.5</ele>
        <time>2026-05-18T09:34:32+02:00</time>
      </trkpt>
      <trkpt lat="48.53053" lon="6.26438">
        <ele>236.5</ele>
        <time>2026-05-18T09:34:33+02:00</time>
      </trkpt>
      <trkpt lat="48.53058" lon="6.26435">
        <ele>236.90039</ele>
        <time>2026-05-18T09:34:34+02:00</time>
      </trkpt>
      <trkpt lat="48.53062" lon="6.26433">
        <ele>237.10059</ele>
        <time>2026-05-18T09:34:35+02:00</time>
      </trkpt>
      <trkpt lat="48.53066" lon="6.2643">
        <ele>237.2002</ele>
        <time>2026-05-18T09:34:36+02:00</time>
      </trkpt>
      <trkpt lat="48.53069" lon="6.26429">
        <ele>237.2002</ele>
        <time>2026-05-18T09:34:37+02:00</time>
      </trkpt>
      <trkpt lat="48.53075" lon="6.26426">
        <ele>236.7002</ele>
        <time>2026-05-18T09:34:38+02:00</time>
      </trkpt>
      <trkpt lat="48.5308" lon="6.26424">
        <ele>236.7002</ele>
        <time>2026-05-18T09:34:39+02:00</time>
      </trkpt>
      <trkpt lat="48.53084" lon="6.26421">
        <ele>236.60059</ele>
        <time>2026-05-18T09:34:40+02:00</time>
      </trkpt>
      <trkpt lat="48.53088" lon="6.26418">
        <ele>236.2002</ele>
        <time>2026-05-18T09:34:41+02:00</time>
      </trkpt>
      <trkpt lat="48.53093" lon="6.26416">
        <ele>236.2002</ele>
        <time>2026-05-18T09:34:42+02:00</time>
      </trkpt>
      <trkpt lat="48.53097" lon="6.26413">
        <ele>236.2002</ele>
        <time>2026-05-18T09:34:43+02:00</time>
      </trkpt>
      <trkpt lat="48.53101" lon="6.26411">
        <ele>236.2002</ele>
        <time>2026-05-18T09:34:44+02:00</time>
      </trkpt>
      <trkpt lat="48.53106" lon="6.26408">
        <ele>235.90039</ele>
        <time>2026-05-18T09:34:45+02:00</time>
      </trkpt>
      <trkpt lat="48.53111" lon="6.26406">
        <ele>236</ele>
        <time>2026-05-18T09:34:46+02:00</time>
      </trkpt>
      <trkpt lat="48.53115" lon="6.26403">
        <ele>236</ele>
        <time>2026-05-18T09:34:47+02:00</time>
      </trkpt>
      <trkpt lat="48.5312" lon="6.264">
        <ele>236.5</ele>
        <time>2026-05-18T09:34:48+02:00</time>
      </trkpt>
      <trkpt lat="48.53125" lon="6.26398">
        <ele>237</ele>
        <time>2026-05-18T09:34:49+02:00</time>
      </trkpt>
      <trkpt lat="48.53129" lon="6.26396">
        <ele>237.40039</ele>
        <time>2026-05-18T09:34:50+02:00</time>
      </trkpt>
      <trkpt lat="48.53134" lon="6.26393">
        <ele>237.40039</ele>
        <time>2026-05-18T09:34:51+02:00</time>
      </trkpt>
      <trkpt lat="48.53139" lon="6.26391">
        <ele>236.7998</ele>
        <time>2026-05-18T09:34:52+02:00</time>
      </trkpt>
      <trkpt lat="48.53143" lon="6.26389">
        <ele>236.7998</ele>
        <time>2026-05-18T09:34:53+02:00</time>
      </trkpt>
      <trkpt lat="48.53148" lon="6.26386">
        <ele>236.60059</ele>
        <time>2026-05-18T09:34:54+02:00</time>
      </trkpt>
      <trkpt lat="48.5315" lon="6.26385">
        <ele>236.40039</ele>
        <time>2026-05-18T09:34:55+02:00</time>
      </trkpt>
      <trkpt lat="48.53157" lon="6.26381">
        <ele>235.90039</ele>
        <time>2026-05-18T09:34:56+02:00</time>
      </trkpt>
      <trkpt lat="48.53162" lon="6.26379">
        <ele>236</ele>
        <time>2026-05-18T09:34:57+02:00</time>
      </trkpt>
      <trkpt lat="48.53167" lon="6.26377">
        <ele>236</ele>
        <time>2026-05-18T09:34:58+02:00</time>
      </trkpt>
      <trkpt lat="48.53172" lon="6.26374">
        <ele>235.7002</ele>
        <time>2026-05-18T09:34:59+02:00</time>
      </trkpt>
      <trkpt lat="48.53176" lon="6.26372">
        <ele>235.7002</ele>
        <time>2026-05-18T09:35:00+02:00</time>
      </trkpt>
      <trkpt lat="48.53181" lon="6.26369">
        <ele>235.7002</ele>
        <time>2026-05-18T09:35:01+02:00</time>
      </trkpt>
      <trkpt lat="48.53186" lon="6.26366">
        <ele>235.60059</ele>
        <time>2026-05-18T09:35:02+02:00</time>
      </trkpt>
      <trkpt lat="48.53191" lon="6.26364">
        <ele>235.7002</ele>
        <time>2026-05-18T09:35:03+02:00</time>
      </trkpt>
      <trkpt lat="48.53195" lon="6.26361">
        <ele>235.7002</ele>
        <time>2026-05-18T09:35:04+02:00</time>
      </trkpt>
      <trkpt lat="48.53197" lon="6.2636">
        <ele>235.7002</ele>
        <time>2026-05-18T09:35:05+02:00</time>
      </trkpt>
      <trkpt lat="48.53204" lon="6.26356">
        <ele>235.7002</ele>
        <time>2026-05-18T09:35:06+02:00</time>
      </trkpt>
      <trkpt lat="48.53209" lon="6.26353">
        <ele>235.60059</ele>
        <time>2026-05-18T09:35:07+02:00</time>
      </trkpt>
      <trkpt lat="48.53214" lon="6.26351">
        <ele>235.60059</ele>
        <time>2026-05-18T09:35:08+02:00</time>
      </trkpt>
      <trkpt lat="48.53218" lon="6.26348">
        <ele>235.2998</ele>
        <time>2026-05-18T09:35:09+02:00</time>
      </trkpt>
      <trkpt lat="48.53221" lon="6.26346">
        <ele>235.2998</ele>
        <time>2026-05-18T09:35:10+02:00</time>
      </trkpt>
      <trkpt lat="48.53225" lon="6.26343">
        <ele>235.2998</ele>
        <time>2026-05-18T09:35:11+02:00</time>
      </trkpt>
      <trkpt lat="48.53229" lon="6.26339">
        <ele>235.2002</ele>
        <time>2026-05-18T09:35:12+02:00</time>
      </trkpt>
      <trkpt lat="48.53233" lon="6.26336">
        <ele>235.2002</ele>
        <time>2026-05-18T09:35:13+02:00</time>
      </trkpt>
      <trkpt lat="48.53236" lon="6.26334">
        <ele>235.2998</ele>
        <time>2026-05-18T09:35:14+02:00</time>
      </trkpt>
      <trkpt lat="48.5324" lon="6.26331">
        <ele>235.40039</ele>
        <time>2026-05-18T09:35:15+02:00</time>
      </trkpt>
      <trkpt lat="48.53244" lon="6.26327">
        <ele>235.40039</ele>
        <time>2026-05-18T09:35:16+02:00</time>
      </trkpt>
      <trkpt lat="48.53248" lon="6.26325">
        <ele>235.10059</ele>
        <time>2026-05-18T09:35:17+02:00</time>
      </trkpt>
      <trkpt lat="48.53251" lon="6.26322">
        <ele>235.2002</ele>
        <time>2026-05-18T09:35:18+02:00</time>
      </trkpt>
      <trkpt lat="48.53254" lon="6.26319">
        <ele>235</ele>
        <time>2026-05-18T09:35:19+02:00</time>
      </trkpt>
      <trkpt lat="48.53258" lon="6.26316">
        <ele>234.7002</ele>
        <time>2026-05-18T09:35:20+02:00</time>
      </trkpt>
      <trkpt lat="48.53262" lon="6.26313">
        <ele>234.7002</ele>
        <time>2026-05-18T09:35:21+02:00</time>
      </trkpt>
      <trkpt lat="48.53266" lon="6.26309">
        <ele>234.5</ele>
        <time>2026-05-18T09:35:22+02:00</time>
      </trkpt>
      <trkpt lat="48.53269" lon="6.26305">
        <ele>234.5</ele>
        <time>2026-05-18T09:35:23+02:00</time>
      </trkpt>
      <trkpt lat="48.53273" lon="6.26301">
        <ele>234.40039</ele>
        <time>2026-05-18T09:35:24+02:00</time>
      </trkpt>
      <trkpt lat="48.53277" lon="6.26297">
        <ele>234.60059</ele>
        <time>2026-05-18T09:35:25+02:00</time>
      </trkpt>
      <trkpt lat="48.53281" lon="6.26292">
        <ele>234.60059</ele>
        <time>2026-05-18T09:35:26+02:00</time>
      </trkpt>
      <trkpt lat="48.53285" lon="6.26287">
        <ele>234.7998</ele>
        <time>2026-05-18T09:35:27+02:00</time>
      </trkpt>
      <trkpt lat="48.53289" lon="6.26283">
        <ele>234.7002</ele>
        <time>2026-05-18T09:35:28+02:00</time>
      </trkpt>
      <trkpt lat="48.53294" lon="6.26278">
        <ele>234.2998</ele>
        <time>2026-05-18T09:35:29+02:00</time>
      </trkpt>
      <trkpt lat="48.53298" lon="6.26273">
        <ele>234</ele>
        <time>2026-05-18T09:35:30+02:00</time>
      </trkpt>
      <trkpt lat="48.53303" lon="6.26267">
        <ele>234.2002</ele>
        <time>2026-05-18T09:35:31+02:00</time>
      </trkpt>
      <trkpt lat="48.53308" lon="6.26262">
        <ele>234.40039</ele>
        <time>2026-05-18T09:35:32+02:00</time>
      </trkpt>
      <trkpt lat="48.53313" lon="6.26256">
        <ele>234.2002</ele>
        <time>2026-05-18T09:35:33+02:00</time>
      </trkpt>
      <trkpt lat="48.53318" lon="6.2625">
        <ele>234.10059</ele>
        <time>2026-05-18T09:35:34+02:00</time>
      </trkpt>
      <trkpt lat="48.53322" lon="6.26245">
        <ele>233.7998</ele>
        <time>2026-05-18T09:35:35+02:00</time>
      </trkpt>
      <trkpt lat="48.53327" lon="6.2624">
        <ele>233.60059</ele>
        <time>2026-05-18T09:35:36+02:00</time>
      </trkpt>
      <trkpt lat="48.53331" lon="6.26235">
        <ele>233.40039</ele>
        <time>2026-05-18T09:35:37+02:00</time>
      </trkpt>
      <trkpt lat="48.53336" lon="6.2623">
        <ele>233.60059</ele>
        <time>2026-05-18T09:35:38+02:00</time>
      </trkpt>
      <trkpt lat="48.5334" lon="6.26226">
        <ele>234.10059</ele>
        <time>2026-05-18T09:35:39+02:00</time>
      </trkpt>
      <trkpt lat="48.53342" lon="6.26223">
        <ele>234.10059</ele>
        <time>2026-05-18T09:35:40+02:00</time>
      </trkpt>
      <trkpt lat="48.53347" lon="6.26217">
        <ele>234.90039</ele>
        <time>2026-05-18T09:35:41+02:00</time>
      </trkpt>
      <trkpt lat="48.53351" lon="6.26212">
        <ele>235.2002</ele>
        <time>2026-05-18T09:35:42+02:00</time>
      </trkpt>
      <trkpt lat="48.53355" lon="6.26208">
        <ele>235.10059</ele>
        <time>2026-05-18T09:35:43+02:00</time>
      </trkpt>
      <trkpt lat="48.53359" lon="6.26204">
        <ele>235.10059</ele>
        <time>2026-05-18T09:35:44+02:00</time>
      </trkpt>
      <trkpt lat="48.53362" lon="6.262">
        <ele>234.5</ele>
        <time>2026-05-18T09:35:45+02:00</time>
      </trkpt>
      <trkpt lat="48.53366" lon="6.26196">
        <ele>234.5</ele>
        <time>2026-05-18T09:35:46+02:00</time>
      </trkpt>
      <trkpt lat="48.53368" lon="6.26194">
        <ele>233.7998</ele>
        <time>2026-05-18T09:35:47+02:00</time>
      </trkpt>
      <trkpt lat="48.53374" lon="6.26188">
        <ele>233.90039</ele>
        <time>2026-05-18T09:35:48+02:00</time>
      </trkpt>
      <trkpt lat="48.53378" lon="6.26183">
        <ele>234.10059</ele>
        <time>2026-05-18T09:35:49+02:00</time>
      </trkpt>
      <trkpt lat="48.53382" lon="6.26179">
        <ele>234.10059</ele>
        <time>2026-05-18T09:35:50+02:00</time>
      </trkpt>
      <trkpt lat="48.53386" lon="6.26174">
        <ele>234.90039</ele>
        <time>2026-05-18T09:35:51+02:00</time>
      </trkpt>
      <trkpt lat="48.5339" lon="6.26169">
        <ele>235</ele>
        <time>2026-05-18T09:35:52+02:00</time>
      </trkpt>
      <trkpt lat="48.53394" lon="6.26164">
        <ele>235</ele>
        <time>2026-05-18T09:35:53+02:00</time>
      </trkpt>
      <trkpt lat="48.53398" lon="6.2616">
        <ele>234.10059</ele>
        <time>2026-05-18T09:35:54+02:00</time>
      </trkpt>
      <trkpt lat="48.53403" lon="6.26155">
        <ele>234.10059</ele>
        <time>2026-05-18T09:35:55+02:00</time>
      </trkpt>
      <trkpt lat="48.53407" lon="6.2615">
        <ele>233.60059</ele>
        <time>2026-05-18T09:35:56+02:00</time>
      </trkpt>
      <trkpt lat="48.53413" lon="6.26144">
        <ele>233.7998</ele>
        <time>2026-05-18T09:35:57+02:00</time>
      </trkpt>
      <trkpt lat="48.53418" lon="6.26138">
        <ele>234</ele>
        <time>2026-05-18T09:35:58+02:00</time>
      </trkpt>
      <trkpt lat="48.53423" lon="6.26133">
        <ele>234.2002</ele>
        <time>2026-05-18T09:35:59+02:00</time>
      </trkpt>
      <trkpt lat="48.53427" lon="6.26129">
        <ele>234.2002</ele>
        <time>2026-05-18T09:36:00+02:00</time>
      </trkpt>
      <trkpt lat="48.53432" lon="6.26124">
        <ele>234.10059</ele>
        <time>2026-05-18T09:36:01+02:00</time>
      </trkpt>
      <trkpt lat="48.53436" lon="6.26119">
        <ele>234.60059</ele>
        <time>2026-05-18T09:36:02+02:00</time>
      </trkpt>
      <trkpt lat="48.53441" lon="6.26114">
        <ele>234.5</ele>
        <time>2026-05-18T09:36:03+02:00</time>
      </trkpt>
      <trkpt lat="48.53446" lon="6.2611">
        <ele>235.2998</ele>
        <time>2026-05-18T09:36:04+02:00</time>
      </trkpt>
      <trkpt lat="48.53451" lon="6.26104">
        <ele>235.90039</ele>
        <time>2026-05-18T09:36:05+02:00</time>
      </trkpt>
      <trkpt lat="48.53455" lon="6.26099">
        <ele>235.7998</ele>
        <time>2026-05-18T09:36:06+02:00</time>
      </trkpt>
      <trkpt lat="48.5346" lon="6.26094">
        <ele>236.10059</ele>
        <time>2026-05-18T09:36:07+02:00</time>
      </trkpt>
      <trkpt lat="48.53465" lon="6.26089">
        <ele>235.10059</ele>
        <time>2026-05-18T09:36:08+02:00</time>
      </trkpt>
      <trkpt lat="48.5347" lon="6.26084">
        <ele>235.2002</ele>
        <time>2026-05-18T09:36:09+02:00</time>
      </trkpt>
      <trkpt lat="48.53474" lon="6.26079">
        <ele>234.10059</ele>
        <time>2026-05-18T09:36:10+02:00</time>
      </trkpt>
      <trkpt lat="48.53479" lon="6.26074">
        <ele>233.40039</ele>
        <time>2026-05-18T09:36:11+02:00</time>
      </trkpt>
      <trkpt lat="48.53484" lon="6.26069">
        <ele>233.7998</ele>
        <time>2026-05-18T09:36:12+02:00</time>
      </trkpt>
      <trkpt lat="48.53489" lon="6.26064">
        <ele>234.7998</ele>
        <time>2026-05-18T09:36:13+02:00</time>
      </trkpt>
      <trkpt lat="48.53493" lon="6.2606">
        <ele>235.40039</ele>
        <time>2026-05-18T09:36:14+02:00</time>
      </trkpt>
      <trkpt lat="48.53498" lon="6.26056">
        <ele>235.40039</ele>
        <time>2026-05-18T09:36:15+02:00</time>
      </trkpt>
      <trkpt lat="48.53502" lon="6.26052">
        <ele>235.40039</ele>
        <time>2026-05-18T09:36:16+02:00</time>
      </trkpt>
      <trkpt lat="48.53507" lon="6.26048">
        <ele>234.2998</ele>
        <time>2026-05-18T09:36:17+02:00</time>
      </trkpt>
      <trkpt lat="48.53511" lon="6.26043">
        <ele>234.2998</ele>
        <time>2026-05-18T09:36:18+02:00</time>
      </trkpt>
      <trkpt lat="48.53515" lon="6.26039">
        <ele>233.5</ele>
        <time>2026-05-18T09:36:19+02:00</time>
      </trkpt>
      <trkpt lat="48.5352" lon="6.26034">
        <ele>233.7998</ele>
        <time>2026-05-18T09:36:20+02:00</time>
      </trkpt>
      <trkpt lat="48.53524" lon="6.26029">
        <ele>233.40039</ele>
        <time>2026-05-18T09:36:21+02:00</time>
      </trkpt>
      <trkpt lat="48.53529" lon="6.26023">
        <ele>233.40039</ele>
        <time>2026-05-18T09:36:22+02:00</time>
      </trkpt>
      <trkpt lat="48.53533" lon="6.26019">
        <ele>234</ele>
        <time>2026-05-18T09:36:23+02:00</time>
      </trkpt>
      <trkpt lat="48.53536" lon="6.26015">
        <ele>234</ele>
        <time>2026-05-18T09:36:24+02:00</time>
      </trkpt>
      <trkpt lat="48.5354" lon="6.26011">
        <ele>233.7998</ele>
        <time>2026-05-18T09:36:25+02:00</time>
      </trkpt>
      <trkpt lat="48.53544" lon="6.26007">
        <ele>234.40039</ele>
        <time>2026-05-18T09:36:26+02:00</time>
      </trkpt>
      <trkpt lat="48.53548" lon="6.26002">
        <ele>234.2998</ele>
        <time>2026-05-18T09:36:27+02:00</time>
      </trkpt>
      <trkpt lat="48.53552" lon="6.25999">
        <ele>234.2998</ele>
        <time>2026-05-18T09:36:28+02:00</time>
      </trkpt>
      <trkpt lat="48.53556" lon="6.25994">
        <ele>235</ele>
        <time>2026-05-18T09:36:29+02:00</time>
      </trkpt>
      <trkpt lat="48.53561" lon="6.2599">
        <ele>235.7998</ele>
        <time>2026-05-18T09:36:30+02:00</time>
      </trkpt>
      <trkpt lat="48.53565" lon="6.25985">
        <ele>236</ele>
        <time>2026-05-18T09:36:31+02:00</time>
      </trkpt>
      <trkpt lat="48.5357" lon="6.2598">
        <ele>234.90039</ele>
        <time>2026-05-18T09:36:32+02:00</time>
      </trkpt>
      <trkpt lat="48.53575" lon="6.25976">
        <ele>234.90039</ele>
        <time>2026-05-18T09:36:33+02:00</time>
      </trkpt>
      <trkpt lat="48.53579" lon="6.25971">
        <ele>233.90039</ele>
        <time>2026-05-18T09:36:34+02:00</time>
      </trkpt>
      <trkpt lat="48.53583" lon="6.25966">
        <ele>234.10059</ele>
        <time>2026-05-18T09:36:35+02:00</time>
      </trkpt>
      <trkpt lat="48.53588" lon="6.25961">
        <ele>233.7002</ele>
        <time>2026-05-18T09:36:36+02:00</time>
      </trkpt>
      <trkpt lat="48.53592" lon="6.25957">
        <ele>233.7002</ele>
        <time>2026-05-18T09:36:37+02:00</time>
      </trkpt>
      <trkpt lat="48.53597" lon="6.25952">
        <ele>233.7998</ele>
        <time>2026-05-18T09:36:38+02:00</time>
      </trkpt>
      <trkpt lat="48.53602" lon="6.25948">
        <ele>234.5</ele>
        <time>2026-05-18T09:36:39+02:00</time>
      </trkpt>
      <trkpt lat="48.53607" lon="6.25943">
        <ele>234.5</ele>
        <time>2026-05-18T09:36:40+02:00</time>
      </trkpt>
      <trkpt lat="48.53611" lon="6.25939">
        <ele>234.90039</ele>
        <time>2026-05-18T09:36:41+02:00</time>
      </trkpt>
      <trkpt lat="48.53616" lon="6.25934">
        <ele>234.90039</ele>
        <time>2026-05-18T09:36:42+02:00</time>
      </trkpt>
      <trkpt lat="48.5362" lon="6.2593">
        <ele>234.90039</ele>
        <time>2026-05-18T09:36:43+02:00</time>
      </trkpt>
      <trkpt lat="48.53624" lon="6.25925">
        <ele>235.40039</ele>
        <time>2026-05-18T09:36:44+02:00</time>
      </trkpt>
      <trkpt lat="48.53628" lon="6.25921">
        <ele>236.10059</ele>
        <time>2026-05-18T09:36:45+02:00</time>
      </trkpt>
      <trkpt lat="48.53632" lon="6.25917">
        <ele>235.90039</ele>
        <time>2026-05-18T09:36:46+02:00</time>
      </trkpt>
      <trkpt lat="48.53636" lon="6.25912">
        <ele>236.2002</ele>
        <time>2026-05-18T09:36:47+02:00</time>
      </trkpt>
      <trkpt lat="48.5364" lon="6.25907">
        <ele>235.5</ele>
        <time>2026-05-18T09:36:48+02:00</time>
      </trkpt>
      <trkpt lat="48.53657" lon="6.25888">
        <ele>234.2998</ele>
        <time>2026-05-18T09:36:49+02:00</time>
      </trkpt>
      <trkpt lat="48.53661" lon="6.25882">
        <ele>233.7998</ele>
        <time>2026-05-18T09:36:50+02:00</time>
      </trkpt>
      <trkpt lat="48.53665" lon="6.25877">
        <ele>234</ele>
        <time>2026-05-18T09:36:51+02:00</time>
      </trkpt>
      <trkpt lat="48.5367" lon="6.25871">
        <ele>234.7002</ele>
        <time>2026-05-18T09:36:52+02:00</time>
      </trkpt>
      <trkpt lat="48.53674" lon="6.25866">
        <ele>234.40039</ele>
        <time>2026-05-18T09:36:53+02:00</time>
      </trkpt>
      <trkpt lat="48.53678" lon="6.2586">
        <ele>233.60059</ele>
        <time>2026-05-18T09:36:54+02:00</time>
      </trkpt>
      <trkpt lat="48.53682" lon="6.25854">
        <ele>234.40039</ele>
        <time>2026-05-18T09:36:55+02:00</time>
      </trkpt>
      <trkpt lat="48.53686" lon="6.25848">
        <ele>235.10059</ele>
        <time>2026-05-18T09:36:56+02:00</time>
      </trkpt>
      <trkpt lat="48.5369" lon="6.25843">
        <ele>235.60059</ele>
        <time>2026-05-18T09:36:57+02:00</time>
      </trkpt>
      <trkpt lat="48.53694" lon="6.25837">
        <ele>235.60059</ele>
        <time>2026-05-18T09:36:58+02:00</time>
      </trkpt>
      <trkpt lat="48.53697" lon="6.25831">
        <ele>234.7998</ele>
        <time>2026-05-18T09:36:59+02:00</time>
      </trkpt>
      <trkpt lat="48.537" lon="6.25826">
        <ele>234.7998</ele>
        <time>2026-05-18T09:37:00+02:00</time>
      </trkpt>
      <trkpt lat="48.53704" lon="6.2582">
        <ele>233.7002</ele>
        <time>2026-05-18T09:37:01+02:00</time>
      </trkpt>
      <trkpt lat="48.53708" lon="6.25814">
        <ele>233.2002</ele>
        <time>2026-05-18T09:37:02+02:00</time>
      </trkpt>
      <trkpt lat="48.53711" lon="6.25809">
        <ele>233.2002</ele>
        <time>2026-05-18T09:37:03+02:00</time>
      </trkpt>
      <trkpt lat="48.53715" lon="6.25803">
        <ele>233.2002</ele>
        <time>2026-05-18T09:37:04+02:00</time>
      </trkpt>
      <trkpt lat="48.53719" lon="6.25797">
        <ele>233.10059</ele>
        <time>2026-05-18T09:37:05+02:00</time>
      </trkpt>
      <trkpt lat="48.53721" lon="6.25794">
        <ele>233.10059</ele>
        <time>2026-05-18T09:37:06+02:00</time>
      </trkpt>
      <trkpt lat="48.53726" lon="6.25784">
        <ele>232.7998</ele>
        <time>2026-05-18T09:37:07+02:00</time>
      </trkpt>
      <trkpt lat="48.53729" lon="6.25779">
        <ele>233.10059</ele>
        <time>2026-05-18T09:37:08+02:00</time>
      </trkpt>
      <trkpt lat="48.53732" lon="6.25773">
        <ele>233.2998</ele>
        <time>2026-05-18T09:37:09+02:00</time>
      </trkpt>
      <trkpt lat="48.53735" lon="6.25767">
        <ele>233.2998</ele>
        <time>2026-05-18T09:37:10+02:00</time>
      </trkpt>
      <trkpt lat="48.53739" lon="6.25761">
        <ele>233.2002</ele>
        <time>2026-05-18T09:37:11+02:00</time>
      </trkpt>
      <trkpt lat="48.53742" lon="6.25754">
        <ele>233.10059</ele>
        <time>2026-05-18T09:37:12+02:00</time>
      </trkpt>
      <trkpt lat="48.53745" lon="6.25747">
        <ele>233.10059</ele>
        <time>2026-05-18T09:37:13+02:00</time>
      </trkpt>
      <trkpt lat="48.53748" lon="6.25739">
        <ele>233.2002</ele>
        <time>2026-05-18T09:37:14+02:00</time>
      </trkpt>
      <trkpt lat="48.53752" lon="6.25733">
        <ele>233.2002</ele>
        <time>2026-05-18T09:37:15+02:00</time>
      </trkpt>
      <trkpt lat="48.53755" lon="6.25727">
        <ele>233.40039</ele>
        <time>2026-05-18T09:37:16+02:00</time>
      </trkpt>
      <trkpt lat="48.53759" lon="6.25721">
        <ele>233.2998</ele>
        <time>2026-05-18T09:37:17+02:00</time>
      </trkpt>
      <trkpt lat="48.53763" lon="6.25716">
        <ele>233.2998</ele>
        <time>2026-05-18T09:37:18+02:00</time>
      </trkpt>
      <trkpt lat="48.53768" lon="6.25711">
        <ele>233.2002</ele>
        <time>2026-05-18T09:37:19+02:00</time>
      </trkpt>
      <trkpt lat="48.53771" lon="6.25708">
        <ele>233.7998</ele>
        <time>2026-05-18T09:37:20+02:00</time>
      </trkpt>
      <trkpt lat="48.53774" lon="6.25706">
        <ele>233.7998</ele>
        <time>2026-05-18T09:37:21+02:00</time>
      </trkpt>
      <trkpt lat="48.53778" lon="6.25704">
        <ele>234.7998</ele>
        <time>2026-05-18T09:37:22+02:00</time>
      </trkpt>
      <trkpt lat="48.53781" lon="6.257">
        <ele>235.2002</ele>
        <time>2026-05-18T09:37:23+02:00</time>
      </trkpt>
      <trkpt lat="48.53784" lon="6.25695">
        <ele>234.7998</ele>
        <time>2026-05-18T09:37:24+02:00</time>
      </trkpt>
      <trkpt lat="48.53786" lon="6.25687">
        <ele>234.2002</ele>
        <time>2026-05-18T09:37:25+02:00</time>
      </trkpt>
      <trkpt lat="48.5379" lon="6.2568">
        <ele>234.40039</ele>
        <time>2026-05-18T09:37:26+02:00</time>
      </trkpt>
      <trkpt lat="48.53793" lon="6.25673">
        <ele>234.2002</ele>
        <time>2026-05-18T09:37:27+02:00</time>
      </trkpt>
      <trkpt lat="48.53798" lon="6.25665">
        <ele>234.5</ele>
        <time>2026-05-18T09:37:28+02:00</time>
      </trkpt>
      <trkpt lat="48.53801" lon="6.25657">
        <ele>234.2002</ele>
        <time>2026-05-18T09:37:29+02:00</time>
      </trkpt>
      <trkpt lat="48.53805" lon="6.25649">
        <ele>234.10059</ele>
        <time>2026-05-18T09:37:30+02:00</time>
      </trkpt>
      <trkpt lat="48.53809" lon="6.25642">
        <ele>233.7998</ele>
        <time>2026-05-18T09:37:31+02:00</time>
      </trkpt>
      <trkpt lat="48.53813" lon="6.25635">
        <ele>233.7998</ele>
        <time>2026-05-18T09:37:32+02:00</time>
      </trkpt>
      <trkpt lat="48.53817" lon="6.25629">
        <ele>234.10059</ele>
        <time>2026-05-18T09:37:33+02:00</time>
      </trkpt>
      <trkpt lat="48.53819" lon="6.25626">
        <ele>233.90039</ele>
        <time>2026-05-18T09:37:34+02:00</time>
      </trkpt>
      <trkpt lat="48.53824" lon="6.25616">
        <ele>233.90039</ele>
        <time>2026-05-18T09:37:35+02:00</time>
      </trkpt>
      <trkpt lat="48.53828" lon="6.25608">
        <ele>233.7998</ele>
        <time>2026-05-18T09:37:36+02:00</time>
      </trkpt>
      <trkpt lat="48.53831" lon="6.25601">
        <ele>233.60059</ele>
        <time>2026-05-18T09:37:37+02:00</time>
      </trkpt>
      <trkpt lat="48.53834" lon="6.25593">
        <ele>233.7002</ele>
        <time>2026-05-18T09:37:38+02:00</time>
      </trkpt>
      <trkpt lat="48.53837" lon="6.25585">
        <ele>233.5</ele>
        <time>2026-05-18T09:37:39+02:00</time>
      </trkpt>
      <trkpt lat="48.5384" lon="6.25578">
        <ele>233.7002</ele>
        <time>2026-05-18T09:37:40+02:00</time>
      </trkpt>
      <trkpt lat="48.53844" lon="6.2557">
        <ele>233.60059</ele>
        <time>2026-05-18T09:37:41+02:00</time>
      </trkpt>
      <trkpt lat="48.53847" lon="6.25563">
        <ele>233.60059</ele>
        <time>2026-05-18T09:37:42+02:00</time>
      </trkpt>
      <trkpt lat="48.5385" lon="6.25555">
        <ele>233.60059</ele>
        <time>2026-05-18T09:37:43+02:00</time>
      </trkpt>
      <trkpt lat="48.53853" lon="6.25547">
        <ele>233.60059</ele>
        <time>2026-05-18T09:37:44+02:00</time>
      </trkpt>
      <trkpt lat="48.53856" lon="6.2554">
        <ele>233.7002</ele>
        <time>2026-05-18T09:37:45+02:00</time>
      </trkpt>
      <trkpt lat="48.53859" lon="6.25533">
        <ele>233.7002</ele>
        <time>2026-05-18T09:37:46+02:00</time>
      </trkpt>
      <trkpt lat="48.53862" lon="6.25526">
        <ele>233.90039</ele>
        <time>2026-05-18T09:37:47+02:00</time>
      </trkpt>
      <trkpt lat="48.53864" lon="6.25519">
        <ele>233.7998</ele>
        <time>2026-05-18T09:37:48+02:00</time>
      </trkpt>
      <trkpt lat="48.53867" lon="6.25512">
        <ele>233.7998</ele>
        <time>2026-05-18T09:37:49+02:00</time>
      </trkpt>
      <trkpt lat="48.5387" lon="6.25504">
        <ele>233.7002</ele>
        <time>2026-05-18T09:37:50+02:00</time>
      </trkpt>
      <trkpt lat="48.53873" lon="6.25496">
        <ele>233.7998</ele>
        <time>2026-05-18T09:37:51+02:00</time>
      </trkpt>
      <trkpt lat="48.53875" lon="6.25488">
        <ele>233.7002</ele>
        <time>2026-05-18T09:37:52+02:00</time>
      </trkpt>
      <trkpt lat="48.53878" lon="6.2548">
        <ele>233.7002</ele>
        <time>2026-05-18T09:37:53+02:00</time>
      </trkpt>
      <trkpt lat="48.53879" lon="6.25477">
        <ele>233.7002</ele>
        <time>2026-05-18T09:37:54+02:00</time>
      </trkpt>
      <trkpt lat="48.53883" lon="6.25465">
        <ele>233.5</ele>
        <time>2026-05-18T09:37:55+02:00</time>
      </trkpt>
      <trkpt lat="48.53885" lon="6.25457">
        <ele>233.5</ele>
        <time>2026-05-18T09:37:56+02:00</time>
      </trkpt>
      <trkpt lat="48.53888" lon="6.25449">
        <ele>233.5</ele>
        <time>2026-05-18T09:37:57+02:00</time>
      </trkpt>
      <trkpt lat="48.5389" lon="6.25441">
        <ele>233.5</ele>
        <time>2026-05-18T09:37:58+02:00</time>
      </trkpt>
      <trkpt lat="48.53892" lon="6.25433">
        <ele>233.40039</ele>
        <time>2026-05-18T09:37:59+02:00</time>
      </trkpt>
      <trkpt lat="48.53895" lon="6.25425">
        <ele>233.5</ele>
        <time>2026-05-18T09:38:00+02:00</time>
      </trkpt>
      <trkpt lat="48.53896" lon="6.25418">
        <ele>233.60059</ele>
        <time>2026-05-18T09:38:01+02:00</time>
      </trkpt>
      <trkpt lat="48.53898" lon="6.2541">
        <ele>233.7002</ele>
        <time>2026-05-18T09:38:02+02:00</time>
      </trkpt>
      <trkpt lat="48.539" lon="6.25403">
        <ele>233.7002</ele>
        <time>2026-05-18T09:38:03+02:00</time>
      </trkpt>
      <trkpt lat="48.53902" lon="6.25395">
        <ele>233.7002</ele>
        <time>2026-05-18T09:38:04+02:00</time>
      </trkpt>
      <trkpt lat="48.53904" lon="6.25388">
        <ele>233.7002</ele>
        <time>2026-05-18T09:38:05+02:00</time>
      </trkpt>
      <trkpt lat="48.53906" lon="6.2538">
        <ele>233.5</ele>
        <time>2026-05-18T09:38:06+02:00</time>
      </trkpt>
      <trkpt lat="48.53907" lon="6.25377">
        <ele>233.40039</ele>
        <time>2026-05-18T09:38:07+02:00</time>
      </trkpt>
      <trkpt lat="48.53909" lon="6.25367">
        <ele>233.40039</ele>
        <time>2026-05-18T09:38:08+02:00</time>
      </trkpt>
      <trkpt lat="48.53911" lon="6.2536">
        <ele>233.5</ele>
        <time>2026-05-18T09:38:09+02:00</time>
      </trkpt>
      <trkpt lat="48.53912" lon="6.25353">
        <ele>233.7998</ele>
        <time>2026-05-18T09:38:10+02:00</time>
      </trkpt>
      <trkpt lat="48.53912" lon="6.25346">
        <ele>233.7998</ele>
        <time>2026-05-18T09:38:11+02:00</time>
      </trkpt>
      <trkpt lat="48.53912" lon="6.25339">
        <ele>234.10059</ele>
        <time>2026-05-18T09:38:12+02:00</time>
      </trkpt>
      <trkpt lat="48.53914" lon="6.25332">
        <ele>234.2998</ele>
        <time>2026-05-18T09:38:13+02:00</time>
      </trkpt>
      <trkpt lat="48.53915" lon="6.25324">
        <ele>234.60059</ele>
        <time>2026-05-18T09:38:14+02:00</time>
      </trkpt>
      <trkpt lat="48.53917" lon="6.25316">
        <ele>234.60059</ele>
        <time>2026-05-18T09:38:15+02:00</time>
      </trkpt>
      <trkpt lat="48.53919" lon="6.25308">
        <ele>234</ele>
        <time>2026-05-18T09:38:16+02:00</time>
      </trkpt>
      <trkpt lat="48.5392" lon="6.253">
        <ele>234</ele>
        <time>2026-05-18T09:38:17+02:00</time>
      </trkpt>
      <trkpt lat="48.53922" lon="6.25291">
        <ele>234</ele>
        <time>2026-05-18T09:38:18+02:00</time>
      </trkpt>
      <trkpt lat="48.53924" lon="6.25283">
        <ele>233.60059</ele>
        <time>2026-05-18T09:38:19+02:00</time>
      </trkpt>
      <trkpt lat="48.53925" lon="6.25275">
        <ele>233.5</ele>
        <time>2026-05-18T09:38:20+02:00</time>
      </trkpt>
      <trkpt lat="48.53926" lon="6.25267">
        <ele>233.5</ele>
        <time>2026-05-18T09:38:21+02:00</time>
      </trkpt>
      <trkpt lat="48.53928" lon="6.25259">
        <ele>233.60059</ele>
        <time>2026-05-18T09:38:22+02:00</time>
      </trkpt>
      <trkpt lat="48.53929" lon="6.25251">
        <ele>233.2998</ele>
        <time>2026-05-18T09:38:23+02:00</time>
      </trkpt>
      <trkpt lat="48.5393" lon="6.25242">
        <ele>233.7002</ele>
        <time>2026-05-18T09:38:24+02:00</time>
      </trkpt>
      <trkpt lat="48.53932" lon="6.25234">
        <ele>233.7002</ele>
        <time>2026-05-18T09:38:25+02:00</time>
      </trkpt>
      <trkpt lat="48.53933" lon="6.25226">
        <ele>234.2002</ele>
        <time>2026-05-18T09:38:26+02:00</time>
      </trkpt>
      <trkpt lat="48.53935" lon="6.25219">
        <ele>234</ele>
        <time>2026-05-18T09:38:27+02:00</time>
      </trkpt>
      <trkpt lat="48.53936" lon="6.25211">
        <ele>234.10059</ele>
        <time>2026-05-18T09:38:28+02:00</time>
      </trkpt>
      <trkpt lat="48.53937" lon="6.25203">
        <ele>234.10059</ele>
        <time>2026-05-18T09:38:29+02:00</time>
      </trkpt>
      <trkpt lat="48.53939" lon="6.25194">
        <ele>234.10059</ele>
        <time>2026-05-18T09:38:30+02:00</time>
      </trkpt>
      <trkpt lat="48.5394" lon="6.25186">
        <ele>233.7002</ele>
        <time>2026-05-18T09:38:31+02:00</time>
      </trkpt>
      <trkpt lat="48.53941" lon="6.25178">
        <ele>233.7002</ele>
        <time>2026-05-18T09:38:32+02:00</time>
      </trkpt>
      <trkpt lat="48.53943" lon="6.25169">
        <ele>233.60059</ele>
        <time>2026-05-18T09:38:33+02:00</time>
      </trkpt>
      <trkpt lat="48.53944" lon="6.25161">
        <ele>233.60059</ele>
        <time>2026-05-18T09:38:34+02:00</time>
      </trkpt>
      <trkpt lat="48.53945" lon="6.25153">
        <ele>233.7002</ele>
        <time>2026-05-18T09:38:35+02:00</time>
      </trkpt>
      <trkpt lat="48.53947" lon="6.25145">
        <ele>233.5</ele>
        <time>2026-05-18T09:38:36+02:00</time>
      </trkpt>
      <trkpt lat="48.53948" lon="6.25136">
        <ele>233.90039</ele>
        <time>2026-05-18T09:38:37+02:00</time>
      </trkpt>
      <trkpt lat="48.53949" lon="6.25128">
        <ele>234.40039</ele>
        <time>2026-05-18T09:38:38+02:00</time>
      </trkpt>
      <trkpt lat="48.5395" lon="6.2512">
        <ele>234.90039</ele>
        <time>2026-05-18T09:38:39+02:00</time>
      </trkpt>
      <trkpt lat="48.53951" lon="6.25112">
        <ele>235.40039</ele>
        <time>2026-05-18T09:38:40+02:00</time>
      </trkpt>
      <trkpt lat="48.53953" lon="6.25104">
        <ele>234.7998</ele>
        <time>2026-05-18T09:38:41+02:00</time>
      </trkpt>
      <trkpt lat="48.53954" lon="6.25097">
        <ele>234.7998</ele>
        <time>2026-05-18T09:38:42+02:00</time>
      </trkpt>
      <trkpt lat="48.53955" lon="6.25089">
        <ele>235</ele>
        <time>2026-05-18T09:38:43+02:00</time>
      </trkpt>
      <trkpt lat="48.53956" lon="6.25081">
        <ele>235.40039</ele>
        <time>2026-05-18T09:38:44+02:00</time>
      </trkpt>
      <trkpt lat="48.53957" lon="6.25074">
        <ele>234.60059</ele>
        <time>2026-05-18T09:38:45+02:00</time>
      </trkpt>
      <trkpt lat="48.53959" lon="6.25066">
        <ele>235.5</ele>
        <time>2026-05-18T09:38:46+02:00</time>
      </trkpt>
      <trkpt lat="48.5396" lon="6.25059">
        <ele>236.60059</ele>
        <time>2026-05-18T09:38:47+02:00</time>
      </trkpt>
      <trkpt lat="48.53961" lon="6.25051">
        <ele>237.60059</ele>
        <time>2026-05-18T09:38:48+02:00</time>
      </trkpt>
      <trkpt lat="48.53962" lon="6.25043">
        <ele>238.10059</ele>
        <time>2026-05-18T09:38:49+02:00</time>
      </trkpt>
      <trkpt lat="48.53963" lon="6.25036">
        <ele>237.2998</ele>
        <time>2026-05-18T09:38:50+02:00</time>
      </trkpt>
      <trkpt lat="48.53964" lon="6.25029">
        <ele>237.2998</ele>
        <time>2026-05-18T09:38:51+02:00</time>
      </trkpt>
      <trkpt lat="48.53966" lon="6.25022">
        <ele>237.5</ele>
        <time>2026-05-18T09:38:52+02:00</time>
      </trkpt>
      <trkpt lat="48.53967" lon="6.25015">
        <ele>237.7998</ele>
        <time>2026-05-18T09:38:53+02:00</time>
      </trkpt>
      <trkpt lat="48.53968" lon="6.25008">
        <ele>238.2998</ele>
        <time>2026-05-18T09:38:54+02:00</time>
      </trkpt>
      <trkpt lat="48.53969" lon="6.25002">
        <ele>236.60059</ele>
        <time>2026-05-18T09:38:55+02:00</time>
      </trkpt>
      <trkpt lat="48.53971" lon="6.24994">
        <ele>236.7998</ele>
        <time>2026-05-18T09:38:56+02:00</time>
      </trkpt>
      <trkpt lat="48.53973" lon="6.24986">
        <ele>237.2002</ele>
        <time>2026-05-18T09:38:57+02:00</time>
      </trkpt>
      <trkpt lat="48.53975" lon="6.24978">
        <ele>235.40039</ele>
        <time>2026-05-18T09:38:58+02:00</time>
      </trkpt>
      <trkpt lat="48.53977" lon="6.2497">
        <ele>236.10059</ele>
        <time>2026-05-18T09:38:59+02:00</time>
      </trkpt>
      <trkpt lat="48.53978" lon="6.24963">
        <ele>237.7002</ele>
        <time>2026-05-18T09:39:00+02:00</time>
      </trkpt>
      <trkpt lat="48.53981" lon="6.24955">
        <ele>238</ele>
        <time>2026-05-18T09:39:01+02:00</time>
      </trkpt>
      <trkpt lat="48.53983" lon="6.24947">
        <ele>239.60059</ele>
        <time>2026-05-18T09:39:02+02:00</time>
      </trkpt>
      <trkpt lat="48.53985" lon="6.24939">
        <ele>240</ele>
        <time>2026-05-18T09:39:03+02:00</time>
      </trkpt>
      <trkpt lat="48.53987" lon="6.24932">
        <ele>238.2998</ele>
        <time>2026-05-18T09:39:04+02:00</time>
      </trkpt>
      <trkpt lat="48.53989" lon="6.24924">
        <ele>238.2002</ele>
        <time>2026-05-18T09:39:05+02:00</time>
      </trkpt>
      <trkpt lat="48.53991" lon="6.24917">
        <ele>236.10059</ele>
        <time>2026-05-18T09:39:06+02:00</time>
      </trkpt>
      <trkpt lat="48.53994" lon="6.24909">
        <ele>236.2002</ele>
        <time>2026-05-18T09:39:07+02:00</time>
      </trkpt>
      <trkpt lat="48.53997" lon="6.24902">
        <ele>234.40039</ele>
        <time>2026-05-18T09:39:08+02:00</time>
      </trkpt>
      <trkpt lat="48.53999" lon="6.24894">
        <ele>234.2998</ele>
        <time>2026-05-18T09:39:09+02:00</time>
      </trkpt>
      <trkpt lat="48.54001" lon="6.24887">
        <ele>234.2998</ele>
        <time>2026-05-18T09:39:10+02:00</time>
      </trkpt>
      <trkpt lat="48.54004" lon="6.24879">
        <ele>232.90039</ele>
        <time>2026-05-18T09:39:11+02:00</time>
      </trkpt>
      <trkpt lat="48.54006" lon="6.24872">
        <ele>233.40039</ele>
        <time>2026-05-18T09:39:12+02:00</time>
      </trkpt>
      <trkpt lat="48.54008" lon="6.24866">
        <ele>232.5</ele>
        <time>2026-05-18T09:39:13+02:00</time>
      </trkpt>
      <trkpt lat="48.54011" lon="6.24858">
        <ele>233.60059</ele>
        <time>2026-05-18T09:39:14+02:00</time>
      </trkpt>
      <trkpt lat="48.54013" lon="6.24851">
        <ele>234.90039</ele>
        <time>2026-05-18T09:39:15+02:00</time>
      </trkpt>
      <trkpt lat="48.54015" lon="6.24844">
        <ele>234.7002</ele>
        <time>2026-05-18T09:39:16+02:00</time>
      </trkpt>
      <trkpt lat="48.54017" lon="6.24837">
        <ele>235.10059</ele>
        <time>2026-05-18T09:39:17+02:00</time>
      </trkpt>
      <trkpt lat="48.54019" lon="6.24831">
        <ele>235.10059</ele>
        <time>2026-05-18T09:39:18+02:00</time>
      </trkpt>
      <trkpt lat="48.54021" lon="6.24824">
        <ele>233.5</ele>
        <time>2026-05-18T09:39:19+02:00</time>
      </trkpt>
      <trkpt lat="48.54023" lon="6.24817">
        <ele>233.40039</ele>
        <time>2026-05-18T09:39:20+02:00</time>
      </trkpt>
      <trkpt lat="48.54026" lon="6.2481">
        <ele>232.2998</ele>
        <time>2026-05-18T09:39:21+02:00</time>
      </trkpt>
      <trkpt lat="48.54028" lon="6.24803">
        <ele>232.7998</ele>
        <time>2026-05-18T09:39:22+02:00</time>
      </trkpt>
      <trkpt lat="48.54031" lon="6.24796">
        <ele>232.2998</ele>
        <time>2026-05-18T09:39:23+02:00</time>
      </trkpt>
      <trkpt lat="48.54033" lon="6.24789">
        <ele>233.10059</ele>
        <time>2026-05-18T09:39:24+02:00</time>
      </trkpt>
      <trkpt lat="48.54036" lon="6.24781">
        <ele>234.5</ele>
        <time>2026-05-18T09:39:25+02:00</time>
      </trkpt>
      <trkpt lat="48.5404" lon="6.24774">
        <ele>234.2002</ele>
        <time>2026-05-18T09:39:26+02:00</time>
      </trkpt>
      <trkpt lat="48.54042" lon="6.24766">
        <ele>235.2998</ele>
        <time>2026-05-18T09:39:27+02:00</time>
      </trkpt>
      <trkpt lat="48.54045" lon="6.24758">
        <ele>235.5</ele>
        <time>2026-05-18T09:39:28+02:00</time>
      </trkpt>
      <trkpt lat="48.54046" lon="6.24755">
        <ele>235.5</ele>
        <time>2026-05-18T09:39:29+02:00</time>
      </trkpt>
      <trkpt lat="48.5405" lon="6.24744">
        <ele>237.10059</ele>
        <time>2026-05-18T09:39:30+02:00</time>
      </trkpt>
      <trkpt lat="48.54052" lon="6.24736">
        <ele>237.10059</ele>
        <time>2026-05-18T09:39:31+02:00</time>
      </trkpt>
      <trkpt lat="48.54055" lon="6.24729">
        <ele>235.60059</ele>
        <time>2026-05-18T09:39:32+02:00</time>
      </trkpt>
      <trkpt lat="48.54058" lon="6.24721">
        <ele>235.60059</ele>
        <time>2026-05-18T09:39:33+02:00</time>
      </trkpt>
      <trkpt lat="48.5406" lon="6.24714">
        <ele>233.7002</ele>
        <time>2026-05-18T09:39:34+02:00</time>
      </trkpt>
      <trkpt lat="48.54063" lon="6.24707">
        <ele>234.10059</ele>
        <time>2026-05-18T09:39:35+02:00</time>
      </trkpt>
      <trkpt lat="48.54065" lon="6.24699">
        <ele>233.5</ele>
        <time>2026-05-18T09:39:36+02:00</time>
      </trkpt>
      <trkpt lat="48.54068" lon="6.24692">
        <ele>234.7002</ele>
        <time>2026-05-18T09:39:37+02:00</time>
      </trkpt>
      <trkpt lat="48.5407" lon="6.24685">
        <ele>234.7002</ele>
        <time>2026-05-18T09:39:38+02:00</time>
      </trkpt>
      <trkpt lat="48.54073" lon="6.24678">
        <ele>234.7002</ele>
        <time>2026-05-18T09:39:39+02:00</time>
      </trkpt>
      <trkpt lat="48.54076" lon="6.24671">
        <ele>235.7002</ele>
        <time>2026-05-18T09:39:40+02:00</time>
      </trkpt>
      <trkpt lat="48.54079" lon="6.24664">
        <ele>234.7002</ele>
        <time>2026-05-18T09:39:41+02:00</time>
      </trkpt>
      <trkpt lat="48.54081" lon="6.24656">
        <ele>234.90039</ele>
        <time>2026-05-18T09:39:42+02:00</time>
      </trkpt>
      <trkpt lat="48.54084" lon="6.24649">
        <ele>233.10059</ele>
        <time>2026-05-18T09:39:43+02:00</time>
      </trkpt>
      <trkpt lat="48.54087" lon="6.24642">
        <ele>233.10059</ele>
        <time>2026-05-18T09:39:44+02:00</time>
      </trkpt>
      <trkpt lat="48.5409" lon="6.24635">
        <ele>232.2002</ele>
        <time>2026-05-18T09:39:45+02:00</time>
      </trkpt>
      <trkpt lat="48.54093" lon="6.24628">
        <ele>232.60059</ele>
        <time>2026-05-18T09:39:46+02:00</time>
      </trkpt>
      <trkpt lat="48.54096" lon="6.24621">
        <ele>232.90039</ele>
        <time>2026-05-18T09:39:47+02:00</time>
      </trkpt>
      <trkpt lat="48.54099" lon="6.24614">
        <ele>234.2002</ele>
        <time>2026-05-18T09:39:48+02:00</time>
      </trkpt>
      <trkpt lat="48.54102" lon="6.24607">
        <ele>234.10059</ele>
        <time>2026-05-18T09:39:49+02:00</time>
      </trkpt>
      <trkpt lat="48.54104" lon="6.24604">
        <ele>234.10059</ele>
        <time>2026-05-18T09:39:50+02:00</time>
      </trkpt>
      <trkpt lat="48.54109" lon="6.24594">
        <ele>233.5</ele>
        <time>2026-05-18T09:39:51+02:00</time>
      </trkpt>
      <trkpt lat="48.54111" lon="6.24587">
        <ele>233.60059</ele>
        <time>2026-05-18T09:39:52+02:00</time>
      </trkpt>
      <trkpt lat="48.54115" lon="6.24581">
        <ele>235.10059</ele>
        <time>2026-05-18T09:39:53+02:00</time>
      </trkpt>
      <trkpt lat="48.54118" lon="6.24574">
        <ele>233.90039</ele>
        <time>2026-05-18T09:39:54+02:00</time>
      </trkpt>
      <trkpt lat="48.54121" lon="6.24566">
        <ele>234.90039</ele>
        <time>2026-05-18T09:39:55+02:00</time>
      </trkpt>
      <trkpt lat="48.54124" lon="6.2456">
        <ele>234.2998</ele>
        <time>2026-05-18T09:39:56+02:00</time>
      </trkpt>
      <trkpt lat="48.54127" lon="6.24553">
        <ele>235.40039</ele>
        <time>2026-05-18T09:39:57+02:00</time>
      </trkpt>
      <trkpt lat="48.54131" lon="6.24547">
        <ele>234.10059</ele>
        <time>2026-05-18T09:39:58+02:00</time>
      </trkpt>
      <trkpt lat="48.54134" lon="6.2454">
        <ele>234.10059</ele>
        <time>2026-05-18T09:39:59+02:00</time>
      </trkpt>
      <trkpt lat="48.54137" lon="6.24534">
        <ele>234.90039</ele>
        <time>2026-05-18T09:40:00+02:00</time>
      </trkpt>
      <trkpt lat="48.54139" lon="6.24527">
        <ele>234.40039</ele>
        <time>2026-05-18T09:40:01+02:00</time>
      </trkpt>
      <trkpt lat="48.54142" lon="6.24521">
        <ele>234.60059</ele>
        <time>2026-05-18T09:40:02+02:00</time>
      </trkpt>
      <trkpt lat="48.54145" lon="6.24515">
        <ele>233.5</ele>
        <time>2026-05-18T09:40:03+02:00</time>
      </trkpt>
      <trkpt lat="48.54148" lon="6.2451">
        <ele>233.2998</ele>
        <time>2026-05-18T09:40:04+02:00</time>
      </trkpt>
      <trkpt lat="48.5415" lon="6.24507">
        <ele>233.2998</ele>
        <time>2026-05-18T09:40:05+02:00</time>
      </trkpt>
      <trkpt lat="48.54154" lon="6.24498">
        <ele>232.2998</ele>
        <time>2026-05-18T09:40:06+02:00</time>
      </trkpt>
      <trkpt lat="48.54157" lon="6.24492">
        <ele>232.40039</ele>
        <time>2026-05-18T09:40:07+02:00</time>
      </trkpt>
      <trkpt lat="48.54159" lon="6.24486">
        <ele>232.60059</ele>
        <time>2026-05-18T09:40:08+02:00</time>
      </trkpt>
      <trkpt lat="48.54162" lon="6.2448">
        <ele>232.7002</ele>
        <time>2026-05-18T09:40:09+02:00</time>
      </trkpt>
      <trkpt lat="48.54165" lon="6.24474">
        <ele>233</ele>
        <time>2026-05-18T09:40:10+02:00</time>
      </trkpt>
      <trkpt lat="48.54169" lon="6.24468">
        <ele>232.90039</ele>
        <time>2026-05-18T09:40:11+02:00</time>
      </trkpt>
      <trkpt lat="48.54172" lon="6.24463">
        <ele>232.90039</ele>
        <time>2026-05-18T09:40:12+02:00</time>
      </trkpt>
      <trkpt lat="48.54174" lon="6.24457">
        <ele>232.5</ele>
        <time>2026-05-18T09:40:13+02:00</time>
      </trkpt>
      <trkpt lat="48.54177" lon="6.24452">
        <ele>233.40039</ele>
        <time>2026-05-18T09:40:14+02:00</time>
      </trkpt>
      <trkpt lat="48.5418" lon="6.24446">
        <ele>232.90039</ele>
        <time>2026-05-18T09:40:15+02:00</time>
      </trkpt>
      <trkpt lat="48.54182" lon="6.24441">
        <ele>233.60059</ele>
        <time>2026-05-18T09:40:16+02:00</time>
      </trkpt>
      <trkpt lat="48.54185" lon="6.24435">
        <ele>233.5</ele>
        <time>2026-05-18T09:40:17+02:00</time>
      </trkpt>
      <trkpt lat="48.54188" lon="6.24429">
        <ele>233.5</ele>
        <time>2026-05-18T09:40:18+02:00</time>
      </trkpt>
      <trkpt lat="48.54191" lon="6.24424">
        <ele>232.90039</ele>
        <time>2026-05-18T09:40:19+02:00</time>
      </trkpt>
      <trkpt lat="48.54194" lon="6.24418">
        <ele>233.90039</ele>
        <time>2026-05-18T09:40:20+02:00</time>
      </trkpt>
      <trkpt lat="48.54197" lon="6.24412">
        <ele>233.10059</ele>
        <time>2026-05-18T09:40:21+02:00</time>
      </trkpt>
      <trkpt lat="48.542" lon="6.24405">
        <ele>233.90039</ele>
        <time>2026-05-18T09:40:22+02:00</time>
      </trkpt>
      <trkpt lat="48.54204" lon="6.244">
        <ele>233.90039</ele>
        <time>2026-05-18T09:40:23+02:00</time>
      </trkpt>
      <trkpt lat="48.54207" lon="6.24393">
        <ele>233.90039</ele>
        <time>2026-05-18T09:40:24+02:00</time>
      </trkpt>
      <trkpt lat="48.5421" lon="6.24387">
        <ele>233.60059</ele>
        <time>2026-05-18T09:40:25+02:00</time>
      </trkpt>
      <trkpt lat="48.54214" lon="6.2438">
        <ele>233.7002</ele>
        <time>2026-05-18T09:40:26+02:00</time>
      </trkpt>
      <trkpt lat="48.54218" lon="6.24373">
        <ele>232.5</ele>
        <time>2026-05-18T09:40:27+02:00</time>
      </trkpt>
      <trkpt lat="48.54221" lon="6.24366">
        <ele>232.60059</ele>
        <time>2026-05-18T09:40:28+02:00</time>
      </trkpt>
      <trkpt lat="48.54225" lon="6.2436">
        <ele>233.40039</ele>
        <time>2026-05-18T09:40:29+02:00</time>
      </trkpt>
      <trkpt lat="48.54229" lon="6.24354">
        <ele>232.90039</ele>
        <time>2026-05-18T09:40:30+02:00</time>
      </trkpt>
      <trkpt lat="48.54233" lon="6.24347">
        <ele>233.10059</ele>
        <time>2026-05-18T09:40:31+02:00</time>
      </trkpt>
      <trkpt lat="48.54236" lon="6.24341">
        <ele>233.5</ele>
        <time>2026-05-18T09:40:32+02:00</time>
      </trkpt>
      <trkpt lat="48.54239" lon="6.24335">
        <ele>233.5</ele>
        <time>2026-05-18T09:40:33+02:00</time>
      </trkpt>
      <trkpt lat="48.54242" lon="6.24329">
        <ele>233.40039</ele>
        <time>2026-05-18T09:40:34+02:00</time>
      </trkpt>
      <trkpt lat="48.54246" lon="6.24323">
        <ele>232.2998</ele>
        <time>2026-05-18T09:40:35+02:00</time>
      </trkpt>
      <trkpt lat="48.54249" lon="6.24317">
        <ele>233.10059</ele>
        <time>2026-05-18T09:40:36+02:00</time>
      </trkpt>
      <trkpt lat="48.54252" lon="6.24312">
        <ele>232.7998</ele>
        <time>2026-05-18T09:40:37+02:00</time>
      </trkpt>
      <trkpt lat="48.54255" lon="6.24306">
        <ele>232.7998</ele>
        <time>2026-05-18T09:40:38+02:00</time>
      </trkpt>
      <trkpt lat="48.54259" lon="6.24298">
        <ele>232.7998</ele>
        <time>2026-05-18T09:40:39+02:00</time>
      </trkpt>
      <trkpt lat="48.54263" lon="6.24292">
        <ele>232.7998</ele>
        <time>2026-05-18T09:40:40+02:00</time>
      </trkpt>
      <trkpt lat="48.54266" lon="6.24285">
        <ele>232.40039</ele>
        <time>2026-05-18T09:40:41+02:00</time>
      </trkpt>
      <trkpt lat="48.5427" lon="6.24278">
        <ele>232.90039</ele>
        <time>2026-05-18T09:40:42+02:00</time>
      </trkpt>
      <trkpt lat="48.54274" lon="6.24272">
        <ele>232.60059</ele>
        <time>2026-05-18T09:40:43+02:00</time>
      </trkpt>
      <trkpt lat="48.54277" lon="6.24265">
        <ele>233.10059</ele>
        <time>2026-05-18T09:40:44+02:00</time>
      </trkpt>
      <trkpt lat="48.54281" lon="6.24259">
        <ele>234.10059</ele>
        <time>2026-05-18T09:40:45+02:00</time>
      </trkpt>
      <trkpt lat="48.54284" lon="6.24253">
        <ele>233.60059</ele>
        <time>2026-05-18T09:40:46+02:00</time>
      </trkpt>
      <trkpt lat="48.54287" lon="6.24247">
        <ele>236</ele>
        <time>2026-05-18T09:40:47+02:00</time>
      </trkpt>
      <trkpt lat="48.54291" lon="6.24241">
        <ele>236.10059</ele>
        <time>2026-05-18T09:40:48+02:00</time>
      </trkpt>
      <trkpt lat="48.54292" lon="6.24238">
        <ele>236.10059</ele>
        <time>2026-05-18T09:40:49+02:00</time>
      </trkpt>
      <trkpt lat="48.54297" lon="6.24228">
        <ele>235.7998</ele>
        <time>2026-05-18T09:40:50+02:00</time>
      </trkpt>
      <trkpt lat="48.543" lon="6.24222">
        <ele>236.5</ele>
        <time>2026-05-18T09:40:51+02:00</time>
      </trkpt>
      <trkpt lat="48.54304" lon="6.24216">
        <ele>235.90039</ele>
        <time>2026-05-18T09:40:52+02:00</time>
      </trkpt>
      <trkpt lat="48.54307" lon="6.24209">
        <ele>234.2002</ele>
        <time>2026-05-18T09:40:53+02:00</time>
      </trkpt>
      <trkpt lat="48.54311" lon="6.24203">
        <ele>235.60059</ele>
        <time>2026-05-18T09:40:54+02:00</time>
      </trkpt>
      <trkpt lat="48.54315" lon="6.24196">
        <ele>237</ele>
        <time>2026-05-18T09:40:55+02:00</time>
      </trkpt>
      <trkpt lat="48.54318" lon="6.24189">
        <ele>235.60059</ele>
        <time>2026-05-18T09:40:56+02:00</time>
      </trkpt>
      <trkpt lat="48.54321" lon="6.24183">
        <ele>235.7002</ele>
        <time>2026-05-18T09:40:57+02:00</time>
      </trkpt>
      <trkpt lat="48.54324" lon="6.24177">
        <ele>235</ele>
        <time>2026-05-18T09:40:58+02:00</time>
      </trkpt>
      <trkpt lat="48.54328" lon="6.2417">
        <ele>236.60059</ele>
        <time>2026-05-18T09:40:59+02:00</time>
      </trkpt>
      <trkpt lat="48.54331" lon="6.24164">
        <ele>236.2002</ele>
        <time>2026-05-18T09:41:00+02:00</time>
      </trkpt>
      <trkpt lat="48.54335" lon="6.24158">
        <ele>238</ele>
        <time>2026-05-18T09:41:01+02:00</time>
      </trkpt>
      <trkpt lat="48.54338" lon="6.24152">
        <ele>239.40039</ele>
        <time>2026-05-18T09:41:02+02:00</time>
      </trkpt>
      <trkpt lat="48.5434" lon="6.24145">
        <ele>239.40039</ele>
        <time>2026-05-18T09:41:03+02:00</time>
      </trkpt>
      <trkpt lat="48.54343" lon="6.2414">
        <ele>239</ele>
        <time>2026-05-18T09:41:04+02:00</time>
      </trkpt>
      <trkpt lat="48.54346" lon="6.24134">
        <ele>239</ele>
        <time>2026-05-18T09:41:05+02:00</time>
      </trkpt>
      <trkpt lat="48.54349" lon="6.24128">
        <ele>239.7002</ele>
        <time>2026-05-18T09:41:06+02:00</time>
      </trkpt>
      <trkpt lat="48.54351" lon="6.24122">
        <ele>238.90039</ele>
        <time>2026-05-18T09:41:07+02:00</time>
      </trkpt>
      <trkpt lat="48.54353" lon="6.24115">
        <ele>237.5</ele>
        <time>2026-05-18T09:41:08+02:00</time>
      </trkpt>
      <trkpt lat="48.54355" lon="6.24109">
        <ele>239.2002</ele>
        <time>2026-05-18T09:41:09+02:00</time>
      </trkpt>
      <trkpt lat="48.54358" lon="6.24102">
        <ele>239.2002</ele>
        <time>2026-05-18T09:41:10+02:00</time>
      </trkpt>
      <trkpt lat="48.5436" lon="6.24095">
        <ele>238.5</ele>
        <time>2026-05-18T09:41:11+02:00</time>
      </trkpt>
      <trkpt lat="48.54362" lon="6.24088">
        <ele>237.5</ele>
        <time>2026-05-18T09:41:12+02:00</time>
      </trkpt>
      <trkpt lat="48.54365" lon="6.24081">
        <ele>235.60059</ele>
        <time>2026-05-18T09:41:13+02:00</time>
      </trkpt>
      <trkpt lat="48.54368" lon="6.24073">
        <ele>234.2998</ele>
        <time>2026-05-18T09:41:14+02:00</time>
      </trkpt>
      <trkpt lat="48.5437" lon="6.24065">
        <ele>233.90039</ele>
        <time>2026-05-18T09:41:15+02:00</time>
      </trkpt>
      <trkpt lat="48.54373" lon="6.24059">
        <ele>235.5</ele>
        <time>2026-05-18T09:41:16+02:00</time>
      </trkpt>
      <trkpt lat="48.54375" lon="6.24052">
        <ele>234.90039</ele>
        <time>2026-05-18T09:41:17+02:00</time>
      </trkpt>
      <trkpt lat="48.54377" lon="6.24045">
        <ele>233.60059</ele>
        <time>2026-05-18T09:41:18+02:00</time>
      </trkpt>
      <trkpt lat="48.5438" lon="6.24038">
        <ele>233.60059</ele>
        <time>2026-05-18T09:41:19+02:00</time>
      </trkpt>
      <trkpt lat="48.54382" lon="6.24031">
        <ele>233</ele>
        <time>2026-05-18T09:41:20+02:00</time>
      </trkpt>
      <trkpt lat="48.54385" lon="6.24023">
        <ele>233.7002</ele>
        <time>2026-05-18T09:41:21+02:00</time>
      </trkpt>
      <trkpt lat="48.54388" lon="6.24016">
        <ele>233.7002</ele>
        <time>2026-05-18T09:41:22+02:00</time>
      </trkpt>
      <trkpt lat="48.54391" lon="6.24009">
        <ele>235.10059</ele>
        <time>2026-05-18T09:41:23+02:00</time>
      </trkpt>
      <trkpt lat="48.54394" lon="6.24001">
        <ele>234.90039</ele>
        <time>2026-05-18T09:41:24+02:00</time>
      </trkpt>
      <trkpt lat="48.54396" lon="6.23994">
        <ele>236.7998</ele>
        <time>2026-05-18T09:41:25+02:00</time>
      </trkpt>
      <trkpt lat="48.54399" lon="6.23987">
        <ele>235.7002</ele>
        <time>2026-05-18T09:41:26+02:00</time>
      </trkpt>
      <trkpt lat="48.544" lon="6.23983">
        <ele>235.7002</ele>
        <time>2026-05-18T09:41:27+02:00</time>
      </trkpt>
      <trkpt lat="48.54403" lon="6.23973">
        <ele>234.5</ele>
        <time>2026-05-18T09:41:28+02:00</time>
      </trkpt>
      <trkpt lat="48.54406" lon="6.23967">
        <ele>234.7002</ele>
        <time>2026-05-18T09:41:29+02:00</time>
      </trkpt>
      <trkpt lat="48.54408" lon="6.2396">
        <ele>234.90039</ele>
        <time>2026-05-18T09:41:30+02:00</time>
      </trkpt>
      <trkpt lat="48.54411" lon="6.23953">
        <ele>235.90039</ele>
        <time>2026-05-18T09:41:31+02:00</time>
      </trkpt>
      <trkpt lat="48.54414" lon="6.23946">
        <ele>235.2998</ele>
        <time>2026-05-18T09:41:32+02:00</time>
      </trkpt>
      <trkpt lat="48.54417" lon="6.23939">
        <ele>235.2998</ele>
        <time>2026-05-18T09:41:33+02:00</time>
      </trkpt>
      <trkpt lat="48.54419" lon="6.23932">
        <ele>234</ele>
        <time>2026-05-18T09:41:34+02:00</time>
      </trkpt>
      <trkpt lat="48.54422" lon="6.23925">
        <ele>233.2002</ele>
        <time>2026-05-18T09:41:35+02:00</time>
      </trkpt>
      <trkpt lat="48.54424" lon="6.23918">
        <ele>233.2002</ele>
        <time>2026-05-18T09:41:36+02:00</time>
      </trkpt>
      <trkpt lat="48.54427" lon="6.23911">
        <ele>232.7002</ele>
        <time>2026-05-18T09:41:37+02:00</time>
      </trkpt>
      <trkpt lat="48.5443" lon="6.23904">
        <ele>233.2002</ele>
        <time>2026-05-18T09:41:38+02:00</time>
      </trkpt>
      <trkpt lat="48.54433" lon="6.23896">
        <ele>232.60059</ele>
        <time>2026-05-18T09:41:39+02:00</time>
      </trkpt>
      <trkpt lat="48.54435" lon="6.23889">
        <ele>232.7998</ele>
        <time>2026-05-18T09:41:40+02:00</time>
      </trkpt>
      <trkpt lat="48.54437" lon="6.23886">
        <ele>232.90039</ele>
        <time>2026-05-18T09:41:41+02:00</time>
      </trkpt>
      <trkpt lat="48.54441" lon="6.23875">
        <ele>232.7002</ele>
        <time>2026-05-18T09:41:42+02:00</time>
      </trkpt>
      <trkpt lat="48.54443" lon="6.23868">
        <ele>233</ele>
        <time>2026-05-18T09:41:43+02:00</time>
      </trkpt>
      <trkpt lat="48.54447" lon="6.2386">
        <ele>233</ele>
        <time>2026-05-18T09:41:44+02:00</time>
      </trkpt>
      <trkpt lat="48.5445" lon="6.23853">
        <ele>233</ele>
        <time>2026-05-18T09:41:45+02:00</time>
      </trkpt>
      <trkpt lat="48.54453" lon="6.23845">
        <ele>233.40039</ele>
        <time>2026-05-18T09:41:46+02:00</time>
      </trkpt>
      <trkpt lat="48.54456" lon="6.23838">
        <ele>234</ele>
        <time>2026-05-18T09:41:47+02:00</time>
      </trkpt>
      <trkpt lat="48.54459" lon="6.2383">
        <ele>233.7002</ele>
        <time>2026-05-18T09:41:48+02:00</time>
      </trkpt>
      <trkpt lat="48.54462" lon="6.23823">
        <ele>233.7998</ele>
        <time>2026-05-18T09:41:49+02:00</time>
      </trkpt>
      <trkpt lat="48.54464" lon="6.23816">
        <ele>232.90039</ele>
        <time>2026-05-18T09:41:50+02:00</time>
      </trkpt>
      <trkpt lat="48.54466" lon="6.23813">
        <ele>232.90039</ele>
        <time>2026-05-18T09:41:51+02:00</time>
      </trkpt>
      <trkpt lat="48.5447" lon="6.23802">
        <ele>232.7002</ele>
        <time>2026-05-18T09:41:52+02:00</time>
      </trkpt>
      <trkpt lat="48.54473" lon="6.23795">
        <ele>232.40039</ele>
        <time>2026-05-18T09:41:53+02:00</time>
      </trkpt>
      <trkpt lat="48.54476" lon="6.23787">
        <ele>232.7002</ele>
        <time>2026-05-18T09:41:54+02:00</time>
      </trkpt>
      <trkpt lat="48.54479" lon="6.23779">
        <ele>232.7002</ele>
        <time>2026-05-18T09:41:55+02:00</time>
      </trkpt>
      <trkpt lat="48.54482" lon="6.23772">
        <ele>232.5</ele>
        <time>2026-05-18T09:41:56+02:00</time>
      </trkpt>
      <trkpt lat="48.54485" lon="6.23765">
        <ele>232.90039</ele>
        <time>2026-05-18T09:41:57+02:00</time>
      </trkpt>
      <trkpt lat="48.54488" lon="6.23758">
        <ele>232</ele>
        <time>2026-05-18T09:41:58+02:00</time>
      </trkpt>
      <trkpt lat="48.54491" lon="6.23752">
        <ele>232.60059</ele>
        <time>2026-05-18T09:41:59+02:00</time>
      </trkpt>
      <trkpt lat="48.54493" lon="6.23745">
        <ele>233.40039</ele>
        <time>2026-05-18T09:42:00+02:00</time>
      </trkpt>
      <trkpt lat="48.54497" lon="6.23737">
        <ele>233.2998</ele>
        <time>2026-05-18T09:42:01+02:00</time>
      </trkpt>
      <trkpt lat="48.545" lon="6.2373">
        <ele>234.2002</ele>
        <time>2026-05-18T09:42:02+02:00</time>
      </trkpt>
      <trkpt lat="48.54504" lon="6.23723">
        <ele>233.40039</ele>
        <time>2026-05-18T09:42:03+02:00</time>
      </trkpt>
      <trkpt lat="48.54508" lon="6.23716">
        <ele>233.40039</ele>
        <time>2026-05-18T09:42:04+02:00</time>
      </trkpt>
      <trkpt lat="48.54511" lon="6.23708">
        <ele>233.7002</ele>
        <time>2026-05-18T09:42:05+02:00</time>
      </trkpt>
      <trkpt lat="48.54515" lon="6.23701">
        <ele>234.10059</ele>
        <time>2026-05-18T09:42:06+02:00</time>
      </trkpt>
      <trkpt lat="48.54519" lon="6.23693">
        <ele>235.10059</ele>
        <time>2026-05-18T09:42:07+02:00</time>
      </trkpt>
      <trkpt lat="48.54523" lon="6.23687">
        <ele>234.10059</ele>
        <time>2026-05-18T09:42:08+02:00</time>
      </trkpt>
      <trkpt lat="48.54524" lon="6.23684">
        <ele>234.10059</ele>
        <time>2026-05-18T09:42:09+02:00</time>
      </trkpt>
      <trkpt lat="48.54529" lon="6.23674">
        <ele>233.40039</ele>
        <time>2026-05-18T09:42:10+02:00</time>
      </trkpt>
      <trkpt lat="48.54532" lon="6.23668">
        <ele>232</ele>
        <time>2026-05-18T09:42:11+02:00</time>
      </trkpt>
      <trkpt lat="48.54536" lon="6.23662">
        <ele>231.7998</ele>
        <time>2026-05-18T09:42:12+02:00</time>
      </trkpt>
      <trkpt lat="48.54539" lon="6.23655">
        <ele>232.7002</ele>
        <time>2026-05-18T09:42:13+02:00</time>
      </trkpt>
      <trkpt lat="48.54543" lon="6.23649">
        <ele>233.2002</ele>
        <time>2026-05-18T09:42:14+02:00</time>
      </trkpt>
      <trkpt lat="48.54546" lon="6.23642">
        <ele>232.7998</ele>
        <time>2026-05-18T09:42:15+02:00</time>
      </trkpt>
      <trkpt lat="48.54548" lon="6.23639">
        <ele>233.5</ele>
        <time>2026-05-18T09:42:16+02:00</time>
      </trkpt>
      <trkpt lat="48.54554" lon="6.2363">
        <ele>233.7002</ele>
        <time>2026-05-18T09:42:17+02:00</time>
      </trkpt>
      <trkpt lat="48.54558" lon="6.23623">
        <ele>233</ele>
        <time>2026-05-18T09:42:18+02:00</time>
      </trkpt>
      <trkpt lat="48.54562" lon="6.23616">
        <ele>232.5</ele>
        <time>2026-05-18T09:42:19+02:00</time>
      </trkpt>
      <trkpt lat="48.54566" lon="6.2361">
        <ele>232.90039</ele>
        <time>2026-05-18T09:42:20+02:00</time>
      </trkpt>
      <trkpt lat="48.54569" lon="6.23605">
        <ele>232.90039</ele>
        <time>2026-05-18T09:42:21+02:00</time>
      </trkpt>
      <trkpt lat="48.54574" lon="6.23599">
        <ele>233.10059</ele>
        <time>2026-05-18T09:42:22+02:00</time>
      </trkpt>
      <trkpt lat="48.54578" lon="6.23593">
        <ele>233.2998</ele>
        <time>2026-05-18T09:42:23+02:00</time>
      </trkpt>
      <trkpt lat="48.54582" lon="6.23587">
        <ele>233.2998</ele>
        <time>2026-05-18T09:42:24+02:00</time>
      </trkpt>
      <trkpt lat="48.54585" lon="6.23581">
        <ele>233</ele>
        <time>2026-05-18T09:42:25+02:00</time>
      </trkpt>
      <trkpt lat="48.54589" lon="6.23575">
        <ele>233.10059</ele>
        <time>2026-05-18T09:42:26+02:00</time>
      </trkpt>
      <trkpt lat="48.54593" lon="6.2357">
        <ele>233.10059</ele>
        <time>2026-05-18T09:42:27+02:00</time>
      </trkpt>
      <trkpt lat="48.54597" lon="6.23565">
        <ele>233</ele>
        <time>2026-05-18T09:42:28+02:00</time>
      </trkpt>
      <trkpt lat="48.546" lon="6.2356">
        <ele>233.7002</ele>
        <time>2026-05-18T09:42:29+02:00</time>
      </trkpt>
      <trkpt lat="48.54604" lon="6.23556">
        <ele>233</ele>
        <time>2026-05-18T09:42:30+02:00</time>
      </trkpt>
      <trkpt lat="48.54608" lon="6.23552">
        <ele>233.5</ele>
        <time>2026-05-18T09:42:31+02:00</time>
      </trkpt>
      <trkpt lat="48.54611" lon="6.23547">
        <ele>233.40039</ele>
        <time>2026-05-18T09:42:32+02:00</time>
      </trkpt>
      <trkpt lat="48.54614" lon="6.23543">
        <ele>233.40039</ele>
        <time>2026-05-18T09:42:33+02:00</time>
      </trkpt>
      <trkpt lat="48.54618" lon="6.23539">
        <ele>233.2002</ele>
        <time>2026-05-18T09:42:34+02:00</time>
      </trkpt>
      <trkpt lat="48.54622" lon="6.23535">
        <ele>233</ele>
        <time>2026-05-18T09:42:35+02:00</time>
      </trkpt>
      <trkpt lat="48.54626" lon="6.2353">
        <ele>232.90039</ele>
        <time>2026-05-18T09:42:36+02:00</time>
      </trkpt>
      <trkpt lat="48.5463" lon="6.23526">
        <ele>232.7002</ele>
        <time>2026-05-18T09:42:37+02:00</time>
      </trkpt>
      <trkpt lat="48.54635" lon="6.23521">
        <ele>232.40039</ele>
        <time>2026-05-18T09:42:38+02:00</time>
      </trkpt>
      <trkpt lat="48.54639" lon="6.23517">
        <ele>232.2998</ele>
        <time>2026-05-18T09:42:39+02:00</time>
      </trkpt>
      <trkpt lat="48.54644" lon="6.23512">
        <ele>232.2998</ele>
        <time>2026-05-18T09:42:40+02:00</time>
      </trkpt>
      <trkpt lat="48.54649" lon="6.23506">
        <ele>232.7002</ele>
        <time>2026-05-18T09:42:41+02:00</time>
      </trkpt>
      <trkpt lat="48.54653" lon="6.23501">
        <ele>233.2002</ele>
        <time>2026-05-18T09:42:42+02:00</time>
      </trkpt>
      <trkpt lat="48.54658" lon="6.23496">
        <ele>233.2998</ele>
        <time>2026-05-18T09:42:43+02:00</time>
      </trkpt>
      <trkpt lat="48.54662" lon="6.23491">
        <ele>232.7002</ele>
        <time>2026-05-18T09:42:44+02:00</time>
      </trkpt>
      <trkpt lat="48.54667" lon="6.23487">
        <ele>232.7002</ele>
        <time>2026-05-18T09:42:45+02:00</time>
      </trkpt>
      <trkpt lat="48.54671" lon="6.23483">
        <ele>233.7998</ele>
        <time>2026-05-18T09:42:46+02:00</time>
      </trkpt>
      <trkpt lat="48.54675" lon="6.23479">
        <ele>233.60059</ele>
        <time>2026-05-18T09:42:47+02:00</time>
      </trkpt>
      <trkpt lat="48.5468" lon="6.23475">
        <ele>234.90039</ele>
        <time>2026-05-18T09:42:48+02:00</time>
      </trkpt>
      <trkpt lat="48.54685" lon="6.2347">
        <ele>236</ele>
        <time>2026-05-18T09:42:49+02:00</time>
      </trkpt>
      <trkpt lat="48.54689" lon="6.23466">
        <ele>236</ele>
        <time>2026-05-18T09:42:50+02:00</time>
      </trkpt>
      <trkpt lat="48.54694" lon="6.23462">
        <ele>237.2998</ele>
        <time>2026-05-18T09:42:51+02:00</time>
      </trkpt>
      <trkpt lat="48.54698" lon="6.23457">
        <ele>238</ele>
        <time>2026-05-18T09:42:52+02:00</time>
      </trkpt>
      <trkpt lat="48.54703" lon="6.23453">
        <ele>235.90039</ele>
        <time>2026-05-18T09:42:53+02:00</time>
      </trkpt>
      <trkpt lat="48.54707" lon="6.23449">
        <ele>235.7998</ele>
        <time>2026-05-18T09:42:54+02:00</time>
      </trkpt>
      <trkpt lat="48.54712" lon="6.23445">
        <ele>234</ele>
        <time>2026-05-18T09:42:55+02:00</time>
      </trkpt>
      <trkpt lat="48.54717" lon="6.23441">
        <ele>234.10059</ele>
        <time>2026-05-18T09:42:56+02:00</time>
      </trkpt>
      <trkpt lat="48.54722" lon="6.23437">
        <ele>233.40039</ele>
        <time>2026-05-18T09:42:57+02:00</time>
      </trkpt>
      <trkpt lat="48.54727" lon="6.23434">
        <ele>233.40039</ele>
        <time>2026-05-18T09:42:58+02:00</time>
      </trkpt>
      <trkpt lat="48.54732" lon="6.2343">
        <ele>233</ele>
        <time>2026-05-18T09:42:59+02:00</time>
      </trkpt>
      <trkpt lat="48.54737" lon="6.23426">
        <ele>232.90039</ele>
        <time>2026-05-18T09:43:00+02:00</time>
      </trkpt>
      <trkpt lat="48.54742" lon="6.23422">
        <ele>232.2998</ele>
        <time>2026-05-18T09:43:01+02:00</time>
      </trkpt>
      <trkpt lat="48.54747" lon="6.23419">
        <ele>232.7998</ele>
        <time>2026-05-18T09:43:02+02:00</time>
      </trkpt>
      <trkpt lat="48.54752" lon="6.23416">
        <ele>232.7998</ele>
        <time>2026-05-18T09:43:03+02:00</time>
      </trkpt>
      <trkpt lat="48.54757" lon="6.23412">
        <ele>233.10059</ele>
        <time>2026-05-18T09:43:04+02:00</time>
      </trkpt>
      <trkpt lat="48.54762" lon="6.23409">
        <ele>233.7998</ele>
        <time>2026-05-18T09:43:05+02:00</time>
      </trkpt>
      <trkpt lat="48.54767" lon="6.23405">
        <ele>233.2998</ele>
        <time>2026-05-18T09:43:06+02:00</time>
      </trkpt>
      <trkpt lat="48.54772" lon="6.23402">
        <ele>233.2998</ele>
        <time>2026-05-18T09:43:07+02:00</time>
      </trkpt>
      <trkpt lat="48.54778" lon="6.23397">
        <ele>233.40039</ele>
        <time>2026-05-18T09:43:08+02:00</time>
      </trkpt>
      <trkpt lat="48.54783" lon="6.23393">
        <ele>233.2998</ele>
        <time>2026-05-18T09:43:09+02:00</time>
      </trkpt>
      <trkpt lat="48.54788" lon="6.2339">
        <ele>233.7002</ele>
        <time>2026-05-18T09:43:10+02:00</time>
      </trkpt>
      <trkpt lat="48.54794" lon="6.23386">
        <ele>235.90039</ele>
        <time>2026-05-18T09:43:11+02:00</time>
      </trkpt>
      <trkpt lat="48.54799" lon="6.23382">
        <ele>236.5</ele>
        <time>2026-05-18T09:43:12+02:00</time>
      </trkpt>
      <trkpt lat="48.54804" lon="6.23379">
        <ele>235.5</ele>
        <time>2026-05-18T09:43:13+02:00</time>
      </trkpt>
      <trkpt lat="48.54808" lon="6.23375">
        <ele>235.5</ele>
        <time>2026-05-18T09:43:14+02:00</time>
      </trkpt>
      <trkpt lat="48.54813" lon="6.23372">
        <ele>235.40039</ele>
        <time>2026-05-18T09:43:15+02:00</time>
      </trkpt>
      <trkpt lat="48.54818" lon="6.23369">
        <ele>233.40039</ele>
        <time>2026-05-18T09:43:16+02:00</time>
      </trkpt>
      <trkpt lat="48.54823" lon="6.23365">
        <ele>233.60059</ele>
        <time>2026-05-18T09:43:17+02:00</time>
      </trkpt>
      <trkpt lat="48.54828" lon="6.23362">
        <ele>233.2998</ele>
        <time>2026-05-18T09:43:18+02:00</time>
      </trkpt>
      <trkpt lat="48.54834" lon="6.23359">
        <ele>234.2998</ele>
        <time>2026-05-18T09:43:19+02:00</time>
      </trkpt>
      <trkpt lat="48.54839" lon="6.23356">
        <ele>235.7998</ele>
        <time>2026-05-18T09:43:20+02:00</time>
      </trkpt>
      <trkpt lat="48.54844" lon="6.23353">
        <ele>237.2002</ele>
        <time>2026-05-18T09:43:21+02:00</time>
      </trkpt>
      <trkpt lat="48.54849" lon="6.23349">
        <ele>237.2002</ele>
        <time>2026-05-18T09:43:22+02:00</time>
      </trkpt>
      <trkpt lat="48.54852" lon="6.23348">
        <ele>237.90039</ele>
        <time>2026-05-18T09:43:23+02:00</time>
      </trkpt>
      <trkpt lat="48.54859" lon="6.23343">
        <ele>236.2002</ele>
        <time>2026-05-18T09:43:24+02:00</time>
      </trkpt>
      <trkpt lat="48.54864" lon="6.2334">
        <ele>236.10059</ele>
        <time>2026-05-18T09:43:25+02:00</time>
      </trkpt>
      <trkpt lat="48.54869" lon="6.23336">
        <ele>234.2998</ele>
        <time>2026-05-18T09:43:26+02:00</time>
      </trkpt>
      <trkpt lat="48.54875" lon="6.23333">
        <ele>234.40039</ele>
        <time>2026-05-18T09:43:27+02:00</time>
      </trkpt>
      <trkpt lat="48.5488" lon="6.23329">
        <ele>234.60059</ele>
        <time>2026-05-18T09:43:28+02:00</time>
      </trkpt>
      <trkpt lat="48.54884" lon="6.23326">
        <ele>233.60059</ele>
        <time>2026-05-18T09:43:29+02:00</time>
      </trkpt>
      <trkpt lat="48.54889" lon="6.23323">
        <ele>233.7998</ele>
        <time>2026-05-18T09:43:30+02:00</time>
      </trkpt>
      <trkpt lat="48.54894" lon="6.23319">
        <ele>233.10059</ele>
        <time>2026-05-18T09:43:31+02:00</time>
      </trkpt>
      <trkpt lat="48.54899" lon="6.23316">
        <ele>233.2998</ele>
        <time>2026-05-18T09:43:32+02:00</time>
      </trkpt>
      <trkpt lat="48.54905" lon="6.23312">
        <ele>233.7998</ele>
        <time>2026-05-18T09:43:33+02:00</time>
      </trkpt>
      <trkpt lat="48.5491" lon="6.23309">
        <ele>234.10059</ele>
        <time>2026-05-18T09:43:34+02:00</time>
      </trkpt>
      <trkpt lat="48.54915" lon="6.23306">
        <ele>235</ele>
        <time>2026-05-18T09:43:35+02:00</time>
      </trkpt>
      <trkpt lat="48.54919" lon="6.23303">
        <ele>235.7002</ele>
        <time>2026-05-18T09:43:36+02:00</time>
      </trkpt>
      <trkpt lat="48.54924" lon="6.233">
        <ele>235</ele>
        <time>2026-05-18T09:43:37+02:00</time>
      </trkpt>
      <trkpt lat="48.54928" lon="6.23297">
        <ele>235</ele>
        <time>2026-05-18T09:43:38+02:00</time>
      </trkpt>
      <trkpt lat="48.54933" lon="6.23294">
        <ele>235.40039</ele>
        <time>2026-05-18T09:43:39+02:00</time>
      </trkpt>
      <trkpt lat="48.54937" lon="6.23291">
        <ele>234.2998</ele>
        <time>2026-05-18T09:43:40+02:00</time>
      </trkpt>
      <trkpt lat="48.54939" lon="6.23289">
        <ele>234.2998</ele>
        <time>2026-05-18T09:43:41+02:00</time>
      </trkpt>
      <trkpt lat="48.54947" lon="6.23285">
        <ele>234.40039</ele>
        <time>2026-05-18T09:43:42+02:00</time>
      </trkpt>
      <trkpt lat="48.54951" lon="6.23282">
        <ele>234.40039</ele>
        <time>2026-05-18T09:43:43+02:00</time>
      </trkpt>
      <trkpt lat="48.54956" lon="6.23279">
        <ele>235.5</ele>
        <time>2026-05-18T09:43:44+02:00</time>
      </trkpt>
      <trkpt lat="48.54961" lon="6.23276">
        <ele>235.7002</ele>
        <time>2026-05-18T09:43:45+02:00</time>
      </trkpt>
      <trkpt lat="48.54966" lon="6.23273">
        <ele>236.40039</ele>
        <time>2026-05-18T09:43:46+02:00</time>
      </trkpt>
      <trkpt lat="48.54971" lon="6.23269">
        <ele>236.90039</ele>
        <time>2026-05-18T09:43:47+02:00</time>
      </trkpt>
      <trkpt lat="48.54976" lon="6.23265">
        <ele>235.90039</ele>
        <time>2026-05-18T09:43:48+02:00</time>
      </trkpt>
      <trkpt lat="48.54981" lon="6.23262">
        <ele>236.2998</ele>
        <time>2026-05-18T09:43:49+02:00</time>
      </trkpt>
      <trkpt lat="48.54986" lon="6.23259">
        <ele>235.2002</ele>
        <time>2026-05-18T09:43:50+02:00</time>
      </trkpt>
      <trkpt lat="48.54992" lon="6.23255">
        <ele>236.40039</ele>
        <time>2026-05-18T09:43:51+02:00</time>
      </trkpt>
      <trkpt lat="48.54997" lon="6.23252">
        <ele>237.7998</ele>
        <time>2026-05-18T09:43:52+02:00</time>
      </trkpt>
      <trkpt lat="48.55002" lon="6.23249">
        <ele>237.2002</ele>
        <time>2026-05-18T09:43:53+02:00</time>
      </trkpt>
      <trkpt lat="48.55007" lon="6.23245">
        <ele>238.5</ele>
        <time>2026-05-18T09:43:54+02:00</time>
      </trkpt>
      <trkpt lat="48.55012" lon="6.23242">
        <ele>238</ele>
        <time>2026-05-18T09:43:55+02:00</time>
      </trkpt>
      <trkpt lat="48.55018" lon="6.23239">
        <ele>237.7002</ele>
        <time>2026-05-18T09:43:56+02:00</time>
      </trkpt>
      <trkpt lat="48.55023" lon="6.23235">
        <ele>237.2998</ele>
        <time>2026-05-18T09:43:57+02:00</time>
      </trkpt>
      <trkpt lat="48.55029" lon="6.23232">
        <ele>236</ele>
        <time>2026-05-18T09:43:58+02:00</time>
      </trkpt>
      <trkpt lat="48.55034" lon="6.23228">
        <ele>236.2002</ele>
        <time>2026-05-18T09:43:59+02:00</time>
      </trkpt>
      <trkpt lat="48.55039" lon="6.23224">
        <ele>235</ele>
        <time>2026-05-18T09:44:00+02:00</time>
      </trkpt>
      <trkpt lat="48.55044" lon="6.23221">
        <ele>235.2998</ele>
        <time>2026-05-18T09:44:01+02:00</time>
      </trkpt>
      <trkpt lat="48.55049" lon="6.23218">
        <ele>235.7002</ele>
        <time>2026-05-18T09:44:02+02:00</time>
      </trkpt>
      <trkpt lat="48.55054" lon="6.23214">
        <ele>235</ele>
        <time>2026-05-18T09:44:03+02:00</time>
      </trkpt>
      <trkpt lat="48.55059" lon="6.23211">
        <ele>235</ele>
        <time>2026-05-18T09:44:04+02:00</time>
      </trkpt>
      <trkpt lat="48.55065" lon="6.23207">
        <ele>236</ele>
        <time>2026-05-18T09:44:05+02:00</time>
      </trkpt>
      <trkpt lat="48.5507" lon="6.23204">
        <ele>236</ele>
        <time>2026-05-18T09:44:06+02:00</time>
      </trkpt>
      <trkpt lat="48.55075" lon="6.23201">
        <ele>236.7998</ele>
        <time>2026-05-18T09:44:07+02:00</time>
      </trkpt>
      <trkpt lat="48.5508" lon="6.23198">
        <ele>236.5</ele>
        <time>2026-05-18T09:44:08+02:00</time>
      </trkpt>
      <trkpt lat="48.55085" lon="6.23195">
        <ele>237</ele>
        <time>2026-05-18T09:44:09+02:00</time>
      </trkpt>
      <trkpt lat="48.5509" lon="6.23192">
        <ele>237.60059</ele>
        <time>2026-05-18T09:44:10+02:00</time>
      </trkpt>
      <trkpt lat="48.55095" lon="6.23189">
        <ele>236.40039</ele>
        <time>2026-05-18T09:44:11+02:00</time>
      </trkpt>
      <trkpt lat="48.55099" lon="6.23186">
        <ele>237.2002</ele>
        <time>2026-05-18T09:44:12+02:00</time>
      </trkpt>
      <trkpt lat="48.55104" lon="6.23183">
        <ele>237.2002</ele>
        <time>2026-05-18T09:44:13+02:00</time>
      </trkpt>
      <trkpt lat="48.55109" lon="6.23179">
        <ele>237.2002</ele>
        <time>2026-05-18T09:44:14+02:00</time>
      </trkpt>
      <trkpt lat="48.55111" lon="6.23178">
        <ele>238.5</ele>
        <time>2026-05-18T09:44:15+02:00</time>
      </trkpt>
      <trkpt lat="48.55119" lon="6.23173">
        <ele>238.60059</ele>
        <time>2026-05-18T09:44:16+02:00</time>
      </trkpt>
      <trkpt lat="48.55124" lon="6.23169">
        <ele>238.60059</ele>
        <time>2026-05-18T09:44:17+02:00</time>
      </trkpt>
      <trkpt lat="48.55129" lon="6.23166">
        <ele>238.60059</ele>
        <time>2026-05-18T09:44:18+02:00</time>
      </trkpt>
      <trkpt lat="48.55134" lon="6.23163">
        <ele>237.90039</ele>
        <time>2026-05-18T09:44:19+02:00</time>
      </trkpt>
      <trkpt lat="48.55139" lon="6.2316">
        <ele>237.90039</ele>
        <time>2026-05-18T09:44:20+02:00</time>
      </trkpt>
      <trkpt lat="48.55144" lon="6.23156">
        <ele>236.7002</ele>
        <time>2026-05-18T09:44:21+02:00</time>
      </trkpt>
      <trkpt lat="48.55149" lon="6.23153">
        <ele>237.2002</ele>
        <time>2026-05-18T09:44:22+02:00</time>
      </trkpt>
      <trkpt lat="48.55153" lon="6.2315">
        <ele>237.7002</ele>
        <time>2026-05-18T09:44:23+02:00</time>
      </trkpt>
      <trkpt lat="48.55159" lon="6.23146">
        <ele>237.90039</ele>
        <time>2026-05-18T09:44:24+02:00</time>
      </trkpt>
      <trkpt lat="48.55163" lon="6.23143">
        <ele>238</ele>
        <time>2026-05-18T09:44:25+02:00</time>
      </trkpt>
      <trkpt lat="48.55168" lon="6.23139">
        <ele>237.60059</ele>
        <time>2026-05-18T09:44:26+02:00</time>
      </trkpt>
      <trkpt lat="48.55172" lon="6.23136">
        <ele>237.60059</ele>
        <time>2026-05-18T09:44:27+02:00</time>
      </trkpt>
      <trkpt lat="48.55177" lon="6.23132">
        <ele>237.5</ele>
        <time>2026-05-18T09:44:28+02:00</time>
      </trkpt>
      <trkpt lat="48.55182" lon="6.23128">
        <ele>237</ele>
        <time>2026-05-18T09:44:29+02:00</time>
      </trkpt>
      <trkpt lat="48.55187" lon="6.23123">
        <ele>237</ele>
        <time>2026-05-18T09:44:30+02:00</time>
      </trkpt>
      <trkpt lat="48.55192" lon="6.23119">
        <ele>236.7002</ele>
        <time>2026-05-18T09:44:31+02:00</time>
      </trkpt>
      <trkpt lat="48.55196" lon="6.23114">
        <ele>237</ele>
        <time>2026-05-18T09:44:32+02:00</time>
      </trkpt>
      <trkpt lat="48.552" lon="6.2311">
        <ele>237</ele>
        <time>2026-05-18T09:44:33+02:00</time>
      </trkpt>
      <trkpt lat="48.55205" lon="6.23105">
        <ele>237.7998</ele>
        <time>2026-05-18T09:44:34+02:00</time>
      </trkpt>
      <trkpt lat="48.55208" lon="6.23101">
        <ele>237.7002</ele>
        <time>2026-05-18T09:44:35+02:00</time>
      </trkpt>
      <trkpt lat="48.55213" lon="6.23096">
        <ele>237.60059</ele>
        <time>2026-05-18T09:44:36+02:00</time>
      </trkpt>
      <trkpt lat="48.55217" lon="6.23091">
        <ele>237.60059</ele>
        <time>2026-05-18T09:44:37+02:00</time>
      </trkpt>
      <trkpt lat="48.55222" lon="6.23086">
        <ele>237.40039</ele>
        <time>2026-05-18T09:44:38+02:00</time>
      </trkpt>
      <trkpt lat="48.55224" lon="6.23083">
        <ele>237.40039</ele>
        <time>2026-05-18T09:44:39+02:00</time>
      </trkpt>
      <trkpt lat="48.5523" lon="6.23076">
        <ele>237.60059</ele>
        <time>2026-05-18T09:44:40+02:00</time>
      </trkpt>
      <trkpt lat="48.55235" lon="6.23071">
        <ele>237.60059</ele>
        <time>2026-05-18T09:44:41+02:00</time>
      </trkpt>
      <trkpt lat="48.55239" lon="6.23065">
        <ele>237.5</ele>
        <time>2026-05-18T09:44:42+02:00</time>
      </trkpt>
      <trkpt lat="48.55243" lon="6.2306">
        <ele>237</ele>
        <time>2026-05-18T09:44:43+02:00</time>
      </trkpt>
      <trkpt lat="48.55246" lon="6.23055">
        <ele>237</ele>
        <time>2026-05-18T09:44:44+02:00</time>
      </trkpt>
      <trkpt lat="48.5525" lon="6.2305">
        <ele>236.40039</ele>
        <time>2026-05-18T09:44:45+02:00</time>
      </trkpt>
      <trkpt lat="48.55253" lon="6.23045">
        <ele>236.5</ele>
        <time>2026-05-18T09:44:46+02:00</time>
      </trkpt>
      <trkpt lat="48.55256" lon="6.2304">
        <ele>235.90039</ele>
        <time>2026-05-18T09:44:47+02:00</time>
      </trkpt>
      <trkpt lat="48.5526" lon="6.23035">
        <ele>235.90039</ele>
        <time>2026-05-18T09:44:48+02:00</time>
      </trkpt>
      <trkpt lat="48.55263" lon="6.2303">
        <ele>235.90039</ele>
        <time>2026-05-18T09:44:49+02:00</time>
      </trkpt>
      <trkpt lat="48.55266" lon="6.23025">
        <ele>236</ele>
        <time>2026-05-18T09:44:50+02:00</time>
      </trkpt>
      <trkpt lat="48.5527" lon="6.2302">
        <ele>236.40039</ele>
        <time>2026-05-18T09:44:51+02:00</time>
      </trkpt>
      <trkpt lat="48.55273" lon="6.23015">
        <ele>236.10059</ele>
        <time>2026-05-18T09:44:52+02:00</time>
      </trkpt>
      <trkpt lat="48.55277" lon="6.2301">
        <ele>236</ele>
        <time>2026-05-18T09:44:53+02:00</time>
      </trkpt>
      <trkpt lat="48.5528" lon="6.23004">
        <ele>236</ele>
        <time>2026-05-18T09:44:54+02:00</time>
      </trkpt>
      <trkpt lat="48.55284" lon="6.22998">
        <ele>236.2002</ele>
        <time>2026-05-18T09:44:55+02:00</time>
      </trkpt>
      <trkpt lat="48.55288" lon="6.22992">
        <ele>236.60059</ele>
        <time>2026-05-18T09:44:56+02:00</time>
      </trkpt>
      <trkpt lat="48.55292" lon="6.22986">
        <ele>236.60059</ele>
        <time>2026-05-18T09:44:57+02:00</time>
      </trkpt>
      <trkpt lat="48.55296" lon="6.2298">
        <ele>236.2998</ele>
        <time>2026-05-18T09:44:58+02:00</time>
      </trkpt>
      <trkpt lat="48.553" lon="6.22974">
        <ele>235.5</ele>
        <time>2026-05-18T09:44:59+02:00</time>
      </trkpt>
      <trkpt lat="48.55304" lon="6.22969">
        <ele>235.5</ele>
        <time>2026-05-18T09:45:00+02:00</time>
      </trkpt>
      <trkpt lat="48.55308" lon="6.22964">
        <ele>234.5</ele>
        <time>2026-05-18T09:45:01+02:00</time>
      </trkpt>
      <trkpt lat="48.55312" lon="6.2296">
        <ele>234.7002</ele>
        <time>2026-05-18T09:45:02+02:00</time>
      </trkpt>
      <trkpt lat="48.55316" lon="6.22956">
        <ele>234.40039</ele>
        <time>2026-05-18T09:45:03+02:00</time>
      </trkpt>
      <trkpt lat="48.5532" lon="6.22952">
        <ele>234.40039</ele>
        <time>2026-05-18T09:45:04+02:00</time>
      </trkpt>
      <trkpt lat="48.55325" lon="6.22948">
        <ele>234.60059</ele>
        <time>2026-05-18T09:45:05+02:00</time>
      </trkpt>
      <trkpt lat="48.55329" lon="6.22944">
        <ele>235.2002</ele>
        <time>2026-05-18T09:45:06+02:00</time>
      </trkpt>
      <trkpt lat="48.55333" lon="6.2294">
        <ele>235.2002</ele>
        <time>2026-05-18T09:45:07+02:00</time>
      </trkpt>
      <trkpt lat="48.55337" lon="6.22935">
        <ele>235.2002</ele>
        <time>2026-05-18T09:45:08+02:00</time>
      </trkpt>
      <trkpt lat="48.5534" lon="6.2293">
        <ele>234.90039</ele>
        <time>2026-05-18T09:45:09+02:00</time>
      </trkpt>
      <trkpt lat="48.55343" lon="6.22925">
        <ele>234.90039</ele>
        <time>2026-05-18T09:45:10+02:00</time>
      </trkpt>
      <trkpt lat="48.55347" lon="6.22921">
        <ele>235.10059</ele>
        <time>2026-05-18T09:45:11+02:00</time>
      </trkpt>
      <trkpt lat="48.5535" lon="6.22916">
        <ele>235.5</ele>
        <time>2026-05-18T09:45:12+02:00</time>
      </trkpt>
      <trkpt lat="48.55353" lon="6.22911">
        <ele>235.5</ele>
        <time>2026-05-18T09:45:13+02:00</time>
      </trkpt>
      <trkpt lat="48.55356" lon="6.22906">
        <ele>235.40039</ele>
        <time>2026-05-18T09:45:14+02:00</time>
      </trkpt>
      <trkpt lat="48.55358" lon="6.22902">
        <ele>235.40039</ele>
        <time>2026-05-18T09:45:15+02:00</time>
      </trkpt>
      <trkpt lat="48.55361" lon="6.22899">
        <ele>234.5</ele>
        <time>2026-05-18T09:45:16+02:00</time>
      </trkpt>
      <trkpt lat="48.55363" lon="6.22895">
        <ele>234.5</ele>
        <time>2026-05-18T09:45:17+02:00</time>
      </trkpt>
      <trkpt lat="48.55366" lon="6.22892">
        <ele>234.5</ele>
        <time>2026-05-18T09:45:18+02:00</time>
      </trkpt>
      <trkpt lat="48.55369" lon="6.22888">
        <ele>233.7002</ele>
        <time>2026-05-18T09:45:19+02:00</time>
      </trkpt>
      <trkpt lat="48.55372" lon="6.22885">
        <ele>233.90039</ele>
        <time>2026-05-18T09:45:20+02:00</time>
      </trkpt>
      <trkpt lat="48.55375" lon="6.22881">
        <ele>233.40039</ele>
        <time>2026-05-18T09:45:21+02:00</time>
      </trkpt>
      <trkpt lat="48.55379" lon="6.22876">
        <ele>233.60059</ele>
        <time>2026-05-18T09:45:22+02:00</time>
      </trkpt>
      <trkpt lat="48.55381" lon="6.22874">
        <ele>233.60059</ele>
        <time>2026-05-18T09:45:23+02:00</time>
      </trkpt>
      <trkpt lat="48.55387" lon="6.22867">
        <ele>233.7002</ele>
        <time>2026-05-18T09:45:24+02:00</time>
      </trkpt>
      <trkpt lat="48.55391" lon="6.22861">
        <ele>233.7002</ele>
        <time>2026-05-18T09:45:25+02:00</time>
      </trkpt>
      <trkpt lat="48.55394" lon="6.22854">
        <ele>233.40039</ele>
        <time>2026-05-18T09:45:26+02:00</time>
      </trkpt>
      <trkpt lat="48.55398" lon="6.22847">
        <ele>233.40039</ele>
        <time>2026-05-18T09:45:27+02:00</time>
      </trkpt>
      <trkpt lat="48.55402" lon="6.22841">
        <ele>233.5</ele>
        <time>2026-05-18T09:45:28+02:00</time>
      </trkpt>
      <trkpt lat="48.55406" lon="6.22834">
        <ele>233.5</ele>
        <time>2026-05-18T09:45:29+02:00</time>
      </trkpt>
      <trkpt lat="48.55411" lon="6.22829">
        <ele>233.2002</ele>
        <time>2026-05-18T09:45:30+02:00</time>
      </trkpt>
      <trkpt lat="48.55415" lon="6.22824">
        <ele>233.40039</ele>
        <time>2026-05-18T09:45:31+02:00</time>
      </trkpt>
      <trkpt lat="48.55419" lon="6.22819">
        <ele>233.2998</ele>
        <time>2026-05-18T09:45:32+02:00</time>
      </trkpt>
      <trkpt lat="48.55423" lon="6.22815">
        <ele>233.2998</ele>
        <time>2026-05-18T09:45:33+02:00</time>
      </trkpt>
      <trkpt lat="48.55428" lon="6.2281">
        <ele>233.2998</ele>
        <time>2026-05-18T09:45:34+02:00</time>
      </trkpt>
      <trkpt lat="48.55432" lon="6.22805">
        <ele>233.2998</ele>
        <time>2026-05-18T09:45:35+02:00</time>
      </trkpt>
      <trkpt lat="48.55436" lon="6.228">
        <ele>233.40039</ele>
        <time>2026-05-18T09:45:36+02:00</time>
      </trkpt>
      <trkpt lat="48.5544" lon="6.22796">
        <ele>233.2998</ele>
        <time>2026-05-18T09:45:37+02:00</time>
      </trkpt>
      <trkpt lat="48.55445" lon="6.22791">
        <ele>233.2998</ele>
        <time>2026-05-18T09:45:38+02:00</time>
      </trkpt>
      <trkpt lat="48.55449" lon="6.22786">
        <ele>233.10059</ele>
        <time>2026-05-18T09:45:39+02:00</time>
      </trkpt>
      <trkpt lat="48.55454" lon="6.22781">
        <ele>233.10059</ele>
        <time>2026-05-18T09:45:40+02:00</time>
      </trkpt>
      <trkpt lat="48.55458" lon="6.22777">
        <ele>233.2002</ele>
        <time>2026-05-18T09:45:41+02:00</time>
      </trkpt>
      <trkpt lat="48.55462" lon="6.22772">
        <ele>233.2002</ele>
        <time>2026-05-18T09:45:42+02:00</time>
      </trkpt>
      <trkpt lat="48.55466" lon="6.22767">
        <ele>233.40039</ele>
        <time>2026-05-18T09:45:43+02:00</time>
      </trkpt>
      <trkpt lat="48.55469" lon="6.22765">
        <ele>233.60059</ele>
        <time>2026-05-18T09:45:44+02:00</time>
      </trkpt>
      <trkpt lat="48.55475" lon="6.22758">
        <ele>233.7998</ele>
        <time>2026-05-18T09:45:45+02:00</time>
      </trkpt>
      <trkpt lat="48.5548" lon="6.22753">
        <ele>233.7998</ele>
        <time>2026-05-18T09:45:46+02:00</time>
      </trkpt>
      <trkpt lat="48.55484" lon="6.22748">
        <ele>233.7998</ele>
        <time>2026-05-18T09:45:47+02:00</time>
      </trkpt>
      <trkpt lat="48.55488" lon="6.22744">
        <ele>233.5</ele>
        <time>2026-05-18T09:45:48+02:00</time>
      </trkpt>
      <trkpt lat="48.55493" lon="6.22739">
        <ele>233.5</ele>
        <time>2026-05-18T09:45:49+02:00</time>
      </trkpt>
      <trkpt lat="48.55497" lon="6.22734">
        <ele>233.2998</ele>
        <time>2026-05-18T09:45:50+02:00</time>
      </trkpt>
      <trkpt lat="48.55501" lon="6.2273">
        <ele>233.2998</ele>
        <time>2026-05-18T09:45:51+02:00</time>
      </trkpt>
      <trkpt lat="48.55506" lon="6.22725">
        <ele>233.2998</ele>
        <time>2026-05-18T09:45:52+02:00</time>
      </trkpt>
      <trkpt lat="48.5551" lon="6.2272">
        <ele>233.40039</ele>
        <time>2026-05-18T09:45:53+02:00</time>
      </trkpt>
      <trkpt lat="48.55514" lon="6.22716">
        <ele>233.60059</ele>
        <time>2026-05-18T09:45:54+02:00</time>
      </trkpt>
      <trkpt lat="48.55519" lon="6.22711">
        <ele>233.60059</ele>
        <time>2026-05-18T09:45:55+02:00</time>
      </trkpt>
      <trkpt lat="48.55523" lon="6.22706">
        <ele>233.5</ele>
        <time>2026-05-18T09:45:56+02:00</time>
      </trkpt>
      <trkpt lat="48.55528" lon="6.22702">
        <ele>233.7002</ele>
        <time>2026-05-18T09:45:57+02:00</time>
      </trkpt>
      <trkpt lat="48.55531" lon="6.22697">
        <ele>233.7002</ele>
        <time>2026-05-18T09:45:58+02:00</time>
      </trkpt>
      <trkpt lat="48.55536" lon="6.22693">
        <ele>233.5</ele>
        <time>2026-05-18T09:45:59+02:00</time>
      </trkpt>
      <trkpt lat="48.5554" lon="6.22688">
        <ele>233.7998</ele>
        <time>2026-05-18T09:46:00+02:00</time>
      </trkpt>
      <trkpt lat="48.55544" lon="6.22683">
        <ele>233.7998</ele>
        <time>2026-05-18T09:46:01+02:00</time>
      </trkpt>
      <trkpt lat="48.55549" lon="6.22678">
        <ele>234</ele>
        <time>2026-05-18T09:46:02+02:00</time>
      </trkpt>
      <trkpt lat="48.55553" lon="6.22674">
        <ele>233.7002</ele>
        <time>2026-05-18T09:46:03+02:00</time>
      </trkpt>
      <trkpt lat="48.55557" lon="6.22669">
        <ele>233.90039</ele>
        <time>2026-05-18T09:46:04+02:00</time>
      </trkpt>
      <trkpt lat="48.55562" lon="6.22664">
        <ele>233.90039</ele>
        <time>2026-05-18T09:46:05+02:00</time>
      </trkpt>
      <trkpt lat="48.55565" lon="6.22659">
        <ele>234</ele>
        <time>2026-05-18T09:46:06+02:00</time>
      </trkpt>
      <trkpt lat="48.5557" lon="6.22654">
        <ele>233.90039</ele>
        <time>2026-05-18T09:46:07+02:00</time>
      </trkpt>
      <trkpt lat="48.55574" lon="6.22649">
        <ele>233.7998</ele>
        <time>2026-05-18T09:46:08+02:00</time>
      </trkpt>
      <trkpt lat="48.55578" lon="6.22644">
        <ele>233.7998</ele>
        <time>2026-05-18T09:46:09+02:00</time>
      </trkpt>
      <trkpt lat="48.55582" lon="6.22639">
        <ele>233.60059</ele>
        <time>2026-05-18T09:46:10+02:00</time>
      </trkpt>
      <trkpt lat="48.55586" lon="6.22634">
        <ele>233.60059</ele>
        <time>2026-05-18T09:46:11+02:00</time>
      </trkpt>
      <trkpt lat="48.5559" lon="6.22629">
        <ele>233.40039</ele>
        <time>2026-05-18T09:46:12+02:00</time>
      </trkpt>
      <trkpt lat="48.55594" lon="6.22624">
        <ele>233.2998</ele>
        <time>2026-05-18T09:46:13+02:00</time>
      </trkpt>
      <trkpt lat="48.55598" lon="6.22619">
        <ele>233.2998</ele>
        <time>2026-05-18T09:46:14+02:00</time>
      </trkpt>
      <trkpt lat="48.55602" lon="6.22613">
        <ele>233.2998</ele>
        <time>2026-05-18T09:46:15+02:00</time>
      </trkpt>
      <trkpt lat="48.55606" lon="6.22607">
        <ele>233.5</ele>
        <time>2026-05-18T09:46:16+02:00</time>
      </trkpt>
      <trkpt lat="48.5561" lon="6.22602">
        <ele>233.5</ele>
        <time>2026-05-18T09:46:17+02:00</time>
      </trkpt>
      <trkpt lat="48.55614" lon="6.22597">
        <ele>233.40039</ele>
        <time>2026-05-18T09:46:18+02:00</time>
      </trkpt>
      <trkpt lat="48.55618" lon="6.22591">
        <ele>233.7002</ele>
        <time>2026-05-18T09:46:19+02:00</time>
      </trkpt>
      <trkpt lat="48.55622" lon="6.22586">
        <ele>233.7998</ele>
        <time>2026-05-18T09:46:20+02:00</time>
      </trkpt>
      <trkpt lat="48.55626" lon="6.22581">
        <ele>233.7002</ele>
        <time>2026-05-18T09:46:21+02:00</time>
      </trkpt>
      <trkpt lat="48.5563" lon="6.22575">
        <ele>234</ele>
        <time>2026-05-18T09:46:22+02:00</time>
      </trkpt>
      <trkpt lat="48.55634" lon="6.2257">
        <ele>234</ele>
        <time>2026-05-18T09:46:23+02:00</time>
      </trkpt>
      <trkpt lat="48.55637" lon="6.22564">
        <ele>233.7002</ele>
        <time>2026-05-18T09:46:24+02:00</time>
      </trkpt>
      <trkpt lat="48.55642" lon="6.22559">
        <ele>234.10059</ele>
        <time>2026-05-18T09:46:25+02:00</time>
      </trkpt>
      <trkpt lat="48.55646" lon="6.22553">
        <ele>234.40039</ele>
        <time>2026-05-18T09:46:26+02:00</time>
      </trkpt>
      <trkpt lat="48.5565" lon="6.22547">
        <ele>234.10059</ele>
        <time>2026-05-18T09:46:27+02:00</time>
      </trkpt>
      <trkpt lat="48.55654" lon="6.22541">
        <ele>234.7002</ele>
        <time>2026-05-18T09:46:28+02:00</time>
      </trkpt>
      <trkpt lat="48.55657" lon="6.22535">
        <ele>234.5</ele>
        <time>2026-05-18T09:46:29+02:00</time>
      </trkpt>
      <trkpt lat="48.5566" lon="6.22529">
        <ele>233.7002</ele>
        <time>2026-05-18T09:46:30+02:00</time>
      </trkpt>
      <trkpt lat="48.55664" lon="6.22523">
        <ele>234.7002</ele>
        <time>2026-05-18T09:46:31+02:00</time>
      </trkpt>
      <trkpt lat="48.55668" lon="6.22518">
        <ele>235.7002</ele>
        <time>2026-05-18T09:46:32+02:00</time>
      </trkpt>
      <trkpt lat="48.55671" lon="6.22512">
        <ele>235.90039</ele>
        <time>2026-05-18T09:46:33+02:00</time>
      </trkpt>
      <trkpt lat="48.55675" lon="6.22506">
        <ele>236.7998</ele>
        <time>2026-05-18T09:46:34+02:00</time>
      </trkpt>
      <trkpt lat="48.55678" lon="6.22501">
        <ele>235.90039</ele>
        <time>2026-05-18T09:46:35+02:00</time>
      </trkpt>
      <trkpt lat="48.55682" lon="6.22495">
        <ele>234.5</ele>
        <time>2026-05-18T09:46:36+02:00</time>
      </trkpt>
      <trkpt lat="48.55685" lon="6.2249">
        <ele>235.2002</ele>
        <time>2026-05-18T09:46:37+02:00</time>
      </trkpt>
      <trkpt lat="48.55689" lon="6.22484">
        <ele>234.2998</ele>
        <time>2026-05-18T09:46:38+02:00</time>
      </trkpt>
      <trkpt lat="48.55692" lon="6.22478">
        <ele>235.7002</ele>
        <time>2026-05-18T09:46:39+02:00</time>
      </trkpt>
      <trkpt lat="48.55696" lon="6.22472">
        <ele>236.7002</ele>
        <time>2026-05-18T09:46:40+02:00</time>
      </trkpt>
      <trkpt lat="48.55699" lon="6.22466">
        <ele>235.90039</ele>
        <time>2026-05-18T09:46:41+02:00</time>
      </trkpt>
      <trkpt lat="48.55702" lon="6.22461">
        <ele>234.2998</ele>
        <time>2026-05-18T09:46:42+02:00</time>
      </trkpt>
      <trkpt lat="48.55706" lon="6.22455">
        <ele>234.2998</ele>
        <time>2026-05-18T09:46:43+02:00</time>
      </trkpt>
      <trkpt lat="48.55709" lon="6.22449">
        <ele>233</ele>
        <time>2026-05-18T09:46:44+02:00</time>
      </trkpt>
      <trkpt lat="48.55711" lon="6.22444">
        <ele>232.7002</ele>
        <time>2026-05-18T09:46:45+02:00</time>
      </trkpt>
      <trkpt lat="48.55714" lon="6.22439">
        <ele>232.7998</ele>
        <time>2026-05-18T09:46:46+02:00</time>
      </trkpt>
      <trkpt lat="48.55717" lon="6.22433">
        <ele>232.7998</ele>
        <time>2026-05-18T09:46:47+02:00</time>
      </trkpt>
      <trkpt lat="48.5572" lon="6.22427">
        <ele>232.7002</ele>
        <time>2026-05-18T09:46:48+02:00</time>
      </trkpt>
      <trkpt lat="48.55721" lon="6.22424">
        <ele>232.60059</ele>
        <time>2026-05-18T09:46:49+02:00</time>
      </trkpt>
      <trkpt lat="48.55726" lon="6.22415">
        <ele>232.2002</ele>
        <time>2026-05-18T09:46:50+02:00</time>
      </trkpt>
      <trkpt lat="48.55729" lon="6.2241">
        <ele>232.2002</ele>
        <time>2026-05-18T09:46:51+02:00</time>
      </trkpt>
      <trkpt lat="48.55732" lon="6.22404">
        <ele>232.60059</ele>
        <time>2026-05-18T09:46:52+02:00</time>
      </trkpt>
      <trkpt lat="48.55736" lon="6.22398">
        <ele>232.7002</ele>
        <time>2026-05-18T09:46:53+02:00</time>
      </trkpt>
      <trkpt lat="48.55738" lon="6.22393">
        <ele>232.7002</ele>
        <time>2026-05-18T09:46:54+02:00</time>
      </trkpt>
      <trkpt lat="48.55741" lon="6.22387">
        <ele>232.7002</ele>
        <time>2026-05-18T09:46:55+02:00</time>
      </trkpt>
      <trkpt lat="48.55744" lon="6.22381">
        <ele>232.5</ele>
        <time>2026-05-18T09:46:56+02:00</time>
      </trkpt>
      <trkpt lat="48.55747" lon="6.22376">
        <ele>232.2002</ele>
        <time>2026-05-18T09:46:57+02:00</time>
      </trkpt>
      <trkpt lat="48.5575" lon="6.2237">
        <ele>232.5</ele>
        <time>2026-05-18T09:46:58+02:00</time>
      </trkpt>
      <trkpt lat="48.55753" lon="6.22364">
        <ele>232.7002</ele>
        <time>2026-05-18T09:46:59+02:00</time>
      </trkpt>
      <trkpt lat="48.55757" lon="6.22359">
        <ele>232.7002</ele>
        <time>2026-05-18T09:47:00+02:00</time>
      </trkpt>
      <trkpt lat="48.5576" lon="6.22353">
        <ele>232.60059</ele>
        <time>2026-05-18T09:47:01+02:00</time>
      </trkpt>
      <trkpt lat="48.55763" lon="6.22347">
        <ele>232.90039</ele>
        <time>2026-05-18T09:47:02+02:00</time>
      </trkpt>
      <trkpt lat="48.55766" lon="6.22342">
        <ele>232.2998</ele>
        <time>2026-05-18T09:47:03+02:00</time>
      </trkpt>
      <trkpt lat="48.55769" lon="6.22336">
        <ele>233.10059</ele>
        <time>2026-05-18T09:47:04+02:00</time>
      </trkpt>
      <trkpt lat="48.55772" lon="6.22331">
        <ele>234.7998</ele>
        <time>2026-05-18T09:47:05+02:00</time>
      </trkpt>
      <trkpt lat="48.55775" lon="6.22325">
        <ele>235.40039</ele>
        <time>2026-05-18T09:47:06+02:00</time>
      </trkpt>
      <trkpt lat="48.55778" lon="6.2232">
        <ele>235</ele>
        <time>2026-05-18T09:47:07+02:00</time>
      </trkpt>
      <trkpt lat="48.55781" lon="6.22314">
        <ele>234</ele>
        <time>2026-05-18T09:47:08+02:00</time>
      </trkpt>
      <trkpt lat="48.55784" lon="6.22309">
        <ele>234</ele>
        <time>2026-05-18T09:47:09+02:00</time>
      </trkpt>
      <trkpt lat="48.55787" lon="6.22303">
        <ele>233.2998</ele>
        <time>2026-05-18T09:47:10+02:00</time>
      </trkpt>
      <trkpt lat="48.55789" lon="6.22298">
        <ele>233.7998</ele>
        <time>2026-05-18T09:47:11+02:00</time>
      </trkpt>
      <trkpt lat="48.55792" lon="6.22292">
        <ele>233.7998</ele>
        <time>2026-05-18T09:47:12+02:00</time>
      </trkpt>
      <trkpt lat="48.55795" lon="6.22287">
        <ele>235.40039</ele>
        <time>2026-05-18T09:47:13+02:00</time>
      </trkpt>
      <trkpt lat="48.55798" lon="6.22281">
        <ele>234.7002</ele>
        <time>2026-05-18T09:47:14+02:00</time>
      </trkpt>
      <trkpt lat="48.558" lon="6.22275">
        <ele>234.7002</ele>
        <time>2026-05-18T09:47:15+02:00</time>
      </trkpt>
      <trkpt lat="48.55803" lon="6.22269">
        <ele>234.2002</ele>
        <time>2026-05-18T09:47:16+02:00</time>
      </trkpt>
      <trkpt lat="48.55806" lon="6.22263">
        <ele>232.90039</ele>
        <time>2026-05-18T09:47:17+02:00</time>
      </trkpt>
      <trkpt lat="48.55808" lon="6.22257">
        <ele>232.90039</ele>
        <time>2026-05-18T09:47:18+02:00</time>
      </trkpt>
      <trkpt lat="48.55811" lon="6.22251">
        <ele>232.7998</ele>
        <time>2026-05-18T09:47:19+02:00</time>
      </trkpt>
      <trkpt lat="48.55814" lon="6.22245">
        <ele>232.7002</ele>
        <time>2026-05-18T09:47:20+02:00</time>
      </trkpt>
      <trkpt lat="48.55816" lon="6.2224">
        <ele>233.10059</ele>
        <time>2026-05-18T09:47:21+02:00</time>
      </trkpt>
      <trkpt lat="48.55818" lon="6.22234">
        <ele>232.60059</ele>
        <time>2026-05-18T09:47:22+02:00</time>
      </trkpt>
      <trkpt lat="48.5582" lon="6.2223">
        <ele>232.60059</ele>
        <time>2026-05-18T09:47:23+02:00</time>
      </trkpt>
      <trkpt lat="48.55822" lon="6.22226">
        <ele>232.90039</ele>
        <time>2026-05-18T09:47:24+02:00</time>
      </trkpt>
      <trkpt lat="48.55824" lon="6.22221">
        <ele>232.7998</ele>
        <time>2026-05-18T09:47:25+02:00</time>
      </trkpt>
      <trkpt lat="48.55826" lon="6.22217">
        <ele>233</ele>
        <time>2026-05-18T09:47:26+02:00</time>
      </trkpt>
      <trkpt lat="48.55827" lon="6.22211">
        <ele>232.7002</ele>
        <time>2026-05-18T09:47:27+02:00</time>
      </trkpt>
      <trkpt lat="48.55829" lon="6.22205">
        <ele>232.7002</ele>
        <time>2026-05-18T09:47:28+02:00</time>
      </trkpt>
      <trkpt lat="48.5583" lon="6.22199">
        <ele>232.7998</ele>
        <time>2026-05-18T09:47:29+02:00</time>
      </trkpt>
      <trkpt lat="48.55832" lon="6.22192">
        <ele>234</ele>
        <time>2026-05-18T09:47:30+02:00</time>
      </trkpt>
      <trkpt lat="48.55834" lon="6.22185">
        <ele>234.7002</ele>
        <time>2026-05-18T09:47:31+02:00</time>
      </trkpt>
      <trkpt lat="48.55837" lon="6.22178">
        <ele>235.10059</ele>
        <time>2026-05-18T09:47:32+02:00</time>
      </trkpt>
      <trkpt lat="48.55839" lon="6.22172">
        <ele>234.60059</ele>
        <time>2026-05-18T09:47:33+02:00</time>
      </trkpt>
      <trkpt lat="48.55842" lon="6.22165">
        <ele>234.40039</ele>
        <time>2026-05-18T09:47:34+02:00</time>
      </trkpt>
      <trkpt lat="48.55844" lon="6.22158">
        <ele>233.2002</ele>
        <time>2026-05-18T09:47:35+02:00</time>
      </trkpt>
      <trkpt lat="48.55846" lon="6.22151">
        <ele>233</ele>
        <time>2026-05-18T09:47:36+02:00</time>
      </trkpt>
      <trkpt lat="48.55848" lon="6.22145">
        <ele>233</ele>
        <time>2026-05-18T09:47:37+02:00</time>
      </trkpt>
      <trkpt lat="48.5585" lon="6.22139">
        <ele>232.60059</ele>
        <time>2026-05-18T09:47:38+02:00</time>
      </trkpt>
      <trkpt lat="48.55851" lon="6.22133">
        <ele>232.5</ele>
        <time>2026-05-18T09:47:39+02:00</time>
      </trkpt>
      <trkpt lat="48.55853" lon="6.22127">
        <ele>232.5</ele>
        <time>2026-05-18T09:47:40+02:00</time>
      </trkpt>
      <trkpt lat="48.55856" lon="6.2212">
        <ele>232.7002</ele>
        <time>2026-05-18T09:47:41+02:00</time>
      </trkpt>
      <trkpt lat="48.55858" lon="6.22115">
        <ele>233.2002</ele>
        <time>2026-05-18T09:47:42+02:00</time>
      </trkpt>
      <trkpt lat="48.5586" lon="6.22109">
        <ele>233.7998</ele>
        <time>2026-05-18T09:47:43+02:00</time>
      </trkpt>
      <trkpt lat="48.55862" lon="6.22103">
        <ele>233.40039</ele>
        <time>2026-05-18T09:47:44+02:00</time>
      </trkpt>
      <trkpt lat="48.55864" lon="6.22097">
        <ele>233.60059</ele>
        <time>2026-05-18T09:47:45+02:00</time>
      </trkpt>
      <trkpt lat="48.55866" lon="6.2209">
        <ele>233.7002</ele>
        <time>2026-05-18T09:47:46+02:00</time>
      </trkpt>
      <trkpt lat="48.55868" lon="6.22084">
        <ele>233.2998</ele>
        <time>2026-05-18T09:47:47+02:00</time>
      </trkpt>
      <trkpt lat="48.55869" lon="6.22077">
        <ele>232.7998</ele>
        <time>2026-05-18T09:47:48+02:00</time>
      </trkpt>
      <trkpt lat="48.55871" lon="6.22071">
        <ele>232.60059</ele>
        <time>2026-05-18T09:47:49+02:00</time>
      </trkpt>
      <trkpt lat="48.55873" lon="6.22065">
        <ele>232.2998</ele>
        <time>2026-05-18T09:47:50+02:00</time>
      </trkpt>
      <trkpt lat="48.55876" lon="6.22058">
        <ele>232.2998</ele>
        <time>2026-05-18T09:47:51+02:00</time>
      </trkpt>
      <trkpt lat="48.55878" lon="6.22052">
        <ele>232.5</ele>
        <time>2026-05-18T09:47:52+02:00</time>
      </trkpt>
      <trkpt lat="48.5588" lon="6.22045">
        <ele>232.60059</ele>
        <time>2026-05-18T09:47:53+02:00</time>
      </trkpt>
      <trkpt lat="48.55882" lon="6.22038">
        <ele>233.2002</ele>
        <time>2026-05-18T09:47:54+02:00</time>
      </trkpt>
      <trkpt lat="48.55885" lon="6.22031">
        <ele>233.10059</ele>
        <time>2026-05-18T09:47:55+02:00</time>
      </trkpt>
      <trkpt lat="48.55888" lon="6.22024">
        <ele>233.10059</ele>
        <time>2026-05-18T09:47:56+02:00</time>
      </trkpt>
      <trkpt lat="48.5589" lon="6.22017">
        <ele>233.40039</ele>
        <time>2026-05-18T09:47:57+02:00</time>
      </trkpt>
      <trkpt lat="48.55893" lon="6.22009">
        <ele>234.5</ele>
        <time>2026-05-18T09:47:58+02:00</time>
      </trkpt>
      <trkpt lat="48.55895" lon="6.22002">
        <ele>234.7002</ele>
        <time>2026-05-18T09:47:59+02:00</time>
      </trkpt>
      <trkpt lat="48.55897" lon="6.21995">
        <ele>235.10059</ele>
        <time>2026-05-18T09:48:00+02:00</time>
      </trkpt>
      <trkpt lat="48.55899" lon="6.21991">
        <ele>235.10059</ele>
        <time>2026-05-18T09:48:01+02:00</time>
      </trkpt>
      <trkpt lat="48.55902" lon="6.2198">
        <ele>233.7002</ele>
        <time>2026-05-18T09:48:02+02:00</time>
      </trkpt>
      <trkpt lat="48.55905" lon="6.21973">
        <ele>233.7002</ele>
        <time>2026-05-18T09:48:03+02:00</time>
      </trkpt>
      <trkpt lat="48.55907" lon="6.21966">
        <ele>232.7002</ele>
        <time>2026-05-18T09:48:04+02:00</time>
      </trkpt>
      <trkpt lat="48.55909" lon="6.21959">
        <ele>232.7998</ele>
        <time>2026-05-18T09:48:05+02:00</time>
      </trkpt>
      <trkpt lat="48.55911" lon="6.21951">
        <ele>233.40039</ele>
        <time>2026-05-18T09:48:06+02:00</time>
      </trkpt>
      <trkpt lat="48.55912" lon="6.21948">
        <ele>233.7002</ele>
        <time>2026-05-18T09:48:07+02:00</time>
      </trkpt>
      <trkpt lat="48.55916" lon="6.21937">
        <ele>235.2002</ele>
        <time>2026-05-18T09:48:08+02:00</time>
      </trkpt>
      <trkpt lat="48.55918" lon="6.2193">
        <ele>234.90039</ele>
        <time>2026-05-18T09:48:09+02:00</time>
      </trkpt>
      <trkpt lat="48.55921" lon="6.21923">
        <ele>234.90039</ele>
        <time>2026-05-18T09:48:10+02:00</time>
      </trkpt>
      <trkpt lat="48.55923" lon="6.21916">
        <ele>233.5</ele>
        <time>2026-05-18T09:48:11+02:00</time>
      </trkpt>
      <trkpt lat="48.55925" lon="6.21909">
        <ele>233.10059</ele>
        <time>2026-05-18T09:48:12+02:00</time>
      </trkpt>
      <trkpt lat="48.55927" lon="6.21902">
        <ele>233</ele>
        <time>2026-05-18T09:48:13+02:00</time>
      </trkpt>
      <trkpt lat="48.5593" lon="6.21895">
        <ele>232.60059</ele>
        <time>2026-05-18T09:48:14+02:00</time>
      </trkpt>
      <trkpt lat="48.55933" lon="6.21887">
        <ele>232.7002</ele>
        <time>2026-05-18T09:48:15+02:00</time>
      </trkpt>
      <trkpt lat="48.55935" lon="6.2188">
        <ele>234.2998</ele>
        <time>2026-05-18T09:48:16+02:00</time>
      </trkpt>
      <trkpt lat="48.55937" lon="6.21873">
        <ele>235.40039</ele>
        <time>2026-05-18T09:48:17+02:00</time>
      </trkpt>
      <trkpt lat="48.55939" lon="6.21866">
        <ele>235.2002</ele>
        <time>2026-05-18T09:48:18+02:00</time>
      </trkpt>
      <trkpt lat="48.5594" lon="6.21862">
        <ele>235.2998</ele>
        <time>2026-05-18T09:48:19+02:00</time>
      </trkpt>
      <trkpt lat="48.55943" lon="6.21852">
        <ele>234.7002</ele>
        <time>2026-05-18T09:48:20+02:00</time>
      </trkpt>
      <trkpt lat="48.55945" lon="6.21845">
        <ele>234.2998</ele>
        <time>2026-05-18T09:48:21+02:00</time>
      </trkpt>
      <trkpt lat="48.55947" lon="6.21838">
        <ele>232.7998</ele>
        <time>2026-05-18T09:48:22+02:00</time>
      </trkpt>
      <trkpt lat="48.55949" lon="6.21832">
        <ele>232.60059</ele>
        <time>2026-05-18T09:48:23+02:00</time>
      </trkpt>
      <trkpt lat="48.55951" lon="6.21825">
        <ele>232.7998</ele>
        <time>2026-05-18T09:48:24+02:00</time>
      </trkpt>
      <trkpt lat="48.55954" lon="6.21819">
        <ele>233.10059</ele>
        <time>2026-05-18T09:48:25+02:00</time>
      </trkpt>
      <trkpt lat="48.55956" lon="6.21812">
        <ele>233.60059</ele>
        <time>2026-05-18T09:48:26+02:00</time>
      </trkpt>
      <trkpt lat="48.55959" lon="6.21804">
        <ele>235.5</ele>
        <time>2026-05-18T09:48:27+02:00</time>
      </trkpt>
      <trkpt lat="48.55961" lon="6.21797">
        <ele>235.2002</ele>
        <time>2026-05-18T09:48:28+02:00</time>
      </trkpt>
      <trkpt lat="48.55963" lon="6.2179">
        <ele>234.5</ele>
        <time>2026-05-18T09:48:29+02:00</time>
      </trkpt>
      <trkpt lat="48.55966" lon="6.21782">
        <ele>233.7998</ele>
        <time>2026-05-18T09:48:30+02:00</time>
      </trkpt>
      <trkpt lat="48.55966" lon="6.21779">
        <ele>233.7998</ele>
        <time>2026-05-18T09:48:31+02:00</time>
      </trkpt>
      <trkpt lat="48.55969" lon="6.21768">
        <ele>232.7998</ele>
        <time>2026-05-18T09:48:32+02:00</time>
      </trkpt>
      <trkpt lat="48.55971" lon="6.21761">
        <ele>233</ele>
        <time>2026-05-18T09:48:33+02:00</time>
      </trkpt>
      <trkpt lat="48.55974" lon="6.21754">
        <ele>232.7002</ele>
        <time>2026-05-18T09:48:34+02:00</time>
      </trkpt>
      <trkpt lat="48.55975" lon="6.21747">
        <ele>232.5</ele>
        <time>2026-05-18T09:48:35+02:00</time>
      </trkpt>
      <trkpt lat="48.55977" lon="6.2174">
        <ele>233</ele>
        <time>2026-05-18T09:48:36+02:00</time>
      </trkpt>
      <trkpt lat="48.5598" lon="6.21732">
        <ele>232.90039</ele>
        <time>2026-05-18T09:48:37+02:00</time>
      </trkpt>
      <trkpt lat="48.55982" lon="6.21725">
        <ele>233.2002</ele>
        <time>2026-05-18T09:48:38+02:00</time>
      </trkpt>
      <trkpt lat="48.55984" lon="6.21717">
        <ele>233.60059</ele>
        <time>2026-05-18T09:48:39+02:00</time>
      </trkpt>
      <trkpt lat="48.55987" lon="6.2171">
        <ele>233.2998</ele>
        <time>2026-05-18T09:48:40+02:00</time>
      </trkpt>
      <trkpt lat="48.55988" lon="6.21702">
        <ele>233.2998</ele>
        <time>2026-05-18T09:48:41+02:00</time>
      </trkpt>
      <trkpt lat="48.5599" lon="6.21695">
        <ele>233.10059</ele>
        <time>2026-05-18T09:48:42+02:00</time>
      </trkpt>
      <trkpt lat="48.55996" lon="6.21672">
        <ele>233.2998</ele>
        <time>2026-05-18T09:48:43+02:00</time>
      </trkpt>
      <trkpt lat="48.55999" lon="6.21664">
        <ele>234.2998</ele>
        <time>2026-05-18T09:48:44+02:00</time>
      </trkpt>
      <trkpt lat="48.56001" lon="6.21656">
        <ele>234.40039</ele>
        <time>2026-05-18T09:48:45+02:00</time>
      </trkpt>
      <trkpt lat="48.56003" lon="6.21648">
        <ele>234.10059</ele>
        <time>2026-05-18T09:48:46+02:00</time>
      </trkpt>
      <trkpt lat="48.56004" lon="6.21641">
        <ele>233.7002</ele>
        <time>2026-05-18T09:48:47+02:00</time>
      </trkpt>
      <trkpt lat="48.56006" lon="6.21633">
        <ele>233.5</ele>
        <time>2026-05-18T09:48:48+02:00</time>
      </trkpt>
      <trkpt lat="48.56008" lon="6.21626">
        <ele>232.7002</ele>
        <time>2026-05-18T09:48:49+02:00</time>
      </trkpt>
      <trkpt lat="48.5601" lon="6.21618">
        <ele>232.7002</ele>
        <time>2026-05-18T09:48:50+02:00</time>
      </trkpt>
      <trkpt lat="48.56012" lon="6.21611">
        <ele>233.10059</ele>
        <time>2026-05-18T09:48:51+02:00</time>
      </trkpt>
      <trkpt lat="48.56014" lon="6.21603">
        <ele>233.5</ele>
        <time>2026-05-18T09:48:52+02:00</time>
      </trkpt>
      <trkpt lat="48.56016" lon="6.21595">
        <ele>234.10059</ele>
        <time>2026-05-18T09:48:53+02:00</time>
      </trkpt>
      <trkpt lat="48.56017" lon="6.21587">
        <ele>234.7002</ele>
        <time>2026-05-18T09:48:54+02:00</time>
      </trkpt>
      <trkpt lat="48.56019" lon="6.21579">
        <ele>235.2002</ele>
        <time>2026-05-18T09:48:55+02:00</time>
      </trkpt>
      <trkpt lat="48.5602" lon="6.21571">
        <ele>234.40039</ele>
        <time>2026-05-18T09:48:56+02:00</time>
      </trkpt>
      <trkpt lat="48.56022" lon="6.21564">
        <ele>234.2998</ele>
        <time>2026-05-18T09:48:57+02:00</time>
      </trkpt>
      <trkpt lat="48.56023" lon="6.2156">
        <ele>234.2998</ele>
        <time>2026-05-18T09:48:58+02:00</time>
      </trkpt>
      <trkpt lat="48.56026" lon="6.21549">
        <ele>233.2998</ele>
        <time>2026-05-18T09:48:59+02:00</time>
      </trkpt>
      <trkpt lat="48.56027" lon="6.21541">
        <ele>233.2998</ele>
        <time>2026-05-18T09:49:00+02:00</time>
      </trkpt>
      <trkpt lat="48.56029" lon="6.21534">
        <ele>233.2002</ele>
        <time>2026-05-18T09:49:01+02:00</time>
      </trkpt>
      <trkpt lat="48.5603" lon="6.21531">
        <ele>233.2002</ele>
        <time>2026-05-18T09:49:02+02:00</time>
      </trkpt>
      <trkpt lat="48.56032" lon="6.2152">
        <ele>232.7998</ele>
        <time>2026-05-18T09:49:03+02:00</time>
      </trkpt>
      <trkpt lat="48.56033" lon="6.21512">
        <ele>232.90039</ele>
        <time>2026-05-18T09:49:04+02:00</time>
      </trkpt>
      <trkpt lat="48.56035" lon="6.21505">
        <ele>233.2002</ele>
        <time>2026-05-18T09:49:05+02:00</time>
      </trkpt>
      <trkpt lat="48.56037" lon="6.21497">
        <ele>234.60059</ele>
        <time>2026-05-18T09:49:06+02:00</time>
      </trkpt>
      <trkpt lat="48.56038" lon="6.21489">
        <ele>234.7998</ele>
        <time>2026-05-18T09:49:07+02:00</time>
      </trkpt>
      <trkpt lat="48.56041" lon="6.21481">
        <ele>234.7998</ele>
        <time>2026-05-18T09:49:08+02:00</time>
      </trkpt>
      <trkpt lat="48.56042" lon="6.21473">
        <ele>233.7998</ele>
        <time>2026-05-18T09:49:09+02:00</time>
      </trkpt>
      <trkpt lat="48.56044" lon="6.21465">
        <ele>233.7002</ele>
        <time>2026-05-18T09:49:10+02:00</time>
      </trkpt>
      <trkpt lat="48.56046" lon="6.21457">
        <ele>233.60059</ele>
        <time>2026-05-18T09:49:11+02:00</time>
      </trkpt>
      <trkpt lat="48.56048" lon="6.21449">
        <ele>233</ele>
        <time>2026-05-18T09:49:12+02:00</time>
      </trkpt>
      <trkpt lat="48.56049" lon="6.21441">
        <ele>233</ele>
        <time>2026-05-18T09:49:13+02:00</time>
      </trkpt>
      <trkpt lat="48.56051" lon="6.21434">
        <ele>233.10059</ele>
        <time>2026-05-18T09:49:14+02:00</time>
      </trkpt>
      <trkpt lat="48.56053" lon="6.21426">
        <ele>232.7002</ele>
        <time>2026-05-18T09:49:15+02:00</time>
      </trkpt>
      <trkpt lat="48.56055" lon="6.21418">
        <ele>233.40039</ele>
        <time>2026-05-18T09:49:16+02:00</time>
      </trkpt>
      <trkpt lat="48.56057" lon="6.21411">
        <ele>233.60059</ele>
        <time>2026-05-18T09:49:17+02:00</time>
      </trkpt>
      <trkpt lat="48.56059" lon="6.21403">
        <ele>233.90039</ele>
        <time>2026-05-18T09:49:18+02:00</time>
      </trkpt>
      <trkpt lat="48.56061" lon="6.21396">
        <ele>235.40039</ele>
        <time>2026-05-18T09:49:19+02:00</time>
      </trkpt>
      <trkpt lat="48.56063" lon="6.21389">
        <ele>235.40039</ele>
        <time>2026-05-18T09:49:20+02:00</time>
      </trkpt>
      <trkpt lat="48.56065" lon="6.21382">
        <ele>235.5</ele>
        <time>2026-05-18T09:49:21+02:00</time>
      </trkpt>
      <trkpt lat="48.56067" lon="6.21375">
        <ele>234.40039</ele>
        <time>2026-05-18T09:49:22+02:00</time>
      </trkpt>
      <trkpt lat="48.56068" lon="6.21372">
        <ele>234.40039</ele>
        <time>2026-05-18T09:49:23+02:00</time>
      </trkpt>
      <trkpt lat="48.56071" lon="6.21362">
        <ele>233.10059</ele>
        <time>2026-05-18T09:49:24+02:00</time>
      </trkpt>
      <trkpt lat="48.56073" lon="6.21356">
        <ele>233.10059</ele>
        <time>2026-05-18T09:49:25+02:00</time>
      </trkpt>
      <trkpt lat="48.56074" lon="6.21353">
        <ele>232.90039</ele>
        <time>2026-05-18T09:49:26+02:00</time>
      </trkpt>
      <trkpt lat="48.56078" lon="6.21342">
        <ele>234.40039</ele>
        <time>2026-05-18T09:49:27+02:00</time>
      </trkpt>
      <trkpt lat="48.5608" lon="6.21336">
        <ele>234.60059</ele>
        <time>2026-05-18T09:49:28+02:00</time>
      </trkpt>
      <trkpt lat="48.56082" lon="6.2133">
        <ele>236.2002</ele>
        <time>2026-05-18T09:49:29+02:00</time>
      </trkpt>
      <trkpt lat="48.56085" lon="6.21323">
        <ele>236.10059</ele>
        <time>2026-05-18T09:49:30+02:00</time>
      </trkpt>
      <trkpt lat="48.56087" lon="6.21317">
        <ele>235.2998</ele>
        <time>2026-05-18T09:49:31+02:00</time>
      </trkpt>
      <trkpt lat="48.5609" lon="6.2131">
        <ele>234.10059</ele>
        <time>2026-05-18T09:49:32+02:00</time>
      </trkpt>
      <trkpt lat="48.56091" lon="6.21306">
        <ele>234.10059</ele>
        <time>2026-05-18T09:49:33+02:00</time>
      </trkpt>
      <trkpt lat="48.56096" lon="6.21296">
        <ele>234.10059</ele>
        <time>2026-05-18T09:49:34+02:00</time>
      </trkpt>
      <trkpt lat="48.56098" lon="6.21289">
        <ele>234.2998</ele>
        <time>2026-05-18T09:49:35+02:00</time>
      </trkpt>
      <trkpt lat="48.56101" lon="6.21283">
        <ele>235.7002</ele>
        <time>2026-05-18T09:49:36+02:00</time>
      </trkpt>
      <trkpt lat="48.56104" lon="6.21277">
        <ele>235.7002</ele>
        <time>2026-05-18T09:49:37+02:00</time>
      </trkpt>
      <trkpt lat="48.56106" lon="6.2127">
        <ele>235</ele>
        <time>2026-05-18T09:49:38+02:00</time>
      </trkpt>
      <trkpt lat="48.56109" lon="6.21264">
        <ele>233.7998</ele>
        <time>2026-05-18T09:49:39+02:00</time>
      </trkpt>
      <trkpt lat="48.56112" lon="6.21258">
        <ele>233</ele>
        <time>2026-05-18T09:49:40+02:00</time>
      </trkpt>
      <trkpt lat="48.56115" lon="6.21251">
        <ele>232.90039</ele>
        <time>2026-05-18T09:49:41+02:00</time>
      </trkpt>
      <trkpt lat="48.56119" lon="6.21245">
        <ele>233.60059</ele>
        <time>2026-05-18T09:49:42+02:00</time>
      </trkpt>
      <trkpt lat="48.56122" lon="6.21239">
        <ele>233.7002</ele>
        <time>2026-05-18T09:49:43+02:00</time>
      </trkpt>
      <trkpt lat="48.56125" lon="6.21233">
        <ele>233</ele>
        <time>2026-05-18T09:49:44+02:00</time>
      </trkpt>
      <trkpt lat="48.56128" lon="6.21227">
        <ele>233.60059</ele>
        <time>2026-05-18T09:49:45+02:00</time>
      </trkpt>
      <trkpt lat="48.56132" lon="6.21221">
        <ele>233</ele>
        <time>2026-05-18T09:49:46+02:00</time>
      </trkpt>
      <trkpt lat="48.56135" lon="6.21215">
        <ele>233.2998</ele>
        <time>2026-05-18T09:49:47+02:00</time>
      </trkpt>
      <trkpt lat="48.56139" lon="6.21209">
        <ele>234</ele>
        <time>2026-05-18T09:49:48+02:00</time>
      </trkpt>
      <trkpt lat="48.56142" lon="6.21203">
        <ele>233.40039</ele>
        <time>2026-05-18T09:49:49+02:00</time>
      </trkpt>
      <trkpt lat="48.56145" lon="6.21197">
        <ele>233.2002</ele>
        <time>2026-05-18T09:49:50+02:00</time>
      </trkpt>
      <trkpt lat="48.56148" lon="6.21191">
        <ele>232.7998</ele>
        <time>2026-05-18T09:49:51+02:00</time>
      </trkpt>
      <trkpt lat="48.56151" lon="6.21185">
        <ele>233.2002</ele>
        <time>2026-05-18T09:49:52+02:00</time>
      </trkpt>
      <trkpt lat="48.56155" lon="6.21179">
        <ele>232.7998</ele>
        <time>2026-05-18T09:49:53+02:00</time>
      </trkpt>
      <trkpt lat="48.56158" lon="6.21172">
        <ele>233.2002</ele>
        <time>2026-05-18T09:49:54+02:00</time>
      </trkpt>
      <trkpt lat="48.56162" lon="6.21166">
        <ele>233.7002</ele>
        <time>2026-05-18T09:49:55+02:00</time>
      </trkpt>
      <trkpt lat="48.56165" lon="6.2116">
        <ele>232.7998</ele>
        <time>2026-05-18T09:49:56+02:00</time>
      </trkpt>
      <trkpt lat="48.56168" lon="6.21154">
        <ele>233</ele>
        <time>2026-05-18T09:49:57+02:00</time>
      </trkpt>
      <trkpt lat="48.56172" lon="6.21148">
        <ele>232.7998</ele>
        <time>2026-05-18T09:49:58+02:00</time>
      </trkpt>
      <trkpt lat="48.56175" lon="6.21142">
        <ele>233</ele>
        <time>2026-05-18T09:49:59+02:00</time>
      </trkpt>
      <trkpt lat="48.56177" lon="6.21136">
        <ele>232.90039</ele>
        <time>2026-05-18T09:50:00+02:00</time>
      </trkpt>
      <trkpt lat="48.56179" lon="6.2113">
        <ele>232.7998</ele>
        <time>2026-05-18T09:50:01+02:00</time>
      </trkpt>
      <trkpt lat="48.56182" lon="6.21124">
        <ele>232.7998</ele>
        <time>2026-05-18T09:50:02+02:00</time>
      </trkpt>
      <trkpt lat="48.56185" lon="6.21118">
        <ele>232.90039</ele>
        <time>2026-05-18T09:50:03+02:00</time>
      </trkpt>
      <trkpt lat="48.56186" lon="6.21115">
        <ele>232.90039</ele>
        <time>2026-05-18T09:50:04+02:00</time>
      </trkpt>
      <trkpt lat="48.56193" lon="6.21109">
        <ele>232.90039</ele>
        <time>2026-05-18T09:50:05+02:00</time>
      </trkpt>
      <trkpt lat="48.56197" lon="6.21104">
        <ele>233</ele>
        <time>2026-05-18T09:50:06+02:00</time>
      </trkpt>
      <trkpt lat="48.562" lon="6.21098">
        <ele>233</ele>
        <time>2026-05-18T09:50:07+02:00</time>
      </trkpt>
      <trkpt lat="48.56203" lon="6.21092">
        <ele>233</ele>
        <time>2026-05-18T09:50:08+02:00</time>
      </trkpt>
      <trkpt lat="48.56205" lon="6.21086">
        <ele>232.7998</ele>
        <time>2026-05-18T09:50:09+02:00</time>
      </trkpt>
      <trkpt lat="48.56208" lon="6.21079">
        <ele>232.90039</ele>
        <time>2026-05-18T09:50:10+02:00</time>
      </trkpt>
      <trkpt lat="48.56211" lon="6.21073">
        <ele>232.90039</ele>
        <time>2026-05-18T09:50:11+02:00</time>
      </trkpt>
      <trkpt lat="48.56215" lon="6.21067">
        <ele>232.90039</ele>
        <time>2026-05-18T09:50:12+02:00</time>
      </trkpt>
      <trkpt lat="48.56218" lon="6.21061">
        <ele>232.90039</ele>
        <time>2026-05-18T09:50:13+02:00</time>
      </trkpt>
      <trkpt lat="48.56221" lon="6.21055">
        <ele>232.90039</ele>
        <time>2026-05-18T09:50:14+02:00</time>
      </trkpt>
      <trkpt lat="48.56225" lon="6.21048">
        <ele>232.90039</ele>
        <time>2026-05-18T09:50:15+02:00</time>
      </trkpt>
      <trkpt lat="48.56228" lon="6.21042">
        <ele>233</ele>
        <time>2026-05-18T09:50:16+02:00</time>
      </trkpt>
      <trkpt lat="48.56232" lon="6.21037">
        <ele>233</ele>
        <time>2026-05-18T09:50:17+02:00</time>
      </trkpt>
      <trkpt lat="48.56236" lon="6.21031">
        <ele>233</ele>
        <time>2026-05-18T09:50:18+02:00</time>
      </trkpt>
      <trkpt lat="48.56241" lon="6.21026">
        <ele>233</ele>
        <time>2026-05-18T09:50:19+02:00</time>
      </trkpt>
      <trkpt lat="48.56245" lon="6.2102">
        <ele>233</ele>
        <time>2026-05-18T09:50:20+02:00</time>
      </trkpt>
      <trkpt lat="48.56249" lon="6.21014">
        <ele>232.90039</ele>
        <time>2026-05-18T09:50:21+02:00</time>
      </trkpt>
      <trkpt lat="48.56253" lon="6.21008">
        <ele>233</ele>
        <time>2026-05-18T09:50:22+02:00</time>
      </trkpt>
      <trkpt lat="48.56257" lon="6.21002">
        <ele>233</ele>
        <time>2026-05-18T09:50:23+02:00</time>
      </trkpt>
      <trkpt lat="48.5626" lon="6.20996">
        <ele>233.10059</ele>
        <time>2026-05-18T09:50:24+02:00</time>
      </trkpt>
      <trkpt lat="48.56264" lon="6.2099">
        <ele>233</ele>
        <time>2026-05-18T09:50:25+02:00</time>
      </trkpt>
      <trkpt lat="48.56267" lon="6.20985">
        <ele>232.7998</ele>
        <time>2026-05-18T09:50:26+02:00</time>
      </trkpt>
      <trkpt lat="48.56271" lon="6.20979">
        <ele>233</ele>
        <time>2026-05-18T09:50:27+02:00</time>
      </trkpt>
      <trkpt lat="48.56274" lon="6.20972">
        <ele>232.90039</ele>
        <time>2026-05-18T09:50:28+02:00</time>
      </trkpt>
      <trkpt lat="48.56277" lon="6.20966">
        <ele>233</ele>
        <time>2026-05-18T09:50:29+02:00</time>
      </trkpt>
      <trkpt lat="48.5628" lon="6.2096">
        <ele>233</ele>
        <time>2026-05-18T09:50:30+02:00</time>
      </trkpt>
      <trkpt lat="48.56284" lon="6.20954">
        <ele>233</ele>
        <time>2026-05-18T09:50:31+02:00</time>
      </trkpt>
      <trkpt lat="48.56287" lon="6.20948">
        <ele>233.5</ele>
        <time>2026-05-18T09:50:32+02:00</time>
      </trkpt>
      <trkpt lat="48.56289" lon="6.20945">
        <ele>233.5</ele>
        <time>2026-05-18T09:50:33+02:00</time>
      </trkpt>
      <trkpt lat="48.56294" lon="6.20935">
        <ele>234.2998</ele>
        <time>2026-05-18T09:50:34+02:00</time>
      </trkpt>
      <trkpt lat="48.56297" lon="6.20928">
        <ele>234.2002</ele>
        <time>2026-05-18T09:50:35+02:00</time>
      </trkpt>
      <trkpt lat="48.56301" lon="6.20922">
        <ele>234</ele>
        <time>2026-05-18T09:50:36+02:00</time>
      </trkpt>
      <trkpt lat="48.56304" lon="6.20915">
        <ele>233.60059</ele>
        <time>2026-05-18T09:50:37+02:00</time>
      </trkpt>
      <trkpt lat="48.56308" lon="6.20909">
        <ele>233.60059</ele>
        <time>2026-05-18T09:50:38+02:00</time>
      </trkpt>
      <trkpt lat="48.56312" lon="6.20903">
        <ele>233.7998</ele>
        <time>2026-05-18T09:50:39+02:00</time>
      </trkpt>
      <trkpt lat="48.56314" lon="6.209">
        <ele>233.7998</ele>
        <time>2026-05-18T09:50:40+02:00</time>
      </trkpt>
      <trkpt lat="48.56321" lon="6.20892">
        <ele>234.60059</ele>
        <time>2026-05-18T09:50:41+02:00</time>
      </trkpt>
      <trkpt lat="48.56325" lon="6.20887">
        <ele>234.10059</ele>
        <time>2026-05-18T09:50:42+02:00</time>
      </trkpt>
      <trkpt lat="48.5633" lon="6.20881">
        <ele>234.10059</ele>
        <time>2026-05-18T09:50:43+02:00</time>
      </trkpt>
      <trkpt lat="48.56334" lon="6.20875">
        <ele>234.7002</ele>
        <time>2026-05-18T09:50:44+02:00</time>
      </trkpt>
      <trkpt lat="48.56337" lon="6.20868">
        <ele>234.40039</ele>
        <time>2026-05-18T09:50:45+02:00</time>
      </trkpt>
      <trkpt lat="48.56346" lon="6.20839">
        <ele>233.5</ele>
        <time>2026-05-18T09:50:46+02:00</time>
      </trkpt>
      <trkpt lat="48.56347" lon="6.20832">
        <ele>233.5</ele>
        <time>2026-05-18T09:50:47+02:00</time>
      </trkpt>
      <trkpt lat="48.5635" lon="6.20826">
        <ele>233.7002</ele>
        <time>2026-05-18T09:50:48+02:00</time>
      </trkpt>
      <trkpt lat="48.56353" lon="6.2082">
        <ele>233.2998</ele>
        <time>2026-05-18T09:50:49+02:00</time>
      </trkpt>
      <trkpt lat="48.56356" lon="6.20815">
        <ele>233.7998</ele>
        <time>2026-05-18T09:50:50+02:00</time>
      </trkpt>
      <trkpt lat="48.56359" lon="6.2081">
        <ele>233.2002</ele>
        <time>2026-05-18T09:50:51+02:00</time>
      </trkpt>
      <trkpt lat="48.56361" lon="6.20807">
        <ele>233.60059</ele>
        <time>2026-05-18T09:50:52+02:00</time>
      </trkpt>
      <trkpt lat="48.56365" lon="6.208">
        <ele>233.2002</ele>
        <time>2026-05-18T09:50:53+02:00</time>
      </trkpt>
      <trkpt lat="48.56369" lon="6.20796">
        <ele>233.2998</ele>
        <time>2026-05-18T09:50:54+02:00</time>
      </trkpt>
      <trkpt lat="48.5637" lon="6.20794">
        <ele>233.2998</ele>
        <time>2026-05-18T09:50:55+02:00</time>
      </trkpt>
      <trkpt lat="48.56376" lon="6.20786">
        <ele>233.5</ele>
        <time>2026-05-18T09:50:56+02:00</time>
      </trkpt>
      <trkpt lat="48.56379" lon="6.20782">
        <ele>234</ele>
        <time>2026-05-18T09:50:57+02:00</time>
      </trkpt>
      <trkpt lat="48.56383" lon="6.20778">
        <ele>233.7002</ele>
        <time>2026-05-18T09:50:58+02:00</time>
      </trkpt>
      <trkpt lat="48.56386" lon="6.20774">
        <ele>233.7002</ele>
        <time>2026-05-18T09:50:59+02:00</time>
      </trkpt>
      <trkpt lat="48.5639" lon="6.20769">
        <ele>233.7998</ele>
        <time>2026-05-18T09:51:00+02:00</time>
      </trkpt>
      <trkpt lat="48.56394" lon="6.20765">
        <ele>233.7998</ele>
        <time>2026-05-18T09:51:01+02:00</time>
      </trkpt>
      <trkpt lat="48.56398" lon="6.20763">
        <ele>234.60059</ele>
        <time>2026-05-18T09:51:02+02:00</time>
      </trkpt>
      <trkpt lat="48.56402" lon="6.20759">
        <ele>235</ele>
        <time>2026-05-18T09:51:03+02:00</time>
      </trkpt>
      <trkpt lat="48.56407" lon="6.20756">
        <ele>235.2998</ele>
        <time>2026-05-18T09:51:04+02:00</time>
      </trkpt>
      <trkpt lat="48.56411" lon="6.20753">
        <ele>234.60059</ele>
        <time>2026-05-18T09:51:05+02:00</time>
      </trkpt>
      <trkpt lat="48.56414" lon="6.20751">
        <ele>234.60059</ele>
        <time>2026-05-18T09:51:06+02:00</time>
      </trkpt>
      <trkpt lat="48.56421" lon="6.20747">
        <ele>234.5</ele>
        <time>2026-05-18T09:51:07+02:00</time>
      </trkpt>
      <trkpt lat="48.56426" lon="6.20744">
        <ele>233.7998</ele>
        <time>2026-05-18T09:51:08+02:00</time>
      </trkpt>
      <trkpt lat="48.56431" lon="6.20741">
        <ele>233.7998</ele>
        <time>2026-05-18T09:51:09+02:00</time>
      </trkpt>
      <trkpt lat="48.56436" lon="6.20738">
        <ele>233.7998</ele>
        <time>2026-05-18T09:51:10+02:00</time>
      </trkpt>
      <trkpt lat="48.5644" lon="6.20736">
        <ele>233.40039</ele>
        <time>2026-05-18T09:51:11+02:00</time>
      </trkpt>
      <trkpt lat="48.56446" lon="6.20734">
        <ele>233.40039</ele>
        <time>2026-05-18T09:51:12+02:00</time>
      </trkpt>
      <trkpt lat="48.56451" lon="6.20731">
        <ele>233.40039</ele>
        <time>2026-05-18T09:51:13+02:00</time>
      </trkpt>
      <trkpt lat="48.56457" lon="6.20729">
        <ele>233.40039</ele>
        <time>2026-05-18T09:51:14+02:00</time>
      </trkpt>
      <trkpt lat="48.56462" lon="6.20728">
        <ele>233.40039</ele>
        <time>2026-05-18T09:51:15+02:00</time>
      </trkpt>
      <trkpt lat="48.56466" lon="6.20727">
        <ele>233.10059</ele>
        <time>2026-05-18T09:51:16+02:00</time>
      </trkpt>
      <trkpt lat="48.56472" lon="6.20725">
        <ele>233.10059</ele>
        <time>2026-05-18T09:51:17+02:00</time>
      </trkpt>
      <trkpt lat="48.56477" lon="6.20723">
        <ele>233.2002</ele>
        <time>2026-05-18T09:51:18+02:00</time>
      </trkpt>
      <trkpt lat="48.56483" lon="6.20722">
        <ele>233.2998</ele>
        <time>2026-05-18T09:51:19+02:00</time>
      </trkpt>
      <trkpt lat="48.56489" lon="6.2072">
        <ele>233.5</ele>
        <time>2026-05-18T09:51:20+02:00</time>
      </trkpt>
      <trkpt lat="48.56494" lon="6.20718">
        <ele>233.5</ele>
        <time>2026-05-18T09:51:21+02:00</time>
      </trkpt>
      <trkpt lat="48.565" lon="6.20716">
        <ele>233.60059</ele>
        <time>2026-05-18T09:51:22+02:00</time>
      </trkpt>
      <trkpt lat="48.56506" lon="6.20714">
        <ele>233.5</ele>
        <time>2026-05-18T09:51:23+02:00</time>
      </trkpt>
      <trkpt lat="48.56511" lon="6.20713">
        <ele>233.5</ele>
        <time>2026-05-18T09:51:24+02:00</time>
      </trkpt>
      <trkpt lat="48.56516" lon="6.20711">
        <ele>233.5</ele>
        <time>2026-05-18T09:51:25+02:00</time>
      </trkpt>
      <trkpt lat="48.56521" lon="6.20709">
        <ele>233.2998</ele>
        <time>2026-05-18T09:51:26+02:00</time>
      </trkpt>
      <trkpt lat="48.56526" lon="6.20708">
        <ele>233.2998</ele>
        <time>2026-05-18T09:51:27+02:00</time>
      </trkpt>
      <trkpt lat="48.56531" lon="6.20707">
        <ele>233.2002</ele>
        <time>2026-05-18T09:51:28+02:00</time>
      </trkpt>
      <trkpt lat="48.56536" lon="6.20705">
        <ele>233.2002</ele>
        <time>2026-05-18T09:51:29+02:00</time>
      </trkpt>
      <trkpt lat="48.56541" lon="6.20704">
        <ele>233.2002</ele>
        <time>2026-05-18T09:51:30+02:00</time>
      </trkpt>
      <trkpt lat="48.56544" lon="6.20703">
        <ele>233.2002</ele>
        <time>2026-05-18T09:51:31+02:00</time>
      </trkpt>
      <trkpt lat="48.56551" lon="6.207">
        <ele>233.10059</ele>
        <time>2026-05-18T09:51:32+02:00</time>
      </trkpt>
      <trkpt lat="48.56555" lon="6.20699">
        <ele>233.10059</ele>
        <time>2026-05-18T09:51:33+02:00</time>
      </trkpt>
      <trkpt lat="48.5656" lon="6.20698">
        <ele>233.10059</ele>
        <time>2026-05-18T09:51:34+02:00</time>
      </trkpt>
      <trkpt lat="48.56565" lon="6.20697">
        <ele>233</ele>
        <time>2026-05-18T09:51:35+02:00</time>
      </trkpt>
      <trkpt lat="48.5657" lon="6.20696">
        <ele>233</ele>
        <time>2026-05-18T09:51:36+02:00</time>
      </trkpt>
      <trkpt lat="48.56575" lon="6.20694">
        <ele>233</ele>
        <time>2026-05-18T09:51:37+02:00</time>
      </trkpt>
      <trkpt lat="48.56579" lon="6.20693">
        <ele>233.10059</ele>
        <time>2026-05-18T09:51:38+02:00</time>
      </trkpt>
      <trkpt lat="48.56584" lon="6.20691">
        <ele>233.10059</ele>
        <time>2026-05-18T09:51:39+02:00</time>
      </trkpt>
      <trkpt lat="48.56588" lon="6.20689">
        <ele>233</ele>
        <time>2026-05-18T09:51:40+02:00</time>
      </trkpt>
      <trkpt lat="48.56593" lon="6.20687">
        <ele>233</ele>
        <time>2026-05-18T09:51:41+02:00</time>
      </trkpt>
      <trkpt lat="48.56598" lon="6.20685">
        <ele>232.90039</ele>
        <time>2026-05-18T09:51:42+02:00</time>
      </trkpt>
      <trkpt lat="48.56602" lon="6.20683">
        <ele>232.7998</ele>
        <time>2026-05-18T09:51:43+02:00</time>
      </trkpt>
      <trkpt lat="48.56605" lon="6.20683">
        <ele>232.7002</ele>
        <time>2026-05-18T09:51:44+02:00</time>
      </trkpt>
      <trkpt lat="48.56609" lon="6.20681">
        <ele>232.7002</ele>
        <time>2026-05-18T09:51:45+02:00</time>
      </trkpt>
      <trkpt lat="48.56612" lon="6.2068">
        <ele>232.5</ele>
        <time>2026-05-18T09:51:46+02:00</time>
      </trkpt>
      <trkpt lat="48.56616" lon="6.20679">
        <ele>232.40039</ele>
        <time>2026-05-18T09:51:47+02:00</time>
      </trkpt>
      <trkpt lat="48.5662" lon="6.20677">
        <ele>232.40039</ele>
        <time>2026-05-18T09:51:48+02:00</time>
      </trkpt>
      <trkpt lat="48.56622" lon="6.20677">
        <ele>232.2002</ele>
        <time>2026-05-18T09:51:49+02:00</time>
      </trkpt>
      <trkpt lat="48.56628" lon="6.20675">
        <ele>232.2002</ele>
        <time>2026-05-18T09:51:50+02:00</time>
      </trkpt>
      <trkpt lat="48.56631" lon="6.20674">
        <ele>232.2002</ele>
        <time>2026-05-18T09:51:51+02:00</time>
      </trkpt>
      <trkpt lat="48.56635" lon="6.20674">
        <ele>232.10059</ele>
        <time>2026-05-18T09:51:52+02:00</time>
      </trkpt>
      <trkpt lat="48.56638" lon="6.20673">
        <ele>232.10059</ele>
        <time>2026-05-18T09:51:53+02:00</time>
      </trkpt>
      <trkpt lat="48.56642" lon="6.20671">
        <ele>231.90039</ele>
        <time>2026-05-18T09:51:54+02:00</time>
      </trkpt>
      <trkpt lat="48.56645" lon="6.20668">
        <ele>231.7002</ele>
        <time>2026-05-18T09:51:55+02:00</time>
      </trkpt>
      <trkpt lat="48.56647" lon="6.20666">
        <ele>231.7998</ele>
        <time>2026-05-18T09:51:56+02:00</time>
      </trkpt>
      <trkpt lat="48.56652" lon="6.20661">
        <ele>231.7002</ele>
        <time>2026-05-18T09:51:57+02:00</time>
      </trkpt>
      <trkpt lat="48.56656" lon="6.20659">
        <ele>231.40039</ele>
        <time>2026-05-18T09:51:58+02:00</time>
      </trkpt>
      <trkpt lat="48.5666" lon="6.20658">
        <ele>231.5</ele>
        <time>2026-05-18T09:51:59+02:00</time>
      </trkpt>
      <trkpt lat="48.56664" lon="6.20657">
        <ele>231.2002</ele>
        <time>2026-05-18T09:52:00+02:00</time>
      </trkpt>
      <trkpt lat="48.56669" lon="6.20655">
        <ele>230.7998</ele>
        <time>2026-05-18T09:52:01+02:00</time>
      </trkpt>
      <trkpt lat="48.56673" lon="6.20654">
        <ele>230.5</ele>
        <time>2026-05-18T09:52:02+02:00</time>
      </trkpt>
      <trkpt lat="48.56678" lon="6.20652">
        <ele>230.5</ele>
        <time>2026-05-18T09:52:03+02:00</time>
      </trkpt>
      <trkpt lat="48.56683" lon="6.20651">
        <ele>230.10059</ele>
        <time>2026-05-18T09:52:04+02:00</time>
      </trkpt>
      <trkpt lat="48.56688" lon="6.2065">
        <ele>229.40039</ele>
        <time>2026-05-18T09:52:05+02:00</time>
      </trkpt>
      <trkpt lat="48.56693" lon="6.20649">
        <ele>229</ele>
        <time>2026-05-18T09:52:06+02:00</time>
      </trkpt>
      <trkpt lat="48.56695" lon="6.20648">
        <ele>229</ele>
        <time>2026-05-18T09:52:07+02:00</time>
      </trkpt>
      <trkpt lat="48.56701" lon="6.20646">
        <ele>228.7998</ele>
        <time>2026-05-18T09:52:08+02:00</time>
      </trkpt>
      <trkpt lat="48.56705" lon="6.20645">
        <ele>228.7002</ele>
        <time>2026-05-18T09:52:09+02:00</time>
      </trkpt>
      <trkpt lat="48.56709" lon="6.20644">
        <ele>228.7002</ele>
        <time>2026-05-18T09:52:10+02:00</time>
      </trkpt>
      <trkpt lat="48.56714" lon="6.20642">
        <ele>228.7002</ele>
        <time>2026-05-18T09:52:11+02:00</time>
      </trkpt>
      <trkpt lat="48.56718" lon="6.20641">
        <ele>228.60059</ele>
        <time>2026-05-18T09:52:12+02:00</time>
      </trkpt>
      <trkpt lat="48.56723" lon="6.2064">
        <ele>228.60059</ele>
        <time>2026-05-18T09:52:13+02:00</time>
      </trkpt>
      <trkpt lat="48.56727" lon="6.20639">
        <ele>228.2002</ele>
        <time>2026-05-18T09:52:14+02:00</time>
      </trkpt>
      <trkpt lat="48.56732" lon="6.20637">
        <ele>227.7998</ele>
        <time>2026-05-18T09:52:15+02:00</time>
      </trkpt>
      <trkpt lat="48.56737" lon="6.20636">
        <ele>227.60059</ele>
        <time>2026-05-18T09:52:16+02:00</time>
      </trkpt>
      <trkpt lat="48.56741" lon="6.20634">
        <ele>227.7002</ele>
        <time>2026-05-18T09:52:17+02:00</time>
      </trkpt>
      <trkpt lat="48.56746" lon="6.20633">
        <ele>227.7002</ele>
        <time>2026-05-18T09:52:18+02:00</time>
      </trkpt>
      <trkpt lat="48.5675" lon="6.20631">
        <ele>228.2998</ele>
        <time>2026-05-18T09:52:19+02:00</time>
      </trkpt>
      <trkpt lat="48.56753" lon="6.20631">
        <ele>229.2002</ele>
        <time>2026-05-18T09:52:20+02:00</time>
      </trkpt>
      <trkpt lat="48.56759" lon="6.20628">
        <ele>230</ele>
        <time>2026-05-18T09:52:21+02:00</time>
      </trkpt>
      <trkpt lat="48.56764" lon="6.20627">
        <ele>230.2002</ele>
        <time>2026-05-18T09:52:22+02:00</time>
      </trkpt>
      <trkpt lat="48.56769" lon="6.20625">
        <ele>230.2002</ele>
        <time>2026-05-18T09:52:23+02:00</time>
      </trkpt>
      <trkpt lat="48.56773" lon="6.20624">
        <ele>230.10059</ele>
        <time>2026-05-18T09:52:24+02:00</time>
      </trkpt>
      <trkpt lat="48.56777" lon="6.20623">
        <ele>230.2002</ele>
        <time>2026-05-18T09:52:25+02:00</time>
      </trkpt>
      <trkpt lat="48.56782" lon="6.20622">
        <ele>230.2002</ele>
        <time>2026-05-18T09:52:26+02:00</time>
      </trkpt>
      <trkpt lat="48.56786" lon="6.20621">
        <ele>230.2002</ele>
        <time>2026-05-18T09:52:27+02:00</time>
      </trkpt>
      <trkpt lat="48.56788" lon="6.20621">
        <ele>230.2998</ele>
        <time>2026-05-18T09:52:28+02:00</time>
      </trkpt>
      <trkpt lat="48.56793" lon="6.2062">
        <ele>230.2998</ele>
        <time>2026-05-18T09:52:29+02:00</time>
      </trkpt>
      <trkpt lat="48.56797" lon="6.2062">
        <ele>230.2998</ele>
        <time>2026-05-18T09:52:30+02:00</time>
      </trkpt>
      <trkpt lat="48.56801" lon="6.2062">
        <ele>230.2998</ele>
        <time>2026-05-18T09:52:31+02:00</time>
      </trkpt>
      <trkpt lat="48.56805" lon="6.2062">
        <ele>230.40039</ele>
        <time>2026-05-18T09:52:32+02:00</time>
      </trkpt>
      <trkpt lat="48.56809" lon="6.20619">
        <ele>230.5</ele>
        <time>2026-05-18T09:52:33+02:00</time>
      </trkpt>
      <trkpt lat="48.56814" lon="6.20619">
        <ele>230.5</ele>
        <time>2026-05-18T09:52:34+02:00</time>
      </trkpt>
      <trkpt lat="48.56818" lon="6.20619">
        <ele>230.7998</ele>
        <time>2026-05-18T09:52:35+02:00</time>
      </trkpt>
      <trkpt lat="48.56823" lon="6.20618">
        <ele>231.2002</ele>
        <time>2026-05-18T09:52:36+02:00</time>
      </trkpt>
      <trkpt lat="48.56827" lon="6.20618">
        <ele>231.60059</ele>
        <time>2026-05-18T09:52:37+02:00</time>
      </trkpt>
      <trkpt lat="48.56832" lon="6.20617">
        <ele>231.7998</ele>
        <time>2026-05-18T09:52:38+02:00</time>
      </trkpt>
      <trkpt lat="48.56836" lon="6.20616">
        <ele>231.7998</ele>
        <time>2026-05-18T09:52:39+02:00</time>
      </trkpt>
      <trkpt lat="48.56841" lon="6.20616">
        <ele>232</ele>
        <time>2026-05-18T09:52:40+02:00</time>
      </trkpt>
      <trkpt lat="48.56846" lon="6.20615">
        <ele>231.40039</ele>
        <time>2026-05-18T09:52:41+02:00</time>
      </trkpt>
      <trkpt lat="48.56851" lon="6.20613">
        <ele>231.5</ele>
        <time>2026-05-18T09:52:42+02:00</time>
      </trkpt>
      <trkpt lat="48.56856" lon="6.20611">
        <ele>231.60059</ele>
        <time>2026-05-18T09:52:43+02:00</time>
      </trkpt>
      <trkpt lat="48.56861" lon="6.2061">
        <ele>231.7002</ele>
        <time>2026-05-18T09:52:44+02:00</time>
      </trkpt>
      <trkpt lat="48.56865" lon="6.20609">
        <ele>231.7002</ele>
        <time>2026-05-18T09:52:45+02:00</time>
      </trkpt>
      <trkpt lat="48.56868" lon="6.20609">
        <ele>231.7998</ele>
        <time>2026-05-18T09:52:46+02:00</time>
      </trkpt>
      <trkpt lat="48.56872" lon="6.20609">
        <ele>231.90039</ele>
        <time>2026-05-18T09:52:47+02:00</time>
      </trkpt>
      <trkpt lat="48.56875" lon="6.20609">
        <ele>231.90039</ele>
        <time>2026-05-18T09:52:48+02:00</time>
      </trkpt>
      <trkpt lat="48.56878" lon="6.20608">
        <ele>232.10059</ele>
        <time>2026-05-18T09:52:49+02:00</time>
      </trkpt>
      <trkpt lat="48.56883" lon="6.20607">
        <ele>231.2002</ele>
        <time>2026-05-18T09:52:50+02:00</time>
      </trkpt>
      <trkpt lat="48.56888" lon="6.20605">
        <ele>231.2002</ele>
        <time>2026-05-18T09:52:51+02:00</time>
      </trkpt>
      <trkpt lat="48.56893" lon="6.20604">
        <ele>231.5</ele>
        <time>2026-05-18T09:52:52+02:00</time>
      </trkpt>
      <trkpt lat="48.56897" lon="6.20603">
        <ele>231.7998</ele>
        <time>2026-05-18T09:52:53+02:00</time>
      </trkpt>
      <trkpt lat="48.56901" lon="6.20604">
        <ele>232.5</ele>
        <time>2026-05-18T09:52:54+02:00</time>
      </trkpt>
      <trkpt lat="48.56904" lon="6.20605">
        <ele>232.5</ele>
        <time>2026-05-18T09:52:55+02:00</time>
      </trkpt>
      <trkpt lat="48.56908" lon="6.20607">
        <ele>233.2998</ele>
        <time>2026-05-18T09:52:56+02:00</time>
      </trkpt>
      <trkpt lat="48.56912" lon="6.20608">
        <ele>235</ele>
        <time>2026-05-18T09:52:57+02:00</time>
      </trkpt>
      <trkpt lat="48.56917" lon="6.20606">
        <ele>234.90039</ele>
        <time>2026-05-18T09:52:58+02:00</time>
      </trkpt>
      <trkpt lat="48.56923" lon="6.20604">
        <ele>235.5</ele>
        <time>2026-05-18T09:52:59+02:00</time>
      </trkpt>
      <trkpt lat="48.56928" lon="6.20601">
        <ele>235.5</ele>
        <time>2026-05-18T09:53:00+02:00</time>
      </trkpt>
      <trkpt lat="48.56933" lon="6.20597">
        <ele>235.5</ele>
        <time>2026-05-18T09:53:01+02:00</time>
      </trkpt>
      <trkpt lat="48.56938" lon="6.20592">
        <ele>236.10059</ele>
        <time>2026-05-18T09:53:02+02:00</time>
      </trkpt>
      <trkpt lat="48.56942" lon="6.20586">
        <ele>236.10059</ele>
        <time>2026-05-18T09:53:03+02:00</time>
      </trkpt>
      <trkpt lat="48.56946" lon="6.2058">
        <ele>236</ele>
        <time>2026-05-18T09:53:04+02:00</time>
      </trkpt>
      <trkpt lat="48.56948" lon="6.20574">
        <ele>236</ele>
        <time>2026-05-18T09:53:05+02:00</time>
      </trkpt>
      <trkpt lat="48.5695" lon="6.20568">
        <ele>235.40039</ele>
        <time>2026-05-18T09:53:06+02:00</time>
      </trkpt>
      <trkpt lat="48.56952" lon="6.20562">
        <ele>235.40039</ele>
        <time>2026-05-18T09:53:07+02:00</time>
      </trkpt>
      <trkpt lat="48.56954" lon="6.20556">
        <ele>235.40039</ele>
        <time>2026-05-18T09:53:08+02:00</time>
      </trkpt>
      <trkpt lat="48.56957" lon="6.20549">
        <ele>235.60059</ele>
        <time>2026-05-18T09:53:09+02:00</time>
      </trkpt>
      <trkpt lat="48.56959" lon="6.20542">
        <ele>235</ele>
        <time>2026-05-18T09:53:10+02:00</time>
      </trkpt>
      <trkpt lat="48.56961" lon="6.20535">
        <ele>234.40039</ele>
        <time>2026-05-18T09:53:11+02:00</time>
      </trkpt>
      <trkpt lat="48.56964" lon="6.20528">
        <ele>234.7002</ele>
        <time>2026-05-18T09:53:12+02:00</time>
      </trkpt>
      <trkpt lat="48.56967" lon="6.2052">
        <ele>234</ele>
        <time>2026-05-18T09:53:13+02:00</time>
      </trkpt>
      <trkpt lat="48.5697" lon="6.20513">
        <ele>234.90039</ele>
        <time>2026-05-18T09:53:14+02:00</time>
      </trkpt>
      <trkpt lat="48.56972" lon="6.20505">
        <ele>234.2002</ele>
        <time>2026-05-18T09:53:15+02:00</time>
      </trkpt>
      <trkpt lat="48.56975" lon="6.20497">
        <ele>234.5</ele>
        <time>2026-05-18T09:53:16+02:00</time>
      </trkpt>
      <trkpt lat="48.56977" lon="6.2049">
        <ele>233.7002</ele>
        <time>2026-05-18T09:53:17+02:00</time>
      </trkpt>
      <trkpt lat="48.5698" lon="6.20483">
        <ele>234</ele>
        <time>2026-05-18T09:53:18+02:00</time>
      </trkpt>
      <trkpt lat="48.56982" lon="6.20475">
        <ele>233.2002</ele>
        <time>2026-05-18T09:53:19+02:00</time>
      </trkpt>
      <trkpt lat="48.56985" lon="6.20468">
        <ele>233.2998</ele>
        <time>2026-05-18T09:53:20+02:00</time>
      </trkpt>
      <trkpt lat="48.56988" lon="6.20461">
        <ele>232.2998</ele>
        <time>2026-05-18T09:53:21+02:00</time>
      </trkpt>
      <trkpt lat="48.56991" lon="6.20454">
        <ele>233.60059</ele>
        <time>2026-05-18T09:53:22+02:00</time>
      </trkpt>
      <trkpt lat="48.56994" lon="6.20448">
        <ele>232.60059</ele>
        <time>2026-05-18T09:53:23+02:00</time>
      </trkpt>
      <trkpt lat="48.56995" lon="6.20445">
        <ele>232.60059</ele>
        <time>2026-05-18T09:53:24+02:00</time>
      </trkpt>
      <trkpt lat="48.57" lon="6.20435">
        <ele>231.7998</ele>
        <time>2026-05-18T09:53:25+02:00</time>
      </trkpt>
      <trkpt lat="48.57002" lon="6.20428">
        <ele>231.7998</ele>
        <time>2026-05-18T09:53:26+02:00</time>
      </trkpt>
      <trkpt lat="48.57005" lon="6.20421">
        <ele>231.7002</ele>
        <time>2026-05-18T09:53:27+02:00</time>
      </trkpt>
      <trkpt lat="48.57007" lon="6.20415">
        <ele>230.7002</ele>
        <time>2026-05-18T09:53:28+02:00</time>
      </trkpt>
      <trkpt lat="48.5701" lon="6.20409">
        <ele>231.10059</ele>
        <time>2026-05-18T09:53:29+02:00</time>
      </trkpt>
      <trkpt lat="48.57012" lon="6.20404">
        <ele>231.10059</ele>
        <time>2026-05-18T09:53:30+02:00</time>
      </trkpt>
      <trkpt lat="48.57015" lon="6.20398">
        <ele>231.2002</ele>
        <time>2026-05-18T09:53:31+02:00</time>
      </trkpt>
      <trkpt lat="48.57017" lon="6.20391">
        <ele>230.40039</ele>
        <time>2026-05-18T09:53:32+02:00</time>
      </trkpt>
      <trkpt lat="48.5702" lon="6.20385">
        <ele>231.2998</ele>
        <time>2026-05-18T09:53:33+02:00</time>
      </trkpt>
      <trkpt lat="48.57023" lon="6.20378">
        <ele>230.2002</ele>
        <time>2026-05-18T09:53:34+02:00</time>
      </trkpt>
      <trkpt lat="48.57026" lon="6.20372">
        <ele>230.2998</ele>
        <time>2026-05-18T09:53:35+02:00</time>
      </trkpt>
      <trkpt lat="48.57028" lon="6.20365">
        <ele>229.7998</ele>
        <time>2026-05-18T09:53:36+02:00</time>
      </trkpt>
      <trkpt lat="48.57031" lon="6.20358">
        <ele>231.60059</ele>
        <time>2026-05-18T09:53:37+02:00</time>
      </trkpt>
      <trkpt lat="48.57034" lon="6.20352">
        <ele>231.60059</ele>
        <time>2026-05-18T09:53:38+02:00</time>
      </trkpt>
      <trkpt lat="48.57036" lon="6.20346">
        <ele>232</ele>
        <time>2026-05-18T09:53:39+02:00</time>
      </trkpt>
      <trkpt lat="48.57038" lon="6.20339">
        <ele>233</ele>
        <time>2026-05-18T09:53:40+02:00</time>
      </trkpt>
      <trkpt lat="48.57041" lon="6.20333">
        <ele>233</ele>
        <time>2026-05-18T09:53:41+02:00</time>
      </trkpt>
      <trkpt lat="48.57043" lon="6.20326">
        <ele>233.10059</ele>
        <time>2026-05-18T09:53:42+02:00</time>
      </trkpt>
      <trkpt lat="48.57045" lon="6.2032">
        <ele>231.7998</ele>
        <time>2026-05-18T09:53:43+02:00</time>
      </trkpt>
      <trkpt lat="48.57046" lon="6.20313">
        <ele>230.60059</ele>
        <time>2026-05-18T09:53:44+02:00</time>
      </trkpt>
      <trkpt lat="48.57048" lon="6.20307">
        <ele>231.5</ele>
        <time>2026-05-18T09:53:45+02:00</time>
      </trkpt>
      <trkpt lat="48.5705" lon="6.203">
        <ele>231.10059</ele>
        <time>2026-05-18T09:53:46+02:00</time>
      </trkpt>
      <trkpt lat="48.57052" lon="6.20294">
        <ele>230.2998</ele>
        <time>2026-05-18T09:53:47+02:00</time>
      </trkpt>
      <trkpt lat="48.57054" lon="6.20288">
        <ele>230.40039</ele>
        <time>2026-05-18T09:53:48+02:00</time>
      </trkpt>
      <trkpt lat="48.57057" lon="6.20281">
        <ele>229.7998</ele>
        <time>2026-05-18T09:53:49+02:00</time>
      </trkpt>
      <trkpt lat="48.57059" lon="6.20274">
        <ele>230.2002</ele>
        <time>2026-05-18T09:53:50+02:00</time>
      </trkpt>
      <trkpt lat="48.57062" lon="6.20268">
        <ele>229.60059</ele>
        <time>2026-05-18T09:53:51+02:00</time>
      </trkpt>
      <trkpt lat="48.57065" lon="6.20261">
        <ele>229.7002</ele>
        <time>2026-05-18T09:53:52+02:00</time>
      </trkpt>
      <trkpt lat="48.57066" lon="6.20258">
        <ele>229.7002</ele>
        <time>2026-05-18T09:53:53+02:00</time>
      </trkpt>
      <trkpt lat="48.5707" lon="6.20248">
        <ele>229.90039</ele>
        <time>2026-05-18T09:53:54+02:00</time>
      </trkpt>
      <trkpt lat="48.57073" lon="6.20242">
        <ele>229.7998</ele>
        <time>2026-05-18T09:53:55+02:00</time>
      </trkpt>
      <trkpt lat="48.57075" lon="6.20235">
        <ele>229.7998</ele>
        <time>2026-05-18T09:53:56+02:00</time>
      </trkpt>
      <trkpt lat="48.57078" lon="6.20229">
        <ele>229.7002</ele>
        <time>2026-05-18T09:53:57+02:00</time>
      </trkpt>
      <trkpt lat="48.57081" lon="6.20223">
        <ele>229.7002</ele>
        <time>2026-05-18T09:53:58+02:00</time>
      </trkpt>
      <trkpt lat="48.57083" lon="6.20216">
        <ele>229.7998</ele>
        <time>2026-05-18T09:53:59+02:00</time>
      </trkpt>
      <trkpt lat="48.57086" lon="6.2021">
        <ele>230.10059</ele>
        <time>2026-05-18T09:54:00+02:00</time>
      </trkpt>
      <trkpt lat="48.57088" lon="6.20203">
        <ele>230</ele>
        <time>2026-05-18T09:54:01+02:00</time>
      </trkpt>
      <trkpt lat="48.57091" lon="6.20196">
        <ele>230</ele>
        <time>2026-05-18T09:54:02+02:00</time>
      </trkpt>
      <trkpt lat="48.57093" lon="6.2019">
        <ele>230</ele>
        <time>2026-05-18T09:54:03+02:00</time>
      </trkpt>
      <trkpt lat="48.57096" lon="6.20183">
        <ele>230.2998</ele>
        <time>2026-05-18T09:54:04+02:00</time>
      </trkpt>
      <trkpt lat="48.57099" lon="6.20177">
        <ele>230.10059</ele>
        <time>2026-05-18T09:54:05+02:00</time>
      </trkpt>
      <trkpt lat="48.57102" lon="6.2017">
        <ele>230.10059</ele>
        <time>2026-05-18T09:54:06+02:00</time>
      </trkpt>
      <trkpt lat="48.57105" lon="6.20164">
        <ele>230.2002</ele>
        <time>2026-05-18T09:54:07+02:00</time>
      </trkpt>
      <trkpt lat="48.57107" lon="6.20157">
        <ele>230.2002</ele>
        <time>2026-05-18T09:54:08+02:00</time>
      </trkpt>
      <trkpt lat="48.5711" lon="6.2015">
        <ele>230.10059</ele>
        <time>2026-05-18T09:54:09+02:00</time>
      </trkpt>
      <trkpt lat="48.57112" lon="6.20144">
        <ele>230</ele>
        <time>2026-05-18T09:54:10+02:00</time>
      </trkpt>
      <trkpt lat="48.57115" lon="6.20137">
        <ele>229.7998</ele>
        <time>2026-05-18T09:54:11+02:00</time>
      </trkpt>
      <trkpt lat="48.57118" lon="6.20131">
        <ele>229.60059</ele>
        <time>2026-05-18T09:54:12+02:00</time>
      </trkpt>
      <trkpt lat="48.5712" lon="6.20125">
        <ele>229.60059</ele>
        <time>2026-05-18T09:54:13+02:00</time>
      </trkpt>
      <trkpt lat="48.57123" lon="6.20118">
        <ele>229.7002</ele>
        <time>2026-05-18T09:54:14+02:00</time>
      </trkpt>
      <trkpt lat="48.57126" lon="6.20112">
        <ele>229.7002</ele>
        <time>2026-05-18T09:54:15+02:00</time>
      </trkpt>
      <trkpt lat="48.57128" lon="6.20106">
        <ele>229.90039</ele>
        <time>2026-05-18T09:54:16+02:00</time>
      </trkpt>
      <trkpt lat="48.57129" lon="6.20102">
        <ele>229.90039</ele>
        <time>2026-05-18T09:54:17+02:00</time>
      </trkpt>
      <trkpt lat="48.57133" lon="6.20093">
        <ele>229.60059</ele>
        <time>2026-05-18T09:54:18+02:00</time>
      </trkpt>
      <trkpt lat="48.57136" lon="6.20086">
        <ele>230</ele>
        <time>2026-05-18T09:54:19+02:00</time>
      </trkpt>
      <trkpt lat="48.57139" lon="6.2008">
        <ele>229.90039</ele>
        <time>2026-05-18T09:54:20+02:00</time>
      </trkpt>
      <trkpt lat="48.57141" lon="6.20073">
        <ele>230.2002</ele>
        <time>2026-05-18T09:54:21+02:00</time>
      </trkpt>
      <trkpt lat="48.57144" lon="6.20067">
        <ele>230</ele>
        <time>2026-05-18T09:54:22+02:00</time>
      </trkpt>
      <trkpt lat="48.57146" lon="6.2006">
        <ele>230.10059</ele>
        <time>2026-05-18T09:54:23+02:00</time>
      </trkpt>
      <trkpt lat="48.57149" lon="6.20054">
        <ele>230.2002</ele>
        <time>2026-05-18T09:54:24+02:00</time>
      </trkpt>
      <trkpt lat="48.57152" lon="6.20048">
        <ele>230</ele>
        <time>2026-05-18T09:54:25+02:00</time>
      </trkpt>
      <trkpt lat="48.57154" lon="6.20041">
        <ele>230</ele>
        <time>2026-05-18T09:54:26+02:00</time>
      </trkpt>
      <trkpt lat="48.57157" lon="6.20035">
        <ele>229.7998</ele>
        <time>2026-05-18T09:54:27+02:00</time>
      </trkpt>
      <trkpt lat="48.57159" lon="6.20028">
        <ele>229.5</ele>
        <time>2026-05-18T09:54:28+02:00</time>
      </trkpt>
      <trkpt lat="48.57161" lon="6.20022">
        <ele>229.40039</ele>
        <time>2026-05-18T09:54:29+02:00</time>
      </trkpt>
      <trkpt lat="48.57164" lon="6.20015">
        <ele>229.2998</ele>
        <time>2026-05-18T09:54:30+02:00</time>
      </trkpt>
      <trkpt lat="48.57167" lon="6.20009">
        <ele>229.60059</ele>
        <time>2026-05-18T09:54:31+02:00</time>
      </trkpt>
      <trkpt lat="48.57169" lon="6.20002">
        <ele>229.7998</ele>
        <time>2026-05-18T09:54:32+02:00</time>
      </trkpt>
      <trkpt lat="48.57172" lon="6.19995">
        <ele>230.10059</ele>
        <time>2026-05-18T09:54:33+02:00</time>
      </trkpt>
      <trkpt lat="48.57175" lon="6.19988">
        <ele>231</ele>
        <time>2026-05-18T09:54:34+02:00</time>
      </trkpt>
      <trkpt lat="48.57178" lon="6.19982">
        <ele>232.10059</ele>
        <time>2026-05-18T09:54:35+02:00</time>
      </trkpt>
      <trkpt lat="48.5718" lon="6.19975">
        <ele>231.60059</ele>
        <time>2026-05-18T09:54:36+02:00</time>
      </trkpt>
      <trkpt lat="48.57183" lon="6.19968">
        <ele>231.2002</ele>
        <time>2026-05-18T09:54:37+02:00</time>
      </trkpt>
      <trkpt lat="48.57186" lon="6.19961">
        <ele>230.40039</ele>
        <time>2026-05-18T09:54:38+02:00</time>
      </trkpt>
      <trkpt lat="48.57189" lon="6.19954">
        <ele>230</ele>
        <time>2026-05-18T09:54:39+02:00</time>
      </trkpt>
      <trkpt lat="48.57192" lon="6.19947">
        <ele>230.10059</ele>
        <time>2026-05-18T09:54:40+02:00</time>
      </trkpt>
      <trkpt lat="48.57195" lon="6.1994">
        <ele>229.7998</ele>
        <time>2026-05-18T09:54:41+02:00</time>
      </trkpt>
      <trkpt lat="48.57196" lon="6.19937">
        <ele>229.90039</ele>
        <time>2026-05-18T09:54:42+02:00</time>
      </trkpt>
      <trkpt lat="48.57201" lon="6.19927">
        <ele>229.60059</ele>
        <time>2026-05-18T09:54:43+02:00</time>
      </trkpt>
      <trkpt lat="48.57204" lon="6.19922">
        <ele>229.60059</ele>
        <time>2026-05-18T09:54:44+02:00</time>
      </trkpt>
      <trkpt lat="48.57207" lon="6.19916">
        <ele>229.40039</ele>
        <time>2026-05-18T09:54:45+02:00</time>
      </trkpt>
      <trkpt lat="48.57211" lon="6.1991">
        <ele>229.2998</ele>
        <time>2026-05-18T09:54:46+02:00</time>
      </trkpt>
      <trkpt lat="48.57214" lon="6.19905">
        <ele>230</ele>
        <time>2026-05-18T09:54:47+02:00</time>
      </trkpt>
      <trkpt lat="48.57216" lon="6.199">
        <ele>230.5</ele>
        <time>2026-05-18T09:54:48+02:00</time>
      </trkpt>
      <trkpt lat="48.57219" lon="6.19894">
        <ele>232.2002</ele>
        <time>2026-05-18T09:54:49+02:00</time>
      </trkpt>
      <trkpt lat="48.57222" lon="6.19888">
        <ele>232.2002</ele>
        <time>2026-05-18T09:54:50+02:00</time>
      </trkpt>
      <trkpt lat="48.57225" lon="6.19882">
        <ele>233.2002</ele>
        <time>2026-05-18T09:54:51+02:00</time>
      </trkpt>
      <trkpt lat="48.57227" lon="6.19876">
        <ele>232.40039</ele>
        <time>2026-05-18T09:54:52+02:00</time>
      </trkpt>
      <trkpt lat="48.5723" lon="6.19869">
        <ele>232</ele>
        <time>2026-05-18T09:54:53+02:00</time>
      </trkpt>
      <trkpt lat="48.57232" lon="6.19863">
        <ele>232</ele>
        <time>2026-05-18T09:54:54+02:00</time>
      </trkpt>
      <trkpt lat="48.57234" lon="6.19856">
        <ele>230.7002</ele>
        <time>2026-05-18T09:54:55+02:00</time>
      </trkpt>
      <trkpt lat="48.57234" lon="6.1985">
        <ele>230</ele>
        <time>2026-05-18T09:54:56+02:00</time>
      </trkpt>
      <trkpt lat="48.57232" lon="6.19844">
        <ele>230</ele>
        <time>2026-05-18T09:54:57+02:00</time>
      </trkpt>
      <trkpt lat="48.5723" lon="6.1984">
        <ele>229.7998</ele>
        <time>2026-05-18T09:54:58+02:00</time>
      </trkpt>
      <trkpt lat="48.57227" lon="6.19837">
        <ele>230.10059</ele>
        <time>2026-05-18T09:54:59+02:00</time>
      </trkpt>
      <trkpt lat="48.57224" lon="6.19835">
        <ele>230.10059</ele>
        <time>2026-05-18T09:55:00+02:00</time>
      </trkpt>
      <trkpt lat="48.57221" lon="6.19833">
        <ele>231.10059</ele>
        <time>2026-05-18T09:55:01+02:00</time>
      </trkpt>
      <trkpt lat="48.57219" lon="6.19831">
        <ele>231.10059</ele>
        <time>2026-05-18T09:55:02+02:00</time>
      </trkpt>
      <trkpt lat="48.57218" lon="6.19829">
        <ele>231.10059</ele>
        <time>2026-05-18T09:55:03+02:00</time>
      </trkpt>
      <trkpt lat="48.57216" lon="6.19827">
        <ele>232</ele>
        <time>2026-05-18T09:55:04+02:00</time>
      </trkpt>
      <trkpt lat="48.57215" lon="6.19826">
        <ele>232</ele>
        <time>2026-05-18T09:55:05+02:00</time>
      </trkpt>
      <trkpt lat="48.57214" lon="6.19824">
        <ele>232</ele>
        <time>2026-05-18T09:55:06+02:00</time>
      </trkpt>
      <trkpt lat="48.57213" lon="6.19823">
        <ele>232</ele>
        <time>2026-05-18T09:55:07+02:00</time>
      </trkpt>
      <trkpt lat="48.57211" lon="6.19821">
        <ele>232.5</ele>
        <time>2026-05-18T09:55:08+02:00</time>
      </trkpt>
      <trkpt lat="48.5721" lon="6.19821">
        <ele>232.5</ele>
        <time>2026-05-18T09:55:09+02:00</time>
      </trkpt>
      <trkpt lat="48.57209" lon="6.19819">
        <ele>232.5</ele>
        <time>2026-05-18T09:55:10+02:00</time>
      </trkpt>
      <trkpt lat="48.57207" lon="6.19816">
        <ele>232.60059</ele>
        <time>2026-05-18T09:55:11+02:00</time>
      </trkpt>
      <trkpt lat="48.57205" lon="6.19813">
        <ele>232.90039</ele>
        <time>2026-05-18T09:55:12+02:00</time>
      </trkpt>
      <trkpt lat="48.57202" lon="6.19809">
        <ele>233</ele>
        <time>2026-05-18T09:55:13+02:00</time>
      </trkpt>
      <trkpt lat="48.57198" lon="6.19805">
        <ele>233.10059</ele>
        <time>2026-05-18T09:55:14+02:00</time>
      </trkpt>
      <trkpt lat="48.57194" lon="6.198">
        <ele>233</ele>
        <time>2026-05-18T09:55:15+02:00</time>
      </trkpt>
      <trkpt lat="48.57189" lon="6.19796">
        <ele>232.90039</ele>
        <time>2026-05-18T09:55:16+02:00</time>
      </trkpt>
      <trkpt lat="48.57184" lon="6.19792">
        <ele>232.90039</ele>
        <time>2026-05-18T09:55:17+02:00</time>
      </trkpt>
      <trkpt lat="48.57178" lon="6.19789">
        <ele>232.60059</ele>
        <time>2026-05-18T09:55:18+02:00</time>
      </trkpt>
      <trkpt lat="48.57173" lon="6.19785">
        <ele>232.40039</ele>
        <time>2026-05-18T09:55:19+02:00</time>
      </trkpt>
      <trkpt lat="48.57169" lon="6.19783">
        <ele>232.10059</ele>
        <time>2026-05-18T09:55:20+02:00</time>
      </trkpt>
      <trkpt lat="48.5716" lon="6.19778">
        <ele>231.7998</ele>
        <time>2026-05-18T09:55:21+02:00</time>
      </trkpt>
      <trkpt lat="48.57153" lon="6.19775">
        <ele>231.7002</ele>
        <time>2026-05-18T09:55:22+02:00</time>
      </trkpt>
      <trkpt lat="48.57146" lon="6.19772">
        <ele>231.60059</ele>
        <time>2026-05-18T09:55:23+02:00</time>
      </trkpt>
      <trkpt lat="48.5714" lon="6.19769">
        <ele>231.60059</ele>
        <time>2026-05-18T09:55:24+02:00</time>
      </trkpt>
      <trkpt lat="48.57133" lon="6.19767">
        <ele>231.5</ele>
        <time>2026-05-18T09:55:25+02:00</time>
      </trkpt>
      <trkpt lat="48.57126" lon="6.19765">
        <ele>231.5</ele>
        <time>2026-05-18T09:55:26+02:00</time>
      </trkpt>
      <trkpt lat="48.5712" lon="6.19763">
        <ele>231.5</ele>
        <time>2026-05-18T09:55:27+02:00</time>
      </trkpt>
      <trkpt lat="48.57114" lon="6.19761">
        <ele>231.5</ele>
        <time>2026-05-18T09:55:28+02:00</time>
      </trkpt>
      <trkpt lat="48.57108" lon="6.19759">
        <ele>231.5</ele>
        <time>2026-05-18T09:55:29+02:00</time>
      </trkpt>
      <trkpt lat="48.57102" lon="6.19757">
        <ele>231.40039</ele>
        <time>2026-05-18T09:55:30+02:00</time>
      </trkpt>
      <trkpt lat="48.57096" lon="6.19755">
        <ele>231.40039</ele>
        <time>2026-05-18T09:55:31+02:00</time>
      </trkpt>
      <trkpt lat="48.5709" lon="6.19753">
        <ele>231.2998</ele>
        <time>2026-05-18T09:55:32+02:00</time>
      </trkpt>
      <trkpt lat="48.57084" lon="6.19751">
        <ele>231.2002</ele>
        <time>2026-05-18T09:55:33+02:00</time>
      </trkpt>
      <trkpt lat="48.57081" lon="6.1975">
        <ele>231.2002</ele>
        <time>2026-05-18T09:55:34+02:00</time>
      </trkpt>
      <trkpt lat="48.57073" lon="6.19747">
        <ele>230.90039</ele>
        <time>2026-05-18T09:55:35+02:00</time>
      </trkpt>
      <trkpt lat="48.57066" lon="6.19745">
        <ele>230.7998</ele>
        <time>2026-05-18T09:55:36+02:00</time>
      </trkpt>
      <trkpt lat="48.57061" lon="6.19743">
        <ele>230.7002</ele>
        <time>2026-05-18T09:55:37+02:00</time>
      </trkpt>
      <trkpt lat="48.57054" lon="6.19741">
        <ele>230.60059</ele>
        <time>2026-05-18T09:55:38+02:00</time>
      </trkpt>
      <trkpt lat="48.57048" lon="6.1974">
        <ele>230.2002</ele>
        <time>2026-05-18T09:55:39+02:00</time>
      </trkpt>
      <trkpt lat="48.57042" lon="6.19738">
        <ele>230.2002</ele>
        <time>2026-05-18T09:55:40+02:00</time>
      </trkpt>
      <trkpt lat="48.57036" lon="6.19736">
        <ele>230</ele>
        <time>2026-05-18T09:55:41+02:00</time>
      </trkpt>
      <trkpt lat="48.5703" lon="6.19734">
        <ele>229.90039</ele>
        <time>2026-05-18T09:55:42+02:00</time>
      </trkpt>
      <trkpt lat="48.57024" lon="6.19732">
        <ele>229.7998</ele>
        <time>2026-05-18T09:55:43+02:00</time>
      </trkpt>
      <trkpt lat="48.57018" lon="6.19731">
        <ele>229.5</ele>
        <time>2026-05-18T09:55:44+02:00</time>
      </trkpt>
      <trkpt lat="48.57012" lon="6.19729">
        <ele>229.40039</ele>
        <time>2026-05-18T09:55:45+02:00</time>
      </trkpt>
      <trkpt lat="48.57007" lon="6.19727">
        <ele>229.40039</ele>
        <time>2026-05-18T09:55:46+02:00</time>
      </trkpt>
      <trkpt lat="48.57" lon="6.19725">
        <ele>229.2998</ele>
        <time>2026-05-18T09:55:47+02:00</time>
      </trkpt>
      <trkpt lat="48.56995" lon="6.19724">
        <ele>229.2998</ele>
        <time>2026-05-18T09:55:48+02:00</time>
      </trkpt>
      <trkpt lat="48.56989" lon="6.19722">
        <ele>229</ele>
        <time>2026-05-18T09:55:49+02:00</time>
      </trkpt>
      <trkpt lat="48.56983" lon="6.19719">
        <ele>229</ele>
        <time>2026-05-18T09:55:50+02:00</time>
      </trkpt>
      <trkpt lat="48.56978" lon="6.19716">
        <ele>229</ele>
        <time>2026-05-18T09:55:51+02:00</time>
      </trkpt>
      <trkpt lat="48.56974" lon="6.1971">
        <ele>228.7998</ele>
        <time>2026-05-18T09:55:52+02:00</time>
      </trkpt>
      <trkpt lat="48.56971" lon="6.19702">
        <ele>228.7002</ele>
        <time>2026-05-18T09:55:53+02:00</time>
      </trkpt>
      <trkpt lat="48.5697" lon="6.19693">
        <ele>228.5</ele>
        <time>2026-05-18T09:55:54+02:00</time>
      </trkpt>
      <trkpt lat="48.5697" lon="6.19688">
        <ele>228.40039</ele>
        <time>2026-05-18T09:55:55+02:00</time>
      </trkpt>
      <trkpt lat="48.56971" lon="6.19675">
        <ele>228.2998</ele>
        <time>2026-05-18T09:55:56+02:00</time>
      </trkpt>
      <trkpt lat="48.5697" lon="6.19667">
        <ele>228.10059</ele>
        <time>2026-05-18T09:55:57+02:00</time>
      </trkpt>
      <trkpt lat="48.56967" lon="6.19659">
        <ele>228</ele>
        <time>2026-05-18T09:55:58+02:00</time>
      </trkpt>
      <trkpt lat="48.56965" lon="6.19652">
        <ele>227.90039</ele>
        <time>2026-05-18T09:55:59+02:00</time>
      </trkpt>
      <trkpt lat="48.56962" lon="6.19644">
        <ele>227.90039</ele>
        <time>2026-05-18T09:56:00+02:00</time>
      </trkpt>
      <trkpt lat="48.56959" lon="6.19637">
        <ele>227.7998</ele>
        <time>2026-05-18T09:56:01+02:00</time>
      </trkpt>
      <trkpt lat="48.56955" lon="6.1963">
        <ele>227.90039</ele>
        <time>2026-05-18T09:56:02+02:00</time>
      </trkpt>
      <trkpt lat="48.56951" lon="6.19623">
        <ele>227.7998</ele>
        <time>2026-05-18T09:56:03+02:00</time>
      </trkpt>
      <trkpt lat="48.56948" lon="6.19616">
        <ele>227.7998</ele>
        <time>2026-05-18T09:56:04+02:00</time>
      </trkpt>
      <trkpt lat="48.56944" lon="6.19609">
        <ele>227.90039</ele>
        <time>2026-05-18T09:56:05+02:00</time>
      </trkpt>
      <trkpt lat="48.5694" lon="6.19602">
        <ele>227.7998</ele>
        <time>2026-05-18T09:56:06+02:00</time>
      </trkpt>
      <trkpt lat="48.56936" lon="6.19595">
        <ele>228</ele>
        <time>2026-05-18T09:56:07+02:00</time>
      </trkpt>
      <trkpt lat="48.56932" lon="6.19587">
        <ele>228.10059</ele>
        <time>2026-05-18T09:56:08+02:00</time>
      </trkpt>
      <trkpt lat="48.56928" lon="6.19579">
        <ele>228.2002</ele>
        <time>2026-05-18T09:56:09+02:00</time>
      </trkpt>
      <trkpt lat="48.56924" lon="6.19572">
        <ele>228.2002</ele>
        <time>2026-05-18T09:56:10+02:00</time>
      </trkpt>
      <trkpt lat="48.5692" lon="6.19564">
        <ele>228.2002</ele>
        <time>2026-05-18T09:56:11+02:00</time>
      </trkpt>
      <trkpt lat="48.56917" lon="6.19556">
        <ele>228.2002</ele>
        <time>2026-05-18T09:56:12+02:00</time>
      </trkpt>
      <trkpt lat="48.56913" lon="6.19549">
        <ele>228.2002</ele>
        <time>2026-05-18T09:56:13+02:00</time>
      </trkpt>
      <trkpt lat="48.5691" lon="6.19541">
        <ele>228.2002</ele>
        <time>2026-05-18T09:56:14+02:00</time>
      </trkpt>
      <trkpt lat="48.56906" lon="6.19533">
        <ele>228.2002</ele>
        <time>2026-05-18T09:56:15+02:00</time>
      </trkpt>
      <trkpt lat="48.56903" lon="6.19526">
        <ele>228.2998</ele>
        <time>2026-05-18T09:56:16+02:00</time>
      </trkpt>
      <trkpt lat="48.569" lon="6.19518">
        <ele>228.2002</ele>
        <time>2026-05-18T09:56:17+02:00</time>
      </trkpt>
      <trkpt lat="48.56897" lon="6.19511">
        <ele>228.2998</ele>
        <time>2026-05-18T09:56:18+02:00</time>
      </trkpt>
      <trkpt lat="48.56894" lon="6.19503">
        <ele>228.2998</ele>
        <time>2026-05-18T09:56:19+02:00</time>
      </trkpt>
      <trkpt lat="48.56893" lon="6.195">
        <ele>228.2998</ele>
        <time>2026-05-18T09:56:20+02:00</time>
      </trkpt>
      <trkpt lat="48.56889" lon="6.1949">
        <ele>228.2002</ele>
        <time>2026-05-18T09:56:21+02:00</time>
      </trkpt>
      <trkpt lat="48.56886" lon="6.19484">
        <ele>228.2998</ele>
        <time>2026-05-18T09:56:22+02:00</time>
      </trkpt>
      <trkpt lat="48.56884" lon="6.19478">
        <ele>228.2002</ele>
        <time>2026-05-18T09:56:23+02:00</time>
      </trkpt>
      <trkpt lat="48.56882" lon="6.19472">
        <ele>228.2002</ele>
        <time>2026-05-18T09:56:24+02:00</time>
      </trkpt>
      <trkpt lat="48.56879" lon="6.19465">
        <ele>228.10059</ele>
        <time>2026-05-18T09:56:25+02:00</time>
      </trkpt>
      <trkpt lat="48.56877" lon="6.19458">
        <ele>228.10059</ele>
        <time>2026-05-18T09:56:26+02:00</time>
      </trkpt>
      <trkpt lat="48.56875" lon="6.19451">
        <ele>228.10059</ele>
        <time>2026-05-18T09:56:27+02:00</time>
      </trkpt>
      <trkpt lat="48.56872" lon="6.19444">
        <ele>228</ele>
        <time>2026-05-18T09:56:28+02:00</time>
      </trkpt>
      <trkpt lat="48.5687" lon="6.19437">
        <ele>227.90039</ele>
        <time>2026-05-18T09:56:29+02:00</time>
      </trkpt>
      <trkpt lat="48.56867" lon="6.1943">
        <ele>227.7998</ele>
        <time>2026-05-18T09:56:30+02:00</time>
      </trkpt>
      <trkpt lat="48.56864" lon="6.19424">
        <ele>228</ele>
        <time>2026-05-18T09:56:31+02:00</time>
      </trkpt>
      <trkpt lat="48.56861" lon="6.19417">
        <ele>227.7998</ele>
        <time>2026-05-18T09:56:32+02:00</time>
      </trkpt>
      <trkpt lat="48.56858" lon="6.19412">
        <ele>228</ele>
        <time>2026-05-18T09:56:33+02:00</time>
      </trkpt>
      <trkpt lat="48.56856" lon="6.19405">
        <ele>227.90039</ele>
        <time>2026-05-18T09:56:34+02:00</time>
      </trkpt>
      <trkpt lat="48.56854" lon="6.19399">
        <ele>228.10059</ele>
        <time>2026-05-18T09:56:35+02:00</time>
      </trkpt>
      <trkpt lat="48.56851" lon="6.19392">
        <ele>228.10059</ele>
        <time>2026-05-18T09:56:36+02:00</time>
      </trkpt>
      <trkpt lat="48.56849" lon="6.19386">
        <ele>228.10059</ele>
        <time>2026-05-18T09:56:37+02:00</time>
      </trkpt>
      <trkpt lat="48.56846" lon="6.1938">
        <ele>228.2002</ele>
        <time>2026-05-18T09:56:38+02:00</time>
      </trkpt>
      <trkpt lat="48.56843" lon="6.19374">
        <ele>228.2002</ele>
        <time>2026-05-18T09:56:39+02:00</time>
      </trkpt>
      <trkpt lat="48.56841" lon="6.19368">
        <ele>228.2998</ele>
        <time>2026-05-18T09:56:40+02:00</time>
      </trkpt>
      <trkpt lat="48.56838" lon="6.19362">
        <ele>228.2998</ele>
        <time>2026-05-18T09:56:41+02:00</time>
      </trkpt>
      <trkpt lat="48.56835" lon="6.19356">
        <ele>228.40039</ele>
        <time>2026-05-18T09:56:42+02:00</time>
      </trkpt>
      <trkpt lat="48.56833" lon="6.1935">
        <ele>228.40039</ele>
        <time>2026-05-18T09:56:43+02:00</time>
      </trkpt>
      <trkpt lat="48.56831" lon="6.19347">
        <ele>228.5</ele>
        <time>2026-05-18T09:56:44+02:00</time>
      </trkpt>
      <trkpt lat="48.56827" lon="6.19338">
        <ele>228.5</ele>
        <time>2026-05-18T09:56:45+02:00</time>
      </trkpt>
      <trkpt lat="48.56825" lon="6.19332">
        <ele>228.60059</ele>
        <time>2026-05-18T09:56:46+02:00</time>
      </trkpt>
      <trkpt lat="48.56822" lon="6.19327">
        <ele>228.60059</ele>
        <time>2026-05-18T09:56:47+02:00</time>
      </trkpt>
      <trkpt lat="48.56819" lon="6.19322">
        <ele>228.7002</ele>
        <time>2026-05-18T09:56:48+02:00</time>
      </trkpt>
      <trkpt lat="48.56817" lon="6.19318">
        <ele>228.7002</ele>
        <time>2026-05-18T09:56:49+02:00</time>
      </trkpt>
      <trkpt lat="48.56814" lon="6.19314">
        <ele>228.7998</ele>
        <time>2026-05-18T09:56:50+02:00</time>
      </trkpt>
      <trkpt lat="48.56813" lon="6.19312">
        <ele>228.7998</ele>
        <time>2026-05-18T09:56:51+02:00</time>
      </trkpt>
      <trkpt lat="48.5681" lon="6.19307">
        <ele>228.7002</ele>
        <time>2026-05-18T09:56:52+02:00</time>
      </trkpt>
      <trkpt lat="48.56808" lon="6.19303">
        <ele>228.90039</ele>
        <time>2026-05-18T09:56:53+02:00</time>
      </trkpt>
      <trkpt lat="48.56806" lon="6.19299">
        <ele>228.7998</ele>
        <time>2026-05-18T09:56:54+02:00</time>
      </trkpt>
      <trkpt lat="48.56804" lon="6.19294">
        <ele>228.7002</ele>
        <time>2026-05-18T09:56:55+02:00</time>
      </trkpt>
      <trkpt lat="48.56801" lon="6.1929">
        <ele>228.7998</ele>
        <time>2026-05-18T09:56:56+02:00</time>
      </trkpt>
      <trkpt lat="48.56799" lon="6.19285">
        <ele>228.7002</ele>
        <time>2026-05-18T09:56:57+02:00</time>
      </trkpt>
      <trkpt lat="48.56798" lon="6.19282">
        <ele>228.7002</ele>
        <time>2026-05-18T09:56:58+02:00</time>
      </trkpt>
      <trkpt lat="48.56794" lon="6.19275">
        <ele>228.7998</ele>
        <time>2026-05-18T09:56:59+02:00</time>
      </trkpt>
      <trkpt lat="48.56791" lon="6.19271">
        <ele>228.90039</ele>
        <time>2026-05-18T09:57:00+02:00</time>
      </trkpt>
      <trkpt lat="48.56789" lon="6.19266">
        <ele>228.90039</ele>
        <time>2026-05-18T09:57:01+02:00</time>
      </trkpt>
      <trkpt lat="48.56786" lon="6.1926">
        <ele>229</ele>
        <time>2026-05-18T09:57:02+02:00</time>
      </trkpt>
      <trkpt lat="48.56784" lon="6.19254">
        <ele>228.90039</ele>
        <time>2026-05-18T09:57:03+02:00</time>
      </trkpt>
      <trkpt lat="48.56781" lon="6.19247">
        <ele>228.90039</ele>
        <time>2026-05-18T09:57:04+02:00</time>
      </trkpt>
      <trkpt lat="48.56779" lon="6.19243">
        <ele>229</ele>
        <time>2026-05-18T09:57:05+02:00</time>
      </trkpt>
      <trkpt lat="48.56775" lon="6.19233">
        <ele>228.90039</ele>
        <time>2026-05-18T09:57:06+02:00</time>
      </trkpt>
      <trkpt lat="48.56772" lon="6.19226">
        <ele>229</ele>
        <time>2026-05-18T09:57:07+02:00</time>
      </trkpt>
      <trkpt lat="48.56769" lon="6.19219">
        <ele>228.90039</ele>
        <time>2026-05-18T09:57:08+02:00</time>
      </trkpt>
      <trkpt lat="48.56765" lon="6.19212">
        <ele>228.90039</ele>
        <time>2026-05-18T09:57:09+02:00</time>
      </trkpt>
      <trkpt lat="48.56762" lon="6.19206">
        <ele>228.90039</ele>
        <time>2026-05-18T09:57:10+02:00</time>
      </trkpt>
      <trkpt lat="48.56759" lon="6.19199">
        <ele>228.90039</ele>
        <time>2026-05-18T09:57:11+02:00</time>
      </trkpt>
      <trkpt lat="48.56756" lon="6.19192">
        <ele>228.90039</ele>
        <time>2026-05-18T09:57:12+02:00</time>
      </trkpt>
      <trkpt lat="48.56753" lon="6.19186">
        <ele>228.7998</ele>
        <time>2026-05-18T09:57:13+02:00</time>
      </trkpt>
      <trkpt lat="48.5675" lon="6.1918">
        <ele>228.7998</ele>
        <time>2026-05-18T09:57:14+02:00</time>
      </trkpt>
      <trkpt lat="48.56747" lon="6.19175">
        <ele>228.7998</ele>
        <time>2026-05-18T09:57:15+02:00</time>
      </trkpt>
      <trkpt lat="48.56745" lon="6.19169">
        <ele>228.7998</ele>
        <time>2026-05-18T09:57:16+02:00</time>
      </trkpt>
      <trkpt lat="48.56743" lon="6.19164">
        <ele>228.7002</ele>
        <time>2026-05-18T09:57:17+02:00</time>
      </trkpt>
      <trkpt lat="48.56741" lon="6.19159">
        <ele>228.7002</ele>
        <time>2026-05-18T09:57:18+02:00</time>
      </trkpt>
      <trkpt lat="48.56739" lon="6.19154">
        <ele>228.60059</ele>
        <time>2026-05-18T09:57:19+02:00</time>
      </trkpt>
      <trkpt lat="48.56738" lon="6.19151">
        <ele>228.60059</ele>
        <time>2026-05-18T09:57:20+02:00</time>
      </trkpt>
      <trkpt lat="48.56734" lon="6.19145">
        <ele>228.60059</ele>
        <time>2026-05-18T09:57:21+02:00</time>
      </trkpt>
      <trkpt lat="48.56731" lon="6.19141">
        <ele>228.60059</ele>
        <time>2026-05-18T09:57:22+02:00</time>
      </trkpt>
      <trkpt lat="48.56729" lon="6.19136">
        <ele>228.60059</ele>
        <time>2026-05-18T09:57:23+02:00</time>
      </trkpt>
      <trkpt lat="48.56727" lon="6.19131">
        <ele>228.60059</ele>
        <time>2026-05-18T09:57:24+02:00</time>
      </trkpt>
      <trkpt lat="48.56725" lon="6.19126">
        <ele>228.60059</ele>
        <time>2026-05-18T09:57:25+02:00</time>
      </trkpt>
      <trkpt lat="48.56722" lon="6.1912">
        <ele>228.60059</ele>
        <time>2026-05-18T09:57:26+02:00</time>
      </trkpt>
      <trkpt lat="48.56719" lon="6.19116">
        <ele>228.60059</ele>
        <time>2026-05-18T09:57:27+02:00</time>
      </trkpt>
      <trkpt lat="48.56717" lon="6.19111">
        <ele>228.60059</ele>
        <time>2026-05-18T09:57:28+02:00</time>
      </trkpt>
      <trkpt lat="48.56714" lon="6.19105">
        <ele>228.40039</ele>
        <time>2026-05-18T09:57:29+02:00</time>
      </trkpt>
      <trkpt lat="48.56713" lon="6.19102">
        <ele>228.40039</ele>
        <time>2026-05-18T09:57:30+02:00</time>
      </trkpt>
      <trkpt lat="48.56709" lon="6.19094">
        <ele>228.10059</ele>
        <time>2026-05-18T09:57:31+02:00</time>
      </trkpt>
      <trkpt lat="48.56707" lon="6.19089">
        <ele>228.10059</ele>
        <time>2026-05-18T09:57:32+02:00</time>
      </trkpt>
      <trkpt lat="48.56704" lon="6.19084">
        <ele>227.7002</ele>
        <time>2026-05-18T09:57:33+02:00</time>
      </trkpt>
      <trkpt lat="48.56701" lon="6.1908">
        <ele>227.7002</ele>
        <time>2026-05-18T09:57:34+02:00</time>
      </trkpt>
      <trkpt lat="48.56699" lon="6.19075">
        <ele>227.40039</ele>
        <time>2026-05-18T09:57:35+02:00</time>
      </trkpt>
      <trkpt lat="48.56696" lon="6.19071">
        <ele>227.10059</ele>
        <time>2026-05-18T09:57:36+02:00</time>
      </trkpt>
      <trkpt lat="48.56694" lon="6.19067">
        <ele>227.10059</ele>
        <time>2026-05-18T09:57:37+02:00</time>
      </trkpt>
      <trkpt lat="48.56692" lon="6.19062">
        <ele>226.7998</ele>
        <time>2026-05-18T09:57:38+02:00</time>
      </trkpt>
      <trkpt lat="48.5669" lon="6.19058">
        <ele>226.7998</ele>
        <time>2026-05-18T09:57:39+02:00</time>
      </trkpt>
      <trkpt lat="48.56688" lon="6.19054">
        <ele>226.7998</ele>
        <time>2026-05-18T09:57:40+02:00</time>
      </trkpt>
      <trkpt lat="48.56687" lon="6.19052">
        <ele>226.60059</ele>
        <time>2026-05-18T09:57:41+02:00</time>
      </trkpt>
      <trkpt lat="48.56687" lon="6.1905">
        <ele>226.60059</ele>
        <time>2026-05-18T09:57:42+02:00</time>
      </trkpt>
      <trkpt lat="48.56686" lon="6.19049">
        <ele>226.60059</ele>
        <time>2026-05-18T09:57:43+02:00</time>
      </trkpt>
      <trkpt lat="48.56686" lon="6.19049">
        <ele>226.60059</ele>
        <time>2026-05-18T09:57:44+02:00</time>
      </trkpt>
      <trkpt lat="48.56686" lon="6.19049">
        <ele>226.60059</ele>
        <time>2026-05-18T09:57:45+02:00</time>
      </trkpt>
      <trkpt lat="48.56686" lon="6.19049">
        <ele>226.60059</ele>
        <time>2026-05-18T09:57:46+02:00</time>
      </trkpt>
      <trkpt lat="48.56674" lon="6.1903">
        <ele>227.2002</ele>
        <time>2026-05-18T09:58:29+02:00</time>
      </trkpt>
      <trkpt lat="48.56672" lon="6.19025">
        <ele>228</ele>
        <time>2026-05-18T09:58:30+02:00</time>
      </trkpt>
      <trkpt lat="48.56671" lon="6.19021">
        <ele>228</ele>
        <time>2026-05-18T09:58:31+02:00</time>
      </trkpt>
      <trkpt lat="48.56669" lon="6.19017">
        <ele>228.7998</ele>
        <time>2026-05-18T09:58:32+02:00</time>
      </trkpt>
      <trkpt lat="48.56666" lon="6.19013">
        <ele>229.10059</ele>
        <time>2026-05-18T09:58:33+02:00</time>
      </trkpt>
      <trkpt lat="48.56663" lon="6.19009">
        <ele>229.7002</ele>
        <time>2026-05-18T09:58:34+02:00</time>
      </trkpt>
      <trkpt lat="48.5666" lon="6.19004">
        <ele>230.10059</ele>
        <time>2026-05-18T09:58:35+02:00</time>
      </trkpt>
      <trkpt lat="48.56656" lon="6.19">
        <ele>230.7002</ele>
        <time>2026-05-18T09:58:36+02:00</time>
      </trkpt>
      <trkpt lat="48.56652" lon="6.18996">
        <ele>230.90039</ele>
        <time>2026-05-18T09:58:37+02:00</time>
      </trkpt>
      <trkpt lat="48.56648" lon="6.18993">
        <ele>231.7002</ele>
        <time>2026-05-18T09:58:38+02:00</time>
      </trkpt>
      <trkpt lat="48.56644" lon="6.18992">
        <ele>231.90039</ele>
        <time>2026-05-18T09:58:39+02:00</time>
      </trkpt>
      <trkpt lat="48.56642" lon="6.18989">
        <ele>231.90039</ele>
        <time>2026-05-18T09:58:40+02:00</time>
      </trkpt>
      <trkpt lat="48.56639" lon="6.18985">
        <ele>232.2002</ele>
        <time>2026-05-18T09:58:41+02:00</time>
      </trkpt>
      <trkpt lat="48.56638" lon="6.18981">
        <ele>232.40039</ele>
        <time>2026-05-18T09:58:42+02:00</time>
      </trkpt>
      <trkpt lat="48.56638" lon="6.18976">
        <ele>232.7002</ele>
        <time>2026-05-18T09:58:43+02:00</time>
      </trkpt>
      <trkpt lat="48.56639" lon="6.18973">
        <ele>232.5</ele>
        <time>2026-05-18T09:58:44+02:00</time>
      </trkpt>
      <trkpt lat="48.5664" lon="6.1897">
        <ele>232.5</ele>
        <time>2026-05-18T09:58:45+02:00</time>
      </trkpt>
      <trkpt lat="48.56641" lon="6.18967">
        <ele>232.60059</ele>
        <time>2026-05-18T09:58:46+02:00</time>
      </trkpt>
      <trkpt lat="48.56642" lon="6.18964">
        <ele>232.60059</ele>
        <time>2026-05-18T09:58:47+02:00</time>
      </trkpt>
      <trkpt lat="48.56643" lon="6.18964">
        <ele>232.60059</ele>
        <time>2026-05-18T09:58:48+02:00</time>
      </trkpt>
      <trkpt lat="48.56645" lon="6.18963">
        <ele>232.40039</ele>
        <time>2026-05-18T09:58:49+02:00</time>
      </trkpt>
      <trkpt lat="48.56646" lon="6.18961">
        <ele>232.40039</ele>
        <time>2026-05-18T09:58:50+02:00</time>
      </trkpt>
      <trkpt lat="48.56647" lon="6.18957">
        <ele>232.2998</ele>
        <time>2026-05-18T09:58:51+02:00</time>
      </trkpt>
      <trkpt lat="48.56647" lon="6.18954">
        <ele>232.2998</ele>
        <time>2026-05-18T09:58:52+02:00</time>
      </trkpt>
      <trkpt lat="48.56648" lon="6.1895">
        <ele>232.2998</ele>
        <time>2026-05-18T09:58:53+02:00</time>
      </trkpt>
      <trkpt lat="48.5665" lon="6.18945">
        <ele>232.10059</ele>
        <time>2026-05-18T09:58:54+02:00</time>
      </trkpt>
      <trkpt lat="48.56652" lon="6.18941">
        <ele>232</ele>
        <time>2026-05-18T09:58:55+02:00</time>
      </trkpt>
      <trkpt lat="48.56654" lon="6.18936">
        <ele>232</ele>
        <time>2026-05-18T09:58:56+02:00</time>
      </trkpt>
      <trkpt lat="48.56656" lon="6.18932">
        <ele>231.7998</ele>
        <time>2026-05-18T09:58:57+02:00</time>
      </trkpt>
      <trkpt lat="48.56659" lon="6.18927">
        <ele>231.7998</ele>
        <time>2026-05-18T09:58:58+02:00</time>
      </trkpt>
      <trkpt lat="48.56662" lon="6.18922">
        <ele>231.60059</ele>
        <time>2026-05-18T09:58:59+02:00</time>
      </trkpt>
      <trkpt lat="48.56664" lon="6.18917">
        <ele>231.60059</ele>
        <time>2026-05-18T09:59:00+02:00</time>
      </trkpt>
      <trkpt lat="48.56667" lon="6.18912">
        <ele>231.40039</ele>
        <time>2026-05-18T09:59:01+02:00</time>
      </trkpt>
      <trkpt lat="48.5667" lon="6.18907">
        <ele>231.40039</ele>
        <time>2026-05-18T09:59:02+02:00</time>
      </trkpt>
      <trkpt lat="48.56673" lon="6.18903">
        <ele>231.2998</ele>
        <time>2026-05-18T09:59:03+02:00</time>
      </trkpt>
      <trkpt lat="48.56676" lon="6.18898">
        <ele>231.2998</ele>
        <time>2026-05-18T09:59:04+02:00</time>
      </trkpt>
      <trkpt lat="48.56679" lon="6.18893">
        <ele>231.2002</ele>
        <time>2026-05-18T09:59:05+02:00</time>
      </trkpt>
      <trkpt lat="48.56683" lon="6.18888">
        <ele>231.2002</ele>
        <time>2026-05-18T09:59:06+02:00</time>
      </trkpt>
      <trkpt lat="48.56686" lon="6.18884">
        <ele>231.10059</ele>
        <time>2026-05-18T09:59:07+02:00</time>
      </trkpt>
      <trkpt lat="48.5669" lon="6.18879">
        <ele>231</ele>
        <time>2026-05-18T09:59:08+02:00</time>
      </trkpt>
      <trkpt lat="48.56695" lon="6.18876">
        <ele>231</ele>
        <time>2026-05-18T09:59:09+02:00</time>
      </trkpt>
      <trkpt lat="48.56699" lon="6.18873">
        <ele>230.90039</ele>
        <time>2026-05-18T09:59:10+02:00</time>
      </trkpt>
      <trkpt lat="48.56704" lon="6.18869">
        <ele>230.90039</ele>
        <time>2026-05-18T09:59:11+02:00</time>
      </trkpt>
      <trkpt lat="48.56708" lon="6.18867">
        <ele>230.7998</ele>
        <time>2026-05-18T09:59:12+02:00</time>
      </trkpt>
      <trkpt lat="48.56712" lon="6.18864">
        <ele>230.7998</ele>
        <time>2026-05-18T09:59:13+02:00</time>
      </trkpt>
      <trkpt lat="48.56716" lon="6.18862">
        <ele>230.7002</ele>
        <time>2026-05-18T09:59:14+02:00</time>
      </trkpt>
      <trkpt lat="48.56721" lon="6.1886">
        <ele>230.7002</ele>
        <time>2026-05-18T09:59:15+02:00</time>
      </trkpt>
      <trkpt lat="48.56725" lon="6.18857">
        <ele>230.60059</ele>
        <time>2026-05-18T09:59:16+02:00</time>
      </trkpt>
      <trkpt lat="48.56728" lon="6.18855">
        <ele>230.7002</ele>
        <time>2026-05-18T09:59:17+02:00</time>
      </trkpt>
      <trkpt lat="48.56731" lon="6.18853">
        <ele>230.60059</ele>
        <time>2026-05-18T09:59:18+02:00</time>
      </trkpt>
      <trkpt lat="48.56734" lon="6.1885">
        <ele>230.60059</ele>
        <time>2026-05-18T09:59:19+02:00</time>
      </trkpt>
      <trkpt lat="48.56736" lon="6.18848">
        <ele>230.60059</ele>
        <time>2026-05-18T09:59:20+02:00</time>
      </trkpt>
      <trkpt lat="48.56738" lon="6.18849">
        <ele>230.60059</ele>
        <time>2026-05-18T09:59:21+02:00</time>
      </trkpt>
      <trkpt lat="48.5674" lon="6.1885">
        <ele>230.60059</ele>
        <time>2026-05-18T09:59:22+02:00</time>
      </trkpt>
      <trkpt lat="48.56741" lon="6.18849">
        <ele>230.5</ele>
        <time>2026-05-18T09:59:23+02:00</time>
      </trkpt>
      <trkpt lat="48.56744" lon="6.18848">
        <ele>230.5</ele>
        <time>2026-05-18T09:59:24+02:00</time>
      </trkpt>
      <trkpt lat="48.56746" lon="6.18845">
        <ele>230.7002</ele>
        <time>2026-05-18T09:59:25+02:00</time>
      </trkpt>
      <trkpt lat="48.56748" lon="6.18841">
        <ele>230.60059</ele>
        <time>2026-05-18T09:59:26+02:00</time>
      </trkpt>
      <trkpt lat="48.56749" lon="6.18837">
        <ele>230.7998</ele>
        <time>2026-05-18T09:59:27+02:00</time>
      </trkpt>
      <trkpt lat="48.56749" lon="6.18833">
        <ele>230.7998</ele>
        <time>2026-05-18T09:59:28+02:00</time>
      </trkpt>
      <trkpt lat="48.5675" lon="6.18828">
        <ele>230.90039</ele>
        <time>2026-05-18T09:59:29+02:00</time>
      </trkpt>
      <trkpt lat="48.56752" lon="6.18824">
        <ele>230.90039</ele>
        <time>2026-05-18T09:59:30+02:00</time>
      </trkpt>
      <trkpt lat="48.56754" lon="6.18822">
        <ele>231.10059</ele>
        <time>2026-05-18T09:59:31+02:00</time>
      </trkpt>
      <trkpt lat="48.56757" lon="6.18821">
        <ele>231.10059</ele>
        <time>2026-05-18T09:59:32+02:00</time>
      </trkpt>
      <trkpt lat="48.56759" lon="6.18821">
        <ele>231</ele>
        <time>2026-05-18T09:59:33+02:00</time>
      </trkpt>
      <trkpt lat="48.56764" lon="6.18821">
        <ele>231</ele>
        <time>2026-05-18T09:59:34+02:00</time>
      </trkpt>
      <trkpt lat="48.56768" lon="6.18821">
        <ele>231</ele>
        <time>2026-05-18T09:59:35+02:00</time>
      </trkpt>
      <trkpt lat="48.56773" lon="6.1882">
        <ele>231</ele>
        <time>2026-05-18T09:59:36+02:00</time>
      </trkpt>
      <trkpt lat="48.56777" lon="6.1882">
        <ele>231</ele>
        <time>2026-05-18T09:59:37+02:00</time>
      </trkpt>
      <trkpt lat="48.56782" lon="6.18819">
        <ele>231</ele>
        <time>2026-05-18T09:59:38+02:00</time>
      </trkpt>
      <trkpt lat="48.56786" lon="6.18818">
        <ele>231</ele>
        <time>2026-05-18T09:59:39+02:00</time>
      </trkpt>
      <trkpt lat="48.5679" lon="6.18818">
        <ele>231</ele>
        <time>2026-05-18T09:59:40+02:00</time>
      </trkpt>
      <trkpt lat="48.56795" lon="6.18817">
        <ele>231</ele>
        <time>2026-05-18T09:59:41+02:00</time>
      </trkpt>
      <trkpt lat="48.56799" lon="6.18816">
        <ele>231</ele>
        <time>2026-05-18T09:59:42+02:00</time>
      </trkpt>
      <trkpt lat="48.56804" lon="6.18816">
        <ele>231</ele>
        <time>2026-05-18T09:59:43+02:00</time>
      </trkpt>
      <trkpt lat="48.56808" lon="6.18816">
        <ele>231</ele>
        <time>2026-05-18T09:59:44+02:00</time>
      </trkpt>
      <trkpt lat="48.56812" lon="6.18816">
        <ele>231</ele>
        <time>2026-05-18T09:59:45+02:00</time>
      </trkpt>
      <trkpt lat="48.56817" lon="6.18816">
        <ele>231</ele>
        <time>2026-05-18T09:59:46+02:00</time>
      </trkpt>
      <trkpt lat="48.5682" lon="6.18816">
        <ele>231</ele>
        <time>2026-05-18T09:59:47+02:00</time>
      </trkpt>
      <trkpt lat="48.56823" lon="6.18817">
        <ele>231.10059</ele>
        <time>2026-05-18T09:59:48+02:00</time>
      </trkpt>
      <trkpt lat="48.56826" lon="6.18817">
        <ele>231.10059</ele>
        <time>2026-05-18T09:59:49+02:00</time>
      </trkpt>
      <trkpt lat="48.56829" lon="6.18818">
        <ele>231.10059</ele>
        <time>2026-05-18T09:59:50+02:00</time>
      </trkpt>
      <trkpt lat="48.56832" lon="6.18817">
        <ele>231.10059</ele>
        <time>2026-05-18T09:59:51+02:00</time>
      </trkpt>
      <trkpt lat="48.56834" lon="6.18815">
        <ele>231.10059</ele>
        <time>2026-05-18T09:59:52+02:00</time>
      </trkpt>
      <trkpt lat="48.56836" lon="6.18814">
        <ele>231.10059</ele>
        <time>2026-05-18T09:59:53+02:00</time>
      </trkpt>
      <trkpt lat="48.56839" lon="6.18813">
        <ele>231.2998</ele>
        <time>2026-05-18T09:59:54+02:00</time>
      </trkpt>
      <trkpt lat="48.56841" lon="6.18814">
        <ele>231.2002</ele>
        <time>2026-05-18T09:59:55+02:00</time>
      </trkpt>
      <trkpt lat="48.56844" lon="6.18816">
        <ele>231.2002</ele>
        <time>2026-05-18T09:59:56+02:00</time>
      </trkpt>
      <trkpt lat="48.56847" lon="6.18818">
        <ele>231.2002</ele>
        <time>2026-05-18T09:59:57+02:00</time>
      </trkpt>
      <trkpt lat="48.56849" lon="6.1882">
        <ele>231.2002</ele>
        <time>2026-05-18T09:59:58+02:00</time>
      </trkpt>
      <trkpt lat="48.56852" lon="6.18823">
        <ele>231</ele>
        <time>2026-05-18T09:59:59+02:00</time>
      </trkpt>
      <trkpt lat="48.56856" lon="6.18825">
        <ele>231</ele>
        <time>2026-05-18T10:00:00+02:00</time>
      </trkpt>
      <trkpt lat="48.56859" lon="6.18827">
        <ele>231</ele>
        <time>2026-05-18T10:00:01+02:00</time>
      </trkpt>
      <trkpt lat="48.56861" lon="6.18829">
        <ele>231</ele>
        <time>2026-05-18T10:00:02+02:00</time>
      </trkpt>
      <trkpt lat="48.56864" lon="6.18829">
        <ele>231</ele>
        <time>2026-05-18T10:00:03+02:00</time>
      </trkpt>
      <trkpt lat="48.56867" lon="6.18828">
        <ele>231.10059</ele>
        <time>2026-05-18T10:00:04+02:00</time>
      </trkpt>
      <trkpt lat="48.56867" lon="6.18826">
        <ele>231.10059</ele>
        <time>2026-05-18T10:00:05+02:00</time>
      </trkpt>
      <trkpt lat="48.56868" lon="6.18823">
        <ele>231.10059</ele>
        <time>2026-05-18T10:00:06+02:00</time>
      </trkpt>
      <trkpt lat="48.56868" lon="6.1882">
        <ele>231.2998</ele>
        <time>2026-05-18T10:00:07+02:00</time>
      </trkpt>
      <trkpt lat="48.56868" lon="6.1882">
        <ele>231.2998</ele>
        <time>2026-05-18T10:00:08+02:00</time>
      </trkpt>
      <trkpt lat="48.56868" lon="6.1882">
        <ele>231.2998</ele>
        <time>2026-05-18T10:00:09+02:00</time>
      </trkpt>
      <trkpt lat="48.56868" lon="6.1882">
        <ele>231.2998</ele>
        <time>2026-05-18T10:00:10+02:00</time>
      </trkpt>
      <trkpt lat="48.56868" lon="6.1882">
        <ele>231.2998</ele>
        <time>2026-05-18T10:00:11+02:00</time>
      </trkpt>
      <trkpt lat="48.56818" lon="6.18809">
        <ele>231.2002</ele>
        <time>2026-05-18T10:06:57+02:00</time>
      </trkpt>
      <trkpt lat="48.56814" lon="6.1881">
        <ele>231.2002</ele>
        <time>2026-05-18T10:06:58+02:00</time>
      </trkpt>
      <trkpt lat="48.56809" lon="6.18809">
        <ele>231.2002</ele>
        <time>2026-05-18T10:06:59+02:00</time>
      </trkpt>
      <trkpt lat="48.56804" lon="6.1881">
        <ele>231.2002</ele>
        <time>2026-05-18T10:07:00+02:00</time>
      </trkpt>
      <trkpt lat="48.56799" lon="6.18809">
        <ele>231.2002</ele>
        <time>2026-05-18T10:07:01+02:00</time>
      </trkpt>
      <trkpt lat="48.56795" lon="6.18809">
        <ele>231.2002</ele>
        <time>2026-05-18T10:07:02+02:00</time>
      </trkpt>
      <trkpt lat="48.5679" lon="6.18809">
        <ele>231.2002</ele>
        <time>2026-05-18T10:07:03+02:00</time>
      </trkpt>
      <trkpt lat="48.56785" lon="6.18809">
        <ele>231.2002</ele>
        <time>2026-05-18T10:07:04+02:00</time>
      </trkpt>
      <trkpt lat="48.5678" lon="6.18809">
        <ele>231.2002</ele>
        <time>2026-05-18T10:07:05+02:00</time>
      </trkpt>
      <trkpt lat="48.56775" lon="6.1881">
        <ele>231.2002</ele>
        <time>2026-05-18T10:07:06+02:00</time>
      </trkpt>
      <trkpt lat="48.5677" lon="6.1881">
        <ele>231.2002</ele>
        <time>2026-05-18T10:07:07+02:00</time>
      </trkpt>
      <trkpt lat="48.56765" lon="6.18812">
        <ele>231.2002</ele>
        <time>2026-05-18T10:07:08+02:00</time>
      </trkpt>
      <trkpt lat="48.56761" lon="6.18814">
        <ele>231</ele>
        <time>2026-05-18T10:07:09+02:00</time>
      </trkpt>
      <trkpt lat="48.56757" lon="6.18818">
        <ele>231.10059</ele>
        <time>2026-05-18T10:07:10+02:00</time>
      </trkpt>
      <trkpt lat="48.56755" lon="6.18823">
        <ele>230.90039</ele>
        <time>2026-05-18T10:07:11+02:00</time>
      </trkpt>
      <trkpt lat="48.56753" lon="6.18829">
        <ele>230.90039</ele>
        <time>2026-05-18T10:07:12+02:00</time>
      </trkpt>
      <trkpt lat="48.56752" lon="6.18834">
        <ele>230.7998</ele>
        <time>2026-05-18T10:07:13+02:00</time>
      </trkpt>
      <trkpt lat="48.56751" lon="6.18839">
        <ele>230.7998</ele>
        <time>2026-05-18T10:07:14+02:00</time>
      </trkpt>
      <trkpt lat="48.56749" lon="6.18842">
        <ele>230.60059</ele>
        <time>2026-05-18T10:07:15+02:00</time>
      </trkpt>
      <trkpt lat="48.56748" lon="6.18844">
        <ele>230.60059</ele>
        <time>2026-05-18T10:07:16+02:00</time>
      </trkpt>
      <trkpt lat="48.56746" lon="6.18845">
        <ele>230.7002</ele>
        <time>2026-05-18T10:07:17+02:00</time>
      </trkpt>
      <trkpt lat="48.56745" lon="6.18847">
        <ele>230.7002</ele>
        <time>2026-05-18T10:07:18+02:00</time>
      </trkpt>
      <trkpt lat="48.56745" lon="6.18849">
        <ele>230.5</ele>
        <time>2026-05-18T10:07:19+02:00</time>
      </trkpt>
      <trkpt lat="48.56745" lon="6.18851">
        <ele>230.5</ele>
        <time>2026-05-18T10:07:20+02:00</time>
      </trkpt>
      <trkpt lat="48.56744" lon="6.18853">
        <ele>230.5</ele>
        <time>2026-05-18T10:07:21+02:00</time>
      </trkpt>
      <trkpt lat="48.56743" lon="6.18856">
        <ele>230.5</ele>
        <time>2026-05-18T10:07:22+02:00</time>
      </trkpt>
      <trkpt lat="48.56741" lon="6.18858">
        <ele>230.5</ele>
        <time>2026-05-18T10:07:23+02:00</time>
      </trkpt>
      <trkpt lat="48.5674" lon="6.18861">
        <ele>230.5</ele>
        <time>2026-05-18T10:07:24+02:00</time>
      </trkpt>
      <trkpt lat="48.56738" lon="6.18864">
        <ele>230.5</ele>
        <time>2026-05-18T10:07:25+02:00</time>
      </trkpt>
      <trkpt lat="48.56737" lon="6.18868">
        <ele>230.40039</ele>
        <time>2026-05-18T10:07:26+02:00</time>
      </trkpt>
      <trkpt lat="48.56735" lon="6.18871">
        <ele>230.5</ele>
        <time>2026-05-18T10:07:27+02:00</time>
      </trkpt>
      <trkpt lat="48.56734" lon="6.18875">
        <ele>230.5</ele>
        <time>2026-05-18T10:07:28+02:00</time>
      </trkpt>
      <trkpt lat="48.56734" lon="6.18879">
        <ele>230.5</ele>
        <time>2026-05-18T10:07:29+02:00</time>
      </trkpt>
      <trkpt lat="48.56733" lon="6.18883">
        <ele>230.40039</ele>
        <time>2026-05-18T10:07:30+02:00</time>
      </trkpt>
      <trkpt lat="48.56732" lon="6.18887">
        <ele>230.40039</ele>
        <time>2026-05-18T10:07:31+02:00</time>
      </trkpt>
      <trkpt lat="48.56732" lon="6.1889">
        <ele>230.40039</ele>
        <time>2026-05-18T10:07:32+02:00</time>
      </trkpt>
      <trkpt lat="48.56731" lon="6.18894">
        <ele>230.2998</ele>
        <time>2026-05-18T10:07:33+02:00</time>
      </trkpt>
      <trkpt lat="48.5673" lon="6.18898">
        <ele>230.2998</ele>
        <time>2026-05-18T10:07:34+02:00</time>
      </trkpt>
      <trkpt lat="48.56729" lon="6.18902">
        <ele>230.40039</ele>
        <time>2026-05-18T10:07:35+02:00</time>
      </trkpt>
      <trkpt lat="48.56728" lon="6.18904">
        <ele>230.40039</ele>
        <time>2026-05-18T10:07:36+02:00</time>
      </trkpt>
      <trkpt lat="48.56728" lon="6.18907">
        <ele>230.40039</ele>
        <time>2026-05-18T10:07:37+02:00</time>
      </trkpt>
      <trkpt lat="48.56727" lon="6.18909">
        <ele>230.2002</ele>
        <time>2026-05-18T10:07:38+02:00</time>
      </trkpt>
      <trkpt lat="48.56725" lon="6.18911">
        <ele>230.2002</ele>
        <time>2026-05-18T10:07:39+02:00</time>
      </trkpt>
      <trkpt lat="48.56724" lon="6.18913">
        <ele>230.2002</ele>
        <time>2026-05-18T10:07:40+02:00</time>
      </trkpt>
      <trkpt lat="48.56722" lon="6.18915">
        <ele>230.40039</ele>
        <time>2026-05-18T10:07:41+02:00</time>
      </trkpt>
      <trkpt lat="48.56721" lon="6.18917">
        <ele>230.2002</ele>
        <time>2026-05-18T10:07:42+02:00</time>
      </trkpt>
      <trkpt lat="48.5672" lon="6.18919">
        <ele>230.2002</ele>
        <time>2026-05-18T10:07:43+02:00</time>
      </trkpt>
      <trkpt lat="48.56719" lon="6.18921">
        <ele>230.2002</ele>
        <time>2026-05-18T10:07:44+02:00</time>
      </trkpt>
      <trkpt lat="48.56719" lon="6.18922">
        <ele>230.2002</ele>
        <time>2026-05-18T10:07:45+02:00</time>
      </trkpt>
      <trkpt lat="48.56718" lon="6.18924">
        <ele>230.2002</ele>
        <time>2026-05-18T10:07:46+02:00</time>
      </trkpt>
      <trkpt lat="48.56718" lon="6.18924">
        <ele>230.2002</ele>
        <time>2026-05-18T10:07:47+02:00</time>
      </trkpt>
      <trkpt lat="48.56718" lon="6.18924">
        <ele>230.2002</ele>
        <time>2026-05-18T10:07:48+02:00</time>
      </trkpt>
      <trkpt lat="48.56718" lon="6.18924">
        <ele>230.2002</ele>
        <time>2026-05-18T10:07:49+02:00</time>
      </trkpt>
      <trkpt lat="48.56718" lon="6.18924">
        <ele>230.2002</ele>
        <time>2026-05-18T10:20:12+02:00</time>
      </trkpt>
      <trkpt lat="48.56718" lon="6.18924">
        <ele>230.2002</ele>
        <time>2026-05-18T10:20:13+02:00</time>
      </trkpt>
      <trkpt lat="48.56718" lon="6.18924">
        <ele>230.2002</ele>
        <time>2026-05-18T10:20:14+02:00</time>
      </trkpt>
      <trkpt lat="48.56718" lon="6.18924">
        <ele>230.2002</ele>
        <time>2026-05-18T10:20:15+02:00</time>
      </trkpt>
      <trkpt lat="48.56718" lon="6.18924">
        <ele>230.2002</ele>
        <time>2026-05-18T10:20:16+02:00</time>
      </trkpt>
      <trkpt lat="48.56718" lon="6.18924">
        <ele>230.2002</ele>
        <time>2026-05-18T10:20:17+02:00</time>
      </trkpt>
      <trkpt lat="48.56718" lon="6.18924">
        <ele>230.2002</ele>
        <time>2026-05-18T10:20:18+02:00</time>
      </trkpt>
      <trkpt lat="48.56718" lon="6.18924">
        <ele>230.2002</ele>
        <time>2026-05-18T10:20:19+02:00</time>
      </trkpt>
      <trkpt lat="48.56718" lon="6.18924">
        <ele>230.2002</ele>
        <time>2026-05-18T10:20:20+02:00</time>
      </trkpt>
      <trkpt lat="48.56718" lon="6.18924">
        <ele>230.2002</ele>
        <time>2026-05-18T10:20:21+02:00</time>
      </trkpt>
      <trkpt lat="48.56718" lon="6.18924">
        <ele>230.2002</ele>
        <time>2026-05-18T10:20:22+02:00</time>
      </trkpt>
      <trkpt lat="48.56718" lon="6.18924">
        <ele>230.2002</ele>
        <time>2026-05-18T10:20:23+02:00</time>
      </trkpt>
      <trkpt lat="48.56718" lon="6.18924">
        <ele>230.2002</ele>
        <time>2026-05-18T10:20:24+02:00</time>
      </trkpt>
      <trkpt lat="48.56708" lon="6.18926">
        <ele>230.5</ele>
        <time>2026-05-18T10:20:25+02:00</time>
      </trkpt>
      <trkpt lat="48.56707" lon="6.18927">
        <ele>230.5</ele>
        <time>2026-05-18T10:20:26+02:00</time>
      </trkpt>
      <trkpt lat="48.56705" lon="6.18928">
        <ele>230.7002</ele>
        <time>2026-05-18T10:20:27+02:00</time>
      </trkpt>
      <trkpt lat="48.56703" lon="6.1893">
        <ele>230.7002</ele>
        <time>2026-05-18T10:20:28+02:00</time>
      </trkpt>
      <trkpt lat="48.56701" lon="6.18932">
        <ele>230.90039</ele>
        <time>2026-05-18T10:20:29+02:00</time>
      </trkpt>
      <trkpt lat="48.56699" lon="6.18934">
        <ele>230.7998</ele>
        <time>2026-05-18T10:20:30+02:00</time>
      </trkpt>
      <trkpt lat="48.56697" lon="6.18936">
        <ele>230.7998</ele>
        <time>2026-05-18T10:20:31+02:00</time>
      </trkpt>
      <trkpt lat="48.56694" lon="6.18938">
        <ele>230.90039</ele>
        <time>2026-05-18T10:20:32+02:00</time>
      </trkpt>
      <trkpt lat="48.56691" lon="6.18941">
        <ele>230.90039</ele>
        <time>2026-05-18T10:20:33+02:00</time>
      </trkpt>
      <trkpt lat="48.56689" lon="6.18943">
        <ele>230.90039</ele>
        <time>2026-05-18T10:20:34+02:00</time>
      </trkpt>
      <trkpt lat="48.56686" lon="6.18946">
        <ele>230.90039</ele>
        <time>2026-05-18T10:20:35+02:00</time>
      </trkpt>
      <trkpt lat="48.56683" lon="6.18948">
        <ele>231.10059</ele>
        <time>2026-05-18T10:20:36+02:00</time>
      </trkpt>
      <trkpt lat="48.5668" lon="6.18951">
        <ele>230.90039</ele>
        <time>2026-05-18T10:20:37+02:00</time>
      </trkpt>
      <trkpt lat="48.56677" lon="6.18953">
        <ele>231.10059</ele>
        <time>2026-05-18T10:20:38+02:00</time>
      </trkpt>
      <trkpt lat="48.56674" lon="6.18956">
        <ele>231.10059</ele>
        <time>2026-05-18T10:20:39+02:00</time>
      </trkpt>
      <trkpt lat="48.56672" lon="6.18958">
        <ele>231.40039</ele>
        <time>2026-05-18T10:20:40+02:00</time>
      </trkpt>
      <trkpt lat="48.56669" lon="6.18961">
        <ele>231.2998</ele>
        <time>2026-05-18T10:20:41+02:00</time>
      </trkpt>
      <trkpt lat="48.56666" lon="6.18963">
        <ele>231.60059</ele>
        <time>2026-05-18T10:20:42+02:00</time>
      </trkpt>
      <trkpt lat="48.56663" lon="6.18965">
        <ele>231.60059</ele>
        <time>2026-05-18T10:20:43+02:00</time>
      </trkpt>
      <trkpt lat="48.56659" lon="6.18967">
        <ele>231.90039</ele>
        <time>2026-05-18T10:20:44+02:00</time>
      </trkpt>
      <trkpt lat="48.56655" lon="6.18969">
        <ele>232.10059</ele>
        <time>2026-05-18T10:20:45+02:00</time>
      </trkpt>
      <trkpt lat="48.56653" lon="6.18971">
        <ele>232.10059</ele>
        <time>2026-05-18T10:20:46+02:00</time>
      </trkpt>
      <trkpt lat="48.5665" lon="6.18972">
        <ele>232.10059</ele>
        <time>2026-05-18T10:20:47+02:00</time>
      </trkpt>
      <trkpt lat="48.56648" lon="6.18972">
        <ele>232.2998</ele>
        <time>2026-05-18T10:20:48+02:00</time>
      </trkpt>
      <trkpt lat="48.56647" lon="6.18972">
        <ele>232.2998</ele>
        <time>2026-05-18T10:20:49+02:00</time>
      </trkpt>
      <trkpt lat="48.56644" lon="6.18974">
        <ele>232.5</ele>
        <time>2026-05-18T10:20:50+02:00</time>
      </trkpt>
      <trkpt lat="48.56642" lon="6.18977">
        <ele>232.2002</ele>
        <time>2026-05-18T10:20:51+02:00</time>
      </trkpt>
      <trkpt lat="48.56641" lon="6.18979">
        <ele>232.2002</ele>
        <time>2026-05-18T10:20:52+02:00</time>
      </trkpt>
      <trkpt lat="48.56639" lon="6.18982">
        <ele>232.2002</ele>
        <time>2026-05-18T10:20:53+02:00</time>
      </trkpt>
      <trkpt lat="48.56638" lon="6.18986">
        <ele>232.10059</ele>
        <time>2026-05-18T10:20:54+02:00</time>
      </trkpt>
      <trkpt lat="48.5664" lon="6.18988">
        <ele>231.90039</ele>
        <time>2026-05-18T10:20:55+02:00</time>
      </trkpt>
      <trkpt lat="48.56642" lon="6.1899">
        <ele>231.90039</ele>
        <time>2026-05-18T10:20:56+02:00</time>
      </trkpt>
      <trkpt lat="48.56644" lon="6.18991">
        <ele>231.90039</ele>
        <time>2026-05-18T10:20:57+02:00</time>
      </trkpt>
      <trkpt lat="48.56647" lon="6.18993">
        <ele>231.7002</ele>
        <time>2026-05-18T10:20:58+02:00</time>
      </trkpt>
      <trkpt lat="48.56649" lon="6.18995">
        <ele>231.2002</ele>
        <time>2026-05-18T10:20:59+02:00</time>
      </trkpt>
      <trkpt lat="48.56651" lon="6.18997">
        <ele>230.90039</ele>
        <time>2026-05-18T10:21:00+02:00</time>
      </trkpt>
      <trkpt lat="48.56654" lon="6.18998">
        <ele>230.90039</ele>
        <time>2026-05-18T10:21:01+02:00</time>
      </trkpt>
      <trkpt lat="48.56656" lon="6.19001">
        <ele>230.7002</ele>
        <time>2026-05-18T10:21:02+02:00</time>
      </trkpt>
      <trkpt lat="48.56659" lon="6.19004">
        <ele>230.10059</ele>
        <time>2026-05-18T10:21:03+02:00</time>
      </trkpt>
      <trkpt lat="48.56661" lon="6.19007">
        <ele>230.10059</ele>
        <time>2026-05-18T10:21:04+02:00</time>
      </trkpt>
      <trkpt lat="48.56663" lon="6.19011">
        <ele>229.10059</ele>
        <time>2026-05-18T10:21:05+02:00</time>
      </trkpt>
      <trkpt lat="48.56664" lon="6.19013">
        <ele>229.10059</ele>
        <time>2026-05-18T10:21:06+02:00</time>
      </trkpt>
      <trkpt lat="48.56667" lon="6.19019">
        <ele>228.7998</ele>
        <time>2026-05-18T10:21:07+02:00</time>
      </trkpt>
      <trkpt lat="48.56669" lon="6.19024">
        <ele>228</ele>
        <time>2026-05-18T10:21:08+02:00</time>
      </trkpt>
      <trkpt lat="48.56671" lon="6.19029">
        <ele>227.40039</ele>
        <time>2026-05-18T10:21:09+02:00</time>
      </trkpt>
      <trkpt lat="48.56674" lon="6.19033">
        <ele>227.2002</ele>
        <time>2026-05-18T10:21:10+02:00</time>
      </trkpt>
      <trkpt lat="48.56676" lon="6.19038">
        <ele>226.7002</ele>
        <time>2026-05-18T10:21:11+02:00</time>
      </trkpt>
      <trkpt lat="48.56678" lon="6.19043">
        <ele>226.7002</ele>
        <time>2026-05-18T10:21:12+02:00</time>
      </trkpt>
      <trkpt lat="48.56681" lon="6.19048">
        <ele>226.60059</ele>
        <time>2026-05-18T10:21:13+02:00</time>
      </trkpt>
      <trkpt lat="48.56683" lon="6.19053">
        <ele>226.60059</ele>
        <time>2026-05-18T10:21:14+02:00</time>
      </trkpt>
      <trkpt lat="48.56686" lon="6.19058">
        <ele>226.7998</ele>
        <time>2026-05-18T10:21:15+02:00</time>
      </trkpt>
      <trkpt lat="48.56688" lon="6.19063">
        <ele>227</ele>
        <time>2026-05-18T10:21:16+02:00</time>
      </trkpt>
      <trkpt lat="48.56691" lon="6.19069">
        <ele>227.10059</ele>
        <time>2026-05-18T10:21:17+02:00</time>
      </trkpt>
      <trkpt lat="48.56694" lon="6.19074">
        <ele>227.2998</ele>
        <time>2026-05-18T10:21:18+02:00</time>
      </trkpt>
      <trkpt lat="48.56695" lon="6.19077">
        <ele>227.2998</ele>
        <time>2026-05-18T10:21:19+02:00</time>
      </trkpt>
      <trkpt lat="48.56699" lon="6.19085">
        <ele>227.7002</ele>
        <time>2026-05-18T10:21:20+02:00</time>
      </trkpt>
      <trkpt lat="48.56701" lon="6.1909">
        <ele>227.90039</ele>
        <time>2026-05-18T10:21:21+02:00</time>
      </trkpt>
      <trkpt lat="48.56704" lon="6.19096">
        <ele>228</ele>
        <time>2026-05-18T10:21:22+02:00</time>
      </trkpt>
      <trkpt lat="48.56706" lon="6.19102">
        <ele>228.2998</ele>
        <time>2026-05-18T10:21:23+02:00</time>
      </trkpt>
      <trkpt lat="48.56709" lon="6.19108">
        <ele>228.60059</ele>
        <time>2026-05-18T10:21:24+02:00</time>
      </trkpt>
      <trkpt lat="48.56712" lon="6.19114">
        <ele>228.7002</ele>
        <time>2026-05-18T10:21:25+02:00</time>
      </trkpt>
      <trkpt lat="48.56715" lon="6.1912">
        <ele>228.7002</ele>
        <time>2026-05-18T10:21:26+02:00</time>
      </trkpt>
      <trkpt lat="48.56718" lon="6.19126">
        <ele>228.60059</ele>
        <time>2026-05-18T10:21:27+02:00</time>
      </trkpt>
      <trkpt lat="48.56721" lon="6.19133">
        <ele>228.60059</ele>
        <time>2026-05-18T10:21:28+02:00</time>
      </trkpt>
      <trkpt lat="48.56724" lon="6.19139">
        <ele>228.60059</ele>
        <time>2026-05-18T10:21:29+02:00</time>
      </trkpt>
      <trkpt lat="48.56728" lon="6.19146">
        <ele>228.60059</ele>
        <time>2026-05-18T10:21:30+02:00</time>
      </trkpt>
      <trkpt lat="48.56732" lon="6.19153">
        <ele>228.7002</ele>
        <time>2026-05-18T10:21:31+02:00</time>
      </trkpt>
      <trkpt lat="48.56735" lon="6.19161">
        <ele>228.7002</ele>
        <time>2026-05-18T10:21:32+02:00</time>
      </trkpt>
      <trkpt lat="48.56739" lon="6.19169">
        <ele>228.7998</ele>
        <time>2026-05-18T10:21:33+02:00</time>
      </trkpt>
      <trkpt lat="48.56744" lon="6.19178">
        <ele>228.7998</ele>
        <time>2026-05-18T10:21:34+02:00</time>
      </trkpt>
      <trkpt lat="48.56749" lon="6.19187">
        <ele>228.90039</ele>
        <time>2026-05-18T10:21:35+02:00</time>
      </trkpt>
      <trkpt lat="48.56754" lon="6.19197">
        <ele>228.90039</ele>
        <time>2026-05-18T10:21:36+02:00</time>
      </trkpt>
      <trkpt lat="48.56759" lon="6.19206">
        <ele>228.90039</ele>
        <time>2026-05-18T10:21:37+02:00</time>
      </trkpt>
      <trkpt lat="48.56764" lon="6.19215">
        <ele>228.90039</ele>
        <time>2026-05-18T10:21:38+02:00</time>
      </trkpt>
      <trkpt lat="48.56768" lon="6.19225">
        <ele>229</ele>
        <time>2026-05-18T10:21:39+02:00</time>
      </trkpt>
      <trkpt lat="48.56772" lon="6.19234">
        <ele>229</ele>
        <time>2026-05-18T10:21:40+02:00</time>
      </trkpt>
      <trkpt lat="48.56777" lon="6.19243">
        <ele>229</ele>
        <time>2026-05-18T10:21:41+02:00</time>
      </trkpt>
      <trkpt lat="48.56781" lon="6.19251">
        <ele>228.90039</ele>
        <time>2026-05-18T10:21:42+02:00</time>
      </trkpt>
      <trkpt lat="48.56784" lon="6.19258">
        <ele>228.90039</ele>
        <time>2026-05-18T10:21:43+02:00</time>
      </trkpt>
      <trkpt lat="48.56787" lon="6.19265">
        <ele>228.90039</ele>
        <time>2026-05-18T10:21:44+02:00</time>
      </trkpt>
      <trkpt lat="48.5679" lon="6.1927">
        <ele>228.90039</ele>
        <time>2026-05-18T10:21:45+02:00</time>
      </trkpt>
      <trkpt lat="48.56793" lon="6.19275">
        <ele>228.7998</ele>
        <time>2026-05-18T10:21:46+02:00</time>
      </trkpt>
      <trkpt lat="48.56795" lon="6.19281">
        <ele>228.90039</ele>
        <time>2026-05-18T10:21:47+02:00</time>
      </trkpt>
      <trkpt lat="48.56798" lon="6.19287">
        <ele>228.7998</ele>
        <time>2026-05-18T10:21:48+02:00</time>
      </trkpt>
      <trkpt lat="48.56801" lon="6.19293">
        <ele>228.7998</ele>
        <time>2026-05-18T10:21:49+02:00</time>
      </trkpt>
      <trkpt lat="48.56804" lon="6.19298">
        <ele>228.7998</ele>
        <time>2026-05-18T10:21:50+02:00</time>
      </trkpt>
      <trkpt lat="48.56808" lon="6.19305">
        <ele>228.90039</ele>
        <time>2026-05-18T10:21:51+02:00</time>
      </trkpt>
      <trkpt lat="48.56811" lon="6.1931">
        <ele>228.7002</ele>
        <time>2026-05-18T10:21:52+02:00</time>
      </trkpt>
      <trkpt lat="48.56815" lon="6.19317">
        <ele>228.7002</ele>
        <time>2026-05-18T10:21:53+02:00</time>
      </trkpt>
      <trkpt lat="48.56819" lon="6.19325">
        <ele>228.7002</ele>
        <time>2026-05-18T10:21:54+02:00</time>
      </trkpt>
      <trkpt lat="48.56823" lon="6.19333">
        <ele>228.60059</ele>
        <time>2026-05-18T10:21:55+02:00</time>
      </trkpt>
      <trkpt lat="48.56828" lon="6.19341">
        <ele>228.5</ele>
        <time>2026-05-18T10:21:56+02:00</time>
      </trkpt>
      <trkpt lat="48.56831" lon="6.19349">
        <ele>228.5</ele>
        <time>2026-05-18T10:21:57+02:00</time>
      </trkpt>
      <trkpt lat="48.56835" lon="6.19357">
        <ele>228.40039</ele>
        <time>2026-05-18T10:21:58+02:00</time>
      </trkpt>
      <trkpt lat="48.56839" lon="6.19365">
        <ele>228.2998</ele>
        <time>2026-05-18T10:21:59+02:00</time>
      </trkpt>
      <trkpt lat="48.56842" lon="6.19373">
        <ele>228.40039</ele>
        <time>2026-05-18T10:22:00+02:00</time>
      </trkpt>
      <trkpt lat="48.56845" lon="6.19381">
        <ele>228.2002</ele>
        <time>2026-05-18T10:22:01+02:00</time>
      </trkpt>
      <trkpt lat="48.56848" lon="6.19389">
        <ele>228.2998</ele>
        <time>2026-05-18T10:22:02+02:00</time>
      </trkpt>
      <trkpt lat="48.56852" lon="6.19397">
        <ele>228.10059</ele>
        <time>2026-05-18T10:22:03+02:00</time>
      </trkpt>
      <trkpt lat="48.56855" lon="6.19404">
        <ele>227.90039</ele>
        <time>2026-05-18T10:22:04+02:00</time>
      </trkpt>
      <trkpt lat="48.56859" lon="6.19411">
        <ele>228</ele>
        <time>2026-05-18T10:22:05+02:00</time>
      </trkpt>
      <trkpt lat="48.56862" lon="6.19419">
        <ele>227.7998</ele>
        <time>2026-05-18T10:22:06+02:00</time>
      </trkpt>
      <trkpt lat="48.56865" lon="6.19426">
        <ele>228</ele>
        <time>2026-05-18T10:22:07+02:00</time>
      </trkpt>
      <trkpt lat="48.56868" lon="6.19434">
        <ele>227.90039</ele>
        <time>2026-05-18T10:22:08+02:00</time>
      </trkpt>
      <trkpt lat="48.5687" lon="6.19442">
        <ele>228.10059</ele>
        <time>2026-05-18T10:22:09+02:00</time>
      </trkpt>
      <trkpt lat="48.56872" lon="6.19446">
        <ele>228</ele>
        <time>2026-05-18T10:22:10+02:00</time>
      </trkpt>
      <trkpt lat="48.56877" lon="6.19458">
        <ele>228.10059</ele>
        <time>2026-05-18T10:22:11+02:00</time>
      </trkpt>
      <trkpt lat="48.5688" lon="6.19466">
        <ele>228.2002</ele>
        <time>2026-05-18T10:22:12+02:00</time>
      </trkpt>
      <trkpt lat="48.56882" lon="6.19474">
        <ele>228.2002</ele>
        <time>2026-05-18T10:22:13+02:00</time>
      </trkpt>
      <trkpt lat="48.56884" lon="6.19478">
        <ele>228.2002</ele>
        <time>2026-05-18T10:22:14+02:00</time>
      </trkpt>
      <trkpt lat="48.56887" lon="6.19489">
        <ele>228.2998</ele>
        <time>2026-05-18T10:22:15+02:00</time>
      </trkpt>
      <trkpt lat="48.56891" lon="6.19497">
        <ele>228.2998</ele>
        <time>2026-05-18T10:22:16+02:00</time>
      </trkpt>
      <trkpt lat="48.56894" lon="6.19506">
        <ele>228.2998</ele>
        <time>2026-05-18T10:22:17+02:00</time>
      </trkpt>
      <trkpt lat="48.56897" lon="6.19515">
        <ele>228.2998</ele>
        <time>2026-05-18T10:22:18+02:00</time>
      </trkpt>
      <trkpt lat="48.56901" lon="6.19524">
        <ele>228.2002</ele>
        <time>2026-05-18T10:22:19+02:00</time>
      </trkpt>
      <trkpt lat="48.56904" lon="6.19532">
        <ele>228.2998</ele>
        <time>2026-05-18T10:22:20+02:00</time>
      </trkpt>
      <trkpt lat="48.56908" lon="6.1954">
        <ele>228.2002</ele>
        <time>2026-05-18T10:22:21+02:00</time>
      </trkpt>
      <trkpt lat="48.56912" lon="6.19549">
        <ele>228.2002</ele>
        <time>2026-05-18T10:22:22+02:00</time>
      </trkpt>
      <trkpt lat="48.56915" lon="6.19557">
        <ele>228.2998</ele>
        <time>2026-05-18T10:22:23+02:00</time>
      </trkpt>
      <trkpt lat="48.56919" lon="6.19566">
        <ele>228.2002</ele>
        <time>2026-05-18T10:22:24+02:00</time>
      </trkpt>
      <trkpt lat="48.56923" lon="6.19574">
        <ele>228.2002</ele>
        <time>2026-05-18T10:22:25+02:00</time>
      </trkpt>
      <trkpt lat="48.56927" lon="6.19582">
        <ele>228.2002</ele>
        <time>2026-05-18T10:22:26+02:00</time>
      </trkpt>
      <trkpt lat="48.5693" lon="6.19585">
        <ele>228.10059</ele>
        <time>2026-05-18T10:22:27+02:00</time>
      </trkpt>
      <trkpt lat="48.56936" lon="6.19596">
        <ele>228</ele>
        <time>2026-05-18T10:22:28+02:00</time>
      </trkpt>
      <trkpt lat="48.56939" lon="6.19603">
        <ele>228</ele>
        <time>2026-05-18T10:22:29+02:00</time>
      </trkpt>
      <trkpt lat="48.56943" lon="6.1961">
        <ele>227.90039</ele>
        <time>2026-05-18T10:22:30+02:00</time>
      </trkpt>
      <trkpt lat="48.56946" lon="6.19616">
        <ele>227.7998</ele>
        <time>2026-05-18T10:22:31+02:00</time>
      </trkpt>
      <trkpt lat="48.5695" lon="6.19622">
        <ele>227.90039</ele>
        <time>2026-05-18T10:22:32+02:00</time>
      </trkpt>
      <trkpt lat="48.56953" lon="6.19628">
        <ele>227.7998</ele>
        <time>2026-05-18T10:22:33+02:00</time>
      </trkpt>
      <trkpt lat="48.56956" lon="6.19635">
        <ele>227.90039</ele>
        <time>2026-05-18T10:22:34+02:00</time>
      </trkpt>
      <trkpt lat="48.56959" lon="6.19642">
        <ele>227.90039</ele>
        <time>2026-05-18T10:22:35+02:00</time>
      </trkpt>
      <trkpt lat="48.56962" lon="6.19649">
        <ele>228</ele>
        <time>2026-05-18T10:22:36+02:00</time>
      </trkpt>
      <trkpt lat="48.56965" lon="6.19656">
        <ele>228</ele>
        <time>2026-05-18T10:22:37+02:00</time>
      </trkpt>
      <trkpt lat="48.56967" lon="6.19664">
        <ele>228.2002</ele>
        <time>2026-05-18T10:22:38+02:00</time>
      </trkpt>
      <trkpt lat="48.56968" lon="6.19672">
        <ele>228.2998</ele>
        <time>2026-05-18T10:22:39+02:00</time>
      </trkpt>
      <trkpt lat="48.56968" lon="6.1968">
        <ele>228.2998</ele>
        <time>2026-05-18T10:22:40+02:00</time>
      </trkpt>
      <trkpt lat="48.56968" lon="6.19688">
        <ele>228.40039</ele>
        <time>2026-05-18T10:22:41+02:00</time>
      </trkpt>
      <trkpt lat="48.56969" lon="6.19696">
        <ele>228.5</ele>
        <time>2026-05-18T10:22:42+02:00</time>
      </trkpt>
      <trkpt lat="48.56971" lon="6.19704">
        <ele>228.7002</ele>
        <time>2026-05-18T10:22:43+02:00</time>
      </trkpt>
      <trkpt lat="48.56975" lon="6.1971">
        <ele>228.7998</ele>
        <time>2026-05-18T10:22:44+02:00</time>
      </trkpt>
      <trkpt lat="48.56979" lon="6.19716">
        <ele>229</ele>
        <time>2026-05-18T10:22:45+02:00</time>
      </trkpt>
      <trkpt lat="48.56984" lon="6.19719">
        <ele>229</ele>
        <time>2026-05-18T10:22:46+02:00</time>
      </trkpt>
      <trkpt lat="48.56989" lon="6.19722">
        <ele>229</ele>
        <time>2026-05-18T10:22:47+02:00</time>
      </trkpt>
      <trkpt lat="48.56995" lon="6.19724">
        <ele>229.2998</ele>
        <time>2026-05-18T10:22:48+02:00</time>
      </trkpt>
      <trkpt lat="48.57" lon="6.19726">
        <ele>229.2998</ele>
        <time>2026-05-18T10:22:49+02:00</time>
      </trkpt>
      <trkpt lat="48.57006" lon="6.19728">
        <ele>229.40039</ele>
        <time>2026-05-18T10:22:50+02:00</time>
      </trkpt>
      <trkpt lat="48.57012" lon="6.1973">
        <ele>229.40039</ele>
        <time>2026-05-18T10:22:51+02:00</time>
      </trkpt>
      <trkpt lat="48.57017" lon="6.19732">
        <ele>229.7002</ele>
        <time>2026-05-18T10:22:52+02:00</time>
      </trkpt>
      <trkpt lat="48.57023" lon="6.19733">
        <ele>229.7998</ele>
        <time>2026-05-18T10:22:53+02:00</time>
      </trkpt>
      <trkpt lat="48.57029" lon="6.19735">
        <ele>229.90039</ele>
        <time>2026-05-18T10:22:54+02:00</time>
      </trkpt>
      <trkpt lat="48.57036" lon="6.19737">
        <ele>230</ele>
        <time>2026-05-18T10:22:55+02:00</time>
      </trkpt>
      <trkpt lat="48.57042" lon="6.19739">
        <ele>230.2002</ele>
        <time>2026-05-18T10:22:56+02:00</time>
      </trkpt>
      <trkpt lat="48.57048" lon="6.1974">
        <ele>230.2002</ele>
        <time>2026-05-18T10:22:57+02:00</time>
      </trkpt>
      <trkpt lat="48.57054" lon="6.19742">
        <ele>230.60059</ele>
        <time>2026-05-18T10:22:58+02:00</time>
      </trkpt>
      <trkpt lat="48.57057" lon="6.19743">
        <ele>230.60059</ele>
        <time>2026-05-18T10:22:59+02:00</time>
      </trkpt>
      <trkpt lat="48.57067" lon="6.19746">
        <ele>230.7998</ele>
        <time>2026-05-18T10:23:00+02:00</time>
      </trkpt>
      <trkpt lat="48.57073" lon="6.19748">
        <ele>230.90039</ele>
        <time>2026-05-18T10:23:01+02:00</time>
      </trkpt>
      <trkpt lat="48.57079" lon="6.1975">
        <ele>231.2002</ele>
        <time>2026-05-18T10:23:02+02:00</time>
      </trkpt>
      <trkpt lat="48.57085" lon="6.19752">
        <ele>231.2002</ele>
        <time>2026-05-18T10:23:03+02:00</time>
      </trkpt>
      <trkpt lat="48.57091" lon="6.19753">
        <ele>231.2998</ele>
        <time>2026-05-18T10:23:04+02:00</time>
      </trkpt>
      <trkpt lat="48.57097" lon="6.19756">
        <ele>231.40039</ele>
        <time>2026-05-18T10:23:05+02:00</time>
      </trkpt>
      <trkpt lat="48.57103" lon="6.19758">
        <ele>231.5</ele>
        <time>2026-05-18T10:23:06+02:00</time>
      </trkpt>
      <trkpt lat="48.5711" lon="6.19759">
        <ele>231.5</ele>
        <time>2026-05-18T10:23:07+02:00</time>
      </trkpt>
      <trkpt lat="48.57116" lon="6.19761">
        <ele>231.5</ele>
        <time>2026-05-18T10:23:08+02:00</time>
      </trkpt>
      <trkpt lat="48.57122" lon="6.19763">
        <ele>231.5</ele>
        <time>2026-05-18T10:23:09+02:00</time>
      </trkpt>
      <trkpt lat="48.57128" lon="6.19765">
        <ele>231.5</ele>
        <time>2026-05-18T10:23:10+02:00</time>
      </trkpt>
      <trkpt lat="48.57135" lon="6.19768">
        <ele>231.5</ele>
        <time>2026-05-18T10:23:11+02:00</time>
      </trkpt>
      <trkpt lat="48.57141" lon="6.1977">
        <ele>231.60059</ele>
        <time>2026-05-18T10:23:12+02:00</time>
      </trkpt>
      <trkpt lat="48.57144" lon="6.19771">
        <ele>231.60059</ele>
        <time>2026-05-18T10:23:13+02:00</time>
      </trkpt>
      <trkpt lat="48.57153" lon="6.19775">
        <ele>231.7002</ele>
        <time>2026-05-18T10:23:14+02:00</time>
      </trkpt>
      <trkpt lat="48.57159" lon="6.19778">
        <ele>231.7998</ele>
        <time>2026-05-18T10:23:15+02:00</time>
      </trkpt>
      <trkpt lat="48.57165" lon="6.1978">
        <ele>231.90039</ele>
        <time>2026-05-18T10:23:16+02:00</time>
      </trkpt>
      <trkpt lat="48.5717" lon="6.19783">
        <ele>232.10059</ele>
        <time>2026-05-18T10:23:17+02:00</time>
      </trkpt>
      <trkpt lat="48.57175" lon="6.19786">
        <ele>232.40039</ele>
        <time>2026-05-18T10:23:18+02:00</time>
      </trkpt>
      <trkpt lat="48.5718" lon="6.19789">
        <ele>232.60059</ele>
        <time>2026-05-18T10:23:19+02:00</time>
      </trkpt>
      <trkpt lat="48.57185" lon="6.19792">
        <ele>232.90039</ele>
        <time>2026-05-18T10:23:20+02:00</time>
      </trkpt>
      <trkpt lat="48.57189" lon="6.19796">
        <ele>232.90039</ele>
        <time>2026-05-18T10:23:21+02:00</time>
      </trkpt>
      <trkpt lat="48.57194" lon="6.19799">
        <ele>233</ele>
        <time>2026-05-18T10:23:22+02:00</time>
      </trkpt>
      <trkpt lat="48.57197" lon="6.19802">
        <ele>233.10059</ele>
        <time>2026-05-18T10:23:23+02:00</time>
      </trkpt>
      <trkpt lat="48.57201" lon="6.198">
        <ele>233</ele>
        <time>2026-05-18T10:23:24+02:00</time>
      </trkpt>
      <trkpt lat="48.57203" lon="6.19796">
        <ele>233</ele>
        <time>2026-05-18T10:23:25+02:00</time>
      </trkpt>
      <trkpt lat="48.57206" lon="6.1979">
        <ele>233.10059</ele>
        <time>2026-05-18T10:23:26+02:00</time>
      </trkpt>
      <trkpt lat="48.57209" lon="6.19784">
        <ele>232.90039</ele>
        <time>2026-05-18T10:23:27+02:00</time>
      </trkpt>
      <trkpt lat="48.57212" lon="6.19778">
        <ele>233.10059</ele>
        <time>2026-05-18T10:23:28+02:00</time>
      </trkpt>
      <trkpt lat="48.57215" lon="6.19772">
        <ele>233.2002</ele>
        <time>2026-05-18T10:23:29+02:00</time>
      </trkpt>
      <trkpt lat="48.57219" lon="6.19765">
        <ele>233.2002</ele>
        <time>2026-05-18T10:23:30+02:00</time>
      </trkpt>
      <trkpt lat="48.57223" lon="6.19759">
        <ele>233.2002</ele>
        <time>2026-05-18T10:23:31+02:00</time>
      </trkpt>
      <trkpt lat="48.57227" lon="6.19752">
        <ele>233</ele>
        <time>2026-05-18T10:23:32+02:00</time>
      </trkpt>
      <trkpt lat="48.57231" lon="6.19746">
        <ele>232.7002</ele>
        <time>2026-05-18T10:23:33+02:00</time>
      </trkpt>
      <trkpt lat="48.57235" lon="6.1974">
        <ele>232.2002</ele>
        <time>2026-05-18T10:23:34+02:00</time>
      </trkpt>
      <trkpt lat="48.5724" lon="6.19734">
        <ele>232.2002</ele>
        <time>2026-05-18T10:23:35+02:00</time>
      </trkpt>
      <trkpt lat="48.57244" lon="6.19728">
        <ele>232.10059</ele>
        <time>2026-05-18T10:23:36+02:00</time>
      </trkpt>
      <trkpt lat="48.57248" lon="6.19723">
        <ele>232.2998</ele>
        <time>2026-05-18T10:23:37+02:00</time>
      </trkpt>
      <trkpt lat="48.5725" lon="6.1972">
        <ele>232.2998</ele>
        <time>2026-05-18T10:23:38+02:00</time>
      </trkpt>
      <trkpt lat="48.57256" lon="6.1971">
        <ele>232.2998</ele>
        <time>2026-05-18T10:23:39+02:00</time>
      </trkpt>
      <trkpt lat="48.57259" lon="6.19704">
        <ele>232</ele>
        <time>2026-05-18T10:23:40+02:00</time>
      </trkpt>
      <trkpt lat="48.57263" lon="6.19698">
        <ele>232</ele>
        <time>2026-05-18T10:23:41+02:00</time>
      </trkpt>
      <trkpt lat="48.57266" lon="6.19691">
        <ele>231.7998</ele>
        <time>2026-05-18T10:23:42+02:00</time>
      </trkpt>
      <trkpt lat="48.57268" lon="6.19685">
        <ele>232.10059</ele>
        <time>2026-05-18T10:23:43+02:00</time>
      </trkpt>
      <trkpt lat="48.57271" lon="6.19678">
        <ele>232</ele>
        <time>2026-05-18T10:23:44+02:00</time>
      </trkpt>
      <trkpt lat="48.57273" lon="6.19671">
        <ele>232.2002</ele>
        <time>2026-05-18T10:23:45+02:00</time>
      </trkpt>
      <trkpt lat="48.57276" lon="6.19664">
        <ele>231.60059</ele>
        <time>2026-05-18T10:23:46+02:00</time>
      </trkpt>
      <trkpt lat="48.57279" lon="6.19656">
        <ele>231.7002</ele>
        <time>2026-05-18T10:23:47+02:00</time>
      </trkpt>
      <trkpt lat="48.57281" lon="6.19648">
        <ele>231</ele>
        <time>2026-05-18T10:23:48+02:00</time>
      </trkpt>
      <trkpt lat="48.57284" lon="6.1964">
        <ele>231.2002</ele>
        <time>2026-05-18T10:23:49+02:00</time>
      </trkpt>
      <trkpt lat="48.57286" lon="6.19632">
        <ele>230.7998</ele>
        <time>2026-05-18T10:23:50+02:00</time>
      </trkpt>
      <trkpt lat="48.57289" lon="6.19624">
        <ele>231.2998</ele>
        <time>2026-05-18T10:23:51+02:00</time>
      </trkpt>
      <trkpt lat="48.5729" lon="6.1962">
        <ele>231.7998</ele>
        <time>2026-05-18T10:23:52+02:00</time>
      </trkpt>
      <trkpt lat="48.57295" lon="6.19607">
        <ele>231.90039</ele>
        <time>2026-05-18T10:23:53+02:00</time>
      </trkpt>
      <trkpt lat="48.57297" lon="6.19599">
        <ele>232.10059</ele>
        <time>2026-05-18T10:23:54+02:00</time>
      </trkpt>
      <trkpt lat="48.573" lon="6.19591">
        <ele>232</ele>
        <time>2026-05-18T10:23:55+02:00</time>
      </trkpt>
      <trkpt lat="48.57303" lon="6.19582">
        <ele>232.40039</ele>
        <time>2026-05-18T10:23:56+02:00</time>
      </trkpt>
      <trkpt lat="48.57306" lon="6.19574">
        <ele>232.7002</ele>
        <time>2026-05-18T10:23:57+02:00</time>
      </trkpt>
      <trkpt lat="48.57308" lon="6.19565">
        <ele>232.60059</ele>
        <time>2026-05-18T10:23:58+02:00</time>
      </trkpt>
      <trkpt lat="48.5731" lon="6.19561">
        <ele>232.5</ele>
        <time>2026-05-18T10:23:59+02:00</time>
      </trkpt>
      <trkpt lat="48.57314" lon="6.19548">
        <ele>232.2002</ele>
        <time>2026-05-18T10:24:00+02:00</time>
      </trkpt>
      <trkpt lat="48.57316" lon="6.1954">
        <ele>231.7002</ele>
        <time>2026-05-18T10:24:01+02:00</time>
      </trkpt>
      <trkpt lat="48.57317" lon="6.19536">
        <ele>231.7002</ele>
        <time>2026-05-18T10:24:02+02:00</time>
      </trkpt>
      <trkpt lat="48.57321" lon="6.19523">
        <ele>231.2998</ele>
        <time>2026-05-18T10:24:03+02:00</time>
      </trkpt>
      <trkpt lat="48.57324" lon="6.19514">
        <ele>231.5</ele>
        <time>2026-05-18T10:24:04+02:00</time>
      </trkpt>
      <trkpt lat="48.57326" lon="6.19506">
        <ele>231.40039</ele>
        <time>2026-05-18T10:24:05+02:00</time>
      </trkpt>
      <trkpt lat="48.57329" lon="6.19497">
        <ele>231.5</ele>
        <time>2026-05-18T10:24:06+02:00</time>
      </trkpt>
      <trkpt lat="48.57332" lon="6.19489">
        <ele>231.40039</ele>
        <time>2026-05-18T10:24:07+02:00</time>
      </trkpt>
      <trkpt lat="48.57334" lon="6.19481">
        <ele>231.5</ele>
        <time>2026-05-18T10:24:08+02:00</time>
      </trkpt>
      <trkpt lat="48.57337" lon="6.19473">
        <ele>231.2002</ele>
        <time>2026-05-18T10:24:09+02:00</time>
      </trkpt>
      <trkpt lat="48.57339" lon="6.19465">
        <ele>231.10059</ele>
        <time>2026-05-18T10:24:10+02:00</time>
      </trkpt>
      <trkpt lat="48.57342" lon="6.19458">
        <ele>231.10059</ele>
        <time>2026-05-18T10:24:11+02:00</time>
      </trkpt>
      <trkpt lat="48.57345" lon="6.1945">
        <ele>231</ele>
        <time>2026-05-18T10:24:12+02:00</time>
      </trkpt>
      <trkpt lat="48.57347" lon="6.19442">
        <ele>231.2998</ele>
        <time>2026-05-18T10:24:13+02:00</time>
      </trkpt>
      <trkpt lat="48.5735" lon="6.19434">
        <ele>231.5</ele>
        <time>2026-05-18T10:24:14+02:00</time>
      </trkpt>
      <trkpt lat="48.57353" lon="6.19426">
        <ele>231.7002</ele>
        <time>2026-05-18T10:24:15+02:00</time>
      </trkpt>
      <trkpt lat="48.57355" lon="6.19417">
        <ele>231.7002</ele>
        <time>2026-05-18T10:24:16+02:00</time>
      </trkpt>
      <trkpt lat="48.57358" lon="6.19409">
        <ele>231.7998</ele>
        <time>2026-05-18T10:24:17+02:00</time>
      </trkpt>
      <trkpt lat="48.5736" lon="6.19401">
        <ele>231.90039</ele>
        <time>2026-05-18T10:24:18+02:00</time>
      </trkpt>
      <trkpt lat="48.57362" lon="6.19393">
        <ele>231.90039</ele>
        <time>2026-05-18T10:24:19+02:00</time>
      </trkpt>
      <trkpt lat="48.57365" lon="6.19385">
        <ele>231.90039</ele>
        <time>2026-05-18T10:24:20+02:00</time>
      </trkpt>
      <trkpt lat="48.57368" lon="6.19376">
        <ele>231.90039</ele>
        <time>2026-05-18T10:24:21+02:00</time>
      </trkpt>
      <trkpt lat="48.57371" lon="6.19368">
        <ele>231.90039</ele>
        <time>2026-05-18T10:24:22+02:00</time>
      </trkpt>
      <trkpt lat="48.57373" lon="6.19359">
        <ele>231.7998</ele>
        <time>2026-05-18T10:24:23+02:00</time>
      </trkpt>
      <trkpt lat="48.57376" lon="6.19351">
        <ele>231.7998</ele>
        <time>2026-05-18T10:24:24+02:00</time>
      </trkpt>
      <trkpt lat="48.57379" lon="6.19342">
        <ele>231.7998</ele>
        <time>2026-05-18T10:24:25+02:00</time>
      </trkpt>
      <trkpt lat="48.57381" lon="6.19334">
        <ele>231.90039</ele>
        <time>2026-05-18T10:24:26+02:00</time>
      </trkpt>
      <trkpt lat="48.57383" lon="6.19326">
        <ele>232</ele>
        <time>2026-05-18T10:24:27+02:00</time>
      </trkpt>
      <trkpt lat="48.57386" lon="6.19318">
        <ele>232.10059</ele>
        <time>2026-05-18T10:24:28+02:00</time>
      </trkpt>
      <trkpt lat="48.57388" lon="6.1931">
        <ele>232.10059</ele>
        <time>2026-05-18T10:24:29+02:00</time>
      </trkpt>
      <trkpt lat="48.57389" lon="6.19306">
        <ele>232.40039</ele>
        <time>2026-05-18T10:24:30+02:00</time>
      </trkpt>
      <trkpt lat="48.57393" lon="6.19294">
        <ele>232.60059</ele>
        <time>2026-05-18T10:24:31+02:00</time>
      </trkpt>
      <trkpt lat="48.57402" lon="6.19262">
        <ele>232.90039</ele>
        <time>2026-05-18T10:24:32+02:00</time>
      </trkpt>
      <trkpt lat="48.57405" lon="6.19254">
        <ele>232.7002</ele>
        <time>2026-05-18T10:24:33+02:00</time>
      </trkpt>
      <trkpt lat="48.57408" lon="6.19246">
        <ele>232.7002</ele>
        <time>2026-05-18T10:24:34+02:00</time>
      </trkpt>
      <trkpt lat="48.5741" lon="6.19238">
        <ele>232.5</ele>
        <time>2026-05-18T10:24:35+02:00</time>
      </trkpt>
      <trkpt lat="48.57412" lon="6.19231">
        <ele>232.7002</ele>
        <time>2026-05-18T10:24:36+02:00</time>
      </trkpt>
      <trkpt lat="48.57416" lon="6.19223">
        <ele>232.5</ele>
        <time>2026-05-18T10:24:37+02:00</time>
      </trkpt>
      <trkpt lat="48.57418" lon="6.19215">
        <ele>232.60059</ele>
        <time>2026-05-18T10:24:38+02:00</time>
      </trkpt>
      <trkpt lat="48.5742" lon="6.19207">
        <ele>232.40039</ele>
        <time>2026-05-18T10:24:39+02:00</time>
      </trkpt>
      <trkpt lat="48.57423" lon="6.192">
        <ele>232.7998</ele>
        <time>2026-05-18T10:24:40+02:00</time>
      </trkpt>
      <trkpt lat="48.57426" lon="6.19192">
        <ele>232.7998</ele>
        <time>2026-05-18T10:24:41+02:00</time>
      </trkpt>
      <trkpt lat="48.57428" lon="6.19184">
        <ele>233.2998</ele>
        <time>2026-05-18T10:24:42+02:00</time>
      </trkpt>
      <trkpt lat="48.57432" lon="6.19176">
        <ele>233.2998</ele>
        <time>2026-05-18T10:24:43+02:00</time>
      </trkpt>
      <trkpt lat="48.57435" lon="6.19167">
        <ele>233.7002</ele>
        <time>2026-05-18T10:24:44+02:00</time>
      </trkpt>
      <trkpt lat="48.57437" lon="6.19159">
        <ele>233.60059</ele>
        <time>2026-05-18T10:24:45+02:00</time>
      </trkpt>
      <trkpt lat="48.5744" lon="6.19152">
        <ele>233.60059</ele>
        <time>2026-05-18T10:24:46+02:00</time>
      </trkpt>
      <trkpt lat="48.57443" lon="6.19144">
        <ele>233.2998</ele>
        <time>2026-05-18T10:24:47+02:00</time>
      </trkpt>
      <trkpt lat="48.57446" lon="6.19135">
        <ele>233.40039</ele>
        <time>2026-05-18T10:24:48+02:00</time>
      </trkpt>
      <trkpt lat="48.57449" lon="6.19128">
        <ele>233.2998</ele>
        <time>2026-05-18T10:24:49+02:00</time>
      </trkpt>
      <trkpt lat="48.57452" lon="6.1912">
        <ele>233.60059</ele>
        <time>2026-05-18T10:24:50+02:00</time>
      </trkpt>
      <trkpt lat="48.57455" lon="6.19112">
        <ele>233.7002</ele>
        <time>2026-05-18T10:24:51+02:00</time>
      </trkpt>
      <trkpt lat="48.57458" lon="6.19104">
        <ele>234.10059</ele>
        <time>2026-05-18T10:24:52+02:00</time>
      </trkpt>
      <trkpt lat="48.5746" lon="6.19097">
        <ele>234.10059</ele>
        <time>2026-05-18T10:24:53+02:00</time>
      </trkpt>
      <trkpt lat="48.57463" lon="6.19089">
        <ele>234.2002</ele>
        <time>2026-05-18T10:24:54+02:00</time>
      </trkpt>
      <trkpt lat="48.57466" lon="6.19081">
        <ele>234.2998</ele>
        <time>2026-05-18T10:24:55+02:00</time>
      </trkpt>
      <trkpt lat="48.57469" lon="6.19073">
        <ele>234.2002</ele>
        <time>2026-05-18T10:24:56+02:00</time>
      </trkpt>
      <trkpt lat="48.57472" lon="6.19066">
        <ele>234.10059</ele>
        <time>2026-05-18T10:24:57+02:00</time>
      </trkpt>
      <trkpt lat="48.57474" lon="6.19059">
        <ele>234.2998</ele>
        <time>2026-05-18T10:24:58+02:00</time>
      </trkpt>
      <trkpt lat="48.57475" lon="6.19055">
        <ele>234.2998</ele>
        <time>2026-05-18T10:24:59+02:00</time>
      </trkpt>
      <trkpt lat="48.57479" lon="6.19043">
        <ele>235</ele>
        <time>2026-05-18T10:25:00+02:00</time>
      </trkpt>
      <trkpt lat="48.57482" lon="6.19036">
        <ele>235.2002</ele>
        <time>2026-05-18T10:25:01+02:00</time>
      </trkpt>
      <trkpt lat="48.57485" lon="6.19029">
        <ele>235.2998</ele>
        <time>2026-05-18T10:25:02+02:00</time>
      </trkpt>
      <trkpt lat="48.57487" lon="6.19021">
        <ele>235.60059</ele>
        <time>2026-05-18T10:25:03+02:00</time>
      </trkpt>
      <trkpt lat="48.5749" lon="6.19012">
        <ele>235.7998</ele>
        <time>2026-05-18T10:25:04+02:00</time>
      </trkpt>
      <trkpt lat="48.57493" lon="6.19004">
        <ele>236.2002</ele>
        <time>2026-05-18T10:25:05+02:00</time>
      </trkpt>
      <trkpt lat="48.57496" lon="6.18996">
        <ele>236.40039</ele>
        <time>2026-05-18T10:25:06+02:00</time>
      </trkpt>
      <trkpt lat="48.575" lon="6.18988">
        <ele>236.60059</ele>
        <time>2026-05-18T10:25:07+02:00</time>
      </trkpt>
      <trkpt lat="48.57503" lon="6.1898">
        <ele>236.5</ele>
        <time>2026-05-18T10:25:08+02:00</time>
      </trkpt>
      <trkpt lat="48.57506" lon="6.18971">
        <ele>236.2998</ele>
        <time>2026-05-18T10:25:09+02:00</time>
      </trkpt>
      <trkpt lat="48.57509" lon="6.18963">
        <ele>236.10059</ele>
        <time>2026-05-18T10:25:10+02:00</time>
      </trkpt>
      <trkpt lat="48.57512" lon="6.18954">
        <ele>236</ele>
        <time>2026-05-18T10:25:11+02:00</time>
      </trkpt>
      <trkpt lat="48.57515" lon="6.18946">
        <ele>236.10059</ele>
        <time>2026-05-18T10:25:12+02:00</time>
      </trkpt>
      <trkpt lat="48.57519" lon="6.18937">
        <ele>236.2998</ele>
        <time>2026-05-18T10:25:13+02:00</time>
      </trkpt>
      <trkpt lat="48.57522" lon="6.18929">
        <ele>236.7002</ele>
        <time>2026-05-18T10:25:14+02:00</time>
      </trkpt>
      <trkpt lat="48.57525" lon="6.18921">
        <ele>236.90039</ele>
        <time>2026-05-18T10:25:15+02:00</time>
      </trkpt>
      <trkpt lat="48.57528" lon="6.18913">
        <ele>237.10059</ele>
        <time>2026-05-18T10:25:16+02:00</time>
      </trkpt>
      <trkpt lat="48.57531" lon="6.18904">
        <ele>237.2998</ele>
        <time>2026-05-18T10:25:17+02:00</time>
      </trkpt>
      <trkpt lat="48.57535" lon="6.18896">
        <ele>237.5</ele>
        <time>2026-05-18T10:25:18+02:00</time>
      </trkpt>
      <trkpt lat="48.57538" lon="6.18888">
        <ele>237.7002</ele>
        <time>2026-05-18T10:25:19+02:00</time>
      </trkpt>
      <trkpt lat="48.5754" lon="6.1888">
        <ele>237.7002</ele>
        <time>2026-05-18T10:25:20+02:00</time>
      </trkpt>
      <trkpt lat="48.57543" lon="6.18873">
        <ele>237.5</ele>
        <time>2026-05-18T10:25:21+02:00</time>
      </trkpt>
      <trkpt lat="48.57546" lon="6.18865">
        <ele>237.5</ele>
        <time>2026-05-18T10:25:22+02:00</time>
      </trkpt>
      <trkpt lat="48.57548" lon="6.18858">
        <ele>237</ele>
        <time>2026-05-18T10:25:23+02:00</time>
      </trkpt>
      <trkpt lat="48.57551" lon="6.1885">
        <ele>236.90039</ele>
        <time>2026-05-18T10:25:24+02:00</time>
      </trkpt>
      <trkpt lat="48.57554" lon="6.18843">
        <ele>236.7002</ele>
        <time>2026-05-18T10:25:25+02:00</time>
      </trkpt>
      <trkpt lat="48.57557" lon="6.18835">
        <ele>236.90039</ele>
        <time>2026-05-18T10:25:26+02:00</time>
      </trkpt>
      <trkpt lat="48.5756" lon="6.18827">
        <ele>236.7998</ele>
        <time>2026-05-18T10:25:27+02:00</time>
      </trkpt>
      <trkpt lat="48.57563" lon="6.18819">
        <ele>237.10059</ele>
        <time>2026-05-18T10:25:28+02:00</time>
      </trkpt>
      <trkpt lat="48.57565" lon="6.18811">
        <ele>236.7998</ele>
        <time>2026-05-18T10:25:29+02:00</time>
      </trkpt>
      <trkpt lat="48.57568" lon="6.18803">
        <ele>236.7002</ele>
        <time>2026-05-18T10:25:30+02:00</time>
      </trkpt>
      <trkpt lat="48.57571" lon="6.18796">
        <ele>236.2002</ele>
        <time>2026-05-18T10:25:31+02:00</time>
      </trkpt>
      <trkpt lat="48.57573" lon="6.18789">
        <ele>236.2002</ele>
        <time>2026-05-18T10:25:32+02:00</time>
      </trkpt>
      <trkpt lat="48.57576" lon="6.18781">
        <ele>235.7002</ele>
        <time>2026-05-18T10:25:33+02:00</time>
      </trkpt>
      <trkpt lat="48.57579" lon="6.18774">
        <ele>235.7998</ele>
        <time>2026-05-18T10:25:34+02:00</time>
      </trkpt>
      <trkpt lat="48.57581" lon="6.18767">
        <ele>235.90039</ele>
        <time>2026-05-18T10:25:35+02:00</time>
      </trkpt>
      <trkpt lat="48.57584" lon="6.18759">
        <ele>236</ele>
        <time>2026-05-18T10:25:36+02:00</time>
      </trkpt>
      <trkpt lat="48.57586" lon="6.18752">
        <ele>236.2998</ele>
        <time>2026-05-18T10:25:37+02:00</time>
      </trkpt>
      <trkpt lat="48.57589" lon="6.18746">
        <ele>236.2002</ele>
        <time>2026-05-18T10:25:38+02:00</time>
      </trkpt>
      <trkpt lat="48.57596" lon="6.18729">
        <ele>236.60059</ele>
        <time>2026-05-18T10:25:39+02:00</time>
      </trkpt>
      <trkpt lat="48.57596" lon="6.18729">
        <ele>236.60059</ele>
        <time>2026-05-18T10:25:40+02:00</time>
      </trkpt>
      <trkpt lat="48.57597" lon="6.18725">
        <ele>236.7998</ele>
        <time>2026-05-18T10:25:41+02:00</time>
      </trkpt>
      <trkpt lat="48.57599" lon="6.18719">
        <ele>236.90039</ele>
        <time>2026-05-18T10:25:42+02:00</time>
      </trkpt>
      <trkpt lat="48.57602" lon="6.18712">
        <ele>236.90039</ele>
        <time>2026-05-18T10:25:43+02:00</time>
      </trkpt>
      <trkpt lat="48.57604" lon="6.18705">
        <ele>237</ele>
        <time>2026-05-18T10:25:44+02:00</time>
      </trkpt>
      <trkpt lat="48.57607" lon="6.18698">
        <ele>236.7002</ele>
        <time>2026-05-18T10:25:45+02:00</time>
      </trkpt>
      <trkpt lat="48.57609" lon="6.18691">
        <ele>236.5</ele>
        <time>2026-05-18T10:25:46+02:00</time>
      </trkpt>
      <trkpt lat="48.57612" lon="6.18685">
        <ele>236.10059</ele>
        <time>2026-05-18T10:25:47+02:00</time>
      </trkpt>
      <trkpt lat="48.57614" lon="6.18677">
        <ele>235.90039</ele>
        <time>2026-05-18T10:25:48+02:00</time>
      </trkpt>
      <trkpt lat="48.57617" lon="6.1867">
        <ele>235.5</ele>
        <time>2026-05-18T10:25:49+02:00</time>
      </trkpt>
      <trkpt lat="48.57619" lon="6.18664">
        <ele>235.5</ele>
        <time>2026-05-18T10:25:50+02:00</time>
      </trkpt>
      <trkpt lat="48.57622" lon="6.18657">
        <ele>235.7002</ele>
        <time>2026-05-18T10:25:51+02:00</time>
      </trkpt>
      <trkpt lat="48.57624" lon="6.18651">
        <ele>235.7002</ele>
        <time>2026-05-18T10:25:52+02:00</time>
      </trkpt>
      <trkpt lat="48.57626" lon="6.18644">
        <ele>236</ele>
        <time>2026-05-18T10:25:53+02:00</time>
      </trkpt>
      <trkpt lat="48.57629" lon="6.18637">
        <ele>236.10059</ele>
        <time>2026-05-18T10:25:54+02:00</time>
      </trkpt>
      <trkpt lat="48.57632" lon="6.1863">
        <ele>236</ele>
        <time>2026-05-18T10:25:55+02:00</time>
      </trkpt>
      <trkpt lat="48.57634" lon="6.18623">
        <ele>236.2002</ele>
        <time>2026-05-18T10:25:56+02:00</time>
      </trkpt>
      <trkpt lat="48.57638" lon="6.18616">
        <ele>236.60059</ele>
        <time>2026-05-18T10:25:57+02:00</time>
      </trkpt>
      <trkpt lat="48.57641" lon="6.1861">
        <ele>236.60059</ele>
        <time>2026-05-18T10:25:58+02:00</time>
      </trkpt>
      <trkpt lat="48.57644" lon="6.18603">
        <ele>236.7002</ele>
        <time>2026-05-18T10:25:59+02:00</time>
      </trkpt>
      <trkpt lat="48.57647" lon="6.18597">
        <ele>236.2998</ele>
        <time>2026-05-18T10:26:00+02:00</time>
      </trkpt>
      <trkpt lat="48.57649" lon="6.1859">
        <ele>235.60059</ele>
        <time>2026-05-18T10:26:01+02:00</time>
      </trkpt>
      <trkpt lat="48.57652" lon="6.18584">
        <ele>235.40039</ele>
        <time>2026-05-18T10:26:02+02:00</time>
      </trkpt>
      <trkpt lat="48.57655" lon="6.18577">
        <ele>234.7998</ele>
        <time>2026-05-18T10:26:03+02:00</time>
      </trkpt>
      <trkpt lat="48.57658" lon="6.18571">
        <ele>234.40039</ele>
        <time>2026-05-18T10:26:04+02:00</time>
      </trkpt>
      <trkpt lat="48.57661" lon="6.18565">
        <ele>234.40039</ele>
        <time>2026-05-18T10:26:05+02:00</time>
      </trkpt>
      <trkpt lat="48.57664" lon="6.18558">
        <ele>234.40039</ele>
        <time>2026-05-18T10:26:06+02:00</time>
      </trkpt>
      <trkpt lat="48.57665" lon="6.18556">
        <ele>234.2998</ele>
        <time>2026-05-18T10:26:07+02:00</time>
      </trkpt>
      <trkpt lat="48.57669" lon="6.18546">
        <ele>234.5</ele>
        <time>2026-05-18T10:26:08+02:00</time>
      </trkpt>
      <trkpt lat="48.57672" lon="6.1854">
        <ele>234.60059</ele>
        <time>2026-05-18T10:26:09+02:00</time>
      </trkpt>
      <trkpt lat="48.57675" lon="6.18534">
        <ele>234.60059</ele>
        <time>2026-05-18T10:26:10+02:00</time>
      </trkpt>
      <trkpt lat="48.57678" lon="6.18528">
        <ele>234.7002</ele>
        <time>2026-05-18T10:26:11+02:00</time>
      </trkpt>
      <trkpt lat="48.5768" lon="6.18522">
        <ele>234.7002</ele>
        <time>2026-05-18T10:26:12+02:00</time>
      </trkpt>
      <trkpt lat="48.57683" lon="6.18515">
        <ele>234.40039</ele>
        <time>2026-05-18T10:26:13+02:00</time>
      </trkpt>
      <trkpt lat="48.57687" lon="6.18508">
        <ele>234.5</ele>
        <time>2026-05-18T10:26:14+02:00</time>
      </trkpt>
      <trkpt lat="48.5769" lon="6.18501">
        <ele>234.2002</ele>
        <time>2026-05-18T10:26:15+02:00</time>
      </trkpt>
      <trkpt lat="48.57693" lon="6.18494">
        <ele>233.7002</ele>
        <time>2026-05-18T10:26:16+02:00</time>
      </trkpt>
      <trkpt lat="48.57696" lon="6.18487">
        <ele>233.10059</ele>
        <time>2026-05-18T10:26:17+02:00</time>
      </trkpt>
      <trkpt lat="48.577" lon="6.1848">
        <ele>233.10059</ele>
        <time>2026-05-18T10:26:18+02:00</time>
      </trkpt>
      <trkpt lat="48.57703" lon="6.18472">
        <ele>232.60059</ele>
        <time>2026-05-18T10:26:19+02:00</time>
      </trkpt>
      <trkpt lat="48.57707" lon="6.18465">
        <ele>232.2002</ele>
        <time>2026-05-18T10:26:20+02:00</time>
      </trkpt>
      <trkpt lat="48.5771" lon="6.18458">
        <ele>232.10059</ele>
        <time>2026-05-18T10:26:21+02:00</time>
      </trkpt>
      <trkpt lat="48.57713" lon="6.18451">
        <ele>232.10059</ele>
        <time>2026-05-18T10:26:22+02:00</time>
      </trkpt>
      <trkpt lat="48.57717" lon="6.18444">
        <ele>231.7998</ele>
        <time>2026-05-18T10:26:23+02:00</time>
      </trkpt>
      <trkpt lat="48.5772" lon="6.18437">
        <ele>231.90039</ele>
        <time>2026-05-18T10:26:24+02:00</time>
      </trkpt>
      <trkpt lat="48.57723" lon="6.18431">
        <ele>231.7002</ele>
        <time>2026-05-18T10:26:25+02:00</time>
      </trkpt>
      <trkpt lat="48.57726" lon="6.18424">
        <ele>231.40039</ele>
        <time>2026-05-18T10:26:26+02:00</time>
      </trkpt>
      <trkpt lat="48.57729" lon="6.18417">
        <ele>230.7998</ele>
        <time>2026-05-18T10:26:27+02:00</time>
      </trkpt>
      <trkpt lat="48.57733" lon="6.18411">
        <ele>230.7998</ele>
        <time>2026-05-18T10:26:28+02:00</time>
      </trkpt>
      <trkpt lat="48.57736" lon="6.18404">
        <ele>230.90039</ele>
        <time>2026-05-18T10:26:29+02:00</time>
      </trkpt>
      <trkpt lat="48.57739" lon="6.18397">
        <ele>231.10059</ele>
        <time>2026-05-18T10:26:30+02:00</time>
      </trkpt>
      <trkpt lat="48.57742" lon="6.1839">
        <ele>231.40039</ele>
        <time>2026-05-18T10:26:31+02:00</time>
      </trkpt>
      <trkpt lat="48.57745" lon="6.18384">
        <ele>231.2998</ele>
        <time>2026-05-18T10:26:32+02:00</time>
      </trkpt>
      <trkpt lat="48.57747" lon="6.1838">
        <ele>231.2002</ele>
        <time>2026-05-18T10:26:33+02:00</time>
      </trkpt>
      <trkpt lat="48.57752" lon="6.1837">
        <ele>231.2998</ele>
        <time>2026-05-18T10:26:34+02:00</time>
      </trkpt>
      <trkpt lat="48.57754" lon="6.18364">
        <ele>231.40039</ele>
        <time>2026-05-18T10:26:35+02:00</time>
      </trkpt>
      <trkpt lat="48.57758" lon="6.18357">
        <ele>231.5</ele>
        <time>2026-05-18T10:26:36+02:00</time>
      </trkpt>
      <trkpt lat="48.5776" lon="6.18351">
        <ele>231.5</ele>
        <time>2026-05-18T10:26:37+02:00</time>
      </trkpt>
      <trkpt lat="48.57763" lon="6.18344">
        <ele>231.40039</ele>
        <time>2026-05-18T10:26:38+02:00</time>
      </trkpt>
      <trkpt lat="48.57766" lon="6.18338">
        <ele>231.40039</ele>
        <time>2026-05-18T10:26:39+02:00</time>
      </trkpt>
      <trkpt lat="48.57769" lon="6.18332">
        <ele>231.40039</ele>
        <time>2026-05-18T10:26:40+02:00</time>
      </trkpt>
      <trkpt lat="48.57772" lon="6.18325">
        <ele>231.40039</ele>
        <time>2026-05-18T10:26:41+02:00</time>
      </trkpt>
      <trkpt lat="48.57774" lon="6.18319">
        <ele>231.40039</ele>
        <time>2026-05-18T10:26:42+02:00</time>
      </trkpt>
      <trkpt lat="48.57778" lon="6.18313">
        <ele>231.2998</ele>
        <time>2026-05-18T10:26:43+02:00</time>
      </trkpt>
      <trkpt lat="48.5778" lon="6.18306">
        <ele>231</ele>
        <time>2026-05-18T10:26:44+02:00</time>
      </trkpt>
      <trkpt lat="48.57783" lon="6.183">
        <ele>231</ele>
        <time>2026-05-18T10:26:45+02:00</time>
      </trkpt>
      <trkpt lat="48.57786" lon="6.18294">
        <ele>230.60059</ele>
        <time>2026-05-18T10:26:46+02:00</time>
      </trkpt>
      <trkpt lat="48.57789" lon="6.18288">
        <ele>230.2002</ele>
        <time>2026-05-18T10:26:47+02:00</time>
      </trkpt>
      <trkpt lat="48.57792" lon="6.18281">
        <ele>230</ele>
        <time>2026-05-18T10:26:48+02:00</time>
      </trkpt>
      <trkpt lat="48.57795" lon="6.18275">
        <ele>230</ele>
        <time>2026-05-18T10:26:49+02:00</time>
      </trkpt>
      <trkpt lat="48.57797" lon="6.18269">
        <ele>229.7998</ele>
        <time>2026-05-18T10:26:50+02:00</time>
      </trkpt>
      <trkpt lat="48.578" lon="6.18262">
        <ele>230.2002</ele>
        <time>2026-05-18T10:26:51+02:00</time>
      </trkpt>
      <trkpt lat="48.57803" lon="6.18257">
        <ele>230.5</ele>
        <time>2026-05-18T10:26:52+02:00</time>
      </trkpt>
      <trkpt lat="48.57805" lon="6.18251">
        <ele>230.60059</ele>
        <time>2026-05-18T10:26:53+02:00</time>
      </trkpt>
      <trkpt lat="48.57808" lon="6.18244">
        <ele>230.40039</ele>
        <time>2026-05-18T10:26:54+02:00</time>
      </trkpt>
      <trkpt lat="48.5781" lon="6.18238">
        <ele>230.2998</ele>
        <time>2026-05-18T10:26:55+02:00</time>
      </trkpt>
      <trkpt lat="48.57813" lon="6.18231">
        <ele>230.2998</ele>
        <time>2026-05-18T10:26:56+02:00</time>
      </trkpt>
      <trkpt lat="48.57816" lon="6.18225">
        <ele>230</ele>
        <time>2026-05-18T10:26:57+02:00</time>
      </trkpt>
      <trkpt lat="48.57817" lon="6.18222">
        <ele>230</ele>
        <time>2026-05-18T10:26:58+02:00</time>
      </trkpt>
      <trkpt lat="48.57821" lon="6.18212">
        <ele>230.2998</ele>
        <time>2026-05-18T10:26:59+02:00</time>
      </trkpt>
      <trkpt lat="48.57823" lon="6.18205">
        <ele>230.2998</ele>
        <time>2026-05-18T10:27:00+02:00</time>
      </trkpt>
      <trkpt lat="48.57826" lon="6.18198">
        <ele>230.2998</ele>
        <time>2026-05-18T10:27:01+02:00</time>
      </trkpt>
      <trkpt lat="48.57828" lon="6.18191">
        <ele>230</ele>
        <time>2026-05-18T10:27:02+02:00</time>
      </trkpt>
      <trkpt lat="48.5783" lon="6.18184">
        <ele>229.60059</ele>
        <time>2026-05-18T10:27:03+02:00</time>
      </trkpt>
      <trkpt lat="48.57832" lon="6.18177">
        <ele>229.5</ele>
        <time>2026-05-18T10:27:04+02:00</time>
      </trkpt>
      <trkpt lat="48.57834" lon="6.1817">
        <ele>229.5</ele>
        <time>2026-05-18T10:27:05+02:00</time>
      </trkpt>
      <trkpt lat="48.57836" lon="6.18162">
        <ele>229.10059</ele>
        <time>2026-05-18T10:27:06+02:00</time>
      </trkpt>
      <trkpt lat="48.57839" lon="6.18156">
        <ele>229</ele>
        <time>2026-05-18T10:27:07+02:00</time>
      </trkpt>
      <trkpt lat="48.57841" lon="6.18149">
        <ele>228.7002</ele>
        <time>2026-05-18T10:27:08+02:00</time>
      </trkpt>
      <trkpt lat="48.57843" lon="6.18142">
        <ele>228.7998</ele>
        <time>2026-05-18T10:27:09+02:00</time>
      </trkpt>
      <trkpt lat="48.57846" lon="6.18135">
        <ele>228.40039</ele>
        <time>2026-05-18T10:27:10+02:00</time>
      </trkpt>
      <trkpt lat="48.57848" lon="6.18129">
        <ele>228.40039</ele>
        <time>2026-05-18T10:27:11+02:00</time>
      </trkpt>
      <trkpt lat="48.57851" lon="6.18123">
        <ele>228.60059</ele>
        <time>2026-05-18T10:27:12+02:00</time>
      </trkpt>
      <trkpt lat="48.57853" lon="6.18117">
        <ele>228.40039</ele>
        <time>2026-05-18T10:27:13+02:00</time>
      </trkpt>
      <trkpt lat="48.57856" lon="6.18111">
        <ele>229</ele>
        <time>2026-05-18T10:27:14+02:00</time>
      </trkpt>
      <trkpt lat="48.57859" lon="6.18106">
        <ele>228.7998</ele>
        <time>2026-05-18T10:27:15+02:00</time>
      </trkpt>
      <trkpt lat="48.57862" lon="6.18101">
        <ele>229.10059</ele>
        <time>2026-05-18T10:27:16+02:00</time>
      </trkpt>
      <trkpt lat="48.57865" lon="6.18096">
        <ele>229.60059</ele>
        <time>2026-05-18T10:27:17+02:00</time>
      </trkpt>
      <trkpt lat="48.57867" lon="6.18091">
        <ele>229.2002</ele>
        <time>2026-05-18T10:27:18+02:00</time>
      </trkpt>
      <trkpt lat="48.57869" lon="6.18085">
        <ele>229.2002</ele>
        <time>2026-05-18T10:27:19+02:00</time>
      </trkpt>
      <trkpt lat="48.57871" lon="6.1808">
        <ele>229.2002</ele>
        <time>2026-05-18T10:27:20+02:00</time>
      </trkpt>
      <trkpt lat="48.57872" lon="6.18077">
        <ele>229.2002</ele>
        <time>2026-05-18T10:27:21+02:00</time>
      </trkpt>
      <trkpt lat="48.57876" lon="6.18069">
        <ele>228.90039</ele>
        <time>2026-05-18T10:27:22+02:00</time>
      </trkpt>
      <trkpt lat="48.57877" lon="6.18064">
        <ele>229.10059</ele>
        <time>2026-05-18T10:27:23+02:00</time>
      </trkpt>
      <trkpt lat="48.57879" lon="6.18059">
        <ele>229.10059</ele>
        <time>2026-05-18T10:27:24+02:00</time>
      </trkpt>
      <trkpt lat="48.57881" lon="6.18054">
        <ele>228.7998</ele>
        <time>2026-05-18T10:27:25+02:00</time>
      </trkpt>
      <trkpt lat="48.57882" lon="6.1805">
        <ele>228.7998</ele>
        <time>2026-05-18T10:27:26+02:00</time>
      </trkpt>
      <trkpt lat="48.57884" lon="6.18046">
        <ele>229</ele>
        <time>2026-05-18T10:27:27+02:00</time>
      </trkpt>
      <trkpt lat="48.57886" lon="6.1804">
        <ele>228.7002</ele>
        <time>2026-05-18T10:27:28+02:00</time>
      </trkpt>
      <trkpt lat="48.57887" lon="6.18038">
        <ele>228.7002</ele>
        <time>2026-05-18T10:27:29+02:00</time>
      </trkpt>
      <trkpt lat="48.57889" lon="6.18027">
        <ele>228.7998</ele>
        <time>2026-05-18T10:27:30+02:00</time>
      </trkpt>
      <trkpt lat="48.5789" lon="6.1802">
        <ele>228.40039</ele>
        <time>2026-05-18T10:27:31+02:00</time>
      </trkpt>
      <trkpt lat="48.57892" lon="6.18012">
        <ele>228.10059</ele>
        <time>2026-05-18T10:27:32+02:00</time>
      </trkpt>
      <trkpt lat="48.57893" lon="6.18005">
        <ele>227.7998</ele>
        <time>2026-05-18T10:27:33+02:00</time>
      </trkpt>
      <trkpt lat="48.57894" lon="6.17997">
        <ele>227.7998</ele>
        <time>2026-05-18T10:27:34+02:00</time>
      </trkpt>
      <trkpt lat="48.57895" lon="6.17989">
        <ele>227.7002</ele>
        <time>2026-05-18T10:27:35+02:00</time>
      </trkpt>
      <trkpt lat="48.57896" lon="6.17981">
        <ele>227.7002</ele>
        <time>2026-05-18T10:27:36+02:00</time>
      </trkpt>
      <trkpt lat="48.57898" lon="6.17973">
        <ele>227.60059</ele>
        <time>2026-05-18T10:27:37+02:00</time>
      </trkpt>
      <trkpt lat="48.57901" lon="6.17965">
        <ele>228</ele>
        <time>2026-05-18T10:27:38+02:00</time>
      </trkpt>
      <trkpt lat="48.57904" lon="6.17958">
        <ele>227.90039</ele>
        <time>2026-05-18T10:27:39+02:00</time>
      </trkpt>
      <trkpt lat="48.57907" lon="6.17951">
        <ele>228.2998</ele>
        <time>2026-05-18T10:27:40+02:00</time>
      </trkpt>
      <trkpt lat="48.5791" lon="6.17944">
        <ele>228.2002</ele>
        <time>2026-05-18T10:27:41+02:00</time>
      </trkpt>
      <trkpt lat="48.57912" lon="6.17936">
        <ele>228.40039</ele>
        <time>2026-05-18T10:27:42+02:00</time>
      </trkpt>
      <trkpt lat="48.57914" lon="6.17929">
        <ele>228.2998</ele>
        <time>2026-05-18T10:27:43+02:00</time>
      </trkpt>
      <trkpt lat="48.57917" lon="6.17922">
        <ele>228.5</ele>
        <time>2026-05-18T10:27:44+02:00</time>
      </trkpt>
      <trkpt lat="48.57919" lon="6.17915">
        <ele>228.40039</ele>
        <time>2026-05-18T10:27:45+02:00</time>
      </trkpt>
      <trkpt lat="48.5792" lon="6.17907">
        <ele>228.2998</ele>
        <time>2026-05-18T10:27:46+02:00</time>
      </trkpt>
      <trkpt lat="48.57921" lon="6.17899">
        <ele>228.2002</ele>
        <time>2026-05-18T10:27:47+02:00</time>
      </trkpt>
      <trkpt lat="48.57921" lon="6.17894">
        <ele>228.10059</ele>
        <time>2026-05-18T10:27:48+02:00</time>
      </trkpt>
      <trkpt lat="48.57922" lon="6.17881">
        <ele>228.40039</ele>
        <time>2026-05-18T10:27:49+02:00</time>
      </trkpt>
      <trkpt lat="48.57923" lon="6.17872">
        <ele>228.40039</ele>
        <time>2026-05-18T10:27:50+02:00</time>
      </trkpt>
      <trkpt lat="48.57925" lon="6.17864">
        <ele>228.5</ele>
        <time>2026-05-18T10:27:51+02:00</time>
      </trkpt>
      <trkpt lat="48.57928" lon="6.17856">
        <ele>228.7002</ele>
        <time>2026-05-18T10:27:52+02:00</time>
      </trkpt>
      <trkpt lat="48.57931" lon="6.17849">
        <ele>228.7998</ele>
        <time>2026-05-18T10:27:53+02:00</time>
      </trkpt>
      <trkpt lat="48.57935" lon="6.17842">
        <ele>229</ele>
        <time>2026-05-18T10:27:54+02:00</time>
      </trkpt>
      <trkpt lat="48.57939" lon="6.17835">
        <ele>228.7998</ele>
        <time>2026-05-18T10:27:55+02:00</time>
      </trkpt>
      <trkpt lat="48.57942" lon="6.17828">
        <ele>228.7998</ele>
        <time>2026-05-18T10:27:56+02:00</time>
      </trkpt>
      <trkpt lat="48.57945" lon="6.17821">
        <ele>228.60059</ele>
        <time>2026-05-18T10:27:57+02:00</time>
      </trkpt>
      <trkpt lat="48.57948" lon="6.17815">
        <ele>228.60059</ele>
        <time>2026-05-18T10:27:58+02:00</time>
      </trkpt>
      <trkpt lat="48.57951" lon="6.17809">
        <ele>228.60059</ele>
        <time>2026-05-18T10:27:59+02:00</time>
      </trkpt>
      <trkpt lat="48.57955" lon="6.17802">
        <ele>228.60059</ele>
        <time>2026-05-18T10:28:00+02:00</time>
      </trkpt>
      <trkpt lat="48.57958" lon="6.17796">
        <ele>228.5</ele>
        <time>2026-05-18T10:28:01+02:00</time>
      </trkpt>
      <trkpt lat="48.57961" lon="6.1779">
        <ele>228.60059</ele>
        <time>2026-05-18T10:28:02+02:00</time>
      </trkpt>
      <trkpt lat="48.57965" lon="6.17784">
        <ele>228.5</ele>
        <time>2026-05-18T10:28:03+02:00</time>
      </trkpt>
      <trkpt lat="48.57968" lon="6.17777">
        <ele>228.5</ele>
        <time>2026-05-18T10:28:04+02:00</time>
      </trkpt>
      <trkpt lat="48.57972" lon="6.17771">
        <ele>228.7002</ele>
        <time>2026-05-18T10:28:05+02:00</time>
      </trkpt>
      <trkpt lat="48.57976" lon="6.17765">
        <ele>228.7998</ele>
        <time>2026-05-18T10:28:06+02:00</time>
      </trkpt>
      <trkpt lat="48.57979" lon="6.17758">
        <ele>228.7998</ele>
        <time>2026-05-18T10:28:07+02:00</time>
      </trkpt>
      <trkpt lat="48.57983" lon="6.17752">
        <ele>229</ele>
        <time>2026-05-18T10:28:08+02:00</time>
      </trkpt>
      <trkpt lat="48.57986" lon="6.17746">
        <ele>229.2002</ele>
        <time>2026-05-18T10:28:09+02:00</time>
      </trkpt>
      <trkpt lat="48.5799" lon="6.1774">
        <ele>229.40039</ele>
        <time>2026-05-18T10:28:10+02:00</time>
      </trkpt>
      <trkpt lat="48.57993" lon="6.17734">
        <ele>229.40039</ele>
        <time>2026-05-18T10:28:11+02:00</time>
      </trkpt>
      <trkpt lat="48.57997" lon="6.17728">
        <ele>229.7002</ele>
        <time>2026-05-18T10:28:12+02:00</time>
      </trkpt>
      <trkpt lat="48.58001" lon="6.17722">
        <ele>229.90039</ele>
        <time>2026-05-18T10:28:13+02:00</time>
      </trkpt>
      <trkpt lat="48.58005" lon="6.17717">
        <ele>229.90039</ele>
        <time>2026-05-18T10:28:14+02:00</time>
      </trkpt>
      <trkpt lat="48.58008" lon="6.17711">
        <ele>230.10059</ele>
        <time>2026-05-18T10:28:15+02:00</time>
      </trkpt>
      <trkpt lat="48.58012" lon="6.17706">
        <ele>230.2998</ele>
        <time>2026-05-18T10:28:16+02:00</time>
      </trkpt>
      <trkpt lat="48.58016" lon="6.17701">
        <ele>230.2998</ele>
        <time>2026-05-18T10:28:17+02:00</time>
      </trkpt>
      <trkpt lat="48.5802" lon="6.17697">
        <ele>230.40039</ele>
        <time>2026-05-18T10:28:18+02:00</time>
      </trkpt>
      <trkpt lat="48.58024" lon="6.17692">
        <ele>230.40039</ele>
        <time>2026-05-18T10:28:19+02:00</time>
      </trkpt>
      <trkpt lat="48.58027" lon="6.17687">
        <ele>230.5</ele>
        <time>2026-05-18T10:28:20+02:00</time>
      </trkpt>
      <trkpt lat="48.58032" lon="6.17683">
        <ele>230.40039</ele>
        <time>2026-05-18T10:28:21+02:00</time>
      </trkpt>
      <trkpt lat="48.58035" lon="6.17678">
        <ele>230.60059</ele>
        <time>2026-05-18T10:28:22+02:00</time>
      </trkpt>
      <trkpt lat="48.5804" lon="6.17674">
        <ele>230.40039</ele>
        <time>2026-05-18T10:28:23+02:00</time>
      </trkpt>
      <trkpt lat="48.58043" lon="6.17669">
        <ele>230.40039</ele>
        <time>2026-05-18T10:28:24+02:00</time>
      </trkpt>
      <trkpt lat="48.58047" lon="6.17665">
        <ele>230.2998</ele>
        <time>2026-05-18T10:28:25+02:00</time>
      </trkpt>
      <trkpt lat="48.58051" lon="6.1766">
        <ele>230.40039</ele>
        <time>2026-05-18T10:28:26+02:00</time>
      </trkpt>
      <trkpt lat="48.58054" lon="6.17656">
        <ele>230.2998</ele>
        <time>2026-05-18T10:28:27+02:00</time>
      </trkpt>
      <trkpt lat="48.58058" lon="6.17651">
        <ele>230.5</ele>
        <time>2026-05-18T10:28:28+02:00</time>
      </trkpt>
      <trkpt lat="48.58061" lon="6.17649">
        <ele>230.40039</ele>
        <time>2026-05-18T10:28:29+02:00</time>
      </trkpt>
      <trkpt lat="48.58066" lon="6.17642">
        <ele>230.40039</ele>
        <time>2026-05-18T10:28:30+02:00</time>
      </trkpt>
      <trkpt lat="48.58071" lon="6.17637">
        <ele>230.2998</ele>
        <time>2026-05-18T10:28:31+02:00</time>
      </trkpt>
      <trkpt lat="48.58075" lon="6.17633">
        <ele>230.2998</ele>
        <time>2026-05-18T10:28:32+02:00</time>
      </trkpt>
      <trkpt lat="48.58079" lon="6.17628">
        <ele>230.10059</ele>
        <time>2026-05-18T10:28:33+02:00</time>
      </trkpt>
      <trkpt lat="48.58083" lon="6.17622">
        <ele>230</ele>
        <time>2026-05-18T10:28:34+02:00</time>
      </trkpt>
      <trkpt lat="48.58087" lon="6.17617">
        <ele>229.90039</ele>
        <time>2026-05-18T10:28:35+02:00</time>
      </trkpt>
      <trkpt lat="48.58091" lon="6.17612">
        <ele>229.90039</ele>
        <time>2026-05-18T10:28:36+02:00</time>
      </trkpt>
      <trkpt lat="48.58095" lon="6.17607">
        <ele>229.90039</ele>
        <time>2026-05-18T10:28:37+02:00</time>
      </trkpt>
      <trkpt lat="48.58098" lon="6.17601">
        <ele>229.7002</ele>
        <time>2026-05-18T10:28:38+02:00</time>
      </trkpt>
      <trkpt lat="48.58102" lon="6.17595">
        <ele>229.7002</ele>
        <time>2026-05-18T10:28:39+02:00</time>
      </trkpt>
      <trkpt lat="48.58106" lon="6.1759">
        <ele>229.40039</ele>
        <time>2026-05-18T10:28:40+02:00</time>
      </trkpt>
      <trkpt lat="48.58111" lon="6.17585">
        <ele>229.2002</ele>
        <time>2026-05-18T10:28:41+02:00</time>
      </trkpt>
      <trkpt lat="48.58115" lon="6.1758">
        <ele>229.2998</ele>
        <time>2026-05-18T10:28:42+02:00</time>
      </trkpt>
      <trkpt lat="48.5812" lon="6.17575">
        <ele>228.7998</ele>
        <time>2026-05-18T10:28:43+02:00</time>
      </trkpt>
      <trkpt lat="48.58124" lon="6.17569">
        <ele>228.90039</ele>
        <time>2026-05-18T10:28:44+02:00</time>
      </trkpt>
      <trkpt lat="48.58129" lon="6.17565">
        <ele>228.5</ele>
        <time>2026-05-18T10:28:45+02:00</time>
      </trkpt>
      <trkpt lat="48.58131" lon="6.17562">
        <ele>228.5</ele>
        <time>2026-05-18T10:28:46+02:00</time>
      </trkpt>
      <trkpt lat="48.58138" lon="6.17555">
        <ele>228.2998</ele>
        <time>2026-05-18T10:28:47+02:00</time>
      </trkpt>
      <trkpt lat="48.58141" lon="6.1755">
        <ele>227.90039</ele>
        <time>2026-05-18T10:28:48+02:00</time>
      </trkpt>
      <trkpt lat="48.58146" lon="6.17546">
        <ele>228</ele>
        <time>2026-05-18T10:28:49+02:00</time>
      </trkpt>
      <trkpt lat="48.58149" lon="6.17541">
        <ele>227.60059</ele>
        <time>2026-05-18T10:28:50+02:00</time>
      </trkpt>
      <trkpt lat="48.58153" lon="6.17536">
        <ele>227.7998</ele>
        <time>2026-05-18T10:28:51+02:00</time>
      </trkpt>
      <trkpt lat="48.58157" lon="6.17532">
        <ele>227.60059</ele>
        <time>2026-05-18T10:28:52+02:00</time>
      </trkpt>
      <trkpt lat="48.58161" lon="6.17527">
        <ele>227.7002</ele>
        <time>2026-05-18T10:28:53+02:00</time>
      </trkpt>
      <trkpt lat="48.58165" lon="6.17522">
        <ele>227.40039</ele>
        <time>2026-05-18T10:28:54+02:00</time>
      </trkpt>
      <trkpt lat="48.58169" lon="6.17517">
        <ele>227.2002</ele>
        <time>2026-05-18T10:28:55+02:00</time>
      </trkpt>
      <trkpt lat="48.58173" lon="6.17512">
        <ele>227.2998</ele>
        <time>2026-05-18T10:28:56+02:00</time>
      </trkpt>
      <trkpt lat="48.58177" lon="6.17508">
        <ele>226.90039</ele>
        <time>2026-05-18T10:28:57+02:00</time>
      </trkpt>
      <trkpt lat="48.58182" lon="6.17503">
        <ele>227</ele>
        <time>2026-05-18T10:28:58+02:00</time>
      </trkpt>
      <trkpt lat="48.58186" lon="6.17498">
        <ele>226.7002</ele>
        <time>2026-05-18T10:28:59+02:00</time>
      </trkpt>
      <trkpt lat="48.5819" lon="6.17493">
        <ele>226.7998</ele>
        <time>2026-05-18T10:29:00+02:00</time>
      </trkpt>
      <trkpt lat="48.58194" lon="6.17489">
        <ele>226.5</ele>
        <time>2026-05-18T10:29:01+02:00</time>
      </trkpt>
      <trkpt lat="48.58199" lon="6.17484">
        <ele>226.60059</ele>
        <time>2026-05-18T10:29:02+02:00</time>
      </trkpt>
      <trkpt lat="48.58203" lon="6.17479">
        <ele>226.5</ele>
        <time>2026-05-18T10:29:03+02:00</time>
      </trkpt>
      <trkpt lat="48.58207" lon="6.17475">
        <ele>226.7002</ele>
        <time>2026-05-18T10:29:04+02:00</time>
      </trkpt>
      <trkpt lat="48.58211" lon="6.1747">
        <ele>226.40039</ele>
        <time>2026-05-18T10:29:05+02:00</time>
      </trkpt>
      <trkpt lat="48.58215" lon="6.17465">
        <ele>226.2002</ele>
        <time>2026-05-18T10:29:06+02:00</time>
      </trkpt>
      <trkpt lat="48.58219" lon="6.17461">
        <ele>226.40039</ele>
        <time>2026-05-18T10:29:07+02:00</time>
      </trkpt>
      <trkpt lat="48.58223" lon="6.17456">
        <ele>226.40039</ele>
        <time>2026-05-18T10:29:08+02:00</time>
      </trkpt>
      <trkpt lat="48.58227" lon="6.17451">
        <ele>226.40039</ele>
        <time>2026-05-18T10:29:09+02:00</time>
      </trkpt>
      <trkpt lat="48.58231" lon="6.17447">
        <ele>226.2998</ele>
        <time>2026-05-18T10:29:10+02:00</time>
      </trkpt>
      <trkpt lat="48.58235" lon="6.17442">
        <ele>226.5</ele>
        <time>2026-05-18T10:29:11+02:00</time>
      </trkpt>
      <trkpt lat="48.58239" lon="6.17437">
        <ele>226.2002</ele>
        <time>2026-05-18T10:29:12+02:00</time>
      </trkpt>
      <trkpt lat="48.58243" lon="6.17432">
        <ele>226.2998</ele>
        <time>2026-05-18T10:29:13+02:00</time>
      </trkpt>
      <trkpt lat="48.58248" lon="6.17428">
        <ele>226.2002</ele>
        <time>2026-05-18T10:29:14+02:00</time>
      </trkpt>
      <trkpt lat="48.58252" lon="6.17423">
        <ele>226</ele>
        <time>2026-05-18T10:29:15+02:00</time>
      </trkpt>
      <trkpt lat="48.58256" lon="6.17418">
        <ele>226</ele>
        <time>2026-05-18T10:29:16+02:00</time>
      </trkpt>
      <trkpt lat="48.5826" lon="6.17413">
        <ele>225.90039</ele>
        <time>2026-05-18T10:29:17+02:00</time>
      </trkpt>
      <trkpt lat="48.58264" lon="6.17408">
        <ele>226.10059</ele>
        <time>2026-05-18T10:29:18+02:00</time>
      </trkpt>
      <trkpt lat="48.58268" lon="6.17404">
        <ele>225.7998</ele>
        <time>2026-05-18T10:29:19+02:00</time>
      </trkpt>
      <trkpt lat="48.58272" lon="6.17399">
        <ele>226.10059</ele>
        <time>2026-05-18T10:29:20+02:00</time>
      </trkpt>
      <trkpt lat="48.58276" lon="6.17395">
        <ele>226</ele>
        <time>2026-05-18T10:29:21+02:00</time>
      </trkpt>
      <trkpt lat="48.58281" lon="6.1739">
        <ele>226.2002</ele>
        <time>2026-05-18T10:29:22+02:00</time>
      </trkpt>
      <trkpt lat="48.58285" lon="6.17385">
        <ele>225.90039</ele>
        <time>2026-05-18T10:29:23+02:00</time>
      </trkpt>
      <trkpt lat="48.58289" lon="6.1738">
        <ele>225.7002</ele>
        <time>2026-05-18T10:29:24+02:00</time>
      </trkpt>
      <trkpt lat="48.58293" lon="6.17376">
        <ele>225.90039</ele>
        <time>2026-05-18T10:29:25+02:00</time>
      </trkpt>
      <trkpt lat="48.58297" lon="6.17371">
        <ele>225.7998</ele>
        <time>2026-05-18T10:29:26+02:00</time>
      </trkpt>
      <trkpt lat="48.58301" lon="6.17366">
        <ele>225.7998</ele>
        <time>2026-05-18T10:29:27+02:00</time>
      </trkpt>
      <trkpt lat="48.58305" lon="6.17362">
        <ele>225.7998</ele>
        <time>2026-05-18T10:29:28+02:00</time>
      </trkpt>
      <trkpt lat="48.58309" lon="6.17357">
        <ele>226.10059</ele>
        <time>2026-05-18T10:29:29+02:00</time>
      </trkpt>
      <trkpt lat="48.58313" lon="6.17352">
        <ele>225.7002</ele>
        <time>2026-05-18T10:29:30+02:00</time>
      </trkpt>
      <trkpt lat="48.58317" lon="6.17347">
        <ele>226</ele>
        <time>2026-05-18T10:29:31+02:00</time>
      </trkpt>
      <trkpt lat="48.5832" lon="6.17342">
        <ele>225.90039</ele>
        <time>2026-05-18T10:29:32+02:00</time>
      </trkpt>
      <trkpt lat="48.58325" lon="6.17337">
        <ele>225.5</ele>
        <time>2026-05-18T10:29:33+02:00</time>
      </trkpt>
      <trkpt lat="48.58329" lon="6.17333">
        <ele>225.7998</ele>
        <time>2026-05-18T10:29:34+02:00</time>
      </trkpt>
      <trkpt lat="48.58333" lon="6.17328">
        <ele>225.7998</ele>
        <time>2026-05-18T10:29:35+02:00</time>
      </trkpt>
      <trkpt lat="48.58337" lon="6.17323">
        <ele>226</ele>
        <time>2026-05-18T10:29:36+02:00</time>
      </trkpt>
      <trkpt lat="48.58341" lon="6.17318">
        <ele>225.60059</ele>
        <time>2026-05-18T10:29:37+02:00</time>
      </trkpt>
      <trkpt lat="48.58345" lon="6.17313">
        <ele>225.7998</ele>
        <time>2026-05-18T10:29:38+02:00</time>
      </trkpt>
      <trkpt lat="48.58349" lon="6.17308">
        <ele>225.60059</ele>
        <time>2026-05-18T10:29:39+02:00</time>
      </trkpt>
      <trkpt lat="48.58354" lon="6.17303">
        <ele>225.90039</ele>
        <time>2026-05-18T10:29:40+02:00</time>
      </trkpt>
      <trkpt lat="48.58358" lon="6.17298">
        <ele>225.5</ele>
        <time>2026-05-18T10:29:41+02:00</time>
      </trkpt>
      <trkpt lat="48.58362" lon="6.17293">
        <ele>225.5</ele>
        <time>2026-05-18T10:29:42+02:00</time>
      </trkpt>
      <trkpt lat="48.58366" lon="6.17288">
        <ele>225.7998</ele>
        <time>2026-05-18T10:29:43+02:00</time>
      </trkpt>
      <trkpt lat="48.5837" lon="6.17283">
        <ele>225.5</ele>
        <time>2026-05-18T10:29:44+02:00</time>
      </trkpt>
      <trkpt lat="48.58374" lon="6.17278">
        <ele>225.7998</ele>
        <time>2026-05-18T10:29:45+02:00</time>
      </trkpt>
      <trkpt lat="48.58378" lon="6.17273">
        <ele>225.7998</ele>
        <time>2026-05-18T10:29:46+02:00</time>
      </trkpt>
      <trkpt lat="48.58382" lon="6.17268">
        <ele>225.7998</ele>
        <time>2026-05-18T10:29:47+02:00</time>
      </trkpt>
      <trkpt lat="48.58386" lon="6.17263">
        <ele>225.7998</ele>
        <time>2026-05-18T10:29:48+02:00</time>
      </trkpt>
      <trkpt lat="48.5839" lon="6.17259">
        <ele>225.90039</ele>
        <time>2026-05-18T10:29:49+02:00</time>
      </trkpt>
      <trkpt lat="48.58394" lon="6.17254">
        <ele>226.2998</ele>
        <time>2026-05-18T10:29:50+02:00</time>
      </trkpt>
      <trkpt lat="48.58399" lon="6.1725">
        <ele>226</ele>
        <time>2026-05-18T10:29:51+02:00</time>
      </trkpt>
      <trkpt lat="48.58403" lon="6.17245">
        <ele>226.2998</ele>
        <time>2026-05-18T10:29:52+02:00</time>
      </trkpt>
      <trkpt lat="48.58407" lon="6.17241">
        <ele>226.5</ele>
        <time>2026-05-18T10:29:53+02:00</time>
      </trkpt>
      <trkpt lat="48.5841" lon="6.17236">
        <ele>226.5</ele>
        <time>2026-05-18T10:29:54+02:00</time>
      </trkpt>
      <trkpt lat="48.58415" lon="6.17231">
        <ele>226.60059</ele>
        <time>2026-05-18T10:29:55+02:00</time>
      </trkpt>
      <trkpt lat="48.58418" lon="6.17226">
        <ele>226.90039</ele>
        <time>2026-05-18T10:29:56+02:00</time>
      </trkpt>
      <trkpt lat="48.58422" lon="6.17222">
        <ele>227</ele>
        <time>2026-05-18T10:29:57+02:00</time>
      </trkpt>
      <trkpt lat="48.58426" lon="6.17217">
        <ele>226.7998</ele>
        <time>2026-05-18T10:29:58+02:00</time>
      </trkpt>
      <trkpt lat="48.5843" lon="6.17212">
        <ele>227</ele>
        <time>2026-05-18T10:29:59+02:00</time>
      </trkpt>
      <trkpt lat="48.58434" lon="6.17207">
        <ele>227</ele>
        <time>2026-05-18T10:30:00+02:00</time>
      </trkpt>
      <trkpt lat="48.58439" lon="6.17201">
        <ele>227.10059</ele>
        <time>2026-05-18T10:30:01+02:00</time>
      </trkpt>
      <trkpt lat="48.58443" lon="6.17196">
        <ele>227</ele>
        <time>2026-05-18T10:30:02+02:00</time>
      </trkpt>
      <trkpt lat="48.58447" lon="6.17191">
        <ele>227.10059</ele>
        <time>2026-05-18T10:30:03+02:00</time>
      </trkpt>
      <trkpt lat="48.58451" lon="6.17185">
        <ele>227.10059</ele>
        <time>2026-05-18T10:30:04+02:00</time>
      </trkpt>
      <trkpt lat="48.58455" lon="6.17181">
        <ele>227</ele>
        <time>2026-05-18T10:30:05+02:00</time>
      </trkpt>
      <trkpt lat="48.5846" lon="6.17176">
        <ele>227</ele>
        <time>2026-05-18T10:30:06+02:00</time>
      </trkpt>
      <trkpt lat="48.58464" lon="6.17171">
        <ele>227</ele>
        <time>2026-05-18T10:30:07+02:00</time>
      </trkpt>
      <trkpt lat="48.58468" lon="6.17167">
        <ele>227</ele>
        <time>2026-05-18T10:30:08+02:00</time>
      </trkpt>
      <trkpt lat="48.58472" lon="6.17162">
        <ele>226.90039</ele>
        <time>2026-05-18T10:30:09+02:00</time>
      </trkpt>
      <trkpt lat="48.58476" lon="6.17158">
        <ele>226.90039</ele>
        <time>2026-05-18T10:30:10+02:00</time>
      </trkpt>
      <trkpt lat="48.58481" lon="6.17154">
        <ele>226.7998</ele>
        <time>2026-05-18T10:30:11+02:00</time>
      </trkpt>
      <trkpt lat="48.58484" lon="6.1715">
        <ele>226.7998</ele>
        <time>2026-05-18T10:30:12+02:00</time>
      </trkpt>
      <trkpt lat="48.58489" lon="6.17145">
        <ele>226.7002</ele>
        <time>2026-05-18T10:30:13+02:00</time>
      </trkpt>
      <trkpt lat="48.58492" lon="6.17141">
        <ele>226.60059</ele>
        <time>2026-05-18T10:30:14+02:00</time>
      </trkpt>
      <trkpt lat="48.58497" lon="6.17137">
        <ele>226.60059</ele>
        <time>2026-05-18T10:30:15+02:00</time>
      </trkpt>
      <trkpt lat="48.58501" lon="6.17132">
        <ele>226.60059</ele>
        <time>2026-05-18T10:30:16+02:00</time>
      </trkpt>
      <trkpt lat="48.58505" lon="6.17128">
        <ele>226.5</ele>
        <time>2026-05-18T10:30:17+02:00</time>
      </trkpt>
      <trkpt lat="48.58509" lon="6.17123">
        <ele>226.5</ele>
        <time>2026-05-18T10:30:18+02:00</time>
      </trkpt>
      <trkpt lat="48.58513" lon="6.17118">
        <ele>226.40039</ele>
        <time>2026-05-18T10:30:19+02:00</time>
      </trkpt>
      <trkpt lat="48.58517" lon="6.17114">
        <ele>226.2998</ele>
        <time>2026-05-18T10:30:20+02:00</time>
      </trkpt>
      <trkpt lat="48.58521" lon="6.17109">
        <ele>226.40039</ele>
        <time>2026-05-18T10:30:21+02:00</time>
      </trkpt>
      <trkpt lat="48.58524" lon="6.17104">
        <ele>226.2998</ele>
        <time>2026-05-18T10:30:22+02:00</time>
      </trkpt>
      <trkpt lat="48.58528" lon="6.17099">
        <ele>226.2998</ele>
        <time>2026-05-18T10:30:23+02:00</time>
      </trkpt>
      <trkpt lat="48.58531" lon="6.17094">
        <ele>226.2998</ele>
        <time>2026-05-18T10:30:24+02:00</time>
      </trkpt>
      <trkpt lat="48.58535" lon="6.1709">
        <ele>226.2998</ele>
        <time>2026-05-18T10:30:25+02:00</time>
      </trkpt>
      <trkpt lat="48.58536" lon="6.17087">
        <ele>226.2002</ele>
        <time>2026-05-18T10:30:26+02:00</time>
      </trkpt>
      <trkpt lat="48.58542" lon="6.1708">
        <ele>226.2998</ele>
        <time>2026-05-18T10:30:27+02:00</time>
      </trkpt>
      <trkpt lat="48.58545" lon="6.17076">
        <ele>226.2002</ele>
        <time>2026-05-18T10:30:28+02:00</time>
      </trkpt>
      <trkpt lat="48.58549" lon="6.17071">
        <ele>226.2002</ele>
        <time>2026-05-18T10:30:29+02:00</time>
      </trkpt>
      <trkpt lat="48.58553" lon="6.17067">
        <ele>226.2002</ele>
        <time>2026-05-18T10:30:30+02:00</time>
      </trkpt>
      <trkpt lat="48.58557" lon="6.17062">
        <ele>226.2002</ele>
        <time>2026-05-18T10:30:31+02:00</time>
      </trkpt>
      <trkpt lat="48.58561" lon="6.17057">
        <ele>226.2002</ele>
        <time>2026-05-18T10:30:32+02:00</time>
      </trkpt>
      <trkpt lat="48.58566" lon="6.17052">
        <ele>226.2002</ele>
        <time>2026-05-18T10:30:33+02:00</time>
      </trkpt>
      <trkpt lat="48.5857" lon="6.17047">
        <ele>226.2002</ele>
        <time>2026-05-18T10:30:34+02:00</time>
      </trkpt>
      <trkpt lat="48.58574" lon="6.17043">
        <ele>226.10059</ele>
        <time>2026-05-18T10:30:35+02:00</time>
      </trkpt>
      <trkpt lat="48.58579" lon="6.17038">
        <ele>226.2002</ele>
        <time>2026-05-18T10:30:36+02:00</time>
      </trkpt>
      <trkpt lat="48.58584" lon="6.17033">
        <ele>226.10059</ele>
        <time>2026-05-18T10:30:37+02:00</time>
      </trkpt>
      <trkpt lat="48.58589" lon="6.17028">
        <ele>226.10059</ele>
        <time>2026-05-18T10:30:38+02:00</time>
      </trkpt>
      <trkpt lat="48.58593" lon="6.17023">
        <ele>226.10059</ele>
        <time>2026-05-18T10:30:39+02:00</time>
      </trkpt>
      <trkpt lat="48.58598" lon="6.17017">
        <ele>226</ele>
        <time>2026-05-18T10:30:40+02:00</time>
      </trkpt>
      <trkpt lat="48.58602" lon="6.17013">
        <ele>226</ele>
        <time>2026-05-18T10:30:41+02:00</time>
      </trkpt>
      <trkpt lat="48.58606" lon="6.17008">
        <ele>226</ele>
        <time>2026-05-18T10:30:42+02:00</time>
      </trkpt>
      <trkpt lat="48.58611" lon="6.17003">
        <ele>226</ele>
        <time>2026-05-18T10:30:43+02:00</time>
      </trkpt>
      <trkpt lat="48.58615" lon="6.16998">
        <ele>226</ele>
        <time>2026-05-18T10:30:44+02:00</time>
      </trkpt>
      <trkpt lat="48.5862" lon="6.16993">
        <ele>225.90039</ele>
        <time>2026-05-18T10:30:45+02:00</time>
      </trkpt>
      <trkpt lat="48.58624" lon="6.16989">
        <ele>225.90039</ele>
        <time>2026-05-18T10:30:46+02:00</time>
      </trkpt>
      <trkpt lat="48.58629" lon="6.16985">
        <ele>225.90039</ele>
        <time>2026-05-18T10:30:47+02:00</time>
      </trkpt>
      <trkpt lat="48.58633" lon="6.1698">
        <ele>225.90039</ele>
        <time>2026-05-18T10:30:48+02:00</time>
      </trkpt>
      <trkpt lat="48.58638" lon="6.16976">
        <ele>226</ele>
        <time>2026-05-18T10:30:49+02:00</time>
      </trkpt>
      <trkpt lat="48.58642" lon="6.16971">
        <ele>226</ele>
        <time>2026-05-18T10:30:50+02:00</time>
      </trkpt>
      <trkpt lat="48.58646" lon="6.16966">
        <ele>226.10059</ele>
        <time>2026-05-18T10:30:51+02:00</time>
      </trkpt>
      <trkpt lat="48.5865" lon="6.16961">
        <ele>226.10059</ele>
        <time>2026-05-18T10:30:52+02:00</time>
      </trkpt>
      <trkpt lat="48.58653" lon="6.16959">
        <ele>226.10059</ele>
        <time>2026-05-18T10:30:53+02:00</time>
      </trkpt>
      <trkpt lat="48.58659" lon="6.16951">
        <ele>226.2002</ele>
        <time>2026-05-18T10:30:54+02:00</time>
      </trkpt>
      <trkpt lat="48.58663" lon="6.16946">
        <ele>226.2002</ele>
        <time>2026-05-18T10:30:55+02:00</time>
      </trkpt>
      <trkpt lat="48.58667" lon="6.16941">
        <ele>226.2998</ele>
        <time>2026-05-18T10:30:56+02:00</time>
      </trkpt>
      <trkpt lat="48.58672" lon="6.16936">
        <ele>226.40039</ele>
        <time>2026-05-18T10:30:57+02:00</time>
      </trkpt>
      <trkpt lat="48.58676" lon="6.16931">
        <ele>226.5</ele>
        <time>2026-05-18T10:30:58+02:00</time>
      </trkpt>
      <trkpt lat="48.5868" lon="6.16926">
        <ele>226.5</ele>
        <time>2026-05-18T10:30:59+02:00</time>
      </trkpt>
      <trkpt lat="48.58685" lon="6.16922">
        <ele>226.60059</ele>
        <time>2026-05-18T10:31:00+02:00</time>
      </trkpt>
      <trkpt lat="48.58689" lon="6.16917">
        <ele>226.60059</ele>
        <time>2026-05-18T10:31:01+02:00</time>
      </trkpt>
      <trkpt lat="48.58693" lon="6.16912">
        <ele>226.60059</ele>
        <time>2026-05-18T10:31:02+02:00</time>
      </trkpt>
      <trkpt lat="48.58697" lon="6.16908">
        <ele>226.60059</ele>
        <time>2026-05-18T10:31:03+02:00</time>
      </trkpt>
      <trkpt lat="48.58701" lon="6.16902">
        <ele>226.60059</ele>
        <time>2026-05-18T10:31:04+02:00</time>
      </trkpt>
      <trkpt lat="48.58705" lon="6.16897">
        <ele>226.60059</ele>
        <time>2026-05-18T10:31:05+02:00</time>
      </trkpt>
      <trkpt lat="48.58708" lon="6.16891">
        <ele>226.60059</ele>
        <time>2026-05-18T10:31:06+02:00</time>
      </trkpt>
      <trkpt lat="48.58711" lon="6.16885">
        <ele>226.60059</ele>
        <time>2026-05-18T10:31:07+02:00</time>
      </trkpt>
      <trkpt lat="48.58713" lon="6.1688">
        <ele>226.5</ele>
        <time>2026-05-18T10:31:08+02:00</time>
      </trkpt>
      <trkpt lat="48.58716" lon="6.16874">
        <ele>226.5</ele>
        <time>2026-05-18T10:31:09+02:00</time>
      </trkpt>
      <trkpt lat="48.58719" lon="6.16869">
        <ele>226.5</ele>
        <time>2026-05-18T10:31:10+02:00</time>
      </trkpt>
      <trkpt lat="48.58722" lon="6.16865">
        <ele>226.5</ele>
        <time>2026-05-18T10:31:11+02:00</time>
      </trkpt>
      <trkpt lat="48.58725" lon="6.16862">
        <ele>226.5</ele>
        <time>2026-05-18T10:31:12+02:00</time>
      </trkpt>
      <trkpt lat="48.58727" lon="6.16859">
        <ele>226.5</ele>
        <time>2026-05-18T10:31:13+02:00</time>
      </trkpt>
      <trkpt lat="48.5873" lon="6.16856">
        <ele>226.60059</ele>
        <time>2026-05-18T10:31:14+02:00</time>
      </trkpt>
      <trkpt lat="48.58732" lon="6.16853">
        <ele>226.60059</ele>
        <time>2026-05-18T10:31:15+02:00</time>
      </trkpt>
      <trkpt lat="48.58735" lon="6.1685">
        <ele>226.60059</ele>
        <time>2026-05-18T10:31:16+02:00</time>
      </trkpt>
      <trkpt lat="48.58738" lon="6.16846">
        <ele>226.60059</ele>
        <time>2026-05-18T10:31:17+02:00</time>
      </trkpt>
      <trkpt lat="48.58742" lon="6.16841">
        <ele>226.7002</ele>
        <time>2026-05-18T10:31:18+02:00</time>
      </trkpt>
      <trkpt lat="48.58745" lon="6.16834">
        <ele>226.60059</ele>
        <time>2026-05-18T10:31:19+02:00</time>
      </trkpt>
      <trkpt lat="48.58748" lon="6.16828">
        <ele>226.60059</ele>
        <time>2026-05-18T10:31:20+02:00</time>
      </trkpt>
      <trkpt lat="48.58752" lon="6.16821">
        <ele>226.60059</ele>
        <time>2026-05-18T10:31:21+02:00</time>
      </trkpt>
      <trkpt lat="48.58756" lon="6.16814">
        <ele>226.60059</ele>
        <time>2026-05-18T10:31:22+02:00</time>
      </trkpt>
      <trkpt lat="48.58761" lon="6.16807">
        <ele>226.5</ele>
        <time>2026-05-18T10:31:23+02:00</time>
      </trkpt>
      <trkpt lat="48.58764" lon="6.168">
        <ele>226.60059</ele>
        <time>2026-05-18T10:31:24+02:00</time>
      </trkpt>
      <trkpt lat="48.58769" lon="6.16793">
        <ele>226.60059</ele>
        <time>2026-05-18T10:31:25+02:00</time>
      </trkpt>
      <trkpt lat="48.58772" lon="6.16786">
        <ele>226.40039</ele>
        <time>2026-05-18T10:31:26+02:00</time>
      </trkpt>
      <trkpt lat="48.58777" lon="6.16779">
        <ele>226.40039</ele>
        <time>2026-05-18T10:31:27+02:00</time>
      </trkpt>
      <trkpt lat="48.5878" lon="6.16773">
        <ele>226.60059</ele>
        <time>2026-05-18T10:31:28+02:00</time>
      </trkpt>
      <trkpt lat="48.58782" lon="6.1677">
        <ele>226.40039</ele>
        <time>2026-05-18T10:31:29+02:00</time>
      </trkpt>
      <trkpt lat="48.58788" lon="6.1676">
        <ele>226.40039</ele>
        <time>2026-05-18T10:31:30+02:00</time>
      </trkpt>
      <trkpt lat="48.58792" lon="6.16754">
        <ele>226.60059</ele>
        <time>2026-05-18T10:31:31+02:00</time>
      </trkpt>
      <trkpt lat="48.58796" lon="6.16748">
        <ele>226.5</ele>
        <time>2026-05-18T10:31:32+02:00</time>
      </trkpt>
      <trkpt lat="48.58799" lon="6.16742">
        <ele>226.40039</ele>
        <time>2026-05-18T10:31:33+02:00</time>
      </trkpt>
      <trkpt lat="48.58803" lon="6.16737">
        <ele>226.7002</ele>
        <time>2026-05-18T10:31:34+02:00</time>
      </trkpt>
      <trkpt lat="48.58807" lon="6.16731">
        <ele>226.5</ele>
        <time>2026-05-18T10:31:35+02:00</time>
      </trkpt>
      <trkpt lat="48.58808" lon="6.16728">
        <ele>226.7002</ele>
        <time>2026-05-18T10:31:36+02:00</time>
      </trkpt>
      <trkpt lat="48.58814" lon="6.16721">
        <ele>226.7998</ele>
        <time>2026-05-18T10:31:37+02:00</time>
      </trkpt>
      <trkpt lat="48.58818" lon="6.16716">
        <ele>226.60059</ele>
        <time>2026-05-18T10:31:38+02:00</time>
      </trkpt>
      <trkpt lat="48.58822" lon="6.16711">
        <ele>226.90039</ele>
        <time>2026-05-18T10:31:39+02:00</time>
      </trkpt>
      <trkpt lat="48.58826" lon="6.16707">
        <ele>226.7998</ele>
        <time>2026-05-18T10:31:40+02:00</time>
      </trkpt>
      <trkpt lat="48.5883" lon="6.16703">
        <ele>226.7998</ele>
        <time>2026-05-18T10:31:41+02:00</time>
      </trkpt>
      <trkpt lat="48.58835" lon="6.16699">
        <ele>226.60059</ele>
        <time>2026-05-18T10:31:42+02:00</time>
      </trkpt>
      <trkpt lat="48.5884" lon="6.16696">
        <ele>226.7998</ele>
        <time>2026-05-18T10:31:43+02:00</time>
      </trkpt>
      <trkpt lat="48.58844" lon="6.16692">
        <ele>226.7002</ele>
        <time>2026-05-18T10:31:44+02:00</time>
      </trkpt>
      <trkpt lat="48.58849" lon="6.16689">
        <ele>227</ele>
        <time>2026-05-18T10:31:45+02:00</time>
      </trkpt>
      <trkpt lat="48.58854" lon="6.16686">
        <ele>227.2002</ele>
        <time>2026-05-18T10:31:46+02:00</time>
      </trkpt>
      <trkpt lat="48.58858" lon="6.16683">
        <ele>226.90039</ele>
        <time>2026-05-18T10:31:47+02:00</time>
      </trkpt>
      <trkpt lat="48.58863" lon="6.16679">
        <ele>227</ele>
        <time>2026-05-18T10:31:48+02:00</time>
      </trkpt>
      <trkpt lat="48.58867" lon="6.16675">
        <ele>226.7998</ele>
        <time>2026-05-18T10:31:49+02:00</time>
      </trkpt>
      <trkpt lat="48.58872" lon="6.16671">
        <ele>226.7002</ele>
        <time>2026-05-18T10:31:50+02:00</time>
      </trkpt>
      <trkpt lat="48.58876" lon="6.16666">
        <ele>226.5</ele>
        <time>2026-05-18T10:31:51+02:00</time>
      </trkpt>
      <trkpt lat="48.5888" lon="6.1666">
        <ele>226.5</ele>
        <time>2026-05-18T10:31:52+02:00</time>
      </trkpt>
      <trkpt lat="48.58883" lon="6.16654">
        <ele>226.2998</ele>
        <time>2026-05-18T10:31:53+02:00</time>
      </trkpt>
      <trkpt lat="48.58886" lon="6.16647">
        <ele>226.2002</ele>
        <time>2026-05-18T10:31:54+02:00</time>
      </trkpt>
      <trkpt lat="48.5889" lon="6.16641">
        <ele>226</ele>
        <time>2026-05-18T10:31:55+02:00</time>
      </trkpt>
      <trkpt lat="48.58894" lon="6.16634">
        <ele>226</ele>
        <time>2026-05-18T10:31:56+02:00</time>
      </trkpt>
      <trkpt lat="48.58898" lon="6.16627">
        <ele>225.7998</ele>
        <time>2026-05-18T10:31:57+02:00</time>
      </trkpt>
      <trkpt lat="48.58902" lon="6.1662">
        <ele>225.60059</ele>
        <time>2026-05-18T10:31:58+02:00</time>
      </trkpt>
      <trkpt lat="48.58906" lon="6.16614">
        <ele>225.60059</ele>
        <time>2026-05-18T10:31:59+02:00</time>
      </trkpt>
      <trkpt lat="48.58909" lon="6.16607">
        <ele>225.40039</ele>
        <time>2026-05-18T10:32:00+02:00</time>
      </trkpt>
      <trkpt lat="48.58913" lon="6.166">
        <ele>225.7002</ele>
        <time>2026-05-18T10:32:01+02:00</time>
      </trkpt>
      <trkpt lat="48.58917" lon="6.16593">
        <ele>225.7002</ele>
        <time>2026-05-18T10:32:02+02:00</time>
      </trkpt>
      <trkpt lat="48.5892" lon="6.16586">
        <ele>225.40039</ele>
        <time>2026-05-18T10:32:03+02:00</time>
      </trkpt>
      <trkpt lat="48.58925" lon="6.16579">
        <ele>225.2998</ele>
        <time>2026-05-18T10:32:04+02:00</time>
      </trkpt>
      <trkpt lat="48.58929" lon="6.16573">
        <ele>225.40039</ele>
        <time>2026-05-18T10:32:05+02:00</time>
      </trkpt>
      <trkpt lat="48.58933" lon="6.16566">
        <ele>225.7002</ele>
        <time>2026-05-18T10:32:06+02:00</time>
      </trkpt>
      <trkpt lat="48.58937" lon="6.16561">
        <ele>225.40039</ele>
        <time>2026-05-18T10:32:07+02:00</time>
      </trkpt>
      <trkpt lat="48.58941" lon="6.16555">
        <ele>225.5</ele>
        <time>2026-05-18T10:32:08+02:00</time>
      </trkpt>
      <trkpt lat="48.58946" lon="6.1655">
        <ele>225.7998</ele>
        <time>2026-05-18T10:32:09+02:00</time>
      </trkpt>
      <trkpt lat="48.58951" lon="6.16544">
        <ele>225.7002</ele>
        <time>2026-05-18T10:32:10+02:00</time>
      </trkpt>
      <trkpt lat="48.58955" lon="6.16538">
        <ele>225.2998</ele>
        <time>2026-05-18T10:32:11+02:00</time>
      </trkpt>
      <trkpt lat="48.58959" lon="6.16533">
        <ele>225.60059</ele>
        <time>2026-05-18T10:32:12+02:00</time>
      </trkpt>
      <trkpt lat="48.58963" lon="6.16528">
        <ele>225.60059</ele>
        <time>2026-05-18T10:32:13+02:00</time>
      </trkpt>
      <trkpt lat="48.58967" lon="6.16522">
        <ele>226</ele>
        <time>2026-05-18T10:32:14+02:00</time>
      </trkpt>
      <trkpt lat="48.58972" lon="6.16516">
        <ele>225.7998</ele>
        <time>2026-05-18T10:32:15+02:00</time>
      </trkpt>
      <trkpt lat="48.58976" lon="6.16511">
        <ele>225.7998</ele>
        <time>2026-05-18T10:32:16+02:00</time>
      </trkpt>
      <trkpt lat="48.5898" lon="6.16505">
        <ele>226.10059</ele>
        <time>2026-05-18T10:32:17+02:00</time>
      </trkpt>
      <trkpt lat="48.58984" lon="6.16499">
        <ele>226</ele>
        <time>2026-05-18T10:32:18+02:00</time>
      </trkpt>
      <trkpt lat="48.58988" lon="6.16494">
        <ele>225.7002</ele>
        <time>2026-05-18T10:32:19+02:00</time>
      </trkpt>
      <trkpt lat="48.58993" lon="6.16488">
        <ele>226</ele>
        <time>2026-05-18T10:32:20+02:00</time>
      </trkpt>
      <trkpt lat="48.58997" lon="6.16482">
        <ele>226.10059</ele>
        <time>2026-05-18T10:32:21+02:00</time>
      </trkpt>
      <trkpt lat="48.59001" lon="6.16476">
        <ele>226.10059</ele>
        <time>2026-05-18T10:32:22+02:00</time>
      </trkpt>
      <trkpt lat="48.59005" lon="6.16471">
        <ele>226.10059</ele>
        <time>2026-05-18T10:32:23+02:00</time>
      </trkpt>
      <trkpt lat="48.5901" lon="6.16465">
        <ele>225.7998</ele>
        <time>2026-05-18T10:32:24+02:00</time>
      </trkpt>
      <trkpt lat="48.59014" lon="6.16459">
        <ele>225.5</ele>
        <time>2026-05-18T10:32:25+02:00</time>
      </trkpt>
      <trkpt lat="48.59018" lon="6.16454">
        <ele>225.7998</ele>
        <time>2026-05-18T10:32:26+02:00</time>
      </trkpt>
      <trkpt lat="48.59023" lon="6.16448">
        <ele>225.40039</ele>
        <time>2026-05-18T10:32:27+02:00</time>
      </trkpt>
      <trkpt lat="48.59027" lon="6.16442">
        <ele>225.40039</ele>
        <time>2026-05-18T10:32:28+02:00</time>
      </trkpt>
      <trkpt lat="48.59031" lon="6.16436">
        <ele>225.40039</ele>
        <time>2026-05-18T10:32:29+02:00</time>
      </trkpt>
      <trkpt lat="48.59036" lon="6.1643">
        <ele>225.7002</ele>
        <time>2026-05-18T10:32:30+02:00</time>
      </trkpt>
      <trkpt lat="48.5904" lon="6.16425">
        <ele>225.2998</ele>
        <time>2026-05-18T10:32:31+02:00</time>
      </trkpt>
      <trkpt lat="48.59044" lon="6.16419">
        <ele>225.60059</ele>
        <time>2026-05-18T10:32:32+02:00</time>
      </trkpt>
      <trkpt lat="48.59049" lon="6.16413">
        <ele>225.5</ele>
        <time>2026-05-18T10:32:33+02:00</time>
      </trkpt>
      <trkpt lat="48.59053" lon="6.16407">
        <ele>225.60059</ele>
        <time>2026-05-18T10:32:34+02:00</time>
      </trkpt>
      <trkpt lat="48.59057" lon="6.16401">
        <ele>225.10059</ele>
        <time>2026-05-18T10:32:35+02:00</time>
      </trkpt>
      <trkpt lat="48.59062" lon="6.16396">
        <ele>225.5</ele>
        <time>2026-05-18T10:32:36+02:00</time>
      </trkpt>
      <trkpt lat="48.59066" lon="6.1639">
        <ele>225.2002</ele>
        <time>2026-05-18T10:32:37+02:00</time>
      </trkpt>
      <trkpt lat="48.5907" lon="6.16384">
        <ele>225.10059</ele>
        <time>2026-05-18T10:32:38+02:00</time>
      </trkpt>
      <trkpt lat="48.59074" lon="6.16379">
        <ele>225.10059</ele>
        <time>2026-05-18T10:32:39+02:00</time>
      </trkpt>
      <trkpt lat="48.59079" lon="6.16374">
        <ele>225</ele>
        <time>2026-05-18T10:32:40+02:00</time>
      </trkpt>
      <trkpt lat="48.59081" lon="6.16371">
        <ele>225.2998</ele>
        <time>2026-05-18T10:32:41+02:00</time>
      </trkpt>
      <trkpt lat="48.59087" lon="6.16363">
        <ele>225.10059</ele>
        <time>2026-05-18T10:32:42+02:00</time>
      </trkpt>
      <trkpt lat="48.59091" lon="6.16357">
        <ele>224.60059</ele>
        <time>2026-05-18T10:32:43+02:00</time>
      </trkpt>
      <trkpt lat="48.59096" lon="6.16352">
        <ele>224.90039</ele>
        <time>2026-05-18T10:32:44+02:00</time>
      </trkpt>
      <trkpt lat="48.591" lon="6.16347">
        <ele>224.60059</ele>
        <time>2026-05-18T10:32:45+02:00</time>
      </trkpt>
      <trkpt lat="48.59105" lon="6.16342">
        <ele>224.90039</ele>
        <time>2026-05-18T10:32:46+02:00</time>
      </trkpt>
      <trkpt lat="48.59109" lon="6.16337">
        <ele>224.7998</ele>
        <time>2026-05-18T10:32:47+02:00</time>
      </trkpt>
      <trkpt lat="48.59114" lon="6.16332">
        <ele>224.5</ele>
        <time>2026-05-18T10:32:48+02:00</time>
      </trkpt>
      <trkpt lat="48.59118" lon="6.16327">
        <ele>224.7998</ele>
        <time>2026-05-18T10:32:49+02:00</time>
      </trkpt>
      <trkpt lat="48.59123" lon="6.16322">
        <ele>224.7998</ele>
        <time>2026-05-18T10:32:50+02:00</time>
      </trkpt>
      <trkpt lat="48.59125" lon="6.16319">
        <ele>224.7998</ele>
        <time>2026-05-18T10:32:51+02:00</time>
      </trkpt>
      <trkpt lat="48.59133" lon="6.16311">
        <ele>224.90039</ele>
        <time>2026-05-18T10:32:52+02:00</time>
      </trkpt>
      <trkpt lat="48.59137" lon="6.16306">
        <ele>224.60059</ele>
        <time>2026-05-18T10:32:53+02:00</time>
      </trkpt>
      <trkpt lat="48.59142" lon="6.16301">
        <ele>224.90039</ele>
        <time>2026-05-18T10:32:54+02:00</time>
      </trkpt>
      <trkpt lat="48.59147" lon="6.16295">
        <ele>225</ele>
        <time>2026-05-18T10:32:55+02:00</time>
      </trkpt>
      <trkpt lat="48.59152" lon="6.1629">
        <ele>224.90039</ele>
        <time>2026-05-18T10:32:56+02:00</time>
      </trkpt>
      <trkpt lat="48.59156" lon="6.16285">
        <ele>225.2002</ele>
        <time>2026-05-18T10:32:57+02:00</time>
      </trkpt>
      <trkpt lat="48.5916" lon="6.1628">
        <ele>225</ele>
        <time>2026-05-18T10:32:58+02:00</time>
      </trkpt>
      <trkpt lat="48.59165" lon="6.16275">
        <ele>225</ele>
        <time>2026-05-18T10:32:59+02:00</time>
      </trkpt>
      <trkpt lat="48.5917" lon="6.1627">
        <ele>224.90039</ele>
        <time>2026-05-18T10:33:00+02:00</time>
      </trkpt>
      <trkpt lat="48.59174" lon="6.16265">
        <ele>225.2002</ele>
        <time>2026-05-18T10:33:01+02:00</time>
      </trkpt>
      <trkpt lat="48.59179" lon="6.1626">
        <ele>225.2998</ele>
        <time>2026-05-18T10:33:02+02:00</time>
      </trkpt>
      <trkpt lat="48.59183" lon="6.16255">
        <ele>225.40039</ele>
        <time>2026-05-18T10:33:03+02:00</time>
      </trkpt>
      <trkpt lat="48.59187" lon="6.1625">
        <ele>225.40039</ele>
        <time>2026-05-18T10:33:04+02:00</time>
      </trkpt>
      <trkpt lat="48.59192" lon="6.16244">
        <ele>225.2998</ele>
        <time>2026-05-18T10:33:05+02:00</time>
      </trkpt>
      <trkpt lat="48.59196" lon="6.16239">
        <ele>225.60059</ele>
        <time>2026-05-18T10:33:06+02:00</time>
      </trkpt>
      <trkpt lat="48.592" lon="6.16234">
        <ele>225.7002</ele>
        <time>2026-05-18T10:33:07+02:00</time>
      </trkpt>
      <trkpt lat="48.59205" lon="6.16229">
        <ele>225.2998</ele>
        <time>2026-05-18T10:33:08+02:00</time>
      </trkpt>
      <trkpt lat="48.5921" lon="6.16224">
        <ele>225.7998</ele>
        <time>2026-05-18T10:33:09+02:00</time>
      </trkpt>
      <trkpt lat="48.59214" lon="6.16219">
        <ele>225.7998</ele>
        <time>2026-05-18T10:33:10+02:00</time>
      </trkpt>
      <trkpt lat="48.59218" lon="6.16214">
        <ele>226.10059</ele>
        <time>2026-05-18T10:33:11+02:00</time>
      </trkpt>
      <trkpt lat="48.59223" lon="6.16209">
        <ele>226</ele>
        <time>2026-05-18T10:33:12+02:00</time>
      </trkpt>
      <trkpt lat="48.59227" lon="6.16204">
        <ele>225.60059</ele>
        <time>2026-05-18T10:33:13+02:00</time>
      </trkpt>
      <trkpt lat="48.59232" lon="6.16199">
        <ele>226</ele>
        <time>2026-05-18T10:33:14+02:00</time>
      </trkpt>
      <trkpt lat="48.59236" lon="6.16194">
        <ele>226.10059</ele>
        <time>2026-05-18T10:33:15+02:00</time>
      </trkpt>
      <trkpt lat="48.5924" lon="6.16189">
        <ele>226.60059</ele>
        <time>2026-05-18T10:33:16+02:00</time>
      </trkpt>
      <trkpt lat="48.59245" lon="6.16184">
        <ele>226.5</ele>
        <time>2026-05-18T10:33:17+02:00</time>
      </trkpt>
      <trkpt lat="48.59249" lon="6.16179">
        <ele>226.5</ele>
        <time>2026-05-18T10:33:18+02:00</time>
      </trkpt>
      <trkpt lat="48.59253" lon="6.16173">
        <ele>226.2002</ele>
        <time>2026-05-18T10:33:19+02:00</time>
      </trkpt>
      <trkpt lat="48.59258" lon="6.16168">
        <ele>226.10059</ele>
        <time>2026-05-18T10:33:20+02:00</time>
      </trkpt>
      <trkpt lat="48.59263" lon="6.16163">
        <ele>226.5</ele>
        <time>2026-05-18T10:33:21+02:00</time>
      </trkpt>
      <trkpt lat="48.59267" lon="6.16158">
        <ele>226.10059</ele>
        <time>2026-05-18T10:33:22+02:00</time>
      </trkpt>
      <trkpt lat="48.59271" lon="6.16153">
        <ele>226.5</ele>
        <time>2026-05-18T10:33:23+02:00</time>
      </trkpt>
      <trkpt lat="48.59276" lon="6.16148">
        <ele>226.5</ele>
        <time>2026-05-18T10:33:24+02:00</time>
      </trkpt>
      <trkpt lat="48.5928" lon="6.16143">
        <ele>226.2998</ele>
        <time>2026-05-18T10:33:25+02:00</time>
      </trkpt>
      <trkpt lat="48.59284" lon="6.16138">
        <ele>226.2998</ele>
        <time>2026-05-18T10:33:26+02:00</time>
      </trkpt>
      <trkpt lat="48.59289" lon="6.16132">
        <ele>226.10059</ele>
        <time>2026-05-18T10:33:27+02:00</time>
      </trkpt>
      <trkpt lat="48.5929" lon="6.1613">
        <ele>226.10059</ele>
        <time>2026-05-18T10:33:28+02:00</time>
      </trkpt>
      <trkpt lat="48.59297" lon="6.16121">
        <ele>226.40039</ele>
        <time>2026-05-18T10:33:29+02:00</time>
      </trkpt>
      <trkpt lat="48.59301" lon="6.16115">
        <ele>225.90039</ele>
        <time>2026-05-18T10:33:30+02:00</time>
      </trkpt>
      <trkpt lat="48.59305" lon="6.1611">
        <ele>226.2002</ele>
        <time>2026-05-18T10:33:31+02:00</time>
      </trkpt>
      <trkpt lat="48.5931" lon="6.16104">
        <ele>225.90039</ele>
        <time>2026-05-18T10:33:32+02:00</time>
      </trkpt>
      <trkpt lat="48.59314" lon="6.161">
        <ele>225.5</ele>
        <time>2026-05-18T10:33:33+02:00</time>
      </trkpt>
      <trkpt lat="48.59319" lon="6.16095">
        <ele>225.7998</ele>
        <time>2026-05-18T10:33:34+02:00</time>
      </trkpt>
      <trkpt lat="48.59321" lon="6.16092">
        <ele>225.2002</ele>
        <time>2026-05-18T10:33:35+02:00</time>
      </trkpt>
      <trkpt lat="48.59327" lon="6.16084">
        <ele>225.10059</ele>
        <time>2026-05-18T10:33:36+02:00</time>
      </trkpt>
      <trkpt lat="48.59332" lon="6.16079">
        <ele>225.40039</ele>
        <time>2026-05-18T10:33:37+02:00</time>
      </trkpt>
      <trkpt lat="48.59337" lon="6.16074">
        <ele>225.2002</ele>
        <time>2026-05-18T10:33:38+02:00</time>
      </trkpt>
      <trkpt lat="48.59341" lon="6.16069">
        <ele>225.2002</ele>
        <time>2026-05-18T10:33:39+02:00</time>
      </trkpt>
      <trkpt lat="48.59345" lon="6.16064">
        <ele>225</ele>
        <time>2026-05-18T10:33:40+02:00</time>
      </trkpt>
      <trkpt lat="48.5935" lon="6.16058">
        <ele>224.90039</ele>
        <time>2026-05-18T10:33:41+02:00</time>
      </trkpt>
      <trkpt lat="48.59354" lon="6.16053">
        <ele>225.2002</ele>
        <time>2026-05-18T10:33:42+02:00</time>
      </trkpt>
      <trkpt lat="48.59358" lon="6.16048">
        <ele>224.7998</ele>
        <time>2026-05-18T10:33:43+02:00</time>
      </trkpt>
      <trkpt lat="48.59363" lon="6.16043">
        <ele>225.10059</ele>
        <time>2026-05-18T10:33:44+02:00</time>
      </trkpt>
      <trkpt lat="48.59365" lon="6.16041">
        <ele>224.90039</ele>
        <time>2026-05-18T10:33:45+02:00</time>
      </trkpt>
      <trkpt lat="48.59371" lon="6.16033">
        <ele>225.10059</ele>
        <time>2026-05-18T10:33:46+02:00</time>
      </trkpt>
      <trkpt lat="48.59376" lon="6.16029">
        <ele>225</ele>
        <time>2026-05-18T10:33:47+02:00</time>
      </trkpt>
      <trkpt lat="48.5938" lon="6.16024">
        <ele>224.60059</ele>
        <time>2026-05-18T10:33:48+02:00</time>
      </trkpt>
      <trkpt lat="48.59384" lon="6.16019">
        <ele>224.7998</ele>
        <time>2026-05-18T10:33:49+02:00</time>
      </trkpt>
      <trkpt lat="48.59388" lon="6.16014">
        <ele>224.7002</ele>
        <time>2026-05-18T10:33:50+02:00</time>
      </trkpt>
      <trkpt lat="48.59392" lon="6.16009">
        <ele>224.7002</ele>
        <time>2026-05-18T10:33:51+02:00</time>
      </trkpt>
      <trkpt lat="48.59395" lon="6.16007">
        <ele>224.7998</ele>
        <time>2026-05-18T10:33:52+02:00</time>
      </trkpt>
      <trkpt lat="48.59401" lon="6.15999">
        <ele>224.60059</ele>
        <time>2026-05-18T10:33:53+02:00</time>
      </trkpt>
      <trkpt lat="48.59406" lon="6.15994">
        <ele>224.40039</ele>
        <time>2026-05-18T10:33:54+02:00</time>
      </trkpt>
      <trkpt lat="48.59411" lon="6.15988">
        <ele>224.10059</ele>
        <time>2026-05-18T10:33:55+02:00</time>
      </trkpt>
      <trkpt lat="48.59415" lon="6.15983">
        <ele>224.10059</ele>
        <time>2026-05-18T10:33:56+02:00</time>
      </trkpt>
      <trkpt lat="48.59419" lon="6.15978">
        <ele>223.7998</ele>
        <time>2026-05-18T10:33:57+02:00</time>
      </trkpt>
      <trkpt lat="48.59424" lon="6.15973">
        <ele>223.7998</ele>
        <time>2026-05-18T10:33:58+02:00</time>
      </trkpt>
      <trkpt lat="48.59429" lon="6.15967">
        <ele>223.5</ele>
        <time>2026-05-18T10:33:59+02:00</time>
      </trkpt>
      <trkpt lat="48.59433" lon="6.15962">
        <ele>223.40039</ele>
        <time>2026-05-18T10:34:00+02:00</time>
      </trkpt>
      <trkpt lat="48.59437" lon="6.15957">
        <ele>223.40039</ele>
        <time>2026-05-18T10:34:01+02:00</time>
      </trkpt>
      <trkpt lat="48.59442" lon="6.15952">
        <ele>223.2998</ele>
        <time>2026-05-18T10:34:02+02:00</time>
      </trkpt>
      <trkpt lat="48.59446" lon="6.15947">
        <ele>223.2002</ele>
        <time>2026-05-18T10:34:03+02:00</time>
      </trkpt>
      <trkpt lat="48.5945" lon="6.15941">
        <ele>222.90039</ele>
        <time>2026-05-18T10:34:04+02:00</time>
      </trkpt>
      <trkpt lat="48.59455" lon="6.15936">
        <ele>222.7998</ele>
        <time>2026-05-18T10:34:05+02:00</time>
      </trkpt>
      <trkpt lat="48.59459" lon="6.1593">
        <ele>222.7998</ele>
        <time>2026-05-18T10:34:06+02:00</time>
      </trkpt>
      <trkpt lat="48.59464" lon="6.15925">
        <ele>222.7998</ele>
        <time>2026-05-18T10:34:07+02:00</time>
      </trkpt>
      <trkpt lat="48.59469" lon="6.1592">
        <ele>223</ele>
        <time>2026-05-18T10:34:08+02:00</time>
      </trkpt>
      <trkpt lat="48.59473" lon="6.15915">
        <ele>223.10059</ele>
        <time>2026-05-18T10:34:09+02:00</time>
      </trkpt>
      <trkpt lat="48.59478" lon="6.15911">
        <ele>223.2002</ele>
        <time>2026-05-18T10:34:10+02:00</time>
      </trkpt>
      <trkpt lat="48.59483" lon="6.15906">
        <ele>223.2002</ele>
        <time>2026-05-18T10:34:11+02:00</time>
      </trkpt>
      <trkpt lat="48.59487" lon="6.159">
        <ele>223.2002</ele>
        <time>2026-05-18T10:34:12+02:00</time>
      </trkpt>
      <trkpt lat="48.59492" lon="6.15895">
        <ele>223.2998</ele>
        <time>2026-05-18T10:34:13+02:00</time>
      </trkpt>
      <trkpt lat="48.59496" lon="6.1589">
        <ele>223.40039</ele>
        <time>2026-05-18T10:34:14+02:00</time>
      </trkpt>
      <trkpt lat="48.59501" lon="6.15885">
        <ele>223.60059</ele>
        <time>2026-05-18T10:34:15+02:00</time>
      </trkpt>
      <trkpt lat="48.59506" lon="6.1588">
        <ele>223.60059</ele>
        <time>2026-05-18T10:34:16+02:00</time>
      </trkpt>
      <trkpt lat="48.59511" lon="6.15875">
        <ele>223.7002</ele>
        <time>2026-05-18T10:34:17+02:00</time>
      </trkpt>
      <trkpt lat="48.59516" lon="6.15869">
        <ele>223.7998</ele>
        <time>2026-05-18T10:34:18+02:00</time>
      </trkpt>
      <trkpt lat="48.5952" lon="6.15864">
        <ele>223.90039</ele>
        <time>2026-05-18T10:34:19+02:00</time>
      </trkpt>
      <trkpt lat="48.59525" lon="6.15859">
        <ele>224.10059</ele>
        <time>2026-05-18T10:34:20+02:00</time>
      </trkpt>
      <trkpt lat="48.59529" lon="6.15853">
        <ele>224.2998</ele>
        <time>2026-05-18T10:34:21+02:00</time>
      </trkpt>
      <trkpt lat="48.59534" lon="6.15848">
        <ele>224.2002</ele>
        <time>2026-05-18T10:34:22+02:00</time>
      </trkpt>
      <trkpt lat="48.59538" lon="6.15843">
        <ele>224.2998</ele>
        <time>2026-05-18T10:34:23+02:00</time>
      </trkpt>
      <trkpt lat="48.59543" lon="6.15838">
        <ele>224.60059</ele>
        <time>2026-05-18T10:34:24+02:00</time>
      </trkpt>
      <trkpt lat="48.59548" lon="6.15833">
        <ele>224.7002</ele>
        <time>2026-05-18T10:34:25+02:00</time>
      </trkpt>
      <trkpt lat="48.59552" lon="6.15828">
        <ele>225</ele>
        <time>2026-05-18T10:34:26+02:00</time>
      </trkpt>
      <trkpt lat="48.59557" lon="6.15823">
        <ele>224.7998</ele>
        <time>2026-05-18T10:34:27+02:00</time>
      </trkpt>
      <trkpt lat="48.59561" lon="6.15818">
        <ele>225.10059</ele>
        <time>2026-05-18T10:34:28+02:00</time>
      </trkpt>
      <trkpt lat="48.59566" lon="6.15813">
        <ele>225.10059</ele>
        <time>2026-05-18T10:34:29+02:00</time>
      </trkpt>
      <trkpt lat="48.5957" lon="6.15808">
        <ele>225.10059</ele>
        <time>2026-05-18T10:34:30+02:00</time>
      </trkpt>
      <trkpt lat="48.59575" lon="6.15803">
        <ele>225.40039</ele>
        <time>2026-05-18T10:34:31+02:00</time>
      </trkpt>
      <trkpt lat="48.59579" lon="6.15798">
        <ele>225</ele>
        <time>2026-05-18T10:34:32+02:00</time>
      </trkpt>
      <trkpt lat="48.59584" lon="6.15793">
        <ele>225.40039</ele>
        <time>2026-05-18T10:34:33+02:00</time>
      </trkpt>
      <trkpt lat="48.59588" lon="6.15788">
        <ele>225.2002</ele>
        <time>2026-05-18T10:34:34+02:00</time>
      </trkpt>
      <trkpt lat="48.59593" lon="6.15784">
        <ele>225.5</ele>
        <time>2026-05-18T10:34:35+02:00</time>
      </trkpt>
      <trkpt lat="48.59597" lon="6.15779">
        <ele>225.2998</ele>
        <time>2026-05-18T10:34:36+02:00</time>
      </trkpt>
      <trkpt lat="48.59602" lon="6.15774">
        <ele>224.90039</ele>
        <time>2026-05-18T10:34:37+02:00</time>
      </trkpt>
      <trkpt lat="48.59606" lon="6.15769">
        <ele>225.10059</ele>
        <time>2026-05-18T10:34:38+02:00</time>
      </trkpt>
      <trkpt lat="48.5961" lon="6.15764">
        <ele>224.90039</ele>
        <time>2026-05-18T10:34:39+02:00</time>
      </trkpt>
      <trkpt lat="48.59614" lon="6.15759">
        <ele>225.10059</ele>
        <time>2026-05-18T10:34:40+02:00</time>
      </trkpt>
      <trkpt lat="48.59619" lon="6.15754">
        <ele>224.7002</ele>
        <time>2026-05-18T10:34:41+02:00</time>
      </trkpt>
      <trkpt lat="48.59621" lon="6.15752">
        <ele>224.90039</ele>
        <time>2026-05-18T10:34:42+02:00</time>
      </trkpt>
      <trkpt lat="48.59628" lon="6.15745">
        <ele>224.7002</ele>
        <time>2026-05-18T10:34:43+02:00</time>
      </trkpt>
      <trkpt lat="48.59633" lon="6.15741">
        <ele>224.7998</ele>
        <time>2026-05-18T10:34:44+02:00</time>
      </trkpt>
      <trkpt lat="48.59638" lon="6.15738">
        <ele>224.7002</ele>
        <time>2026-05-18T10:34:45+02:00</time>
      </trkpt>
      <trkpt lat="48.59643" lon="6.15734">
        <ele>224.7998</ele>
        <time>2026-05-18T10:34:46+02:00</time>
      </trkpt>
      <trkpt lat="48.59647" lon="6.1573">
        <ele>224.5</ele>
        <time>2026-05-18T10:34:47+02:00</time>
      </trkpt>
      <trkpt lat="48.59652" lon="6.15726">
        <ele>224.7002</ele>
        <time>2026-05-18T10:34:48+02:00</time>
      </trkpt>
      <trkpt lat="48.59657" lon="6.15722">
        <ele>224.60059</ele>
        <time>2026-05-18T10:34:49+02:00</time>
      </trkpt>
      <trkpt lat="48.59662" lon="6.15718">
        <ele>224.7998</ele>
        <time>2026-05-18T10:34:50+02:00</time>
      </trkpt>
      <trkpt lat="48.59667" lon="6.15714">
        <ele>224.7002</ele>
        <time>2026-05-18T10:34:51+02:00</time>
      </trkpt>
      <trkpt lat="48.59672" lon="6.1571">
        <ele>225</ele>
        <time>2026-05-18T10:34:52+02:00</time>
      </trkpt>
      <trkpt lat="48.59677" lon="6.15707">
        <ele>225.2998</ele>
        <time>2026-05-18T10:34:53+02:00</time>
      </trkpt>
      <trkpt lat="48.59682" lon="6.15703">
        <ele>225.2998</ele>
        <time>2026-05-18T10:34:54+02:00</time>
      </trkpt>
      <trkpt lat="48.59687" lon="6.15699">
        <ele>225.2998</ele>
        <time>2026-05-18T10:34:55+02:00</time>
      </trkpt>
      <trkpt lat="48.59692" lon="6.15695">
        <ele>225.40039</ele>
        <time>2026-05-18T10:34:56+02:00</time>
      </trkpt>
      <trkpt lat="48.59697" lon="6.15692">
        <ele>225.90039</ele>
        <time>2026-05-18T10:34:57+02:00</time>
      </trkpt>
      <trkpt lat="48.59702" lon="6.15688">
        <ele>226</ele>
        <time>2026-05-18T10:34:58+02:00</time>
      </trkpt>
      <trkpt lat="48.59707" lon="6.15684">
        <ele>226.40039</ele>
        <time>2026-05-18T10:34:59+02:00</time>
      </trkpt>
      <trkpt lat="48.59713" lon="6.1568">
        <ele>226.40039</ele>
        <time>2026-05-18T10:35:00+02:00</time>
      </trkpt>
      <trkpt lat="48.59718" lon="6.15677">
        <ele>226.90039</ele>
        <time>2026-05-18T10:35:01+02:00</time>
      </trkpt>
      <trkpt lat="48.59723" lon="6.15673">
        <ele>227.2998</ele>
        <time>2026-05-18T10:35:02+02:00</time>
      </trkpt>
      <trkpt lat="48.59728" lon="6.15669">
        <ele>227.5</ele>
        <time>2026-05-18T10:35:03+02:00</time>
      </trkpt>
      <trkpt lat="48.59733" lon="6.15665">
        <ele>227.5</ele>
        <time>2026-05-18T10:35:04+02:00</time>
      </trkpt>
      <trkpt lat="48.59738" lon="6.15661">
        <ele>227.7998</ele>
        <time>2026-05-18T10:35:05+02:00</time>
      </trkpt>
      <trkpt lat="48.59742" lon="6.15657">
        <ele>228.5</ele>
        <time>2026-05-18T10:35:06+02:00</time>
      </trkpt>
      <trkpt lat="48.59747" lon="6.15654">
        <ele>228.7002</ele>
        <time>2026-05-18T10:35:07+02:00</time>
      </trkpt>
      <trkpt lat="48.59752" lon="6.1565">
        <ele>229.2002</ele>
        <time>2026-05-18T10:35:08+02:00</time>
      </trkpt>
      <trkpt lat="48.59758" lon="6.15646">
        <ele>229.2002</ele>
        <time>2026-05-18T10:35:09+02:00</time>
      </trkpt>
      <trkpt lat="48.59763" lon="6.15643">
        <ele>229.60059</ele>
        <time>2026-05-18T10:35:10+02:00</time>
      </trkpt>
      <trkpt lat="48.59768" lon="6.15639">
        <ele>229.90039</ele>
        <time>2026-05-18T10:35:11+02:00</time>
      </trkpt>
      <trkpt lat="48.59773" lon="6.15636">
        <ele>229.90039</ele>
        <time>2026-05-18T10:35:12+02:00</time>
      </trkpt>
      <trkpt lat="48.59778" lon="6.15632">
        <ele>229.90039</ele>
        <time>2026-05-18T10:35:13+02:00</time>
      </trkpt>
      <trkpt lat="48.59783" lon="6.15628">
        <ele>229.7998</ele>
        <time>2026-05-18T10:35:14+02:00</time>
      </trkpt>
      <trkpt lat="48.59788" lon="6.15624">
        <ele>230.2002</ele>
        <time>2026-05-18T10:35:15+02:00</time>
      </trkpt>
      <trkpt lat="48.59793" lon="6.15621">
        <ele>230.5</ele>
        <time>2026-05-18T10:35:16+02:00</time>
      </trkpt>
      <trkpt lat="48.59798" lon="6.15617">
        <ele>230.2998</ele>
        <time>2026-05-18T10:35:17+02:00</time>
      </trkpt>
      <trkpt lat="48.59803" lon="6.15613">
        <ele>230.60059</ele>
        <time>2026-05-18T10:35:18+02:00</time>
      </trkpt>
      <trkpt lat="48.59808" lon="6.1561">
        <ele>230.10059</ele>
        <time>2026-05-18T10:35:19+02:00</time>
      </trkpt>
      <trkpt lat="48.59812" lon="6.15606">
        <ele>230.10059</ele>
        <time>2026-05-18T10:35:20+02:00</time>
      </trkpt>
      <trkpt lat="48.59817" lon="6.15603">
        <ele>229.60059</ele>
        <time>2026-05-18T10:35:21+02:00</time>
      </trkpt>
      <trkpt lat="48.59821" lon="6.15599">
        <ele>229.90039</ele>
        <time>2026-05-18T10:35:22+02:00</time>
      </trkpt>
      <trkpt lat="48.59826" lon="6.15596">
        <ele>230.10059</ele>
        <time>2026-05-18T10:35:23+02:00</time>
      </trkpt>
      <trkpt lat="48.59831" lon="6.15592">
        <ele>229.7998</ele>
        <time>2026-05-18T10:35:24+02:00</time>
      </trkpt>
      <trkpt lat="48.59836" lon="6.15589">
        <ele>229.90039</ele>
        <time>2026-05-18T10:35:25+02:00</time>
      </trkpt>
      <trkpt lat="48.59841" lon="6.15586">
        <ele>229.60059</ele>
        <time>2026-05-18T10:35:26+02:00</time>
      </trkpt>
      <trkpt lat="48.59846" lon="6.15582">
        <ele>229.60059</ele>
        <time>2026-05-18T10:35:27+02:00</time>
      </trkpt>
      <trkpt lat="48.59851" lon="6.15579">
        <ele>229.7998</ele>
        <time>2026-05-18T10:35:28+02:00</time>
      </trkpt>
      <trkpt lat="48.59856" lon="6.15577">
        <ele>229.5</ele>
        <time>2026-05-18T10:35:29+02:00</time>
      </trkpt>
      <trkpt lat="48.59861" lon="6.15574">
        <ele>229.7002</ele>
        <time>2026-05-18T10:35:30+02:00</time>
      </trkpt>
      <trkpt lat="48.59866" lon="6.15571">
        <ele>229.90039</ele>
        <time>2026-05-18T10:35:31+02:00</time>
      </trkpt>
      <trkpt lat="48.59871" lon="6.15569">
        <ele>229.5</ele>
        <time>2026-05-18T10:35:32+02:00</time>
      </trkpt>
      <trkpt lat="48.59875" lon="6.15566">
        <ele>229.60059</ele>
        <time>2026-05-18T10:35:33+02:00</time>
      </trkpt>
      <trkpt lat="48.59881" lon="6.15565">
        <ele>229.7002</ele>
        <time>2026-05-18T10:35:34+02:00</time>
      </trkpt>
      <trkpt lat="48.59886" lon="6.15565">
        <ele>229.7002</ele>
        <time>2026-05-18T10:35:35+02:00</time>
      </trkpt>
      <trkpt lat="48.59888" lon="6.15565">
        <ele>229.7002</ele>
        <time>2026-05-18T10:35:36+02:00</time>
      </trkpt>
      <trkpt lat="48.59895" lon="6.15564">
        <ele>229.7002</ele>
        <time>2026-05-18T10:35:37+02:00</time>
      </trkpt>
      <trkpt lat="48.599" lon="6.15563">
        <ele>229.7002</ele>
        <time>2026-05-18T10:35:38+02:00</time>
      </trkpt>
      <trkpt lat="48.59905" lon="6.15562">
        <ele>229.7998</ele>
        <time>2026-05-18T10:35:39+02:00</time>
      </trkpt>
      <trkpt lat="48.5991" lon="6.15561">
        <ele>230</ele>
        <time>2026-05-18T10:35:40+02:00</time>
      </trkpt>
      <trkpt lat="48.59915" lon="6.1556">
        <ele>229.90039</ele>
        <time>2026-05-18T10:35:41+02:00</time>
      </trkpt>
      <trkpt lat="48.59919" lon="6.15559">
        <ele>229.90039</ele>
        <time>2026-05-18T10:35:42+02:00</time>
      </trkpt>
      <trkpt lat="48.59925" lon="6.15557">
        <ele>230</ele>
        <time>2026-05-18T10:35:43+02:00</time>
      </trkpt>
      <trkpt lat="48.5993" lon="6.15555">
        <ele>230.10059</ele>
        <time>2026-05-18T10:35:44+02:00</time>
      </trkpt>
      <trkpt lat="48.59935" lon="6.15554">
        <ele>230.2002</ele>
        <time>2026-05-18T10:35:45+02:00</time>
      </trkpt>
      <trkpt lat="48.5994" lon="6.15552">
        <ele>230.2998</ele>
        <time>2026-05-18T10:35:46+02:00</time>
      </trkpt>
      <trkpt lat="48.59946" lon="6.1555">
        <ele>230.10059</ele>
        <time>2026-05-18T10:35:47+02:00</time>
      </trkpt>
      <trkpt lat="48.59951" lon="6.15548">
        <ele>230.10059</ele>
        <time>2026-05-18T10:35:48+02:00</time>
      </trkpt>
      <trkpt lat="48.59957" lon="6.15546">
        <ele>230.2002</ele>
        <time>2026-05-18T10:35:49+02:00</time>
      </trkpt>
      <trkpt lat="48.59962" lon="6.15544">
        <ele>230.2002</ele>
        <time>2026-05-18T10:35:50+02:00</time>
      </trkpt>
      <trkpt lat="48.59968" lon="6.15542">
        <ele>229.90039</ele>
        <time>2026-05-18T10:35:51+02:00</time>
      </trkpt>
      <trkpt lat="48.59973" lon="6.1554">
        <ele>229.90039</ele>
        <time>2026-05-18T10:35:52+02:00</time>
      </trkpt>
      <trkpt lat="48.59978" lon="6.15538">
        <ele>229.90039</ele>
        <time>2026-05-18T10:35:53+02:00</time>
      </trkpt>
      <trkpt lat="48.59984" lon="6.15537">
        <ele>229.90039</ele>
        <time>2026-05-18T10:35:54+02:00</time>
      </trkpt>
      <trkpt lat="48.5999" lon="6.15536">
        <ele>229.7998</ele>
        <time>2026-05-18T10:35:55+02:00</time>
      </trkpt>
      <trkpt lat="48.59995" lon="6.15535">
        <ele>229.60059</ele>
        <time>2026-05-18T10:35:56+02:00</time>
      </trkpt>
      <trkpt lat="48.60001" lon="6.15533">
        <ele>229.10059</ele>
        <time>2026-05-18T10:35:57+02:00</time>
      </trkpt>
      <trkpt lat="48.60006" lon="6.15532">
        <ele>229</ele>
        <time>2026-05-18T10:35:58+02:00</time>
      </trkpt>
      <trkpt lat="48.60012" lon="6.1553">
        <ele>228.90039</ele>
        <time>2026-05-18T10:35:59+02:00</time>
      </trkpt>
      <trkpt lat="48.60018" lon="6.15528">
        <ele>229</ele>
        <time>2026-05-18T10:36:00+02:00</time>
      </trkpt>
      <trkpt lat="48.60023" lon="6.15527">
        <ele>229</ele>
        <time>2026-05-18T10:36:01+02:00</time>
      </trkpt>
      <trkpt lat="48.60029" lon="6.15525">
        <ele>228.7998</ele>
        <time>2026-05-18T10:36:02+02:00</time>
      </trkpt>
      <trkpt lat="48.60035" lon="6.15523">
        <ele>228.7998</ele>
        <time>2026-05-18T10:36:03+02:00</time>
      </trkpt>
      <trkpt lat="48.6004" lon="6.15521">
        <ele>228.7998</ele>
        <time>2026-05-18T10:36:04+02:00</time>
      </trkpt>
      <trkpt lat="48.60046" lon="6.15519">
        <ele>228.7002</ele>
        <time>2026-05-18T10:36:05+02:00</time>
      </trkpt>
      <trkpt lat="48.60051" lon="6.15517">
        <ele>228.5</ele>
        <time>2026-05-18T10:36:06+02:00</time>
      </trkpt>
      <trkpt lat="48.60055" lon="6.15516">
        <ele>228.5</ele>
        <time>2026-05-18T10:36:07+02:00</time>
      </trkpt>
      <trkpt lat="48.60063" lon="6.15512">
        <ele>228.60059</ele>
        <time>2026-05-18T10:36:08+02:00</time>
      </trkpt>
      <trkpt lat="48.60069" lon="6.1551">
        <ele>228.60059</ele>
        <time>2026-05-18T10:36:09+02:00</time>
      </trkpt>
      <trkpt lat="48.60074" lon="6.15507">
        <ele>228.2998</ele>
        <time>2026-05-18T10:36:10+02:00</time>
      </trkpt>
      <trkpt lat="48.6008" lon="6.15505">
        <ele>228.2998</ele>
        <time>2026-05-18T10:36:11+02:00</time>
      </trkpt>
      <trkpt lat="48.60085" lon="6.15503">
        <ele>228.2998</ele>
        <time>2026-05-18T10:36:12+02:00</time>
      </trkpt>
      <trkpt lat="48.60091" lon="6.155">
        <ele>227.7998</ele>
        <time>2026-05-18T10:36:13+02:00</time>
      </trkpt>
      <trkpt lat="48.60096" lon="6.15498">
        <ele>227.7998</ele>
        <time>2026-05-18T10:36:14+02:00</time>
      </trkpt>
      <trkpt lat="48.60101" lon="6.15495">
        <ele>227.7002</ele>
        <time>2026-05-18T10:36:15+02:00</time>
      </trkpt>
      <trkpt lat="48.60106" lon="6.15492">
        <ele>227.60059</ele>
        <time>2026-05-18T10:36:16+02:00</time>
      </trkpt>
      <trkpt lat="48.60111" lon="6.15489">
        <ele>227.2002</ele>
        <time>2026-05-18T10:36:17+02:00</time>
      </trkpt>
      <trkpt lat="48.60116" lon="6.15485">
        <ele>227</ele>
        <time>2026-05-18T10:36:18+02:00</time>
      </trkpt>
      <trkpt lat="48.60121" lon="6.15481">
        <ele>226.7998</ele>
        <time>2026-05-18T10:36:19+02:00</time>
      </trkpt>
      <trkpt lat="48.60125" lon="6.1548">
        <ele>226.7002</ele>
        <time>2026-05-18T10:36:20+02:00</time>
      </trkpt>
      <trkpt lat="48.6013" lon="6.15478">
        <ele>226.7002</ele>
        <time>2026-05-18T10:36:21+02:00</time>
      </trkpt>
      <trkpt lat="48.60134" lon="6.15475">
        <ele>226.7002</ele>
        <time>2026-05-18T10:36:22+02:00</time>
      </trkpt>
      <trkpt lat="48.60139" lon="6.15472">
        <ele>226.7002</ele>
        <time>2026-05-18T10:36:23+02:00</time>
      </trkpt>
      <trkpt lat="48.60143" lon="6.15468">
        <ele>226.60059</ele>
        <time>2026-05-18T10:36:24+02:00</time>
      </trkpt>
      <trkpt lat="48.60148" lon="6.15464">
        <ele>226.60059</ele>
        <time>2026-05-18T10:36:25+02:00</time>
      </trkpt>
      <trkpt lat="48.60152" lon="6.1546">
        <ele>226.60059</ele>
        <time>2026-05-18T10:36:26+02:00</time>
      </trkpt>
      <trkpt lat="48.60157" lon="6.15457">
        <ele>226.5</ele>
        <time>2026-05-18T10:36:27+02:00</time>
      </trkpt>
      <trkpt lat="48.60162" lon="6.15454">
        <ele>226.5</ele>
        <time>2026-05-18T10:36:28+02:00</time>
      </trkpt>
      <trkpt lat="48.60166" lon="6.1545">
        <ele>226.5</ele>
        <time>2026-05-18T10:36:29+02:00</time>
      </trkpt>
      <trkpt lat="48.6017" lon="6.15447">
        <ele>226.40039</ele>
        <time>2026-05-18T10:36:30+02:00</time>
      </trkpt>
      <trkpt lat="48.60175" lon="6.15444">
        <ele>226.40039</ele>
        <time>2026-05-18T10:36:31+02:00</time>
      </trkpt>
      <trkpt lat="48.6018" lon="6.15441">
        <ele>226.2998</ele>
        <time>2026-05-18T10:36:32+02:00</time>
      </trkpt>
      <trkpt lat="48.60184" lon="6.15437">
        <ele>226.2002</ele>
        <time>2026-05-18T10:36:33+02:00</time>
      </trkpt>
      <trkpt lat="48.60188" lon="6.15433">
        <ele>226.10059</ele>
        <time>2026-05-18T10:36:34+02:00</time>
      </trkpt>
      <trkpt lat="48.60193" lon="6.1543">
        <ele>226</ele>
        <time>2026-05-18T10:36:35+02:00</time>
      </trkpt>
      <trkpt lat="48.60198" lon="6.15428">
        <ele>226</ele>
        <time>2026-05-18T10:36:36+02:00</time>
      </trkpt>
      <trkpt lat="48.60202" lon="6.15425">
        <ele>225.90039</ele>
        <time>2026-05-18T10:36:37+02:00</time>
      </trkpt>
      <trkpt lat="48.60206" lon="6.15422">
        <ele>225.7002</ele>
        <time>2026-05-18T10:36:38+02:00</time>
      </trkpt>
      <trkpt lat="48.60209" lon="6.15418">
        <ele>225.7002</ele>
        <time>2026-05-18T10:36:39+02:00</time>
      </trkpt>
      <trkpt lat="48.60212" lon="6.15413">
        <ele>225.5</ele>
        <time>2026-05-18T10:36:40+02:00</time>
      </trkpt>
      <trkpt lat="48.60216" lon="6.15409">
        <ele>225.40039</ele>
        <time>2026-05-18T10:36:41+02:00</time>
      </trkpt>
      <trkpt lat="48.60219" lon="6.15406">
        <ele>225.2002</ele>
        <time>2026-05-18T10:36:42+02:00</time>
      </trkpt>
      <trkpt lat="48.60222" lon="6.15402">
        <ele>225.10059</ele>
        <time>2026-05-18T10:36:43+02:00</time>
      </trkpt>
      <trkpt lat="48.60224" lon="6.15398">
        <ele>225.10059</ele>
        <time>2026-05-18T10:36:44+02:00</time>
      </trkpt>
      <trkpt lat="48.60225" lon="6.15396">
        <ele>225</ele>
        <time>2026-05-18T10:36:45+02:00</time>
      </trkpt>
      <trkpt lat="48.60227" lon="6.15394">
        <ele>225</ele>
        <time>2026-05-18T10:36:46+02:00</time>
      </trkpt>
      <trkpt lat="48.60227" lon="6.15392">
        <ele>225</ele>
        <time>2026-05-18T10:36:47+02:00</time>
      </trkpt>
      <trkpt lat="48.60227" lon="6.15392">
        <ele>225</ele>
        <time>2026-05-18T10:36:48+02:00</time>
      </trkpt>
      <trkpt lat="48.60227" lon="6.15392">
        <ele>225</ele>
        <time>2026-05-18T10:36:49+02:00</time>
      </trkpt>
      <trkpt lat="48.60227" lon="6.15392">
        <ele>225</ele>
        <time>2026-05-18T10:36:50+02:00</time>
      </trkpt>
      <trkpt lat="48.60227" lon="6.15392">
        <ele>225</ele>
        <time>2026-05-18T10:36:51+02:00</time>
      </trkpt>
      <trkpt lat="48.60236" lon="6.15405">
        <ele>224.90039</ele>
        <time>2026-05-18T10:37:31+02:00</time>
      </trkpt>
      <trkpt lat="48.60237" lon="6.15408">
        <ele>225.10059</ele>
        <time>2026-05-18T10:37:32+02:00</time>
      </trkpt>
      <trkpt lat="48.60238" lon="6.15411">
        <ele>225.10059</ele>
        <time>2026-05-18T10:37:33+02:00</time>
      </trkpt>
      <trkpt lat="48.60238" lon="6.15411">
        <ele>225.10059</ele>
        <time>2026-05-18T10:37:34+02:00</time>
      </trkpt>
      <trkpt lat="48.60238" lon="6.15411">
        <ele>225.10059</ele>
        <time>2026-05-18T10:37:35+02:00</time>
      </trkpt>
      <trkpt lat="48.60238" lon="6.15411">
        <ele>225.10059</ele>
        <time>2026-05-18T10:37:36+02:00</time>
      </trkpt>
      <trkpt lat="48.60238" lon="6.15411">
        <ele>225.10059</ele>
        <time>2026-05-18T10:37:37+02:00</time>
      </trkpt>
      <trkpt lat="48.60228" lon="6.15422">
        <ele>225.40039</ele>
        <time>2026-05-18T10:37:44+02:00</time>
      </trkpt>
      <trkpt lat="48.60226" lon="6.15425">
        <ele>225.60059</ele>
        <time>2026-05-18T10:37:45+02:00</time>
      </trkpt>
      <trkpt lat="48.60224" lon="6.15427">
        <ele>225.60059</ele>
        <time>2026-05-18T10:37:46+02:00</time>
      </trkpt>
      <trkpt lat="48.60221" lon="6.1543">
        <ele>225.7002</ele>
        <time>2026-05-18T10:37:47+02:00</time>
      </trkpt>
      <trkpt lat="48.60219" lon="6.15433">
        <ele>225.7998</ele>
        <time>2026-05-18T10:37:48+02:00</time>
      </trkpt>
      <trkpt lat="48.60216" lon="6.15436">
        <ele>225.7998</ele>
        <time>2026-05-18T10:37:49+02:00</time>
      </trkpt>
      <trkpt lat="48.60212" lon="6.1544">
        <ele>225.90039</ele>
        <time>2026-05-18T10:37:50+02:00</time>
      </trkpt>
      <trkpt lat="48.60209" lon="6.15444">
        <ele>226</ele>
        <time>2026-05-18T10:37:51+02:00</time>
      </trkpt>
      <trkpt lat="48.60206" lon="6.15448">
        <ele>226</ele>
        <time>2026-05-18T10:37:52+02:00</time>
      </trkpt>
      <trkpt lat="48.60203" lon="6.15452">
        <ele>226.2002</ele>
        <time>2026-05-18T10:37:53+02:00</time>
      </trkpt>
      <trkpt lat="48.60199" lon="6.15457">
        <ele>226.2002</ele>
        <time>2026-05-18T10:37:54+02:00</time>
      </trkpt>
      <trkpt lat="48.60196" lon="6.15461">
        <ele>226.2998</ele>
        <time>2026-05-18T10:37:55+02:00</time>
      </trkpt>
      <trkpt lat="48.60192" lon="6.15465">
        <ele>226.40039</ele>
        <time>2026-05-18T10:37:56+02:00</time>
      </trkpt>
      <trkpt lat="48.60189" lon="6.1547">
        <ele>226.5</ele>
        <time>2026-05-18T10:37:57+02:00</time>
      </trkpt>
      <trkpt lat="48.60185" lon="6.15474">
        <ele>226.5</ele>
        <time>2026-05-18T10:37:58+02:00</time>
      </trkpt>
      <trkpt lat="48.60182" lon="6.15478">
        <ele>226.60059</ele>
        <time>2026-05-18T10:37:59+02:00</time>
      </trkpt>
      <trkpt lat="48.60178" lon="6.15483">
        <ele>226.60059</ele>
        <time>2026-05-18T10:38:00+02:00</time>
      </trkpt>
      <trkpt lat="48.60175" lon="6.15488">
        <ele>226.7002</ele>
        <time>2026-05-18T10:38:01+02:00</time>
      </trkpt>
      <trkpt lat="48.60172" lon="6.15494">
        <ele>226.7998</ele>
        <time>2026-05-18T10:38:02+02:00</time>
      </trkpt>
      <trkpt lat="48.60169" lon="6.155">
        <ele>226.7998</ele>
        <time>2026-05-18T10:38:03+02:00</time>
      </trkpt>
      <trkpt lat="48.60167" lon="6.15506">
        <ele>226.90039</ele>
        <time>2026-05-18T10:38:04+02:00</time>
      </trkpt>
      <trkpt lat="48.60165" lon="6.15513">
        <ele>227.10059</ele>
        <time>2026-05-18T10:38:05+02:00</time>
      </trkpt>
      <trkpt lat="48.60164" lon="6.15519">
        <ele>227.2998</ele>
        <time>2026-05-18T10:38:06+02:00</time>
      </trkpt>
      <trkpt lat="48.60163" lon="6.15525">
        <ele>227.2998</ele>
        <time>2026-05-18T10:38:07+02:00</time>
      </trkpt>
      <trkpt lat="48.60163" lon="6.15531">
        <ele>227.40039</ele>
        <time>2026-05-18T10:38:08+02:00</time>
      </trkpt>
      <trkpt lat="48.60163" lon="6.15535">
        <ele>227.7002</ele>
        <time>2026-05-18T10:38:09+02:00</time>
      </trkpt>
      <trkpt lat="48.60164" lon="6.1554">
        <ele>227.7002</ele>
        <time>2026-05-18T10:38:10+02:00</time>
      </trkpt>
      <trkpt lat="48.60164" lon="6.15545">
        <ele>227.90039</ele>
        <time>2026-05-18T10:38:11+02:00</time>
      </trkpt>
      <trkpt lat="48.60164" lon="6.1555">
        <ele>227.90039</ele>
        <time>2026-05-18T10:38:12+02:00</time>
      </trkpt>
      <trkpt lat="48.60164" lon="6.15554">
        <ele>228.2002</ele>
        <time>2026-05-18T10:38:13+02:00</time>
      </trkpt>
      <trkpt lat="48.60164" lon="6.15557">
        <ele>228.2002</ele>
        <time>2026-05-18T10:38:14+02:00</time>
      </trkpt>
      <trkpt lat="48.60164" lon="6.1556">
        <ele>228.2002</ele>
        <time>2026-05-18T10:38:15+02:00</time>
      </trkpt>
      <trkpt lat="48.60163" lon="6.15562">
        <ele>228.5</ele>
        <time>2026-05-18T10:38:16+02:00</time>
      </trkpt>
      <trkpt lat="48.60162" lon="6.15563">
        <ele>228.5</ele>
        <time>2026-05-18T10:38:17+02:00</time>
      </trkpt>
      <trkpt lat="48.6016" lon="6.15563">
        <ele>228.5</ele>
        <time>2026-05-18T10:38:18+02:00</time>
      </trkpt>
      <trkpt lat="48.60159" lon="6.15563">
        <ele>228.5</ele>
        <time>2026-05-18T10:38:19+02:00</time>
      </trkpt>
      <trkpt lat="48.60157" lon="6.15564">
        <ele>228.60059</ele>
        <time>2026-05-18T10:38:20+02:00</time>
      </trkpt>
      <trkpt lat="48.60156" lon="6.15564">
        <ele>228.60059</ele>
        <time>2026-05-18T10:38:21+02:00</time>
      </trkpt>
      <trkpt lat="48.60154" lon="6.15565">
        <ele>228.60059</ele>
        <time>2026-05-18T10:38:22+02:00</time>
      </trkpt>
      <trkpt lat="48.60153" lon="6.15567">
        <ele>228.60059</ele>
        <time>2026-05-18T10:38:23+02:00</time>
      </trkpt>
      <trkpt lat="48.60153" lon="6.1557">
        <ele>229</ele>
        <time>2026-05-18T10:38:24+02:00</time>
      </trkpt>
      <trkpt lat="48.60154" lon="6.15573">
        <ele>229</ele>
        <time>2026-05-18T10:38:25+02:00</time>
      </trkpt>
      <trkpt lat="48.60156" lon="6.15577">
        <ele>229</ele>
        <time>2026-05-18T10:38:26+02:00</time>
      </trkpt>
      <trkpt lat="48.60158" lon="6.15582">
        <ele>229.40039</ele>
        <time>2026-05-18T10:38:27+02:00</time>
      </trkpt>
      <trkpt lat="48.6016" lon="6.15587">
        <ele>229.7998</ele>
        <time>2026-05-18T10:38:28+02:00</time>
      </trkpt>
      <trkpt lat="48.60163" lon="6.15593">
        <ele>229.7998</ele>
        <time>2026-05-18T10:38:29+02:00</time>
      </trkpt>
      <trkpt lat="48.60166" lon="6.15599">
        <ele>230.2002</ele>
        <time>2026-05-18T10:38:30+02:00</time>
      </trkpt>
      <trkpt lat="48.60169" lon="6.15605">
        <ele>230.60059</ele>
        <time>2026-05-18T10:38:31+02:00</time>
      </trkpt>
      <trkpt lat="48.60172" lon="6.15611">
        <ele>230.5</ele>
        <time>2026-05-18T10:38:32+02:00</time>
      </trkpt>
      <trkpt lat="48.60175" lon="6.15617">
        <ele>230.90039</ele>
        <time>2026-05-18T10:38:33+02:00</time>
      </trkpt>
      <trkpt lat="48.60178" lon="6.15622">
        <ele>231.2002</ele>
        <time>2026-05-18T10:38:34+02:00</time>
      </trkpt>
      <trkpt lat="48.6018" lon="6.15628">
        <ele>231.2002</ele>
        <time>2026-05-18T10:38:35+02:00</time>
      </trkpt>
      <trkpt lat="48.60183" lon="6.15633">
        <ele>231.5</ele>
        <time>2026-05-18T10:38:36+02:00</time>
      </trkpt>
      <trkpt lat="48.60185" lon="6.15637">
        <ele>231.5</ele>
        <time>2026-05-18T10:38:37+02:00</time>
      </trkpt>
      <trkpt lat="48.60187" lon="6.15642">
        <ele>231.60059</ele>
        <time>2026-05-18T10:38:38+02:00</time>
      </trkpt>
      <trkpt lat="48.6019" lon="6.15648">
        <ele>232</ele>
        <time>2026-05-18T10:38:39+02:00</time>
      </trkpt>
      <trkpt lat="48.60192" lon="6.15653">
        <ele>232</ele>
        <time>2026-05-18T10:38:40+02:00</time>
      </trkpt>
      <trkpt lat="48.60195" lon="6.15659">
        <ele>232.2002</ele>
        <time>2026-05-18T10:38:41+02:00</time>
      </trkpt>
      <trkpt lat="48.60196" lon="6.15661">
        <ele>232.2002</ele>
        <time>2026-05-18T10:38:42+02:00</time>
      </trkpt>
      <trkpt lat="48.602" lon="6.1567">
        <ele>232.40039</ele>
        <time>2026-05-18T10:38:43+02:00</time>
      </trkpt>
      <trkpt lat="48.60202" lon="6.15675">
        <ele>232.7998</ele>
        <time>2026-05-18T10:38:44+02:00</time>
      </trkpt>
      <trkpt lat="48.60202" lon="6.1568">
        <ele>232.7998</ele>
        <time>2026-05-18T10:38:45+02:00</time>
      </trkpt>
      <trkpt lat="48.60202" lon="6.15683">
        <ele>233.2998</ele>
        <time>2026-05-18T10:38:46+02:00</time>
      </trkpt>
      <trkpt lat="48.602" lon="6.1569">
        <ele>233.7002</ele>
        <time>2026-05-18T10:38:47+02:00</time>
      </trkpt>
      <trkpt lat="48.602" lon="6.15695">
        <ele>233.7002</ele>
        <time>2026-05-18T10:38:48+02:00</time>
      </trkpt>
      <trkpt lat="48.60201" lon="6.15699">
        <ele>234.2002</ele>
        <time>2026-05-18T10:38:49+02:00</time>
      </trkpt>
      <trkpt lat="48.60204" lon="6.15703">
        <ele>234.2002</ele>
        <time>2026-05-18T10:38:50+02:00</time>
      </trkpt>
      <trkpt lat="48.60207" lon="6.15706">
        <ele>233.7002</ele>
        <time>2026-05-18T10:38:51+02:00</time>
      </trkpt>
      <trkpt lat="48.60211" lon="6.15709">
        <ele>233.7002</ele>
        <time>2026-05-18T10:38:52+02:00</time>
      </trkpt>
      <trkpt lat="48.60216" lon="6.15713">
        <ele>233.2998</ele>
        <time>2026-05-18T10:38:53+02:00</time>
      </trkpt>
      <trkpt lat="48.6022" lon="6.15716">
        <ele>233.7002</ele>
        <time>2026-05-18T10:38:54+02:00</time>
      </trkpt>
      <trkpt lat="48.60224" lon="6.1572">
        <ele>233.40039</ele>
        <time>2026-05-18T10:38:55+02:00</time>
      </trkpt>
      <trkpt lat="48.60227" lon="6.15724">
        <ele>233.7002</ele>
        <time>2026-05-18T10:38:56+02:00</time>
      </trkpt>
      <trkpt lat="48.60231" lon="6.15729">
        <ele>233.40039</ele>
        <time>2026-05-18T10:38:57+02:00</time>
      </trkpt>
      <trkpt lat="48.60235" lon="6.15734">
        <ele>233.60059</ele>
        <time>2026-05-18T10:38:58+02:00</time>
      </trkpt>
      <trkpt lat="48.60238" lon="6.15738">
        <ele>233.60059</ele>
        <time>2026-05-18T10:38:59+02:00</time>
      </trkpt>
      <trkpt lat="48.60242" lon="6.15743">
        <ele>233.7002</ele>
        <time>2026-05-18T10:39:00+02:00</time>
      </trkpt>
      <trkpt lat="48.60246" lon="6.15748">
        <ele>233.5</ele>
        <time>2026-05-18T10:39:01+02:00</time>
      </trkpt>
      <trkpt lat="48.60249" lon="6.15753">
        <ele>233.90039</ele>
        <time>2026-05-18T10:39:02+02:00</time>
      </trkpt>
      <trkpt lat="48.60253" lon="6.15758">
        <ele>234</ele>
        <time>2026-05-18T10:39:03+02:00</time>
      </trkpt>
      <trkpt lat="48.60257" lon="6.15762">
        <ele>233.7002</ele>
        <time>2026-05-18T10:39:04+02:00</time>
      </trkpt>
      <trkpt lat="48.60261" lon="6.15767">
        <ele>233.90039</ele>
        <time>2026-05-18T10:39:05+02:00</time>
      </trkpt>
      <trkpt lat="48.60264" lon="6.15771">
        <ele>233.90039</ele>
        <time>2026-05-18T10:39:06+02:00</time>
      </trkpt>
      <trkpt lat="48.60267" lon="6.15776">
        <ele>234.2002</ele>
        <time>2026-05-18T10:39:07+02:00</time>
      </trkpt>
      <trkpt lat="48.6027" lon="6.1578">
        <ele>234.2002</ele>
        <time>2026-05-18T10:39:08+02:00</time>
      </trkpt>
      <trkpt lat="48.60274" lon="6.15784">
        <ele>234.2002</ele>
        <time>2026-05-18T10:39:09+02:00</time>
      </trkpt>
      <trkpt lat="48.60277" lon="6.15788">
        <ele>234.2002</ele>
        <time>2026-05-18T10:39:10+02:00</time>
      </trkpt>
      <trkpt lat="48.6028" lon="6.15792">
        <ele>233.90039</ele>
        <time>2026-05-18T10:39:11+02:00</time>
      </trkpt>
      <trkpt lat="48.60283" lon="6.15796">
        <ele>234.2002</ele>
        <time>2026-05-18T10:39:12+02:00</time>
      </trkpt>
      <trkpt lat="48.60286" lon="6.15799">
        <ele>234</ele>
        <time>2026-05-18T10:39:13+02:00</time>
      </trkpt>
      <trkpt lat="48.60294" lon="6.15809">
        <ele>234.2998</ele>
        <time>2026-05-18T10:39:14+02:00</time>
      </trkpt>
      <trkpt lat="48.60297" lon="6.15812">
        <ele>234.60059</ele>
        <time>2026-05-18T10:39:15+02:00</time>
      </trkpt>
      <trkpt lat="48.603" lon="6.15816">
        <ele>234.60059</ele>
        <time>2026-05-18T10:39:16+02:00</time>
      </trkpt>
      <trkpt lat="48.60302" lon="6.15819">
        <ele>234.7002</ele>
        <time>2026-05-18T10:39:17+02:00</time>
      </trkpt>
      <trkpt lat="48.60306" lon="6.15822">
        <ele>234.7002</ele>
        <time>2026-05-18T10:39:18+02:00</time>
      </trkpt>
      <trkpt lat="48.60309" lon="6.15826">
        <ele>234.7002</ele>
        <time>2026-05-18T10:39:19+02:00</time>
      </trkpt>
      <trkpt lat="48.60312" lon="6.15828">
        <ele>235.10059</ele>
        <time>2026-05-18T10:39:20+02:00</time>
      </trkpt>
      <trkpt lat="48.60315" lon="6.15833">
        <ele>235.10059</ele>
        <time>2026-05-18T10:39:21+02:00</time>
      </trkpt>
      <trkpt lat="48.60319" lon="6.15837">
        <ele>235.5</ele>
        <time>2026-05-18T10:39:22+02:00</time>
      </trkpt>
      <trkpt lat="48.60321" lon="6.15841">
        <ele>235.5</ele>
        <time>2026-05-18T10:39:23+02:00</time>
      </trkpt>
      <trkpt lat="48.60323" lon="6.15845">
        <ele>235.7998</ele>
        <time>2026-05-18T10:39:24+02:00</time>
      </trkpt>
      <trkpt lat="48.60326" lon="6.15849">
        <ele>235.7002</ele>
        <time>2026-05-18T10:39:25+02:00</time>
      </trkpt>
      <trkpt lat="48.60328" lon="6.15851">
        <ele>235.7002</ele>
        <time>2026-05-18T10:39:26+02:00</time>
      </trkpt>
      <trkpt lat="48.60331" lon="6.15857">
        <ele>235.90039</ele>
        <time>2026-05-18T10:39:27+02:00</time>
      </trkpt>
      <trkpt lat="48.60334" lon="6.1586">
        <ele>235.90039</ele>
        <time>2026-05-18T10:39:28+02:00</time>
      </trkpt>
      <trkpt lat="48.60337" lon="6.15864">
        <ele>236.10059</ele>
        <time>2026-05-18T10:39:29+02:00</time>
      </trkpt>
      <trkpt lat="48.60341" lon="6.15869">
        <ele>236</ele>
        <time>2026-05-18T10:39:30+02:00</time>
      </trkpt>
      <trkpt lat="48.60344" lon="6.15874">
        <ele>236.40039</ele>
        <time>2026-05-18T10:39:31+02:00</time>
      </trkpt>
      <trkpt lat="48.60348" lon="6.15878">
        <ele>236</ele>
        <time>2026-05-18T10:39:32+02:00</time>
      </trkpt>
      <trkpt lat="48.60352" lon="6.15883">
        <ele>235.5</ele>
        <time>2026-05-18T10:39:33+02:00</time>
      </trkpt>
      <trkpt lat="48.60356" lon="6.15887">
        <ele>235.7002</ele>
        <time>2026-05-18T10:39:34+02:00</time>
      </trkpt>
      <trkpt lat="48.60359" lon="6.15891">
        <ele>235</ele>
        <time>2026-05-18T10:39:35+02:00</time>
      </trkpt>
      <trkpt lat="48.60362" lon="6.15895">
        <ele>235</ele>
        <time>2026-05-18T10:39:36+02:00</time>
      </trkpt>
      <trkpt lat="48.60366" lon="6.15899">
        <ele>234.5</ele>
        <time>2026-05-18T10:39:37+02:00</time>
      </trkpt>
      <trkpt lat="48.6037" lon="6.15903">
        <ele>233.7002</ele>
        <time>2026-05-18T10:39:38+02:00</time>
      </trkpt>
      <trkpt lat="48.60373" lon="6.15908">
        <ele>234.60059</ele>
        <time>2026-05-18T10:39:39+02:00</time>
      </trkpt>
      <trkpt lat="48.60376" lon="6.15912">
        <ele>233.90039</ele>
        <time>2026-05-18T10:39:40+02:00</time>
      </trkpt>
      <trkpt lat="48.6038" lon="6.15916">
        <ele>234.10059</ele>
        <time>2026-05-18T10:39:41+02:00</time>
      </trkpt>
      <trkpt lat="48.60384" lon="6.15921">
        <ele>234.10059</ele>
        <time>2026-05-18T10:39:42+02:00</time>
      </trkpt>
      <trkpt lat="48.60387" lon="6.15926">
        <ele>234.10059</ele>
        <time>2026-05-18T10:39:43+02:00</time>
      </trkpt>
      <trkpt lat="48.60391" lon="6.15931">
        <ele>234.7998</ele>
        <time>2026-05-18T10:39:44+02:00</time>
      </trkpt>
      <trkpt lat="48.60394" lon="6.15935">
        <ele>234.10059</ele>
        <time>2026-05-18T10:39:45+02:00</time>
      </trkpt>
      <trkpt lat="48.60399" lon="6.15939">
        <ele>234.40039</ele>
        <time>2026-05-18T10:39:46+02:00</time>
      </trkpt>
      <trkpt lat="48.60402" lon="6.15943">
        <ele>234.40039</ele>
        <time>2026-05-18T10:39:47+02:00</time>
      </trkpt>
      <trkpt lat="48.60405" lon="6.15948">
        <ele>234.60059</ele>
        <time>2026-05-18T10:39:48+02:00</time>
      </trkpt>
      <trkpt lat="48.60409" lon="6.15952">
        <ele>233.7998</ele>
        <time>2026-05-18T10:39:49+02:00</time>
      </trkpt>
      <trkpt lat="48.60413" lon="6.15956">
        <ele>234.7002</ele>
        <time>2026-05-18T10:39:50+02:00</time>
      </trkpt>
      <trkpt lat="48.60417" lon="6.15962">
        <ele>233.7998</ele>
        <time>2026-05-18T10:39:51+02:00</time>
      </trkpt>
      <trkpt lat="48.6042" lon="6.15966">
        <ele>234.10059</ele>
        <time>2026-05-18T10:39:52+02:00</time>
      </trkpt>
      <trkpt lat="48.60424" lon="6.15972">
        <ele>234.10059</ele>
        <time>2026-05-18T10:39:53+02:00</time>
      </trkpt>
      <trkpt lat="48.60428" lon="6.15977">
        <ele>234.40039</ele>
        <time>2026-05-18T10:39:54+02:00</time>
      </trkpt>
      <trkpt lat="48.60431" lon="6.15981">
        <ele>234.40039</ele>
        <time>2026-05-18T10:39:55+02:00</time>
      </trkpt>
      <trkpt lat="48.60434" lon="6.15987">
        <ele>234.5</ele>
        <time>2026-05-18T10:39:56+02:00</time>
      </trkpt>
      <trkpt lat="48.60438" lon="6.15992">
        <ele>234.40039</ele>
        <time>2026-05-18T10:39:57+02:00</time>
      </trkpt>
      <trkpt lat="48.60442" lon="6.15998">
        <ele>234.40039</ele>
        <time>2026-05-18T10:39:58+02:00</time>
      </trkpt>
      <trkpt lat="48.60445" lon="6.16004">
        <ele>234.7998</ele>
        <time>2026-05-18T10:39:59+02:00</time>
      </trkpt>
      <trkpt lat="48.60448" lon="6.16011">
        <ele>235.7998</ele>
        <time>2026-05-18T10:40:00+02:00</time>
      </trkpt>
      <trkpt lat="48.60452" lon="6.16017">
        <ele>235.90039</ele>
        <time>2026-05-18T10:40:01+02:00</time>
      </trkpt>
      <trkpt lat="48.60455" lon="6.16023">
        <ele>235.10059</ele>
        <time>2026-05-18T10:40:02+02:00</time>
      </trkpt>
      <trkpt lat="48.60458" lon="6.16029">
        <ele>235.90039</ele>
        <time>2026-05-18T10:40:03+02:00</time>
      </trkpt>
      <trkpt lat="48.60461" lon="6.16036">
        <ele>236.10059</ele>
        <time>2026-05-18T10:40:04+02:00</time>
      </trkpt>
      <trkpt lat="48.60464" lon="6.16042">
        <ele>236.7998</ele>
        <time>2026-05-18T10:40:05+02:00</time>
      </trkpt>
      <trkpt lat="48.60467" lon="6.16048">
        <ele>236.2002</ele>
        <time>2026-05-18T10:40:06+02:00</time>
      </trkpt>
      <trkpt lat="48.6047" lon="6.16055">
        <ele>236.90039</ele>
        <time>2026-05-18T10:40:07+02:00</time>
      </trkpt>
      <trkpt lat="48.60473" lon="6.1606">
        <ele>236.90039</ele>
        <time>2026-05-18T10:40:08+02:00</time>
      </trkpt>
      <trkpt lat="48.60475" lon="6.16066">
        <ele>236.90039</ele>
        <time>2026-05-18T10:40:09+02:00</time>
      </trkpt>
      <trkpt lat="48.60478" lon="6.16072">
        <ele>237.2002</ele>
        <time>2026-05-18T10:40:10+02:00</time>
      </trkpt>
      <trkpt lat="48.60481" lon="6.16077">
        <ele>237.7998</ele>
        <time>2026-05-18T10:40:11+02:00</time>
      </trkpt>
      <trkpt lat="48.60483" lon="6.16083">
        <ele>237.7002</ele>
        <time>2026-05-18T10:40:12+02:00</time>
      </trkpt>
      <trkpt lat="48.60486" lon="6.16088">
        <ele>238.2002</ele>
        <time>2026-05-18T10:40:13+02:00</time>
      </trkpt>
      <trkpt lat="48.60487" lon="6.16093">
        <ele>238.60059</ele>
        <time>2026-05-18T10:40:14+02:00</time>
      </trkpt>
      <trkpt lat="48.6049" lon="6.16097">
        <ele>238.40039</ele>
        <time>2026-05-18T10:40:15+02:00</time>
      </trkpt>
      <trkpt lat="48.60491" lon="6.16101">
        <ele>238.40039</ele>
        <time>2026-05-18T10:40:16+02:00</time>
      </trkpt>
      <trkpt lat="48.60493" lon="6.16105">
        <ele>238.7002</ele>
        <time>2026-05-18T10:40:17+02:00</time>
      </trkpt>
      <trkpt lat="48.60495" lon="6.16109">
        <ele>238.2002</ele>
        <time>2026-05-18T10:40:18+02:00</time>
      </trkpt>
      <trkpt lat="48.60497" lon="6.16115">
        <ele>238.60059</ele>
        <time>2026-05-18T10:40:19+02:00</time>
      </trkpt>
      <trkpt lat="48.60499" lon="6.16121">
        <ele>239.10059</ele>
        <time>2026-05-18T10:40:20+02:00</time>
      </trkpt>
      <trkpt lat="48.605" lon="6.16123">
        <ele>238.7002</ele>
        <time>2026-05-18T10:40:21+02:00</time>
      </trkpt>
      <trkpt lat="48.60503" lon="6.16131">
        <ele>239.10059</ele>
        <time>2026-05-18T10:40:22+02:00</time>
      </trkpt>
      <trkpt lat="48.60505" lon="6.16136">
        <ele>239.5</ele>
        <time>2026-05-18T10:40:23+02:00</time>
      </trkpt>
      <trkpt lat="48.60507" lon="6.16141">
        <ele>239.10059</ele>
        <time>2026-05-18T10:40:24+02:00</time>
      </trkpt>
      <trkpt lat="48.6051" lon="6.16146">
        <ele>239.2998</ele>
        <time>2026-05-18T10:40:25+02:00</time>
      </trkpt>
      <trkpt lat="48.60513" lon="6.16152">
        <ele>238.7002</ele>
        <time>2026-05-18T10:40:26+02:00</time>
      </trkpt>
      <trkpt lat="48.60515" lon="6.16158">
        <ele>238.90039</ele>
        <time>2026-05-18T10:40:27+02:00</time>
      </trkpt>
      <trkpt lat="48.60518" lon="6.16163">
        <ele>238.40039</ele>
        <time>2026-05-18T10:40:28+02:00</time>
      </trkpt>
      <trkpt lat="48.60521" lon="6.1617">
        <ele>238.60059</ele>
        <time>2026-05-18T10:40:29+02:00</time>
      </trkpt>
      <trkpt lat="48.60523" lon="6.16176">
        <ele>238</ele>
        <time>2026-05-18T10:40:30+02:00</time>
      </trkpt>
      <trkpt lat="48.60526" lon="6.16182">
        <ele>238.2998</ele>
        <time>2026-05-18T10:40:31+02:00</time>
      </trkpt>
      <trkpt lat="48.60529" lon="6.16188">
        <ele>238.2998</ele>
        <time>2026-05-18T10:40:32+02:00</time>
      </trkpt>
      <trkpt lat="48.60532" lon="6.16194">
        <ele>238.2998</ele>
        <time>2026-05-18T10:40:33+02:00</time>
      </trkpt>
      <trkpt lat="48.60534" lon="6.162">
        <ele>238.2998</ele>
        <time>2026-05-18T10:40:34+02:00</time>
      </trkpt>
      <trkpt lat="48.60537" lon="6.16207">
        <ele>238.7002</ele>
        <time>2026-05-18T10:40:35+02:00</time>
      </trkpt>
      <trkpt lat="48.6054" lon="6.16213">
        <ele>238.60059</ele>
        <time>2026-05-18T10:40:36+02:00</time>
      </trkpt>
      <trkpt lat="48.60543" lon="6.1622">
        <ele>238.60059</ele>
        <time>2026-05-18T10:40:37+02:00</time>
      </trkpt>
      <trkpt lat="48.60545" lon="6.16227">
        <ele>238.60059</ele>
        <time>2026-05-18T10:40:38+02:00</time>
      </trkpt>
      <trkpt lat="48.60549" lon="6.16234">
        <ele>238.7002</ele>
        <time>2026-05-18T10:40:39+02:00</time>
      </trkpt>
      <trkpt lat="48.60552" lon="6.16241">
        <ele>238.40039</ele>
        <time>2026-05-18T10:40:40+02:00</time>
      </trkpt>
      <trkpt lat="48.60554" lon="6.16248">
        <ele>238.40039</ele>
        <time>2026-05-18T10:40:41+02:00</time>
      </trkpt>
      <trkpt lat="48.60557" lon="6.16254">
        <ele>238.10059</ele>
        <time>2026-05-18T10:40:42+02:00</time>
      </trkpt>
      <trkpt lat="48.6056" lon="6.16261">
        <ele>238</ele>
        <time>2026-05-18T10:40:43+02:00</time>
      </trkpt>
      <trkpt lat="48.60562" lon="6.16267">
        <ele>237.60059</ele>
        <time>2026-05-18T10:40:44+02:00</time>
      </trkpt>
      <trkpt lat="48.60565" lon="6.16273">
        <ele>237.7002</ele>
        <time>2026-05-18T10:40:45+02:00</time>
      </trkpt>
      <trkpt lat="48.60568" lon="6.16281">
        <ele>237.2998</ele>
        <time>2026-05-18T10:40:46+02:00</time>
      </trkpt>
      <trkpt lat="48.6057" lon="6.16287">
        <ele>237.60059</ele>
        <time>2026-05-18T10:40:47+02:00</time>
      </trkpt>
      <trkpt lat="48.60573" lon="6.16293">
        <ele>237.7998</ele>
        <time>2026-05-18T10:40:48+02:00</time>
      </trkpt>
      <trkpt lat="48.60576" lon="6.163">
        <ele>237.7998</ele>
        <time>2026-05-18T10:40:49+02:00</time>
      </trkpt>
      <trkpt lat="48.60578" lon="6.16306">
        <ele>237.7998</ele>
        <time>2026-05-18T10:40:50+02:00</time>
      </trkpt>
      <trkpt lat="48.60582" lon="6.16314">
        <ele>237.7002</ele>
        <time>2026-05-18T10:40:51+02:00</time>
      </trkpt>
      <trkpt lat="48.60585" lon="6.16321">
        <ele>237.2002</ele>
        <time>2026-05-18T10:40:52+02:00</time>
      </trkpt>
      <trkpt lat="48.60588" lon="6.16328">
        <ele>237.2002</ele>
        <time>2026-05-18T10:40:53+02:00</time>
      </trkpt>
      <trkpt lat="48.6059" lon="6.16334">
        <ele>237.2002</ele>
        <time>2026-05-18T10:40:54+02:00</time>
      </trkpt>
      <trkpt lat="48.60593" lon="6.1634">
        <ele>236.7002</ele>
        <time>2026-05-18T10:40:55+02:00</time>
      </trkpt>
      <trkpt lat="48.60595" lon="6.16346">
        <ele>236.90039</ele>
        <time>2026-05-18T10:40:56+02:00</time>
      </trkpt>
      <trkpt lat="48.60598" lon="6.16352">
        <ele>236.90039</ele>
        <time>2026-05-18T10:40:57+02:00</time>
      </trkpt>
      <trkpt lat="48.60601" lon="6.16358">
        <ele>236.90039</ele>
        <time>2026-05-18T10:40:58+02:00</time>
      </trkpt>
      <trkpt lat="48.60603" lon="6.16364">
        <ele>236.90039</ele>
        <time>2026-05-18T10:40:59+02:00</time>
      </trkpt>
      <trkpt lat="48.60605" lon="6.16371">
        <ele>237.10059</ele>
        <time>2026-05-18T10:41:00+02:00</time>
      </trkpt>
      <trkpt lat="48.60608" lon="6.16377">
        <ele>236.7998</ele>
        <time>2026-05-18T10:41:01+02:00</time>
      </trkpt>
      <trkpt lat="48.6061" lon="6.16383">
        <ele>236.7998</ele>
        <time>2026-05-18T10:41:02+02:00</time>
      </trkpt>
      <trkpt lat="48.60613" lon="6.16389">
        <ele>236.10059</ele>
        <time>2026-05-18T10:41:03+02:00</time>
      </trkpt>
      <trkpt lat="48.60616" lon="6.16395">
        <ele>236.2002</ele>
        <time>2026-05-18T10:41:04+02:00</time>
      </trkpt>
      <trkpt lat="48.60619" lon="6.16401">
        <ele>235.60059</ele>
        <time>2026-05-18T10:41:05+02:00</time>
      </trkpt>
      <trkpt lat="48.60621" lon="6.16406">
        <ele>235.90039</ele>
        <time>2026-05-18T10:41:06+02:00</time>
      </trkpt>
      <trkpt lat="48.60624" lon="6.16412">
        <ele>236.2998</ele>
        <time>2026-05-18T10:41:07+02:00</time>
      </trkpt>
      <trkpt lat="48.60626" lon="6.16419">
        <ele>236.2998</ele>
        <time>2026-05-18T10:41:08+02:00</time>
      </trkpt>
      <trkpt lat="48.60629" lon="6.16425">
        <ele>236.2998</ele>
        <time>2026-05-18T10:41:09+02:00</time>
      </trkpt>
      <trkpt lat="48.60632" lon="6.16432">
        <ele>236.2998</ele>
        <time>2026-05-18T10:41:10+02:00</time>
      </trkpt>
      <trkpt lat="48.60636" lon="6.16439">
        <ele>235.90039</ele>
        <time>2026-05-18T10:41:11+02:00</time>
      </trkpt>
      <trkpt lat="48.60639" lon="6.16446">
        <ele>236.10059</ele>
        <time>2026-05-18T10:41:12+02:00</time>
      </trkpt>
      <trkpt lat="48.60641" lon="6.16453">
        <ele>236.10059</ele>
        <time>2026-05-18T10:41:13+02:00</time>
      </trkpt>
      <trkpt lat="48.60644" lon="6.1646">
        <ele>235.60059</ele>
        <time>2026-05-18T10:41:14+02:00</time>
      </trkpt>
      <trkpt lat="48.60648" lon="6.16468">
        <ele>235.40039</ele>
        <time>2026-05-18T10:41:15+02:00</time>
      </trkpt>
      <trkpt lat="48.60651" lon="6.16475">
        <ele>235.7998</ele>
        <time>2026-05-18T10:41:16+02:00</time>
      </trkpt>
      <trkpt lat="48.60654" lon="6.16482">
        <ele>236</ele>
        <time>2026-05-18T10:41:17+02:00</time>
      </trkpt>
      <trkpt lat="48.60657" lon="6.16488">
        <ele>236.60059</ele>
        <time>2026-05-18T10:41:18+02:00</time>
      </trkpt>
      <trkpt lat="48.6066" lon="6.16494">
        <ele>236</ele>
        <time>2026-05-18T10:41:19+02:00</time>
      </trkpt>
      <trkpt lat="48.60662" lon="6.16501">
        <ele>236.40039</ele>
        <time>2026-05-18T10:41:20+02:00</time>
      </trkpt>
      <trkpt lat="48.60665" lon="6.16506">
        <ele>235.90039</ele>
        <time>2026-05-18T10:41:21+02:00</time>
      </trkpt>
      <trkpt lat="48.60668" lon="6.16511">
        <ele>235.90039</ele>
        <time>2026-05-18T10:41:22+02:00</time>
      </trkpt>
      <trkpt lat="48.6067" lon="6.16517">
        <ele>235.40039</ele>
        <time>2026-05-18T10:41:23+02:00</time>
      </trkpt>
      <trkpt lat="48.60672" lon="6.16522">
        <ele>235.7998</ele>
        <time>2026-05-18T10:41:24+02:00</time>
      </trkpt>
      <trkpt lat="48.60674" lon="6.16527">
        <ele>235.7998</ele>
        <time>2026-05-18T10:41:25+02:00</time>
      </trkpt>
      <trkpt lat="48.60677" lon="6.16532">
        <ele>235.7002</ele>
        <time>2026-05-18T10:41:26+02:00</time>
      </trkpt>
      <trkpt lat="48.60679" lon="6.16536">
        <ele>235.7002</ele>
        <time>2026-05-18T10:41:27+02:00</time>
      </trkpt>
      <trkpt lat="48.60682" lon="6.16541">
        <ele>235.7002</ele>
        <time>2026-05-18T10:41:28+02:00</time>
      </trkpt>
      <trkpt lat="48.60684" lon="6.16546">
        <ele>235.7002</ele>
        <time>2026-05-18T10:41:29+02:00</time>
      </trkpt>
      <trkpt lat="48.60686" lon="6.16552">
        <ele>236.10059</ele>
        <time>2026-05-18T10:41:30+02:00</time>
      </trkpt>
      <trkpt lat="48.60689" lon="6.16558">
        <ele>235.40039</ele>
        <time>2026-05-18T10:41:31+02:00</time>
      </trkpt>
      <trkpt lat="48.6069" lon="6.16563">
        <ele>235.40039</ele>
        <time>2026-05-18T10:41:32+02:00</time>
      </trkpt>
      <trkpt lat="48.60691" lon="6.16567">
        <ele>235.7998</ele>
        <time>2026-05-18T10:41:33+02:00</time>
      </trkpt>
      <trkpt lat="48.60694" lon="6.16575">
        <ele>234.7998</ele>
        <time>2026-05-18T10:41:34+02:00</time>
      </trkpt>
      <trkpt lat="48.60696" lon="6.16581">
        <ele>234.7998</ele>
        <time>2026-05-18T10:41:35+02:00</time>
      </trkpt>
      <trkpt lat="48.60698" lon="6.16587">
        <ele>234.10059</ele>
        <time>2026-05-18T10:41:36+02:00</time>
      </trkpt>
      <trkpt lat="48.607" lon="6.16593">
        <ele>234.5</ele>
        <time>2026-05-18T10:41:37+02:00</time>
      </trkpt>
      <trkpt lat="48.60703" lon="6.16598">
        <ele>234.5</ele>
        <time>2026-05-18T10:41:38+02:00</time>
      </trkpt>
      <trkpt lat="48.60705" lon="6.16604">
        <ele>233.60059</ele>
        <time>2026-05-18T10:41:39+02:00</time>
      </trkpt>
      <trkpt lat="48.60708" lon="6.16609">
        <ele>234.2002</ele>
        <time>2026-05-18T10:41:40+02:00</time>
      </trkpt>
      <trkpt lat="48.6071" lon="6.16615">
        <ele>232.7998</ele>
        <time>2026-05-18T10:41:41+02:00</time>
      </trkpt>
      <trkpt lat="48.60713" lon="6.1662">
        <ele>233.60059</ele>
        <time>2026-05-18T10:41:42+02:00</time>
      </trkpt>
      <trkpt lat="48.60715" lon="6.16626">
        <ele>233.40039</ele>
        <time>2026-05-18T10:41:43+02:00</time>
      </trkpt>
      <trkpt lat="48.60716" lon="6.16629">
        <ele>233.40039</ele>
        <time>2026-05-18T10:41:44+02:00</time>
      </trkpt>
      <trkpt lat="48.60719" lon="6.16638">
        <ele>234.10059</ele>
        <time>2026-05-18T10:41:45+02:00</time>
      </trkpt>
      <trkpt lat="48.60722" lon="6.16643">
        <ele>234</ele>
        <time>2026-05-18T10:41:46+02:00</time>
      </trkpt>
      <trkpt lat="48.60724" lon="6.1665">
        <ele>234</ele>
        <time>2026-05-18T10:41:47+02:00</time>
      </trkpt>
      <trkpt lat="48.60726" lon="6.16656">
        <ele>234.60059</ele>
        <time>2026-05-18T10:41:48+02:00</time>
      </trkpt>
      <trkpt lat="48.60729" lon="6.16661">
        <ele>234</ele>
        <time>2026-05-18T10:41:49+02:00</time>
      </trkpt>
      <trkpt lat="48.60731" lon="6.16667">
        <ele>234</ele>
        <time>2026-05-18T10:41:50+02:00</time>
      </trkpt>
      <trkpt lat="48.60733" lon="6.16673">
        <ele>233.10059</ele>
        <time>2026-05-18T10:41:51+02:00</time>
      </trkpt>
      <trkpt lat="48.60735" lon="6.16679">
        <ele>233.7998</ele>
        <time>2026-05-18T10:41:52+02:00</time>
      </trkpt>
      <trkpt lat="48.60738" lon="6.16685">
        <ele>233.40039</ele>
        <time>2026-05-18T10:41:53+02:00</time>
      </trkpt>
      <trkpt lat="48.60741" lon="6.16691">
        <ele>233.40039</ele>
        <time>2026-05-18T10:41:54+02:00</time>
      </trkpt>
      <trkpt lat="48.60743" lon="6.16697">
        <ele>234.2998</ele>
        <time>2026-05-18T10:41:55+02:00</time>
      </trkpt>
      <trkpt lat="48.60746" lon="6.16703">
        <ele>234.2002</ele>
        <time>2026-05-18T10:41:56+02:00</time>
      </trkpt>
      <trkpt lat="48.60749" lon="6.16709">
        <ele>233.2002</ele>
        <time>2026-05-18T10:41:57+02:00</time>
      </trkpt>
      <trkpt lat="48.60751" lon="6.16715">
        <ele>233.90039</ele>
        <time>2026-05-18T10:41:58+02:00</time>
      </trkpt>
      <trkpt lat="48.60754" lon="6.16721">
        <ele>234.60059</ele>
        <time>2026-05-18T10:41:59+02:00</time>
      </trkpt>
      <trkpt lat="48.60756" lon="6.16728">
        <ele>233.5</ele>
        <time>2026-05-18T10:42:00+02:00</time>
      </trkpt>
      <trkpt lat="48.60758" lon="6.16734">
        <ele>233.5</ele>
        <time>2026-05-18T10:42:01+02:00</time>
      </trkpt>
      <trkpt lat="48.6076" lon="6.1674">
        <ele>234.40039</ele>
        <time>2026-05-18T10:42:02+02:00</time>
      </trkpt>
      <trkpt lat="48.60763" lon="6.16747">
        <ele>234.10059</ele>
        <time>2026-05-18T10:42:03+02:00</time>
      </trkpt>
      <trkpt lat="48.60765" lon="6.16753">
        <ele>234.10059</ele>
        <time>2026-05-18T10:42:04+02:00</time>
      </trkpt>
      <trkpt lat="48.60767" lon="6.16759">
        <ele>234.60059</ele>
        <time>2026-05-18T10:42:05+02:00</time>
      </trkpt>
      <trkpt lat="48.60769" lon="6.16766">
        <ele>235.5</ele>
        <time>2026-05-18T10:42:06+02:00</time>
      </trkpt>
      <trkpt lat="48.60771" lon="6.16772">
        <ele>236</ele>
        <time>2026-05-18T10:42:07+02:00</time>
      </trkpt>
      <trkpt lat="48.60774" lon="6.16779">
        <ele>234.90039</ele>
        <time>2026-05-18T10:42:08+02:00</time>
      </trkpt>
      <trkpt lat="48.60776" lon="6.16786">
        <ele>234.90039</ele>
        <time>2026-05-18T10:42:09+02:00</time>
      </trkpt>
      <trkpt lat="48.60778" lon="6.16793">
        <ele>233.2998</ele>
        <time>2026-05-18T10:42:10+02:00</time>
      </trkpt>
      <trkpt lat="48.6078" lon="6.16799">
        <ele>233.60059</ele>
        <time>2026-05-18T10:42:11+02:00</time>
      </trkpt>
      <trkpt lat="48.60782" lon="6.16806">
        <ele>234</ele>
        <time>2026-05-18T10:42:12+02:00</time>
      </trkpt>
      <trkpt lat="48.60784" lon="6.16814">
        <ele>232.7002</ele>
        <time>2026-05-18T10:42:13+02:00</time>
      </trkpt>
      <trkpt lat="48.60786" lon="6.1682">
        <ele>232.7002</ele>
        <time>2026-05-18T10:42:14+02:00</time>
      </trkpt>
      <trkpt lat="48.60788" lon="6.16827">
        <ele>233.2002</ele>
        <time>2026-05-18T10:42:15+02:00</time>
      </trkpt>
      <trkpt lat="48.6079" lon="6.16834">
        <ele>231.7002</ele>
        <time>2026-05-18T10:42:16+02:00</time>
      </trkpt>
      <trkpt lat="48.60792" lon="6.1684">
        <ele>232.90039</ele>
        <time>2026-05-18T10:42:17+02:00</time>
      </trkpt>
      <trkpt lat="48.60793" lon="6.16847">
        <ele>232.90039</ele>
        <time>2026-05-18T10:42:18+02:00</time>
      </trkpt>
      <trkpt lat="48.60795" lon="6.16854">
        <ele>232.90039</ele>
        <time>2026-05-18T10:42:19+02:00</time>
      </trkpt>
      <trkpt lat="48.60797" lon="6.16861">
        <ele>234.2002</ele>
        <time>2026-05-18T10:42:20+02:00</time>
      </trkpt>
      <trkpt lat="48.60799" lon="6.16868">
        <ele>235</ele>
        <time>2026-05-18T10:42:21+02:00</time>
      </trkpt>
      <trkpt lat="48.60801" lon="6.16875">
        <ele>234.2002</ele>
        <time>2026-05-18T10:42:22+02:00</time>
      </trkpt>
      <trkpt lat="48.60803" lon="6.16881">
        <ele>234.2002</ele>
        <time>2026-05-18T10:42:23+02:00</time>
      </trkpt>
      <trkpt lat="48.60804" lon="6.16887">
        <ele>234.5</ele>
        <time>2026-05-18T10:42:24+02:00</time>
      </trkpt>
      <trkpt lat="48.60806" lon="6.16894">
        <ele>232.7998</ele>
        <time>2026-05-18T10:42:25+02:00</time>
      </trkpt>
      <trkpt lat="48.60807" lon="6.16901">
        <ele>233</ele>
        <time>2026-05-18T10:42:26+02:00</time>
      </trkpt>
      <trkpt lat="48.60809" lon="6.16908">
        <ele>233</ele>
        <time>2026-05-18T10:42:27+02:00</time>
      </trkpt>
      <trkpt lat="48.60811" lon="6.16916">
        <ele>233.10059</ele>
        <time>2026-05-18T10:42:28+02:00</time>
      </trkpt>
      <trkpt lat="48.60812" lon="6.16924">
        <ele>231.2998</ele>
        <time>2026-05-18T10:42:29+02:00</time>
      </trkpt>
      <trkpt lat="48.60813" lon="6.16931">
        <ele>231.40039</ele>
        <time>2026-05-18T10:42:30+02:00</time>
      </trkpt>
      <trkpt lat="48.60814" lon="6.16938">
        <ele>231.40039</ele>
        <time>2026-05-18T10:42:31+02:00</time>
      </trkpt>
      <trkpt lat="48.60816" lon="6.16945">
        <ele>231.5</ele>
        <time>2026-05-18T10:42:32+02:00</time>
      </trkpt>
      <trkpt lat="48.60817" lon="6.16952">
        <ele>231.60059</ele>
        <time>2026-05-18T10:42:33+02:00</time>
      </trkpt>
      <trkpt lat="48.60817" lon="6.16959">
        <ele>231.60059</ele>
        <time>2026-05-18T10:42:34+02:00</time>
      </trkpt>
      <trkpt lat="48.60819" lon="6.16966">
        <ele>230.2998</ele>
        <time>2026-05-18T10:42:35+02:00</time>
      </trkpt>
      <trkpt lat="48.6082" lon="6.16973">
        <ele>230.40039</ele>
        <time>2026-05-18T10:42:36+02:00</time>
      </trkpt>
      <trkpt lat="48.6082" lon="6.16981">
        <ele>230.7002</ele>
        <time>2026-05-18T10:42:37+02:00</time>
      </trkpt>
      <trkpt lat="48.60821" lon="6.16988">
        <ele>230.90039</ele>
        <time>2026-05-18T10:42:38+02:00</time>
      </trkpt>
      <trkpt lat="48.60822" lon="6.16996">
        <ele>231.10059</ele>
        <time>2026-05-18T10:42:39+02:00</time>
      </trkpt>
      <trkpt lat="48.60823" lon="6.17003">
        <ele>230.5</ele>
        <time>2026-05-18T10:42:40+02:00</time>
      </trkpt>
      <trkpt lat="48.60824" lon="6.1701">
        <ele>230.5</ele>
        <time>2026-05-18T10:42:41+02:00</time>
      </trkpt>
      <trkpt lat="48.60825" lon="6.17018">
        <ele>231.7998</ele>
        <time>2026-05-18T10:42:42+02:00</time>
      </trkpt>
      <trkpt lat="48.60825" lon="6.17026">
        <ele>233</ele>
        <time>2026-05-18T10:42:43+02:00</time>
      </trkpt>
      <trkpt lat="48.60826" lon="6.17033">
        <ele>233.90039</ele>
        <time>2026-05-18T10:42:44+02:00</time>
      </trkpt>
      <trkpt lat="48.60827" lon="6.1704">
        <ele>234.5</ele>
        <time>2026-05-18T10:42:45+02:00</time>
      </trkpt>
      <trkpt lat="48.60827" lon="6.17047">
        <ele>234.90039</ele>
        <time>2026-05-18T10:42:46+02:00</time>
      </trkpt>
      <trkpt lat="48.60828" lon="6.17053">
        <ele>234.90039</ele>
        <time>2026-05-18T10:42:47+02:00</time>
      </trkpt>
      <trkpt lat="48.60828" lon="6.1706">
        <ele>235.2002</ele>
        <time>2026-05-18T10:42:48+02:00</time>
      </trkpt>
      <trkpt lat="48.60828" lon="6.17066">
        <ele>235.40039</ele>
        <time>2026-05-18T10:42:49+02:00</time>
      </trkpt>
      <trkpt lat="48.60828" lon="6.17073">
        <ele>235.5</ele>
        <time>2026-05-18T10:42:50+02:00</time>
      </trkpt>
      <trkpt lat="48.60829" lon="6.17079">
        <ele>234.2002</ele>
        <time>2026-05-18T10:42:51+02:00</time>
      </trkpt>
      <trkpt lat="48.60829" lon="6.17085">
        <ele>234.2998</ele>
        <time>2026-05-18T10:42:52+02:00</time>
      </trkpt>
      <trkpt lat="48.60829" lon="6.17092">
        <ele>234.2998</ele>
        <time>2026-05-18T10:42:53+02:00</time>
      </trkpt>
      <trkpt lat="48.6083" lon="6.17099">
        <ele>234.40039</ele>
        <time>2026-05-18T10:42:54+02:00</time>
      </trkpt>
      <trkpt lat="48.6083" lon="6.17106">
        <ele>234.5</ele>
        <time>2026-05-18T10:42:55+02:00</time>
      </trkpt>
      <trkpt lat="48.60831" lon="6.17113">
        <ele>234.5</ele>
        <time>2026-05-18T10:42:56+02:00</time>
      </trkpt>
      <trkpt lat="48.60831" lon="6.1712">
        <ele>234.60059</ele>
        <time>2026-05-18T10:42:57+02:00</time>
      </trkpt>
      <trkpt lat="48.60832" lon="6.17127">
        <ele>234.7002</ele>
        <time>2026-05-18T10:42:58+02:00</time>
      </trkpt>
      <trkpt lat="48.60832" lon="6.17134">
        <ele>234.7998</ele>
        <time>2026-05-18T10:42:59+02:00</time>
      </trkpt>
      <trkpt lat="48.60832" lon="6.17141">
        <ele>234.90039</ele>
        <time>2026-05-18T10:43:00+02:00</time>
      </trkpt>
      <trkpt lat="48.60832" lon="6.17149">
        <ele>235</ele>
        <time>2026-05-18T10:43:01+02:00</time>
      </trkpt>
      <trkpt lat="48.60832" lon="6.17156">
        <ele>235</ele>
        <time>2026-05-18T10:43:02+02:00</time>
      </trkpt>
      <trkpt lat="48.60833" lon="6.17164">
        <ele>235.10059</ele>
        <time>2026-05-18T10:43:03+02:00</time>
      </trkpt>
      <trkpt lat="48.60833" lon="6.17171">
        <ele>235.10059</ele>
        <time>2026-05-18T10:43:04+02:00</time>
      </trkpt>
      <trkpt lat="48.60833" lon="6.17179">
        <ele>235.2002</ele>
        <time>2026-05-18T10:43:05+02:00</time>
      </trkpt>
      <trkpt lat="48.60833" lon="6.17187">
        <ele>235.2998</ele>
        <time>2026-05-18T10:43:06+02:00</time>
      </trkpt>
      <trkpt lat="48.60833" lon="6.17194">
        <ele>235.2998</ele>
        <time>2026-05-18T10:43:07+02:00</time>
      </trkpt>
      <trkpt lat="48.60833" lon="6.17201">
        <ele>235.40039</ele>
        <time>2026-05-18T10:43:08+02:00</time>
      </trkpt>
      <trkpt lat="48.60833" lon="6.17208">
        <ele>235.40039</ele>
        <time>2026-05-18T10:43:09+02:00</time>
      </trkpt>
      <trkpt lat="48.60833" lon="6.17216">
        <ele>235.5</ele>
        <time>2026-05-18T10:43:10+02:00</time>
      </trkpt>
      <trkpt lat="48.60833" lon="6.17224">
        <ele>235.60059</ele>
        <time>2026-05-18T10:43:11+02:00</time>
      </trkpt>
      <trkpt lat="48.60833" lon="6.17232">
        <ele>235.7002</ele>
        <time>2026-05-18T10:43:12+02:00</time>
      </trkpt>
      <trkpt lat="48.60833" lon="6.17239">
        <ele>235.7998</ele>
        <time>2026-05-18T10:43:13+02:00</time>
      </trkpt>
      <trkpt lat="48.60832" lon="6.17247">
        <ele>235.90039</ele>
        <time>2026-05-18T10:43:14+02:00</time>
      </trkpt>
      <trkpt lat="48.60832" lon="6.17255">
        <ele>236</ele>
        <time>2026-05-18T10:43:15+02:00</time>
      </trkpt>
      <trkpt lat="48.60832" lon="6.17263">
        <ele>236.10059</ele>
        <time>2026-05-18T10:43:16+02:00</time>
      </trkpt>
      <trkpt lat="48.60832" lon="6.1727">
        <ele>236.2998</ele>
        <time>2026-05-18T10:43:17+02:00</time>
      </trkpt>
      <trkpt lat="48.60832" lon="6.17277">
        <ele>236.2998</ele>
        <time>2026-05-18T10:43:18+02:00</time>
      </trkpt>
      <trkpt lat="48.60831" lon="6.17284">
        <ele>236.5</ele>
        <time>2026-05-18T10:43:19+02:00</time>
      </trkpt>
      <trkpt lat="48.60831" lon="6.17291">
        <ele>236.60059</ele>
        <time>2026-05-18T10:43:20+02:00</time>
      </trkpt>
      <trkpt lat="48.60831" lon="6.17297">
        <ele>237</ele>
        <time>2026-05-18T10:43:21+02:00</time>
      </trkpt>
      <trkpt lat="48.6083" lon="6.17304">
        <ele>237.2002</ele>
        <time>2026-05-18T10:43:22+02:00</time>
      </trkpt>
      <trkpt lat="48.6083" lon="6.1731">
        <ele>237.2002</ele>
        <time>2026-05-18T10:43:23+02:00</time>
      </trkpt>
      <trkpt lat="48.6083" lon="6.17316">
        <ele>237.5</ele>
        <time>2026-05-18T10:43:24+02:00</time>
      </trkpt>
      <trkpt lat="48.6083" lon="6.1732">
        <ele>237.5</ele>
        <time>2026-05-18T10:43:25+02:00</time>
      </trkpt>
      <trkpt lat="48.6083" lon="6.17325">
        <ele>237.7002</ele>
        <time>2026-05-18T10:43:26+02:00</time>
      </trkpt>
      <trkpt lat="48.60829" lon="6.1733">
        <ele>238</ele>
        <time>2026-05-18T10:43:27+02:00</time>
      </trkpt>
      <trkpt lat="48.60829" lon="6.17332">
        <ele>238</ele>
        <time>2026-05-18T10:43:28+02:00</time>
      </trkpt>
      <trkpt lat="48.6083" lon="6.17338">
        <ele>237.90039</ele>
        <time>2026-05-18T10:43:29+02:00</time>
      </trkpt>
      <trkpt lat="48.6083" lon="6.17341">
        <ele>237.90039</ele>
        <time>2026-05-18T10:43:30+02:00</time>
      </trkpt>
      <trkpt lat="48.6083" lon="6.17344">
        <ele>237.90039</ele>
        <time>2026-05-18T10:43:31+02:00</time>
      </trkpt>
      <trkpt lat="48.6083" lon="6.17347">
        <ele>237.7002</ele>
        <time>2026-05-18T10:43:32+02:00</time>
      </trkpt>
      <trkpt lat="48.6083" lon="6.17348">
        <ele>237.7002</ele>
        <time>2026-05-18T10:43:33+02:00</time>
      </trkpt>
      <trkpt lat="48.6083" lon="6.17348">
        <ele>237.7002</ele>
        <time>2026-05-18T10:43:34+02:00</time>
      </trkpt>
      <trkpt lat="48.6083" lon="6.17348">
        <ele>237.7002</ele>
        <time>2026-05-18T10:43:35+02:00</time>
      </trkpt>
      <trkpt lat="48.60833" lon="6.17373">
        <ele>236.40039</ele>
        <time>2026-05-18T10:44:14+02:00</time>
      </trkpt>
      <trkpt lat="48.60833" lon="6.17378">
        <ele>236.40039</ele>
        <time>2026-05-18T10:44:15+02:00</time>
      </trkpt>
      <trkpt lat="48.60833" lon="6.17382">
        <ele>235.2002</ele>
        <time>2026-05-18T10:44:16+02:00</time>
      </trkpt>
      <trkpt lat="48.60833" lon="6.17387">
        <ele>235.2002</ele>
        <time>2026-05-18T10:44:17+02:00</time>
      </trkpt>
      <trkpt lat="48.60833" lon="6.17393">
        <ele>233.90039</ele>
        <time>2026-05-18T10:44:18+02:00</time>
      </trkpt>
      <trkpt lat="48.60833" lon="6.17398">
        <ele>233.10059</ele>
        <time>2026-05-18T10:44:19+02:00</time>
      </trkpt>
      <trkpt lat="48.60833" lon="6.17404">
        <ele>233.10059</ele>
        <time>2026-05-18T10:44:20+02:00</time>
      </trkpt>
      <trkpt lat="48.60833" lon="6.1741">
        <ele>232.7002</ele>
        <time>2026-05-18T10:44:21+02:00</time>
      </trkpt>
      <trkpt lat="48.60833" lon="6.17416">
        <ele>232.40039</ele>
        <time>2026-05-18T10:44:22+02:00</time>
      </trkpt>
      <trkpt lat="48.60833" lon="6.17423">
        <ele>232.40039</ele>
        <time>2026-05-18T10:44:23+02:00</time>
      </trkpt>
      <trkpt lat="48.60832" lon="6.1743">
        <ele>232.2998</ele>
        <time>2026-05-18T10:44:24+02:00</time>
      </trkpt>
      <trkpt lat="48.60831" lon="6.17436">
        <ele>232.2002</ele>
        <time>2026-05-18T10:44:25+02:00</time>
      </trkpt>
      <trkpt lat="48.6083" lon="6.17444">
        <ele>232.2002</ele>
        <time>2026-05-18T10:44:26+02:00</time>
      </trkpt>
      <trkpt lat="48.6083" lon="6.17451">
        <ele>232.2998</ele>
        <time>2026-05-18T10:44:27+02:00</time>
      </trkpt>
      <trkpt lat="48.60829" lon="6.17459">
        <ele>232.40039</ele>
        <time>2026-05-18T10:44:28+02:00</time>
      </trkpt>
      <trkpt lat="48.60829" lon="6.17467">
        <ele>232.5</ele>
        <time>2026-05-18T10:44:29+02:00</time>
      </trkpt>
      <trkpt lat="48.60828" lon="6.17475">
        <ele>235.2002</ele>
        <time>2026-05-18T10:44:30+02:00</time>
      </trkpt>
      <trkpt lat="48.60828" lon="6.17484">
        <ele>235.40039</ele>
        <time>2026-05-18T10:44:31+02:00</time>
      </trkpt>
      <trkpt lat="48.60828" lon="6.17492">
        <ele>235.5</ele>
        <time>2026-05-18T10:44:32+02:00</time>
      </trkpt>
      <trkpt lat="48.60827" lon="6.175">
        <ele>235.5</ele>
        <time>2026-05-18T10:44:33+02:00</time>
      </trkpt>
      <trkpt lat="48.60826" lon="6.17508">
        <ele>235.60059</ele>
        <time>2026-05-18T10:44:34+02:00</time>
      </trkpt>
      <trkpt lat="48.60826" lon="6.17515">
        <ele>235.7002</ele>
        <time>2026-05-18T10:44:35+02:00</time>
      </trkpt>
      <trkpt lat="48.60826" lon="6.17523">
        <ele>235.90039</ele>
        <time>2026-05-18T10:44:36+02:00</time>
      </trkpt>
      <trkpt lat="48.60826" lon="6.1753">
        <ele>236</ele>
        <time>2026-05-18T10:44:37+02:00</time>
      </trkpt>
      <trkpt lat="48.60826" lon="6.17537">
        <ele>236.10059</ele>
        <time>2026-05-18T10:44:38+02:00</time>
      </trkpt>
      <trkpt lat="48.60826" lon="6.17545">
        <ele>236.2998</ele>
        <time>2026-05-18T10:44:39+02:00</time>
      </trkpt>
      <trkpt lat="48.60825" lon="6.17552">
        <ele>236.40039</ele>
        <time>2026-05-18T10:44:40+02:00</time>
      </trkpt>
      <trkpt lat="48.60825" lon="6.17559">
        <ele>236.40039</ele>
        <time>2026-05-18T10:44:41+02:00</time>
      </trkpt>
      <trkpt lat="48.60826" lon="6.17567">
        <ele>236.5</ele>
        <time>2026-05-18T10:44:42+02:00</time>
      </trkpt>
      <trkpt lat="48.60826" lon="6.17575">
        <ele>236.60059</ele>
        <time>2026-05-18T10:44:43+02:00</time>
      </trkpt>
      <trkpt lat="48.60826" lon="6.17583">
        <ele>236.7998</ele>
        <time>2026-05-18T10:44:44+02:00</time>
      </trkpt>
      <trkpt lat="48.60825" lon="6.17592">
        <ele>236.90039</ele>
        <time>2026-05-18T10:44:45+02:00</time>
      </trkpt>
      <trkpt lat="48.60826" lon="6.17596">
        <ele>237</ele>
        <time>2026-05-18T10:44:46+02:00</time>
      </trkpt>
      <trkpt lat="48.60826" lon="6.17609">
        <ele>237.10059</ele>
        <time>2026-05-18T10:44:47+02:00</time>
      </trkpt>
      <trkpt lat="48.60825" lon="6.17618">
        <ele>237.2998</ele>
        <time>2026-05-18T10:44:48+02:00</time>
      </trkpt>
      <trkpt lat="48.60826" lon="6.17626">
        <ele>237.40039</ele>
        <time>2026-05-18T10:44:49+02:00</time>
      </trkpt>
      <trkpt lat="48.60826" lon="6.17635">
        <ele>237.5</ele>
        <time>2026-05-18T10:44:50+02:00</time>
      </trkpt>
      <trkpt lat="48.60827" lon="6.17644">
        <ele>237.60059</ele>
        <time>2026-05-18T10:44:51+02:00</time>
      </trkpt>
      <trkpt lat="48.60827" lon="6.17653">
        <ele>237.7998</ele>
        <time>2026-05-18T10:44:52+02:00</time>
      </trkpt>
      <trkpt lat="48.60827" lon="6.17662">
        <ele>237.90039</ele>
        <time>2026-05-18T10:44:53+02:00</time>
      </trkpt>
      <trkpt lat="48.60826" lon="6.1767">
        <ele>238</ele>
        <time>2026-05-18T10:44:54+02:00</time>
      </trkpt>
      <trkpt lat="48.60826" lon="6.17679">
        <ele>238.2002</ele>
        <time>2026-05-18T10:44:55+02:00</time>
      </trkpt>
      <trkpt lat="48.60826" lon="6.17688">
        <ele>238.2998</ele>
        <time>2026-05-18T10:44:56+02:00</time>
      </trkpt>
      <trkpt lat="48.60826" lon="6.17697">
        <ele>238.5</ele>
        <time>2026-05-18T10:44:57+02:00</time>
      </trkpt>
      <trkpt lat="48.60827" lon="6.17706">
        <ele>238.60059</ele>
        <time>2026-05-18T10:44:58+02:00</time>
      </trkpt>
      <trkpt lat="48.60826" lon="6.17715">
        <ele>238.7998</ele>
        <time>2026-05-18T10:44:59+02:00</time>
      </trkpt>
      <trkpt lat="48.60826" lon="6.17724">
        <ele>238.90039</ele>
        <time>2026-05-18T10:45:00+02:00</time>
      </trkpt>
      <trkpt lat="48.60827" lon="6.17733">
        <ele>238.7998</ele>
        <time>2026-05-18T10:45:01+02:00</time>
      </trkpt>
      <trkpt lat="48.60827" lon="6.17741">
        <ele>238.7998</ele>
        <time>2026-05-18T10:45:02+02:00</time>
      </trkpt>
      <trkpt lat="48.60827" lon="6.1775">
        <ele>237.10059</ele>
        <time>2026-05-18T10:45:03+02:00</time>
      </trkpt>
      <trkpt lat="48.60827" lon="6.17759">
        <ele>234.40039</ele>
        <time>2026-05-18T10:45:04+02:00</time>
      </trkpt>
      <trkpt lat="48.60826" lon="6.17767">
        <ele>231.90039</ele>
        <time>2026-05-18T10:45:05+02:00</time>
      </trkpt>
      <trkpt lat="48.60826" lon="6.17776">
        <ele>230.7998</ele>
        <time>2026-05-18T10:45:06+02:00</time>
      </trkpt>
      <trkpt lat="48.60826" lon="6.17784">
        <ele>230.2998</ele>
        <time>2026-05-18T10:45:07+02:00</time>
      </trkpt>
      <trkpt lat="48.60826" lon="6.17793">
        <ele>230.2002</ele>
        <time>2026-05-18T10:45:08+02:00</time>
      </trkpt>
      <trkpt lat="48.60827" lon="6.17802">
        <ele>230.5</ele>
        <time>2026-05-18T10:45:09+02:00</time>
      </trkpt>
      <trkpt lat="48.60827" lon="6.1781">
        <ele>230.7002</ele>
        <time>2026-05-18T10:45:10+02:00</time>
      </trkpt>
      <trkpt lat="48.60827" lon="6.17818">
        <ele>230.7002</ele>
        <time>2026-05-18T10:45:11+02:00</time>
      </trkpt>
      <trkpt lat="48.60826" lon="6.17827">
        <ele>230.7998</ele>
        <time>2026-05-18T10:45:12+02:00</time>
      </trkpt>
      <trkpt lat="48.60826" lon="6.17835">
        <ele>230.7998</ele>
        <time>2026-05-18T10:45:13+02:00</time>
      </trkpt>
      <trkpt lat="48.60826" lon="6.17844">
        <ele>231</ele>
        <time>2026-05-18T10:45:14+02:00</time>
      </trkpt>
      <trkpt lat="48.60826" lon="6.17853">
        <ele>231.10059</ele>
        <time>2026-05-18T10:45:15+02:00</time>
      </trkpt>
      <trkpt lat="48.60826" lon="6.17861">
        <ele>231.2998</ele>
        <time>2026-05-18T10:45:16+02:00</time>
      </trkpt>
      <trkpt lat="48.60826" lon="6.17868">
        <ele>231.2998</ele>
        <time>2026-05-18T10:45:17+02:00</time>
      </trkpt>
      <trkpt lat="48.60826" lon="6.17876">
        <ele>231.40039</ele>
        <time>2026-05-18T10:45:18+02:00</time>
      </trkpt>
      <trkpt lat="48.60826" lon="6.17884">
        <ele>231.5</ele>
        <time>2026-05-18T10:45:19+02:00</time>
      </trkpt>
      <trkpt lat="48.60826" lon="6.17888">
        <ele>231.60059</ele>
        <time>2026-05-18T10:45:20+02:00</time>
      </trkpt>
      <trkpt lat="48.60826" lon="6.17901">
        <ele>231.7002</ele>
        <time>2026-05-18T10:45:21+02:00</time>
      </trkpt>
      <trkpt lat="48.60826" lon="6.1791">
        <ele>231.7998</ele>
        <time>2026-05-18T10:45:22+02:00</time>
      </trkpt>
      <trkpt lat="48.60826" lon="6.17914">
        <ele>232</ele>
        <time>2026-05-18T10:45:23+02:00</time>
      </trkpt>
      <trkpt lat="48.60826" lon="6.17927">
        <ele>232.10059</ele>
        <time>2026-05-18T10:45:24+02:00</time>
      </trkpt>
      <trkpt lat="48.60827" lon="6.17935">
        <ele>232.2002</ele>
        <time>2026-05-18T10:45:25+02:00</time>
      </trkpt>
      <trkpt lat="48.60827" lon="6.17943">
        <ele>232.40039</ele>
        <time>2026-05-18T10:45:26+02:00</time>
      </trkpt>
      <trkpt lat="48.60827" lon="6.17951">
        <ele>232.5</ele>
        <time>2026-05-18T10:45:27+02:00</time>
      </trkpt>
      <trkpt lat="48.60827" lon="6.1796">
        <ele>232.7002</ele>
        <time>2026-05-18T10:45:28+02:00</time>
      </trkpt>
      <trkpt lat="48.60827" lon="6.17968">
        <ele>232.7998</ele>
        <time>2026-05-18T10:45:29+02:00</time>
      </trkpt>
      <trkpt lat="48.60827" lon="6.17977">
        <ele>233</ele>
        <time>2026-05-18T10:45:30+02:00</time>
      </trkpt>
      <trkpt lat="48.60827" lon="6.17985">
        <ele>233.10059</ele>
        <time>2026-05-18T10:45:31+02:00</time>
      </trkpt>
      <trkpt lat="48.60826" lon="6.17994">
        <ele>233.2998</ele>
        <time>2026-05-18T10:45:32+02:00</time>
      </trkpt>
      <trkpt lat="48.60826" lon="6.18002">
        <ele>233.40039</ele>
        <time>2026-05-18T10:45:33+02:00</time>
      </trkpt>
      <trkpt lat="48.60826" lon="6.1801">
        <ele>233.60059</ele>
        <time>2026-05-18T10:45:34+02:00</time>
      </trkpt>
      <trkpt lat="48.60826" lon="6.18018">
        <ele>233.7998</ele>
        <time>2026-05-18T10:45:35+02:00</time>
      </trkpt>
      <trkpt lat="48.60826" lon="6.18023">
        <ele>233.7998</ele>
        <time>2026-05-18T10:45:36+02:00</time>
      </trkpt>
      <trkpt lat="48.60826" lon="6.18036">
        <ele>234.10059</ele>
        <time>2026-05-18T10:45:37+02:00</time>
      </trkpt>
      <trkpt lat="48.60826" lon="6.18044">
        <ele>234.2998</ele>
        <time>2026-05-18T10:45:38+02:00</time>
      </trkpt>
      <trkpt lat="48.60826" lon="6.18052">
        <ele>234.5</ele>
        <time>2026-05-18T10:45:39+02:00</time>
      </trkpt>
      <trkpt lat="48.60826" lon="6.1806">
        <ele>234.7002</ele>
        <time>2026-05-18T10:45:40+02:00</time>
      </trkpt>
      <trkpt lat="48.60826" lon="6.18068">
        <ele>234.90039</ele>
        <time>2026-05-18T10:45:41+02:00</time>
      </trkpt>
      <trkpt lat="48.60826" lon="6.18077">
        <ele>235.10059</ele>
        <time>2026-05-18T10:45:42+02:00</time>
      </trkpt>
      <trkpt lat="48.60827" lon="6.18086">
        <ele>235.2998</ele>
        <time>2026-05-18T10:45:43+02:00</time>
      </trkpt>
      <trkpt lat="48.60827" lon="6.18094">
        <ele>235.5</ele>
        <time>2026-05-18T10:45:44+02:00</time>
      </trkpt>
      <trkpt lat="48.60828" lon="6.18103">
        <ele>235.7998</ele>
        <time>2026-05-18T10:45:45+02:00</time>
      </trkpt>
      <trkpt lat="48.60828" lon="6.18112">
        <ele>236</ele>
        <time>2026-05-18T10:45:46+02:00</time>
      </trkpt>
      <trkpt lat="48.60828" lon="6.18121">
        <ele>236.2002</ele>
        <time>2026-05-18T10:45:47+02:00</time>
      </trkpt>
      <trkpt lat="48.60829" lon="6.1813">
        <ele>233.2998</ele>
        <time>2026-05-18T10:45:48+02:00</time>
      </trkpt>
      <trkpt lat="48.60829" lon="6.18138">
        <ele>233.5</ele>
        <time>2026-05-18T10:45:49+02:00</time>
      </trkpt>
      <trkpt lat="48.60829" lon="6.18148">
        <ele>233.7998</ele>
        <time>2026-05-18T10:45:50+02:00</time>
      </trkpt>
      <trkpt lat="48.60829" lon="6.18156">
        <ele>234</ele>
        <time>2026-05-18T10:45:51+02:00</time>
      </trkpt>
      <trkpt lat="48.60829" lon="6.18165">
        <ele>234.2002</ele>
        <time>2026-05-18T10:45:52+02:00</time>
      </trkpt>
      <trkpt lat="48.60829" lon="6.18173">
        <ele>234.40039</ele>
        <time>2026-05-18T10:45:53+02:00</time>
      </trkpt>
      <trkpt lat="48.60829" lon="6.18181">
        <ele>234.7002</ele>
        <time>2026-05-18T10:45:54+02:00</time>
      </trkpt>
      <trkpt lat="48.60829" lon="6.1819">
        <ele>234.90039</ele>
        <time>2026-05-18T10:45:55+02:00</time>
      </trkpt>
      <trkpt lat="48.60829" lon="6.18198">
        <ele>235.10059</ele>
        <time>2026-05-18T10:45:56+02:00</time>
      </trkpt>
      <trkpt lat="48.60829" lon="6.18207">
        <ele>235.40039</ele>
        <time>2026-05-18T10:45:57+02:00</time>
      </trkpt>
      <trkpt lat="48.60829" lon="6.18216">
        <ele>235.60059</ele>
        <time>2026-05-18T10:45:58+02:00</time>
      </trkpt>
      <trkpt lat="48.60829" lon="6.1822">
        <ele>235.60059</ele>
        <time>2026-05-18T10:45:59+02:00</time>
      </trkpt>
      <trkpt lat="48.60829" lon="6.18233">
        <ele>236.2002</ele>
        <time>2026-05-18T10:46:00+02:00</time>
      </trkpt>
      <trkpt lat="48.6083" lon="6.18241">
        <ele>236.40039</ele>
        <time>2026-05-18T10:46:01+02:00</time>
      </trkpt>
      <trkpt lat="48.60829" lon="6.1825">
        <ele>236.7002</ele>
        <time>2026-05-18T10:46:02+02:00</time>
      </trkpt>
      <trkpt lat="48.60829" lon="6.18259">
        <ele>237.10059</ele>
        <time>2026-05-18T10:46:03+02:00</time>
      </trkpt>
      <trkpt lat="48.60829" lon="6.18268">
        <ele>237.5</ele>
        <time>2026-05-18T10:46:04+02:00</time>
      </trkpt>
      <trkpt lat="48.60829" lon="6.18278">
        <ele>237.90039</ele>
        <time>2026-05-18T10:46:05+02:00</time>
      </trkpt>
      <trkpt lat="48.60829" lon="6.18286">
        <ele>238.40039</ele>
        <time>2026-05-18T10:46:06+02:00</time>
      </trkpt>
      <trkpt lat="48.60829" lon="6.18295">
        <ele>237.2002</ele>
        <time>2026-05-18T10:46:07+02:00</time>
      </trkpt>
      <trkpt lat="48.60829" lon="6.18304">
        <ele>234.40039</ele>
        <time>2026-05-18T10:46:08+02:00</time>
      </trkpt>
      <trkpt lat="48.60829" lon="6.18313">
        <ele>233.10059</ele>
        <time>2026-05-18T10:46:09+02:00</time>
      </trkpt>
      <trkpt lat="48.60829" lon="6.18322">
        <ele>230.5</ele>
        <time>2026-05-18T10:46:10+02:00</time>
      </trkpt>
      <trkpt lat="48.60829" lon="6.18331">
        <ele>229.40039</ele>
        <time>2026-05-18T10:46:11+02:00</time>
      </trkpt>
      <trkpt lat="48.60829" lon="6.1834">
        <ele>229.2002</ele>
        <time>2026-05-18T10:46:12+02:00</time>
      </trkpt>
      <trkpt lat="48.60829" lon="6.18349">
        <ele>229.5</ele>
        <time>2026-05-18T10:46:13+02:00</time>
      </trkpt>
      <trkpt lat="48.60829" lon="6.18358">
        <ele>229.7002</ele>
        <time>2026-05-18T10:46:14+02:00</time>
      </trkpt>
      <trkpt lat="48.60829" lon="6.18367">
        <ele>230.40039</ele>
        <time>2026-05-18T10:46:15+02:00</time>
      </trkpt>
      <trkpt lat="48.60829" lon="6.18376">
        <ele>230.10059</ele>
        <time>2026-05-18T10:46:16+02:00</time>
      </trkpt>
      <trkpt lat="48.60829" lon="6.18385">
        <ele>230.2002</ele>
        <time>2026-05-18T10:46:17+02:00</time>
      </trkpt>
      <trkpt lat="48.60829" lon="6.18394">
        <ele>229.7002</ele>
        <time>2026-05-18T10:46:18+02:00</time>
      </trkpt>
      <trkpt lat="48.60828" lon="6.18403">
        <ele>230.7002</ele>
        <time>2026-05-18T10:46:19+02:00</time>
      </trkpt>
      <trkpt lat="48.60828" lon="6.18412">
        <ele>231</ele>
        <time>2026-05-18T10:46:20+02:00</time>
      </trkpt>
      <trkpt lat="48.60827" lon="6.18421">
        <ele>231.2998</ele>
        <time>2026-05-18T10:46:21+02:00</time>
      </trkpt>
      <trkpt lat="48.60827" lon="6.1843">
        <ele>234</ele>
        <time>2026-05-18T10:46:22+02:00</time>
      </trkpt>
      <trkpt lat="48.60827" lon="6.1844">
        <ele>238.40039</ele>
        <time>2026-05-18T10:46:23+02:00</time>
      </trkpt>
      <trkpt lat="48.60826" lon="6.18448">
        <ele>242.5</ele>
        <time>2026-05-18T10:46:24+02:00</time>
      </trkpt>
      <trkpt lat="48.60826" lon="6.18457">
        <ele>244.7998</ele>
        <time>2026-05-18T10:46:25+02:00</time>
      </trkpt>
      <trkpt lat="48.60827" lon="6.18466">
        <ele>246.10059</ele>
        <time>2026-05-18T10:46:26+02:00</time>
      </trkpt>
      <trkpt lat="48.60827" lon="6.18475">
        <ele>246.7002</ele>
        <time>2026-05-18T10:46:27+02:00</time>
      </trkpt>
      <trkpt lat="48.60828" lon="6.18485">
        <ele>246.90039</ele>
        <time>2026-05-18T10:46:28+02:00</time>
      </trkpt>
      <trkpt lat="48.60828" lon="6.18494">
        <ele>246.7002</ele>
        <time>2026-05-18T10:46:29+02:00</time>
      </trkpt>
      <trkpt lat="48.60829" lon="6.18504">
        <ele>243.2998</ele>
        <time>2026-05-18T10:46:30+02:00</time>
      </trkpt>
      <trkpt lat="48.60829" lon="6.18513">
        <ele>243.5</ele>
        <time>2026-05-18T10:46:31+02:00</time>
      </trkpt>
      <trkpt lat="48.60829" lon="6.18523">
        <ele>243.7002</ele>
        <time>2026-05-18T10:46:32+02:00</time>
      </trkpt>
      <trkpt lat="48.6083" lon="6.18532">
        <ele>243.90039</ele>
        <time>2026-05-18T10:46:33+02:00</time>
      </trkpt>
      <trkpt lat="48.6083" lon="6.18542">
        <ele>244</ele>
        <time>2026-05-18T10:46:34+02:00</time>
      </trkpt>
      <trkpt lat="48.6083" lon="6.18552">
        <ele>244.10059</ele>
        <time>2026-05-18T10:46:35+02:00</time>
      </trkpt>
      <trkpt lat="48.60831" lon="6.18562">
        <ele>244.2998</ele>
        <time>2026-05-18T10:46:36+02:00</time>
      </trkpt>
      <trkpt lat="48.60832" lon="6.18572">
        <ele>245.2002</ele>
        <time>2026-05-18T10:46:37+02:00</time>
      </trkpt>
      <trkpt lat="48.60833" lon="6.18581">
        <ele>246.2002</ele>
        <time>2026-05-18T10:46:38+02:00</time>
      </trkpt>
      <trkpt lat="48.60834" lon="6.1859">
        <ele>244</ele>
        <time>2026-05-18T10:46:39+02:00</time>
      </trkpt>
      <trkpt lat="48.60835" lon="6.186">
        <ele>246.2998</ele>
        <time>2026-05-18T10:46:40+02:00</time>
      </trkpt>
      <trkpt lat="48.60837" lon="6.18609">
        <ele>247.5</ele>
        <time>2026-05-18T10:46:41+02:00</time>
      </trkpt>
      <trkpt lat="48.60838" lon="6.18618">
        <ele>248.60059</ele>
        <time>2026-05-18T10:46:42+02:00</time>
      </trkpt>
      <trkpt lat="48.6084" lon="6.18626">
        <ele>247.40039</ele>
        <time>2026-05-18T10:46:43+02:00</time>
      </trkpt>
      <trkpt lat="48.60841" lon="6.18635">
        <ele>248.90039</ele>
        <time>2026-05-18T10:46:44+02:00</time>
      </trkpt>
      <trkpt lat="48.60842" lon="6.18643">
        <ele>250.60059</ele>
        <time>2026-05-18T10:46:45+02:00</time>
      </trkpt>
      <trkpt lat="48.60843" lon="6.18652">
        <ele>252.90039</ele>
        <time>2026-05-18T10:46:46+02:00</time>
      </trkpt>
      <trkpt lat="48.60845" lon="6.18661">
        <ele>252.90039</ele>
        <time>2026-05-18T10:46:47+02:00</time>
      </trkpt>
      <trkpt lat="48.60847" lon="6.18669">
        <ele>251.10059</ele>
        <time>2026-05-18T10:46:48+02:00</time>
      </trkpt>
      <trkpt lat="48.60849" lon="6.18677">
        <ele>251.60059</ele>
        <time>2026-05-18T10:46:49+02:00</time>
      </trkpt>
      <trkpt lat="48.60851" lon="6.18686">
        <ele>252</ele>
        <time>2026-05-18T10:46:50+02:00</time>
      </trkpt>
      <trkpt lat="48.60853" lon="6.18694">
        <ele>250</ele>
        <time>2026-05-18T10:46:51+02:00</time>
      </trkpt>
      <trkpt lat="48.60855" lon="6.18703">
        <ele>250.5</ele>
        <time>2026-05-18T10:46:52+02:00</time>
      </trkpt>
      <trkpt lat="48.60857" lon="6.18711">
        <ele>249</ele>
        <time>2026-05-18T10:46:53+02:00</time>
      </trkpt>
      <trkpt lat="48.60859" lon="6.18719">
        <ele>249</ele>
        <time>2026-05-18T10:46:54+02:00</time>
      </trkpt>
      <trkpt lat="48.60862" lon="6.18728">
        <ele>251</ele>
        <time>2026-05-18T10:46:55+02:00</time>
      </trkpt>
      <trkpt lat="48.60864" lon="6.18736">
        <ele>249.60059</ele>
        <time>2026-05-18T10:46:56+02:00</time>
      </trkpt>
      <trkpt lat="48.60867" lon="6.18745">
        <ele>252.90039</ele>
        <time>2026-05-18T10:46:57+02:00</time>
      </trkpt>
      <trkpt lat="48.6087" lon="6.18754">
        <ele>251.5</ele>
        <time>2026-05-18T10:46:58+02:00</time>
      </trkpt>
      <trkpt lat="48.60872" lon="6.18762">
        <ele>251.90039</ele>
        <time>2026-05-18T10:46:59+02:00</time>
      </trkpt>
      <trkpt lat="48.60873" lon="6.18766">
        <ele>251.90039</ele>
        <time>2026-05-18T10:47:00+02:00</time>
      </trkpt>
      <trkpt lat="48.60877" lon="6.18778">
        <ele>249.7002</ele>
        <time>2026-05-18T10:47:01+02:00</time>
      </trkpt>
      <trkpt lat="48.60879" lon="6.18785">
        <ele>250.40039</ele>
        <time>2026-05-18T10:47:02+02:00</time>
      </trkpt>
      <trkpt lat="48.6088" lon="6.18789">
        <ele>248</ele>
        <time>2026-05-18T10:47:03+02:00</time>
      </trkpt>
      <trkpt lat="48.60885" lon="6.18799">
        <ele>248.7998</ele>
        <time>2026-05-18T10:47:04+02:00</time>
      </trkpt>
      <trkpt lat="48.60887" lon="6.18805">
        <ele>247</ele>
        <time>2026-05-18T10:47:05+02:00</time>
      </trkpt>
      <trkpt lat="48.60889" lon="6.18808">
        <ele>247</ele>
        <time>2026-05-18T10:47:06+02:00</time>
      </trkpt>
      <trkpt lat="48.60893" lon="6.18818">
        <ele>246</ele>
        <time>2026-05-18T10:47:07+02:00</time>
      </trkpt>
      <trkpt lat="48.60896" lon="6.18824">
        <ele>247.5</ele>
        <time>2026-05-18T10:47:08+02:00</time>
      </trkpt>
      <trkpt lat="48.60898" lon="6.1883">
        <ele>245.90039</ele>
        <time>2026-05-18T10:47:09+02:00</time>
      </trkpt>
      <trkpt lat="48.60901" lon="6.18836">
        <ele>247.2002</ele>
        <time>2026-05-18T10:47:10+02:00</time>
      </trkpt>
      <trkpt lat="48.60903" lon="6.18842">
        <ele>245.40039</ele>
        <time>2026-05-18T10:47:11+02:00</time>
      </trkpt>
      <trkpt lat="48.60906" lon="6.18849">
        <ele>245.2998</ele>
        <time>2026-05-18T10:47:12+02:00</time>
      </trkpt>
      <trkpt lat="48.60909" lon="6.18855">
        <ele>242.2002</ele>
        <time>2026-05-18T10:47:13+02:00</time>
      </trkpt>
      <trkpt lat="48.60912" lon="6.18861">
        <ele>242.7002</ele>
        <time>2026-05-18T10:47:14+02:00</time>
      </trkpt>
      <trkpt lat="48.60915" lon="6.18868">
        <ele>240.2002</ele>
        <time>2026-05-18T10:47:15+02:00</time>
      </trkpt>
      <trkpt lat="48.60918" lon="6.18875">
        <ele>241.2998</ele>
        <time>2026-05-18T10:47:16+02:00</time>
      </trkpt>
      <trkpt lat="48.60921" lon="6.18882">
        <ele>237.40039</ele>
        <time>2026-05-18T10:47:17+02:00</time>
      </trkpt>
      <trkpt lat="48.60925" lon="6.18889">
        <ele>238.5</ele>
        <time>2026-05-18T10:47:18+02:00</time>
      </trkpt>
      <trkpt lat="48.60926" lon="6.18893">
        <ele>235.5</ele>
        <time>2026-05-18T10:47:19+02:00</time>
      </trkpt>
      <trkpt lat="48.60931" lon="6.18905">
        <ele>235</ele>
        <time>2026-05-18T10:47:20+02:00</time>
      </trkpt>
      <trkpt lat="48.60935" lon="6.18912">
        <ele>238.60059</ele>
        <time>2026-05-18T10:47:21+02:00</time>
      </trkpt>
      <trkpt lat="48.60938" lon="6.18919">
        <ele>239.60059</ele>
        <time>2026-05-18T10:47:22+02:00</time>
      </trkpt>
      <trkpt lat="48.60941" lon="6.18927">
        <ele>242.10059</ele>
        <time>2026-05-18T10:47:23+02:00</time>
      </trkpt>
      <trkpt lat="48.60944" lon="6.18934">
        <ele>241.5</ele>
        <time>2026-05-18T10:47:24+02:00</time>
      </trkpt>
      <trkpt lat="48.60948" lon="6.18941">
        <ele>238.2002</ele>
        <time>2026-05-18T10:47:25+02:00</time>
      </trkpt>
      <trkpt lat="48.60951" lon="6.18949">
        <ele>240.7002</ele>
        <time>2026-05-18T10:47:26+02:00</time>
      </trkpt>
      <trkpt lat="48.60953" lon="6.18955">
        <ele>242.7998</ele>
        <time>2026-05-18T10:47:27+02:00</time>
      </trkpt>
      <trkpt lat="48.60956" lon="6.18962">
        <ele>242.2998</ele>
        <time>2026-05-18T10:47:28+02:00</time>
      </trkpt>
      <trkpt lat="48.6096" lon="6.18969">
        <ele>241.7002</ele>
        <time>2026-05-18T10:47:29+02:00</time>
      </trkpt>
      <trkpt lat="48.60964" lon="6.18976">
        <ele>241.7002</ele>
        <time>2026-05-18T10:47:30+02:00</time>
      </trkpt>
      <trkpt lat="48.60967" lon="6.18984">
        <ele>239.90039</ele>
        <time>2026-05-18T10:47:31+02:00</time>
      </trkpt>
      <trkpt lat="48.60971" lon="6.18992">
        <ele>236.90039</ele>
        <time>2026-05-18T10:47:32+02:00</time>
      </trkpt>
      <trkpt lat="48.60974" lon="6.18999">
        <ele>238.7998</ele>
        <time>2026-05-18T10:47:33+02:00</time>
      </trkpt>
      <trkpt lat="48.60978" lon="6.19006">
        <ele>238.2002</ele>
        <time>2026-05-18T10:47:34+02:00</time>
      </trkpt>
      <trkpt lat="48.60981" lon="6.19013">
        <ele>241.2002</ele>
        <time>2026-05-18T10:47:35+02:00</time>
      </trkpt>
      <trkpt lat="48.60985" lon="6.1902">
        <ele>241.60059</ele>
        <time>2026-05-18T10:47:36+02:00</time>
      </trkpt>
      <trkpt lat="48.60988" lon="6.19027">
        <ele>239.40039</ele>
        <time>2026-05-18T10:47:37+02:00</time>
      </trkpt>
      <trkpt lat="48.60992" lon="6.19034">
        <ele>241.5</ele>
        <time>2026-05-18T10:47:38+02:00</time>
      </trkpt>
      <trkpt lat="48.60995" lon="6.19042">
        <ele>240.60059</ele>
        <time>2026-05-18T10:47:39+02:00</time>
      </trkpt>
      <trkpt lat="48.60999" lon="6.19049">
        <ele>239.90039</ele>
        <time>2026-05-18T10:47:40+02:00</time>
      </trkpt>
      <trkpt lat="48.61002" lon="6.19055">
        <ele>241.7002</ele>
        <time>2026-05-18T10:47:41+02:00</time>
      </trkpt>
      <trkpt lat="48.61005" lon="6.19062">
        <ele>239.5</ele>
        <time>2026-05-18T10:47:42+02:00</time>
      </trkpt>
      <trkpt lat="48.61008" lon="6.19069">
        <ele>241.2002</ele>
        <time>2026-05-18T10:47:43+02:00</time>
      </trkpt>
      <trkpt lat="48.6101" lon="6.19075">
        <ele>242.7002</ele>
        <time>2026-05-18T10:47:44+02:00</time>
      </trkpt>
      <trkpt lat="48.61014" lon="6.19082">
        <ele>241.2998</ele>
        <time>2026-05-18T10:47:45+02:00</time>
      </trkpt>
      <trkpt lat="48.61017" lon="6.19089">
        <ele>239.10059</ele>
        <time>2026-05-18T10:47:46+02:00</time>
      </trkpt>
      <trkpt lat="48.6102" lon="6.19096">
        <ele>239.10059</ele>
        <time>2026-05-18T10:47:47+02:00</time>
      </trkpt>
      <trkpt lat="48.61023" lon="6.19103">
        <ele>237.60059</ele>
        <time>2026-05-18T10:47:48+02:00</time>
      </trkpt>
      <trkpt lat="48.61026" lon="6.1911">
        <ele>240</ele>
        <time>2026-05-18T10:47:49+02:00</time>
      </trkpt>
      <trkpt lat="48.61029" lon="6.19116">
        <ele>240.5</ele>
        <time>2026-05-18T10:47:50+02:00</time>
      </trkpt>
      <trkpt lat="48.61032" lon="6.19123">
        <ele>242.40039</ele>
        <time>2026-05-18T10:47:51+02:00</time>
      </trkpt>
      <trkpt lat="48.61036" lon="6.1913">
        <ele>240.7002</ele>
        <time>2026-05-18T10:47:52+02:00</time>
      </trkpt>
      <trkpt lat="48.61039" lon="6.19136">
        <ele>240.2998</ele>
        <time>2026-05-18T10:47:53+02:00</time>
      </trkpt>
      <trkpt lat="48.61042" lon="6.19144">
        <ele>242.2002</ele>
        <time>2026-05-18T10:47:54+02:00</time>
      </trkpt>
      <trkpt lat="48.61046" lon="6.19152">
        <ele>242.5</ele>
        <time>2026-05-18T10:47:55+02:00</time>
      </trkpt>
      <trkpt lat="48.61049" lon="6.19159">
        <ele>244</ele>
        <time>2026-05-18T10:47:56+02:00</time>
      </trkpt>
      <trkpt lat="48.61052" lon="6.19166">
        <ele>243.2998</ele>
        <time>2026-05-18T10:47:57+02:00</time>
      </trkpt>
      <trkpt lat="48.61055" lon="6.19173">
        <ele>243.2998</ele>
        <time>2026-05-18T10:47:58+02:00</time>
      </trkpt>
      <trkpt lat="48.61059" lon="6.19181">
        <ele>241.5</ele>
        <time>2026-05-18T10:47:59+02:00</time>
      </trkpt>
      <trkpt lat="48.61062" lon="6.19188">
        <ele>239.2998</ele>
        <time>2026-05-18T10:48:00+02:00</time>
      </trkpt>
      <trkpt lat="48.61065" lon="6.19196">
        <ele>240.2998</ele>
        <time>2026-05-18T10:48:01+02:00</time>
      </trkpt>
      <trkpt lat="48.61068" lon="6.19203">
        <ele>239.10059</ele>
        <time>2026-05-18T10:48:02+02:00</time>
      </trkpt>
      <trkpt lat="48.61072" lon="6.1921">
        <ele>240.90039</ele>
        <time>2026-05-18T10:48:03+02:00</time>
      </trkpt>
      <trkpt lat="48.61075" lon="6.19218">
        <ele>241.10059</ele>
        <time>2026-05-18T10:48:04+02:00</time>
      </trkpt>
      <trkpt lat="48.61079" lon="6.19224">
        <ele>239.60059</ele>
        <time>2026-05-18T10:48:05+02:00</time>
      </trkpt>
      <trkpt lat="48.61083" lon="6.1923">
        <ele>241.10059</ele>
        <time>2026-05-18T10:48:06+02:00</time>
      </trkpt>
      <trkpt lat="48.61086" lon="6.19237">
        <ele>241.2002</ele>
        <time>2026-05-18T10:48:07+02:00</time>
      </trkpt>
      <trkpt lat="48.61089" lon="6.19244">
        <ele>242.60059</ele>
        <time>2026-05-18T10:48:08+02:00</time>
      </trkpt>
      <trkpt lat="48.61093" lon="6.1925">
        <ele>242.10059</ele>
        <time>2026-05-18T10:48:09+02:00</time>
      </trkpt>
      <trkpt lat="48.61094" lon="6.19253">
        <ele>243.40039</ele>
        <time>2026-05-18T10:48:10+02:00</time>
      </trkpt>
      <trkpt lat="48.611" lon="6.19265">
        <ele>244.10059</ele>
        <time>2026-05-18T10:48:11+02:00</time>
      </trkpt>
      <trkpt lat="48.61104" lon="6.19272">
        <ele>243.60059</ele>
        <time>2026-05-18T10:48:12+02:00</time>
      </trkpt>
      <trkpt lat="48.61107" lon="6.19279">
        <ele>242.7998</ele>
        <time>2026-05-18T10:48:13+02:00</time>
      </trkpt>
      <trkpt lat="48.61111" lon="6.19286">
        <ele>243.60059</ele>
        <time>2026-05-18T10:48:14+02:00</time>
      </trkpt>
      <trkpt lat="48.61114" lon="6.19293">
        <ele>242.7002</ele>
        <time>2026-05-18T10:48:15+02:00</time>
      </trkpt>
      <trkpt lat="48.61118" lon="6.19301">
        <ele>242.60059</ele>
        <time>2026-05-18T10:48:16+02:00</time>
      </trkpt>
      <trkpt lat="48.61121" lon="6.19309">
        <ele>243.40039</ele>
        <time>2026-05-18T10:48:17+02:00</time>
      </trkpt>
      <trkpt lat="48.61125" lon="6.19316">
        <ele>242.10059</ele>
        <time>2026-05-18T10:48:18+02:00</time>
      </trkpt>
      <trkpt lat="48.61128" lon="6.19322">
        <ele>242.7002</ele>
        <time>2026-05-18T10:48:19+02:00</time>
      </trkpt>
      <trkpt lat="48.61131" lon="6.1933">
        <ele>241.5</ele>
        <time>2026-05-18T10:48:20+02:00</time>
      </trkpt>
      <trkpt lat="48.61134" lon="6.19337">
        <ele>241.5</ele>
        <time>2026-05-18T10:48:21+02:00</time>
      </trkpt>
      <trkpt lat="48.61138" lon="6.19343">
        <ele>240.7998</ele>
        <time>2026-05-18T10:48:22+02:00</time>
      </trkpt>
      <trkpt lat="48.61141" lon="6.1935">
        <ele>240.7998</ele>
        <time>2026-05-18T10:48:23+02:00</time>
      </trkpt>
      <trkpt lat="48.61144" lon="6.19356">
        <ele>242.2002</ele>
        <time>2026-05-18T10:48:24+02:00</time>
      </trkpt>
      <trkpt lat="48.61146" lon="6.19362">
        <ele>242.2002</ele>
        <time>2026-05-18T10:48:25+02:00</time>
      </trkpt>
      <trkpt lat="48.61149" lon="6.1937">
        <ele>242.2998</ele>
        <time>2026-05-18T10:48:26+02:00</time>
      </trkpt>
      <trkpt lat="48.6115" lon="6.19377">
        <ele>243.40039</ele>
        <time>2026-05-18T10:48:27+02:00</time>
      </trkpt>
      <trkpt lat="48.61152" lon="6.19384">
        <ele>244.40039</ele>
        <time>2026-05-18T10:48:28+02:00</time>
      </trkpt>
      <trkpt lat="48.61155" lon="6.1939">
        <ele>244.40039</ele>
        <time>2026-05-18T10:48:29+02:00</time>
      </trkpt>
      <trkpt lat="48.61157" lon="6.19396">
        <ele>244.40039</ele>
        <time>2026-05-18T10:48:30+02:00</time>
      </trkpt>
      <trkpt lat="48.6116" lon="6.19403">
        <ele>244.7002</ele>
        <time>2026-05-18T10:48:31+02:00</time>
      </trkpt>
      <trkpt lat="48.61163" lon="6.19409">
        <ele>245.60059</ele>
        <time>2026-05-18T10:48:32+02:00</time>
      </trkpt>
      <trkpt lat="48.61167" lon="6.19415">
        <ele>245</ele>
        <time>2026-05-18T10:48:33+02:00</time>
      </trkpt>
      <trkpt lat="48.61168" lon="6.19418">
        <ele>245</ele>
        <time>2026-05-18T10:48:34+02:00</time>
      </trkpt>
      <trkpt lat="48.61172" lon="6.19427">
        <ele>243.7998</ele>
        <time>2026-05-18T10:48:35+02:00</time>
      </trkpt>
      <trkpt lat="48.61175" lon="6.19433">
        <ele>242.7002</ele>
        <time>2026-05-18T10:48:36+02:00</time>
      </trkpt>
      <trkpt lat="48.61178" lon="6.1944">
        <ele>242.7002</ele>
        <time>2026-05-18T10:48:37+02:00</time>
      </trkpt>
      <trkpt lat="48.61181" lon="6.19447">
        <ele>242</ele>
        <time>2026-05-18T10:48:38+02:00</time>
      </trkpt>
      <trkpt lat="48.61184" lon="6.19454">
        <ele>242.90039</ele>
        <time>2026-05-18T10:48:39+02:00</time>
      </trkpt>
      <trkpt lat="48.61188" lon="6.19461">
        <ele>242.90039</ele>
        <time>2026-05-18T10:48:40+02:00</time>
      </trkpt>
      <trkpt lat="48.61189" lon="6.19465">
        <ele>242.90039</ele>
        <time>2026-05-18T10:48:41+02:00</time>
      </trkpt>
      <trkpt lat="48.61194" lon="6.19476">
        <ele>244</ele>
        <time>2026-05-18T10:48:42+02:00</time>
      </trkpt>
      <trkpt lat="48.61197" lon="6.19484">
        <ele>244.7998</ele>
        <time>2026-05-18T10:48:43+02:00</time>
      </trkpt>
      <trkpt lat="48.61201" lon="6.19491">
        <ele>242.7998</ele>
        <time>2026-05-18T10:48:44+02:00</time>
      </trkpt>
      <trkpt lat="48.61204" lon="6.19499">
        <ele>241.60059</ele>
        <time>2026-05-18T10:48:45+02:00</time>
      </trkpt>
      <trkpt lat="48.61208" lon="6.19507">
        <ele>242.5</ele>
        <time>2026-05-18T10:48:46+02:00</time>
      </trkpt>
      <trkpt lat="48.61211" lon="6.19514">
        <ele>242.2002</ele>
        <time>2026-05-18T10:48:47+02:00</time>
      </trkpt>
      <trkpt lat="48.61215" lon="6.19522">
        <ele>242.5</ele>
        <time>2026-05-18T10:48:48+02:00</time>
      </trkpt>
      <trkpt lat="48.61218" lon="6.19529">
        <ele>244</ele>
        <time>2026-05-18T10:48:49+02:00</time>
      </trkpt>
      <trkpt lat="48.61221" lon="6.19536">
        <ele>244.10059</ele>
        <time>2026-05-18T10:48:50+02:00</time>
      </trkpt>
      <trkpt lat="48.61224" lon="6.19543">
        <ele>244.10059</ele>
        <time>2026-05-18T10:48:51+02:00</time>
      </trkpt>
      <trkpt lat="48.61226" lon="6.1955">
        <ele>244</ele>
        <time>2026-05-18T10:48:52+02:00</time>
      </trkpt>
      <trkpt lat="48.61229" lon="6.19557">
        <ele>245.2998</ele>
        <time>2026-05-18T10:48:53+02:00</time>
      </trkpt>
      <trkpt lat="48.61233" lon="6.19564">
        <ele>245.40039</ele>
        <time>2026-05-18T10:48:54+02:00</time>
      </trkpt>
      <trkpt lat="48.61236" lon="6.19571">
        <ele>246.7998</ele>
        <time>2026-05-18T10:48:55+02:00</time>
      </trkpt>
      <trkpt lat="48.61239" lon="6.19578">
        <ele>246.10059</ele>
        <time>2026-05-18T10:48:56+02:00</time>
      </trkpt>
      <trkpt lat="48.61242" lon="6.19585">
        <ele>246.10059</ele>
        <time>2026-05-18T10:48:57+02:00</time>
      </trkpt>
      <trkpt lat="48.61245" lon="6.19592">
        <ele>244.7998</ele>
        <time>2026-05-18T10:48:58+02:00</time>
      </trkpt>
      <trkpt lat="48.61249" lon="6.19599">
        <ele>243.40039</ele>
        <time>2026-05-18T10:48:59+02:00</time>
      </trkpt>
      <trkpt lat="48.61252" lon="6.19606">
        <ele>244.10059</ele>
        <time>2026-05-18T10:49:00+02:00</time>
      </trkpt>
      <trkpt lat="48.61256" lon="6.19614">
        <ele>243.7002</ele>
        <time>2026-05-18T10:49:01+02:00</time>
      </trkpt>
      <trkpt lat="48.6126" lon="6.19621">
        <ele>244</ele>
        <time>2026-05-18T10:49:02+02:00</time>
      </trkpt>
      <trkpt lat="48.61263" lon="6.19628">
        <ele>244</ele>
        <time>2026-05-18T10:49:03+02:00</time>
      </trkpt>
      <trkpt lat="48.61266" lon="6.19635">
        <ele>244</ele>
        <time>2026-05-18T10:49:04+02:00</time>
      </trkpt>
      <trkpt lat="48.6127" lon="6.19642">
        <ele>245.10059</ele>
        <time>2026-05-18T10:49:05+02:00</time>
      </trkpt>
      <trkpt lat="48.61273" lon="6.19649">
        <ele>244.90039</ele>
        <time>2026-05-18T10:49:06+02:00</time>
      </trkpt>
      <trkpt lat="48.61277" lon="6.19656">
        <ele>245</ele>
        <time>2026-05-18T10:49:07+02:00</time>
      </trkpt>
      <trkpt lat="48.6128" lon="6.19663">
        <ele>245</ele>
        <time>2026-05-18T10:49:08+02:00</time>
      </trkpt>
      <trkpt lat="48.61284" lon="6.19669">
        <ele>245</ele>
        <time>2026-05-18T10:49:09+02:00</time>
      </trkpt>
      <trkpt lat="48.61287" lon="6.19676">
        <ele>245.7002</ele>
        <time>2026-05-18T10:49:10+02:00</time>
      </trkpt>
      <trkpt lat="48.6129" lon="6.19683">
        <ele>244.40039</ele>
        <time>2026-05-18T10:49:11+02:00</time>
      </trkpt>
      <trkpt lat="48.61294" lon="6.1969">
        <ele>242.90039</ele>
        <time>2026-05-18T10:49:12+02:00</time>
      </trkpt>
      <trkpt lat="48.61297" lon="6.19697">
        <ele>242.90039</ele>
        <time>2026-05-18T10:49:13+02:00</time>
      </trkpt>
      <trkpt lat="48.613" lon="6.19705">
        <ele>241.90039</ele>
        <time>2026-05-18T10:49:14+02:00</time>
      </trkpt>
      <trkpt lat="48.61303" lon="6.19712">
        <ele>242.60059</ele>
        <time>2026-05-18T10:49:15+02:00</time>
      </trkpt>
      <trkpt lat="48.61307" lon="6.19719">
        <ele>242.60059</ele>
        <time>2026-05-18T10:49:16+02:00</time>
      </trkpt>
      <trkpt lat="48.6131" lon="6.19726">
        <ele>243.7998</ele>
        <time>2026-05-18T10:49:17+02:00</time>
      </trkpt>
      <trkpt lat="48.61314" lon="6.19734">
        <ele>244</ele>
        <time>2026-05-18T10:49:18+02:00</time>
      </trkpt>
      <trkpt lat="48.61317" lon="6.19741">
        <ele>243.7002</ele>
        <time>2026-05-18T10:49:19+02:00</time>
      </trkpt>
      <trkpt lat="48.61321" lon="6.19748">
        <ele>243.7002</ele>
        <time>2026-05-18T10:49:20+02:00</time>
      </trkpt>
      <trkpt lat="48.61324" lon="6.19755">
        <ele>243.7002</ele>
        <time>2026-05-18T10:49:21+02:00</time>
      </trkpt>
      <trkpt lat="48.61327" lon="6.19762">
        <ele>244.7002</ele>
        <time>2026-05-18T10:49:22+02:00</time>
      </trkpt>
      <trkpt lat="48.61331" lon="6.19769">
        <ele>244.7998</ele>
        <time>2026-05-18T10:49:23+02:00</time>
      </trkpt>
      <trkpt lat="48.61334" lon="6.19777">
        <ele>244.2002</ele>
        <time>2026-05-18T10:49:24+02:00</time>
      </trkpt>
      <trkpt lat="48.61338" lon="6.19784">
        <ele>244.5</ele>
        <time>2026-05-18T10:49:25+02:00</time>
      </trkpt>
      <trkpt lat="48.61342" lon="6.19791">
        <ele>242.90039</ele>
        <time>2026-05-18T10:49:26+02:00</time>
      </trkpt>
      <trkpt lat="48.61345" lon="6.19798">
        <ele>241.60059</ele>
        <time>2026-05-18T10:49:27+02:00</time>
      </trkpt>
      <trkpt lat="48.61348" lon="6.19804">
        <ele>242.2002</ele>
        <time>2026-05-18T10:49:28+02:00</time>
      </trkpt>
      <trkpt lat="48.6135" lon="6.19808">
        <ele>242.2002</ele>
        <time>2026-05-18T10:49:29+02:00</time>
      </trkpt>
      <trkpt lat="48.61355" lon="6.19818">
        <ele>242.60059</ele>
        <time>2026-05-18T10:49:30+02:00</time>
      </trkpt>
      <trkpt lat="48.61359" lon="6.19824">
        <ele>241.2998</ele>
        <time>2026-05-18T10:49:31+02:00</time>
      </trkpt>
      <trkpt lat="48.61362" lon="6.1983">
        <ele>240.90039</ele>
        <time>2026-05-18T10:49:32+02:00</time>
      </trkpt>
      <trkpt lat="48.61366" lon="6.19837">
        <ele>241.90039</ele>
        <time>2026-05-18T10:49:33+02:00</time>
      </trkpt>
      <trkpt lat="48.61369" lon="6.19843">
        <ele>240</ele>
        <time>2026-05-18T10:49:34+02:00</time>
      </trkpt>
      <trkpt lat="48.61373" lon="6.1985">
        <ele>240.7002</ele>
        <time>2026-05-18T10:49:35+02:00</time>
      </trkpt>
      <trkpt lat="48.61377" lon="6.19856">
        <ele>239.60059</ele>
        <time>2026-05-18T10:49:36+02:00</time>
      </trkpt>
      <trkpt lat="48.61381" lon="6.19863">
        <ele>238.7998</ele>
        <time>2026-05-18T10:49:37+02:00</time>
      </trkpt>
      <trkpt lat="48.61384" lon="6.19869">
        <ele>238.7998</ele>
        <time>2026-05-18T10:49:38+02:00</time>
      </trkpt>
      <trkpt lat="48.61388" lon="6.19876">
        <ele>238.90039</ele>
        <time>2026-05-18T10:49:39+02:00</time>
      </trkpt>
      <trkpt lat="48.61392" lon="6.19882">
        <ele>239.10059</ele>
        <time>2026-05-18T10:49:40+02:00</time>
      </trkpt>
      <trkpt lat="48.61396" lon="6.19889">
        <ele>239.10059</ele>
        <time>2026-05-18T10:49:41+02:00</time>
      </trkpt>
      <trkpt lat="48.614" lon="6.19896">
        <ele>240.2002</ele>
        <time>2026-05-18T10:49:42+02:00</time>
      </trkpt>
      <trkpt lat="48.61405" lon="6.19903">
        <ele>239.5</ele>
        <time>2026-05-18T10:49:43+02:00</time>
      </trkpt>
      <trkpt lat="48.61409" lon="6.19909">
        <ele>240.5</ele>
        <time>2026-05-18T10:49:44+02:00</time>
      </trkpt>
      <trkpt lat="48.61413" lon="6.19915">
        <ele>241.5</ele>
        <time>2026-05-18T10:49:45+02:00</time>
      </trkpt>
      <trkpt lat="48.61417" lon="6.19922">
        <ele>241.5</ele>
        <time>2026-05-18T10:49:46+02:00</time>
      </trkpt>
      <trkpt lat="48.61421" lon="6.19929">
        <ele>240.60059</ele>
        <time>2026-05-18T10:49:47+02:00</time>
      </trkpt>
      <trkpt lat="48.61425" lon="6.19935">
        <ele>240.2002</ele>
        <time>2026-05-18T10:49:48+02:00</time>
      </trkpt>
      <trkpt lat="48.61429" lon="6.19941">
        <ele>241</ele>
        <time>2026-05-18T10:49:49+02:00</time>
      </trkpt>
      <trkpt lat="48.61434" lon="6.19947">
        <ele>241.60059</ele>
        <time>2026-05-18T10:49:50+02:00</time>
      </trkpt>
      <trkpt lat="48.61438" lon="6.19953">
        <ele>241.10059</ele>
        <time>2026-05-18T10:49:51+02:00</time>
      </trkpt>
      <trkpt lat="48.61443" lon="6.19959">
        <ele>240.60059</ele>
        <time>2026-05-18T10:49:52+02:00</time>
      </trkpt>
      <trkpt lat="48.61445" lon="6.19962">
        <ele>240.60059</ele>
        <time>2026-05-18T10:49:53+02:00</time>
      </trkpt>
      <trkpt lat="48.61451" lon="6.19972">
        <ele>240.2002</ele>
        <time>2026-05-18T10:49:54+02:00</time>
      </trkpt>
      <trkpt lat="48.61456" lon="6.19978">
        <ele>240.5</ele>
        <time>2026-05-18T10:49:55+02:00</time>
      </trkpt>
      <trkpt lat="48.61461" lon="6.19984">
        <ele>240.7998</ele>
        <time>2026-05-18T10:49:56+02:00</time>
      </trkpt>
      <trkpt lat="48.61465" lon="6.1999">
        <ele>240.2998</ele>
        <time>2026-05-18T10:49:57+02:00</time>
      </trkpt>
      <trkpt lat="48.6147" lon="6.19996">
        <ele>239.10059</ele>
        <time>2026-05-18T10:49:58+02:00</time>
      </trkpt>
      <trkpt lat="48.61475" lon="6.20002">
        <ele>239.60059</ele>
        <time>2026-05-18T10:49:59+02:00</time>
      </trkpt>
      <trkpt lat="48.61479" lon="6.20008">
        <ele>239.5</ele>
        <time>2026-05-18T10:50:00+02:00</time>
      </trkpt>
      <trkpt lat="48.61484" lon="6.20014">
        <ele>238.7002</ele>
        <time>2026-05-18T10:50:01+02:00</time>
      </trkpt>
      <trkpt lat="48.61489" lon="6.2002">
        <ele>238.60059</ele>
        <time>2026-05-18T10:50:02+02:00</time>
      </trkpt>
      <trkpt lat="48.61493" lon="6.20025">
        <ele>238.2998</ele>
        <time>2026-05-18T10:50:03+02:00</time>
      </trkpt>
      <trkpt lat="48.61498" lon="6.20031">
        <ele>238.2998</ele>
        <time>2026-05-18T10:50:04+02:00</time>
      </trkpt>
      <trkpt lat="48.61503" lon="6.20036">
        <ele>238.2002</ele>
        <time>2026-05-18T10:50:05+02:00</time>
      </trkpt>
      <trkpt lat="48.61508" lon="6.20042">
        <ele>238.2998</ele>
        <time>2026-05-18T10:50:06+02:00</time>
      </trkpt>
      <trkpt lat="48.61513" lon="6.20047">
        <ele>237.40039</ele>
        <time>2026-05-18T10:50:07+02:00</time>
      </trkpt>
      <trkpt lat="48.61517" lon="6.20052">
        <ele>237.2998</ele>
        <time>2026-05-18T10:50:08+02:00</time>
      </trkpt>
      <trkpt lat="48.61522" lon="6.20058">
        <ele>236.2998</ele>
        <time>2026-05-18T10:50:09+02:00</time>
      </trkpt>
      <trkpt lat="48.61526" lon="6.20063">
        <ele>237.2998</ele>
        <time>2026-05-18T10:50:10+02:00</time>
      </trkpt>
      <trkpt lat="48.6153" lon="6.20068">
        <ele>237.90039</ele>
        <time>2026-05-18T10:50:11+02:00</time>
      </trkpt>
      <trkpt lat="48.61535" lon="6.20073">
        <ele>237.60059</ele>
        <time>2026-05-18T10:50:12+02:00</time>
      </trkpt>
      <trkpt lat="48.6154" lon="6.20078">
        <ele>238.60059</ele>
        <time>2026-05-18T10:50:13+02:00</time>
      </trkpt>
      <trkpt lat="48.61545" lon="6.20083">
        <ele>238.40039</ele>
        <time>2026-05-18T10:50:14+02:00</time>
      </trkpt>
      <trkpt lat="48.61549" lon="6.20087">
        <ele>239.2998</ele>
        <time>2026-05-18T10:50:15+02:00</time>
      </trkpt>
      <trkpt lat="48.61554" lon="6.20092">
        <ele>238.7002</ele>
        <time>2026-05-18T10:50:16+02:00</time>
      </trkpt>
      <trkpt lat="48.61559" lon="6.20097">
        <ele>238.60059</ele>
        <time>2026-05-18T10:50:17+02:00</time>
      </trkpt>
      <trkpt lat="48.61564" lon="6.20102">
        <ele>238.60059</ele>
        <time>2026-05-18T10:50:18+02:00</time>
      </trkpt>
      <trkpt lat="48.61569" lon="6.20106">
        <ele>238.40039</ele>
        <time>2026-05-18T10:50:19+02:00</time>
      </trkpt>
      <trkpt lat="48.61574" lon="6.20111">
        <ele>238.7002</ele>
        <time>2026-05-18T10:50:20+02:00</time>
      </trkpt>
      <trkpt lat="48.61579" lon="6.20116">
        <ele>238.2002</ele>
        <time>2026-05-18T10:50:21+02:00</time>
      </trkpt>
      <trkpt lat="48.61583" lon="6.2012">
        <ele>238.2998</ele>
        <time>2026-05-18T10:50:22+02:00</time>
      </trkpt>
      <trkpt lat="48.61588" lon="6.20125">
        <ele>237.60059</ele>
        <time>2026-05-18T10:50:23+02:00</time>
      </trkpt>
      <trkpt lat="48.61593" lon="6.2013">
        <ele>237.40039</ele>
        <time>2026-05-18T10:50:24+02:00</time>
      </trkpt>
      <trkpt lat="48.61598" lon="6.20135">
        <ele>237</ele>
        <time>2026-05-18T10:50:25+02:00</time>
      </trkpt>
      <trkpt lat="48.61603" lon="6.2014">
        <ele>237.7998</ele>
        <time>2026-05-18T10:50:26+02:00</time>
      </trkpt>
      <trkpt lat="48.61608" lon="6.20144">
        <ele>238.7002</ele>
        <time>2026-05-18T10:50:27+02:00</time>
      </trkpt>
      <trkpt lat="48.61614" lon="6.20148">
        <ele>238.40039</ele>
        <time>2026-05-18T10:50:28+02:00</time>
      </trkpt>
      <trkpt lat="48.61619" lon="6.20153">
        <ele>238.7002</ele>
        <time>2026-05-18T10:50:29+02:00</time>
      </trkpt>
      <trkpt lat="48.61623" lon="6.20157">
        <ele>238</ele>
        <time>2026-05-18T10:50:30+02:00</time>
      </trkpt>
      <trkpt lat="48.61628" lon="6.20161">
        <ele>238</ele>
        <time>2026-05-18T10:50:31+02:00</time>
      </trkpt>
      <trkpt lat="48.61633" lon="6.20165">
        <ele>238.10059</ele>
        <time>2026-05-18T10:50:32+02:00</time>
      </trkpt>
      <trkpt lat="48.61638" lon="6.2017">
        <ele>238.5</ele>
        <time>2026-05-18T10:50:33+02:00</time>
      </trkpt>
      <trkpt lat="48.61643" lon="6.20174">
        <ele>238.2998</ele>
        <time>2026-05-18T10:50:34+02:00</time>
      </trkpt>
      <trkpt lat="48.61647" lon="6.20178">
        <ele>238</ele>
        <time>2026-05-18T10:50:35+02:00</time>
      </trkpt>
      <trkpt lat="48.61652" lon="6.20182">
        <ele>237.60059</ele>
        <time>2026-05-18T10:50:36+02:00</time>
      </trkpt>
      <trkpt lat="48.61657" lon="6.20187">
        <ele>237.10059</ele>
        <time>2026-05-18T10:50:37+02:00</time>
      </trkpt>
      <trkpt lat="48.61662" lon="6.20191">
        <ele>237.10059</ele>
        <time>2026-05-18T10:50:38+02:00</time>
      </trkpt>
      <trkpt lat="48.61667" lon="6.20195">
        <ele>236.5</ele>
        <time>2026-05-18T10:50:39+02:00</time>
      </trkpt>
      <trkpt lat="48.61672" lon="6.20199">
        <ele>236.60059</ele>
        <time>2026-05-18T10:50:40+02:00</time>
      </trkpt>
      <trkpt lat="48.61677" lon="6.20203">
        <ele>235.90039</ele>
        <time>2026-05-18T10:50:41+02:00</time>
      </trkpt>
      <trkpt lat="48.61681" lon="6.20208">
        <ele>235.90039</ele>
        <time>2026-05-18T10:50:42+02:00</time>
      </trkpt>
      <trkpt lat="48.61686" lon="6.20212">
        <ele>234.90039</ele>
        <time>2026-05-18T10:50:43+02:00</time>
      </trkpt>
      <trkpt lat="48.61691" lon="6.20216">
        <ele>236</ele>
        <time>2026-05-18T10:50:44+02:00</time>
      </trkpt>
      <trkpt lat="48.61696" lon="6.20221">
        <ele>235.40039</ele>
        <time>2026-05-18T10:50:45+02:00</time>
      </trkpt>
      <trkpt lat="48.61701" lon="6.20225">
        <ele>236.2998</ele>
        <time>2026-05-18T10:50:46+02:00</time>
      </trkpt>
      <trkpt lat="48.61706" lon="6.20229">
        <ele>236.10059</ele>
        <time>2026-05-18T10:50:47+02:00</time>
      </trkpt>
      <trkpt lat="48.6171" lon="6.20233">
        <ele>237.2002</ele>
        <time>2026-05-18T10:50:48+02:00</time>
      </trkpt>
      <trkpt lat="48.61715" lon="6.20238">
        <ele>236.90039</ele>
        <time>2026-05-18T10:50:49+02:00</time>
      </trkpt>
      <trkpt lat="48.6172" lon="6.20242">
        <ele>237.10059</ele>
        <time>2026-05-18T10:50:50+02:00</time>
      </trkpt>
      <trkpt lat="48.61725" lon="6.20246">
        <ele>237.10059</ele>
        <time>2026-05-18T10:50:51+02:00</time>
      </trkpt>
      <trkpt lat="48.6173" lon="6.20251">
        <ele>237.10059</ele>
        <time>2026-05-18T10:50:52+02:00</time>
      </trkpt>
      <trkpt lat="48.61735" lon="6.20255">
        <ele>236.5</ele>
        <time>2026-05-18T10:50:53+02:00</time>
      </trkpt>
      <trkpt lat="48.61739" lon="6.20259">
        <ele>236.60059</ele>
        <time>2026-05-18T10:50:54+02:00</time>
      </trkpt>
      <trkpt lat="48.61744" lon="6.20263">
        <ele>236</ele>
        <time>2026-05-18T10:50:55+02:00</time>
      </trkpt>
      <trkpt lat="48.61747" lon="6.20266">
        <ele>236.7998</ele>
        <time>2026-05-18T10:50:56+02:00</time>
      </trkpt>
      <trkpt lat="48.61754" lon="6.20272">
        <ele>235.10059</ele>
        <time>2026-05-18T10:50:57+02:00</time>
      </trkpt>
      <trkpt lat="48.61759" lon="6.20276">
        <ele>235.5</ele>
        <time>2026-05-18T10:50:58+02:00</time>
      </trkpt>
      <trkpt lat="48.61763" lon="6.20281">
        <ele>235.5</ele>
        <time>2026-05-18T10:50:59+02:00</time>
      </trkpt>
      <trkpt lat="48.61768" lon="6.20285">
        <ele>236.5</ele>
        <time>2026-05-18T10:51:00+02:00</time>
      </trkpt>
      <trkpt lat="48.61772" lon="6.20289">
        <ele>236.2002</ele>
        <time>2026-05-18T10:51:01+02:00</time>
      </trkpt>
      <trkpt lat="48.61776" lon="6.20293">
        <ele>237.60059</ele>
        <time>2026-05-18T10:51:02+02:00</time>
      </trkpt>
      <trkpt lat="48.61781" lon="6.20296">
        <ele>237.60059</ele>
        <time>2026-05-18T10:51:03+02:00</time>
      </trkpt>
      <trkpt lat="48.61785" lon="6.20299">
        <ele>238.5</ele>
        <time>2026-05-18T10:51:04+02:00</time>
      </trkpt>
      <trkpt lat="48.6179" lon="6.20302">
        <ele>237.90039</ele>
        <time>2026-05-18T10:51:05+02:00</time>
      </trkpt>
      <trkpt lat="48.61794" lon="6.20305">
        <ele>237.10059</ele>
        <time>2026-05-18T10:51:06+02:00</time>
      </trkpt>
      <trkpt lat="48.61799" lon="6.20308">
        <ele>237.10059</ele>
        <time>2026-05-18T10:51:07+02:00</time>
      </trkpt>
      <trkpt lat="48.61804" lon="6.2031">
        <ele>237.10059</ele>
        <time>2026-05-18T10:51:08+02:00</time>
      </trkpt>
      <trkpt lat="48.61808" lon="6.20312">
        <ele>236.2002</ele>
        <time>2026-05-18T10:51:09+02:00</time>
      </trkpt>
      <trkpt lat="48.61813" lon="6.20314">
        <ele>235.2998</ele>
        <time>2026-05-18T10:51:10+02:00</time>
      </trkpt>
      <trkpt lat="48.61817" lon="6.20318">
        <ele>235.60059</ele>
        <time>2026-05-18T10:51:11+02:00</time>
      </trkpt>
      <trkpt lat="48.61822" lon="6.20322">
        <ele>234.40039</ele>
        <time>2026-05-18T10:51:12+02:00</time>
      </trkpt>
      <trkpt lat="48.61826" lon="6.20326">
        <ele>235.5</ele>
        <time>2026-05-18T10:51:13+02:00</time>
      </trkpt>
      <trkpt lat="48.6183" lon="6.2033">
        <ele>234.10059</ele>
        <time>2026-05-18T10:51:14+02:00</time>
      </trkpt>
      <trkpt lat="48.61834" lon="6.20335">
        <ele>234.40039</ele>
        <time>2026-05-18T10:51:15+02:00</time>
      </trkpt>
      <trkpt lat="48.61839" lon="6.20339">
        <ele>233.40039</ele>
        <time>2026-05-18T10:51:16+02:00</time>
      </trkpt>
      <trkpt lat="48.61843" lon="6.20345">
        <ele>235</ele>
        <time>2026-05-18T10:51:17+02:00</time>
      </trkpt>
      <trkpt lat="48.61847" lon="6.2035">
        <ele>235</ele>
        <time>2026-05-18T10:51:18+02:00</time>
      </trkpt>
      <trkpt lat="48.61852" lon="6.20355">
        <ele>233.40039</ele>
        <time>2026-05-18T10:51:19+02:00</time>
      </trkpt>
      <trkpt lat="48.61857" lon="6.2036">
        <ele>233.2998</ele>
        <time>2026-05-18T10:51:20+02:00</time>
      </trkpt>
      <trkpt lat="48.61862" lon="6.20364">
        <ele>232.2002</ele>
        <time>2026-05-18T10:51:21+02:00</time>
      </trkpt>
      <trkpt lat="48.61867" lon="6.20369">
        <ele>232.7998</ele>
        <time>2026-05-18T10:51:22+02:00</time>
      </trkpt>
      <trkpt lat="48.61871" lon="6.20373">
        <ele>232.7998</ele>
        <time>2026-05-18T10:51:23+02:00</time>
      </trkpt>
      <trkpt lat="48.61876" lon="6.20377">
        <ele>232.7002</ele>
        <time>2026-05-18T10:51:24+02:00</time>
      </trkpt>
      <trkpt lat="48.6188" lon="6.20382">
        <ele>231</ele>
        <time>2026-05-18T10:51:25+02:00</time>
      </trkpt>
      <trkpt lat="48.61885" lon="6.20386">
        <ele>231.2998</ele>
        <time>2026-05-18T10:51:26+02:00</time>
      </trkpt>
      <trkpt lat="48.6189" lon="6.2039">
        <ele>230.5</ele>
        <time>2026-05-18T10:51:27+02:00</time>
      </trkpt>
      <trkpt lat="48.61895" lon="6.20393">
        <ele>232.7998</ele>
        <time>2026-05-18T10:51:28+02:00</time>
      </trkpt>
      <trkpt lat="48.619" lon="6.20397">
        <ele>232.60059</ele>
        <time>2026-05-18T10:51:29+02:00</time>
      </trkpt>
      <trkpt lat="48.61905" lon="6.204">
        <ele>232.5</ele>
        <time>2026-05-18T10:51:30+02:00</time>
      </trkpt>
      <trkpt lat="48.6191" lon="6.20403">
        <ele>234.5</ele>
        <time>2026-05-18T10:51:31+02:00</time>
      </trkpt>
      <trkpt lat="48.61912" lon="6.20405">
        <ele>234.5</ele>
        <time>2026-05-18T10:51:32+02:00</time>
      </trkpt>
      <trkpt lat="48.61918" lon="6.2041">
        <ele>235</ele>
        <time>2026-05-18T10:51:33+02:00</time>
      </trkpt>
      <trkpt lat="48.61923" lon="6.20412">
        <ele>233.2998</ele>
        <time>2026-05-18T10:51:34+02:00</time>
      </trkpt>
      <trkpt lat="48.61927" lon="6.20415">
        <ele>231.2002</ele>
        <time>2026-05-18T10:51:35+02:00</time>
      </trkpt>
      <trkpt lat="48.61931" lon="6.20419">
        <ele>231.7002</ele>
        <time>2026-05-18T10:51:36+02:00</time>
      </trkpt>
      <trkpt lat="48.61934" lon="6.20422">
        <ele>231.7002</ele>
        <time>2026-05-18T10:51:37+02:00</time>
      </trkpt>
      <trkpt lat="48.61937" lon="6.20425">
        <ele>231.7002</ele>
        <time>2026-05-18T10:51:38+02:00</time>
      </trkpt>
      <trkpt lat="48.6194" lon="6.20429">
        <ele>233.60059</ele>
        <time>2026-05-18T10:51:39+02:00</time>
      </trkpt>
      <trkpt lat="48.61942" lon="6.20433">
        <ele>232.7002</ele>
        <time>2026-05-18T10:51:40+02:00</time>
      </trkpt>
      <trkpt lat="48.61946" lon="6.20435">
        <ele>232.7002</ele>
        <time>2026-05-18T10:51:41+02:00</time>
      </trkpt>
      <trkpt lat="48.61949" lon="6.20434">
        <ele>231.7002</ele>
        <time>2026-05-18T10:51:42+02:00</time>
      </trkpt>
      <trkpt lat="48.61951" lon="6.20431">
        <ele>231.7002</ele>
        <time>2026-05-18T10:51:43+02:00</time>
      </trkpt>
      <trkpt lat="48.61952" lon="6.20427">
        <ele>232.5</ele>
        <time>2026-05-18T10:51:44+02:00</time>
      </trkpt>
      <trkpt lat="48.61953" lon="6.20424">
        <ele>233</ele>
        <time>2026-05-18T10:51:45+02:00</time>
      </trkpt>
      <trkpt lat="48.61955" lon="6.2042">
        <ele>233</ele>
        <time>2026-05-18T10:51:46+02:00</time>
      </trkpt>
      <trkpt lat="48.61957" lon="6.20417">
        <ele>235.10059</ele>
        <time>2026-05-18T10:51:47+02:00</time>
      </trkpt>
      <trkpt lat="48.61959" lon="6.20413">
        <ele>235.7002</ele>
        <time>2026-05-18T10:51:48+02:00</time>
      </trkpt>
      <trkpt lat="48.61961" lon="6.2041">
        <ele>235.7002</ele>
        <time>2026-05-18T10:51:49+02:00</time>
      </trkpt>
      <trkpt lat="48.61962" lon="6.20407">
        <ele>236.90039</ele>
        <time>2026-05-18T10:51:50+02:00</time>
      </trkpt>
      <trkpt lat="48.61964" lon="6.20404">
        <ele>237.2998</ele>
        <time>2026-05-18T10:51:51+02:00</time>
      </trkpt>
      <trkpt lat="48.61965" lon="6.20403">
        <ele>237.2998</ele>
        <time>2026-05-18T10:51:52+02:00</time>
      </trkpt>
      <trkpt lat="48.61968" lon="6.20402">
        <ele>237.2998</ele>
        <time>2026-05-18T10:51:53+02:00</time>
      </trkpt>
      <trkpt lat="48.6197" lon="6.20402">
        <ele>237.60059</ele>
        <time>2026-05-18T10:51:54+02:00</time>
      </trkpt>
      <trkpt lat="48.61973" lon="6.20402">
        <ele>237.60059</ele>
        <time>2026-05-18T10:51:55+02:00</time>
      </trkpt>
      <trkpt lat="48.61976" lon="6.20401">
        <ele>238.7002</ele>
        <time>2026-05-18T10:51:56+02:00</time>
      </trkpt>
      <trkpt lat="48.61979" lon="6.20401">
        <ele>238.7002</ele>
        <time>2026-05-18T10:51:57+02:00</time>
      </trkpt>
      <trkpt lat="48.61982" lon="6.20399">
        <ele>239</ele>
        <time>2026-05-18T10:51:58+02:00</time>
      </trkpt>
      <trkpt lat="48.61986" lon="6.20397">
        <ele>239.2998</ele>
        <time>2026-05-18T10:51:59+02:00</time>
      </trkpt>
      <trkpt lat="48.61989" lon="6.20394">
        <ele>239.2998</ele>
        <time>2026-05-18T10:52:00+02:00</time>
      </trkpt>
      <trkpt lat="48.61991" lon="6.20391">
        <ele>239.7998</ele>
        <time>2026-05-18T10:52:01+02:00</time>
      </trkpt>
      <trkpt lat="48.61994" lon="6.20391">
        <ele>239.90039</ele>
        <time>2026-05-18T10:52:02+02:00</time>
      </trkpt>
      <trkpt lat="48.61997" lon="6.20393">
        <ele>239.60059</ele>
        <time>2026-05-18T10:52:03+02:00</time>
      </trkpt>
      <trkpt lat="48.62" lon="6.20397">
        <ele>239.7002</ele>
        <time>2026-05-18T10:52:04+02:00</time>
      </trkpt>
      <trkpt lat="48.62002" lon="6.20403">
        <ele>239.60059</ele>
        <time>2026-05-18T10:52:05+02:00</time>
      </trkpt>
      <trkpt lat="48.62003" lon="6.2041">
        <ele>238.7998</ele>
        <time>2026-05-18T10:52:06+02:00</time>
      </trkpt>
      <trkpt lat="48.62003" lon="6.20419">
        <ele>237.7998</ele>
        <time>2026-05-18T10:52:07+02:00</time>
      </trkpt>
      <trkpt lat="48.62004" lon="6.20428">
        <ele>236.7002</ele>
        <time>2026-05-18T10:52:08+02:00</time>
      </trkpt>
      <trkpt lat="48.62005" lon="6.20438">
        <ele>235.60059</ele>
        <time>2026-05-18T10:52:09+02:00</time>
      </trkpt>
      <trkpt lat="48.62005" lon="6.20448">
        <ele>234.2002</ele>
        <time>2026-05-18T10:52:10+02:00</time>
      </trkpt>
      <trkpt lat="48.62007" lon="6.20459">
        <ele>232.5</ele>
        <time>2026-05-18T10:52:11+02:00</time>
      </trkpt>
      <trkpt lat="48.62011" lon="6.20469">
        <ele>232.10059</ele>
        <time>2026-05-18T10:52:12+02:00</time>
      </trkpt>
      <trkpt lat="48.62016" lon="6.20478">
        <ele>232.60059</ele>
        <time>2026-05-18T10:52:13+02:00</time>
      </trkpt>
      <trkpt lat="48.6202" lon="6.20486">
        <ele>233.5</ele>
        <time>2026-05-18T10:52:14+02:00</time>
      </trkpt>
      <trkpt lat="48.62024" lon="6.20495">
        <ele>233.10059</ele>
        <time>2026-05-18T10:52:15+02:00</time>
      </trkpt>
      <trkpt lat="48.62028" lon="6.20504">
        <ele>233.7998</ele>
        <time>2026-05-18T10:52:16+02:00</time>
      </trkpt>
      <trkpt lat="48.62032" lon="6.20513">
        <ele>232.7998</ele>
        <time>2026-05-18T10:52:17+02:00</time>
      </trkpt>
      <trkpt lat="48.62035" lon="6.20522">
        <ele>230.90039</ele>
        <time>2026-05-18T10:52:18+02:00</time>
      </trkpt>
      <trkpt lat="48.62037" lon="6.2053">
        <ele>230.90039</ele>
        <time>2026-05-18T10:52:19+02:00</time>
      </trkpt>
      <trkpt lat="48.6204" lon="6.20539">
        <ele>231.40039</ele>
        <time>2026-05-18T10:52:20+02:00</time>
      </trkpt>
      <trkpt lat="48.62042" lon="6.20548">
        <ele>231.2002</ele>
        <time>2026-05-18T10:52:21+02:00</time>
      </trkpt>
      <trkpt lat="48.62044" lon="6.20557">
        <ele>230.60059</ele>
        <time>2026-05-18T10:52:22+02:00</time>
      </trkpt>
      <trkpt lat="48.62045" lon="6.20565">
        <ele>230.2002</ele>
        <time>2026-05-18T10:52:23+02:00</time>
      </trkpt>
      <trkpt lat="48.62046" lon="6.20573">
        <ele>230.2002</ele>
        <time>2026-05-18T10:52:24+02:00</time>
      </trkpt>
      <trkpt lat="48.62047" lon="6.20582">
        <ele>230.10059</ele>
        <time>2026-05-18T10:52:25+02:00</time>
      </trkpt>
      <trkpt lat="48.62048" lon="6.2059">
        <ele>230.10059</ele>
        <time>2026-05-18T10:52:26+02:00</time>
      </trkpt>
      <trkpt lat="48.62049" lon="6.20598">
        <ele>229.5</ele>
        <time>2026-05-18T10:52:27+02:00</time>
      </trkpt>
      <trkpt lat="48.6205" lon="6.20606">
        <ele>229.60059</ele>
        <time>2026-05-18T10:52:28+02:00</time>
      </trkpt>
      <trkpt lat="48.62052" lon="6.20615">
        <ele>229.7002</ele>
        <time>2026-05-18T10:52:29+02:00</time>
      </trkpt>
      <trkpt lat="48.62053" lon="6.20623">
        <ele>229.7002</ele>
        <time>2026-05-18T10:52:30+02:00</time>
      </trkpt>
      <trkpt lat="48.62055" lon="6.20631">
        <ele>229.7998</ele>
        <time>2026-05-18T10:52:31+02:00</time>
      </trkpt>
      <trkpt lat="48.62056" lon="6.20639">
        <ele>229.60059</ele>
        <time>2026-05-18T10:52:32+02:00</time>
      </trkpt>
      <trkpt lat="48.62058" lon="6.20648">
        <ele>229.2998</ele>
        <time>2026-05-18T10:52:33+02:00</time>
      </trkpt>
      <trkpt lat="48.6206" lon="6.20657">
        <ele>229.2998</ele>
        <time>2026-05-18T10:52:34+02:00</time>
      </trkpt>
      <trkpt lat="48.62061" lon="6.20666">
        <ele>229.10059</ele>
        <time>2026-05-18T10:52:35+02:00</time>
      </trkpt>
      <trkpt lat="48.62063" lon="6.20676">
        <ele>229</ele>
        <time>2026-05-18T10:52:36+02:00</time>
      </trkpt>
      <trkpt lat="48.62066" lon="6.20686">
        <ele>229.5</ele>
        <time>2026-05-18T10:52:37+02:00</time>
      </trkpt>
      <trkpt lat="48.62068" lon="6.20696">
        <ele>230</ele>
        <time>2026-05-18T10:52:38+02:00</time>
      </trkpt>
      <trkpt lat="48.62069" lon="6.20707">
        <ele>230.2998</ele>
        <time>2026-05-18T10:52:39+02:00</time>
      </trkpt>
      <trkpt lat="48.62071" lon="6.20717">
        <ele>230.40039</ele>
        <time>2026-05-18T10:52:40+02:00</time>
      </trkpt>
      <trkpt lat="48.62073" lon="6.20727">
        <ele>229.90039</ele>
        <time>2026-05-18T10:52:41+02:00</time>
      </trkpt>
      <trkpt lat="48.62075" lon="6.20737">
        <ele>229.90039</ele>
        <time>2026-05-18T10:52:42+02:00</time>
      </trkpt>
      <trkpt lat="48.62076" lon="6.20747">
        <ele>229.90039</ele>
        <time>2026-05-18T10:52:43+02:00</time>
      </trkpt>
      <trkpt lat="48.62078" lon="6.20756">
        <ele>229.60059</ele>
        <time>2026-05-18T10:52:44+02:00</time>
      </trkpt>
      <trkpt lat="48.62079" lon="6.20765">
        <ele>229.60059</ele>
        <time>2026-05-18T10:52:45+02:00</time>
      </trkpt>
      <trkpt lat="48.62081" lon="6.20774">
        <ele>229.60059</ele>
        <time>2026-05-18T10:52:46+02:00</time>
      </trkpt>
      <trkpt lat="48.62082" lon="6.20779">
        <ele>229.60059</ele>
        <time>2026-05-18T10:52:47+02:00</time>
      </trkpt>
      <trkpt lat="48.62084" lon="6.20792">
        <ele>229.5</ele>
        <time>2026-05-18T10:52:48+02:00</time>
      </trkpt>
      <trkpt lat="48.62085" lon="6.208">
        <ele>229.5</ele>
        <time>2026-05-18T10:52:49+02:00</time>
      </trkpt>
      <trkpt lat="48.62086" lon="6.20809">
        <ele>229.5</ele>
        <time>2026-05-18T10:52:50+02:00</time>
      </trkpt>
      <trkpt lat="48.62087" lon="6.20817">
        <ele>229.7002</ele>
        <time>2026-05-18T10:52:51+02:00</time>
      </trkpt>
      <trkpt lat="48.62087" lon="6.20825">
        <ele>229.7002</ele>
        <time>2026-05-18T10:52:52+02:00</time>
      </trkpt>
      <trkpt lat="48.62088" lon="6.20834">
        <ele>229.60059</ele>
        <time>2026-05-18T10:52:53+02:00</time>
      </trkpt>
      <trkpt lat="48.62089" lon="6.20842">
        <ele>230.2002</ele>
        <time>2026-05-18T10:52:54+02:00</time>
      </trkpt>
      <trkpt lat="48.62089" lon="6.2085">
        <ele>230.10059</ele>
        <time>2026-05-18T10:52:55+02:00</time>
      </trkpt>
      <trkpt lat="48.6209" lon="6.20858">
        <ele>230.2998</ele>
        <time>2026-05-18T10:52:56+02:00</time>
      </trkpt>
      <trkpt lat="48.62092" lon="6.20866">
        <ele>230.60059</ele>
        <time>2026-05-18T10:52:57+02:00</time>
      </trkpt>
      <trkpt lat="48.62093" lon="6.20874">
        <ele>230.7002</ele>
        <time>2026-05-18T10:52:58+02:00</time>
      </trkpt>
      <trkpt lat="48.62095" lon="6.20883">
        <ele>230.10059</ele>
        <time>2026-05-18T10:52:59+02:00</time>
      </trkpt>
      <trkpt lat="48.62097" lon="6.20891">
        <ele>230.10059</ele>
        <time>2026-05-18T10:53:00+02:00</time>
      </trkpt>
      <trkpt lat="48.62098" lon="6.209">
        <ele>230.10059</ele>
        <time>2026-05-18T10:53:01+02:00</time>
      </trkpt>
      <trkpt lat="48.621" lon="6.2091">
        <ele>229.7002</ele>
        <time>2026-05-18T10:53:02+02:00</time>
      </trkpt>
      <trkpt lat="48.62102" lon="6.2092">
        <ele>229.7002</ele>
        <time>2026-05-18T10:53:03+02:00</time>
      </trkpt>
      <trkpt lat="48.62104" lon="6.2093">
        <ele>229.7998</ele>
        <time>2026-05-18T10:53:04+02:00</time>
      </trkpt>
      <trkpt lat="48.62106" lon="6.2094">
        <ele>229.60059</ele>
        <time>2026-05-18T10:53:05+02:00</time>
      </trkpt>
      <trkpt lat="48.62108" lon="6.20951">
        <ele>229.60059</ele>
        <time>2026-05-18T10:53:06+02:00</time>
      </trkpt>
      <trkpt lat="48.6211" lon="6.20962">
        <ele>229.60059</ele>
        <time>2026-05-18T10:53:07+02:00</time>
      </trkpt>
      <trkpt lat="48.62111" lon="6.20972">
        <ele>229.60059</ele>
        <time>2026-05-18T10:53:08+02:00</time>
      </trkpt>
      <trkpt lat="48.62114" lon="6.20982">
        <ele>229.5</ele>
        <time>2026-05-18T10:53:09+02:00</time>
      </trkpt>
      <trkpt lat="48.62115" lon="6.20993">
        <ele>229.5</ele>
        <time>2026-05-18T10:53:10+02:00</time>
      </trkpt>
      <trkpt lat="48.62117" lon="6.21003">
        <ele>229.7002</ele>
        <time>2026-05-18T10:53:11+02:00</time>
      </trkpt>
      <trkpt lat="48.62119" lon="6.21013">
        <ele>229.7002</ele>
        <time>2026-05-18T10:53:12+02:00</time>
      </trkpt>
      <trkpt lat="48.6212" lon="6.21022">
        <ele>229.7002</ele>
        <time>2026-05-18T10:53:13+02:00</time>
      </trkpt>
      <trkpt lat="48.62122" lon="6.21031">
        <ele>229.7002</ele>
        <time>2026-05-18T10:53:14+02:00</time>
      </trkpt>
      <trkpt lat="48.62123" lon="6.21041">
        <ele>230.2002</ele>
        <time>2026-05-18T10:53:15+02:00</time>
      </trkpt>
      <trkpt lat="48.62124" lon="6.21049">
        <ele>230.2002</ele>
        <time>2026-05-18T10:53:16+02:00</time>
      </trkpt>
      <trkpt lat="48.62125" lon="6.21058">
        <ele>230.2002</ele>
        <time>2026-05-18T10:53:17+02:00</time>
      </trkpt>
      <trkpt lat="48.62126" lon="6.21068">
        <ele>230.10059</ele>
        <time>2026-05-18T10:53:18+02:00</time>
      </trkpt>
      <trkpt lat="48.62127" lon="6.21076">
        <ele>230</ele>
        <time>2026-05-18T10:53:19+02:00</time>
      </trkpt>
      <trkpt lat="48.62127" lon="6.21085">
        <ele>229.90039</ele>
        <time>2026-05-18T10:53:20+02:00</time>
      </trkpt>
      <trkpt lat="48.62128" lon="6.21094">
        <ele>229.90039</ele>
        <time>2026-05-18T10:53:21+02:00</time>
      </trkpt>
      <trkpt lat="48.62129" lon="6.21102">
        <ele>229.7002</ele>
        <time>2026-05-18T10:53:22+02:00</time>
      </trkpt>
      <trkpt lat="48.6213" lon="6.21111">
        <ele>229.7002</ele>
        <time>2026-05-18T10:53:23+02:00</time>
      </trkpt>
      <trkpt lat="48.62131" lon="6.21119">
        <ele>229.60059</ele>
        <time>2026-05-18T10:53:24+02:00</time>
      </trkpt>
      <trkpt lat="48.62133" lon="6.21127">
        <ele>229.60059</ele>
        <time>2026-05-18T10:53:25+02:00</time>
      </trkpt>
      <trkpt lat="48.62134" lon="6.21135">
        <ele>229.60059</ele>
        <time>2026-05-18T10:53:26+02:00</time>
      </trkpt>
      <trkpt lat="48.62136" lon="6.21144">
        <ele>229.60059</ele>
        <time>2026-05-18T10:53:27+02:00</time>
      </trkpt>
      <trkpt lat="48.62138" lon="6.21152">
        <ele>229.60059</ele>
        <time>2026-05-18T10:53:28+02:00</time>
      </trkpt>
      <trkpt lat="48.6214" lon="6.21162">
        <ele>229.5</ele>
        <time>2026-05-18T10:53:29+02:00</time>
      </trkpt>
      <trkpt lat="48.62142" lon="6.21171">
        <ele>229.5</ele>
        <time>2026-05-18T10:53:30+02:00</time>
      </trkpt>
      <trkpt lat="48.62145" lon="6.21181">
        <ele>229.5</ele>
        <time>2026-05-18T10:53:31+02:00</time>
      </trkpt>
      <trkpt lat="48.62147" lon="6.2119">
        <ele>229.40039</ele>
        <time>2026-05-18T10:53:32+02:00</time>
      </trkpt>
      <trkpt lat="48.6215" lon="6.21199">
        <ele>229.2998</ele>
        <time>2026-05-18T10:53:33+02:00</time>
      </trkpt>
      <trkpt lat="48.62152" lon="6.21209">
        <ele>229.10059</ele>
        <time>2026-05-18T10:53:34+02:00</time>
      </trkpt>
      <trkpt lat="48.62155" lon="6.21218">
        <ele>229.10059</ele>
        <time>2026-05-18T10:53:35+02:00</time>
      </trkpt>
      <trkpt lat="48.62158" lon="6.21227">
        <ele>229</ele>
        <time>2026-05-18T10:53:36+02:00</time>
      </trkpt>
      <trkpt lat="48.6216" lon="6.21236">
        <ele>228.90039</ele>
        <time>2026-05-18T10:53:37+02:00</time>
      </trkpt>
      <trkpt lat="48.62163" lon="6.21245">
        <ele>228.7998</ele>
        <time>2026-05-18T10:53:38+02:00</time>
      </trkpt>
      <trkpt lat="48.62166" lon="6.21253">
        <ele>228.7998</ele>
        <time>2026-05-18T10:53:39+02:00</time>
      </trkpt>
      <trkpt lat="48.62169" lon="6.21262">
        <ele>228.7002</ele>
        <time>2026-05-18T10:53:40+02:00</time>
      </trkpt>
      <trkpt lat="48.62172" lon="6.2127">
        <ele>228.60059</ele>
        <time>2026-05-18T10:53:41+02:00</time>
      </trkpt>
      <trkpt lat="48.62175" lon="6.21278">
        <ele>228.5</ele>
        <time>2026-05-18T10:53:42+02:00</time>
      </trkpt>
      <trkpt lat="48.62178" lon="6.21286">
        <ele>228.5</ele>
        <time>2026-05-18T10:53:43+02:00</time>
      </trkpt>
      <trkpt lat="48.62181" lon="6.21293">
        <ele>228.5</ele>
        <time>2026-05-18T10:53:44+02:00</time>
      </trkpt>
      <trkpt lat="48.62184" lon="6.21301">
        <ele>228.5</ele>
        <time>2026-05-18T10:53:45+02:00</time>
      </trkpt>
      <trkpt lat="48.62187" lon="6.21309">
        <ele>228.5</ele>
        <time>2026-05-18T10:53:46+02:00</time>
      </trkpt>
      <trkpt lat="48.6219" lon="6.21316">
        <ele>228.2998</ele>
        <time>2026-05-18T10:53:47+02:00</time>
      </trkpt>
      <trkpt lat="48.62193" lon="6.21324">
        <ele>227.7998</ele>
        <time>2026-05-18T10:53:48+02:00</time>
      </trkpt>
      <trkpt lat="48.62207" lon="6.21351">
        <ele>227.10059</ele>
        <time>2026-05-18T10:53:49+02:00</time>
      </trkpt>
      <trkpt lat="48.62211" lon="6.21358">
        <ele>226.90039</ele>
        <time>2026-05-18T10:53:50+02:00</time>
      </trkpt>
      <trkpt lat="48.62216" lon="6.21364">
        <ele>226.60059</ele>
        <time>2026-05-18T10:53:51+02:00</time>
      </trkpt>
      <trkpt lat="48.62221" lon="6.21371">
        <ele>226.7002</ele>
        <time>2026-05-18T10:53:52+02:00</time>
      </trkpt>
      <trkpt lat="48.62225" lon="6.21379">
        <ele>226.7002</ele>
        <time>2026-05-18T10:53:53+02:00</time>
      </trkpt>
      <trkpt lat="48.6223" lon="6.21386">
        <ele>226.60059</ele>
        <time>2026-05-18T10:53:54+02:00</time>
      </trkpt>
      <trkpt lat="48.62235" lon="6.21394">
        <ele>226.2002</ele>
        <time>2026-05-18T10:53:55+02:00</time>
      </trkpt>
      <trkpt lat="48.6224" lon="6.21402">
        <ele>225.7998</ele>
        <time>2026-05-18T10:53:56+02:00</time>
      </trkpt>
      <trkpt lat="48.62245" lon="6.2141">
        <ele>225.60059</ele>
        <time>2026-05-18T10:53:57+02:00</time>
      </trkpt>
      <trkpt lat="48.62249" lon="6.21418">
        <ele>225.40039</ele>
        <time>2026-05-18T10:53:58+02:00</time>
      </trkpt>
      <trkpt lat="48.62253" lon="6.21426">
        <ele>225.10059</ele>
        <time>2026-05-18T10:53:59+02:00</time>
      </trkpt>
      <trkpt lat="48.62258" lon="6.21433">
        <ele>224.90039</ele>
        <time>2026-05-18T10:54:00+02:00</time>
      </trkpt>
      <trkpt lat="48.62262" lon="6.21441">
        <ele>224.60059</ele>
        <time>2026-05-18T10:54:01+02:00</time>
      </trkpt>
      <trkpt lat="48.62266" lon="6.21448">
        <ele>224.5</ele>
        <time>2026-05-18T10:54:02+02:00</time>
      </trkpt>
      <trkpt lat="48.6227" lon="6.21455">
        <ele>224.2998</ele>
        <time>2026-05-18T10:54:03+02:00</time>
      </trkpt>
      <trkpt lat="48.62274" lon="6.21463">
        <ele>224.2002</ele>
        <time>2026-05-18T10:54:04+02:00</time>
      </trkpt>
      <trkpt lat="48.62278" lon="6.2147">
        <ele>224</ele>
        <time>2026-05-18T10:54:05+02:00</time>
      </trkpt>
      <trkpt lat="48.62282" lon="6.21476">
        <ele>223.7002</ele>
        <time>2026-05-18T10:54:06+02:00</time>
      </trkpt>
      <trkpt lat="48.62286" lon="6.21483">
        <ele>223.5</ele>
        <time>2026-05-18T10:54:07+02:00</time>
      </trkpt>
      <trkpt lat="48.6229" lon="6.2149">
        <ele>223.40039</ele>
        <time>2026-05-18T10:54:08+02:00</time>
      </trkpt>
      <trkpt lat="48.62293" lon="6.21498">
        <ele>223</ele>
        <time>2026-05-18T10:54:09+02:00</time>
      </trkpt>
      <trkpt lat="48.62296" lon="6.21505">
        <ele>222.90039</ele>
        <time>2026-05-18T10:54:10+02:00</time>
      </trkpt>
      <trkpt lat="48.62299" lon="6.21513">
        <ele>222.60059</ele>
        <time>2026-05-18T10:54:11+02:00</time>
      </trkpt>
      <trkpt lat="48.62303" lon="6.2152">
        <ele>222.40039</ele>
        <time>2026-05-18T10:54:12+02:00</time>
      </trkpt>
      <trkpt lat="48.62307" lon="6.21527">
        <ele>222</ele>
        <time>2026-05-18T10:54:13+02:00</time>
      </trkpt>
      <trkpt lat="48.6231" lon="6.21534">
        <ele>221.90039</ele>
        <time>2026-05-18T10:54:14+02:00</time>
      </trkpt>
      <trkpt lat="48.62314" lon="6.2154">
        <ele>221.7998</ele>
        <time>2026-05-18T10:54:15+02:00</time>
      </trkpt>
      <trkpt lat="48.62318" lon="6.21547">
        <ele>221.90039</ele>
        <time>2026-05-18T10:54:16+02:00</time>
      </trkpt>
      <trkpt lat="48.62322" lon="6.21554">
        <ele>221.90039</ele>
        <time>2026-05-18T10:54:17+02:00</time>
      </trkpt>
      <trkpt lat="48.62327" lon="6.21562">
        <ele>221.90039</ele>
        <time>2026-05-18T10:54:18+02:00</time>
      </trkpt>
      <trkpt lat="48.62332" lon="6.21569">
        <ele>221.7998</ele>
        <time>2026-05-18T10:54:19+02:00</time>
      </trkpt>
      <trkpt lat="48.62336" lon="6.21577">
        <ele>221.7998</ele>
        <time>2026-05-18T10:54:20+02:00</time>
      </trkpt>
      <trkpt lat="48.62341" lon="6.21585">
        <ele>221.7002</ele>
        <time>2026-05-18T10:54:21+02:00</time>
      </trkpt>
      <trkpt lat="48.62346" lon="6.21593">
        <ele>221.60059</ele>
        <time>2026-05-18T10:54:22+02:00</time>
      </trkpt>
      <trkpt lat="48.62351" lon="6.216">
        <ele>221.60059</ele>
        <time>2026-05-18T10:54:23+02:00</time>
      </trkpt>
      <trkpt lat="48.62356" lon="6.21608">
        <ele>221.60059</ele>
        <time>2026-05-18T10:54:24+02:00</time>
      </trkpt>
      <trkpt lat="48.62361" lon="6.21616">
        <ele>221.60059</ele>
        <time>2026-05-18T10:54:25+02:00</time>
      </trkpt>
      <trkpt lat="48.62366" lon="6.21623">
        <ele>221.60059</ele>
        <time>2026-05-18T10:54:26+02:00</time>
      </trkpt>
      <trkpt lat="48.62372" lon="6.2163">
        <ele>221.7002</ele>
        <time>2026-05-18T10:54:27+02:00</time>
      </trkpt>
      <trkpt lat="48.62376" lon="6.21636">
        <ele>221.7002</ele>
        <time>2026-05-18T10:54:28+02:00</time>
      </trkpt>
      <trkpt lat="48.62381" lon="6.21643">
        <ele>221.60059</ele>
        <time>2026-05-18T10:54:29+02:00</time>
      </trkpt>
      <trkpt lat="48.62383" lon="6.21646">
        <ele>221.5</ele>
        <time>2026-05-18T10:54:30+02:00</time>
      </trkpt>
      <trkpt lat="48.62391" lon="6.21655">
        <ele>221.40039</ele>
        <time>2026-05-18T10:54:31+02:00</time>
      </trkpt>
      <trkpt lat="48.62395" lon="6.2166">
        <ele>221.40039</ele>
        <time>2026-05-18T10:54:32+02:00</time>
      </trkpt>
      <trkpt lat="48.624" lon="6.21666">
        <ele>221.40039</ele>
        <time>2026-05-18T10:54:33+02:00</time>
      </trkpt>
      <trkpt lat="48.62404" lon="6.21671">
        <ele>221.2998</ele>
        <time>2026-05-18T10:54:34+02:00</time>
      </trkpt>
      <trkpt lat="48.62409" lon="6.21677">
        <ele>221.2002</ele>
        <time>2026-05-18T10:54:35+02:00</time>
      </trkpt>
      <trkpt lat="48.62414" lon="6.21682">
        <ele>221</ele>
        <time>2026-05-18T10:54:36+02:00</time>
      </trkpt>
      <trkpt lat="48.62418" lon="6.21687">
        <ele>220.90039</ele>
        <time>2026-05-18T10:54:37+02:00</time>
      </trkpt>
      <trkpt lat="48.62423" lon="6.21692">
        <ele>220.90039</ele>
        <time>2026-05-18T10:54:38+02:00</time>
      </trkpt>
      <trkpt lat="48.62425" lon="6.21695">
        <ele>220.90039</ele>
        <time>2026-05-18T10:54:39+02:00</time>
      </trkpt>
      <trkpt lat="48.62432" lon="6.21702">
        <ele>220.7998</ele>
        <time>2026-05-18T10:54:40+02:00</time>
      </trkpt>
      <trkpt lat="48.62437" lon="6.21707">
        <ele>220.7002</ele>
        <time>2026-05-18T10:54:41+02:00</time>
      </trkpt>
      <trkpt lat="48.62443" lon="6.21712">
        <ele>220.60059</ele>
        <time>2026-05-18T10:54:42+02:00</time>
      </trkpt>
      <trkpt lat="48.62448" lon="6.21717">
        <ele>220.5</ele>
        <time>2026-05-18T10:54:43+02:00</time>
      </trkpt>
      <trkpt lat="48.62454" lon="6.21722">
        <ele>220.40039</ele>
        <time>2026-05-18T10:54:44+02:00</time>
      </trkpt>
      <trkpt lat="48.6246" lon="6.21727">
        <ele>220.2998</ele>
        <time>2026-05-18T10:54:45+02:00</time>
      </trkpt>
      <trkpt lat="48.62467" lon="6.21733">
        <ele>220.2998</ele>
        <time>2026-05-18T10:54:46+02:00</time>
      </trkpt>
      <trkpt lat="48.62473" lon="6.21738">
        <ele>220.2002</ele>
        <time>2026-05-18T10:54:47+02:00</time>
      </trkpt>
      <trkpt lat="48.6248" lon="6.21743">
        <ele>220.10059</ele>
        <time>2026-05-18T10:54:48+02:00</time>
      </trkpt>
      <trkpt lat="48.62486" lon="6.21749">
        <ele>220</ele>
        <time>2026-05-18T10:54:49+02:00</time>
      </trkpt>
      <trkpt lat="48.62493" lon="6.21755">
        <ele>219.90039</ele>
        <time>2026-05-18T10:54:50+02:00</time>
      </trkpt>
      <trkpt lat="48.62499" lon="6.2176">
        <ele>219.90039</ele>
        <time>2026-05-18T10:54:51+02:00</time>
      </trkpt>
      <trkpt lat="48.62505" lon="6.21765">
        <ele>219.7998</ele>
        <time>2026-05-18T10:54:52+02:00</time>
      </trkpt>
      <trkpt lat="48.62512" lon="6.21769">
        <ele>219.7998</ele>
        <time>2026-05-18T10:54:53+02:00</time>
      </trkpt>
      <trkpt lat="48.62518" lon="6.21774">
        <ele>219.60059</ele>
        <time>2026-05-18T10:54:54+02:00</time>
      </trkpt>
      <trkpt lat="48.62523" lon="6.21778">
        <ele>219.60059</ele>
        <time>2026-05-18T10:54:55+02:00</time>
      </trkpt>
      <trkpt lat="48.62529" lon="6.21782">
        <ele>219.40039</ele>
        <time>2026-05-18T10:54:56+02:00</time>
      </trkpt>
      <trkpt lat="48.62534" lon="6.21786">
        <ele>219.40039</ele>
        <time>2026-05-18T10:54:57+02:00</time>
      </trkpt>
      <trkpt lat="48.6254" lon="6.2179">
        <ele>219.2002</ele>
        <time>2026-05-18T10:54:58+02:00</time>
      </trkpt>
      <trkpt lat="48.62545" lon="6.21794">
        <ele>219.10059</ele>
        <time>2026-05-18T10:54:59+02:00</time>
      </trkpt>
      <trkpt lat="48.6255" lon="6.21797">
        <ele>218.90039</ele>
        <time>2026-05-18T10:55:00+02:00</time>
      </trkpt>
      <trkpt lat="48.62555" lon="6.21801">
        <ele>218.60059</ele>
        <time>2026-05-18T10:55:01+02:00</time>
      </trkpt>
      <trkpt lat="48.62561" lon="6.21805">
        <ele>218.40039</ele>
        <time>2026-05-18T10:55:02+02:00</time>
      </trkpt>
      <trkpt lat="48.62566" lon="6.21809">
        <ele>218.2002</ele>
        <time>2026-05-18T10:55:03+02:00</time>
      </trkpt>
      <trkpt lat="48.62571" lon="6.21812">
        <ele>218.10059</ele>
        <time>2026-05-18T10:55:04+02:00</time>
      </trkpt>
      <trkpt lat="48.62576" lon="6.21816">
        <ele>218.10059</ele>
        <time>2026-05-18T10:55:05+02:00</time>
      </trkpt>
      <trkpt lat="48.62582" lon="6.2182">
        <ele>217.90039</ele>
        <time>2026-05-18T10:55:06+02:00</time>
      </trkpt>
      <trkpt lat="48.62587" lon="6.21823">
        <ele>217.90039</ele>
        <time>2026-05-18T10:55:07+02:00</time>
      </trkpt>
      <trkpt lat="48.62592" lon="6.21827">
        <ele>217.7002</ele>
        <time>2026-05-18T10:55:08+02:00</time>
      </trkpt>
      <trkpt lat="48.62597" lon="6.2183">
        <ele>217.60059</ele>
        <time>2026-05-18T10:55:09+02:00</time>
      </trkpt>
      <trkpt lat="48.62602" lon="6.21832">
        <ele>217.40039</ele>
        <time>2026-05-18T10:55:10+02:00</time>
      </trkpt>
      <trkpt lat="48.62606" lon="6.21834">
        <ele>217.2002</ele>
        <time>2026-05-18T10:55:11+02:00</time>
      </trkpt>
      <trkpt lat="48.6261" lon="6.21835">
        <ele>217.2002</ele>
        <time>2026-05-18T10:55:12+02:00</time>
      </trkpt>
      <trkpt lat="48.62613" lon="6.21835">
        <ele>217.10059</ele>
        <time>2026-05-18T10:55:13+02:00</time>
      </trkpt>
      <trkpt lat="48.62617" lon="6.21834">
        <ele>216.90039</ele>
        <time>2026-05-18T10:55:14+02:00</time>
      </trkpt>
      <trkpt lat="48.62621" lon="6.21835">
        <ele>216.90039</ele>
        <time>2026-05-18T10:55:15+02:00</time>
      </trkpt>
      <trkpt lat="48.62625" lon="6.21836">
        <ele>216.7002</ele>
        <time>2026-05-18T10:55:16+02:00</time>
      </trkpt>
      <trkpt lat="48.62631" lon="6.21839">
        <ele>216.60059</ele>
        <time>2026-05-18T10:55:17+02:00</time>
      </trkpt>
      <trkpt lat="48.62637" lon="6.21842">
        <ele>216.40039</ele>
        <time>2026-05-18T10:55:18+02:00</time>
      </trkpt>
      <trkpt lat="48.62644" lon="6.21846">
        <ele>216.2002</ele>
        <time>2026-05-18T10:55:19+02:00</time>
      </trkpt>
      <trkpt lat="48.62652" lon="6.21849">
        <ele>216</ele>
        <time>2026-05-18T10:55:20+02:00</time>
      </trkpt>
      <trkpt lat="48.6266" lon="6.21853">
        <ele>215.7998</ele>
        <time>2026-05-18T10:55:21+02:00</time>
      </trkpt>
      <trkpt lat="48.62667" lon="6.21857">
        <ele>215.7002</ele>
        <time>2026-05-18T10:55:22+02:00</time>
      </trkpt>
      <trkpt lat="48.62674" lon="6.21861">
        <ele>215.5</ele>
        <time>2026-05-18T10:55:23+02:00</time>
      </trkpt>
      <trkpt lat="48.62682" lon="6.21865">
        <ele>215.5</ele>
        <time>2026-05-18T10:55:24+02:00</time>
      </trkpt>
      <trkpt lat="48.62689" lon="6.21869">
        <ele>215.5</ele>
        <time>2026-05-18T10:55:25+02:00</time>
      </trkpt>
      <trkpt lat="48.62695" lon="6.21873">
        <ele>215.2998</ele>
        <time>2026-05-18T10:55:26+02:00</time>
      </trkpt>
      <trkpt lat="48.62702" lon="6.21876">
        <ele>215.2002</ele>
        <time>2026-05-18T10:55:27+02:00</time>
      </trkpt>
      <trkpt lat="48.62709" lon="6.2188">
        <ele>215</ele>
        <time>2026-05-18T10:55:28+02:00</time>
      </trkpt>
      <trkpt lat="48.62715" lon="6.21883">
        <ele>214.90039</ele>
        <time>2026-05-18T10:55:29+02:00</time>
      </trkpt>
      <trkpt lat="48.62722" lon="6.21887">
        <ele>214.7998</ele>
        <time>2026-05-18T10:55:30+02:00</time>
      </trkpt>
      <trkpt lat="48.62728" lon="6.2189">
        <ele>214.7998</ele>
        <time>2026-05-18T10:55:31+02:00</time>
      </trkpt>
      <trkpt lat="48.62735" lon="6.21893">
        <ele>214.7998</ele>
        <time>2026-05-18T10:55:32+02:00</time>
      </trkpt>
      <trkpt lat="48.62741" lon="6.21897">
        <ele>214.90039</ele>
        <time>2026-05-18T10:55:33+02:00</time>
      </trkpt>
      <trkpt lat="48.62747" lon="6.219">
        <ele>214.90039</ele>
        <time>2026-05-18T10:55:34+02:00</time>
      </trkpt>
      <trkpt lat="48.62753" lon="6.21903">
        <ele>214.90039</ele>
        <time>2026-05-18T10:55:35+02:00</time>
      </trkpt>
      <trkpt lat="48.6276" lon="6.21905">
        <ele>215.10059</ele>
        <time>2026-05-18T10:55:36+02:00</time>
      </trkpt>
      <trkpt lat="48.62766" lon="6.21906">
        <ele>215.10059</ele>
        <time>2026-05-18T10:55:37+02:00</time>
      </trkpt>
      <trkpt lat="48.62773" lon="6.21906">
        <ele>215.2002</ele>
        <time>2026-05-18T10:55:38+02:00</time>
      </trkpt>
      <trkpt lat="48.6278" lon="6.21906">
        <ele>215.2002</ele>
        <time>2026-05-18T10:55:39+02:00</time>
      </trkpt>
      <trkpt lat="48.62786" lon="6.21904">
        <ele>215.2002</ele>
        <time>2026-05-18T10:55:40+02:00</time>
      </trkpt>
      <trkpt lat="48.62793" lon="6.21901">
        <ele>215</ele>
        <time>2026-05-18T10:55:41+02:00</time>
      </trkpt>
      <trkpt lat="48.62798" lon="6.21898">
        <ele>215.10059</ele>
        <time>2026-05-18T10:55:42+02:00</time>
      </trkpt>
      <trkpt lat="48.62804" lon="6.21895">
        <ele>215.2002</ele>
        <time>2026-05-18T10:55:43+02:00</time>
      </trkpt>
      <trkpt lat="48.6281" lon="6.2189">
        <ele>214.90039</ele>
        <time>2026-05-18T10:55:44+02:00</time>
      </trkpt>
      <trkpt lat="48.62815" lon="6.21885">
        <ele>214.60059</ele>
        <time>2026-05-18T10:55:45+02:00</time>
      </trkpt>
      <trkpt lat="48.6282" lon="6.21878">
        <ele>214.7998</ele>
        <time>2026-05-18T10:55:46+02:00</time>
      </trkpt>
      <trkpt lat="48.62825" lon="6.21872">
        <ele>214.60059</ele>
        <time>2026-05-18T10:55:47+02:00</time>
      </trkpt>
      <trkpt lat="48.62829" lon="6.21865">
        <ele>214.90039</ele>
        <time>2026-05-18T10:55:48+02:00</time>
      </trkpt>
      <trkpt lat="48.62834" lon="6.21857">
        <ele>214.90039</ele>
        <time>2026-05-18T10:55:49+02:00</time>
      </trkpt>
      <trkpt lat="48.62838" lon="6.2185">
        <ele>214.5</ele>
        <time>2026-05-18T10:55:50+02:00</time>
      </trkpt>
      <trkpt lat="48.62843" lon="6.21843">
        <ele>214.2998</ele>
        <time>2026-05-18T10:55:51+02:00</time>
      </trkpt>
      <trkpt lat="48.62847" lon="6.21836">
        <ele>214.2998</ele>
        <time>2026-05-18T10:55:52+02:00</time>
      </trkpt>
      <trkpt lat="48.62851" lon="6.21829">
        <ele>214.2002</ele>
        <time>2026-05-18T10:55:53+02:00</time>
      </trkpt>
      <trkpt lat="48.62855" lon="6.21823">
        <ele>214.10059</ele>
        <time>2026-05-18T10:55:54+02:00</time>
      </trkpt>
      <trkpt lat="48.62859" lon="6.21816">
        <ele>214.10059</ele>
        <time>2026-05-18T10:55:55+02:00</time>
      </trkpt>
      <trkpt lat="48.62863" lon="6.2181">
        <ele>214.10059</ele>
        <time>2026-05-18T10:55:56+02:00</time>
      </trkpt>
      <trkpt lat="48.62866" lon="6.21803">
        <ele>214</ele>
        <time>2026-05-18T10:55:57+02:00</time>
      </trkpt>
      <trkpt lat="48.62869" lon="6.21796">
        <ele>214.10059</ele>
        <time>2026-05-18T10:55:58+02:00</time>
      </trkpt>
      <trkpt lat="48.62871" lon="6.21789">
        <ele>214.10059</ele>
        <time>2026-05-18T10:55:59+02:00</time>
      </trkpt>
      <trkpt lat="48.62872" lon="6.21782">
        <ele>214.10059</ele>
        <time>2026-05-18T10:56:00+02:00</time>
      </trkpt>
      <trkpt lat="48.62874" lon="6.21774">
        <ele>214.2002</ele>
        <time>2026-05-18T10:56:01+02:00</time>
      </trkpt>
      <trkpt lat="48.62876" lon="6.21767">
        <ele>214.2002</ele>
        <time>2026-05-18T10:56:02+02:00</time>
      </trkpt>
      <trkpt lat="48.62879" lon="6.21762">
        <ele>214</ele>
        <time>2026-05-18T10:56:03+02:00</time>
      </trkpt>
      <trkpt lat="48.62882" lon="6.21755">
        <ele>214.10059</ele>
        <time>2026-05-18T10:56:04+02:00</time>
      </trkpt>
      <trkpt lat="48.62886" lon="6.21748">
        <ele>214</ele>
        <time>2026-05-18T10:56:05+02:00</time>
      </trkpt>
      <trkpt lat="48.6289" lon="6.21741">
        <ele>213.90039</ele>
        <time>2026-05-18T10:56:06+02:00</time>
      </trkpt>
      <trkpt lat="48.62893" lon="6.21733">
        <ele>213.7998</ele>
        <time>2026-05-18T10:56:07+02:00</time>
      </trkpt>
      <trkpt lat="48.62897" lon="6.21724">
        <ele>213.60059</ele>
        <time>2026-05-18T10:56:08+02:00</time>
      </trkpt>
      <trkpt lat="48.62901" lon="6.21716">
        <ele>213.40039</ele>
        <time>2026-05-18T10:56:09+02:00</time>
      </trkpt>
      <trkpt lat="48.62905" lon="6.21707">
        <ele>213.2998</ele>
        <time>2026-05-18T10:56:10+02:00</time>
      </trkpt>
      <trkpt lat="48.62909" lon="6.21699">
        <ele>213</ele>
        <time>2026-05-18T10:56:11+02:00</time>
      </trkpt>
      <trkpt lat="48.62913" lon="6.21692">
        <ele>212.7998</ele>
        <time>2026-05-18T10:56:12+02:00</time>
      </trkpt>
      <trkpt lat="48.62916" lon="6.21684">
        <ele>212.7002</ele>
        <time>2026-05-18T10:56:13+02:00</time>
      </trkpt>
      <trkpt lat="48.6292" lon="6.21677">
        <ele>212.40039</ele>
        <time>2026-05-18T10:56:14+02:00</time>
      </trkpt>
      <trkpt lat="48.62923" lon="6.21669">
        <ele>212.2002</ele>
        <time>2026-05-18T10:56:15+02:00</time>
      </trkpt>
      <trkpt lat="48.62926" lon="6.21662">
        <ele>212.2002</ele>
        <time>2026-05-18T10:56:16+02:00</time>
      </trkpt>
      <trkpt lat="48.62929" lon="6.21655">
        <ele>212.10059</ele>
        <time>2026-05-18T10:56:17+02:00</time>
      </trkpt>
      <trkpt lat="48.62933" lon="6.21649">
        <ele>212</ele>
        <time>2026-05-18T10:56:18+02:00</time>
      </trkpt>
      <trkpt lat="48.62936" lon="6.21642">
        <ele>211.7998</ele>
        <time>2026-05-18T10:56:19+02:00</time>
      </trkpt>
      <trkpt lat="48.6294" lon="6.21635">
        <ele>211.60059</ele>
        <time>2026-05-18T10:56:20+02:00</time>
      </trkpt>
      <trkpt lat="48.62943" lon="6.21629">
        <ele>211.60059</ele>
        <time>2026-05-18T10:56:21+02:00</time>
      </trkpt>
      <trkpt lat="48.62947" lon="6.21623">
        <ele>211.5</ele>
        <time>2026-05-18T10:56:22+02:00</time>
      </trkpt>
      <trkpt lat="48.6295" lon="6.21618">
        <ele>211.40039</ele>
        <time>2026-05-18T10:56:23+02:00</time>
      </trkpt>
      <trkpt lat="48.62954" lon="6.21612">
        <ele>211.2998</ele>
        <time>2026-05-18T10:56:24+02:00</time>
      </trkpt>
      <trkpt lat="48.62958" lon="6.21607">
        <ele>211.2002</ele>
        <time>2026-05-18T10:56:25+02:00</time>
      </trkpt>
      <trkpt lat="48.62961" lon="6.21601">
        <ele>211.2002</ele>
        <time>2026-05-18T10:56:26+02:00</time>
      </trkpt>
      <trkpt lat="48.62965" lon="6.21594">
        <ele>211.10059</ele>
        <time>2026-05-18T10:56:27+02:00</time>
      </trkpt>
      <trkpt lat="48.62968" lon="6.21587">
        <ele>210.90039</ele>
        <time>2026-05-18T10:56:28+02:00</time>
      </trkpt>
      <trkpt lat="48.62971" lon="6.2158">
        <ele>211</ele>
        <time>2026-05-18T10:56:29+02:00</time>
      </trkpt>
      <trkpt lat="48.62974" lon="6.21571">
        <ele>210.90039</ele>
        <time>2026-05-18T10:56:30+02:00</time>
      </trkpt>
      <trkpt lat="48.62978" lon="6.21563">
        <ele>211</ele>
        <time>2026-05-18T10:56:31+02:00</time>
      </trkpt>
      <trkpt lat="48.62981" lon="6.21554">
        <ele>211</ele>
        <time>2026-05-18T10:56:32+02:00</time>
      </trkpt>
      <trkpt lat="48.62985" lon="6.21545">
        <ele>211</ele>
        <time>2026-05-18T10:56:33+02:00</time>
      </trkpt>
      <trkpt lat="48.62988" lon="6.21535">
        <ele>211</ele>
        <time>2026-05-18T10:56:34+02:00</time>
      </trkpt>
      <trkpt lat="48.62993" lon="6.21525">
        <ele>211.10059</ele>
        <time>2026-05-18T10:56:35+02:00</time>
      </trkpt>
      <trkpt lat="48.62996" lon="6.21516">
        <ele>211.2002</ele>
        <time>2026-05-18T10:56:36+02:00</time>
      </trkpt>
      <trkpt lat="48.63001" lon="6.21506">
        <ele>211.2002</ele>
        <time>2026-05-18T10:56:37+02:00</time>
      </trkpt>
      <trkpt lat="48.63005" lon="6.21497">
        <ele>211.10059</ele>
        <time>2026-05-18T10:56:38+02:00</time>
      </trkpt>
      <trkpt lat="48.63009" lon="6.21488">
        <ele>211</ele>
        <time>2026-05-18T10:56:39+02:00</time>
      </trkpt>
      <trkpt lat="48.63014" lon="6.2148">
        <ele>211</ele>
        <time>2026-05-18T10:56:40+02:00</time>
      </trkpt>
      <trkpt lat="48.63019" lon="6.21472">
        <ele>210.90039</ele>
        <time>2026-05-18T10:56:41+02:00</time>
      </trkpt>
      <trkpt lat="48.63023" lon="6.21465">
        <ele>210.90039</ele>
        <time>2026-05-18T10:56:42+02:00</time>
      </trkpt>
      <trkpt lat="48.63027" lon="6.21459">
        <ele>210.7998</ele>
        <time>2026-05-18T10:56:43+02:00</time>
      </trkpt>
      <trkpt lat="48.63032" lon="6.21453">
        <ele>210.7998</ele>
        <time>2026-05-18T10:56:44+02:00</time>
      </trkpt>
      <trkpt lat="48.63036" lon="6.21447">
        <ele>210.7998</ele>
        <time>2026-05-18T10:56:45+02:00</time>
      </trkpt>
      <trkpt lat="48.63041" lon="6.21442">
        <ele>210.7998</ele>
        <time>2026-05-18T10:56:46+02:00</time>
      </trkpt>
      <trkpt lat="48.63046" lon="6.21437">
        <ele>210.7998</ele>
        <time>2026-05-18T10:56:47+02:00</time>
      </trkpt>
      <trkpt lat="48.63051" lon="6.21432">
        <ele>210.7998</ele>
        <time>2026-05-18T10:56:48+02:00</time>
      </trkpt>
      <trkpt lat="48.63056" lon="6.21427">
        <ele>210.7998</ele>
        <time>2026-05-18T10:56:49+02:00</time>
      </trkpt>
      <trkpt lat="48.6306" lon="6.21423">
        <ele>210.7002</ele>
        <time>2026-05-18T10:56:50+02:00</time>
      </trkpt>
      <trkpt lat="48.63065" lon="6.21419">
        <ele>210.7998</ele>
        <time>2026-05-18T10:56:51+02:00</time>
      </trkpt>
      <trkpt lat="48.6307" lon="6.21415">
        <ele>210.7002</ele>
        <time>2026-05-18T10:56:52+02:00</time>
      </trkpt>
      <trkpt lat="48.63075" lon="6.21411">
        <ele>210.7998</ele>
        <time>2026-05-18T10:56:53+02:00</time>
      </trkpt>
      <trkpt lat="48.6308" lon="6.21408">
        <ele>210.7998</ele>
        <time>2026-05-18T10:56:54+02:00</time>
      </trkpt>
      <trkpt lat="48.63085" lon="6.21405">
        <ele>210.7998</ele>
        <time>2026-05-18T10:56:55+02:00</time>
      </trkpt>
      <trkpt lat="48.63088" lon="6.21404">
        <ele>210.7002</ele>
        <time>2026-05-18T10:56:56+02:00</time>
      </trkpt>
      <trkpt lat="48.63095" lon="6.214">
        <ele>210.60059</ele>
        <time>2026-05-18T10:56:57+02:00</time>
      </trkpt>
      <trkpt lat="48.631" lon="6.21397">
        <ele>210.40039</ele>
        <time>2026-05-18T10:56:58+02:00</time>
      </trkpt>
      <trkpt lat="48.63105" lon="6.21395">
        <ele>210.40039</ele>
        <time>2026-05-18T10:56:59+02:00</time>
      </trkpt>
      <trkpt lat="48.6311" lon="6.21393">
        <ele>210.2002</ele>
        <time>2026-05-18T10:57:00+02:00</time>
      </trkpt>
      <trkpt lat="48.63116" lon="6.2139">
        <ele>210.10059</ele>
        <time>2026-05-18T10:57:01+02:00</time>
      </trkpt>
      <trkpt lat="48.63121" lon="6.21388">
        <ele>210.10059</ele>
        <time>2026-05-18T10:57:02+02:00</time>
      </trkpt>
      <trkpt lat="48.63124" lon="6.21387">
        <ele>210.10059</ele>
        <time>2026-05-18T10:57:03+02:00</time>
      </trkpt>
      <trkpt lat="48.63132" lon="6.21385">
        <ele>209.90039</ele>
        <time>2026-05-18T10:57:04+02:00</time>
      </trkpt>
      <trkpt lat="48.63137" lon="6.21383">
        <ele>209.90039</ele>
        <time>2026-05-18T10:57:05+02:00</time>
      </trkpt>
      <trkpt lat="48.63143" lon="6.21381">
        <ele>209.7998</ele>
        <time>2026-05-18T10:57:06+02:00</time>
      </trkpt>
      <trkpt lat="48.63148" lon="6.21379">
        <ele>210</ele>
        <time>2026-05-18T10:57:07+02:00</time>
      </trkpt>
      <trkpt lat="48.63153" lon="6.21377">
        <ele>209.90039</ele>
        <time>2026-05-18T10:57:08+02:00</time>
      </trkpt>
      <trkpt lat="48.63159" lon="6.21375">
        <ele>209.90039</ele>
        <time>2026-05-18T10:57:09+02:00</time>
      </trkpt>
      <trkpt lat="48.63164" lon="6.21373">
        <ele>209.7998</ele>
        <time>2026-05-18T10:57:10+02:00</time>
      </trkpt>
      <trkpt lat="48.63169" lon="6.21372">
        <ele>209.7998</ele>
        <time>2026-05-18T10:57:11+02:00</time>
      </trkpt>
      <trkpt lat="48.63175" lon="6.2137">
        <ele>209.7002</ele>
        <time>2026-05-18T10:57:12+02:00</time>
      </trkpt>
      <trkpt lat="48.6318" lon="6.21368">
        <ele>209.60059</ele>
        <time>2026-05-18T10:57:13+02:00</time>
      </trkpt>
      <trkpt lat="48.63186" lon="6.21367">
        <ele>209.5</ele>
        <time>2026-05-18T10:57:14+02:00</time>
      </trkpt>
      <trkpt lat="48.63191" lon="6.21365">
        <ele>209.5</ele>
        <time>2026-05-18T10:57:15+02:00</time>
      </trkpt>
      <trkpt lat="48.63197" lon="6.21364">
        <ele>209.40039</ele>
        <time>2026-05-18T10:57:16+02:00</time>
      </trkpt>
      <trkpt lat="48.63202" lon="6.21362">
        <ele>209.2002</ele>
        <time>2026-05-18T10:57:17+02:00</time>
      </trkpt>
      <trkpt lat="48.63208" lon="6.2136">
        <ele>209.2998</ele>
        <time>2026-05-18T10:57:18+02:00</time>
      </trkpt>
      <trkpt lat="48.63213" lon="6.21359">
        <ele>209.2998</ele>
        <time>2026-05-18T10:57:19+02:00</time>
      </trkpt>
      <trkpt lat="48.63219" lon="6.21356">
        <ele>209.40039</ele>
        <time>2026-05-18T10:57:20+02:00</time>
      </trkpt>
      <trkpt lat="48.63224" lon="6.21355">
        <ele>209.40039</ele>
        <time>2026-05-18T10:57:21+02:00</time>
      </trkpt>
      <trkpt lat="48.63229" lon="6.21353">
        <ele>209.2998</ele>
        <time>2026-05-18T10:57:22+02:00</time>
      </trkpt>
      <trkpt lat="48.63234" lon="6.21351">
        <ele>209.2998</ele>
        <time>2026-05-18T10:57:23+02:00</time>
      </trkpt>
      <trkpt lat="48.63237" lon="6.2135">
        <ele>209.2998</ele>
        <time>2026-05-18T10:57:24+02:00</time>
      </trkpt>
      <trkpt lat="48.63244" lon="6.21347">
        <ele>209.40039</ele>
        <time>2026-05-18T10:57:25+02:00</time>
      </trkpt>
      <trkpt lat="48.63249" lon="6.21345">
        <ele>209.2998</ele>
        <time>2026-05-18T10:57:26+02:00</time>
      </trkpt>
      <trkpt lat="48.63254" lon="6.21344">
        <ele>209.2998</ele>
        <time>2026-05-18T10:57:27+02:00</time>
      </trkpt>
      <trkpt lat="48.6326" lon="6.21342">
        <ele>209.2002</ele>
        <time>2026-05-18T10:57:28+02:00</time>
      </trkpt>
      <trkpt lat="48.63265" lon="6.2134">
        <ele>209.2998</ele>
        <time>2026-05-18T10:57:29+02:00</time>
      </trkpt>
      <trkpt lat="48.63271" lon="6.21338">
        <ele>209.40039</ele>
        <time>2026-05-18T10:57:30+02:00</time>
      </trkpt>
      <trkpt lat="48.63274" lon="6.21338">
        <ele>209.7002</ele>
        <time>2026-05-18T10:57:31+02:00</time>
      </trkpt>
      <trkpt lat="48.63282" lon="6.21335">
        <ele>209.7998</ele>
        <time>2026-05-18T10:57:32+02:00</time>
      </trkpt>
      <trkpt lat="48.63287" lon="6.21333">
        <ele>210.2998</ele>
        <time>2026-05-18T10:57:33+02:00</time>
      </trkpt>
      <trkpt lat="48.63293" lon="6.21331">
        <ele>210.7998</ele>
        <time>2026-05-18T10:57:34+02:00</time>
      </trkpt>
      <trkpt lat="48.63299" lon="6.21329">
        <ele>211.2002</ele>
        <time>2026-05-18T10:57:35+02:00</time>
      </trkpt>
      <trkpt lat="48.63304" lon="6.21328">
        <ele>211.2002</ele>
        <time>2026-05-18T10:57:36+02:00</time>
      </trkpt>
      <trkpt lat="48.63309" lon="6.21326">
        <ele>211.60059</ele>
        <time>2026-05-18T10:57:37+02:00</time>
      </trkpt>
      <trkpt lat="48.63312" lon="6.21325">
        <ele>211.60059</ele>
        <time>2026-05-18T10:57:38+02:00</time>
      </trkpt>
      <trkpt lat="48.6332" lon="6.21322">
        <ele>212</ele>
        <time>2026-05-18T10:57:39+02:00</time>
      </trkpt>
      <trkpt lat="48.63326" lon="6.2132">
        <ele>212</ele>
        <time>2026-05-18T10:57:40+02:00</time>
      </trkpt>
      <trkpt lat="48.63331" lon="6.21319">
        <ele>211.7002</ele>
        <time>2026-05-18T10:57:41+02:00</time>
      </trkpt>
      <trkpt lat="48.63336" lon="6.21317">
        <ele>211.7002</ele>
        <time>2026-05-18T10:57:42+02:00</time>
      </trkpt>
      <trkpt lat="48.63341" lon="6.21315">
        <ele>211.7002</ele>
        <time>2026-05-18T10:57:43+02:00</time>
      </trkpt>
      <trkpt lat="48.63346" lon="6.21313">
        <ele>211.7002</ele>
        <time>2026-05-18T10:57:44+02:00</time>
      </trkpt>
      <trkpt lat="48.63352" lon="6.21311">
        <ele>211.7002</ele>
        <time>2026-05-18T10:57:45+02:00</time>
      </trkpt>
      <trkpt lat="48.63357" lon="6.2131">
        <ele>211.7002</ele>
        <time>2026-05-18T10:57:46+02:00</time>
      </trkpt>
      <trkpt lat="48.63361" lon="6.21308">
        <ele>211.7998</ele>
        <time>2026-05-18T10:57:47+02:00</time>
      </trkpt>
      <trkpt lat="48.63366" lon="6.21307">
        <ele>211.7998</ele>
        <time>2026-05-18T10:57:48+02:00</time>
      </trkpt>
      <trkpt lat="48.63372" lon="6.21305">
        <ele>211.7998</ele>
        <time>2026-05-18T10:57:49+02:00</time>
      </trkpt>
      <trkpt lat="48.63377" lon="6.21303">
        <ele>211.7998</ele>
        <time>2026-05-18T10:57:50+02:00</time>
      </trkpt>
      <trkpt lat="48.63382" lon="6.21302">
        <ele>212</ele>
        <time>2026-05-18T10:57:51+02:00</time>
      </trkpt>
      <trkpt lat="48.63386" lon="6.213">
        <ele>212</ele>
        <time>2026-05-18T10:57:52+02:00</time>
      </trkpt>
      <trkpt lat="48.63392" lon="6.21298">
        <ele>211.90039</ele>
        <time>2026-05-18T10:57:53+02:00</time>
      </trkpt>
      <trkpt lat="48.63397" lon="6.21297">
        <ele>211.7002</ele>
        <time>2026-05-18T10:57:54+02:00</time>
      </trkpt>
      <trkpt lat="48.634" lon="6.21296">
        <ele>211.60059</ele>
        <time>2026-05-18T10:57:55+02:00</time>
      </trkpt>
      <trkpt lat="48.63408" lon="6.21295">
        <ele>211.60059</ele>
        <time>2026-05-18T10:57:56+02:00</time>
      </trkpt>
      <trkpt lat="48.63414" lon="6.21294">
        <ele>211.90039</ele>
        <time>2026-05-18T10:57:57+02:00</time>
      </trkpt>
      <trkpt lat="48.63419" lon="6.21293">
        <ele>212.2002</ele>
        <time>2026-05-18T10:57:58+02:00</time>
      </trkpt>
      <trkpt lat="48.63424" lon="6.21292">
        <ele>212.40039</ele>
        <time>2026-05-18T10:57:59+02:00</time>
      </trkpt>
      <trkpt lat="48.6343" lon="6.21292">
        <ele>212.5</ele>
        <time>2026-05-18T10:58:00+02:00</time>
      </trkpt>
      <trkpt lat="48.63435" lon="6.21291">
        <ele>212.60059</ele>
        <time>2026-05-18T10:58:01+02:00</time>
      </trkpt>
      <trkpt lat="48.63441" lon="6.21291">
        <ele>212.7002</ele>
        <time>2026-05-18T10:58:02+02:00</time>
      </trkpt>
      <trkpt lat="48.63447" lon="6.2129">
        <ele>212.7998</ele>
        <time>2026-05-18T10:58:03+02:00</time>
      </trkpt>
      <trkpt lat="48.63452" lon="6.2129">
        <ele>212.90039</ele>
        <time>2026-05-18T10:58:04+02:00</time>
      </trkpt>
      <trkpt lat="48.63458" lon="6.21289">
        <ele>213</ele>
        <time>2026-05-18T10:58:05+02:00</time>
      </trkpt>
      <trkpt lat="48.63463" lon="6.21288">
        <ele>213</ele>
        <time>2026-05-18T10:58:06+02:00</time>
      </trkpt>
      <trkpt lat="48.63469" lon="6.21288">
        <ele>213.10059</ele>
        <time>2026-05-18T10:58:07+02:00</time>
      </trkpt>
      <trkpt lat="48.63474" lon="6.21287">
        <ele>213.10059</ele>
        <time>2026-05-18T10:58:08+02:00</time>
      </trkpt>
      <trkpt lat="48.6348" lon="6.21286">
        <ele>213.2002</ele>
        <time>2026-05-18T10:58:09+02:00</time>
      </trkpt>
      <trkpt lat="48.63486" lon="6.21285">
        <ele>212.2002</ele>
        <time>2026-05-18T10:58:10+02:00</time>
      </trkpt>
      <trkpt lat="48.63492" lon="6.21285">
        <ele>212.2998</ele>
        <time>2026-05-18T10:58:11+02:00</time>
      </trkpt>
      <trkpt lat="48.63497" lon="6.21285">
        <ele>212.2998</ele>
        <time>2026-05-18T10:58:12+02:00</time>
      </trkpt>
      <trkpt lat="48.63503" lon="6.21284">
        <ele>212.2998</ele>
        <time>2026-05-18T10:58:13+02:00</time>
      </trkpt>
      <trkpt lat="48.63509" lon="6.21284">
        <ele>212.40039</ele>
        <time>2026-05-18T10:58:14+02:00</time>
      </trkpt>
      <trkpt lat="48.63514" lon="6.21284">
        <ele>212.40039</ele>
        <time>2026-05-18T10:58:15+02:00</time>
      </trkpt>
      <trkpt lat="48.6352" lon="6.21284">
        <ele>212.5</ele>
        <time>2026-05-18T10:58:16+02:00</time>
      </trkpt>
      <trkpt lat="48.63526" lon="6.21284">
        <ele>212.5</ele>
        <time>2026-05-18T10:58:17+02:00</time>
      </trkpt>
      <trkpt lat="48.63531" lon="6.21285">
        <ele>212.5</ele>
        <time>2026-05-18T10:58:18+02:00</time>
      </trkpt>
      <trkpt lat="48.63537" lon="6.21285">
        <ele>212.60059</ele>
        <time>2026-05-18T10:58:19+02:00</time>
      </trkpt>
      <trkpt lat="48.63542" lon="6.21286">
        <ele>213.7002</ele>
        <time>2026-05-18T10:58:20+02:00</time>
      </trkpt>
      <trkpt lat="48.63547" lon="6.21287">
        <ele>213.7002</ele>
        <time>2026-05-18T10:58:21+02:00</time>
      </trkpt>
      <trkpt lat="48.63553" lon="6.21288">
        <ele>213.7002</ele>
        <time>2026-05-18T10:58:22+02:00</time>
      </trkpt>
      <trkpt lat="48.63556" lon="6.21288">
        <ele>213.7002</ele>
        <time>2026-05-18T10:58:23+02:00</time>
      </trkpt>
      <trkpt lat="48.63564" lon="6.21289">
        <ele>213.7998</ele>
        <time>2026-05-18T10:58:24+02:00</time>
      </trkpt>
      <trkpt lat="48.6357" lon="6.21289">
        <ele>213.90039</ele>
        <time>2026-05-18T10:58:25+02:00</time>
      </trkpt>
      <trkpt lat="48.63576" lon="6.2129">
        <ele>213.90039</ele>
        <time>2026-05-18T10:58:26+02:00</time>
      </trkpt>
      <trkpt lat="48.63582" lon="6.21291">
        <ele>213.7998</ele>
        <time>2026-05-18T10:58:27+02:00</time>
      </trkpt>
      <trkpt lat="48.63588" lon="6.21292">
        <ele>213.5</ele>
        <time>2026-05-18T10:58:28+02:00</time>
      </trkpt>
      <trkpt lat="48.63594" lon="6.21293">
        <ele>212.90039</ele>
        <time>2026-05-18T10:58:29+02:00</time>
      </trkpt>
      <trkpt lat="48.636" lon="6.21294">
        <ele>212.5</ele>
        <time>2026-05-18T10:58:30+02:00</time>
      </trkpt>
      <trkpt lat="48.63606" lon="6.21296">
        <ele>211.5</ele>
        <time>2026-05-18T10:58:31+02:00</time>
      </trkpt>
      <trkpt lat="48.63611" lon="6.21297">
        <ele>211.40039</ele>
        <time>2026-05-18T10:58:32+02:00</time>
      </trkpt>
      <trkpt lat="48.63614" lon="6.21298">
        <ele>211.40039</ele>
        <time>2026-05-18T10:58:33+02:00</time>
      </trkpt>
      <trkpt lat="48.63622" lon="6.213">
        <ele>211.60059</ele>
        <time>2026-05-18T10:58:34+02:00</time>
      </trkpt>
      <trkpt lat="48.63628" lon="6.21302">
        <ele>211.7002</ele>
        <time>2026-05-18T10:58:35+02:00</time>
      </trkpt>
      <trkpt lat="48.63633" lon="6.21303">
        <ele>212.40039</ele>
        <time>2026-05-18T10:58:36+02:00</time>
      </trkpt>
      <trkpt lat="48.63638" lon="6.21304">
        <ele>212.40039</ele>
        <time>2026-05-18T10:58:37+02:00</time>
      </trkpt>
      <trkpt lat="48.63643" lon="6.21306">
        <ele>212.40039</ele>
        <time>2026-05-18T10:58:38+02:00</time>
      </trkpt>
      <trkpt lat="48.63648" lon="6.21308">
        <ele>212.40039</ele>
        <time>2026-05-18T10:58:39+02:00</time>
      </trkpt>
      <trkpt lat="48.63652" lon="6.21309">
        <ele>212.40039</ele>
        <time>2026-05-18T10:58:40+02:00</time>
      </trkpt>
      <trkpt lat="48.63657" lon="6.21311">
        <ele>212.2998</ele>
        <time>2026-05-18T10:58:41+02:00</time>
      </trkpt>
      <trkpt lat="48.63662" lon="6.21313">
        <ele>212.40039</ele>
        <time>2026-05-18T10:58:42+02:00</time>
      </trkpt>
      <trkpt lat="48.63667" lon="6.21315">
        <ele>211.7998</ele>
        <time>2026-05-18T10:58:43+02:00</time>
      </trkpt>
      <trkpt lat="48.63672" lon="6.21317">
        <ele>211.2998</ele>
        <time>2026-05-18T10:58:44+02:00</time>
      </trkpt>
      <trkpt lat="48.63677" lon="6.21319">
        <ele>211.2002</ele>
        <time>2026-05-18T10:58:45+02:00</time>
      </trkpt>
      <trkpt lat="48.63682" lon="6.21321">
        <ele>211.2002</ele>
        <time>2026-05-18T10:58:46+02:00</time>
      </trkpt>
      <trkpt lat="48.63687" lon="6.21323">
        <ele>211.2998</ele>
        <time>2026-05-18T10:58:47+02:00</time>
      </trkpt>
      <trkpt lat="48.63691" lon="6.21325">
        <ele>211.40039</ele>
        <time>2026-05-18T10:58:48+02:00</time>
      </trkpt>
      <trkpt lat="48.63696" lon="6.21327">
        <ele>211.5</ele>
        <time>2026-05-18T10:58:49+02:00</time>
      </trkpt>
      <trkpt lat="48.63702" lon="6.21329">
        <ele>212.10059</ele>
        <time>2026-05-18T10:58:50+02:00</time>
      </trkpt>
      <trkpt lat="48.63707" lon="6.21331">
        <ele>212.10059</ele>
        <time>2026-05-18T10:58:51+02:00</time>
      </trkpt>
      <trkpt lat="48.63712" lon="6.21334">
        <ele>212.10059</ele>
        <time>2026-05-18T10:58:52+02:00</time>
      </trkpt>
      <trkpt lat="48.63717" lon="6.21336">
        <ele>212.10059</ele>
        <time>2026-05-18T10:58:53+02:00</time>
      </trkpt>
      <trkpt lat="48.63722" lon="6.21339">
        <ele>212.7998</ele>
        <time>2026-05-18T10:58:54+02:00</time>
      </trkpt>
      <trkpt lat="48.63727" lon="6.21342">
        <ele>212.7998</ele>
        <time>2026-05-18T10:58:55+02:00</time>
      </trkpt>
      <trkpt lat="48.63732" lon="6.21345">
        <ele>212.7002</ele>
        <time>2026-05-18T10:58:56+02:00</time>
      </trkpt>
      <trkpt lat="48.63737" lon="6.21348">
        <ele>213</ele>
        <time>2026-05-18T10:58:57+02:00</time>
      </trkpt>
      <trkpt lat="48.63743" lon="6.21351">
        <ele>212.60059</ele>
        <time>2026-05-18T10:58:58+02:00</time>
      </trkpt>
      <trkpt lat="48.63748" lon="6.21354">
        <ele>211.90039</ele>
        <time>2026-05-18T10:58:59+02:00</time>
      </trkpt>
      <trkpt lat="48.63753" lon="6.21357">
        <ele>211.2002</ele>
        <time>2026-05-18T10:59:00+02:00</time>
      </trkpt>
      <trkpt lat="48.63758" lon="6.21361">
        <ele>210.2002</ele>
        <time>2026-05-18T10:59:01+02:00</time>
      </trkpt>
      <trkpt lat="48.63763" lon="6.21364">
        <ele>209.90039</ele>
        <time>2026-05-18T10:59:02+02:00</time>
      </trkpt>
      <trkpt lat="48.63768" lon="6.21368">
        <ele>208.90039</ele>
        <time>2026-05-18T10:59:03+02:00</time>
      </trkpt>
      <trkpt lat="48.63773" lon="6.21371">
        <ele>208.90039</ele>
        <time>2026-05-18T10:59:04+02:00</time>
      </trkpt>
      <trkpt lat="48.63778" lon="6.21375">
        <ele>208.7998</ele>
        <time>2026-05-18T10:59:05+02:00</time>
      </trkpt>
      <trkpt lat="48.63783" lon="6.21379">
        <ele>208</ele>
        <time>2026-05-18T10:59:06+02:00</time>
      </trkpt>
      <trkpt lat="48.63788" lon="6.21383">
        <ele>208.2998</ele>
        <time>2026-05-18T10:59:07+02:00</time>
      </trkpt>
      <trkpt lat="48.63792" lon="6.21387">
        <ele>207.7002</ele>
        <time>2026-05-18T10:59:08+02:00</time>
      </trkpt>
      <trkpt lat="48.63797" lon="6.21391">
        <ele>207.90039</ele>
        <time>2026-05-18T10:59:09+02:00</time>
      </trkpt>
      <trkpt lat="48.63802" lon="6.21394">
        <ele>207.40039</ele>
        <time>2026-05-18T10:59:10+02:00</time>
      </trkpt>
      <trkpt lat="48.63807" lon="6.21398">
        <ele>208</ele>
        <time>2026-05-18T10:59:11+02:00</time>
      </trkpt>
      <trkpt lat="48.63812" lon="6.21402">
        <ele>207.5</ele>
        <time>2026-05-18T10:59:12+02:00</time>
      </trkpt>
      <trkpt lat="48.63817" lon="6.21406">
        <ele>207.7002</ele>
        <time>2026-05-18T10:59:13+02:00</time>
      </trkpt>
      <trkpt lat="48.63822" lon="6.2141">
        <ele>207.60059</ele>
        <time>2026-05-18T10:59:14+02:00</time>
      </trkpt>
      <trkpt lat="48.63827" lon="6.21414">
        <ele>207.60059</ele>
        <time>2026-05-18T10:59:15+02:00</time>
      </trkpt>
      <trkpt lat="48.63831" lon="6.21418">
        <ele>208.2998</ele>
        <time>2026-05-18T10:59:16+02:00</time>
      </trkpt>
      <trkpt lat="48.63836" lon="6.21422">
        <ele>208.2002</ele>
        <time>2026-05-18T10:59:17+02:00</time>
      </trkpt>
      <trkpt lat="48.63841" lon="6.21426">
        <ele>208.60059</ele>
        <time>2026-05-18T10:59:18+02:00</time>
      </trkpt>
      <trkpt lat="48.63846" lon="6.2143">
        <ele>208.60059</ele>
        <time>2026-05-18T10:59:19+02:00</time>
      </trkpt>
      <trkpt lat="48.63851" lon="6.21434">
        <ele>208.7998</ele>
        <time>2026-05-18T10:59:20+02:00</time>
      </trkpt>
      <trkpt lat="48.63856" lon="6.21437">
        <ele>208.7002</ele>
        <time>2026-05-18T10:59:21+02:00</time>
      </trkpt>
      <trkpt lat="48.63861" lon="6.21441">
        <ele>209</ele>
        <time>2026-05-18T10:59:22+02:00</time>
      </trkpt>
      <trkpt lat="48.63866" lon="6.21445">
        <ele>209</ele>
        <time>2026-05-18T10:59:23+02:00</time>
      </trkpt>
      <trkpt lat="48.63868" lon="6.21447">
        <ele>209</ele>
        <time>2026-05-18T10:59:24+02:00</time>
      </trkpt>
      <trkpt lat="48.63876" lon="6.21453">
        <ele>209.40039</ele>
        <time>2026-05-18T10:59:25+02:00</time>
      </trkpt>
      <trkpt lat="48.6388" lon="6.21457">
        <ele>209.40039</ele>
        <time>2026-05-18T10:59:26+02:00</time>
      </trkpt>
      <trkpt lat="48.63885" lon="6.21461">
        <ele>209.60059</ele>
        <time>2026-05-18T10:59:27+02:00</time>
      </trkpt>
      <trkpt lat="48.6389" lon="6.21465">
        <ele>209.60059</ele>
        <time>2026-05-18T10:59:28+02:00</time>
      </trkpt>
      <trkpt lat="48.63895" lon="6.21468">
        <ele>209.60059</ele>
        <time>2026-05-18T10:59:29+02:00</time>
      </trkpt>
      <trkpt lat="48.639" lon="6.21472">
        <ele>209.60059</ele>
        <time>2026-05-18T10:59:30+02:00</time>
      </trkpt>
      <trkpt lat="48.63904" lon="6.21476">
        <ele>209.60059</ele>
        <time>2026-05-18T10:59:31+02:00</time>
      </trkpt>
      <trkpt lat="48.63909" lon="6.2148">
        <ele>209.60059</ele>
        <time>2026-05-18T10:59:32+02:00</time>
      </trkpt>
      <trkpt lat="48.63914" lon="6.21484">
        <ele>209.60059</ele>
        <time>2026-05-18T10:59:33+02:00</time>
      </trkpt>
      <trkpt lat="48.63919" lon="6.21488">
        <ele>209.60059</ele>
        <time>2026-05-18T10:59:34+02:00</time>
      </trkpt>
      <trkpt lat="48.63923" lon="6.21492">
        <ele>209.60059</ele>
        <time>2026-05-18T10:59:35+02:00</time>
      </trkpt>
      <trkpt lat="48.63928" lon="6.21495">
        <ele>209.5</ele>
        <time>2026-05-18T10:59:36+02:00</time>
      </trkpt>
      <trkpt lat="48.63933" lon="6.21499">
        <ele>209.5</ele>
        <time>2026-05-18T10:59:37+02:00</time>
      </trkpt>
      <trkpt lat="48.63938" lon="6.21503">
        <ele>209.40039</ele>
        <time>2026-05-18T10:59:38+02:00</time>
      </trkpt>
      <trkpt lat="48.63942" lon="6.21507">
        <ele>209.40039</ele>
        <time>2026-05-18T10:59:39+02:00</time>
      </trkpt>
      <trkpt lat="48.63947" lon="6.2151">
        <ele>209.5</ele>
        <time>2026-05-18T10:59:40+02:00</time>
      </trkpt>
      <trkpt lat="48.63952" lon="6.21514">
        <ele>209.5</ele>
        <time>2026-05-18T10:59:41+02:00</time>
      </trkpt>
      <trkpt lat="48.63957" lon="6.21518">
        <ele>209.5</ele>
        <time>2026-05-18T10:59:42+02:00</time>
      </trkpt>
      <trkpt lat="48.63962" lon="6.21522">
        <ele>209.40039</ele>
        <time>2026-05-18T10:59:43+02:00</time>
      </trkpt>
      <trkpt lat="48.63967" lon="6.21525">
        <ele>209.40039</ele>
        <time>2026-05-18T10:59:44+02:00</time>
      </trkpt>
      <trkpt lat="48.63971" lon="6.21529">
        <ele>209.40039</ele>
        <time>2026-05-18T10:59:45+02:00</time>
      </trkpt>
      <trkpt lat="48.63976" lon="6.21532">
        <ele>209.40039</ele>
        <time>2026-05-18T10:59:46+02:00</time>
      </trkpt>
      <trkpt lat="48.6398" lon="6.21536">
        <ele>209.40039</ele>
        <time>2026-05-18T10:59:47+02:00</time>
      </trkpt>
      <trkpt lat="48.63985" lon="6.2154">
        <ele>209.2998</ele>
        <time>2026-05-18T10:59:48+02:00</time>
      </trkpt>
      <trkpt lat="48.6399" lon="6.21544">
        <ele>209.2998</ele>
        <time>2026-05-18T10:59:49+02:00</time>
      </trkpt>
      <trkpt lat="48.63995" lon="6.21547">
        <ele>209.2002</ele>
        <time>2026-05-18T10:59:50+02:00</time>
      </trkpt>
      <trkpt lat="48.64" lon="6.21551">
        <ele>209.2002</ele>
        <time>2026-05-18T10:59:51+02:00</time>
      </trkpt>
      <trkpt lat="48.64005" lon="6.21555">
        <ele>209.2998</ele>
        <time>2026-05-18T10:59:52+02:00</time>
      </trkpt>
      <trkpt lat="48.6401" lon="6.21559">
        <ele>209.2002</ele>
        <time>2026-05-18T10:59:53+02:00</time>
      </trkpt>
      <trkpt lat="48.64015" lon="6.21563">
        <ele>209.2998</ele>
        <time>2026-05-18T10:59:54+02:00</time>
      </trkpt>
      <trkpt lat="48.64019" lon="6.21567">
        <ele>209.2002</ele>
        <time>2026-05-18T10:59:55+02:00</time>
      </trkpt>
      <trkpt lat="48.64024" lon="6.21572">
        <ele>209.2002</ele>
        <time>2026-05-18T10:59:56+02:00</time>
      </trkpt>
      <trkpt lat="48.64028" lon="6.21576">
        <ele>209.2002</ele>
        <time>2026-05-18T10:59:57+02:00</time>
      </trkpt>
      <trkpt lat="48.64033" lon="6.21581">
        <ele>209.10059</ele>
        <time>2026-05-18T10:59:58+02:00</time>
      </trkpt>
      <trkpt lat="48.64037" lon="6.21586">
        <ele>209.10059</ele>
        <time>2026-05-18T10:59:59+02:00</time>
      </trkpt>
      <trkpt lat="48.64042" lon="6.21591">
        <ele>209</ele>
        <time>2026-05-18T11:00:00+02:00</time>
      </trkpt>
      <trkpt lat="48.64046" lon="6.21596">
        <ele>209</ele>
        <time>2026-05-18T11:00:01+02:00</time>
      </trkpt>
      <trkpt lat="48.6405" lon="6.21601">
        <ele>209</ele>
        <time>2026-05-18T11:00:02+02:00</time>
      </trkpt>
      <trkpt lat="48.64054" lon="6.21607">
        <ele>209</ele>
        <time>2026-05-18T11:00:03+02:00</time>
      </trkpt>
      <trkpt lat="48.64058" lon="6.21612">
        <ele>208.90039</ele>
        <time>2026-05-18T11:00:04+02:00</time>
      </trkpt>
      <trkpt lat="48.64061" lon="6.21618">
        <ele>208.90039</ele>
        <time>2026-05-18T11:00:05+02:00</time>
      </trkpt>
      <trkpt lat="48.64065" lon="6.21623">
        <ele>208.90039</ele>
        <time>2026-05-18T11:00:06+02:00</time>
      </trkpt>
      <trkpt lat="48.64069" lon="6.21629">
        <ele>208.7998</ele>
        <time>2026-05-18T11:00:07+02:00</time>
      </trkpt>
      <trkpt lat="48.64073" lon="6.21635">
        <ele>208.7998</ele>
        <time>2026-05-18T11:00:08+02:00</time>
      </trkpt>
      <trkpt lat="48.64076" lon="6.21641">
        <ele>208.7002</ele>
        <time>2026-05-18T11:00:09+02:00</time>
      </trkpt>
      <trkpt lat="48.64079" lon="6.21648">
        <ele>208.7002</ele>
        <time>2026-05-18T11:00:10+02:00</time>
      </trkpt>
      <trkpt lat="48.64083" lon="6.21654">
        <ele>208.7002</ele>
        <time>2026-05-18T11:00:11+02:00</time>
      </trkpt>
      <trkpt lat="48.64086" lon="6.21661">
        <ele>208.60059</ele>
        <time>2026-05-18T11:00:12+02:00</time>
      </trkpt>
      <trkpt lat="48.64089" lon="6.21667">
        <ele>208.5</ele>
        <time>2026-05-18T11:00:13+02:00</time>
      </trkpt>
      <trkpt lat="48.64093" lon="6.21674">
        <ele>208.40039</ele>
        <time>2026-05-18T11:00:14+02:00</time>
      </trkpt>
      <trkpt lat="48.64096" lon="6.21681">
        <ele>208.40039</ele>
        <time>2026-05-18T11:00:15+02:00</time>
      </trkpt>
      <trkpt lat="48.641" lon="6.21688">
        <ele>208.2998</ele>
        <time>2026-05-18T11:00:16+02:00</time>
      </trkpt>
      <trkpt lat="48.64103" lon="6.21695">
        <ele>208.10059</ele>
        <time>2026-05-18T11:00:17+02:00</time>
      </trkpt>
      <trkpt lat="48.64107" lon="6.21702">
        <ele>208.10059</ele>
        <time>2026-05-18T11:00:18+02:00</time>
      </trkpt>
      <trkpt lat="48.64112" lon="6.21708">
        <ele>207.90039</ele>
        <time>2026-05-18T11:00:19+02:00</time>
      </trkpt>
      <trkpt lat="48.64116" lon="6.21713">
        <ele>207.7998</ele>
        <time>2026-05-18T11:00:20+02:00</time>
      </trkpt>
      <trkpt lat="48.6412" lon="6.21718">
        <ele>207.60059</ele>
        <time>2026-05-18T11:00:21+02:00</time>
      </trkpt>
      <trkpt lat="48.64124" lon="6.21721">
        <ele>207.60059</ele>
        <time>2026-05-18T11:00:22+02:00</time>
      </trkpt>
      <trkpt lat="48.64127" lon="6.21723">
        <ele>207.5</ele>
        <time>2026-05-18T11:00:23+02:00</time>
      </trkpt>
      <trkpt lat="48.6413" lon="6.21726">
        <ele>207.40039</ele>
        <time>2026-05-18T11:00:24+02:00</time>
      </trkpt>
      <trkpt lat="48.64133" lon="6.21729">
        <ele>207.2998</ele>
        <time>2026-05-18T11:00:25+02:00</time>
      </trkpt>
      <trkpt lat="48.64137" lon="6.21733">
        <ele>207.10059</ele>
        <time>2026-05-18T11:00:26+02:00</time>
      </trkpt>
      <trkpt lat="48.6414" lon="6.21739">
        <ele>207.10059</ele>
        <time>2026-05-18T11:00:27+02:00</time>
      </trkpt>
      <trkpt lat="48.64143" lon="6.21745">
        <ele>206.7998</ele>
        <time>2026-05-18T11:00:28+02:00</time>
      </trkpt>
      <trkpt lat="48.64147" lon="6.21752">
        <ele>206.7002</ele>
        <time>2026-05-18T11:00:29+02:00</time>
      </trkpt>
      <trkpt lat="48.64152" lon="6.2176">
        <ele>206.40039</ele>
        <time>2026-05-18T11:00:30+02:00</time>
      </trkpt>
      <trkpt lat="48.64156" lon="6.21767">
        <ele>206.10059</ele>
        <time>2026-05-18T11:00:31+02:00</time>
      </trkpt>
      <trkpt lat="48.64161" lon="6.21775">
        <ele>205.7998</ele>
        <time>2026-05-18T11:00:32+02:00</time>
      </trkpt>
      <trkpt lat="48.64166" lon="6.21784">
        <ele>205.60059</ele>
        <time>2026-05-18T11:00:33+02:00</time>
      </trkpt>
      <trkpt lat="48.64171" lon="6.21791">
        <ele>205.40039</ele>
        <time>2026-05-18T11:00:34+02:00</time>
      </trkpt>
      <trkpt lat="48.64175" lon="6.21799">
        <ele>205.2998</ele>
        <time>2026-05-18T11:00:35+02:00</time>
      </trkpt>
      <trkpt lat="48.64179" lon="6.21807">
        <ele>205.10059</ele>
        <time>2026-05-18T11:00:36+02:00</time>
      </trkpt>
      <trkpt lat="48.64184" lon="6.21814">
        <ele>205</ele>
        <time>2026-05-18T11:00:37+02:00</time>
      </trkpt>
      <trkpt lat="48.64188" lon="6.21821">
        <ele>205</ele>
        <time>2026-05-18T11:00:38+02:00</time>
      </trkpt>
      <trkpt lat="48.64193" lon="6.21828">
        <ele>205</ele>
        <time>2026-05-18T11:00:39+02:00</time>
      </trkpt>
      <trkpt lat="48.64197" lon="6.21835">
        <ele>205</ele>
        <time>2026-05-18T11:00:40+02:00</time>
      </trkpt>
      <trkpt lat="48.64201" lon="6.21842">
        <ele>205</ele>
        <time>2026-05-18T11:00:41+02:00</time>
      </trkpt>
      <trkpt lat="48.64206" lon="6.21848">
        <ele>205</ele>
        <time>2026-05-18T11:00:42+02:00</time>
      </trkpt>
      <trkpt lat="48.6421" lon="6.21855">
        <ele>205.10059</ele>
        <time>2026-05-18T11:00:43+02:00</time>
      </trkpt>
      <trkpt lat="48.64214" lon="6.21862">
        <ele>205.2002</ele>
        <time>2026-05-18T11:00:44+02:00</time>
      </trkpt>
      <trkpt lat="48.64217" lon="6.21865">
        <ele>205.2002</ele>
        <time>2026-05-18T11:00:45+02:00</time>
      </trkpt>
      <trkpt lat="48.64223" lon="6.21875">
        <ele>205.2998</ele>
        <time>2026-05-18T11:00:46+02:00</time>
      </trkpt>
      <trkpt lat="48.64228" lon="6.21881">
        <ele>205.40039</ele>
        <time>2026-05-18T11:00:47+02:00</time>
      </trkpt>
      <trkpt lat="48.64232" lon="6.21888">
        <ele>205.60059</ele>
        <time>2026-05-18T11:00:48+02:00</time>
      </trkpt>
      <trkpt lat="48.64237" lon="6.21894">
        <ele>205.60059</ele>
        <time>2026-05-18T11:00:49+02:00</time>
      </trkpt>
      <trkpt lat="48.64241" lon="6.219">
        <ele>205.7002</ele>
        <time>2026-05-18T11:00:50+02:00</time>
      </trkpt>
      <trkpt lat="48.64245" lon="6.21907">
        <ele>205.7002</ele>
        <time>2026-05-18T11:00:51+02:00</time>
      </trkpt>
      <trkpt lat="48.6425" lon="6.21912">
        <ele>205.7998</ele>
        <time>2026-05-18T11:00:52+02:00</time>
      </trkpt>
      <trkpt lat="48.64255" lon="6.21918">
        <ele>205.7998</ele>
        <time>2026-05-18T11:00:53+02:00</time>
      </trkpt>
      <trkpt lat="48.6426" lon="6.21924">
        <ele>205.7998</ele>
        <time>2026-05-18T11:00:54+02:00</time>
      </trkpt>
      <trkpt lat="48.64265" lon="6.2193">
        <ele>205.90039</ele>
        <time>2026-05-18T11:00:55+02:00</time>
      </trkpt>
      <trkpt lat="48.6427" lon="6.21936">
        <ele>205.7998</ele>
        <time>2026-05-18T11:00:56+02:00</time>
      </trkpt>
      <trkpt lat="48.64274" lon="6.21941">
        <ele>205.7998</ele>
        <time>2026-05-18T11:00:57+02:00</time>
      </trkpt>
      <trkpt lat="48.64279" lon="6.21946">
        <ele>205.7002</ele>
        <time>2026-05-18T11:00:58+02:00</time>
      </trkpt>
      <trkpt lat="48.64283" lon="6.21951">
        <ele>205.7002</ele>
        <time>2026-05-18T11:00:59+02:00</time>
      </trkpt>
      <trkpt lat="48.64288" lon="6.21956">
        <ele>205.7998</ele>
        <time>2026-05-18T11:01:00+02:00</time>
      </trkpt>
      <trkpt lat="48.64292" lon="6.21961">
        <ele>205.60059</ele>
        <time>2026-05-18T11:01:01+02:00</time>
      </trkpt>
      <trkpt lat="48.64296" lon="6.21965">
        <ele>205.60059</ele>
        <time>2026-05-18T11:01:02+02:00</time>
      </trkpt>
      <trkpt lat="48.64301" lon="6.21969">
        <ele>205.5</ele>
        <time>2026-05-18T11:01:03+02:00</time>
      </trkpt>
      <trkpt lat="48.64305" lon="6.21974">
        <ele>205.60059</ele>
        <time>2026-05-18T11:01:04+02:00</time>
      </trkpt>
      <trkpt lat="48.6431" lon="6.21978">
        <ele>205.5</ele>
        <time>2026-05-18T11:01:05+02:00</time>
      </trkpt>
      <trkpt lat="48.64314" lon="6.21983">
        <ele>205.5</ele>
        <time>2026-05-18T11:01:06+02:00</time>
      </trkpt>
      <trkpt lat="48.64319" lon="6.21987">
        <ele>205.40039</ele>
        <time>2026-05-18T11:01:07+02:00</time>
      </trkpt>
      <trkpt lat="48.64323" lon="6.21991">
        <ele>205.5</ele>
        <time>2026-05-18T11:01:08+02:00</time>
      </trkpt>
      <trkpt lat="48.64328" lon="6.21995">
        <ele>205.2998</ele>
        <time>2026-05-18T11:01:09+02:00</time>
      </trkpt>
      <trkpt lat="48.64332" lon="6.21999">
        <ele>205.40039</ele>
        <time>2026-05-18T11:01:10+02:00</time>
      </trkpt>
      <trkpt lat="48.64337" lon="6.22003">
        <ele>205.2998</ele>
        <time>2026-05-18T11:01:11+02:00</time>
      </trkpt>
      <trkpt lat="48.64341" lon="6.22007">
        <ele>205.2998</ele>
        <time>2026-05-18T11:01:12+02:00</time>
      </trkpt>
      <trkpt lat="48.64346" lon="6.22011">
        <ele>205.10059</ele>
        <time>2026-05-18T11:01:13+02:00</time>
      </trkpt>
      <trkpt lat="48.6435" lon="6.22015">
        <ele>205.2002</ele>
        <time>2026-05-18T11:01:14+02:00</time>
      </trkpt>
      <trkpt lat="48.64355" lon="6.2202">
        <ele>205</ele>
        <time>2026-05-18T11:01:15+02:00</time>
      </trkpt>
      <trkpt lat="48.64359" lon="6.22024">
        <ele>205.10059</ele>
        <time>2026-05-18T11:01:16+02:00</time>
      </trkpt>
      <trkpt lat="48.64364" lon="6.22028">
        <ele>205.10059</ele>
        <time>2026-05-18T11:01:17+02:00</time>
      </trkpt>
      <trkpt lat="48.64369" lon="6.22033">
        <ele>205.2002</ele>
        <time>2026-05-18T11:01:18+02:00</time>
      </trkpt>
      <trkpt lat="48.64373" lon="6.22037">
        <ele>205.2002</ele>
        <time>2026-05-18T11:01:19+02:00</time>
      </trkpt>
      <trkpt lat="48.64377" lon="6.22041">
        <ele>205.40039</ele>
        <time>2026-05-18T11:01:20+02:00</time>
      </trkpt>
      <trkpt lat="48.64379" lon="6.22043">
        <ele>205.40039</ele>
        <time>2026-05-18T11:01:21+02:00</time>
      </trkpt>
      <trkpt lat="48.64386" lon="6.2205">
        <ele>205.2002</ele>
        <time>2026-05-18T11:01:22+02:00</time>
      </trkpt>
      <trkpt lat="48.64391" lon="6.22054">
        <ele>205.2002</ele>
        <time>2026-05-18T11:01:23+02:00</time>
      </trkpt>
      <trkpt lat="48.64395" lon="6.22058">
        <ele>205.10059</ele>
        <time>2026-05-18T11:01:24+02:00</time>
      </trkpt>
      <trkpt lat="48.644" lon="6.22063">
        <ele>204.90039</ele>
        <time>2026-05-18T11:01:25+02:00</time>
      </trkpt>
      <trkpt lat="48.64404" lon="6.22067">
        <ele>205.10059</ele>
        <time>2026-05-18T11:01:26+02:00</time>
      </trkpt>
      <trkpt lat="48.64409" lon="6.22071">
        <ele>205</ele>
        <time>2026-05-18T11:01:27+02:00</time>
      </trkpt>
      <trkpt lat="48.64411" lon="6.22074">
        <ele>205</ele>
        <time>2026-05-18T11:01:28+02:00</time>
      </trkpt>
      <trkpt lat="48.64419" lon="6.2208">
        <ele>204.90039</ele>
        <time>2026-05-18T11:01:29+02:00</time>
      </trkpt>
      <trkpt lat="48.64423" lon="6.22084">
        <ele>204.7998</ele>
        <time>2026-05-18T11:01:30+02:00</time>
      </trkpt>
      <trkpt lat="48.64428" lon="6.22089">
        <ele>204.7002</ele>
        <time>2026-05-18T11:01:31+02:00</time>
      </trkpt>
      <trkpt lat="48.64433" lon="6.22093">
        <ele>204.7002</ele>
        <time>2026-05-18T11:01:32+02:00</time>
      </trkpt>
      <trkpt lat="48.64437" lon="6.22098">
        <ele>204.7002</ele>
        <time>2026-05-18T11:01:33+02:00</time>
      </trkpt>
      <trkpt lat="48.64442" lon="6.22102">
        <ele>204.7002</ele>
        <time>2026-05-18T11:01:34+02:00</time>
      </trkpt>
      <trkpt lat="48.64447" lon="6.22106">
        <ele>204.60059</ele>
        <time>2026-05-18T11:01:35+02:00</time>
      </trkpt>
      <trkpt lat="48.64452" lon="6.2211">
        <ele>204.5</ele>
        <time>2026-05-18T11:01:36+02:00</time>
      </trkpt>
      <trkpt lat="48.64457" lon="6.22115">
        <ele>204.40039</ele>
        <time>2026-05-18T11:01:37+02:00</time>
      </trkpt>
      <trkpt lat="48.64461" lon="6.22119">
        <ele>204.5</ele>
        <time>2026-05-18T11:01:38+02:00</time>
      </trkpt>
      <trkpt lat="48.64466" lon="6.22123">
        <ele>204.60059</ele>
        <time>2026-05-18T11:01:39+02:00</time>
      </trkpt>
      <trkpt lat="48.6447" lon="6.22127">
        <ele>204.90039</ele>
        <time>2026-05-18T11:01:40+02:00</time>
      </trkpt>
      <trkpt lat="48.64475" lon="6.22132">
        <ele>204.90039</ele>
        <time>2026-05-18T11:01:41+02:00</time>
      </trkpt>
      <trkpt lat="48.6448" lon="6.22136">
        <ele>205.10059</ele>
        <time>2026-05-18T11:01:42+02:00</time>
      </trkpt>
      <trkpt lat="48.64485" lon="6.22141">
        <ele>204.90039</ele>
        <time>2026-05-18T11:01:43+02:00</time>
      </trkpt>
      <trkpt lat="48.64487" lon="6.22143">
        <ele>204.90039</ele>
        <time>2026-05-18T11:01:44+02:00</time>
      </trkpt>
      <trkpt lat="48.64494" lon="6.22149">
        <ele>204.40039</ele>
        <time>2026-05-18T11:01:45+02:00</time>
      </trkpt>
      <trkpt lat="48.64499" lon="6.22154">
        <ele>204.5</ele>
        <time>2026-05-18T11:01:46+02:00</time>
      </trkpt>
      <trkpt lat="48.64504" lon="6.22158">
        <ele>204.2998</ele>
        <time>2026-05-18T11:01:47+02:00</time>
      </trkpt>
      <trkpt lat="48.64509" lon="6.22162">
        <ele>204.2998</ele>
        <time>2026-05-18T11:01:48+02:00</time>
      </trkpt>
      <trkpt lat="48.64513" lon="6.22167">
        <ele>204.10059</ele>
        <time>2026-05-18T11:01:49+02:00</time>
      </trkpt>
      <trkpt lat="48.64518" lon="6.22171">
        <ele>204</ele>
        <time>2026-05-18T11:01:50+02:00</time>
      </trkpt>
      <trkpt lat="48.64523" lon="6.22175">
        <ele>204.10059</ele>
        <time>2026-05-18T11:01:51+02:00</time>
      </trkpt>
      <trkpt lat="48.64528" lon="6.22179">
        <ele>204.2998</ele>
        <time>2026-05-18T11:01:52+02:00</time>
      </trkpt>
      <trkpt lat="48.64533" lon="6.22183">
        <ele>204.2998</ele>
        <time>2026-05-18T11:01:53+02:00</time>
      </trkpt>
      <trkpt lat="48.64538" lon="6.22187">
        <ele>204.60059</ele>
        <time>2026-05-18T11:01:54+02:00</time>
      </trkpt>
      <trkpt lat="48.64543" lon="6.22191">
        <ele>204.5</ele>
        <time>2026-05-18T11:01:55+02:00</time>
      </trkpt>
      <trkpt lat="48.64548" lon="6.22195">
        <ele>204.60059</ele>
        <time>2026-05-18T11:01:56+02:00</time>
      </trkpt>
      <trkpt lat="48.64553" lon="6.22199">
        <ele>205.2002</ele>
        <time>2026-05-18T11:01:57+02:00</time>
      </trkpt>
      <trkpt lat="48.64558" lon="6.22202">
        <ele>205.2002</ele>
        <time>2026-05-18T11:01:58+02:00</time>
      </trkpt>
      <trkpt lat="48.64564" lon="6.22205">
        <ele>206</ele>
        <time>2026-05-18T11:01:59+02:00</time>
      </trkpt>
      <trkpt lat="48.64569" lon="6.22208">
        <ele>206</ele>
        <time>2026-05-18T11:02:00+02:00</time>
      </trkpt>
      <trkpt lat="48.64574" lon="6.22211">
        <ele>206</ele>
        <time>2026-05-18T11:02:01+02:00</time>
      </trkpt>
      <trkpt lat="48.64579" lon="6.22213">
        <ele>206.7998</ele>
        <time>2026-05-18T11:02:02+02:00</time>
      </trkpt>
      <trkpt lat="48.64584" lon="6.22215">
        <ele>206.7998</ele>
        <time>2026-05-18T11:02:03+02:00</time>
      </trkpt>
      <trkpt lat="48.64589" lon="6.22217">
        <ele>206.7998</ele>
        <time>2026-05-18T11:02:04+02:00</time>
      </trkpt>
      <trkpt lat="48.64595" lon="6.22219">
        <ele>206.90039</ele>
        <time>2026-05-18T11:02:05+02:00</time>
      </trkpt>
      <trkpt lat="48.646" lon="6.22221">
        <ele>206.90039</ele>
        <time>2026-05-18T11:02:06+02:00</time>
      </trkpt>
      <trkpt lat="48.64605" lon="6.22223">
        <ele>207.2998</ele>
        <time>2026-05-18T11:02:07+02:00</time>
      </trkpt>
      <trkpt lat="48.64611" lon="6.22224">
        <ele>207</ele>
        <time>2026-05-18T11:02:08+02:00</time>
      </trkpt>
      <trkpt lat="48.64616" lon="6.22225">
        <ele>206.5</ele>
        <time>2026-05-18T11:02:09+02:00</time>
      </trkpt>
      <trkpt lat="48.64622" lon="6.22226">
        <ele>205.90039</ele>
        <time>2026-05-18T11:02:10+02:00</time>
      </trkpt>
      <trkpt lat="48.64628" lon="6.22227">
        <ele>205.2998</ele>
        <time>2026-05-18T11:02:11+02:00</time>
      </trkpt>
      <trkpt lat="48.64633" lon="6.22228">
        <ele>205</ele>
        <time>2026-05-18T11:02:12+02:00</time>
      </trkpt>
      <trkpt lat="48.64639" lon="6.22229">
        <ele>204.90039</ele>
        <time>2026-05-18T11:02:13+02:00</time>
      </trkpt>
      <trkpt lat="48.64644" lon="6.2223">
        <ele>205.60059</ele>
        <time>2026-05-18T11:02:14+02:00</time>
      </trkpt>
      <trkpt lat="48.6465" lon="6.2223">
        <ele>205.40039</ele>
        <time>2026-05-18T11:02:15+02:00</time>
      </trkpt>
      <trkpt lat="48.64655" lon="6.2223">
        <ele>205.2998</ele>
        <time>2026-05-18T11:02:16+02:00</time>
      </trkpt>
      <trkpt lat="48.64661" lon="6.2223">
        <ele>205.2002</ele>
        <time>2026-05-18T11:02:17+02:00</time>
      </trkpt>
      <trkpt lat="48.64666" lon="6.2223">
        <ele>205.2002</ele>
        <time>2026-05-18T11:02:18+02:00</time>
      </trkpt>
      <trkpt lat="48.64672" lon="6.2223">
        <ele>205</ele>
        <time>2026-05-18T11:02:19+02:00</time>
      </trkpt>
      <trkpt lat="48.64677" lon="6.2223">
        <ele>204.7002</ele>
        <time>2026-05-18T11:02:20+02:00</time>
      </trkpt>
      <trkpt lat="48.64683" lon="6.22229">
        <ele>204</ele>
        <time>2026-05-18T11:02:21+02:00</time>
      </trkpt>
      <trkpt lat="48.64688" lon="6.22229">
        <ele>203.2998</ele>
        <time>2026-05-18T11:02:22+02:00</time>
      </trkpt>
      <trkpt lat="48.64694" lon="6.22228">
        <ele>202.7002</ele>
        <time>2026-05-18T11:02:23+02:00</time>
      </trkpt>
      <trkpt lat="48.647" lon="6.22228">
        <ele>202.2998</ele>
        <time>2026-05-18T11:02:24+02:00</time>
      </trkpt>
      <trkpt lat="48.64705" lon="6.22227">
        <ele>202</ele>
        <time>2026-05-18T11:02:25+02:00</time>
      </trkpt>
      <trkpt lat="48.64711" lon="6.22226">
        <ele>201.90039</ele>
        <time>2026-05-18T11:02:26+02:00</time>
      </trkpt>
      <trkpt lat="48.64716" lon="6.22225">
        <ele>202</ele>
        <time>2026-05-18T11:02:27+02:00</time>
      </trkpt>
      <trkpt lat="48.64722" lon="6.22223">
        <ele>202.2998</ele>
        <time>2026-05-18T11:02:28+02:00</time>
      </trkpt>
      <trkpt lat="48.64728" lon="6.22222">
        <ele>202.7998</ele>
        <time>2026-05-18T11:02:29+02:00</time>
      </trkpt>
      <trkpt lat="48.64733" lon="6.2222">
        <ele>203.40039</ele>
        <time>2026-05-18T11:02:30+02:00</time>
      </trkpt>
      <trkpt lat="48.64739" lon="6.22219">
        <ele>203.7998</ele>
        <time>2026-05-18T11:02:31+02:00</time>
      </trkpt>
      <trkpt lat="48.64745" lon="6.22218">
        <ele>204.2998</ele>
        <time>2026-05-18T11:02:32+02:00</time>
      </trkpt>
      <trkpt lat="48.6475" lon="6.22216">
        <ele>204.90039</ele>
        <time>2026-05-18T11:02:33+02:00</time>
      </trkpt>
      <trkpt lat="48.64756" lon="6.22214">
        <ele>205.40039</ele>
        <time>2026-05-18T11:02:34+02:00</time>
      </trkpt>
      <trkpt lat="48.64761" lon="6.22212">
        <ele>205</ele>
        <time>2026-05-18T11:02:35+02:00</time>
      </trkpt>
      <trkpt lat="48.64767" lon="6.22211">
        <ele>205.5</ele>
        <time>2026-05-18T11:02:36+02:00</time>
      </trkpt>
      <trkpt lat="48.6477" lon="6.2221">
        <ele>205.5</ele>
        <time>2026-05-18T11:02:37+02:00</time>
      </trkpt>
      <trkpt lat="48.64778" lon="6.22206">
        <ele>206.40039</ele>
        <time>2026-05-18T11:02:38+02:00</time>
      </trkpt>
      <trkpt lat="48.64783" lon="6.22204">
        <ele>206.90039</ele>
        <time>2026-05-18T11:02:39+02:00</time>
      </trkpt>
      <trkpt lat="48.64789" lon="6.22202">
        <ele>205.90039</ele>
        <time>2026-05-18T11:02:40+02:00</time>
      </trkpt>
      <trkpt lat="48.64794" lon="6.22199">
        <ele>206.2002</ele>
        <time>2026-05-18T11:02:41+02:00</time>
      </trkpt>
      <trkpt lat="48.64799" lon="6.22196">
        <ele>206.2002</ele>
        <time>2026-05-18T11:02:42+02:00</time>
      </trkpt>
      <trkpt lat="48.64804" lon="6.22192">
        <ele>205.2002</ele>
        <time>2026-05-18T11:02:43+02:00</time>
      </trkpt>
      <trkpt lat="48.64809" lon="6.22189">
        <ele>205.60059</ele>
        <time>2026-05-18T11:02:44+02:00</time>
      </trkpt>
      <trkpt lat="48.64815" lon="6.22186">
        <ele>204.5</ele>
        <time>2026-05-18T11:02:45+02:00</time>
      </trkpt>
      <trkpt lat="48.6482" lon="6.22182">
        <ele>204.90039</ele>
        <time>2026-05-18T11:02:46+02:00</time>
      </trkpt>
      <trkpt lat="48.64825" lon="6.22178">
        <ele>203.60059</ele>
        <time>2026-05-18T11:02:47+02:00</time>
      </trkpt>
      <trkpt lat="48.6483" lon="6.22175">
        <ele>204.10059</ele>
        <time>2026-05-18T11:02:48+02:00</time>
      </trkpt>
      <trkpt lat="48.64835" lon="6.22171">
        <ele>204.7998</ele>
        <time>2026-05-18T11:02:49+02:00</time>
      </trkpt>
      <trkpt lat="48.6484" lon="6.22167">
        <ele>204.2998</ele>
        <time>2026-05-18T11:02:50+02:00</time>
      </trkpt>
      <trkpt lat="48.64846" lon="6.22164">
        <ele>205.5</ele>
        <time>2026-05-18T11:02:51+02:00</time>
      </trkpt>
      <trkpt lat="48.64851" lon="6.2216">
        <ele>205.2998</ele>
        <time>2026-05-18T11:02:52+02:00</time>
      </trkpt>
      <trkpt lat="48.64856" lon="6.22156">
        <ele>205.2998</ele>
        <time>2026-05-18T11:02:53+02:00</time>
      </trkpt>
      <trkpt lat="48.64861" lon="6.22152">
        <ele>204.40039</ele>
        <time>2026-05-18T11:02:54+02:00</time>
      </trkpt>
      <trkpt lat="48.64866" lon="6.22148">
        <ele>204.7002</ele>
        <time>2026-05-18T11:02:55+02:00</time>
      </trkpt>
      <trkpt lat="48.64871" lon="6.22144">
        <ele>205</ele>
        <time>2026-05-18T11:02:56+02:00</time>
      </trkpt>
      <trkpt lat="48.64875" lon="6.2214">
        <ele>203.7998</ele>
        <time>2026-05-18T11:02:57+02:00</time>
      </trkpt>
      <trkpt lat="48.6488" lon="6.22136">
        <ele>204.10059</ele>
        <time>2026-05-18T11:02:58+02:00</time>
      </trkpt>
      <trkpt lat="48.64885" lon="6.22131">
        <ele>202.7002</ele>
        <time>2026-05-18T11:02:59+02:00</time>
      </trkpt>
      <trkpt lat="48.64889" lon="6.22127">
        <ele>202.7002</ele>
        <time>2026-05-18T11:03:00+02:00</time>
      </trkpt>
      <trkpt lat="48.64894" lon="6.22123">
        <ele>201.7998</ele>
        <time>2026-05-18T11:03:01+02:00</time>
      </trkpt>
      <trkpt lat="48.64899" lon="6.22119">
        <ele>202.10059</ele>
        <time>2026-05-18T11:03:02+02:00</time>
      </trkpt>
      <trkpt lat="48.64901" lon="6.22116">
        <ele>201.2998</ele>
        <time>2026-05-18T11:03:03+02:00</time>
      </trkpt>
      <trkpt lat="48.64909" lon="6.2211">
        <ele>203</ele>
        <time>2026-05-18T11:03:04+02:00</time>
      </trkpt>
      <trkpt lat="48.64914" lon="6.22105">
        <ele>203.10059</ele>
        <time>2026-05-18T11:03:05+02:00</time>
      </trkpt>
      <trkpt lat="48.64919" lon="6.22101">
        <ele>203.60059</ele>
        <time>2026-05-18T11:03:06+02:00</time>
      </trkpt>
      <trkpt lat="48.64925" lon="6.22096">
        <ele>202.7998</ele>
        <time>2026-05-18T11:03:07+02:00</time>
      </trkpt>
      <trkpt lat="48.6493" lon="6.22091">
        <ele>201.90039</ele>
        <time>2026-05-18T11:03:08+02:00</time>
      </trkpt>
      <trkpt lat="48.64935" lon="6.22087">
        <ele>201.90039</ele>
        <time>2026-05-18T11:03:09+02:00</time>
      </trkpt>
      <trkpt lat="48.6494" lon="6.22083">
        <ele>201.2998</ele>
        <time>2026-05-18T11:03:10+02:00</time>
      </trkpt>
      <trkpt lat="48.64945" lon="6.22078">
        <ele>201.60059</ele>
        <time>2026-05-18T11:03:11+02:00</time>
      </trkpt>
      <trkpt lat="48.6495" lon="6.22074">
        <ele>201.7998</ele>
        <time>2026-05-18T11:03:12+02:00</time>
      </trkpt>
      <trkpt lat="48.64955" lon="6.2207">
        <ele>202.60059</ele>
        <time>2026-05-18T11:03:13+02:00</time>
      </trkpt>
      <trkpt lat="48.6496" lon="6.22065">
        <ele>202.5</ele>
        <time>2026-05-18T11:03:14+02:00</time>
      </trkpt>
      <trkpt lat="48.64965" lon="6.22061">
        <ele>202.7998</ele>
        <time>2026-05-18T11:03:15+02:00</time>
      </trkpt>
      <trkpt lat="48.64971" lon="6.22057">
        <ele>202</ele>
        <time>2026-05-18T11:03:16+02:00</time>
      </trkpt>
      <trkpt lat="48.64976" lon="6.22053">
        <ele>202.10059</ele>
        <time>2026-05-18T11:03:17+02:00</time>
      </trkpt>
      <trkpt lat="48.64981" lon="6.2205">
        <ele>202.40039</ele>
        <time>2026-05-18T11:03:18+02:00</time>
      </trkpt>
      <trkpt lat="48.64987" lon="6.22046">
        <ele>201.90039</ele>
        <time>2026-05-18T11:03:19+02:00</time>
      </trkpt>
      <trkpt lat="48.64992" lon="6.22042">
        <ele>201.90039</ele>
        <time>2026-05-18T11:03:20+02:00</time>
      </trkpt>
      <trkpt lat="48.64997" lon="6.22039">
        <ele>202</ele>
        <time>2026-05-18T11:03:21+02:00</time>
      </trkpt>
      <trkpt lat="48.65003" lon="6.22035">
        <ele>202.7002</ele>
        <time>2026-05-18T11:03:22+02:00</time>
      </trkpt>
      <trkpt lat="48.65005" lon="6.22034">
        <ele>203.2998</ele>
        <time>2026-05-18T11:03:23+02:00</time>
      </trkpt>
      <trkpt lat="48.65014" lon="6.22029">
        <ele>202.60059</ele>
        <time>2026-05-18T11:03:24+02:00</time>
      </trkpt>
      <trkpt lat="48.65019" lon="6.22026">
        <ele>202.7002</ele>
        <time>2026-05-18T11:03:25+02:00</time>
      </trkpt>
      <trkpt lat="48.65024" lon="6.22024">
        <ele>202.7998</ele>
        <time>2026-05-18T11:03:26+02:00</time>
      </trkpt>
      <trkpt lat="48.6503" lon="6.22022">
        <ele>202.2002</ele>
        <time>2026-05-18T11:03:27+02:00</time>
      </trkpt>
      <trkpt lat="48.65035" lon="6.2202">
        <ele>202.2002</ele>
        <time>2026-05-18T11:03:28+02:00</time>
      </trkpt>
      <trkpt lat="48.65041" lon="6.22017">
        <ele>202.2998</ele>
        <time>2026-05-18T11:03:29+02:00</time>
      </trkpt>
      <trkpt lat="48.65044" lon="6.22016">
        <ele>202.5</ele>
        <time>2026-05-18T11:03:30+02:00</time>
      </trkpt>
      <trkpt lat="48.65053" lon="6.22014">
        <ele>201.7998</ele>
        <time>2026-05-18T11:03:31+02:00</time>
      </trkpt>
      <trkpt lat="48.65058" lon="6.22012">
        <ele>202.2002</ele>
        <time>2026-05-18T11:03:32+02:00</time>
      </trkpt>
      <trkpt lat="48.65064" lon="6.22011">
        <ele>202.7998</ele>
        <time>2026-05-18T11:03:33+02:00</time>
      </trkpt>
      <trkpt lat="48.6507" lon="6.2201">
        <ele>203.5</ele>
        <time>2026-05-18T11:03:34+02:00</time>
      </trkpt>
      <trkpt lat="48.65076" lon="6.22009">
        <ele>203.90039</ele>
        <time>2026-05-18T11:03:35+02:00</time>
      </trkpt>
      <trkpt lat="48.65082" lon="6.22007">
        <ele>204.2002</ele>
        <time>2026-05-18T11:03:36+02:00</time>
      </trkpt>
      <trkpt lat="48.65088" lon="6.22006">
        <ele>203.7002</ele>
        <time>2026-05-18T11:03:37+02:00</time>
      </trkpt>
      <trkpt lat="48.65094" lon="6.22005">
        <ele>203.90039</ele>
        <time>2026-05-18T11:03:38+02:00</time>
      </trkpt>
      <trkpt lat="48.651" lon="6.22005">
        <ele>204.2002</ele>
        <time>2026-05-18T11:03:39+02:00</time>
      </trkpt>
      <trkpt lat="48.65106" lon="6.22005">
        <ele>204.40039</ele>
        <time>2026-05-18T11:03:40+02:00</time>
      </trkpt>
      <trkpt lat="48.65112" lon="6.22004">
        <ele>204.60059</ele>
        <time>2026-05-18T11:03:41+02:00</time>
      </trkpt>
      <trkpt lat="48.65118" lon="6.22004">
        <ele>204.7002</ele>
        <time>2026-05-18T11:03:42+02:00</time>
      </trkpt>
      <trkpt lat="48.65124" lon="6.22004">
        <ele>204.90039</ele>
        <time>2026-05-18T11:03:43+02:00</time>
      </trkpt>
      <trkpt lat="48.6513" lon="6.22005">
        <ele>205.10059</ele>
        <time>2026-05-18T11:03:44+02:00</time>
      </trkpt>
      <trkpt lat="48.65135" lon="6.22006">
        <ele>205.2998</ele>
        <time>2026-05-18T11:03:45+02:00</time>
      </trkpt>
      <trkpt lat="48.65141" lon="6.22007">
        <ele>206.7998</ele>
        <time>2026-05-18T11:03:46+02:00</time>
      </trkpt>
      <trkpt lat="48.65146" lon="6.22008">
        <ele>207.10059</ele>
        <time>2026-05-18T11:03:47+02:00</time>
      </trkpt>
      <trkpt lat="48.65152" lon="6.22009">
        <ele>207.2002</ele>
        <time>2026-05-18T11:03:48+02:00</time>
      </trkpt>
      <trkpt lat="48.65157" lon="6.2201">
        <ele>207</ele>
        <time>2026-05-18T11:03:49+02:00</time>
      </trkpt>
      <trkpt lat="48.65163" lon="6.22012">
        <ele>206.7002</ele>
        <time>2026-05-18T11:03:50+02:00</time>
      </trkpt>
      <trkpt lat="48.65169" lon="6.22014">
        <ele>205.90039</ele>
        <time>2026-05-18T11:03:51+02:00</time>
      </trkpt>
      <trkpt lat="48.65175" lon="6.22015">
        <ele>206.60059</ele>
        <time>2026-05-18T11:03:52+02:00</time>
      </trkpt>
      <trkpt lat="48.6518" lon="6.22018">
        <ele>206</ele>
        <time>2026-05-18T11:03:53+02:00</time>
      </trkpt>
      <trkpt lat="48.65183" lon="6.22019">
        <ele>206</ele>
        <time>2026-05-18T11:03:54+02:00</time>
      </trkpt>
      <trkpt lat="48.65191" lon="6.22022">
        <ele>205.40039</ele>
        <time>2026-05-18T11:03:55+02:00</time>
      </trkpt>
      <trkpt lat="48.65196" lon="6.22025">
        <ele>207.60059</ele>
        <time>2026-05-18T11:03:56+02:00</time>
      </trkpt>
      <trkpt lat="48.65201" lon="6.22028">
        <ele>207.2002</ele>
        <time>2026-05-18T11:03:57+02:00</time>
      </trkpt>
      <trkpt lat="48.65206" lon="6.22031">
        <ele>206.7002</ele>
        <time>2026-05-18T11:03:58+02:00</time>
      </trkpt>
      <trkpt lat="48.65212" lon="6.22034">
        <ele>207.5</ele>
        <time>2026-05-18T11:03:59+02:00</time>
      </trkpt>
      <trkpt lat="48.65217" lon="6.22037">
        <ele>206.2998</ele>
        <time>2026-05-18T11:04:00+02:00</time>
      </trkpt>
      <trkpt lat="48.65223" lon="6.2204">
        <ele>204.90039</ele>
        <time>2026-05-18T11:04:01+02:00</time>
      </trkpt>
      <trkpt lat="48.65228" lon="6.22043">
        <ele>206.2998</ele>
        <time>2026-05-18T11:04:02+02:00</time>
      </trkpt>
      <trkpt lat="48.65233" lon="6.22047">
        <ele>205.7002</ele>
        <time>2026-05-18T11:04:03+02:00</time>
      </trkpt>
      <trkpt lat="48.65238" lon="6.22051">
        <ele>208.2998</ele>
        <time>2026-05-18T11:04:04+02:00</time>
      </trkpt>
      <trkpt lat="48.65244" lon="6.22055">
        <ele>208.10059</ele>
        <time>2026-05-18T11:04:05+02:00</time>
      </trkpt>
      <trkpt lat="48.65249" lon="6.22058">
        <ele>209.7002</ele>
        <time>2026-05-18T11:04:06+02:00</time>
      </trkpt>
      <trkpt lat="48.65254" lon="6.22062">
        <ele>208.7998</ele>
        <time>2026-05-18T11:04:07+02:00</time>
      </trkpt>
      <trkpt lat="48.65259" lon="6.22065">
        <ele>207.2002</ele>
        <time>2026-05-18T11:04:08+02:00</time>
      </trkpt>
      <trkpt lat="48.65264" lon="6.22069">
        <ele>208.60059</ele>
        <time>2026-05-18T11:04:09+02:00</time>
      </trkpt>
      <trkpt lat="48.65269" lon="6.22073">
        <ele>206.7002</ele>
        <time>2026-05-18T11:04:10+02:00</time>
      </trkpt>
      <trkpt lat="48.65274" lon="6.22077">
        <ele>207.5</ele>
        <time>2026-05-18T11:04:11+02:00</time>
      </trkpt>
      <trkpt lat="48.65279" lon="6.22081">
        <ele>206.5</ele>
        <time>2026-05-18T11:04:12+02:00</time>
      </trkpt>
      <trkpt lat="48.65284" lon="6.22085">
        <ele>208.2998</ele>
        <time>2026-05-18T11:04:13+02:00</time>
      </trkpt>
      <trkpt lat="48.65289" lon="6.22089">
        <ele>207.40039</ele>
        <time>2026-05-18T11:04:14+02:00</time>
      </trkpt>
      <trkpt lat="48.65294" lon="6.22093">
        <ele>208.2998</ele>
        <time>2026-05-18T11:04:15+02:00</time>
      </trkpt>
      <trkpt lat="48.653" lon="6.22097">
        <ele>207.2998</ele>
        <time>2026-05-18T11:04:16+02:00</time>
      </trkpt>
      <trkpt lat="48.65305" lon="6.22101">
        <ele>207.90039</ele>
        <time>2026-05-18T11:04:17+02:00</time>
      </trkpt>
      <trkpt lat="48.6531" lon="6.22105">
        <ele>206.7002</ele>
        <time>2026-05-18T11:04:18+02:00</time>
      </trkpt>
      <trkpt lat="48.65315" lon="6.22108">
        <ele>206.7002</ele>
        <time>2026-05-18T11:04:19+02:00</time>
      </trkpt>
      <trkpt lat="48.6532" lon="6.22112">
        <ele>207.90039</ele>
        <time>2026-05-18T11:04:20+02:00</time>
      </trkpt>
      <trkpt lat="48.65325" lon="6.22115">
        <ele>206.7998</ele>
        <time>2026-05-18T11:04:21+02:00</time>
      </trkpt>
      <trkpt lat="48.6533" lon="6.22119">
        <ele>207.2002</ele>
        <time>2026-05-18T11:04:22+02:00</time>
      </trkpt>
      <trkpt lat="48.65335" lon="6.22123">
        <ele>205</ele>
        <time>2026-05-18T11:04:23+02:00</time>
      </trkpt>
      <trkpt lat="48.6534" lon="6.22127">
        <ele>204.7998</ele>
        <time>2026-05-18T11:04:24+02:00</time>
      </trkpt>
      <trkpt lat="48.65345" lon="6.22131">
        <ele>203.2002</ele>
        <time>2026-05-18T11:04:25+02:00</time>
      </trkpt>
      <trkpt lat="48.6535" lon="6.22135">
        <ele>202.10059</ele>
        <time>2026-05-18T11:04:26+02:00</time>
      </trkpt>
      <trkpt lat="48.65352" lon="6.22138">
        <ele>204.2002</ele>
        <time>2026-05-18T11:04:27+02:00</time>
      </trkpt>
      <trkpt lat="48.6536" lon="6.22144">
        <ele>204.5</ele>
        <time>2026-05-18T11:04:28+02:00</time>
      </trkpt>
      <trkpt lat="48.65365" lon="6.22148">
        <ele>202.40039</ele>
        <time>2026-05-18T11:04:29+02:00</time>
      </trkpt>
      <trkpt lat="48.65369" lon="6.22152">
        <ele>200.90039</ele>
        <time>2026-05-18T11:04:30+02:00</time>
      </trkpt>
      <trkpt lat="48.65374" lon="6.22156">
        <ele>201.5</ele>
        <time>2026-05-18T11:04:31+02:00</time>
      </trkpt>
      <trkpt lat="48.65378" lon="6.2216">
        <ele>201.5</ele>
        <time>2026-05-18T11:04:32+02:00</time>
      </trkpt>
      <trkpt lat="48.65383" lon="6.22165">
        <ele>203.2002</ele>
        <time>2026-05-18T11:04:33+02:00</time>
      </trkpt>
      <trkpt lat="48.65387" lon="6.22169">
        <ele>202.7998</ele>
        <time>2026-05-18T11:04:34+02:00</time>
      </trkpt>
      <trkpt lat="48.65392" lon="6.22173">
        <ele>203.90039</ele>
        <time>2026-05-18T11:04:35+02:00</time>
      </trkpt>
      <trkpt lat="48.65397" lon="6.22178">
        <ele>203.10059</ele>
        <time>2026-05-18T11:04:36+02:00</time>
      </trkpt>
      <trkpt lat="48.65401" lon="6.22183">
        <ele>203.10059</ele>
        <time>2026-05-18T11:04:37+02:00</time>
      </trkpt>
      <trkpt lat="48.65405" lon="6.22187">
        <ele>204.2998</ele>
        <time>2026-05-18T11:04:38+02:00</time>
      </trkpt>
      <trkpt lat="48.6541" lon="6.22192">
        <ele>203.10059</ele>
        <time>2026-05-18T11:04:39+02:00</time>
      </trkpt>
      <trkpt lat="48.65415" lon="6.22197">
        <ele>203.60059</ele>
        <time>2026-05-18T11:04:40+02:00</time>
      </trkpt>
      <trkpt lat="48.65419" lon="6.22203">
        <ele>202.60059</ele>
        <time>2026-05-18T11:04:41+02:00</time>
      </trkpt>
      <trkpt lat="48.65424" lon="6.22208">
        <ele>202.90039</ele>
        <time>2026-05-18T11:04:42+02:00</time>
      </trkpt>
      <trkpt lat="48.65428" lon="6.22213">
        <ele>204.10059</ele>
        <time>2026-05-18T11:04:43+02:00</time>
      </trkpt>
      <trkpt lat="48.65433" lon="6.22218">
        <ele>202.60059</ele>
        <time>2026-05-18T11:04:44+02:00</time>
      </trkpt>
      <trkpt lat="48.65437" lon="6.22224">
        <ele>202.5</ele>
        <time>2026-05-18T11:04:45+02:00</time>
      </trkpt>
      <trkpt lat="48.65442" lon="6.22229">
        <ele>201.60059</ele>
        <time>2026-05-18T11:04:46+02:00</time>
      </trkpt>
      <trkpt lat="48.65447" lon="6.22234">
        <ele>202</ele>
        <time>2026-05-18T11:04:47+02:00</time>
      </trkpt>
      <trkpt lat="48.65451" lon="6.22238">
        <ele>202</ele>
        <time>2026-05-18T11:04:48+02:00</time>
      </trkpt>
      <trkpt lat="48.65456" lon="6.22243">
        <ele>202</ele>
        <time>2026-05-18T11:04:49+02:00</time>
      </trkpt>
      <trkpt lat="48.6546" lon="6.22248">
        <ele>201.7002</ele>
        <time>2026-05-18T11:04:50+02:00</time>
      </trkpt>
      <trkpt lat="48.65465" lon="6.22253">
        <ele>200.90039</ele>
        <time>2026-05-18T11:04:51+02:00</time>
      </trkpt>
      <trkpt lat="48.6547" lon="6.22258">
        <ele>201.2998</ele>
        <time>2026-05-18T11:04:52+02:00</time>
      </trkpt>
      <trkpt lat="48.65474" lon="6.22263">
        <ele>201.2998</ele>
        <time>2026-05-18T11:04:53+02:00</time>
      </trkpt>
      <trkpt lat="48.65479" lon="6.22268">
        <ele>201.5</ele>
        <time>2026-05-18T11:04:54+02:00</time>
      </trkpt>
      <trkpt lat="48.65483" lon="6.22274">
        <ele>201.2002</ele>
        <time>2026-05-18T11:04:55+02:00</time>
      </trkpt>
      <trkpt lat="48.65487" lon="6.22279">
        <ele>200.40039</ele>
        <time>2026-05-18T11:04:56+02:00</time>
      </trkpt>
      <trkpt lat="48.65491" lon="6.22284">
        <ele>201.2002</ele>
        <time>2026-05-18T11:04:57+02:00</time>
      </trkpt>
      <trkpt lat="48.65495" lon="6.22289">
        <ele>200.60059</ele>
        <time>2026-05-18T11:04:58+02:00</time>
      </trkpt>
      <trkpt lat="48.65499" lon="6.22295">
        <ele>201</ele>
        <time>2026-05-18T11:04:59+02:00</time>
      </trkpt>
      <trkpt lat="48.65503" lon="6.22301">
        <ele>200.90039</ele>
        <time>2026-05-18T11:05:00+02:00</time>
      </trkpt>
      <trkpt lat="48.65506" lon="6.22306">
        <ele>200.90039</ele>
        <time>2026-05-18T11:05:01+02:00</time>
      </trkpt>
      <trkpt lat="48.6551" lon="6.22311">
        <ele>200.60059</ele>
        <time>2026-05-18T11:05:02+02:00</time>
      </trkpt>
      <trkpt lat="48.65514" lon="6.22317">
        <ele>200.7998</ele>
        <time>2026-05-18T11:05:03+02:00</time>
      </trkpt>
      <trkpt lat="48.65518" lon="6.22324">
        <ele>200.7998</ele>
        <time>2026-05-18T11:05:04+02:00</time>
      </trkpt>
      <trkpt lat="48.65521" lon="6.2233">
        <ele>201.2002</ele>
        <time>2026-05-18T11:05:05+02:00</time>
      </trkpt>
      <trkpt lat="48.65525" lon="6.22337">
        <ele>202.2002</ele>
        <time>2026-05-18T11:05:06+02:00</time>
      </trkpt>
      <trkpt lat="48.65529" lon="6.22344">
        <ele>201.7998</ele>
        <time>2026-05-18T11:05:07+02:00</time>
      </trkpt>
      <trkpt lat="48.65532" lon="6.22351">
        <ele>201.7998</ele>
        <time>2026-05-18T11:05:08+02:00</time>
      </trkpt>
      <trkpt lat="48.65535" lon="6.22358">
        <ele>201.7998</ele>
        <time>2026-05-18T11:05:09+02:00</time>
      </trkpt>
      <trkpt lat="48.65539" lon="6.22365">
        <ele>202.2002</ele>
        <time>2026-05-18T11:05:10+02:00</time>
      </trkpt>
      <trkpt lat="48.65542" lon="6.22372">
        <ele>203.5</ele>
        <time>2026-05-18T11:05:11+02:00</time>
      </trkpt>
      <trkpt lat="48.65545" lon="6.2238">
        <ele>203.2002</ele>
        <time>2026-05-18T11:05:12+02:00</time>
      </trkpt>
      <trkpt lat="48.65548" lon="6.22388">
        <ele>204.2002</ele>
        <time>2026-05-18T11:05:13+02:00</time>
      </trkpt>
      <trkpt lat="48.65551" lon="6.22395">
        <ele>204.10059</ele>
        <time>2026-05-18T11:05:14+02:00</time>
      </trkpt>
      <trkpt lat="48.65553" lon="6.22402">
        <ele>205.2002</ele>
        <time>2026-05-18T11:05:15+02:00</time>
      </trkpt>
      <trkpt lat="48.65556" lon="6.2241">
        <ele>205.10059</ele>
        <time>2026-05-18T11:05:16+02:00</time>
      </trkpt>
      <trkpt lat="48.65558" lon="6.22418">
        <ele>205.10059</ele>
        <time>2026-05-18T11:05:17+02:00</time>
      </trkpt>
      <trkpt lat="48.6556" lon="6.22426">
        <ele>204.7002</ele>
        <time>2026-05-18T11:05:18+02:00</time>
      </trkpt>
      <trkpt lat="48.65562" lon="6.22433">
        <ele>205</ele>
        <time>2026-05-18T11:05:19+02:00</time>
      </trkpt>
      <trkpt lat="48.65564" lon="6.22441">
        <ele>205.40039</ele>
        <time>2026-05-18T11:05:20+02:00</time>
      </trkpt>
      <trkpt lat="48.65567" lon="6.22449">
        <ele>204.40039</ele>
        <time>2026-05-18T11:05:21+02:00</time>
      </trkpt>
      <trkpt lat="48.65569" lon="6.22457">
        <ele>205.10059</ele>
        <time>2026-05-18T11:05:22+02:00</time>
      </trkpt>
      <trkpt lat="48.65571" lon="6.22465">
        <ele>204.7998</ele>
        <time>2026-05-18T11:05:23+02:00</time>
      </trkpt>
      <trkpt lat="48.65574" lon="6.22473">
        <ele>205.60059</ele>
        <time>2026-05-18T11:05:24+02:00</time>
      </trkpt>
      <trkpt lat="48.65576" lon="6.22481">
        <ele>206.2998</ele>
        <time>2026-05-18T11:05:25+02:00</time>
      </trkpt>
      <trkpt lat="48.65578" lon="6.22489">
        <ele>206</ele>
        <time>2026-05-18T11:05:26+02:00</time>
      </trkpt>
      <trkpt lat="48.6558" lon="6.22497">
        <ele>206.5</ele>
        <time>2026-05-18T11:05:27+02:00</time>
      </trkpt>
      <trkpt lat="48.65582" lon="6.22505">
        <ele>207</ele>
        <time>2026-05-18T11:05:28+02:00</time>
      </trkpt>
      <trkpt lat="48.65584" lon="6.22513">
        <ele>206.2998</ele>
        <time>2026-05-18T11:05:29+02:00</time>
      </trkpt>
      <trkpt lat="48.65586" lon="6.22521">
        <ele>206.2998</ele>
        <time>2026-05-18T11:05:30+02:00</time>
      </trkpt>
      <trkpt lat="48.65589" lon="6.22529">
        <ele>205.60059</ele>
        <time>2026-05-18T11:05:31+02:00</time>
      </trkpt>
      <trkpt lat="48.65591" lon="6.22536">
        <ele>206.2002</ele>
        <time>2026-05-18T11:05:32+02:00</time>
      </trkpt>
      <trkpt lat="48.65594" lon="6.22544">
        <ele>205.7998</ele>
        <time>2026-05-18T11:05:33+02:00</time>
      </trkpt>
      <trkpt lat="48.65597" lon="6.22552">
        <ele>206.40039</ele>
        <time>2026-05-18T11:05:34+02:00</time>
      </trkpt>
      <trkpt lat="48.656" lon="6.2256">
        <ele>206.2002</ele>
        <time>2026-05-18T11:05:35+02:00</time>
      </trkpt>
      <trkpt lat="48.65603" lon="6.22567">
        <ele>207</ele>
        <time>2026-05-18T11:05:36+02:00</time>
      </trkpt>
      <trkpt lat="48.65606" lon="6.22575">
        <ele>206.5</ele>
        <time>2026-05-18T11:05:37+02:00</time>
      </trkpt>
      <trkpt lat="48.65609" lon="6.22582">
        <ele>207</ele>
        <time>2026-05-18T11:05:38+02:00</time>
      </trkpt>
      <trkpt lat="48.65613" lon="6.22589">
        <ele>205.7998</ele>
        <time>2026-05-18T11:05:39+02:00</time>
      </trkpt>
      <trkpt lat="48.65616" lon="6.22596">
        <ele>206.40039</ele>
        <time>2026-05-18T11:05:40+02:00</time>
      </trkpt>
      <trkpt lat="48.65619" lon="6.22604">
        <ele>206.10059</ele>
        <time>2026-05-18T11:05:41+02:00</time>
      </trkpt>
      <trkpt lat="48.65622" lon="6.22611">
        <ele>206.10059</ele>
        <time>2026-05-18T11:05:42+02:00</time>
      </trkpt>
      <trkpt lat="48.65626" lon="6.22618">
        <ele>206.7002</ele>
        <time>2026-05-18T11:05:43+02:00</time>
      </trkpt>
      <trkpt lat="48.65628" lon="6.22625">
        <ele>206.2998</ele>
        <time>2026-05-18T11:05:44+02:00</time>
      </trkpt>
      <trkpt lat="48.65631" lon="6.22631">
        <ele>206.2998</ele>
        <time>2026-05-18T11:05:45+02:00</time>
      </trkpt>
      <trkpt lat="48.65633" lon="6.22639">
        <ele>205.5</ele>
        <time>2026-05-18T11:05:46+02:00</time>
      </trkpt>
      <trkpt lat="48.65635" lon="6.22646">
        <ele>205.90039</ele>
        <time>2026-05-18T11:05:47+02:00</time>
      </trkpt>
      <trkpt lat="48.65638" lon="6.22653">
        <ele>206.40039</ele>
        <time>2026-05-18T11:05:48+02:00</time>
      </trkpt>
      <trkpt lat="48.65641" lon="6.2266">
        <ele>205.7002</ele>
        <time>2026-05-18T11:05:49+02:00</time>
      </trkpt>
      <trkpt lat="48.65644" lon="6.22666">
        <ele>205.7002</ele>
        <time>2026-05-18T11:05:50+02:00</time>
      </trkpt>
      <trkpt lat="48.65647" lon="6.22673">
        <ele>205.2998</ele>
        <time>2026-05-18T11:05:51+02:00</time>
      </trkpt>
      <trkpt lat="48.65651" lon="6.22679">
        <ele>204.90039</ele>
        <time>2026-05-18T11:05:52+02:00</time>
      </trkpt>
      <trkpt lat="48.65655" lon="6.22684">
        <ele>204.90039</ele>
        <time>2026-05-18T11:05:53+02:00</time>
      </trkpt>
      <trkpt lat="48.65658" lon="6.22688">
        <ele>204.60059</ele>
        <time>2026-05-18T11:05:54+02:00</time>
      </trkpt>
      <trkpt lat="48.65662" lon="6.22691">
        <ele>203.5</ele>
        <time>2026-05-18T11:05:55+02:00</time>
      </trkpt>
      <trkpt lat="48.65665" lon="6.22696">
        <ele>203.90039</ele>
        <time>2026-05-18T11:05:56+02:00</time>
      </trkpt>
      <trkpt lat="48.65666" lon="6.22699">
        <ele>203.90039</ele>
        <time>2026-05-18T11:05:57+02:00</time>
      </trkpt>
      <trkpt lat="48.6567" lon="6.22707">
        <ele>202.90039</ele>
        <time>2026-05-18T11:05:58+02:00</time>
      </trkpt>
      <trkpt lat="48.65672" lon="6.22712">
        <ele>203.40039</ele>
        <time>2026-05-18T11:05:59+02:00</time>
      </trkpt>
      <trkpt lat="48.65675" lon="6.22717">
        <ele>202</ele>
        <time>2026-05-18T11:06:00+02:00</time>
      </trkpt>
      <trkpt lat="48.65678" lon="6.22721">
        <ele>203</ele>
        <time>2026-05-18T11:06:01+02:00</time>
      </trkpt>
      <trkpt lat="48.6568" lon="6.22726">
        <ele>202</ele>
        <time>2026-05-18T11:06:02+02:00</time>
      </trkpt>
      <trkpt lat="48.65683" lon="6.2273">
        <ele>203.2002</ele>
        <time>2026-05-18T11:06:03+02:00</time>
      </trkpt>
      <trkpt lat="48.65687" lon="6.22734">
        <ele>202.40039</ele>
        <time>2026-05-18T11:06:04+02:00</time>
      </trkpt>
      <trkpt lat="48.65688" lon="6.22739">
        <ele>203.2998</ele>
        <time>2026-05-18T11:06:05+02:00</time>
      </trkpt>
      <trkpt lat="48.65688" lon="6.22744">
        <ele>203.2998</ele>
        <time>2026-05-18T11:06:06+02:00</time>
      </trkpt>
      <trkpt lat="48.65687" lon="6.22748">
        <ele>204.10059</ele>
        <time>2026-05-18T11:06:07+02:00</time>
      </trkpt>
      <trkpt lat="48.65684" lon="6.22751">
        <ele>204.10059</ele>
        <time>2026-05-18T11:06:08+02:00</time>
      </trkpt>
      <trkpt lat="48.65681" lon="6.22751">
        <ele>204.7998</ele>
        <time>2026-05-18T11:06:09+02:00</time>
      </trkpt>
      <trkpt lat="48.65678" lon="6.22749">
        <ele>205.5</ele>
        <time>2026-05-18T11:06:10+02:00</time>
      </trkpt>
      <trkpt lat="48.65677" lon="6.22748">
        <ele>205.5</ele>
        <time>2026-05-18T11:06:11+02:00</time>
      </trkpt>
      <trkpt lat="48.65674" lon="6.2274">
        <ele>204.7998</ele>
        <time>2026-05-18T11:06:12+02:00</time>
      </trkpt>
      <trkpt lat="48.65672" lon="6.22736">
        <ele>204.90039</ele>
        <time>2026-05-18T11:06:13+02:00</time>
      </trkpt>
      <trkpt lat="48.65671" lon="6.22733">
        <ele>204.90039</ele>
        <time>2026-05-18T11:06:14+02:00</time>
      </trkpt>
      <trkpt lat="48.65668" lon="6.22732">
        <ele>204.90039</ele>
        <time>2026-05-18T11:06:15+02:00</time>
      </trkpt>
      <trkpt lat="48.65666" lon="6.22732">
        <ele>205.7002</ele>
        <time>2026-05-18T11:06:16+02:00</time>
      </trkpt>
      <trkpt lat="48.65665" lon="6.22733">
        <ele>205.7002</ele>
        <time>2026-05-18T11:06:17+02:00</time>
      </trkpt>
      <trkpt lat="48.65666" lon="6.22735">
        <ele>205.7002</ele>
        <time>2026-05-18T11:06:18+02:00</time>
      </trkpt>
      <trkpt lat="48.65667" lon="6.22737">
        <ele>206.2002</ele>
        <time>2026-05-18T11:06:19+02:00</time>
      </trkpt>
      <trkpt lat="48.65668" lon="6.22737">
        <ele>205.5</ele>
        <time>2026-05-18T11:06:20+02:00</time>
      </trkpt>
      <trkpt lat="48.65669" lon="6.22739">
        <ele>205.5</ele>
        <time>2026-05-18T11:06:21+02:00</time>
      </trkpt>
      <trkpt lat="48.6567" lon="6.22741">
        <ele>205.5</ele>
        <time>2026-05-18T11:06:22+02:00</time>
      </trkpt>
      <trkpt lat="48.65671" lon="6.22743">
        <ele>205.5</ele>
        <time>2026-05-18T11:06:23+02:00</time>
      </trkpt>
      <trkpt lat="48.65673" lon="6.22746">
        <ele>205.5</ele>
        <time>2026-05-18T11:06:24+02:00</time>
      </trkpt>
      <trkpt lat="48.65675" lon="6.22749">
        <ele>205.5</ele>
        <time>2026-05-18T11:06:25+02:00</time>
      </trkpt>
      <trkpt lat="48.65677" lon="6.22752">
        <ele>205.5</ele>
        <time>2026-05-18T11:06:26+02:00</time>
      </trkpt>
      <trkpt lat="48.65679" lon="6.22756">
        <ele>205.40039</ele>
        <time>2026-05-18T11:06:27+02:00</time>
      </trkpt>
      <trkpt lat="48.6568" lon="6.2276">
        <ele>205.40039</ele>
        <time>2026-05-18T11:06:28+02:00</time>
      </trkpt>
      <trkpt lat="48.65682" lon="6.22764">
        <ele>205.90039</ele>
        <time>2026-05-18T11:06:29+02:00</time>
      </trkpt>
      <trkpt lat="48.65685" lon="6.22769">
        <ele>205.2998</ele>
        <time>2026-05-18T11:06:30+02:00</time>
      </trkpt>
      <trkpt lat="48.65688" lon="6.22774">
        <ele>205.90039</ele>
        <time>2026-05-18T11:06:31+02:00</time>
      </trkpt>
      <trkpt lat="48.6569" lon="6.22779">
        <ele>206.10059</ele>
        <time>2026-05-18T11:06:32+02:00</time>
      </trkpt>
      <trkpt lat="48.65693" lon="6.22785">
        <ele>206.10059</ele>
        <time>2026-05-18T11:06:33+02:00</time>
      </trkpt>
      <trkpt lat="48.65696" lon="6.2279">
        <ele>206.5</ele>
        <time>2026-05-18T11:06:34+02:00</time>
      </trkpt>
      <trkpt lat="48.65698" lon="6.22795">
        <ele>206.5</ele>
        <time>2026-05-18T11:06:35+02:00</time>
      </trkpt>
      <trkpt lat="48.65701" lon="6.228">
        <ele>207</ele>
        <time>2026-05-18T11:06:36+02:00</time>
      </trkpt>
      <trkpt lat="48.65704" lon="6.22804">
        <ele>206.7998</ele>
        <time>2026-05-18T11:06:37+02:00</time>
      </trkpt>
      <trkpt lat="48.65706" lon="6.22809">
        <ele>207.2002</ele>
        <time>2026-05-18T11:06:38+02:00</time>
      </trkpt>
      <trkpt lat="48.65709" lon="6.22814">
        <ele>207.10059</ele>
        <time>2026-05-18T11:06:39+02:00</time>
      </trkpt>
      <trkpt lat="48.65712" lon="6.22819">
        <ele>207.10059</ele>
        <time>2026-05-18T11:06:40+02:00</time>
      </trkpt>
      <trkpt lat="48.65715" lon="6.22823">
        <ele>206.7998</ele>
        <time>2026-05-18T11:06:41+02:00</time>
      </trkpt>
      <trkpt lat="48.65718" lon="6.22828">
        <ele>206.2002</ele>
        <time>2026-05-18T11:06:42+02:00</time>
      </trkpt>
      <trkpt lat="48.65721" lon="6.22832">
        <ele>206.40039</ele>
        <time>2026-05-18T11:06:43+02:00</time>
      </trkpt>
      <trkpt lat="48.65725" lon="6.22837">
        <ele>205.90039</ele>
        <time>2026-05-18T11:06:44+02:00</time>
      </trkpt>
      <trkpt lat="48.65728" lon="6.22841">
        <ele>206.2002</ele>
        <time>2026-05-18T11:06:45+02:00</time>
      </trkpt>
      <trkpt lat="48.65732" lon="6.22846">
        <ele>205.7998</ele>
        <time>2026-05-18T11:06:46+02:00</time>
      </trkpt>
      <trkpt lat="48.65736" lon="6.2285">
        <ele>206.10059</ele>
        <time>2026-05-18T11:06:47+02:00</time>
      </trkpt>
      <trkpt lat="48.6574" lon="6.22854">
        <ele>206.10059</ele>
        <time>2026-05-18T11:06:48+02:00</time>
      </trkpt>
      <trkpt lat="48.65743" lon="6.22857">
        <ele>206.60059</ele>
        <time>2026-05-18T11:06:49+02:00</time>
      </trkpt>
      <trkpt lat="48.65747" lon="6.22861">
        <ele>206.40039</ele>
        <time>2026-05-18T11:06:50+02:00</time>
      </trkpt>
      <trkpt lat="48.65751" lon="6.22865">
        <ele>206.90039</ele>
        <time>2026-05-18T11:06:51+02:00</time>
      </trkpt>
      <trkpt lat="48.65754" lon="6.22869">
        <ele>206.7002</ele>
        <time>2026-05-18T11:06:52+02:00</time>
      </trkpt>
      <trkpt lat="48.65758" lon="6.22872">
        <ele>206.40039</ele>
        <time>2026-05-18T11:06:53+02:00</time>
      </trkpt>
      <trkpt lat="48.65762" lon="6.22876">
        <ele>206.7998</ele>
        <time>2026-05-18T11:06:54+02:00</time>
      </trkpt>
      <trkpt lat="48.65766" lon="6.22879">
        <ele>206.40039</ele>
        <time>2026-05-18T11:06:55+02:00</time>
      </trkpt>
      <trkpt lat="48.65769" lon="6.22882">
        <ele>206.60059</ele>
        <time>2026-05-18T11:06:56+02:00</time>
      </trkpt>
      <trkpt lat="48.65773" lon="6.22884">
        <ele>206.2998</ele>
        <time>2026-05-18T11:06:57+02:00</time>
      </trkpt>
      <trkpt lat="48.65777" lon="6.22886">
        <ele>205.90039</ele>
        <time>2026-05-18T11:06:58+02:00</time>
      </trkpt>
      <trkpt lat="48.65782" lon="6.22889">
        <ele>205.60059</ele>
        <time>2026-05-18T11:06:59+02:00</time>
      </trkpt>
      <trkpt lat="48.65786" lon="6.2289">
        <ele>205.60059</ele>
        <time>2026-05-18T11:07:00+02:00</time>
      </trkpt>
      <trkpt lat="48.6579" lon="6.22893">
        <ele>205.60059</ele>
        <time>2026-05-18T11:07:01+02:00</time>
      </trkpt>
      <trkpt lat="48.65795" lon="6.22895">
        <ele>205.2002</ele>
        <time>2026-05-18T11:07:02+02:00</time>
      </trkpt>
      <trkpt lat="48.65799" lon="6.22897">
        <ele>204.7998</ele>
        <time>2026-05-18T11:07:03+02:00</time>
      </trkpt>
      <trkpt lat="48.65804" lon="6.22899">
        <ele>204.40039</ele>
        <time>2026-05-18T11:07:04+02:00</time>
      </trkpt>
      <trkpt lat="48.65808" lon="6.22902">
        <ele>205</ele>
        <time>2026-05-18T11:07:05+02:00</time>
      </trkpt>
      <trkpt lat="48.65812" lon="6.22904">
        <ele>204.7998</ele>
        <time>2026-05-18T11:07:06+02:00</time>
      </trkpt>
      <trkpt lat="48.65817" lon="6.22907">
        <ele>204.5</ele>
        <time>2026-05-18T11:07:07+02:00</time>
      </trkpt>
      <trkpt lat="48.6582" lon="6.22909">
        <ele>205.2998</ele>
        <time>2026-05-18T11:07:08+02:00</time>
      </trkpt>
      <trkpt lat="48.65824" lon="6.22911">
        <ele>205.2002</ele>
        <time>2026-05-18T11:07:09+02:00</time>
      </trkpt>
      <trkpt lat="48.65828" lon="6.22913">
        <ele>205</ele>
        <time>2026-05-18T11:07:10+02:00</time>
      </trkpt>
      <trkpt lat="48.65832" lon="6.22915">
        <ele>204.7998</ele>
        <time>2026-05-18T11:07:11+02:00</time>
      </trkpt>
      <trkpt lat="48.65835" lon="6.22918">
        <ele>205.40039</ele>
        <time>2026-05-18T11:07:12+02:00</time>
      </trkpt>
      <trkpt lat="48.65839" lon="6.22921">
        <ele>205.10059</ele>
        <time>2026-05-18T11:07:13+02:00</time>
      </trkpt>
      <trkpt lat="48.65843" lon="6.22925">
        <ele>205.2002</ele>
        <time>2026-05-18T11:07:14+02:00</time>
      </trkpt>
      <trkpt lat="48.65847" lon="6.22929">
        <ele>205.2002</ele>
        <time>2026-05-18T11:07:15+02:00</time>
      </trkpt>
      <trkpt lat="48.65851" lon="6.22932">
        <ele>204.90039</ele>
        <time>2026-05-18T11:07:16+02:00</time>
      </trkpt>
      <trkpt lat="48.65854" lon="6.22935">
        <ele>205.40039</ele>
        <time>2026-05-18T11:07:17+02:00</time>
      </trkpt>
      <trkpt lat="48.65856" lon="6.22936">
        <ele>205.2998</ele>
        <time>2026-05-18T11:07:18+02:00</time>
      </trkpt>
      <trkpt lat="48.65861" lon="6.2294">
        <ele>205.10059</ele>
        <time>2026-05-18T11:07:19+02:00</time>
      </trkpt>
      <trkpt lat="48.65865" lon="6.22943">
        <ele>205.40039</ele>
        <time>2026-05-18T11:07:20+02:00</time>
      </trkpt>
      <trkpt lat="48.65869" lon="6.22946">
        <ele>205</ele>
        <time>2026-05-18T11:07:21+02:00</time>
      </trkpt>
      <trkpt lat="48.65872" lon="6.22949">
        <ele>204.40039</ele>
        <time>2026-05-18T11:07:22+02:00</time>
      </trkpt>
      <trkpt lat="48.65875" lon="6.22953">
        <ele>204.60059</ele>
        <time>2026-05-18T11:07:23+02:00</time>
      </trkpt>
      <trkpt lat="48.65878" lon="6.22958">
        <ele>204</ele>
        <time>2026-05-18T11:07:24+02:00</time>
      </trkpt>
      <trkpt lat="48.65882" lon="6.22962">
        <ele>204.60059</ele>
        <time>2026-05-18T11:07:25+02:00</time>
      </trkpt>
      <trkpt lat="48.65886" lon="6.22966">
        <ele>204.2002</ele>
        <time>2026-05-18T11:07:26+02:00</time>
      </trkpt>
      <trkpt lat="48.6589" lon="6.22971">
        <ele>204.5</ele>
        <time>2026-05-18T11:07:27+02:00</time>
      </trkpt>
      <trkpt lat="48.65894" lon="6.22974">
        <ele>204.2002</ele>
        <time>2026-05-18T11:07:28+02:00</time>
      </trkpt>
      <trkpt lat="48.65899" lon="6.22978">
        <ele>204.7998</ele>
        <time>2026-05-18T11:07:29+02:00</time>
      </trkpt>
      <trkpt lat="48.65902" lon="6.22982">
        <ele>204.40039</ele>
        <time>2026-05-18T11:07:30+02:00</time>
      </trkpt>
      <trkpt lat="48.65906" lon="6.22985">
        <ele>204.2002</ele>
        <time>2026-05-18T11:07:31+02:00</time>
      </trkpt>
      <trkpt lat="48.6591" lon="6.22988">
        <ele>204.2002</ele>
        <time>2026-05-18T11:07:32+02:00</time>
      </trkpt>
      <trkpt lat="48.65914" lon="6.22992">
        <ele>203.60059</ele>
        <time>2026-05-18T11:07:33+02:00</time>
      </trkpt>
      <trkpt lat="48.65918" lon="6.22995">
        <ele>203.2998</ele>
        <time>2026-05-18T11:07:34+02:00</time>
      </trkpt>
      <trkpt lat="48.65922" lon="6.22999">
        <ele>202.7998</ele>
        <time>2026-05-18T11:07:35+02:00</time>
      </trkpt>
      <trkpt lat="48.65926" lon="6.23002">
        <ele>202.7998</ele>
        <time>2026-05-18T11:07:36+02:00</time>
      </trkpt>
      <trkpt lat="48.6593" lon="6.23006">
        <ele>202.5</ele>
        <time>2026-05-18T11:07:37+02:00</time>
      </trkpt>
      <trkpt lat="48.65935" lon="6.2301">
        <ele>202</ele>
        <time>2026-05-18T11:07:38+02:00</time>
      </trkpt>
      <trkpt lat="48.65938" lon="6.23014">
        <ele>202.10059</ele>
        <time>2026-05-18T11:07:39+02:00</time>
      </trkpt>
      <trkpt lat="48.65942" lon="6.23018">
        <ele>201.60059</ele>
        <time>2026-05-18T11:07:40+02:00</time>
      </trkpt>
      <trkpt lat="48.65945" lon="6.23022">
        <ele>201.2998</ele>
        <time>2026-05-18T11:07:41+02:00</time>
      </trkpt>
      <trkpt lat="48.65947" lon="6.23027">
        <ele>201.2998</ele>
        <time>2026-05-18T11:07:42+02:00</time>
      </trkpt>
      <trkpt lat="48.6595" lon="6.23032">
        <ele>201.40039</ele>
        <time>2026-05-18T11:07:43+02:00</time>
      </trkpt>
      <trkpt lat="48.65952" lon="6.23038">
        <ele>201.10059</ele>
        <time>2026-05-18T11:07:44+02:00</time>
      </trkpt>
      <trkpt lat="48.65953" lon="6.23044">
        <ele>201.10059</ele>
        <time>2026-05-18T11:07:45+02:00</time>
      </trkpt>
      <trkpt lat="48.65956" lon="6.23064">
        <ele>201.10059</ele>
        <time>2026-05-18T11:07:46+02:00</time>
      </trkpt>
      <trkpt lat="48.65955" lon="6.23068">
        <ele>201.10059</ele>
        <time>2026-05-18T11:07:47+02:00</time>
      </trkpt>
      <trkpt lat="48.65954" lon="6.2307">
        <ele>201.10059</ele>
        <time>2026-05-18T11:07:48+02:00</time>
      </trkpt>
      <trkpt lat="48.65952" lon="6.23071">
        <ele>201.2002</ele>
        <time>2026-05-18T11:07:49+02:00</time>
      </trkpt>
      <trkpt lat="48.65951" lon="6.23072">
        <ele>201.2002</ele>
        <time>2026-05-18T11:07:50+02:00</time>
      </trkpt>
      <trkpt lat="48.6595" lon="6.23074">
        <ele>201.5</ele>
        <time>2026-05-18T11:07:51+02:00</time>
      </trkpt>
      <trkpt lat="48.65948" lon="6.23075">
        <ele>201.5</ele>
        <time>2026-05-18T11:07:52+02:00</time>
      </trkpt>
      <trkpt lat="48.65947" lon="6.23076">
        <ele>201.5</ele>
        <time>2026-05-18T11:07:53+02:00</time>
      </trkpt>
      <trkpt lat="48.65945" lon="6.23077">
        <ele>201.5</ele>
        <time>2026-05-18T11:07:54+02:00</time>
      </trkpt>
      <trkpt lat="48.65943" lon="6.23078">
        <ele>201.90039</ele>
        <time>2026-05-18T11:07:55+02:00</time>
      </trkpt>
      <trkpt lat="48.65942" lon="6.2308">
        <ele>201.7998</ele>
        <time>2026-05-18T11:07:56+02:00</time>
      </trkpt>
      <trkpt lat="48.65942" lon="6.23083">
        <ele>201.7998</ele>
        <time>2026-05-18T11:07:57+02:00</time>
      </trkpt>
      <trkpt lat="48.65942" lon="6.23085">
        <ele>201.7998</ele>
        <time>2026-05-18T11:07:58+02:00</time>
      </trkpt>
      <trkpt lat="48.65942" lon="6.23089">
        <ele>201.7998</ele>
        <time>2026-05-18T11:07:59+02:00</time>
      </trkpt>
      <trkpt lat="48.65943" lon="6.23092">
        <ele>201.7998</ele>
        <time>2026-05-18T11:08:00+02:00</time>
      </trkpt>
      <trkpt lat="48.65944" lon="6.23095">
        <ele>201.7998</ele>
        <time>2026-05-18T11:08:01+02:00</time>
      </trkpt>
      <trkpt lat="48.65946" lon="6.23098">
        <ele>201.40039</ele>
        <time>2026-05-18T11:08:02+02:00</time>
      </trkpt>
      <trkpt lat="48.65947" lon="6.23101">
        <ele>201.40039</ele>
        <time>2026-05-18T11:08:03+02:00</time>
      </trkpt>
      <trkpt lat="48.65949" lon="6.23104">
        <ele>201.40039</ele>
        <time>2026-05-18T11:08:04+02:00</time>
      </trkpt>
      <trkpt lat="48.6595" lon="6.23108">
        <ele>201.2002</ele>
        <time>2026-05-18T11:08:05+02:00</time>
      </trkpt>
      <trkpt lat="48.65952" lon="6.23112">
        <ele>200.90039</ele>
        <time>2026-05-18T11:08:06+02:00</time>
      </trkpt>
      <trkpt lat="48.65953" lon="6.23116">
        <ele>200.7002</ele>
        <time>2026-05-18T11:08:07+02:00</time>
      </trkpt>
      <trkpt lat="48.65955" lon="6.2312">
        <ele>200.7002</ele>
        <time>2026-05-18T11:08:08+02:00</time>
      </trkpt>
      <trkpt lat="48.65957" lon="6.23124">
        <ele>200.2002</ele>
        <time>2026-05-18T11:08:09+02:00</time>
      </trkpt>
      <trkpt lat="48.65959" lon="6.23129">
        <ele>200.2002</ele>
        <time>2026-05-18T11:08:10+02:00</time>
      </trkpt>
      <trkpt lat="48.6596" lon="6.23134">
        <ele>200.10059</ele>
        <time>2026-05-18T11:08:11+02:00</time>
      </trkpt>
      <trkpt lat="48.65963" lon="6.23139">
        <ele>199.7998</ele>
        <time>2026-05-18T11:08:12+02:00</time>
      </trkpt>
      <trkpt lat="48.65965" lon="6.23144">
        <ele>199.60059</ele>
        <time>2026-05-18T11:08:13+02:00</time>
      </trkpt>
      <trkpt lat="48.65967" lon="6.23149">
        <ele>199.5</ele>
        <time>2026-05-18T11:08:14+02:00</time>
      </trkpt>
      <trkpt lat="48.6597" lon="6.23155">
        <ele>198.90039</ele>
        <time>2026-05-18T11:08:15+02:00</time>
      </trkpt>
      <trkpt lat="48.65972" lon="6.2316">
        <ele>198.7002</ele>
        <time>2026-05-18T11:08:16+02:00</time>
      </trkpt>
      <trkpt lat="48.65974" lon="6.23166">
        <ele>197.7998</ele>
        <time>2026-05-18T11:08:17+02:00</time>
      </trkpt>
      <trkpt lat="48.65975" lon="6.23173">
        <ele>197.7998</ele>
        <time>2026-05-18T11:08:18+02:00</time>
      </trkpt>
      <trkpt lat="48.65976" lon="6.23181">
        <ele>198</ele>
        <time>2026-05-18T11:08:19+02:00</time>
      </trkpt>
      <trkpt lat="48.65976" lon="6.23189">
        <ele>198.10059</ele>
        <time>2026-05-18T11:08:20+02:00</time>
      </trkpt>
      <trkpt lat="48.65976" lon="6.23193">
        <ele>198</ele>
        <time>2026-05-18T11:08:21+02:00</time>
      </trkpt>
      <trkpt lat="48.65973" lon="6.23206">
        <ele>198.2998</ele>
        <time>2026-05-18T11:08:22+02:00</time>
      </trkpt>
      <trkpt lat="48.6597" lon="6.23214">
        <ele>198</ele>
        <time>2026-05-18T11:08:23+02:00</time>
      </trkpt>
      <trkpt lat="48.65966" lon="6.23221">
        <ele>198</ele>
        <time>2026-05-18T11:08:24+02:00</time>
      </trkpt>
      <trkpt lat="48.65962" lon="6.23228">
        <ele>198</ele>
        <time>2026-05-18T11:08:25+02:00</time>
      </trkpt>
      <trkpt lat="48.65957" lon="6.23236">
        <ele>197.7998</ele>
        <time>2026-05-18T11:08:26+02:00</time>
      </trkpt>
      <trkpt lat="48.65953" lon="6.23242">
        <ele>198.10059</ele>
        <time>2026-05-18T11:08:27+02:00</time>
      </trkpt>
      <trkpt lat="48.65949" lon="6.23248">
        <ele>198.2002</ele>
        <time>2026-05-18T11:08:28+02:00</time>
      </trkpt>
      <trkpt lat="48.65946" lon="6.23253">
        <ele>198</ele>
        <time>2026-05-18T11:08:29+02:00</time>
      </trkpt>
      <trkpt lat="48.65944" lon="6.23257">
        <ele>198.40039</ele>
        <time>2026-05-18T11:08:30+02:00</time>
      </trkpt>
      <trkpt lat="48.65943" lon="6.23261">
        <ele>198.2002</ele>
        <time>2026-05-18T11:08:31+02:00</time>
      </trkpt>
      <trkpt lat="48.65945" lon="6.23264">
        <ele>197.7998</ele>
        <time>2026-05-18T11:08:32+02:00</time>
      </trkpt>
      <trkpt lat="48.65947" lon="6.23265">
        <ele>197.7998</ele>
        <time>2026-05-18T11:08:33+02:00</time>
      </trkpt>
      <trkpt lat="48.6595" lon="6.23263">
        <ele>197.7998</ele>
        <time>2026-05-18T11:08:34+02:00</time>
      </trkpt>
      <trkpt lat="48.65951" lon="6.23261">
        <ele>197.5</ele>
        <time>2026-05-18T11:08:35+02:00</time>
      </trkpt>
      <trkpt lat="48.65954" lon="6.23254">
        <ele>197.7002</ele>
        <time>2026-05-18T11:08:36+02:00</time>
      </trkpt>
      <trkpt lat="48.65956" lon="6.23249">
        <ele>197.90039</ele>
        <time>2026-05-18T11:08:37+02:00</time>
      </trkpt>
      <trkpt lat="48.65959" lon="6.23245">
        <ele>197.5</ele>
        <time>2026-05-18T11:08:38+02:00</time>
      </trkpt>
      <trkpt lat="48.65962" lon="6.2324">
        <ele>197.7998</ele>
        <time>2026-05-18T11:08:39+02:00</time>
      </trkpt>
      <trkpt lat="48.65965" lon="6.23235">
        <ele>197.40039</ele>
        <time>2026-05-18T11:08:40+02:00</time>
      </trkpt>
      <trkpt lat="48.65968" lon="6.2323">
        <ele>197.2998</ele>
        <time>2026-05-18T11:08:41+02:00</time>
      </trkpt>
      <trkpt lat="48.65972" lon="6.23225">
        <ele>197.60059</ele>
        <time>2026-05-18T11:08:42+02:00</time>
      </trkpt>
      <trkpt lat="48.65975" lon="6.23219">
        <ele>197.2002</ele>
        <time>2026-05-18T11:08:43+02:00</time>
      </trkpt>
      <trkpt lat="48.65978" lon="6.23213">
        <ele>197.5</ele>
        <time>2026-05-18T11:08:44+02:00</time>
      </trkpt>
      <trkpt lat="48.65981" lon="6.23208">
        <ele>197.2002</ele>
        <time>2026-05-18T11:08:45+02:00</time>
      </trkpt>
      <trkpt lat="48.65984" lon="6.23202">
        <ele>197.2002</ele>
        <time>2026-05-18T11:08:46+02:00</time>
      </trkpt>
      <trkpt lat="48.65986" lon="6.23195">
        <ele>196.7998</ele>
        <time>2026-05-18T11:08:47+02:00</time>
      </trkpt>
      <trkpt lat="48.65987" lon="6.23187">
        <ele>196.7002</ele>
        <time>2026-05-18T11:08:48+02:00</time>
      </trkpt>
      <trkpt lat="48.65988" lon="6.23179">
        <ele>196.40039</ele>
        <time>2026-05-18T11:08:49+02:00</time>
      </trkpt>
      <trkpt lat="48.65988" lon="6.23172">
        <ele>196.2002</ele>
        <time>2026-05-18T11:08:50+02:00</time>
      </trkpt>
      <trkpt lat="48.65987" lon="6.23165">
        <ele>196.10059</ele>
        <time>2026-05-18T11:08:51+02:00</time>
      </trkpt>
      <trkpt lat="48.65986" lon="6.23159">
        <ele>196.10059</ele>
        <time>2026-05-18T11:08:52+02:00</time>
      </trkpt>
      <trkpt lat="48.65986" lon="6.23153">
        <ele>196.5</ele>
        <time>2026-05-18T11:08:53+02:00</time>
      </trkpt>
      <trkpt lat="48.65985" lon="6.23147">
        <ele>197.2002</ele>
        <time>2026-05-18T11:08:54+02:00</time>
      </trkpt>
      <trkpt lat="48.65983" lon="6.23141">
        <ele>197.7998</ele>
        <time>2026-05-18T11:08:55+02:00</time>
      </trkpt>
      <trkpt lat="48.65982" lon="6.23138">
        <ele>198.5</ele>
        <time>2026-05-18T11:08:56+02:00</time>
      </trkpt>
      <trkpt lat="48.6598" lon="6.23129">
        <ele>199.10059</ele>
        <time>2026-05-18T11:08:57+02:00</time>
      </trkpt>
      <trkpt lat="48.6598" lon="6.23122">
        <ele>199.2002</ele>
        <time>2026-05-18T11:08:58+02:00</time>
      </trkpt>
      <trkpt lat="48.65981" lon="6.23116">
        <ele>199.2002</ele>
        <time>2026-05-18T11:08:59+02:00</time>
      </trkpt>
      <trkpt lat="48.65983" lon="6.23111">
        <ele>199.2998</ele>
        <time>2026-05-18T11:09:00+02:00</time>
      </trkpt>
      <trkpt lat="48.65985" lon="6.23105">
        <ele>199.10059</ele>
        <time>2026-05-18T11:09:01+02:00</time>
      </trkpt>
      <trkpt lat="48.65988" lon="6.23099">
        <ele>199.10059</ele>
        <time>2026-05-18T11:09:02+02:00</time>
      </trkpt>
      <trkpt lat="48.65991" lon="6.23094">
        <ele>198.7998</ele>
        <time>2026-05-18T11:09:03+02:00</time>
      </trkpt>
      <trkpt lat="48.65994" lon="6.23088">
        <ele>198.7998</ele>
        <time>2026-05-18T11:09:04+02:00</time>
      </trkpt>
      <trkpt lat="48.65997" lon="6.23083">
        <ele>198.60059</ele>
        <time>2026-05-18T11:09:05+02:00</time>
      </trkpt>
      <trkpt lat="48.66" lon="6.23077">
        <ele>198.7998</ele>
        <time>2026-05-18T11:09:06+02:00</time>
      </trkpt>
      <trkpt lat="48.66004" lon="6.23071">
        <ele>198.5</ele>
        <time>2026-05-18T11:09:07+02:00</time>
      </trkpt>
      <trkpt lat="48.66007" lon="6.23065">
        <ele>198.7002</ele>
        <time>2026-05-18T11:09:08+02:00</time>
      </trkpt>
      <trkpt lat="48.66009" lon="6.23058">
        <ele>198.60059</ele>
        <time>2026-05-18T11:09:09+02:00</time>
      </trkpt>
      <trkpt lat="48.66012" lon="6.23051">
        <ele>198.90039</ele>
        <time>2026-05-18T11:09:10+02:00</time>
      </trkpt>
      <trkpt lat="48.66015" lon="6.23044">
        <ele>198.7998</ele>
        <time>2026-05-18T11:09:11+02:00</time>
      </trkpt>
      <trkpt lat="48.66018" lon="6.23038">
        <ele>198.7998</ele>
        <time>2026-05-18T11:09:12+02:00</time>
      </trkpt>
      <trkpt lat="48.66021" lon="6.23031">
        <ele>198.7998</ele>
        <time>2026-05-18T11:09:13+02:00</time>
      </trkpt>
      <trkpt lat="48.66025" lon="6.23025">
        <ele>198.7002</ele>
        <time>2026-05-18T11:09:14+02:00</time>
      </trkpt>
      <trkpt lat="48.66028" lon="6.23018">
        <ele>198.90039</ele>
        <time>2026-05-18T11:09:15+02:00</time>
      </trkpt>
      <trkpt lat="48.66031" lon="6.23011">
        <ele>198.60059</ele>
        <time>2026-05-18T11:09:16+02:00</time>
      </trkpt>
      <trkpt lat="48.66034" lon="6.23005">
        <ele>198.90039</ele>
        <time>2026-05-18T11:09:17+02:00</time>
      </trkpt>
      <trkpt lat="48.66038" lon="6.22998">
        <ele>198.60059</ele>
        <time>2026-05-18T11:09:18+02:00</time>
      </trkpt>
      <trkpt lat="48.66041" lon="6.22992">
        <ele>198.7002</ele>
        <time>2026-05-18T11:09:19+02:00</time>
      </trkpt>
      <trkpt lat="48.66044" lon="6.22986">
        <ele>198.40039</ele>
        <time>2026-05-18T11:09:20+02:00</time>
      </trkpt>
      <trkpt lat="48.66047" lon="6.22979">
        <ele>198.2998</ele>
        <time>2026-05-18T11:09:21+02:00</time>
      </trkpt>
      <trkpt lat="48.66051" lon="6.22973">
        <ele>198.5</ele>
        <time>2026-05-18T11:09:22+02:00</time>
      </trkpt>
      <trkpt lat="48.66054" lon="6.22967">
        <ele>198.40039</ele>
        <time>2026-05-18T11:09:23+02:00</time>
      </trkpt>
      <trkpt lat="48.66058" lon="6.2296">
        <ele>198.40039</ele>
        <time>2026-05-18T11:09:24+02:00</time>
      </trkpt>
      <trkpt lat="48.66061" lon="6.22954">
        <ele>198.2002</ele>
        <time>2026-05-18T11:09:25+02:00</time>
      </trkpt>
      <trkpt lat="48.66064" lon="6.22948">
        <ele>198.10059</ele>
        <time>2026-05-18T11:09:26+02:00</time>
      </trkpt>
      <trkpt lat="48.66067" lon="6.22942">
        <ele>198.10059</ele>
        <time>2026-05-18T11:09:27+02:00</time>
      </trkpt>
      <trkpt lat="48.6607" lon="6.22936">
        <ele>198</ele>
        <time>2026-05-18T11:09:28+02:00</time>
      </trkpt>
      <trkpt lat="48.66074" lon="6.2293">
        <ele>198.2998</ele>
        <time>2026-05-18T11:09:29+02:00</time>
      </trkpt>
      <trkpt lat="48.66077" lon="6.22924">
        <ele>198.2002</ele>
        <time>2026-05-18T11:09:30+02:00</time>
      </trkpt>
      <trkpt lat="48.6608" lon="6.22917">
        <ele>198.2002</ele>
        <time>2026-05-18T11:09:31+02:00</time>
      </trkpt>
      <trkpt lat="48.66084" lon="6.22911">
        <ele>198.10059</ele>
        <time>2026-05-18T11:09:32+02:00</time>
      </trkpt>
      <trkpt lat="48.66087" lon="6.22905">
        <ele>198</ele>
        <time>2026-05-18T11:09:33+02:00</time>
      </trkpt>
      <trkpt lat="48.6609" lon="6.22899">
        <ele>198.2002</ele>
        <time>2026-05-18T11:09:34+02:00</time>
      </trkpt>
      <trkpt lat="48.66094" lon="6.22893">
        <ele>197.90039</ele>
        <time>2026-05-18T11:09:35+02:00</time>
      </trkpt>
      <trkpt lat="48.66097" lon="6.22886">
        <ele>198.2002</ele>
        <time>2026-05-18T11:09:36+02:00</time>
      </trkpt>
      <trkpt lat="48.661" lon="6.2288">
        <ele>198.10059</ele>
        <time>2026-05-18T11:09:37+02:00</time>
      </trkpt>
      <trkpt lat="48.66103" lon="6.22874">
        <ele>198.10059</ele>
        <time>2026-05-18T11:09:38+02:00</time>
      </trkpt>
      <trkpt lat="48.66107" lon="6.22868">
        <ele>198</ele>
        <time>2026-05-18T11:09:39+02:00</time>
      </trkpt>
      <trkpt lat="48.6611" lon="6.22861">
        <ele>198</ele>
        <time>2026-05-18T11:09:40+02:00</time>
      </trkpt>
      <trkpt lat="48.66113" lon="6.22855">
        <ele>198.2998</ele>
        <time>2026-05-18T11:09:41+02:00</time>
      </trkpt>
      <trkpt lat="48.66116" lon="6.22849">
        <ele>198</ele>
        <time>2026-05-18T11:09:42+02:00</time>
      </trkpt>
      <trkpt lat="48.6612" lon="6.22843">
        <ele>198.2998</ele>
        <time>2026-05-18T11:09:43+02:00</time>
      </trkpt>
      <trkpt lat="48.66123" lon="6.22837">
        <ele>198.2002</ele>
        <time>2026-05-18T11:09:44+02:00</time>
      </trkpt>
      <trkpt lat="48.66127" lon="6.22831">
        <ele>197.90039</ele>
        <time>2026-05-18T11:09:45+02:00</time>
      </trkpt>
      <trkpt lat="48.6613" lon="6.22824">
        <ele>198.10059</ele>
        <time>2026-05-18T11:09:46+02:00</time>
      </trkpt>
      <trkpt lat="48.66133" lon="6.22818">
        <ele>198.10059</ele>
        <time>2026-05-18T11:09:47+02:00</time>
      </trkpt>
      <trkpt lat="48.66137" lon="6.22812">
        <ele>198.2998</ele>
        <time>2026-05-18T11:09:48+02:00</time>
      </trkpt>
      <trkpt lat="48.6614" lon="6.22805">
        <ele>198.10059</ele>
        <time>2026-05-18T11:09:49+02:00</time>
      </trkpt>
      <trkpt lat="48.66144" lon="6.22799">
        <ele>198.2002</ele>
        <time>2026-05-18T11:09:50+02:00</time>
      </trkpt>
      <trkpt lat="48.66147" lon="6.22793">
        <ele>198.2998</ele>
        <time>2026-05-18T11:09:51+02:00</time>
      </trkpt>
      <trkpt lat="48.6615" lon="6.22786">
        <ele>198.2002</ele>
        <time>2026-05-18T11:09:52+02:00</time>
      </trkpt>
      <trkpt lat="48.66153" lon="6.2278">
        <ele>198.2002</ele>
        <time>2026-05-18T11:09:53+02:00</time>
      </trkpt>
      <trkpt lat="48.66157" lon="6.22773">
        <ele>198.2002</ele>
        <time>2026-05-18T11:09:54+02:00</time>
      </trkpt>
      <trkpt lat="48.6616" lon="6.22767">
        <ele>198.2998</ele>
        <time>2026-05-18T11:09:55+02:00</time>
      </trkpt>
      <trkpt lat="48.66163" lon="6.22761">
        <ele>198.2998</ele>
        <time>2026-05-18T11:09:56+02:00</time>
      </trkpt>
      <trkpt lat="48.66167" lon="6.22754">
        <ele>198.40039</ele>
        <time>2026-05-18T11:09:57+02:00</time>
      </trkpt>
      <trkpt lat="48.6617" lon="6.22748">
        <ele>198.40039</ele>
        <time>2026-05-18T11:09:58+02:00</time>
      </trkpt>
      <trkpt lat="48.66173" lon="6.22742">
        <ele>198.60059</ele>
        <time>2026-05-18T11:09:59+02:00</time>
      </trkpt>
      <trkpt lat="48.66177" lon="6.22735">
        <ele>198.60059</ele>
        <time>2026-05-18T11:10:00+02:00</time>
      </trkpt>
      <trkpt lat="48.6618" lon="6.22729">
        <ele>198.7002</ele>
        <time>2026-05-18T11:10:01+02:00</time>
      </trkpt>
      <trkpt lat="48.66183" lon="6.22723">
        <ele>198.7002</ele>
        <time>2026-05-18T11:10:02+02:00</time>
      </trkpt>
      <trkpt lat="48.66186" lon="6.22718">
        <ele>198.5</ele>
        <time>2026-05-18T11:10:03+02:00</time>
      </trkpt>
      <trkpt lat="48.6619" lon="6.22712">
        <ele>198.60059</ele>
        <time>2026-05-18T11:10:04+02:00</time>
      </trkpt>
      <trkpt lat="48.66193" lon="6.22706">
        <ele>198.5</ele>
        <time>2026-05-18T11:10:05+02:00</time>
      </trkpt>
      <trkpt lat="48.66196" lon="6.227">
        <ele>198.7002</ele>
        <time>2026-05-18T11:10:06+02:00</time>
      </trkpt>
      <trkpt lat="48.66199" lon="6.22694">
        <ele>198.7002</ele>
        <time>2026-05-18T11:10:07+02:00</time>
      </trkpt>
      <trkpt lat="48.66203" lon="6.22688">
        <ele>198.5</ele>
        <time>2026-05-18T11:10:08+02:00</time>
      </trkpt>
      <trkpt lat="48.66206" lon="6.22682">
        <ele>198.40039</ele>
        <time>2026-05-18T11:10:09+02:00</time>
      </trkpt>
      <trkpt lat="48.66209" lon="6.22676">
        <ele>198.40039</ele>
        <time>2026-05-18T11:10:10+02:00</time>
      </trkpt>
      <trkpt lat="48.66212" lon="6.22671">
        <ele>198.2998</ele>
        <time>2026-05-18T11:10:11+02:00</time>
      </trkpt>
      <trkpt lat="48.66215" lon="6.22665">
        <ele>198.2998</ele>
        <time>2026-05-18T11:10:12+02:00</time>
      </trkpt>
      <trkpt lat="48.66218" lon="6.22658">
        <ele>198.2002</ele>
        <time>2026-05-18T11:10:13+02:00</time>
      </trkpt>
      <trkpt lat="48.66222" lon="6.22652">
        <ele>198.2002</ele>
        <time>2026-05-18T11:10:14+02:00</time>
      </trkpt>
      <trkpt lat="48.66225" lon="6.22645">
        <ele>198.10059</ele>
        <time>2026-05-18T11:10:15+02:00</time>
      </trkpt>
      <trkpt lat="48.66228" lon="6.22638">
        <ele>198.10059</ele>
        <time>2026-05-18T11:10:16+02:00</time>
      </trkpt>
      <trkpt lat="48.66232" lon="6.22632">
        <ele>198.10059</ele>
        <time>2026-05-18T11:10:17+02:00</time>
      </trkpt>
      <trkpt lat="48.66235" lon="6.22625">
        <ele>198.10059</ele>
        <time>2026-05-18T11:10:18+02:00</time>
      </trkpt>
      <trkpt lat="48.66239" lon="6.22619">
        <ele>198.10059</ele>
        <time>2026-05-18T11:10:19+02:00</time>
      </trkpt>
      <trkpt lat="48.66242" lon="6.22613">
        <ele>198.10059</ele>
        <time>2026-05-18T11:10:20+02:00</time>
      </trkpt>
      <trkpt lat="48.66244" lon="6.2261">
        <ele>198.10059</ele>
        <time>2026-05-18T11:10:21+02:00</time>
      </trkpt>
      <trkpt lat="48.66249" lon="6.22601">
        <ele>198.10059</ele>
        <time>2026-05-18T11:10:22+02:00</time>
      </trkpt>
      <trkpt lat="48.66252" lon="6.22594">
        <ele>198.2002</ele>
        <time>2026-05-18T11:10:23+02:00</time>
      </trkpt>
      <trkpt lat="48.66255" lon="6.22588">
        <ele>198.2998</ele>
        <time>2026-05-18T11:10:24+02:00</time>
      </trkpt>
      <trkpt lat="48.66259" lon="6.22582">
        <ele>198.2002</ele>
        <time>2026-05-18T11:10:25+02:00</time>
      </trkpt>
      <trkpt lat="48.66262" lon="6.22575">
        <ele>198.2002</ele>
        <time>2026-05-18T11:10:26+02:00</time>
      </trkpt>
      <trkpt lat="48.66266" lon="6.22569">
        <ele>198.10059</ele>
        <time>2026-05-18T11:10:27+02:00</time>
      </trkpt>
      <trkpt lat="48.66269" lon="6.22563">
        <ele>198.2002</ele>
        <time>2026-05-18T11:10:28+02:00</time>
      </trkpt>
      <trkpt lat="48.66272" lon="6.22557">
        <ele>198.2002</ele>
        <time>2026-05-18T11:10:29+02:00</time>
      </trkpt>
      <trkpt lat="48.66276" lon="6.2255">
        <ele>198.2998</ele>
        <time>2026-05-18T11:10:30+02:00</time>
      </trkpt>
      <trkpt lat="48.6628" lon="6.22544">
        <ele>198.2002</ele>
        <time>2026-05-18T11:10:31+02:00</time>
      </trkpt>
      <trkpt lat="48.66283" lon="6.22537">
        <ele>198.2002</ele>
        <time>2026-05-18T11:10:32+02:00</time>
      </trkpt>
      <trkpt lat="48.66287" lon="6.22531">
        <ele>198.2002</ele>
        <time>2026-05-18T11:10:33+02:00</time>
      </trkpt>
      <trkpt lat="48.6629" lon="6.22524">
        <ele>198.2002</ele>
        <time>2026-05-18T11:10:34+02:00</time>
      </trkpt>
      <trkpt lat="48.66294" lon="6.22517">
        <ele>198.10059</ele>
        <time>2026-05-18T11:10:35+02:00</time>
      </trkpt>
      <trkpt lat="48.66297" lon="6.22511">
        <ele>198.10059</ele>
        <time>2026-05-18T11:10:36+02:00</time>
      </trkpt>
      <trkpt lat="48.663" lon="6.22504">
        <ele>198.10059</ele>
        <time>2026-05-18T11:10:37+02:00</time>
      </trkpt>
      <trkpt lat="48.66304" lon="6.22498">
        <ele>198.2002</ele>
        <time>2026-05-18T11:10:38+02:00</time>
      </trkpt>
      <trkpt lat="48.66307" lon="6.22492">
        <ele>198.2002</ele>
        <time>2026-05-18T11:10:39+02:00</time>
      </trkpt>
      <trkpt lat="48.6631" lon="6.22485">
        <ele>198.2002</ele>
        <time>2026-05-18T11:10:40+02:00</time>
      </trkpt>
      <trkpt lat="48.66314" lon="6.22479">
        <ele>198.10059</ele>
        <time>2026-05-18T11:10:41+02:00</time>
      </trkpt>
      <trkpt lat="48.66315" lon="6.22476">
        <ele>198.10059</ele>
        <time>2026-05-18T11:10:42+02:00</time>
      </trkpt>
      <trkpt lat="48.6632" lon="6.22467">
        <ele>198.10059</ele>
        <time>2026-05-18T11:10:43+02:00</time>
      </trkpt>
      <trkpt lat="48.66324" lon="6.2246">
        <ele>198.10059</ele>
        <time>2026-05-18T11:10:44+02:00</time>
      </trkpt>
      <trkpt lat="48.66327" lon="6.22454">
        <ele>198.2002</ele>
        <time>2026-05-18T11:10:45+02:00</time>
      </trkpt>
      <trkpt lat="48.66331" lon="6.22447">
        <ele>198.10059</ele>
        <time>2026-05-18T11:10:46+02:00</time>
      </trkpt>
      <trkpt lat="48.66334" lon="6.22441">
        <ele>198.10059</ele>
        <time>2026-05-18T11:10:47+02:00</time>
      </trkpt>
      <trkpt lat="48.66338" lon="6.22435">
        <ele>198.10059</ele>
        <time>2026-05-18T11:10:48+02:00</time>
      </trkpt>
      <trkpt lat="48.6634" lon="6.22431">
        <ele>198.10059</ele>
        <time>2026-05-18T11:10:49+02:00</time>
      </trkpt>
      <trkpt lat="48.66345" lon="6.22422">
        <ele>198.10059</ele>
        <time>2026-05-18T11:10:50+02:00</time>
      </trkpt>
      <trkpt lat="48.66348" lon="6.22416">
        <ele>198.10059</ele>
        <time>2026-05-18T11:10:51+02:00</time>
      </trkpt>
      <trkpt lat="48.66351" lon="6.2241">
        <ele>198.10059</ele>
        <time>2026-05-18T11:10:52+02:00</time>
      </trkpt>
      <trkpt lat="48.66355" lon="6.22403">
        <ele>198.10059</ele>
        <time>2026-05-18T11:10:53+02:00</time>
      </trkpt>
      <trkpt lat="48.66358" lon="6.22397">
        <ele>198</ele>
        <time>2026-05-18T11:10:54+02:00</time>
      </trkpt>
      <trkpt lat="48.66361" lon="6.22391">
        <ele>198</ele>
        <time>2026-05-18T11:10:55+02:00</time>
      </trkpt>
      <trkpt lat="48.66363" lon="6.22388">
        <ele>198</ele>
        <time>2026-05-18T11:10:56+02:00</time>
      </trkpt>
      <trkpt lat="48.66368" lon="6.22379">
        <ele>198.10059</ele>
        <time>2026-05-18T11:10:57+02:00</time>
      </trkpt>
      <trkpt lat="48.66371" lon="6.22372">
        <ele>198.10059</ele>
        <time>2026-05-18T11:10:58+02:00</time>
      </trkpt>
      <trkpt lat="48.66375" lon="6.22366">
        <ele>198</ele>
        <time>2026-05-18T11:10:59+02:00</time>
      </trkpt>
      <trkpt lat="48.66378" lon="6.2236">
        <ele>198.10059</ele>
        <time>2026-05-18T11:11:00+02:00</time>
      </trkpt>
      <trkpt lat="48.66382" lon="6.22354">
        <ele>198.2002</ele>
        <time>2026-05-18T11:11:01+02:00</time>
      </trkpt>
      <trkpt lat="48.66385" lon="6.22347">
        <ele>198.2998</ele>
        <time>2026-05-18T11:11:02+02:00</time>
      </trkpt>
      <trkpt lat="48.66388" lon="6.22341">
        <ele>198.2998</ele>
        <time>2026-05-18T11:11:03+02:00</time>
      </trkpt>
      <trkpt lat="48.66392" lon="6.22334">
        <ele>198.2998</ele>
        <time>2026-05-18T11:11:04+02:00</time>
      </trkpt>
      <trkpt lat="48.66395" lon="6.22328">
        <ele>198.10059</ele>
        <time>2026-05-18T11:11:05+02:00</time>
      </trkpt>
      <trkpt lat="48.66398" lon="6.22322">
        <ele>198</ele>
        <time>2026-05-18T11:11:06+02:00</time>
      </trkpt>
      <trkpt lat="48.66401" lon="6.22315">
        <ele>198.2002</ele>
        <time>2026-05-18T11:11:07+02:00</time>
      </trkpt>
      <trkpt lat="48.66404" lon="6.22308">
        <ele>198.2002</ele>
        <time>2026-05-18T11:11:08+02:00</time>
      </trkpt>
      <trkpt lat="48.66408" lon="6.22302">
        <ele>198.40039</ele>
        <time>2026-05-18T11:11:09+02:00</time>
      </trkpt>
      <trkpt lat="48.66409" lon="6.22298">
        <ele>198.2998</ele>
        <time>2026-05-18T11:11:10+02:00</time>
      </trkpt>
      <trkpt lat="48.66414" lon="6.22289">
        <ele>198</ele>
        <time>2026-05-18T11:11:11+02:00</time>
      </trkpt>
      <trkpt lat="48.66418" lon="6.22282">
        <ele>198</ele>
        <time>2026-05-18T11:11:12+02:00</time>
      </trkpt>
      <trkpt lat="48.66421" lon="6.22276">
        <ele>198.2998</ele>
        <time>2026-05-18T11:11:13+02:00</time>
      </trkpt>
      <trkpt lat="48.66424" lon="6.22269">
        <ele>198.40039</ele>
        <time>2026-05-18T11:11:14+02:00</time>
      </trkpt>
      <trkpt lat="48.66427" lon="6.22263">
        <ele>198.2998</ele>
        <time>2026-05-18T11:11:15+02:00</time>
      </trkpt>
      <trkpt lat="48.6643" lon="6.22256">
        <ele>198.2998</ele>
        <time>2026-05-18T11:11:16+02:00</time>
      </trkpt>
      <trkpt lat="48.66433" lon="6.2225">
        <ele>198.10059</ele>
        <time>2026-05-18T11:11:17+02:00</time>
      </trkpt>
      <trkpt lat="48.66436" lon="6.22244">
        <ele>198</ele>
        <time>2026-05-18T11:11:18+02:00</time>
      </trkpt>
      <trkpt lat="48.66439" lon="6.22237">
        <ele>197.90039</ele>
        <time>2026-05-18T11:11:19+02:00</time>
      </trkpt>
      <trkpt lat="48.66441" lon="6.22231">
        <ele>197.90039</ele>
        <time>2026-05-18T11:11:20+02:00</time>
      </trkpt>
      <trkpt lat="48.66445" lon="6.22224">
        <ele>198</ele>
        <time>2026-05-18T11:11:21+02:00</time>
      </trkpt>
      <trkpt lat="48.66447" lon="6.22218">
        <ele>198</ele>
        <time>2026-05-18T11:11:22+02:00</time>
      </trkpt>
      <trkpt lat="48.6645" lon="6.22212">
        <ele>198.10059</ele>
        <time>2026-05-18T11:11:23+02:00</time>
      </trkpt>
      <trkpt lat="48.66453" lon="6.22205">
        <ele>198.10059</ele>
        <time>2026-05-18T11:11:24+02:00</time>
      </trkpt>
      <trkpt lat="48.66456" lon="6.22199">
        <ele>198</ele>
        <time>2026-05-18T11:11:25+02:00</time>
      </trkpt>
      <trkpt lat="48.66459" lon="6.22192">
        <ele>198</ele>
        <time>2026-05-18T11:11:26+02:00</time>
      </trkpt>
      <trkpt lat="48.66462" lon="6.22186">
        <ele>198</ele>
        <time>2026-05-18T11:11:27+02:00</time>
      </trkpt>
      <trkpt lat="48.66466" lon="6.22179">
        <ele>198</ele>
        <time>2026-05-18T11:11:28+02:00</time>
      </trkpt>
      <trkpt lat="48.66469" lon="6.22172">
        <ele>198.2002</ele>
        <time>2026-05-18T11:11:29+02:00</time>
      </trkpt>
      <trkpt lat="48.66472" lon="6.22165">
        <ele>198.2002</ele>
        <time>2026-05-18T11:11:30+02:00</time>
      </trkpt>
      <trkpt lat="48.66475" lon="6.22158">
        <ele>198.2002</ele>
        <time>2026-05-18T11:11:31+02:00</time>
      </trkpt>
      <trkpt lat="48.66477" lon="6.22152">
        <ele>198</ele>
        <time>2026-05-18T11:11:32+02:00</time>
      </trkpt>
      <trkpt lat="48.6648" lon="6.22145">
        <ele>198</ele>
        <time>2026-05-18T11:11:33+02:00</time>
      </trkpt>
      <trkpt lat="48.66483" lon="6.22138">
        <ele>197.7998</ele>
        <time>2026-05-18T11:11:34+02:00</time>
      </trkpt>
      <trkpt lat="48.66486" lon="6.22131">
        <ele>197.7998</ele>
        <time>2026-05-18T11:11:35+02:00</time>
      </trkpt>
      <trkpt lat="48.66489" lon="6.22125">
        <ele>197.90039</ele>
        <time>2026-05-18T11:11:36+02:00</time>
      </trkpt>
      <trkpt lat="48.66491" lon="6.22118">
        <ele>197.7998</ele>
        <time>2026-05-18T11:11:37+02:00</time>
      </trkpt>
      <trkpt lat="48.66495" lon="6.22111">
        <ele>197.7002</ele>
        <time>2026-05-18T11:11:38+02:00</time>
      </trkpt>
      <trkpt lat="48.66498" lon="6.22104">
        <ele>197.60059</ele>
        <time>2026-05-18T11:11:39+02:00</time>
      </trkpt>
      <trkpt lat="48.66501" lon="6.22097">
        <ele>197.60059</ele>
        <time>2026-05-18T11:11:40+02:00</time>
      </trkpt>
      <trkpt lat="48.66503" lon="6.2209">
        <ele>197.5</ele>
        <time>2026-05-18T11:11:41+02:00</time>
      </trkpt>
      <trkpt lat="48.66506" lon="6.22084">
        <ele>197.5</ele>
        <time>2026-05-18T11:11:42+02:00</time>
      </trkpt>
      <trkpt lat="48.66509" lon="6.22077">
        <ele>197.40039</ele>
        <time>2026-05-18T11:11:43+02:00</time>
      </trkpt>
      <trkpt lat="48.66511" lon="6.2207">
        <ele>197.40039</ele>
        <time>2026-05-18T11:11:44+02:00</time>
      </trkpt>
      <trkpt lat="48.66514" lon="6.22063">
        <ele>197.2998</ele>
        <time>2026-05-18T11:11:45+02:00</time>
      </trkpt>
      <trkpt lat="48.66517" lon="6.22056">
        <ele>197.5</ele>
        <time>2026-05-18T11:11:46+02:00</time>
      </trkpt>
      <trkpt lat="48.66519" lon="6.22049">
        <ele>197.7002</ele>
        <time>2026-05-18T11:11:47+02:00</time>
      </trkpt>
      <trkpt lat="48.66522" lon="6.22043">
        <ele>197.7002</ele>
        <time>2026-05-18T11:11:48+02:00</time>
      </trkpt>
      <trkpt lat="48.66524" lon="6.22036">
        <ele>197.90039</ele>
        <time>2026-05-18T11:11:49+02:00</time>
      </trkpt>
      <trkpt lat="48.66526" lon="6.22029">
        <ele>197.90039</ele>
        <time>2026-05-18T11:11:50+02:00</time>
      </trkpt>
      <trkpt lat="48.66529" lon="6.22022">
        <ele>197.90039</ele>
        <time>2026-05-18T11:11:51+02:00</time>
      </trkpt>
      <trkpt lat="48.66531" lon="6.22016">
        <ele>197.90039</ele>
        <time>2026-05-18T11:11:52+02:00</time>
      </trkpt>
      <trkpt lat="48.66533" lon="6.22009">
        <ele>197.90039</ele>
        <time>2026-05-18T11:11:53+02:00</time>
      </trkpt>
      <trkpt lat="48.66535" lon="6.22003">
        <ele>198</ele>
        <time>2026-05-18T11:11:54+02:00</time>
      </trkpt>
      <trkpt lat="48.66538" lon="6.21996">
        <ele>198</ele>
        <time>2026-05-18T11:11:55+02:00</time>
      </trkpt>
      <trkpt lat="48.6654" lon="6.21989">
        <ele>198.2002</ele>
        <time>2026-05-18T11:11:56+02:00</time>
      </trkpt>
      <trkpt lat="48.66543" lon="6.21982">
        <ele>198.2002</ele>
        <time>2026-05-18T11:11:57+02:00</time>
      </trkpt>
      <trkpt lat="48.66546" lon="6.21975">
        <ele>198.40039</ele>
        <time>2026-05-18T11:11:58+02:00</time>
      </trkpt>
      <trkpt lat="48.66549" lon="6.21967">
        <ele>198.40039</ele>
        <time>2026-05-18T11:11:59+02:00</time>
      </trkpt>
      <trkpt lat="48.66551" lon="6.2196">
        <ele>198.5</ele>
        <time>2026-05-18T11:12:00+02:00</time>
      </trkpt>
      <trkpt lat="48.66554" lon="6.21952">
        <ele>198.7002</ele>
        <time>2026-05-18T11:12:01+02:00</time>
      </trkpt>
      <trkpt lat="48.66557" lon="6.21945">
        <ele>198.40039</ele>
        <time>2026-05-18T11:12:02+02:00</time>
      </trkpt>
      <trkpt lat="48.6656" lon="6.21938">
        <ele>198.5</ele>
        <time>2026-05-18T11:12:03+02:00</time>
      </trkpt>
      <trkpt lat="48.66562" lon="6.21931">
        <ele>198.10059</ele>
        <time>2026-05-18T11:12:04+02:00</time>
      </trkpt>
      <trkpt lat="48.66565" lon="6.21923">
        <ele>198.2002</ele>
        <time>2026-05-18T11:12:05+02:00</time>
      </trkpt>
      <trkpt lat="48.66568" lon="6.21916">
        <ele>198.10059</ele>
        <time>2026-05-18T11:12:06+02:00</time>
      </trkpt>
      <trkpt lat="48.6657" lon="6.21909">
        <ele>198.10059</ele>
        <time>2026-05-18T11:12:07+02:00</time>
      </trkpt>
      <trkpt lat="48.66573" lon="6.21902">
        <ele>197.90039</ele>
        <time>2026-05-18T11:12:08+02:00</time>
      </trkpt>
      <trkpt lat="48.66575" lon="6.21895">
        <ele>198.10059</ele>
        <time>2026-05-18T11:12:09+02:00</time>
      </trkpt>
      <trkpt lat="48.66578" lon="6.21887">
        <ele>197.90039</ele>
        <time>2026-05-18T11:12:10+02:00</time>
      </trkpt>
      <trkpt lat="48.66581" lon="6.2188">
        <ele>198.10059</ele>
        <time>2026-05-18T11:12:11+02:00</time>
      </trkpt>
      <trkpt lat="48.66583" lon="6.21872">
        <ele>197.90039</ele>
        <time>2026-05-18T11:12:12+02:00</time>
      </trkpt>
      <trkpt lat="48.66586" lon="6.21865">
        <ele>198.2002</ele>
        <time>2026-05-18T11:12:13+02:00</time>
      </trkpt>
      <trkpt lat="48.66589" lon="6.21857">
        <ele>198.2998</ele>
        <time>2026-05-18T11:12:14+02:00</time>
      </trkpt>
      <trkpt lat="48.66591" lon="6.2185">
        <ele>198.5</ele>
        <time>2026-05-18T11:12:15+02:00</time>
      </trkpt>
      <trkpt lat="48.66594" lon="6.21843">
        <ele>198.40039</ele>
        <time>2026-05-18T11:12:16+02:00</time>
      </trkpt>
      <trkpt lat="48.66596" lon="6.21836">
        <ele>198.40039</ele>
        <time>2026-05-18T11:12:17+02:00</time>
      </trkpt>
      <trkpt lat="48.66599" lon="6.21828">
        <ele>198.10059</ele>
        <time>2026-05-18T11:12:18+02:00</time>
      </trkpt>
      <trkpt lat="48.66602" lon="6.21821">
        <ele>197.90039</ele>
        <time>2026-05-18T11:12:19+02:00</time>
      </trkpt>
      <trkpt lat="48.66604" lon="6.21813">
        <ele>197.90039</ele>
        <time>2026-05-18T11:12:20+02:00</time>
      </trkpt>
      <trkpt lat="48.66607" lon="6.21806">
        <ele>197.90039</ele>
        <time>2026-05-18T11:12:21+02:00</time>
      </trkpt>
      <trkpt lat="48.6661" lon="6.21799">
        <ele>197.7998</ele>
        <time>2026-05-18T11:12:22+02:00</time>
      </trkpt>
      <trkpt lat="48.66614" lon="6.21791">
        <ele>197.90039</ele>
        <time>2026-05-18T11:12:23+02:00</time>
      </trkpt>
      <trkpt lat="48.66615" lon="6.21787">
        <ele>197.90039</ele>
        <time>2026-05-18T11:12:24+02:00</time>
      </trkpt>
      <trkpt lat="48.66619" lon="6.21775">
        <ele>197.90039</ele>
        <time>2026-05-18T11:12:25+02:00</time>
      </trkpt>
      <trkpt lat="48.66622" lon="6.21768">
        <ele>198.10059</ele>
        <time>2026-05-18T11:12:26+02:00</time>
      </trkpt>
      <trkpt lat="48.66625" lon="6.2176">
        <ele>198.10059</ele>
        <time>2026-05-18T11:12:27+02:00</time>
      </trkpt>
      <trkpt lat="48.66627" lon="6.21752">
        <ele>198.2998</ele>
        <time>2026-05-18T11:12:28+02:00</time>
      </trkpt>
      <trkpt lat="48.6663" lon="6.21745">
        <ele>197.90039</ele>
        <time>2026-05-18T11:12:29+02:00</time>
      </trkpt>
      <trkpt lat="48.66633" lon="6.21737">
        <ele>198.10059</ele>
        <time>2026-05-18T11:12:30+02:00</time>
      </trkpt>
      <trkpt lat="48.66635" lon="6.2173">
        <ele>197.7998</ele>
        <time>2026-05-18T11:12:31+02:00</time>
      </trkpt>
      <trkpt lat="48.66638" lon="6.21723">
        <ele>198</ele>
        <time>2026-05-18T11:12:32+02:00</time>
      </trkpt>
      <trkpt lat="48.66641" lon="6.21716">
        <ele>198</ele>
        <time>2026-05-18T11:12:33+02:00</time>
      </trkpt>
      <trkpt lat="48.66644" lon="6.21708">
        <ele>198.2998</ele>
        <time>2026-05-18T11:12:34+02:00</time>
      </trkpt>
      <trkpt lat="48.66646" lon="6.21701">
        <ele>198.2002</ele>
        <time>2026-05-18T11:12:35+02:00</time>
      </trkpt>
      <trkpt lat="48.66649" lon="6.21693">
        <ele>198.7998</ele>
        <time>2026-05-18T11:12:36+02:00</time>
      </trkpt>
      <trkpt lat="48.66651" lon="6.21686">
        <ele>198.7998</ele>
        <time>2026-05-18T11:12:37+02:00</time>
      </trkpt>
      <trkpt lat="48.66654" lon="6.21679">
        <ele>199.60059</ele>
        <time>2026-05-18T11:12:38+02:00</time>
      </trkpt>
      <trkpt lat="48.66657" lon="6.21672">
        <ele>199.60059</ele>
        <time>2026-05-18T11:12:39+02:00</time>
      </trkpt>
      <trkpt lat="48.66659" lon="6.21665">
        <ele>199.5</ele>
        <time>2026-05-18T11:12:40+02:00</time>
      </trkpt>
      <trkpt lat="48.66662" lon="6.21657">
        <ele>198.7998</ele>
        <time>2026-05-18T11:12:41+02:00</time>
      </trkpt>
      <trkpt lat="48.66665" lon="6.2165">
        <ele>198.2998</ele>
        <time>2026-05-18T11:12:42+02:00</time>
      </trkpt>
      <trkpt lat="48.66667" lon="6.21643">
        <ele>198.40039</ele>
        <time>2026-05-18T11:12:43+02:00</time>
      </trkpt>
      <trkpt lat="48.6667" lon="6.21636">
        <ele>198</ele>
        <time>2026-05-18T11:12:44+02:00</time>
      </trkpt>
      <trkpt lat="48.66672" lon="6.21629">
        <ele>198.60059</ele>
        <time>2026-05-18T11:12:45+02:00</time>
      </trkpt>
      <trkpt lat="48.66675" lon="6.21622">
        <ele>197.90039</ele>
        <time>2026-05-18T11:12:46+02:00</time>
      </trkpt>
      <trkpt lat="48.66678" lon="6.21615">
        <ele>198</ele>
        <time>2026-05-18T11:12:47+02:00</time>
      </trkpt>
      <trkpt lat="48.6668" lon="6.21608">
        <ele>197.7002</ele>
        <time>2026-05-18T11:12:48+02:00</time>
      </trkpt>
      <trkpt lat="48.66683" lon="6.21601">
        <ele>198</ele>
        <time>2026-05-18T11:12:49+02:00</time>
      </trkpt>
      <trkpt lat="48.66685" lon="6.21595">
        <ele>198</ele>
        <time>2026-05-18T11:12:50+02:00</time>
      </trkpt>
      <trkpt lat="48.66688" lon="6.21588">
        <ele>198.7998</ele>
        <time>2026-05-18T11:12:51+02:00</time>
      </trkpt>
      <trkpt lat="48.6669" lon="6.21581">
        <ele>198.7998</ele>
        <time>2026-05-18T11:12:52+02:00</time>
      </trkpt>
      <trkpt lat="48.66692" lon="6.21574">
        <ele>199.10059</ele>
        <time>2026-05-18T11:12:53+02:00</time>
      </trkpt>
      <trkpt lat="48.66695" lon="6.21567">
        <ele>199.5</ele>
        <time>2026-05-18T11:12:54+02:00</time>
      </trkpt>
      <trkpt lat="48.66698" lon="6.2156">
        <ele>198.90039</ele>
        <time>2026-05-18T11:12:55+02:00</time>
      </trkpt>
      <trkpt lat="48.667" lon="6.21553">
        <ele>199.10059</ele>
        <time>2026-05-18T11:12:56+02:00</time>
      </trkpt>
      <trkpt lat="48.66703" lon="6.21546">
        <ele>198.2002</ele>
        <time>2026-05-18T11:12:57+02:00</time>
      </trkpt>
      <trkpt lat="48.66706" lon="6.21539">
        <ele>198.2002</ele>
        <time>2026-05-18T11:12:58+02:00</time>
      </trkpt>
      <trkpt lat="48.66709" lon="6.21532">
        <ele>198.2002</ele>
        <time>2026-05-18T11:12:59+02:00</time>
      </trkpt>
      <trkpt lat="48.66711" lon="6.21525">
        <ele>198</ele>
        <time>2026-05-18T11:13:00+02:00</time>
      </trkpt>
      <trkpt lat="48.66714" lon="6.21517">
        <ele>197.5</ele>
        <time>2026-05-18T11:13:01+02:00</time>
      </trkpt>
      <trkpt lat="48.66717" lon="6.2151">
        <ele>197.90039</ele>
        <time>2026-05-18T11:13:02+02:00</time>
      </trkpt>
      <trkpt lat="48.66719" lon="6.21503">
        <ele>197.7002</ele>
        <time>2026-05-18T11:13:03+02:00</time>
      </trkpt>
      <trkpt lat="48.66721" lon="6.21496">
        <ele>197.7998</ele>
        <time>2026-05-18T11:13:04+02:00</time>
      </trkpt>
      <trkpt lat="48.66723" lon="6.21492">
        <ele>198.2002</ele>
        <time>2026-05-18T11:13:05+02:00</time>
      </trkpt>
      <trkpt lat="48.66726" lon="6.21482">
        <ele>198.2002</ele>
        <time>2026-05-18T11:13:06+02:00</time>
      </trkpt>
      <trkpt lat="48.66729" lon="6.21475">
        <ele>198.90039</ele>
        <time>2026-05-18T11:13:07+02:00</time>
      </trkpt>
      <trkpt lat="48.66731" lon="6.21468">
        <ele>198.40039</ele>
        <time>2026-05-18T11:13:08+02:00</time>
      </trkpt>
      <trkpt lat="48.66734" lon="6.21461">
        <ele>198.60059</ele>
        <time>2026-05-18T11:13:09+02:00</time>
      </trkpt>
      <trkpt lat="48.66737" lon="6.21454">
        <ele>198.10059</ele>
        <time>2026-05-18T11:13:10+02:00</time>
      </trkpt>
      <trkpt lat="48.66739" lon="6.21448">
        <ele>198.10059</ele>
        <time>2026-05-18T11:13:11+02:00</time>
      </trkpt>
      <trkpt lat="48.66742" lon="6.21441">
        <ele>198.10059</ele>
        <time>2026-05-18T11:13:12+02:00</time>
      </trkpt>
      <trkpt lat="48.66744" lon="6.21434">
        <ele>197.7998</ele>
        <time>2026-05-18T11:13:13+02:00</time>
      </trkpt>
      <trkpt lat="48.66747" lon="6.21428">
        <ele>198.2998</ele>
        <time>2026-05-18T11:13:14+02:00</time>
      </trkpt>
      <trkpt lat="48.66749" lon="6.21421">
        <ele>198.10059</ele>
        <time>2026-05-18T11:13:15+02:00</time>
      </trkpt>
      <trkpt lat="48.66752" lon="6.21414">
        <ele>198.90039</ele>
        <time>2026-05-18T11:13:16+02:00</time>
      </trkpt>
      <trkpt lat="48.66755" lon="6.21407">
        <ele>198.90039</ele>
        <time>2026-05-18T11:13:17+02:00</time>
      </trkpt>
      <trkpt lat="48.66757" lon="6.214">
        <ele>200.2002</ele>
        <time>2026-05-18T11:13:18+02:00</time>
      </trkpt>
      <trkpt lat="48.66759" lon="6.21397">
        <ele>200.2002</ele>
        <time>2026-05-18T11:13:19+02:00</time>
      </trkpt>
      <trkpt lat="48.66763" lon="6.21386">
        <ele>199.5</ele>
        <time>2026-05-18T11:13:20+02:00</time>
      </trkpt>
      <trkpt lat="48.66766" lon="6.21379">
        <ele>198.5</ele>
        <time>2026-05-18T11:13:21+02:00</time>
      </trkpt>
      <trkpt lat="48.66769" lon="6.21372">
        <ele>199</ele>
        <time>2026-05-18T11:13:22+02:00</time>
      </trkpt>
      <trkpt lat="48.66771" lon="6.21365">
        <ele>198.40039</ele>
        <time>2026-05-18T11:13:23+02:00</time>
      </trkpt>
      <trkpt lat="48.66774" lon="6.21358">
        <ele>199.10059</ele>
        <time>2026-05-18T11:13:24+02:00</time>
      </trkpt>
      <trkpt lat="48.66777" lon="6.21352">
        <ele>198.2998</ele>
        <time>2026-05-18T11:13:25+02:00</time>
      </trkpt>
      <trkpt lat="48.66779" lon="6.21346">
        <ele>199</ele>
        <time>2026-05-18T11:13:26+02:00</time>
      </trkpt>
      <trkpt lat="48.66781" lon="6.21343">
        <ele>198.2002</ele>
        <time>2026-05-18T11:13:27+02:00</time>
      </trkpt>
      <trkpt lat="48.66786" lon="6.21334">
        <ele>198.2998</ele>
        <time>2026-05-18T11:13:28+02:00</time>
      </trkpt>
      <trkpt lat="48.66788" lon="6.21329">
        <ele>198.2998</ele>
        <time>2026-05-18T11:13:29+02:00</time>
      </trkpt>
      <trkpt lat="48.66791" lon="6.21323">
        <ele>198.90039</ele>
        <time>2026-05-18T11:13:30+02:00</time>
      </trkpt>
      <trkpt lat="48.66793" lon="6.21317">
        <ele>198.60059</ele>
        <time>2026-05-18T11:13:31+02:00</time>
      </trkpt>
      <trkpt lat="48.66795" lon="6.2131">
        <ele>198.40039</ele>
        <time>2026-05-18T11:13:32+02:00</time>
      </trkpt>
      <trkpt lat="48.66798" lon="6.21304">
        <ele>199.60059</ele>
        <time>2026-05-18T11:13:33+02:00</time>
      </trkpt>
      <trkpt lat="48.66801" lon="6.21297">
        <ele>200.40039</ele>
        <time>2026-05-18T11:13:34+02:00</time>
      </trkpt>
      <trkpt lat="48.66804" lon="6.2129">
        <ele>200</ele>
        <time>2026-05-18T11:13:35+02:00</time>
      </trkpt>
      <trkpt lat="48.66807" lon="6.21283">
        <ele>199.7998</ele>
        <time>2026-05-18T11:13:36+02:00</time>
      </trkpt>
      <trkpt lat="48.6681" lon="6.21277">
        <ele>199.7998</ele>
        <time>2026-05-18T11:13:37+02:00</time>
      </trkpt>
      <trkpt lat="48.66813" lon="6.2127">
        <ele>199.60059</ele>
        <time>2026-05-18T11:13:38+02:00</time>
      </trkpt>
      <trkpt lat="48.66816" lon="6.21263">
        <ele>198.90039</ele>
        <time>2026-05-18T11:13:39+02:00</time>
      </trkpt>
      <trkpt lat="48.6682" lon="6.21256">
        <ele>199.2998</ele>
        <time>2026-05-18T11:13:40+02:00</time>
      </trkpt>
      <trkpt lat="48.66823" lon="6.21249">
        <ele>198.7998</ele>
        <time>2026-05-18T11:13:41+02:00</time>
      </trkpt>
      <trkpt lat="48.66826" lon="6.21243">
        <ele>199.2998</ele>
        <time>2026-05-18T11:13:42+02:00</time>
      </trkpt>
      <trkpt lat="48.66829" lon="6.21236">
        <ele>198.60059</ele>
        <time>2026-05-18T11:13:43+02:00</time>
      </trkpt>
      <trkpt lat="48.66832" lon="6.21229">
        <ele>198.7002</ele>
        <time>2026-05-18T11:13:44+02:00</time>
      </trkpt>
      <trkpt lat="48.66836" lon="6.21223">
        <ele>199</ele>
        <time>2026-05-18T11:13:45+02:00</time>
      </trkpt>
      <trkpt lat="48.66839" lon="6.21216">
        <ele>198.5</ele>
        <time>2026-05-18T11:13:46+02:00</time>
      </trkpt>
      <trkpt lat="48.66842" lon="6.2121">
        <ele>199</ele>
        <time>2026-05-18T11:13:47+02:00</time>
      </trkpt>
      <trkpt lat="48.66845" lon="6.21203">
        <ele>198.2998</ele>
        <time>2026-05-18T11:13:48+02:00</time>
      </trkpt>
      <trkpt lat="48.66849" lon="6.21197">
        <ele>198.2998</ele>
        <time>2026-05-18T11:13:49+02:00</time>
      </trkpt>
      <trkpt lat="48.66852" lon="6.21191">
        <ele>198.5</ele>
        <time>2026-05-18T11:13:50+02:00</time>
      </trkpt>
      <trkpt lat="48.66855" lon="6.21184">
        <ele>198.5</ele>
        <time>2026-05-18T11:13:51+02:00</time>
      </trkpt>
      <trkpt lat="48.66858" lon="6.21178">
        <ele>198.7002</ele>
        <time>2026-05-18T11:13:52+02:00</time>
      </trkpt>
      <trkpt lat="48.66862" lon="6.21171">
        <ele>198.10059</ele>
        <time>2026-05-18T11:13:53+02:00</time>
      </trkpt>
      <trkpt lat="48.66865" lon="6.21165">
        <ele>198</ele>
        <time>2026-05-18T11:13:54+02:00</time>
      </trkpt>
      <trkpt lat="48.66869" lon="6.21158">
        <ele>198.5</ele>
        <time>2026-05-18T11:13:55+02:00</time>
      </trkpt>
      <trkpt lat="48.66872" lon="6.21152">
        <ele>198.10059</ele>
        <time>2026-05-18T11:13:56+02:00</time>
      </trkpt>
      <trkpt lat="48.66876" lon="6.21146">
        <ele>198.2998</ele>
        <time>2026-05-18T11:13:57+02:00</time>
      </trkpt>
      <trkpt lat="48.66879" lon="6.2114">
        <ele>198.2998</ele>
        <time>2026-05-18T11:13:58+02:00</time>
      </trkpt>
      <trkpt lat="48.66882" lon="6.21134">
        <ele>198.2998</ele>
        <time>2026-05-18T11:13:59+02:00</time>
      </trkpt>
      <trkpt lat="48.66886" lon="6.21127">
        <ele>198.2002</ele>
        <time>2026-05-18T11:14:00+02:00</time>
      </trkpt>
      <trkpt lat="48.66889" lon="6.21121">
        <ele>197.7998</ele>
        <time>2026-05-18T11:14:01+02:00</time>
      </trkpt>
      <trkpt lat="48.66893" lon="6.21115">
        <ele>198.2002</ele>
        <time>2026-05-18T11:14:02+02:00</time>
      </trkpt>
      <trkpt lat="48.66896" lon="6.21109">
        <ele>197.90039</ele>
        <time>2026-05-18T11:14:03+02:00</time>
      </trkpt>
      <trkpt lat="48.669" lon="6.21103">
        <ele>198</ele>
        <time>2026-05-18T11:14:04+02:00</time>
      </trkpt>
      <trkpt lat="48.66903" lon="6.21097">
        <ele>198.40039</ele>
        <time>2026-05-18T11:14:05+02:00</time>
      </trkpt>
      <trkpt lat="48.66906" lon="6.21091">
        <ele>197.90039</ele>
        <time>2026-05-18T11:14:06+02:00</time>
      </trkpt>
      <trkpt lat="48.6691" lon="6.21085">
        <ele>197.90039</ele>
        <time>2026-05-18T11:14:07+02:00</time>
      </trkpt>
      <trkpt lat="48.66913" lon="6.21078">
        <ele>197.7002</ele>
        <time>2026-05-18T11:14:08+02:00</time>
      </trkpt>
      <trkpt lat="48.66917" lon="6.21072">
        <ele>198</ele>
        <time>2026-05-18T11:14:09+02:00</time>
      </trkpt>
      <trkpt lat="48.66921" lon="6.21066">
        <ele>198.10059</ele>
        <time>2026-05-18T11:14:10+02:00</time>
      </trkpt>
      <trkpt lat="48.66924" lon="6.2106">
        <ele>197.7002</ele>
        <time>2026-05-18T11:14:11+02:00</time>
      </trkpt>
      <trkpt lat="48.66928" lon="6.21054">
        <ele>198</ele>
        <time>2026-05-18T11:14:12+02:00</time>
      </trkpt>
      <trkpt lat="48.66931" lon="6.21048">
        <ele>197.7998</ele>
        <time>2026-05-18T11:14:13+02:00</time>
      </trkpt>
      <trkpt lat="48.66935" lon="6.21042">
        <ele>197.7998</ele>
        <time>2026-05-18T11:14:14+02:00</time>
      </trkpt>
      <trkpt lat="48.66938" lon="6.21036">
        <ele>197.90039</ele>
        <time>2026-05-18T11:14:15+02:00</time>
      </trkpt>
      <trkpt lat="48.66942" lon="6.21031">
        <ele>197.90039</ele>
        <time>2026-05-18T11:14:16+02:00</time>
      </trkpt>
      <trkpt lat="48.66945" lon="6.21025">
        <ele>197.7998</ele>
        <time>2026-05-18T11:14:17+02:00</time>
      </trkpt>
      <trkpt lat="48.66947" lon="6.21022">
        <ele>197.7998</ele>
        <time>2026-05-18T11:14:18+02:00</time>
      </trkpt>
      <trkpt lat="48.66952" lon="6.21014">
        <ele>197.90039</ele>
        <time>2026-05-18T11:14:19+02:00</time>
      </trkpt>
      <trkpt lat="48.66956" lon="6.21009">
        <ele>198.10059</ele>
        <time>2026-05-18T11:14:20+02:00</time>
      </trkpt>
      <trkpt lat="48.66959" lon="6.21004">
        <ele>198.10059</ele>
        <time>2026-05-18T11:14:21+02:00</time>
      </trkpt>
      <trkpt lat="48.66963" lon="6.20998">
        <ele>198.40039</ele>
        <time>2026-05-18T11:14:22+02:00</time>
      </trkpt>
      <trkpt lat="48.66966" lon="6.20993">
        <ele>198.2002</ele>
        <time>2026-05-18T11:14:23+02:00</time>
      </trkpt>
      <trkpt lat="48.66969" lon="6.20987">
        <ele>198.2002</ele>
        <time>2026-05-18T11:14:24+02:00</time>
      </trkpt>
      <trkpt lat="48.66973" lon="6.20982">
        <ele>197.90039</ele>
        <time>2026-05-18T11:14:25+02:00</time>
      </trkpt>
      <trkpt lat="48.66976" lon="6.20976">
        <ele>198</ele>
        <time>2026-05-18T11:14:26+02:00</time>
      </trkpt>
      <trkpt lat="48.6698" lon="6.20971">
        <ele>198.10059</ele>
        <time>2026-05-18T11:14:27+02:00</time>
      </trkpt>
      <trkpt lat="48.66983" lon="6.20966">
        <ele>198.2998</ele>
        <time>2026-05-18T11:14:28+02:00</time>
      </trkpt>
      <trkpt lat="48.66987" lon="6.20961">
        <ele>198.2998</ele>
        <time>2026-05-18T11:14:29+02:00</time>
      </trkpt>
      <trkpt lat="48.6699" lon="6.20957">
        <ele>198.2002</ele>
        <time>2026-05-18T11:14:30+02:00</time>
      </trkpt>
      <trkpt lat="48.66993" lon="6.20951">
        <ele>198.2002</ele>
        <time>2026-05-18T11:14:31+02:00</time>
      </trkpt>
      <trkpt lat="48.66996" lon="6.20947">
        <ele>197.90039</ele>
        <time>2026-05-18T11:14:32+02:00</time>
      </trkpt>
      <trkpt lat="48.67" lon="6.20942">
        <ele>197.7998</ele>
        <time>2026-05-18T11:14:33+02:00</time>
      </trkpt>
      <trkpt lat="48.67003" lon="6.20937">
        <ele>197.7998</ele>
        <time>2026-05-18T11:14:34+02:00</time>
      </trkpt>
      <trkpt lat="48.67006" lon="6.20932">
        <ele>197.7998</ele>
        <time>2026-05-18T11:14:35+02:00</time>
      </trkpt>
      <trkpt lat="48.6701" lon="6.20927">
        <ele>197.7998</ele>
        <time>2026-05-18T11:14:36+02:00</time>
      </trkpt>
      <trkpt lat="48.67013" lon="6.20922">
        <ele>197.7998</ele>
        <time>2026-05-18T11:14:37+02:00</time>
      </trkpt>
      <trkpt lat="48.67016" lon="6.20918">
        <ele>197.7998</ele>
        <time>2026-05-18T11:14:38+02:00</time>
      </trkpt>
      <trkpt lat="48.67019" lon="6.20914">
        <ele>197.7002</ele>
        <time>2026-05-18T11:14:39+02:00</time>
      </trkpt>
      <trkpt lat="48.67022" lon="6.20911">
        <ele>197.60059</ele>
        <time>2026-05-18T11:14:40+02:00</time>
      </trkpt>
      <trkpt lat="48.67024" lon="6.20908">
        <ele>197.60059</ele>
        <time>2026-05-18T11:14:41+02:00</time>
      </trkpt>
      <trkpt lat="48.67025" lon="6.20907">
        <ele>197.7998</ele>
        <time>2026-05-18T11:14:42+02:00</time>
      </trkpt>
      <trkpt lat="48.67029" lon="6.20903">
        <ele>197.7002</ele>
        <time>2026-05-18T11:14:43+02:00</time>
      </trkpt>
      <trkpt lat="48.67031" lon="6.20899">
        <ele>197.7998</ele>
        <time>2026-05-18T11:14:44+02:00</time>
      </trkpt>
      <trkpt lat="48.67034" lon="6.20896">
        <ele>197.7002</ele>
        <time>2026-05-18T11:14:45+02:00</time>
      </trkpt>
      <trkpt lat="48.67037" lon="6.20892">
        <ele>197.7002</ele>
        <time>2026-05-18T11:14:46+02:00</time>
      </trkpt>
      <trkpt lat="48.6704" lon="6.20887">
        <ele>197.60059</ele>
        <time>2026-05-18T11:14:47+02:00</time>
      </trkpt>
      <trkpt lat="48.67043" lon="6.20883">
        <ele>197.60059</ele>
        <time>2026-05-18T11:14:48+02:00</time>
      </trkpt>
      <trkpt lat="48.67046" lon="6.20879">
        <ele>197.60059</ele>
        <time>2026-05-18T11:14:49+02:00</time>
      </trkpt>
      <trkpt lat="48.67049" lon="6.20875">
        <ele>197.60059</ele>
        <time>2026-05-18T11:14:50+02:00</time>
      </trkpt>
      <trkpt lat="48.67052" lon="6.2087">
        <ele>197.7002</ele>
        <time>2026-05-18T11:14:51+02:00</time>
      </trkpt>
      <trkpt lat="48.67055" lon="6.20866">
        <ele>197.7002</ele>
        <time>2026-05-18T11:14:52+02:00</time>
      </trkpt>
      <trkpt lat="48.67058" lon="6.20862">
        <ele>197.7002</ele>
        <time>2026-05-18T11:14:53+02:00</time>
      </trkpt>
      <trkpt lat="48.67062" lon="6.20857">
        <ele>198</ele>
        <time>2026-05-18T11:14:54+02:00</time>
      </trkpt>
      <trkpt lat="48.67065" lon="6.20853">
        <ele>197.60059</ele>
        <time>2026-05-18T11:14:55+02:00</time>
      </trkpt>
      <trkpt lat="48.67068" lon="6.20848">
        <ele>197.90039</ele>
        <time>2026-05-18T11:14:56+02:00</time>
      </trkpt>
      <trkpt lat="48.67072" lon="6.20843">
        <ele>197.7002</ele>
        <time>2026-05-18T11:14:57+02:00</time>
      </trkpt>
      <trkpt lat="48.67075" lon="6.20839">
        <ele>197.7002</ele>
        <time>2026-05-18T11:14:58+02:00</time>
      </trkpt>
      <trkpt lat="48.67079" lon="6.20835">
        <ele>197.90039</ele>
        <time>2026-05-18T11:14:59+02:00</time>
      </trkpt>
      <trkpt lat="48.67082" lon="6.20831">
        <ele>197.90039</ele>
        <time>2026-05-18T11:15:00+02:00</time>
      </trkpt>
      <trkpt lat="48.67086" lon="6.20827">
        <ele>198</ele>
        <time>2026-05-18T11:15:01+02:00</time>
      </trkpt>
      <trkpt lat="48.6709" lon="6.20824">
        <ele>198</ele>
        <time>2026-05-18T11:15:02+02:00</time>
      </trkpt>
      <trkpt lat="48.67095" lon="6.20821">
        <ele>198</ele>
        <time>2026-05-18T11:15:03+02:00</time>
      </trkpt>
      <trkpt lat="48.67097" lon="6.20819">
        <ele>198.5</ele>
        <time>2026-05-18T11:15:04+02:00</time>
      </trkpt>
      <trkpt lat="48.67103" lon="6.20814">
        <ele>199</ele>
        <time>2026-05-18T11:15:05+02:00</time>
      </trkpt>
      <trkpt lat="48.67108" lon="6.20811">
        <ele>199</ele>
        <time>2026-05-18T11:15:06+02:00</time>
      </trkpt>
      <trkpt lat="48.67112" lon="6.20809">
        <ele>199</ele>
        <time>2026-05-18T11:15:07+02:00</time>
      </trkpt>
      <trkpt lat="48.67117" lon="6.20806">
        <ele>199.7998</ele>
        <time>2026-05-18T11:15:08+02:00</time>
      </trkpt>
      <trkpt lat="48.67121" lon="6.20802">
        <ele>200.2002</ele>
        <time>2026-05-18T11:15:09+02:00</time>
      </trkpt>
      <trkpt lat="48.67125" lon="6.20798">
        <ele>200.7998</ele>
        <time>2026-05-18T11:15:10+02:00</time>
      </trkpt>
      <trkpt lat="48.67129" lon="6.20794">
        <ele>200.40039</ele>
        <time>2026-05-18T11:15:11+02:00</time>
      </trkpt>
      <trkpt lat="48.67132" lon="6.20789">
        <ele>200.60059</ele>
        <time>2026-05-18T11:15:12+02:00</time>
      </trkpt>
      <trkpt lat="48.67136" lon="6.20785">
        <ele>200.40039</ele>
        <time>2026-05-18T11:15:13+02:00</time>
      </trkpt>
      <trkpt lat="48.6714" lon="6.2078">
        <ele>200.40039</ele>
        <time>2026-05-18T11:15:14+02:00</time>
      </trkpt>
      <trkpt lat="48.67143" lon="6.20775">
        <ele>200.60059</ele>
        <time>2026-05-18T11:15:15+02:00</time>
      </trkpt>
      <trkpt lat="48.67147" lon="6.20769">
        <ele>200.7002</ele>
        <time>2026-05-18T11:15:16+02:00</time>
      </trkpt>
      <trkpt lat="48.67151" lon="6.20764">
        <ele>200.7002</ele>
        <time>2026-05-18T11:15:17+02:00</time>
      </trkpt>
      <trkpt lat="48.67154" lon="6.20759">
        <ele>200.60059</ele>
        <time>2026-05-18T11:15:18+02:00</time>
      </trkpt>
      <trkpt lat="48.67158" lon="6.20754">
        <ele>200.7998</ele>
        <time>2026-05-18T11:15:19+02:00</time>
      </trkpt>
      <trkpt lat="48.67162" lon="6.20749">
        <ele>200.40039</ele>
        <time>2026-05-18T11:15:20+02:00</time>
      </trkpt>
      <trkpt lat="48.67166" lon="6.20744">
        <ele>200.40039</ele>
        <time>2026-05-18T11:15:21+02:00</time>
      </trkpt>
      <trkpt lat="48.6717" lon="6.2074">
        <ele>200.7002</ele>
        <time>2026-05-18T11:15:22+02:00</time>
      </trkpt>
      <trkpt lat="48.67173" lon="6.20735">
        <ele>200.2998</ele>
        <time>2026-05-18T11:15:23+02:00</time>
      </trkpt>
      <trkpt lat="48.67177" lon="6.20729">
        <ele>200.5</ele>
        <time>2026-05-18T11:15:24+02:00</time>
      </trkpt>
      <trkpt lat="48.6718" lon="6.20724">
        <ele>200</ele>
        <time>2026-05-18T11:15:25+02:00</time>
      </trkpt>
      <trkpt lat="48.67184" lon="6.20718">
        <ele>199.5</ele>
        <time>2026-05-18T11:15:26+02:00</time>
      </trkpt>
      <trkpt lat="48.67187" lon="6.20712">
        <ele>199.7002</ele>
        <time>2026-05-18T11:15:27+02:00</time>
      </trkpt>
      <trkpt lat="48.67191" lon="6.20706">
        <ele>199</ele>
        <time>2026-05-18T11:15:28+02:00</time>
      </trkpt>
      <trkpt lat="48.67194" lon="6.207">
        <ele>198.7002</ele>
        <time>2026-05-18T11:15:29+02:00</time>
      </trkpt>
      <trkpt lat="48.67198" lon="6.20695">
        <ele>199.2002</ele>
        <time>2026-05-18T11:15:30+02:00</time>
      </trkpt>
      <trkpt lat="48.67202" lon="6.20689">
        <ele>198.7998</ele>
        <time>2026-05-18T11:15:31+02:00</time>
      </trkpt>
      <trkpt lat="48.67206" lon="6.20683">
        <ele>198.90039</ele>
        <time>2026-05-18T11:15:32+02:00</time>
      </trkpt>
      <trkpt lat="48.67209" lon="6.20678">
        <ele>198.90039</ele>
        <time>2026-05-18T11:15:33+02:00</time>
      </trkpt>
      <trkpt lat="48.67212" lon="6.20672">
        <ele>198.7998</ele>
        <time>2026-05-18T11:15:34+02:00</time>
      </trkpt>
      <trkpt lat="48.67215" lon="6.20668">
        <ele>199.2002</ele>
        <time>2026-05-18T11:15:35+02:00</time>
      </trkpt>
      <trkpt lat="48.67219" lon="6.20664">
        <ele>198.7002</ele>
        <time>2026-05-18T11:15:36+02:00</time>
      </trkpt>
      <trkpt lat="48.67221" lon="6.2066">
        <ele>199.2002</ele>
        <time>2026-05-18T11:15:37+02:00</time>
      </trkpt>
      <trkpt lat="48.67223" lon="6.20656">
        <ele>198.7998</ele>
        <time>2026-05-18T11:15:38+02:00</time>
      </trkpt>
      <trkpt lat="48.67225" lon="6.20653">
        <ele>198.7998</ele>
        <time>2026-05-18T11:15:39+02:00</time>
      </trkpt>
      <trkpt lat="48.67228" lon="6.2065">
        <ele>198.90039</ele>
        <time>2026-05-18T11:15:40+02:00</time>
      </trkpt>
      <trkpt lat="48.67232" lon="6.20646">
        <ele>199.2002</ele>
        <time>2026-05-18T11:15:41+02:00</time>
      </trkpt>
      <trkpt lat="48.67235" lon="6.20642">
        <ele>199.2002</ele>
        <time>2026-05-18T11:15:42+02:00</time>
      </trkpt>
      <trkpt lat="48.67239" lon="6.20637">
        <ele>199.10059</ele>
        <time>2026-05-18T11:15:43+02:00</time>
      </trkpt>
      <trkpt lat="48.67243" lon="6.20631">
        <ele>198.7002</ele>
        <time>2026-05-18T11:15:44+02:00</time>
      </trkpt>
      <trkpt lat="48.67248" lon="6.20625">
        <ele>199.10059</ele>
        <time>2026-05-18T11:15:45+02:00</time>
      </trkpt>
      <trkpt lat="48.67252" lon="6.2062">
        <ele>199.2002</ele>
        <time>2026-05-18T11:15:46+02:00</time>
      </trkpt>
      <trkpt lat="48.67257" lon="6.20614">
        <ele>199.10059</ele>
        <time>2026-05-18T11:15:47+02:00</time>
      </trkpt>
      <trkpt lat="48.67261" lon="6.20609">
        <ele>199.2998</ele>
        <time>2026-05-18T11:15:48+02:00</time>
      </trkpt>
      <trkpt lat="48.67265" lon="6.20603">
        <ele>199</ele>
        <time>2026-05-18T11:15:49+02:00</time>
      </trkpt>
      <trkpt lat="48.67269" lon="6.20597">
        <ele>199</ele>
        <time>2026-05-18T11:15:50+02:00</time>
      </trkpt>
      <trkpt lat="48.67273" lon="6.20592">
        <ele>199.2998</ele>
        <time>2026-05-18T11:15:51+02:00</time>
      </trkpt>
      <trkpt lat="48.67277" lon="6.20587">
        <ele>199.2002</ele>
        <time>2026-05-18T11:15:52+02:00</time>
      </trkpt>
      <trkpt lat="48.67278" lon="6.20585">
        <ele>199.2002</ele>
        <time>2026-05-18T11:15:53+02:00</time>
      </trkpt>
      <trkpt lat="48.67283" lon="6.20578">
        <ele>199.2002</ele>
        <time>2026-05-18T11:15:54+02:00</time>
      </trkpt>
      <trkpt lat="48.67286" lon="6.20573">
        <ele>198.90039</ele>
        <time>2026-05-18T11:15:55+02:00</time>
      </trkpt>
      <trkpt lat="48.67288" lon="6.20567">
        <ele>198.90039</ele>
        <time>2026-05-18T11:15:56+02:00</time>
      </trkpt>
      <trkpt lat="48.6729" lon="6.20562">
        <ele>199</ele>
        <time>2026-05-18T11:15:57+02:00</time>
      </trkpt>
      <trkpt lat="48.67293" lon="6.20556">
        <ele>199</ele>
        <time>2026-05-18T11:15:58+02:00</time>
      </trkpt>
      <trkpt lat="48.67296" lon="6.2055">
        <ele>199.2002</ele>
        <time>2026-05-18T11:15:59+02:00</time>
      </trkpt>
      <trkpt lat="48.67299" lon="6.20545">
        <ele>199</ele>
        <time>2026-05-18T11:16:00+02:00</time>
      </trkpt>
      <trkpt lat="48.67302" lon="6.20539">
        <ele>199.10059</ele>
        <time>2026-05-18T11:16:01+02:00</time>
      </trkpt>
      <trkpt lat="48.67305" lon="6.20534">
        <ele>198.90039</ele>
        <time>2026-05-18T11:16:02+02:00</time>
      </trkpt>
      <trkpt lat="48.67309" lon="6.20528">
        <ele>198.7002</ele>
        <time>2026-05-18T11:16:03+02:00</time>
      </trkpt>
      <trkpt lat="48.67312" lon="6.20523">
        <ele>199.10059</ele>
        <time>2026-05-18T11:16:04+02:00</time>
      </trkpt>
      <trkpt lat="48.67315" lon="6.20519">
        <ele>199</ele>
        <time>2026-05-18T11:16:05+02:00</time>
      </trkpt>
      <trkpt lat="48.67319" lon="6.20514">
        <ele>199.2998</ele>
        <time>2026-05-18T11:16:06+02:00</time>
      </trkpt>
      <trkpt lat="48.67323" lon="6.2051">
        <ele>199.2002</ele>
        <time>2026-05-18T11:16:07+02:00</time>
      </trkpt>
      <trkpt lat="48.67325" lon="6.20507">
        <ele>199.2002</ele>
        <time>2026-05-18T11:16:08+02:00</time>
      </trkpt>
      <trkpt lat="48.67331" lon="6.205">
        <ele>199.2002</ele>
        <time>2026-05-18T11:16:09+02:00</time>
      </trkpt>
      <trkpt lat="48.67334" lon="6.20495">
        <ele>199.2002</ele>
        <time>2026-05-18T11:16:10+02:00</time>
      </trkpt>
      <trkpt lat="48.67339" lon="6.20491">
        <ele>199.2002</ele>
        <time>2026-05-18T11:16:11+02:00</time>
      </trkpt>
      <trkpt lat="48.67343" lon="6.20486">
        <ele>199.2998</ele>
        <time>2026-05-18T11:16:12+02:00</time>
      </trkpt>
      <trkpt lat="48.67346" lon="6.20481">
        <ele>199.40039</ele>
        <time>2026-05-18T11:16:13+02:00</time>
      </trkpt>
      <trkpt lat="48.67351" lon="6.20476">
        <ele>199.2998</ele>
        <time>2026-05-18T11:16:14+02:00</time>
      </trkpt>
      <trkpt lat="48.67355" lon="6.20471">
        <ele>199.2998</ele>
        <time>2026-05-18T11:16:15+02:00</time>
      </trkpt>
      <trkpt lat="48.67359" lon="6.20466">
        <ele>199.10059</ele>
        <time>2026-05-18T11:16:16+02:00</time>
      </trkpt>
      <trkpt lat="48.67363" lon="6.20461">
        <ele>198.90039</ele>
        <time>2026-05-18T11:16:17+02:00</time>
      </trkpt>
      <trkpt lat="48.67367" lon="6.20456">
        <ele>198.90039</ele>
        <time>2026-05-18T11:16:18+02:00</time>
      </trkpt>
      <trkpt lat="48.67371" lon="6.20451">
        <ele>198.7002</ele>
        <time>2026-05-18T11:16:19+02:00</time>
      </trkpt>
      <trkpt lat="48.67376" lon="6.20447">
        <ele>199</ele>
        <time>2026-05-18T11:16:20+02:00</time>
      </trkpt>
      <trkpt lat="48.6738" lon="6.20442">
        <ele>199</ele>
        <time>2026-05-18T11:16:21+02:00</time>
      </trkpt>
      <trkpt lat="48.67385" lon="6.20437">
        <ele>199.2998</ele>
        <time>2026-05-18T11:16:22+02:00</time>
      </trkpt>
      <trkpt lat="48.67389" lon="6.20433">
        <ele>199</ele>
        <time>2026-05-18T11:16:23+02:00</time>
      </trkpt>
      <trkpt lat="48.67394" lon="6.20429">
        <ele>199.2002</ele>
        <time>2026-05-18T11:16:24+02:00</time>
      </trkpt>
      <trkpt lat="48.67399" lon="6.20424">
        <ele>198.90039</ele>
        <time>2026-05-18T11:16:25+02:00</time>
      </trkpt>
      <trkpt lat="48.67403" lon="6.2042">
        <ele>199.2002</ele>
        <time>2026-05-18T11:16:26+02:00</time>
      </trkpt>
      <trkpt lat="48.67408" lon="6.20417">
        <ele>198.7998</ele>
        <time>2026-05-18T11:16:27+02:00</time>
      </trkpt>
      <trkpt lat="48.67413" lon="6.20413">
        <ele>198.7998</ele>
        <time>2026-05-18T11:16:28+02:00</time>
      </trkpt>
      <trkpt lat="48.67417" lon="6.20409">
        <ele>198.60059</ele>
        <time>2026-05-18T11:16:29+02:00</time>
      </trkpt>
      <trkpt lat="48.67422" lon="6.20404">
        <ele>199.10059</ele>
        <time>2026-05-18T11:16:30+02:00</time>
      </trkpt>
      <trkpt lat="48.67426" lon="6.204">
        <ele>199.10059</ele>
        <time>2026-05-18T11:16:31+02:00</time>
      </trkpt>
      <trkpt lat="48.6743" lon="6.20396">
        <ele>199.40039</ele>
        <time>2026-05-18T11:16:32+02:00</time>
      </trkpt>
      <trkpt lat="48.67434" lon="6.20392">
        <ele>198.90039</ele>
        <time>2026-05-18T11:16:33+02:00</time>
      </trkpt>
      <trkpt lat="48.67439" lon="6.20388">
        <ele>199.10059</ele>
        <time>2026-05-18T11:16:34+02:00</time>
      </trkpt>
      <trkpt lat="48.67444" lon="6.20384">
        <ele>198.5</ele>
        <time>2026-05-18T11:16:35+02:00</time>
      </trkpt>
      <trkpt lat="48.67448" lon="6.2038">
        <ele>198.7998</ele>
        <time>2026-05-18T11:16:36+02:00</time>
      </trkpt>
      <trkpt lat="48.67453" lon="6.20376">
        <ele>199.10059</ele>
        <time>2026-05-18T11:16:37+02:00</time>
      </trkpt>
      <trkpt lat="48.67457" lon="6.20372">
        <ele>198.5</ele>
        <time>2026-05-18T11:16:38+02:00</time>
      </trkpt>
      <trkpt lat="48.67462" lon="6.20368">
        <ele>199.10059</ele>
        <time>2026-05-18T11:16:39+02:00</time>
      </trkpt>
      <trkpt lat="48.67467" lon="6.20364">
        <ele>199.2998</ele>
        <time>2026-05-18T11:16:40+02:00</time>
      </trkpt>
      <trkpt lat="48.67471" lon="6.2036">
        <ele>199.60059</ele>
        <time>2026-05-18T11:16:41+02:00</time>
      </trkpt>
      <trkpt lat="48.67476" lon="6.20357">
        <ele>199.2002</ele>
        <time>2026-05-18T11:16:42+02:00</time>
      </trkpt>
      <trkpt lat="48.67481" lon="6.20353">
        <ele>199.2002</ele>
        <time>2026-05-18T11:16:43+02:00</time>
      </trkpt>
      <trkpt lat="48.67486" lon="6.20349">
        <ele>198.60059</ele>
        <time>2026-05-18T11:16:44+02:00</time>
      </trkpt>
      <trkpt lat="48.67491" lon="6.20346">
        <ele>198.60059</ele>
        <time>2026-05-18T11:16:45+02:00</time>
      </trkpt>
      <trkpt lat="48.67495" lon="6.20342">
        <ele>198.60059</ele>
        <time>2026-05-18T11:16:46+02:00</time>
      </trkpt>
      <trkpt lat="48.67499" lon="6.20338">
        <ele>198.2002</ele>
        <time>2026-05-18T11:16:47+02:00</time>
      </trkpt>
      <trkpt lat="48.67503" lon="6.20334">
        <ele>198.2002</ele>
        <time>2026-05-18T11:16:48+02:00</time>
      </trkpt>
      <trkpt lat="48.67507" lon="6.20331">
        <ele>197.7998</ele>
        <time>2026-05-18T11:16:49+02:00</time>
      </trkpt>
      <trkpt lat="48.67511" lon="6.20327">
        <ele>197.90039</ele>
        <time>2026-05-18T11:16:50+02:00</time>
      </trkpt>
      <trkpt lat="48.67516" lon="6.20326">
        <ele>198</ele>
        <time>2026-05-18T11:16:51+02:00</time>
      </trkpt>
      <trkpt lat="48.6752" lon="6.20326">
        <ele>198</ele>
        <time>2026-05-18T11:16:52+02:00</time>
      </trkpt>
      <trkpt lat="48.67523" lon="6.20328">
        <ele>198.2998</ele>
        <time>2026-05-18T11:16:53+02:00</time>
      </trkpt>
      <trkpt lat="48.67526" lon="6.20331">
        <ele>198.2998</ele>
        <time>2026-05-18T11:16:54+02:00</time>
      </trkpt>
      <trkpt lat="48.67529" lon="6.20334">
        <ele>199</ele>
        <time>2026-05-18T11:16:55+02:00</time>
      </trkpt>
      <trkpt lat="48.67532" lon="6.20338">
        <ele>199</ele>
        <time>2026-05-18T11:16:56+02:00</time>
      </trkpt>
      <trkpt lat="48.67534" lon="6.20343">
        <ele>199.5</ele>
        <time>2026-05-18T11:16:57+02:00</time>
      </trkpt>
      <trkpt lat="48.67536" lon="6.20347">
        <ele>199.5</ele>
        <time>2026-05-18T11:16:58+02:00</time>
      </trkpt>
      <trkpt lat="48.67538" lon="6.20352">
        <ele>199.90039</ele>
        <time>2026-05-18T11:16:59+02:00</time>
      </trkpt>
      <trkpt lat="48.67539" lon="6.20357">
        <ele>199.90039</ele>
        <time>2026-05-18T11:17:00+02:00</time>
      </trkpt>
      <trkpt lat="48.67541" lon="6.20361">
        <ele>200.10059</ele>
        <time>2026-05-18T11:17:01+02:00</time>
      </trkpt>
      <trkpt lat="48.67542" lon="6.20362">
        <ele>200.10059</ele>
        <time>2026-05-18T11:17:02+02:00</time>
      </trkpt>
      <trkpt lat="48.67544" lon="6.20361">
        <ele>200.10059</ele>
        <time>2026-05-18T11:17:03+02:00</time>
      </trkpt>
      <trkpt lat="48.67544" lon="6.20359">
        <ele>200.10059</ele>
        <time>2026-05-18T11:17:04+02:00</time>
      </trkpt>
      <trkpt lat="48.67544" lon="6.20356">
        <ele>199.90039</ele>
        <time>2026-05-18T11:17:05+02:00</time>
      </trkpt>
      <trkpt lat="48.67545" lon="6.20353">
        <ele>199.90039</ele>
        <time>2026-05-18T11:17:06+02:00</time>
      </trkpt>
      <trkpt lat="48.67547" lon="6.20349">
        <ele>199.7002</ele>
        <time>2026-05-18T11:17:07+02:00</time>
      </trkpt>
      <trkpt lat="48.67549" lon="6.20345">
        <ele>199.7998</ele>
        <time>2026-05-18T11:17:08+02:00</time>
      </trkpt>
      <trkpt lat="48.67551" lon="6.20341">
        <ele>199.5</ele>
        <time>2026-05-18T11:17:09+02:00</time>
      </trkpt>
      <trkpt lat="48.67553" lon="6.20336">
        <ele>199.5</ele>
        <time>2026-05-18T11:17:10+02:00</time>
      </trkpt>
      <trkpt lat="48.67556" lon="6.20332">
        <ele>199.2002</ele>
        <time>2026-05-18T11:17:11+02:00</time>
      </trkpt>
      <trkpt lat="48.67558" lon="6.20327">
        <ele>199.2002</ele>
        <time>2026-05-18T11:17:12+02:00</time>
      </trkpt>
      <trkpt lat="48.67561" lon="6.20322">
        <ele>199</ele>
        <time>2026-05-18T11:17:13+02:00</time>
      </trkpt>
      <trkpt lat="48.67563" lon="6.20317">
        <ele>199</ele>
        <time>2026-05-18T11:17:14+02:00</time>
      </trkpt>
      <trkpt lat="48.67566" lon="6.20312">
        <ele>198.60059</ele>
        <time>2026-05-18T11:17:15+02:00</time>
      </trkpt>
      <trkpt lat="48.67568" lon="6.20307">
        <ele>198.7002</ele>
        <time>2026-05-18T11:17:16+02:00</time>
      </trkpt>
      <trkpt lat="48.6757" lon="6.20302">
        <ele>198.2998</ele>
        <time>2026-05-18T11:17:17+02:00</time>
      </trkpt>
      <trkpt lat="48.6757" lon="6.20296">
        <ele>198</ele>
        <time>2026-05-18T11:17:18+02:00</time>
      </trkpt>
      <trkpt lat="48.67569" lon="6.20292">
        <ele>198</ele>
        <time>2026-05-18T11:17:19+02:00</time>
      </trkpt>
      <trkpt lat="48.67569" lon="6.20287">
        <ele>197.7998</ele>
        <time>2026-05-18T11:17:20+02:00</time>
      </trkpt>
      <trkpt lat="48.67568" lon="6.20283">
        <ele>197.7998</ele>
        <time>2026-05-18T11:17:21+02:00</time>
      </trkpt>
      <trkpt lat="48.67566" lon="6.20278">
        <ele>197.7998</ele>
        <time>2026-05-18T11:17:22+02:00</time>
      </trkpt>
      <trkpt lat="48.67565" lon="6.20273">
        <ele>197.7998</ele>
        <time>2026-05-18T11:17:23+02:00</time>
      </trkpt>
      <trkpt lat="48.67564" lon="6.20268">
        <ele>198</ele>
        <time>2026-05-18T11:17:24+02:00</time>
      </trkpt>
      <trkpt lat="48.67563" lon="6.20263">
        <ele>198.2002</ele>
        <time>2026-05-18T11:17:25+02:00</time>
      </trkpt>
      <trkpt lat="48.67562" lon="6.2026">
        <ele>198.2002</ele>
        <time>2026-05-18T11:17:26+02:00</time>
      </trkpt>
      <trkpt lat="48.67561" lon="6.20257">
        <ele>198.2002</ele>
        <time>2026-05-18T11:17:27+02:00</time>
      </trkpt>
      <trkpt lat="48.67561" lon="6.20256">
        <ele>198.2002</ele>
        <time>2026-05-18T11:17:28+02:00</time>
      </trkpt>
      <trkpt lat="48.67561" lon="6.20256">
        <ele>198.2002</ele>
        <time>2026-05-18T11:17:29+02:00</time>
      </trkpt>
      <trkpt lat="48.67561" lon="6.20256">
        <ele>198.2002</ele>
        <time>2026-05-18T11:17:30+02:00</time>
      </trkpt>
      <trkpt lat="48.67561" lon="6.20256">
        <ele>198.2002</ele>
        <time>2026-05-18T11:17:31+02:00</time>
      </trkpt>
      <trkpt lat="48.6755" lon="6.20257">
        <ele>198.5</ele>
        <time>2026-05-18T11:17:57+02:00</time>
      </trkpt>
      <trkpt lat="48.67548" lon="6.20258">
        <ele>198.60059</ele>
        <time>2026-05-18T11:17:58+02:00</time>
      </trkpt>
      <trkpt lat="48.67546" lon="6.20259">
        <ele>198.60059</ele>
        <time>2026-05-18T11:17:59+02:00</time>
      </trkpt>
      <trkpt lat="48.67544" lon="6.20261">
        <ele>198.60059</ele>
        <time>2026-05-18T11:18:00+02:00</time>
      </trkpt>
      <trkpt lat="48.67543" lon="6.20262">
        <ele>198.7002</ele>
        <time>2026-05-18T11:18:01+02:00</time>
      </trkpt>
      <trkpt lat="48.67542" lon="6.20261">
        <ele>198.7002</ele>
        <time>2026-05-18T11:18:02+02:00</time>
      </trkpt>
      <trkpt lat="48.67541" lon="6.2026">
        <ele>198.7002</ele>
        <time>2026-05-18T11:18:03+02:00</time>
      </trkpt>
      <trkpt lat="48.67542" lon="6.20258">
        <ele>198.7002</ele>
        <time>2026-05-18T11:18:04+02:00</time>
      </trkpt>
      <trkpt lat="48.67543" lon="6.20258">
        <ele>198.7002</ele>
        <time>2026-05-18T11:18:05+02:00</time>
      </trkpt>
      <trkpt lat="48.67545" lon="6.20257">
        <ele>198.60059</ele>
        <time>2026-05-18T11:18:06+02:00</time>
      </trkpt>
      <trkpt lat="48.6755" lon="6.20254">
        <ele>198.7002</ele>
        <time>2026-05-18T11:18:08+02:00</time>
      </trkpt>
      <trkpt lat="48.67555" lon="6.20251">
        <ele>198.60059</ele>
        <time>2026-05-18T11:18:09+02:00</time>
      </trkpt>
      <trkpt lat="48.67558" lon="6.20249">
        <ele>198.60059</ele>
        <time>2026-05-18T11:18:10+02:00</time>
      </trkpt>
      <trkpt lat="48.67562" lon="6.20247">
        <ele>198.40039</ele>
        <time>2026-05-18T11:18:11+02:00</time>
      </trkpt>
      <trkpt lat="48.67566" lon="6.20245">
        <ele>198.60059</ele>
        <time>2026-05-18T11:18:12+02:00</time>
      </trkpt>
      <trkpt lat="48.6757" lon="6.20243">
        <ele>198.5</ele>
        <time>2026-05-18T11:18:13+02:00</time>
      </trkpt>
      <trkpt lat="48.67574" lon="6.20241">
        <ele>198.2998</ele>
        <time>2026-05-18T11:18:14+02:00</time>
      </trkpt>
      <trkpt lat="48.67579" lon="6.20239">
        <ele>198.2002</ele>
        <time>2026-05-18T11:18:15+02:00</time>
      </trkpt>
      <trkpt lat="48.67584" lon="6.20236">
        <ele>198.2998</ele>
        <time>2026-05-18T11:18:16+02:00</time>
      </trkpt>
      <trkpt lat="48.67589" lon="6.20234">
        <ele>198.2998</ele>
        <time>2026-05-18T11:18:17+02:00</time>
      </trkpt>
      <trkpt lat="48.67591" lon="6.20233">
        <ele>198.2998</ele>
        <time>2026-05-18T11:18:18+02:00</time>
      </trkpt>
      <trkpt lat="48.67598" lon="6.20229">
        <ele>198.5</ele>
        <time>2026-05-18T11:18:19+02:00</time>
      </trkpt>
      <trkpt lat="48.67604" lon="6.20226">
        <ele>198.40039</ele>
        <time>2026-05-18T11:18:20+02:00</time>
      </trkpt>
      <trkpt lat="48.67609" lon="6.20224">
        <ele>198.40039</ele>
        <time>2026-05-18T11:18:21+02:00</time>
      </trkpt>
      <trkpt lat="48.67614" lon="6.20221">
        <ele>198.7002</ele>
        <time>2026-05-18T11:18:22+02:00</time>
      </trkpt>
      <trkpt lat="48.67618" lon="6.20219">
        <ele>198.7002</ele>
        <time>2026-05-18T11:18:23+02:00</time>
      </trkpt>
      <trkpt lat="48.67623" lon="6.20216">
        <ele>198.60059</ele>
        <time>2026-05-18T11:18:24+02:00</time>
      </trkpt>
      <trkpt lat="48.67627" lon="6.20214">
        <ele>198.60059</ele>
        <time>2026-05-18T11:18:25+02:00</time>
      </trkpt>
      <trkpt lat="48.67631" lon="6.20212">
        <ele>198.60059</ele>
        <time>2026-05-18T11:18:26+02:00</time>
      </trkpt>
      <trkpt lat="48.67635" lon="6.2021">
        <ele>198.2998</ele>
        <time>2026-05-18T11:18:27+02:00</time>
      </trkpt>
      <trkpt lat="48.6764" lon="6.20208">
        <ele>198.10059</ele>
        <time>2026-05-18T11:18:28+02:00</time>
      </trkpt>
      <trkpt lat="48.67644" lon="6.20206">
        <ele>198.10059</ele>
        <time>2026-05-18T11:18:29+02:00</time>
      </trkpt>
      <trkpt lat="48.67648" lon="6.20204">
        <ele>198</ele>
        <time>2026-05-18T11:18:30+02:00</time>
      </trkpt>
      <trkpt lat="48.67653" lon="6.20202">
        <ele>198.2002</ele>
        <time>2026-05-18T11:18:31+02:00</time>
      </trkpt>
      <trkpt lat="48.67657" lon="6.202">
        <ele>198.2002</ele>
        <time>2026-05-18T11:18:32+02:00</time>
      </trkpt>
      <trkpt lat="48.67661" lon="6.20198">
        <ele>198.2002</ele>
        <time>2026-05-18T11:18:33+02:00</time>
      </trkpt>
      <trkpt lat="48.67666" lon="6.20197">
        <ele>198.10059</ele>
        <time>2026-05-18T11:18:34+02:00</time>
      </trkpt>
      <trkpt lat="48.6767" lon="6.20195">
        <ele>198.40039</ele>
        <time>2026-05-18T11:18:35+02:00</time>
      </trkpt>
      <trkpt lat="48.67676" lon="6.20193">
        <ele>198.2998</ele>
        <time>2026-05-18T11:18:36+02:00</time>
      </trkpt>
      <trkpt lat="48.6768" lon="6.2019">
        <ele>198.2998</ele>
        <time>2026-05-18T11:18:37+02:00</time>
      </trkpt>
      <trkpt lat="48.67686" lon="6.20187">
        <ele>198.2002</ele>
        <time>2026-05-18T11:18:38+02:00</time>
      </trkpt>
      <trkpt lat="48.67691" lon="6.20185">
        <ele>198.40039</ele>
        <time>2026-05-18T11:18:39+02:00</time>
      </trkpt>
      <trkpt lat="48.67697" lon="6.20183">
        <ele>198.2002</ele>
        <time>2026-05-18T11:18:40+02:00</time>
      </trkpt>
      <trkpt lat="48.67701" lon="6.2018">
        <ele>198.2002</ele>
        <time>2026-05-18T11:18:41+02:00</time>
      </trkpt>
      <trkpt lat="48.67707" lon="6.20178">
        <ele>198.10059</ele>
        <time>2026-05-18T11:18:42+02:00</time>
      </trkpt>
      <trkpt lat="48.67712" lon="6.20176">
        <ele>197.90039</ele>
        <time>2026-05-18T11:18:43+02:00</time>
      </trkpt>
      <trkpt lat="48.67717" lon="6.20175">
        <ele>197.90039</ele>
        <time>2026-05-18T11:18:44+02:00</time>
      </trkpt>
      <trkpt lat="48.67722" lon="6.20173">
        <ele>197.90039</ele>
        <time>2026-05-18T11:18:45+02:00</time>
      </trkpt>
      <trkpt lat="48.67728" lon="6.20171">
        <ele>197.90039</ele>
        <time>2026-05-18T11:18:46+02:00</time>
      </trkpt>
      <trkpt lat="48.67733" lon="6.20169">
        <ele>198</ele>
        <time>2026-05-18T11:18:47+02:00</time>
      </trkpt>
      <trkpt lat="48.67738" lon="6.20167">
        <ele>198</ele>
        <time>2026-05-18T11:18:48+02:00</time>
      </trkpt>
      <trkpt lat="48.67743" lon="6.20165">
        <ele>198</ele>
        <time>2026-05-18T11:18:49+02:00</time>
      </trkpt>
      <trkpt lat="48.67749" lon="6.20163">
        <ele>198</ele>
        <time>2026-05-18T11:18:50+02:00</time>
      </trkpt>
      <trkpt lat="48.67754" lon="6.2016">
        <ele>198.10059</ele>
        <time>2026-05-18T11:18:51+02:00</time>
      </trkpt>
      <trkpt lat="48.67759" lon="6.20159">
        <ele>198</ele>
        <time>2026-05-18T11:18:52+02:00</time>
      </trkpt>
      <trkpt lat="48.67765" lon="6.20157">
        <ele>197.7998</ele>
        <time>2026-05-18T11:18:53+02:00</time>
      </trkpt>
      <trkpt lat="48.67771" lon="6.20155">
        <ele>197.7002</ele>
        <time>2026-05-18T11:18:54+02:00</time>
      </trkpt>
      <trkpt lat="48.67776" lon="6.20152">
        <ele>197.7002</ele>
        <time>2026-05-18T11:18:55+02:00</time>
      </trkpt>
      <trkpt lat="48.67782" lon="6.20149">
        <ele>197.7002</ele>
        <time>2026-05-18T11:18:56+02:00</time>
      </trkpt>
      <trkpt lat="48.67787" lon="6.20145">
        <ele>197.7998</ele>
        <time>2026-05-18T11:18:57+02:00</time>
      </trkpt>
      <trkpt lat="48.67791" lon="6.20142">
        <ele>197.7998</ele>
        <time>2026-05-18T11:18:58+02:00</time>
      </trkpt>
      <trkpt lat="48.67796" lon="6.20138">
        <ele>197.90039</ele>
        <time>2026-05-18T11:18:59+02:00</time>
      </trkpt>
      <trkpt lat="48.67801" lon="6.20134">
        <ele>197.90039</ele>
        <time>2026-05-18T11:19:00+02:00</time>
      </trkpt>
      <trkpt lat="48.67806" lon="6.2013">
        <ele>197.90039</ele>
        <time>2026-05-18T11:19:01+02:00</time>
      </trkpt>
      <trkpt lat="48.67811" lon="6.20125">
        <ele>198.10059</ele>
        <time>2026-05-18T11:19:02+02:00</time>
      </trkpt>
      <trkpt lat="48.67816" lon="6.20121">
        <ele>198</ele>
        <time>2026-05-18T11:19:03+02:00</time>
      </trkpt>
      <trkpt lat="48.6782" lon="6.20117">
        <ele>198.2998</ele>
        <time>2026-05-18T11:19:04+02:00</time>
      </trkpt>
      <trkpt lat="48.67825" lon="6.20114">
        <ele>198.2998</ele>
        <time>2026-05-18T11:19:05+02:00</time>
      </trkpt>
      <trkpt lat="48.6783" lon="6.20112">
        <ele>198.2998</ele>
        <time>2026-05-18T11:19:06+02:00</time>
      </trkpt>
      <trkpt lat="48.67835" lon="6.20111">
        <ele>198.40039</ele>
        <time>2026-05-18T11:19:07+02:00</time>
      </trkpt>
      <trkpt lat="48.6784" lon="6.2011">
        <ele>198.40039</ele>
        <time>2026-05-18T11:19:08+02:00</time>
      </trkpt>
      <trkpt lat="48.67845" lon="6.20108">
        <ele>198.7002</ele>
        <time>2026-05-18T11:19:09+02:00</time>
      </trkpt>
      <trkpt lat="48.6785" lon="6.20106">
        <ele>198.5</ele>
        <time>2026-05-18T11:19:10+02:00</time>
      </trkpt>
      <trkpt lat="48.67855" lon="6.20103">
        <ele>198.2998</ele>
        <time>2026-05-18T11:19:11+02:00</time>
      </trkpt>
      <trkpt lat="48.6786" lon="6.20099">
        <ele>198.2998</ele>
        <time>2026-05-18T11:19:12+02:00</time>
      </trkpt>
      <trkpt lat="48.67864" lon="6.20094">
        <ele>198</ele>
        <time>2026-05-18T11:19:13+02:00</time>
      </trkpt>
      <trkpt lat="48.67868" lon="6.20088">
        <ele>198.10059</ele>
        <time>2026-05-18T11:19:14+02:00</time>
      </trkpt>
      <trkpt lat="48.67872" lon="6.20083">
        <ele>198.5</ele>
        <time>2026-05-18T11:19:15+02:00</time>
      </trkpt>
      <trkpt lat="48.67877" lon="6.20078">
        <ele>198.40039</ele>
        <time>2026-05-18T11:19:16+02:00</time>
      </trkpt>
      <trkpt lat="48.67881" lon="6.20072">
        <ele>198.90039</ele>
        <time>2026-05-18T11:19:17+02:00</time>
      </trkpt>
      <trkpt lat="48.67885" lon="6.20067">
        <ele>198.7998</ele>
        <time>2026-05-18T11:19:18+02:00</time>
      </trkpt>
      <trkpt lat="48.6789" lon="6.20062">
        <ele>199.40039</ele>
        <time>2026-05-18T11:19:19+02:00</time>
      </trkpt>
      <trkpt lat="48.67894" lon="6.20057">
        <ele>199.90039</ele>
        <time>2026-05-18T11:19:20+02:00</time>
      </trkpt>
      <trkpt lat="48.67898" lon="6.20051">
        <ele>199.7998</ele>
        <time>2026-05-18T11:19:21+02:00</time>
      </trkpt>
      <trkpt lat="48.67902" lon="6.20046">
        <ele>200.10059</ele>
        <time>2026-05-18T11:19:22+02:00</time>
      </trkpt>
      <trkpt lat="48.67906" lon="6.2004">
        <ele>200.2998</ele>
        <time>2026-05-18T11:19:23+02:00</time>
      </trkpt>
      <trkpt lat="48.67911" lon="6.20035">
        <ele>200.2998</ele>
        <time>2026-05-18T11:19:24+02:00</time>
      </trkpt>
      <trkpt lat="48.67915" lon="6.2003">
        <ele>200.5</ele>
        <time>2026-05-18T11:19:25+02:00</time>
      </trkpt>
      <trkpt lat="48.6792" lon="6.20026">
        <ele>200.2002</ele>
        <time>2026-05-18T11:19:26+02:00</time>
      </trkpt>
      <trkpt lat="48.67925" lon="6.20021">
        <ele>200.5</ele>
        <time>2026-05-18T11:19:27+02:00</time>
      </trkpt>
      <trkpt lat="48.6793" lon="6.20017">
        <ele>200.40039</ele>
        <time>2026-05-18T11:19:28+02:00</time>
      </trkpt>
      <trkpt lat="48.67934" lon="6.20013">
        <ele>200.7998</ele>
        <time>2026-05-18T11:19:29+02:00</time>
      </trkpt>
      <trkpt lat="48.6794" lon="6.20009">
        <ele>200.60059</ele>
        <time>2026-05-18T11:19:30+02:00</time>
      </trkpt>
      <trkpt lat="48.67944" lon="6.20005">
        <ele>201.10059</ele>
        <time>2026-05-18T11:19:31+02:00</time>
      </trkpt>
      <trkpt lat="48.67949" lon="6.20001">
        <ele>201.10059</ele>
        <time>2026-05-18T11:19:32+02:00</time>
      </trkpt>
      <trkpt lat="48.67955" lon="6.19997">
        <ele>201.40039</ele>
        <time>2026-05-18T11:19:33+02:00</time>
      </trkpt>
      <trkpt lat="48.6796" lon="6.19993">
        <ele>201.2002</ele>
        <time>2026-05-18T11:19:34+02:00</time>
      </trkpt>
      <trkpt lat="48.67965" lon="6.19989">
        <ele>201.2998</ele>
        <time>2026-05-18T11:19:35+02:00</time>
      </trkpt>
      <trkpt lat="48.67969" lon="6.19986">
        <ele>201</ele>
        <time>2026-05-18T11:19:36+02:00</time>
      </trkpt>
      <trkpt lat="48.67975" lon="6.19983">
        <ele>200.7998</ele>
        <time>2026-05-18T11:19:37+02:00</time>
      </trkpt>
      <trkpt lat="48.6798" lon="6.19981">
        <ele>200.7002</ele>
        <time>2026-05-18T11:19:38+02:00</time>
      </trkpt>
      <trkpt lat="48.67986" lon="6.19979">
        <ele>200.7998</ele>
        <time>2026-05-18T11:19:39+02:00</time>
      </trkpt>
      <trkpt lat="48.67991" lon="6.1998">
        <ele>200.7998</ele>
        <time>2026-05-18T11:19:40+02:00</time>
      </trkpt>
      <trkpt lat="48.67997" lon="6.1998">
        <ele>200.60059</ele>
        <time>2026-05-18T11:19:41+02:00</time>
      </trkpt>
      <trkpt lat="48.68002" lon="6.19978">
        <ele>200.60059</ele>
        <time>2026-05-18T11:19:42+02:00</time>
      </trkpt>
      <trkpt lat="48.68008" lon="6.19975">
        <ele>200.40039</ele>
        <time>2026-05-18T11:19:43+02:00</time>
      </trkpt>
      <trkpt lat="48.68013" lon="6.19972">
        <ele>200.7002</ele>
        <time>2026-05-18T11:19:44+02:00</time>
      </trkpt>
      <trkpt lat="48.68018" lon="6.19969">
        <ele>200.60059</ele>
        <time>2026-05-18T11:19:45+02:00</time>
      </trkpt>
      <trkpt lat="48.68024" lon="6.19967">
        <ele>200.5</ele>
        <time>2026-05-18T11:19:46+02:00</time>
      </trkpt>
      <trkpt lat="48.68029" lon="6.19963">
        <ele>200.90039</ele>
        <time>2026-05-18T11:19:47+02:00</time>
      </trkpt>
      <trkpt lat="48.68034" lon="6.19961">
        <ele>200.90039</ele>
        <time>2026-05-18T11:19:48+02:00</time>
      </trkpt>
      <trkpt lat="48.68039" lon="6.19958">
        <ele>200.7998</ele>
        <time>2026-05-18T11:19:49+02:00</time>
      </trkpt>
      <trkpt lat="48.68045" lon="6.19955">
        <ele>201</ele>
        <time>2026-05-18T11:19:50+02:00</time>
      </trkpt>
      <trkpt lat="48.68051" lon="6.19952">
        <ele>200.7998</ele>
        <time>2026-05-18T11:19:51+02:00</time>
      </trkpt>
      <trkpt lat="48.68056" lon="6.19949">
        <ele>200.60059</ele>
        <time>2026-05-18T11:19:52+02:00</time>
      </trkpt>
      <trkpt lat="48.68061" lon="6.19946">
        <ele>200.2998</ele>
        <time>2026-05-18T11:19:53+02:00</time>
      </trkpt>
      <trkpt lat="48.68066" lon="6.19943">
        <ele>200.10059</ele>
        <time>2026-05-18T11:19:54+02:00</time>
      </trkpt>
      <trkpt lat="48.68069" lon="6.19942">
        <ele>200.10059</ele>
        <time>2026-05-18T11:19:55+02:00</time>
      </trkpt>
      <trkpt lat="48.68077" lon="6.19938">
        <ele>199.7002</ele>
        <time>2026-05-18T11:19:56+02:00</time>
      </trkpt>
      <trkpt lat="48.68083" lon="6.19934">
        <ele>199.60059</ele>
        <time>2026-05-18T11:19:57+02:00</time>
      </trkpt>
      <trkpt lat="48.68088" lon="6.19932">
        <ele>199.40039</ele>
        <time>2026-05-18T11:19:58+02:00</time>
      </trkpt>
      <trkpt lat="48.68093" lon="6.19929">
        <ele>199.40039</ele>
        <time>2026-05-18T11:19:59+02:00</time>
      </trkpt>
      <trkpt lat="48.68098" lon="6.19927">
        <ele>199.40039</ele>
        <time>2026-05-18T11:20:00+02:00</time>
      </trkpt>
      <trkpt lat="48.68104" lon="6.1993">
        <ele>199.10059</ele>
        <time>2026-05-18T11:20:01+02:00</time>
      </trkpt>
      <trkpt lat="48.68107" lon="6.19935">
        <ele>198.90039</ele>
        <time>2026-05-18T11:20:02+02:00</time>
      </trkpt>
      <trkpt lat="48.68108" lon="6.19942">
        <ele>198.7998</ele>
        <time>2026-05-18T11:20:03+02:00</time>
      </trkpt>
      <trkpt lat="48.6811" lon="6.19949">
        <ele>198.5</ele>
        <time>2026-05-18T11:20:04+02:00</time>
      </trkpt>
      <trkpt lat="48.68112" lon="6.19956">
        <ele>198.10059</ele>
        <time>2026-05-18T11:20:05+02:00</time>
      </trkpt>
      <trkpt lat="48.68114" lon="6.19963">
        <ele>198.10059</ele>
        <time>2026-05-18T11:20:06+02:00</time>
      </trkpt>
      <trkpt lat="48.68118" lon="6.19968">
        <ele>197.7998</ele>
        <time>2026-05-18T11:20:07+02:00</time>
      </trkpt>
      <trkpt lat="48.68122" lon="6.1997">
        <ele>197.7998</ele>
        <time>2026-05-18T11:20:08+02:00</time>
      </trkpt>
      <trkpt lat="48.68127" lon="6.1997">
        <ele>197.7998</ele>
        <time>2026-05-18T11:20:09+02:00</time>
      </trkpt>
      <trkpt lat="48.68132" lon="6.19967">
        <ele>197.90039</ele>
        <time>2026-05-18T11:20:10+02:00</time>
      </trkpt>
      <trkpt lat="48.68137" lon="6.19965">
        <ele>197.90039</ele>
        <time>2026-05-18T11:20:11+02:00</time>
      </trkpt>
      <trkpt lat="48.68142" lon="6.19963">
        <ele>198.10059</ele>
        <time>2026-05-18T11:20:12+02:00</time>
      </trkpt>
      <trkpt lat="48.68147" lon="6.1996">
        <ele>198.2002</ele>
        <time>2026-05-18T11:20:13+02:00</time>
      </trkpt>
      <trkpt lat="48.68152" lon="6.19957">
        <ele>198.2998</ele>
        <time>2026-05-18T11:20:14+02:00</time>
      </trkpt>
      <trkpt lat="48.68158" lon="6.19955">
        <ele>198.10059</ele>
        <time>2026-05-18T11:20:15+02:00</time>
      </trkpt>
      <trkpt lat="48.68163" lon="6.19952">
        <ele>198.10059</ele>
        <time>2026-05-18T11:20:16+02:00</time>
      </trkpt>
      <trkpt lat="48.68169" lon="6.1995">
        <ele>198</ele>
        <time>2026-05-18T11:20:17+02:00</time>
      </trkpt>
      <trkpt lat="48.68174" lon="6.19947">
        <ele>198</ele>
        <time>2026-05-18T11:20:18+02:00</time>
      </trkpt>
      <trkpt lat="48.6818" lon="6.19945">
        <ele>197.90039</ele>
        <time>2026-05-18T11:20:19+02:00</time>
      </trkpt>
      <trkpt lat="48.68186" lon="6.19942">
        <ele>197.90039</ele>
        <time>2026-05-18T11:20:20+02:00</time>
      </trkpt>
      <trkpt lat="48.68191" lon="6.19939">
        <ele>197.90039</ele>
        <time>2026-05-18T11:20:21+02:00</time>
      </trkpt>
      <trkpt lat="48.68196" lon="6.19937">
        <ele>197.90039</ele>
        <time>2026-05-18T11:20:22+02:00</time>
      </trkpt>
      <trkpt lat="48.68202" lon="6.19934">
        <ele>197.90039</ele>
        <time>2026-05-18T11:20:23+02:00</time>
      </trkpt>
      <trkpt lat="48.68207" lon="6.19931">
        <ele>197.90039</ele>
        <time>2026-05-18T11:20:24+02:00</time>
      </trkpt>
      <trkpt lat="48.68212" lon="6.19929">
        <ele>197.7998</ele>
        <time>2026-05-18T11:20:25+02:00</time>
      </trkpt>
      <trkpt lat="48.68218" lon="6.19926">
        <ele>197.7998</ele>
        <time>2026-05-18T11:20:26+02:00</time>
      </trkpt>
      <trkpt lat="48.68223" lon="6.19923">
        <ele>197.7998</ele>
        <time>2026-05-18T11:20:27+02:00</time>
      </trkpt>
      <trkpt lat="48.68228" lon="6.1992">
        <ele>197.7998</ele>
        <time>2026-05-18T11:20:28+02:00</time>
      </trkpt>
      <trkpt lat="48.68233" lon="6.19918">
        <ele>197.7998</ele>
        <time>2026-05-18T11:20:29+02:00</time>
      </trkpt>
      <trkpt lat="48.68239" lon="6.19915">
        <ele>197.7998</ele>
        <time>2026-05-18T11:20:30+02:00</time>
      </trkpt>
      <trkpt lat="48.68244" lon="6.19913">
        <ele>197.7998</ele>
        <time>2026-05-18T11:20:31+02:00</time>
      </trkpt>
      <trkpt lat="48.68249" lon="6.1991">
        <ele>197.7002</ele>
        <time>2026-05-18T11:20:32+02:00</time>
      </trkpt>
      <trkpt lat="48.68254" lon="6.19908">
        <ele>197.60059</ele>
        <time>2026-05-18T11:20:33+02:00</time>
      </trkpt>
      <trkpt lat="48.68259" lon="6.19906">
        <ele>197.60059</ele>
        <time>2026-05-18T11:20:34+02:00</time>
      </trkpt>
      <trkpt lat="48.68264" lon="6.19903">
        <ele>197.5</ele>
        <time>2026-05-18T11:20:35+02:00</time>
      </trkpt>
      <trkpt lat="48.68268" lon="6.19901">
        <ele>197.5</ele>
        <time>2026-05-18T11:20:36+02:00</time>
      </trkpt>
      <trkpt lat="48.68273" lon="6.19899">
        <ele>197.60059</ele>
        <time>2026-05-18T11:20:37+02:00</time>
      </trkpt>
      <trkpt lat="48.68278" lon="6.19896">
        <ele>197.60059</ele>
        <time>2026-05-18T11:20:38+02:00</time>
      </trkpt>
      <trkpt lat="48.68282" lon="6.19894">
        <ele>197.5</ele>
        <time>2026-05-18T11:20:39+02:00</time>
      </trkpt>
      <trkpt lat="48.68287" lon="6.19892">
        <ele>197.5</ele>
        <time>2026-05-18T11:20:40+02:00</time>
      </trkpt>
      <trkpt lat="48.68292" lon="6.1989">
        <ele>197.5</ele>
        <time>2026-05-18T11:20:41+02:00</time>
      </trkpt>
      <trkpt lat="48.68296" lon="6.19888">
        <ele>197.5</ele>
        <time>2026-05-18T11:20:42+02:00</time>
      </trkpt>
      <trkpt lat="48.68301" lon="6.19886">
        <ele>197.2002</ele>
        <time>2026-05-18T11:20:43+02:00</time>
      </trkpt>
      <trkpt lat="48.68305" lon="6.19883">
        <ele>197.2002</ele>
        <time>2026-05-18T11:20:44+02:00</time>
      </trkpt>
      <trkpt lat="48.6831" lon="6.19881">
        <ele>197.2002</ele>
        <time>2026-05-18T11:20:45+02:00</time>
      </trkpt>
      <trkpt lat="48.68314" lon="6.19879">
        <ele>197.2002</ele>
        <time>2026-05-18T11:20:46+02:00</time>
      </trkpt>
      <trkpt lat="48.68319" lon="6.19877">
        <ele>197</ele>
        <time>2026-05-18T11:20:47+02:00</time>
      </trkpt>
      <trkpt lat="48.68324" lon="6.19875">
        <ele>197.10059</ele>
        <time>2026-05-18T11:20:48+02:00</time>
      </trkpt>
      <trkpt lat="48.68329" lon="6.19873">
        <ele>197.2002</ele>
        <time>2026-05-18T11:20:49+02:00</time>
      </trkpt>
      <trkpt lat="48.68334" lon="6.1987">
        <ele>197.2998</ele>
        <time>2026-05-18T11:20:50+02:00</time>
      </trkpt>
      <trkpt lat="48.68339" lon="6.19867">
        <ele>197.2998</ele>
        <time>2026-05-18T11:20:51+02:00</time>
      </trkpt>
      <trkpt lat="48.68343" lon="6.19865">
        <ele>197.40039</ele>
        <time>2026-05-18T11:20:52+02:00</time>
      </trkpt>
      <trkpt lat="48.68348" lon="6.19862">
        <ele>197.40039</ele>
        <time>2026-05-18T11:20:53+02:00</time>
      </trkpt>
      <trkpt lat="48.68354" lon="6.19859">
        <ele>197.60059</ele>
        <time>2026-05-18T11:20:54+02:00</time>
      </trkpt>
      <trkpt lat="48.68359" lon="6.19857">
        <ele>197.60059</ele>
        <time>2026-05-18T11:20:55+02:00</time>
      </trkpt>
      <trkpt lat="48.68364" lon="6.19854">
        <ele>197.7002</ele>
        <time>2026-05-18T11:20:56+02:00</time>
      </trkpt>
      <trkpt lat="48.68369" lon="6.19852">
        <ele>197.7998</ele>
        <time>2026-05-18T11:20:57+02:00</time>
      </trkpt>
      <trkpt lat="48.68375" lon="6.1985">
        <ele>197.90039</ele>
        <time>2026-05-18T11:20:58+02:00</time>
      </trkpt>
      <trkpt lat="48.6838" lon="6.19847">
        <ele>198.10059</ele>
        <time>2026-05-18T11:20:59+02:00</time>
      </trkpt>
      <trkpt lat="48.68385" lon="6.19844">
        <ele>198.2002</ele>
        <time>2026-05-18T11:21:00+02:00</time>
      </trkpt>
      <trkpt lat="48.6839" lon="6.19842">
        <ele>198.10059</ele>
        <time>2026-05-18T11:21:01+02:00</time>
      </trkpt>
      <trkpt lat="48.68395" lon="6.19839">
        <ele>198.2002</ele>
        <time>2026-05-18T11:21:02+02:00</time>
      </trkpt>
      <trkpt lat="48.68401" lon="6.19836">
        <ele>198.2002</ele>
        <time>2026-05-18T11:21:03+02:00</time>
      </trkpt>
      <trkpt lat="48.68406" lon="6.19833">
        <ele>198.10059</ele>
        <time>2026-05-18T11:21:04+02:00</time>
      </trkpt>
      <trkpt lat="48.68411" lon="6.1983">
        <ele>198.10059</ele>
        <time>2026-05-18T11:21:05+02:00</time>
      </trkpt>
      <trkpt lat="48.68417" lon="6.19827">
        <ele>198.10059</ele>
        <time>2026-05-18T11:21:06+02:00</time>
      </trkpt>
      <trkpt lat="48.68422" lon="6.19824">
        <ele>198</ele>
        <time>2026-05-18T11:21:07+02:00</time>
      </trkpt>
      <trkpt lat="48.68427" lon="6.19821">
        <ele>198</ele>
        <time>2026-05-18T11:21:08+02:00</time>
      </trkpt>
      <trkpt lat="48.68432" lon="6.19818">
        <ele>198</ele>
        <time>2026-05-18T11:21:09+02:00</time>
      </trkpt>
      <trkpt lat="48.68437" lon="6.19814">
        <ele>197.7998</ele>
        <time>2026-05-18T11:21:10+02:00</time>
      </trkpt>
      <trkpt lat="48.68441" lon="6.19812">
        <ele>197.7998</ele>
        <time>2026-05-18T11:21:11+02:00</time>
      </trkpt>
      <trkpt lat="48.68446" lon="6.1981">
        <ele>197.90039</ele>
        <time>2026-05-18T11:21:12+02:00</time>
      </trkpt>
      <trkpt lat="48.68451" lon="6.1981">
        <ele>198.10059</ele>
        <time>2026-05-18T11:21:13+02:00</time>
      </trkpt>
      <trkpt lat="48.68454" lon="6.19809">
        <ele>198</ele>
        <time>2026-05-18T11:21:14+02:00</time>
      </trkpt>
      <trkpt lat="48.68461" lon="6.19809">
        <ele>198.2002</ele>
        <time>2026-05-18T11:21:15+02:00</time>
      </trkpt>
      <trkpt lat="48.68465" lon="6.19809">
        <ele>198.2998</ele>
        <time>2026-05-18T11:21:16+02:00</time>
      </trkpt>
      <trkpt lat="48.68468" lon="6.19809">
        <ele>198.40039</ele>
        <time>2026-05-18T11:21:17+02:00</time>
      </trkpt>
      <trkpt lat="48.68471" lon="6.19808">
        <ele>198.40039</ele>
        <time>2026-05-18T11:21:18+02:00</time>
      </trkpt>
      <trkpt lat="48.68473" lon="6.19807">
        <ele>198.40039</ele>
        <time>2026-05-18T11:21:19+02:00</time>
      </trkpt>
      <trkpt lat="48.68475" lon="6.19806">
        <ele>198.40039</ele>
        <time>2026-05-18T11:21:20+02:00</time>
      </trkpt>
      <trkpt lat="48.68477" lon="6.19806">
        <ele>198.40039</ele>
        <time>2026-05-18T11:21:21+02:00</time>
      </trkpt>
      <trkpt lat="48.68479" lon="6.19805">
        <ele>198.5</ele>
        <time>2026-05-18T11:21:22+02:00</time>
      </trkpt>
      <trkpt lat="48.6848" lon="6.19803">
        <ele>198.5</ele>
        <time>2026-05-18T11:21:23+02:00</time>
      </trkpt>
      <trkpt lat="48.68482" lon="6.198">
        <ele>198.2002</ele>
        <time>2026-05-18T11:21:24+02:00</time>
      </trkpt>
      <trkpt lat="48.68482" lon="6.19797">
        <ele>198.2002</ele>
        <time>2026-05-18T11:21:25+02:00</time>
      </trkpt>
      <trkpt lat="48.68483" lon="6.19795">
        <ele>198.2002</ele>
        <time>2026-05-18T11:21:26+02:00</time>
      </trkpt>
      <trkpt lat="48.68485" lon="6.19793">
        <ele>198.2998</ele>
        <time>2026-05-18T11:21:27+02:00</time>
      </trkpt>
      <trkpt lat="48.68488" lon="6.19792">
        <ele>198.2998</ele>
        <time>2026-05-18T11:21:28+02:00</time>
      </trkpt>
      <trkpt lat="48.6849" lon="6.19793">
        <ele>198.2998</ele>
        <time>2026-05-18T11:21:29+02:00</time>
      </trkpt>
      <trkpt lat="48.68493" lon="6.19793">
        <ele>198.2998</ele>
        <time>2026-05-18T11:21:30+02:00</time>
      </trkpt>
      <trkpt lat="48.68497" lon="6.19792">
        <ele>198.40039</ele>
        <time>2026-05-18T11:21:31+02:00</time>
      </trkpt>
      <trkpt lat="48.685" lon="6.1979">
        <ele>198.10059</ele>
        <time>2026-05-18T11:21:32+02:00</time>
      </trkpt>
      <trkpt lat="48.68504" lon="6.19788">
        <ele>198.10059</ele>
        <time>2026-05-18T11:21:33+02:00</time>
      </trkpt>
      <trkpt lat="48.68508" lon="6.19786">
        <ele>198.2002</ele>
        <time>2026-05-18T11:21:34+02:00</time>
      </trkpt>
      <trkpt lat="48.68513" lon="6.19783">
        <ele>198.10059</ele>
        <time>2026-05-18T11:21:35+02:00</time>
      </trkpt>
      <trkpt lat="48.68517" lon="6.19781">
        <ele>198.10059</ele>
        <time>2026-05-18T11:21:36+02:00</time>
      </trkpt>
      <trkpt lat="48.68522" lon="6.19779">
        <ele>198.2998</ele>
        <time>2026-05-18T11:21:37+02:00</time>
      </trkpt>
      <trkpt lat="48.68527" lon="6.19776">
        <ele>198.60059</ele>
        <time>2026-05-18T11:21:38+02:00</time>
      </trkpt>
      <trkpt lat="48.68531" lon="6.19774">
        <ele>198.60059</ele>
        <time>2026-05-18T11:21:39+02:00</time>
      </trkpt>
      <trkpt lat="48.68536" lon="6.19771">
        <ele>198.7002</ele>
        <time>2026-05-18T11:21:40+02:00</time>
      </trkpt>
      <trkpt lat="48.68541" lon="6.19768">
        <ele>198.7002</ele>
        <time>2026-05-18T11:21:41+02:00</time>
      </trkpt>
      <trkpt lat="48.68545" lon="6.19765">
        <ele>198.40039</ele>
        <time>2026-05-18T11:21:42+02:00</time>
      </trkpt>
      <trkpt lat="48.6855" lon="6.19761">
        <ele>198.5</ele>
        <time>2026-05-18T11:21:43+02:00</time>
      </trkpt>
      <trkpt lat="48.68555" lon="6.19759">
        <ele>198.5</ele>
        <time>2026-05-18T11:21:44+02:00</time>
      </trkpt>
      <trkpt lat="48.6856" lon="6.19757">
        <ele>198.2002</ele>
        <time>2026-05-18T11:21:45+02:00</time>
      </trkpt>
      <trkpt lat="48.68565" lon="6.19754">
        <ele>198.2002</ele>
        <time>2026-05-18T11:21:46+02:00</time>
      </trkpt>
      <trkpt lat="48.6857" lon="6.19751">
        <ele>198.2002</ele>
        <time>2026-05-18T11:21:47+02:00</time>
      </trkpt>
      <trkpt lat="48.68575" lon="6.19748">
        <ele>198</ele>
        <time>2026-05-18T11:21:48+02:00</time>
      </trkpt>
      <trkpt lat="48.6858" lon="6.19744">
        <ele>198</ele>
        <time>2026-05-18T11:21:49+02:00</time>
      </trkpt>
      <trkpt lat="48.68585" lon="6.19741">
        <ele>198</ele>
        <time>2026-05-18T11:21:50+02:00</time>
      </trkpt>
      <trkpt lat="48.68589" lon="6.19738">
        <ele>197.7998</ele>
        <time>2026-05-18T11:21:51+02:00</time>
      </trkpt>
      <trkpt lat="48.68594" lon="6.19736">
        <ele>197.7998</ele>
        <time>2026-05-18T11:21:52+02:00</time>
      </trkpt>
      <trkpt lat="48.68598" lon="6.19733">
        <ele>197.90039</ele>
        <time>2026-05-18T11:21:53+02:00</time>
      </trkpt>
      <trkpt lat="48.68601" lon="6.19731">
        <ele>197.7998</ele>
        <time>2026-05-18T11:21:54+02:00</time>
      </trkpt>
      <trkpt lat="48.68608" lon="6.19726">
        <ele>197.90039</ele>
        <time>2026-05-18T11:21:55+02:00</time>
      </trkpt>
      <trkpt lat="48.68613" lon="6.19723">
        <ele>198</ele>
        <time>2026-05-18T11:21:56+02:00</time>
      </trkpt>
      <trkpt lat="48.68618" lon="6.1972">
        <ele>198.10059</ele>
        <time>2026-05-18T11:21:57+02:00</time>
      </trkpt>
      <trkpt lat="48.68623" lon="6.19716">
        <ele>198.10059</ele>
        <time>2026-05-18T11:21:58+02:00</time>
      </trkpt>
      <trkpt lat="48.68628" lon="6.19713">
        <ele>198</ele>
        <time>2026-05-18T11:21:59+02:00</time>
      </trkpt>
      <trkpt lat="48.68633" lon="6.19709">
        <ele>198</ele>
        <time>2026-05-18T11:22:00+02:00</time>
      </trkpt>
      <trkpt lat="48.68638" lon="6.19707">
        <ele>197.90039</ele>
        <time>2026-05-18T11:22:01+02:00</time>
      </trkpt>
      <trkpt lat="48.68643" lon="6.19704">
        <ele>197.7998</ele>
        <time>2026-05-18T11:22:02+02:00</time>
      </trkpt>
      <trkpt lat="48.68647" lon="6.19701">
        <ele>197.7998</ele>
        <time>2026-05-18T11:22:03+02:00</time>
      </trkpt>
      <trkpt lat="48.68651" lon="6.19697">
        <ele>197.7002</ele>
        <time>2026-05-18T11:22:04+02:00</time>
      </trkpt>
      <trkpt lat="48.68655" lon="6.19694">
        <ele>197.60059</ele>
        <time>2026-05-18T11:22:05+02:00</time>
      </trkpt>
      <trkpt lat="48.6866" lon="6.19691">
        <ele>197.60059</ele>
        <time>2026-05-18T11:22:06+02:00</time>
      </trkpt>
      <trkpt lat="48.68665" lon="6.19687">
        <ele>197.5</ele>
        <time>2026-05-18T11:22:07+02:00</time>
      </trkpt>
      <trkpt lat="48.6867" lon="6.19684">
        <ele>197.60059</ele>
        <time>2026-05-18T11:22:08+02:00</time>
      </trkpt>
      <trkpt lat="48.68691" lon="6.19673">
        <ele>197.7002</ele>
        <time>2026-05-18T11:22:09+02:00</time>
      </trkpt>
      <trkpt lat="48.68696" lon="6.19671">
        <ele>197.7002</ele>
        <time>2026-05-18T11:22:10+02:00</time>
      </trkpt>
      <trkpt lat="48.68701" lon="6.19668">
        <ele>197.7998</ele>
        <time>2026-05-18T11:22:11+02:00</time>
      </trkpt>
      <trkpt lat="48.68705" lon="6.19665">
        <ele>197.7998</ele>
        <time>2026-05-18T11:22:12+02:00</time>
      </trkpt>
      <trkpt lat="48.6871" lon="6.19662">
        <ele>197.7998</ele>
        <time>2026-05-18T11:22:13+02:00</time>
      </trkpt>
      <trkpt lat="48.68712" lon="6.19661">
        <ele>197.7998</ele>
        <time>2026-05-18T11:22:14+02:00</time>
      </trkpt>
      <trkpt lat="48.68718" lon="6.19657">
        <ele>197.7998</ele>
        <time>2026-05-18T11:22:15+02:00</time>
      </trkpt>
      <trkpt lat="48.68722" lon="6.19656">
        <ele>197.7998</ele>
        <time>2026-05-18T11:22:16+02:00</time>
      </trkpt>
      <trkpt lat="48.68726" lon="6.19654">
        <ele>197.90039</ele>
        <time>2026-05-18T11:22:17+02:00</time>
      </trkpt>
      <trkpt lat="48.68731" lon="6.19653">
        <ele>197.90039</ele>
        <time>2026-05-18T11:22:18+02:00</time>
      </trkpt>
      <trkpt lat="48.68736" lon="6.19651">
        <ele>197.90039</ele>
        <time>2026-05-18T11:22:19+02:00</time>
      </trkpt>
      <trkpt lat="48.68742" lon="6.1965">
        <ele>197.7998</ele>
        <time>2026-05-18T11:22:20+02:00</time>
      </trkpt>
      <trkpt lat="48.68747" lon="6.19648">
        <ele>197.7998</ele>
        <time>2026-05-18T11:22:21+02:00</time>
      </trkpt>
      <trkpt lat="48.68752" lon="6.19645">
        <ele>198.10059</ele>
        <time>2026-05-18T11:22:22+02:00</time>
      </trkpt>
      <trkpt lat="48.68757" lon="6.19643">
        <ele>198.10059</ele>
        <time>2026-05-18T11:22:23+02:00</time>
      </trkpt>
      <trkpt lat="48.68762" lon="6.19642">
        <ele>198.10059</ele>
        <time>2026-05-18T11:22:24+02:00</time>
      </trkpt>
      <trkpt lat="48.68768" lon="6.1964">
        <ele>198.2002</ele>
        <time>2026-05-18T11:22:25+02:00</time>
      </trkpt>
      <trkpt lat="48.68773" lon="6.19638">
        <ele>198.2002</ele>
        <time>2026-05-18T11:22:26+02:00</time>
      </trkpt>
      <trkpt lat="48.68779" lon="6.19635">
        <ele>198</ele>
        <time>2026-05-18T11:22:27+02:00</time>
      </trkpt>
      <trkpt lat="48.68784" lon="6.19633">
        <ele>198</ele>
        <time>2026-05-18T11:22:28+02:00</time>
      </trkpt>
      <trkpt lat="48.68789" lon="6.19631">
        <ele>198</ele>
        <time>2026-05-18T11:22:29+02:00</time>
      </trkpt>
      <trkpt lat="48.68795" lon="6.19629">
        <ele>198</ele>
        <time>2026-05-18T11:22:30+02:00</time>
      </trkpt>
      <trkpt lat="48.688" lon="6.19626">
        <ele>197.7998</ele>
        <time>2026-05-18T11:22:31+02:00</time>
      </trkpt>
      <trkpt lat="48.68805" lon="6.19624">
        <ele>197.7998</ele>
        <time>2026-05-18T11:22:32+02:00</time>
      </trkpt>
      <trkpt lat="48.6881" lon="6.19622">
        <ele>197.7998</ele>
        <time>2026-05-18T11:22:33+02:00</time>
      </trkpt>
      <trkpt lat="48.68816" lon="6.19619">
        <ele>197.7998</ele>
        <time>2026-05-18T11:22:34+02:00</time>
      </trkpt>
      <trkpt lat="48.68821" lon="6.19616">
        <ele>197.7998</ele>
        <time>2026-05-18T11:22:35+02:00</time>
      </trkpt>
      <trkpt lat="48.68826" lon="6.19614">
        <ele>197.7002</ele>
        <time>2026-05-18T11:22:36+02:00</time>
      </trkpt>
      <trkpt lat="48.68832" lon="6.19611">
        <ele>197.90039</ele>
        <time>2026-05-18T11:22:37+02:00</time>
      </trkpt>
      <trkpt lat="48.68838" lon="6.19608">
        <ele>197.90039</ele>
        <time>2026-05-18T11:22:38+02:00</time>
      </trkpt>
      <trkpt lat="48.68843" lon="6.19605">
        <ele>197.90039</ele>
        <time>2026-05-18T11:22:39+02:00</time>
      </trkpt>
      <trkpt lat="48.68846" lon="6.19604">
        <ele>197.90039</ele>
        <time>2026-05-18T11:22:40+02:00</time>
      </trkpt>
      <trkpt lat="48.68854" lon="6.196">
        <ele>198.2998</ele>
        <time>2026-05-18T11:22:41+02:00</time>
      </trkpt>
      <trkpt lat="48.68859" lon="6.19597">
        <ele>198.2998</ele>
        <time>2026-05-18T11:22:42+02:00</time>
      </trkpt>
      <trkpt lat="48.68864" lon="6.19594">
        <ele>198</ele>
        <time>2026-05-18T11:22:43+02:00</time>
      </trkpt>
      <trkpt lat="48.6887" lon="6.19591">
        <ele>198</ele>
        <time>2026-05-18T11:22:44+02:00</time>
      </trkpt>
      <trkpt lat="48.68875" lon="6.19589">
        <ele>198</ele>
        <time>2026-05-18T11:22:45+02:00</time>
      </trkpt>
      <trkpt lat="48.68881" lon="6.19586">
        <ele>197.7998</ele>
        <time>2026-05-18T11:22:46+02:00</time>
      </trkpt>
      <trkpt lat="48.68886" lon="6.19584">
        <ele>197.7998</ele>
        <time>2026-05-18T11:22:47+02:00</time>
      </trkpt>
      <trkpt lat="48.68891" lon="6.19581">
        <ele>197.7998</ele>
        <time>2026-05-18T11:22:48+02:00</time>
      </trkpt>
      <trkpt lat="48.68895" lon="6.19578">
        <ele>197.7998</ele>
        <time>2026-05-18T11:22:49+02:00</time>
      </trkpt>
      <trkpt lat="48.689" lon="6.19575">
        <ele>197.7998</ele>
        <time>2026-05-18T11:22:50+02:00</time>
      </trkpt>
      <trkpt lat="48.68906" lon="6.19573">
        <ele>197.7998</ele>
        <time>2026-05-18T11:22:51+02:00</time>
      </trkpt>
      <trkpt lat="48.68911" lon="6.19571">
        <ele>197.7998</ele>
        <time>2026-05-18T11:22:52+02:00</time>
      </trkpt>
      <trkpt lat="48.68916" lon="6.19568">
        <ele>197.7998</ele>
        <time>2026-05-18T11:22:53+02:00</time>
      </trkpt>
      <trkpt lat="48.68921" lon="6.19566">
        <ele>197.7002</ele>
        <time>2026-05-18T11:22:54+02:00</time>
      </trkpt>
      <trkpt lat="48.68926" lon="6.19564">
        <ele>197.7002</ele>
        <time>2026-05-18T11:22:55+02:00</time>
      </trkpt>
      <trkpt lat="48.68931" lon="6.19561">
        <ele>197.7002</ele>
        <time>2026-05-18T11:22:56+02:00</time>
      </trkpt>
      <trkpt lat="48.68936" lon="6.19559">
        <ele>197.60059</ele>
        <time>2026-05-18T11:22:57+02:00</time>
      </trkpt>
      <trkpt lat="48.68942" lon="6.19557">
        <ele>197.7002</ele>
        <time>2026-05-18T11:22:58+02:00</time>
      </trkpt>
      <trkpt lat="48.68947" lon="6.19555">
        <ele>197.7002</ele>
        <time>2026-05-18T11:22:59+02:00</time>
      </trkpt>
      <trkpt lat="48.68952" lon="6.19553">
        <ele>197.7002</ele>
        <time>2026-05-18T11:23:00+02:00</time>
      </trkpt>
      <trkpt lat="48.68957" lon="6.19551">
        <ele>197.7002</ele>
        <time>2026-05-18T11:23:01+02:00</time>
      </trkpt>
      <trkpt lat="48.68961" lon="6.19548">
        <ele>197.7002</ele>
        <time>2026-05-18T11:23:02+02:00</time>
      </trkpt>
      <trkpt lat="48.68966" lon="6.19546">
        <ele>197.7002</ele>
        <time>2026-05-18T11:23:03+02:00</time>
      </trkpt>
      <trkpt lat="48.6897" lon="6.19544">
        <ele>197.7002</ele>
        <time>2026-05-18T11:23:04+02:00</time>
      </trkpt>
      <trkpt lat="48.68974" lon="6.19541">
        <ele>197.7002</ele>
        <time>2026-05-18T11:23:05+02:00</time>
      </trkpt>
      <trkpt lat="48.68978" lon="6.19539">
        <ele>197.60059</ele>
        <time>2026-05-18T11:23:06+02:00</time>
      </trkpt>
      <trkpt lat="48.68982" lon="6.19537">
        <ele>197.60059</ele>
        <time>2026-05-18T11:23:07+02:00</time>
      </trkpt>
      <trkpt lat="48.68986" lon="6.19536">
        <ele>197.5</ele>
        <time>2026-05-18T11:23:08+02:00</time>
      </trkpt>
      <trkpt lat="48.68991" lon="6.19536">
        <ele>197.2998</ele>
        <time>2026-05-18T11:23:09+02:00</time>
      </trkpt>
      <trkpt lat="48.68993" lon="6.19536">
        <ele>197.2998</ele>
        <time>2026-05-18T11:23:10+02:00</time>
      </trkpt>
      <trkpt lat="48.68998" lon="6.19535">
        <ele>197.2002</ele>
        <time>2026-05-18T11:23:11+02:00</time>
      </trkpt>
      <trkpt lat="48.69002" lon="6.19533">
        <ele>197.2002</ele>
        <time>2026-05-18T11:23:12+02:00</time>
      </trkpt>
      <trkpt lat="48.69004" lon="6.19532">
        <ele>197.2002</ele>
        <time>2026-05-18T11:23:13+02:00</time>
      </trkpt>
      <trkpt lat="48.6901" lon="6.1953">
        <ele>197</ele>
        <time>2026-05-18T11:23:14+02:00</time>
      </trkpt>
      <trkpt lat="48.69013" lon="6.19528">
        <ele>196.90039</ele>
        <time>2026-05-18T11:23:15+02:00</time>
      </trkpt>
      <trkpt lat="48.69017" lon="6.19526">
        <ele>196.7998</ele>
        <time>2026-05-18T11:23:16+02:00</time>
      </trkpt>
      <trkpt lat="48.69019" lon="6.19525">
        <ele>197</ele>
        <time>2026-05-18T11:23:17+02:00</time>
      </trkpt>
      <trkpt lat="48.69025" lon="6.19522">
        <ele>196.90039</ele>
        <time>2026-05-18T11:23:18+02:00</time>
      </trkpt>
      <trkpt lat="48.69029" lon="6.1952">
        <ele>196.7002</ele>
        <time>2026-05-18T11:23:19+02:00</time>
      </trkpt>
      <trkpt lat="48.69033" lon="6.19518">
        <ele>196.7002</ele>
        <time>2026-05-18T11:23:20+02:00</time>
      </trkpt>
      <trkpt lat="48.69037" lon="6.19516">
        <ele>196.7998</ele>
        <time>2026-05-18T11:23:21+02:00</time>
      </trkpt>
      <trkpt lat="48.69042" lon="6.19513">
        <ele>196.60059</ele>
        <time>2026-05-18T11:23:22+02:00</time>
      </trkpt>
      <trkpt lat="48.69046" lon="6.19511">
        <ele>196.5</ele>
        <time>2026-05-18T11:23:23+02:00</time>
      </trkpt>
      <trkpt lat="48.69048" lon="6.19509">
        <ele>196.5</ele>
        <time>2026-05-18T11:23:24+02:00</time>
      </trkpt>
      <trkpt lat="48.69055" lon="6.19506">
        <ele>196.5</ele>
        <time>2026-05-18T11:23:25+02:00</time>
      </trkpt>
      <trkpt lat="48.6906" lon="6.19503">
        <ele>196.40039</ele>
        <time>2026-05-18T11:23:26+02:00</time>
      </trkpt>
      <trkpt lat="48.69064" lon="6.195">
        <ele>196.40039</ele>
        <time>2026-05-18T11:23:27+02:00</time>
      </trkpt>
      <trkpt lat="48.69069" lon="6.19498">
        <ele>196.2998</ele>
        <time>2026-05-18T11:23:28+02:00</time>
      </trkpt>
      <trkpt lat="48.69073" lon="6.19495">
        <ele>196.2998</ele>
        <time>2026-05-18T11:23:29+02:00</time>
      </trkpt>
      <trkpt lat="48.69078" lon="6.19492">
        <ele>196.10059</ele>
        <time>2026-05-18T11:23:30+02:00</time>
      </trkpt>
      <trkpt lat="48.69082" lon="6.1949">
        <ele>196.2002</ele>
        <time>2026-05-18T11:23:31+02:00</time>
      </trkpt>
      <trkpt lat="48.69087" lon="6.19487">
        <ele>196.10059</ele>
        <time>2026-05-18T11:23:32+02:00</time>
      </trkpt>
      <trkpt lat="48.69092" lon="6.19484">
        <ele>196.10059</ele>
        <time>2026-05-18T11:23:33+02:00</time>
      </trkpt>
      <trkpt lat="48.69097" lon="6.19481">
        <ele>196.2002</ele>
        <time>2026-05-18T11:23:34+02:00</time>
      </trkpt>
      <trkpt lat="48.69102" lon="6.19478">
        <ele>196.2002</ele>
        <time>2026-05-18T11:23:35+02:00</time>
      </trkpt>
      <trkpt lat="48.69107" lon="6.19475">
        <ele>196.2002</ele>
        <time>2026-05-18T11:23:36+02:00</time>
      </trkpt>
      <trkpt lat="48.69112" lon="6.19472">
        <ele>196.2998</ele>
        <time>2026-05-18T11:23:37+02:00</time>
      </trkpt>
      <trkpt lat="48.69117" lon="6.19469">
        <ele>196.2998</ele>
        <time>2026-05-18T11:23:38+02:00</time>
      </trkpt>
      <trkpt lat="48.69122" lon="6.19466">
        <ele>196.2998</ele>
        <time>2026-05-18T11:23:39+02:00</time>
      </trkpt>
      <trkpt lat="48.69127" lon="6.19463">
        <ele>196.5</ele>
        <time>2026-05-18T11:23:40+02:00</time>
      </trkpt>
      <trkpt lat="48.69132" lon="6.19459">
        <ele>196.5</ele>
        <time>2026-05-18T11:23:41+02:00</time>
      </trkpt>
      <trkpt lat="48.69137" lon="6.19456">
        <ele>196.60059</ele>
        <time>2026-05-18T11:23:42+02:00</time>
      </trkpt>
      <trkpt lat="48.69142" lon="6.19453">
        <ele>196.60059</ele>
        <time>2026-05-18T11:23:43+02:00</time>
      </trkpt>
      <trkpt lat="48.69147" lon="6.1945">
        <ele>196.60059</ele>
        <time>2026-05-18T11:23:44+02:00</time>
      </trkpt>
      <trkpt lat="48.69152" lon="6.19446">
        <ele>196.7002</ele>
        <time>2026-05-18T11:23:45+02:00</time>
      </trkpt>
      <trkpt lat="48.69157" lon="6.19444">
        <ele>196.7002</ele>
        <time>2026-05-18T11:23:46+02:00</time>
      </trkpt>
      <trkpt lat="48.69162" lon="6.1944">
        <ele>196.7998</ele>
        <time>2026-05-18T11:23:47+02:00</time>
      </trkpt>
      <trkpt lat="48.69167" lon="6.19437">
        <ele>196.90039</ele>
        <time>2026-05-18T11:23:48+02:00</time>
      </trkpt>
      <trkpt lat="48.69172" lon="6.19434">
        <ele>196.90039</ele>
        <time>2026-05-18T11:23:49+02:00</time>
      </trkpt>
      <trkpt lat="48.69177" lon="6.19431">
        <ele>197</ele>
        <time>2026-05-18T11:23:50+02:00</time>
      </trkpt>
      <trkpt lat="48.69182" lon="6.19428">
        <ele>197</ele>
        <time>2026-05-18T11:23:51+02:00</time>
      </trkpt>
      <trkpt lat="48.69187" lon="6.19427">
        <ele>197</ele>
        <time>2026-05-18T11:23:52+02:00</time>
      </trkpt>
      <trkpt lat="48.69191" lon="6.19426">
        <ele>197</ele>
        <time>2026-05-18T11:23:53+02:00</time>
      </trkpt>
      <trkpt lat="48.69196" lon="6.19425">
        <ele>196.90039</ele>
        <time>2026-05-18T11:23:54+02:00</time>
      </trkpt>
      <trkpt lat="48.692" lon="6.19423">
        <ele>196.90039</ele>
        <time>2026-05-18T11:23:55+02:00</time>
      </trkpt>
      <trkpt lat="48.69204" lon="6.19421">
        <ele>196.90039</ele>
        <time>2026-05-18T11:23:56+02:00</time>
      </trkpt>
      <trkpt lat="48.69208" lon="6.19419">
        <ele>196.90039</ele>
        <time>2026-05-18T11:23:57+02:00</time>
      </trkpt>
      <trkpt lat="48.6921" lon="6.19418">
        <ele>196.7998</ele>
        <time>2026-05-18T11:23:58+02:00</time>
      </trkpt>
      <trkpt lat="48.69212" lon="6.19416">
        <ele>196.7998</ele>
        <time>2026-05-18T11:23:59+02:00</time>
      </trkpt>
      <trkpt lat="48.69212" lon="6.19412">
        <ele>196.90039</ele>
        <time>2026-05-18T11:24:00+02:00</time>
      </trkpt>
      <trkpt lat="48.69212" lon="6.19408">
        <ele>196.90039</ele>
        <time>2026-05-18T11:24:01+02:00</time>
      </trkpt>
      <trkpt lat="48.69211" lon="6.19403">
        <ele>197</ele>
        <time>2026-05-18T11:24:02+02:00</time>
      </trkpt>
      <trkpt lat="48.69209" lon="6.19398">
        <ele>197.10059</ele>
        <time>2026-05-18T11:24:03+02:00</time>
      </trkpt>
      <trkpt lat="48.69209" lon="6.19393">
        <ele>197.10059</ele>
        <time>2026-05-18T11:24:04+02:00</time>
      </trkpt>
      <trkpt lat="48.69207" lon="6.19387">
        <ele>197.2002</ele>
        <time>2026-05-18T11:24:05+02:00</time>
      </trkpt>
      <trkpt lat="48.69206" lon="6.19382">
        <ele>197.2002</ele>
        <time>2026-05-18T11:24:06+02:00</time>
      </trkpt>
      <trkpt lat="48.69204" lon="6.19376">
        <ele>197.2998</ele>
        <time>2026-05-18T11:24:07+02:00</time>
      </trkpt>
      <trkpt lat="48.69203" lon="6.1937">
        <ele>197.5</ele>
        <time>2026-05-18T11:24:08+02:00</time>
      </trkpt>
      <trkpt lat="48.69203" lon="6.19365">
        <ele>197.5</ele>
        <time>2026-05-18T11:24:09+02:00</time>
      </trkpt>
      <trkpt lat="48.69206" lon="6.19361">
        <ele>197.60059</ele>
        <time>2026-05-18T11:24:10+02:00</time>
      </trkpt>
      <trkpt lat="48.69208" lon="6.19358">
        <ele>197.60059</ele>
        <time>2026-05-18T11:24:11+02:00</time>
      </trkpt>
      <trkpt lat="48.69211" lon="6.19355">
        <ele>197.60059</ele>
        <time>2026-05-18T11:24:12+02:00</time>
      </trkpt>
      <trkpt lat="48.69214" lon="6.19353">
        <ele>197.7002</ele>
        <time>2026-05-18T11:24:13+02:00</time>
      </trkpt>
      <trkpt lat="48.69217" lon="6.19352">
        <ele>197.60059</ele>
        <time>2026-05-18T11:24:14+02:00</time>
      </trkpt>
      <trkpt lat="48.6922" lon="6.1935">
        <ele>197.60059</ele>
        <time>2026-05-18T11:24:15+02:00</time>
      </trkpt>
      <trkpt lat="48.69224" lon="6.19348">
        <ele>197.60059</ele>
        <time>2026-05-18T11:24:16+02:00</time>
      </trkpt>
      <trkpt lat="48.69227" lon="6.19345">
        <ele>197.60059</ele>
        <time>2026-05-18T11:24:17+02:00</time>
      </trkpt>
      <trkpt lat="48.6923" lon="6.19343">
        <ele>197.60059</ele>
        <time>2026-05-18T11:24:18+02:00</time>
      </trkpt>
      <trkpt lat="48.69233" lon="6.1934">
        <ele>197.60059</ele>
        <time>2026-05-18T11:24:19+02:00</time>
      </trkpt>
      <trkpt lat="48.69237" lon="6.19338">
        <ele>197.60059</ele>
        <time>2026-05-18T11:24:20+02:00</time>
      </trkpt>
      <trkpt lat="48.6924" lon="6.19336">
        <ele>197.7002</ele>
        <time>2026-05-18T11:24:21+02:00</time>
      </trkpt>
      <trkpt lat="48.69243" lon="6.19335">
        <ele>197.7002</ele>
        <time>2026-05-18T11:24:22+02:00</time>
      </trkpt>
      <trkpt lat="48.69247" lon="6.19332">
        <ele>197.60059</ele>
        <time>2026-05-18T11:24:23+02:00</time>
      </trkpt>
      <trkpt lat="48.6925" lon="6.1933">
        <ele>197.5</ele>
        <time>2026-05-18T11:24:24+02:00</time>
      </trkpt>
      <trkpt lat="48.69254" lon="6.19327">
        <ele>197.7002</ele>
        <time>2026-05-18T11:24:25+02:00</time>
      </trkpt>
      <trkpt lat="48.69257" lon="6.19325">
        <ele>197.60059</ele>
        <time>2026-05-18T11:24:26+02:00</time>
      </trkpt>
      <trkpt lat="48.6926" lon="6.19322">
        <ele>197.60059</ele>
        <time>2026-05-18T11:24:27+02:00</time>
      </trkpt>
      <trkpt lat="48.69264" lon="6.1932">
        <ele>197.5</ele>
        <time>2026-05-18T11:24:28+02:00</time>
      </trkpt>
      <trkpt lat="48.69267" lon="6.19317">
        <ele>197.60059</ele>
        <time>2026-05-18T11:24:29+02:00</time>
      </trkpt>
      <trkpt lat="48.6927" lon="6.19315">
        <ele>197.60059</ele>
        <time>2026-05-18T11:24:30+02:00</time>
      </trkpt>
      <trkpt lat="48.69274" lon="6.19312">
        <ele>197.60059</ele>
        <time>2026-05-18T11:24:31+02:00</time>
      </trkpt>
      <trkpt lat="48.69277" lon="6.19309">
        <ele>197.7002</ele>
        <time>2026-05-18T11:24:32+02:00</time>
      </trkpt>
      <trkpt lat="48.69281" lon="6.19307">
        <ele>197.7002</ele>
        <time>2026-05-18T11:24:33+02:00</time>
      </trkpt>
      <trkpt lat="48.69285" lon="6.19304">
        <ele>197.60059</ele>
        <time>2026-05-18T11:24:34+02:00</time>
      </trkpt>
      <trkpt lat="48.69288" lon="6.19302">
        <ele>197.7998</ele>
        <time>2026-05-18T11:24:35+02:00</time>
      </trkpt>
      <trkpt lat="48.69292" lon="6.19299">
        <ele>197.7002</ele>
        <time>2026-05-18T11:24:36+02:00</time>
      </trkpt>
      <trkpt lat="48.69294" lon="6.19298">
        <ele>197.7002</ele>
        <time>2026-05-18T11:24:37+02:00</time>
      </trkpt>
      <trkpt lat="48.69299" lon="6.19294">
        <ele>197.90039</ele>
        <time>2026-05-18T11:24:38+02:00</time>
      </trkpt>
      <trkpt lat="48.69302" lon="6.19291">
        <ele>197.90039</ele>
        <time>2026-05-18T11:24:39+02:00</time>
      </trkpt>
      <trkpt lat="48.69306" lon="6.19289">
        <ele>197.7998</ele>
        <time>2026-05-18T11:24:40+02:00</time>
      </trkpt>
      <trkpt lat="48.6931" lon="6.19286">
        <ele>197.7998</ele>
        <time>2026-05-18T11:24:41+02:00</time>
      </trkpt>
      <trkpt lat="48.69314" lon="6.19284">
        <ele>198</ele>
        <time>2026-05-18T11:24:42+02:00</time>
      </trkpt>
      <trkpt lat="48.69317" lon="6.19282">
        <ele>198</ele>
        <time>2026-05-18T11:24:43+02:00</time>
      </trkpt>
      <trkpt lat="48.69321" lon="6.19279">
        <ele>197.90039</ele>
        <time>2026-05-18T11:24:44+02:00</time>
      </trkpt>
      <trkpt lat="48.69325" lon="6.19277">
        <ele>197.90039</ele>
        <time>2026-05-18T11:24:45+02:00</time>
      </trkpt>
      <trkpt lat="48.69328" lon="6.19275">
        <ele>198</ele>
        <time>2026-05-18T11:24:46+02:00</time>
      </trkpt>
      <trkpt lat="48.69332" lon="6.19272">
        <ele>198</ele>
        <time>2026-05-18T11:24:47+02:00</time>
      </trkpt>
      <trkpt lat="48.69336" lon="6.1927">
        <ele>198</ele>
        <time>2026-05-18T11:24:48+02:00</time>
      </trkpt>
      <trkpt lat="48.6934" lon="6.19268">
        <ele>198.10059</ele>
        <time>2026-05-18T11:24:49+02:00</time>
      </trkpt>
      <trkpt lat="48.69343" lon="6.19265">
        <ele>198.10059</ele>
        <time>2026-05-18T11:24:50+02:00</time>
      </trkpt>
      <trkpt lat="48.69347" lon="6.19262">
        <ele>198.10059</ele>
        <time>2026-05-18T11:24:51+02:00</time>
      </trkpt>
      <trkpt lat="48.6935" lon="6.19259">
        <ele>198.2002</ele>
        <time>2026-05-18T11:24:52+02:00</time>
      </trkpt>
      <trkpt lat="48.69353" lon="6.19256">
        <ele>198.10059</ele>
        <time>2026-05-18T11:24:53+02:00</time>
      </trkpt>
      <trkpt lat="48.69357" lon="6.19253">
        <ele>198.10059</ele>
        <time>2026-05-18T11:24:54+02:00</time>
      </trkpt>
      <trkpt lat="48.6936" lon="6.19251">
        <ele>198.2002</ele>
        <time>2026-05-18T11:24:55+02:00</time>
      </trkpt>
      <trkpt lat="48.69364" lon="6.19249">
        <ele>198.2002</ele>
        <time>2026-05-18T11:24:56+02:00</time>
      </trkpt>
      <trkpt lat="48.69367" lon="6.19247">
        <ele>198.2002</ele>
        <time>2026-05-18T11:24:57+02:00</time>
      </trkpt>
      <trkpt lat="48.6937" lon="6.19245">
        <ele>198.10059</ele>
        <time>2026-05-18T11:24:58+02:00</time>
      </trkpt>
      <trkpt lat="48.69373" lon="6.19243">
        <ele>198.10059</ele>
        <time>2026-05-18T11:24:59+02:00</time>
      </trkpt>
      <trkpt lat="48.69376" lon="6.19241">
        <ele>198.2002</ele>
        <time>2026-05-18T11:25:00+02:00</time>
      </trkpt>
      <trkpt lat="48.69379" lon="6.1924">
        <ele>198.2002</ele>
        <time>2026-05-18T11:25:01+02:00</time>
      </trkpt>
      <trkpt lat="48.69382" lon="6.19238">
        <ele>198.10059</ele>
        <time>2026-05-18T11:25:02+02:00</time>
      </trkpt>
      <trkpt lat="48.69384" lon="6.19237">
        <ele>198.10059</ele>
        <time>2026-05-18T11:25:03+02:00</time>
      </trkpt>
      <trkpt lat="48.69384" lon="6.19236">
        <ele>198.10059</ele>
        <time>2026-05-18T11:25:04+02:00</time>
      </trkpt>
      <trkpt lat="48.69384" lon="6.19236">
        <ele>198.10059</ele>
        <time>2026-05-18T11:25:05+02:00</time>
      </trkpt>
      <trkpt lat="48.69384" lon="6.19236">
        <ele>198.10059</ele>
        <time>2026-05-18T11:25:06+02:00</time>
      </trkpt>
      <trkpt lat="48.69384" lon="6.19236">
        <ele>198.10059</ele>
        <time>2026-05-18T11:25:07+02:00</time>
      </trkpt>
      <trkpt lat="48.69384" lon="6.19236">
        <ele>198.10059</ele>
        <time>2026-05-18T11:25:08+02:00</time>
      </trkpt>
      <trkpt lat="48.69381" lon="6.19241">
        <ele>198.10059</ele>
        <time>2026-05-18T11:25:24+02:00</time>
      </trkpt>
      <trkpt lat="48.69381" lon="6.19241">
        <ele>198.10059</ele>
        <time>2026-05-18T11:25:25+02:00</time>
      </trkpt>
      <trkpt lat="48.6939" lon="6.19239">
        <ele>198.10059</ele>
        <time>2026-05-18T11:25:52+02:00</time>
      </trkpt>
      <trkpt lat="48.69392" lon="6.1924">
        <ele>198.10059</ele>
        <time>2026-05-18T11:25:53+02:00</time>
      </trkpt>
      <trkpt lat="48.69393" lon="6.19242">
        <ele>198.10059</ele>
        <time>2026-05-18T11:25:54+02:00</time>
      </trkpt>
      <trkpt lat="48.69393" lon="6.19245">
        <ele>198</ele>
        <time>2026-05-18T11:25:55+02:00</time>
      </trkpt>
      <trkpt lat="48.69394" lon="6.19247">
        <ele>198</ele>
        <time>2026-05-18T11:25:56+02:00</time>
      </trkpt>
      <trkpt lat="48.69394" lon="6.19249">
        <ele>198</ele>
        <time>2026-05-18T11:25:57+02:00</time>
      </trkpt>
      <trkpt lat="48.69394" lon="6.19251">
        <ele>198</ele>
        <time>2026-05-18T11:25:58+02:00</time>
      </trkpt>
      <trkpt lat="48.69395" lon="6.19253">
        <ele>198</ele>
        <time>2026-05-18T11:25:59+02:00</time>
      </trkpt>
      <trkpt lat="48.69396" lon="6.19255">
        <ele>198</ele>
        <time>2026-05-18T11:26:00+02:00</time>
      </trkpt>
      <trkpt lat="48.69397" lon="6.19256">
        <ele>197.90039</ele>
        <time>2026-05-18T11:26:01+02:00</time>
      </trkpt>
      <trkpt lat="48.69397" lon="6.19258">
        <ele>197.90039</ele>
        <time>2026-05-18T11:26:02+02:00</time>
      </trkpt>
      <trkpt lat="48.69397" lon="6.1926">
        <ele>197.90039</ele>
        <time>2026-05-18T11:26:03+02:00</time>
      </trkpt>
      <trkpt lat="48.69397" lon="6.1926">
        <ele>197.90039</ele>
        <time>2026-05-18T11:26:04+02:00</time>
      </trkpt>
      <trkpt lat="48.69397" lon="6.1926">
        <ele>197.90039</ele>
        <time>2026-05-18T11:26:05+02:00</time>
      </trkpt>
      <trkpt lat="48.69397" lon="6.1926">
        <ele>197.90039</ele>
        <time>2026-05-18T11:26:06+02:00</time>
      </trkpt>
      <trkpt lat="48.69404" lon="6.19272">
        <ele>197.7002</ele>
        <time>2026-05-18T11:26:16+02:00</time>
      </trkpt>
      <trkpt lat="48.69408" lon="6.19274">
        <ele>197.7002</ele>
        <time>2026-05-18T11:26:17+02:00</time>
      </trkpt>
      <trkpt lat="48.69411" lon="6.19275">
        <ele>197.7002</ele>
        <time>2026-05-18T11:26:18+02:00</time>
      </trkpt>
      <trkpt lat="48.69413" lon="6.19275">
        <ele>197.7002</ele>
        <time>2026-05-18T11:26:19+02:00</time>
      </trkpt>
      <trkpt lat="48.69415" lon="6.19274">
        <ele>197.7002</ele>
        <time>2026-05-18T11:26:20+02:00</time>
      </trkpt>
      <trkpt lat="48.69417" lon="6.19273">
        <ele>197.7002</ele>
        <time>2026-05-18T11:26:21+02:00</time>
      </trkpt>
      <trkpt lat="48.69418" lon="6.19272">
        <ele>197.7002</ele>
        <time>2026-05-18T11:26:22+02:00</time>
      </trkpt>
      <trkpt lat="48.6942" lon="6.19271">
        <ele>197.7002</ele>
        <time>2026-05-18T11:26:23+02:00</time>
      </trkpt>
      <trkpt lat="48.69422" lon="6.19269">
        <ele>197.7002</ele>
        <time>2026-05-18T11:26:24+02:00</time>
      </trkpt>
      <trkpt lat="48.69423" lon="6.19268">
        <ele>197.7002</ele>
        <time>2026-05-18T11:26:25+02:00</time>
      </trkpt>
      <trkpt lat="48.69425" lon="6.19267">
        <ele>197.7002</ele>
        <time>2026-05-18T11:26:26+02:00</time>
      </trkpt>
      <trkpt lat="48.69425" lon="6.19265">
        <ele>197.7002</ele>
        <time>2026-05-18T11:26:27+02:00</time>
      </trkpt>
      <trkpt lat="48.69426" lon="6.19264">
        <ele>197.7002</ele>
        <time>2026-05-18T11:26:28+02:00</time>
      </trkpt>
      <trkpt lat="48.69427" lon="6.19263">
        <ele>197.7002</ele>
        <time>2026-05-18T11:26:29+02:00</time>
      </trkpt>
      <trkpt lat="48.69427" lon="6.19261">
        <ele>197.7002</ele>
        <time>2026-05-18T11:26:30+02:00</time>
      </trkpt>
      <trkpt lat="48.69426" lon="6.1926">
        <ele>197.7002</ele>
        <time>2026-05-18T11:26:31+02:00</time>
      </trkpt>
      <trkpt lat="48.69427" lon="6.1926">
        <ele>197.7002</ele>
        <time>2026-05-18T11:26:32+02:00</time>
      </trkpt>
      <trkpt lat="48.69427" lon="6.1926">
        <ele>197.7002</ele>
        <time>2026-05-18T11:26:33+02:00</time>
      </trkpt>
      <trkpt lat="48.69427" lon="6.1926">
        <ele>197.7002</ele>
        <time>2026-05-18T11:26:34+02:00</time>
      </trkpt>
      <trkpt lat="48.69422" lon="6.19244">
        <ele>197.90039</ele>
        <time>2026-05-18T11:26:42+02:00</time>
      </trkpt>
      <trkpt lat="48.69421" lon="6.19242">
        <ele>198</ele>
        <time>2026-05-18T11:26:43+02:00</time>
      </trkpt>
      <trkpt lat="48.69419" lon="6.19239">
        <ele>198</ele>
        <time>2026-05-18T11:26:44+02:00</time>
      </trkpt>
      <trkpt lat="48.69418" lon="6.19238">
        <ele>198</ele>
        <time>2026-05-18T11:26:45+02:00</time>
      </trkpt>
      <trkpt lat="48.69417" lon="6.19236">
        <ele>198</ele>
        <time>2026-05-18T11:26:46+02:00</time>
      </trkpt>
      <trkpt lat="48.69416" lon="6.19235">
        <ele>198</ele>
        <time>2026-05-18T11:26:47+02:00</time>
      </trkpt>
      <trkpt lat="48.69415" lon="6.19233">
        <ele>198.10059</ele>
        <time>2026-05-18T11:26:48+02:00</time>
      </trkpt>
      <trkpt lat="48.69414" lon="6.19231">
        <ele>198.10059</ele>
        <time>2026-05-18T11:26:49+02:00</time>
      </trkpt>
      <trkpt lat="48.69413" lon="6.19228">
        <ele>198.10059</ele>
        <time>2026-05-18T11:26:50+02:00</time>
      </trkpt>
      <trkpt lat="48.69412" lon="6.19225">
        <ele>198.2002</ele>
        <time>2026-05-18T11:26:51+02:00</time>
      </trkpt>
      <trkpt lat="48.6941" lon="6.19222">
        <ele>198.2002</ele>
        <time>2026-05-18T11:26:52+02:00</time>
      </trkpt>
      <trkpt lat="48.69409" lon="6.19219">
        <ele>198.2002</ele>
        <time>2026-05-18T11:26:53+02:00</time>
      </trkpt>
      <trkpt lat="48.69407" lon="6.19216">
        <ele>198.2002</ele>
        <time>2026-05-18T11:26:54+02:00</time>
      </trkpt>
      <trkpt lat="48.69405" lon="6.19213">
        <ele>198.2002</ele>
        <time>2026-05-18T11:26:55+02:00</time>
      </trkpt>
      <trkpt lat="48.69403" lon="6.1921">
        <ele>198.2002</ele>
        <time>2026-05-18T11:26:56+02:00</time>
      </trkpt>
      <trkpt lat="48.69402" lon="6.19207">
        <ele>198.2998</ele>
        <time>2026-05-18T11:26:57+02:00</time>
      </trkpt>
      <trkpt lat="48.694" lon="6.19204">
        <ele>198.2998</ele>
        <time>2026-05-18T11:26:58+02:00</time>
      </trkpt>
      <trkpt lat="48.69399" lon="6.19201">
        <ele>198.2998</ele>
        <time>2026-05-18T11:26:59+02:00</time>
      </trkpt>
      <trkpt lat="48.69398" lon="6.19199">
        <ele>198.40039</ele>
        <time>2026-05-18T11:27:00+02:00</time>
      </trkpt>
      <trkpt lat="48.69397" lon="6.19198">
        <ele>198.40039</ele>
        <time>2026-05-18T11:27:01+02:00</time>
      </trkpt>
      <trkpt lat="48.69397" lon="6.19197">
        <ele>198.40039</ele>
        <time>2026-05-18T11:27:02+02:00</time>
      </trkpt>
      <trkpt lat="48.69397" lon="6.19197">
        <ele>198.40039</ele>
        <time>2026-05-18T11:27:03+02:00</time>
      </trkpt>
      <trkpt lat="48.69397" lon="6.19197">
        <ele>198.40039</ele>
        <time>2026-05-18T11:27:04+02:00</time>
      </trkpt>
      <trkpt lat="48.69376" lon="6.19172">
        <ele>198.7998</ele>
        <time>2026-05-18T11:28:25+02:00</time>
      </trkpt>
      <trkpt lat="48.69373" lon="6.19167">
        <ele>198.90039</ele>
        <time>2026-05-18T11:28:26+02:00</time>
      </trkpt>
      <trkpt lat="48.69371" lon="6.19162">
        <ele>199</ele>
        <time>2026-05-18T11:28:27+02:00</time>
      </trkpt>
      <trkpt lat="48.69369" lon="6.19157">
        <ele>199</ele>
        <time>2026-05-18T11:28:28+02:00</time>
      </trkpt>
      <trkpt lat="48.69366" lon="6.19152">
        <ele>199</ele>
        <time>2026-05-18T11:28:29+02:00</time>
      </trkpt>
      <trkpt lat="48.69364" lon="6.19146">
        <ele>199.10059</ele>
        <time>2026-05-18T11:28:30+02:00</time>
      </trkpt>
      <trkpt lat="48.69362" lon="6.19139">
        <ele>199.10059</ele>
        <time>2026-05-18T11:28:31+02:00</time>
      </trkpt>
      <trkpt lat="48.69359" lon="6.19134">
        <ele>199.10059</ele>
        <time>2026-05-18T11:28:32+02:00</time>
      </trkpt>
      <trkpt lat="48.69357" lon="6.19127">
        <ele>199.10059</ele>
        <time>2026-05-18T11:28:33+02:00</time>
      </trkpt>
      <trkpt lat="48.69354" lon="6.19121">
        <ele>199</ele>
        <time>2026-05-18T11:28:34+02:00</time>
      </trkpt>
      <trkpt lat="48.69352" lon="6.19116">
        <ele>199</ele>
        <time>2026-05-18T11:28:35+02:00</time>
      </trkpt>
      <trkpt lat="48.69349" lon="6.1911">
        <ele>199</ele>
        <time>2026-05-18T11:28:36+02:00</time>
      </trkpt>
      <trkpt lat="48.69346" lon="6.19104">
        <ele>198.90039</ele>
        <time>2026-05-18T11:28:37+02:00</time>
      </trkpt>
      <trkpt lat="48.69343" lon="6.19097">
        <ele>198.90039</ele>
        <time>2026-05-18T11:28:38+02:00</time>
      </trkpt>
      <trkpt lat="48.6934" lon="6.19091">
        <ele>198.90039</ele>
        <time>2026-05-18T11:28:39+02:00</time>
      </trkpt>
      <trkpt lat="48.69337" lon="6.19085">
        <ele>198.7998</ele>
        <time>2026-05-18T11:28:40+02:00</time>
      </trkpt>
      <trkpt lat="48.69333" lon="6.19078">
        <ele>198.7998</ele>
        <time>2026-05-18T11:28:41+02:00</time>
      </trkpt>
      <trkpt lat="48.6933" lon="6.19072">
        <ele>198.7998</ele>
        <time>2026-05-18T11:28:42+02:00</time>
      </trkpt>
      <trkpt lat="48.69327" lon="6.19065">
        <ele>198.7998</ele>
        <time>2026-05-18T11:28:43+02:00</time>
      </trkpt>
      <trkpt lat="48.69324" lon="6.19058">
        <ele>198.7002</ele>
        <time>2026-05-18T11:28:44+02:00</time>
      </trkpt>
      <trkpt lat="48.69322" lon="6.19051">
        <ele>198.7002</ele>
        <time>2026-05-18T11:28:45+02:00</time>
      </trkpt>
      <trkpt lat="48.6932" lon="6.19044">
        <ele>198.5</ele>
        <time>2026-05-18T11:28:46+02:00</time>
      </trkpt>
      <trkpt lat="48.69318" lon="6.19037">
        <ele>198.5</ele>
        <time>2026-05-18T11:28:47+02:00</time>
      </trkpt>
      <trkpt lat="48.69317" lon="6.1903">
        <ele>198.7002</ele>
        <time>2026-05-18T11:28:48+02:00</time>
      </trkpt>
      <trkpt lat="48.69316" lon="6.19027">
        <ele>198.60059</ele>
        <time>2026-05-18T11:28:49+02:00</time>
      </trkpt>
      <trkpt lat="48.69315" lon="6.19016">
        <ele>198.60059</ele>
        <time>2026-05-18T11:28:50+02:00</time>
      </trkpt>
      <trkpt lat="48.69315" lon="6.19009">
        <ele>198.60059</ele>
        <time>2026-05-18T11:28:51+02:00</time>
      </trkpt>
      <trkpt lat="48.69315" lon="6.19004">
        <ele>198.60059</ele>
        <time>2026-05-18T11:28:52+02:00</time>
      </trkpt>
      <trkpt lat="48.69315" lon="6.18999">
        <ele>198.60059</ele>
        <time>2026-05-18T11:28:53+02:00</time>
      </trkpt>
      <trkpt lat="48.69315" lon="6.18995">
        <ele>198.60059</ele>
        <time>2026-05-18T11:28:54+02:00</time>
      </trkpt>
      <trkpt lat="48.69315" lon="6.18992">
        <ele>198.7998</ele>
        <time>2026-05-18T11:28:55+02:00</time>
      </trkpt>
      <trkpt lat="48.69315" lon="6.1899">
        <ele>198.7998</ele>
        <time>2026-05-18T11:28:56+02:00</time>
      </trkpt>
      <trkpt lat="48.69315" lon="6.18989">
        <ele>198.7998</ele>
        <time>2026-05-18T11:28:57+02:00</time>
      </trkpt>
      <trkpt lat="48.69314" lon="6.18988">
        <ele>198.7998</ele>
        <time>2026-05-18T11:28:58+02:00</time>
      </trkpt>
      <trkpt lat="48.69314" lon="6.18987">
        <ele>198.7998</ele>
        <time>2026-05-18T11:28:59+02:00</time>
      </trkpt>
      <trkpt lat="48.69314" lon="6.18987">
        <ele>198.7998</ele>
        <time>2026-05-18T11:29:00+02:00</time>
      </trkpt>
      <trkpt lat="48.6931" lon="6.18964">
        <ele>199.5</ele>
        <time>2026-05-18T11:29:14+02:00</time>
      </trkpt>
      <trkpt lat="48.69309" lon="6.18958">
        <ele>199.7998</ele>
        <time>2026-05-18T11:29:15+02:00</time>
      </trkpt>
      <trkpt lat="48.69307" lon="6.18952">
        <ele>199.7998</ele>
        <time>2026-05-18T11:29:16+02:00</time>
      </trkpt>
      <trkpt lat="48.69305" lon="6.18945">
        <ele>200.2002</ele>
        <time>2026-05-18T11:29:17+02:00</time>
      </trkpt>
      <trkpt lat="48.69303" lon="6.18939">
        <ele>200.40039</ele>
        <time>2026-05-18T11:29:18+02:00</time>
      </trkpt>
      <trkpt lat="48.69301" lon="6.18933">
        <ele>200.60059</ele>
        <time>2026-05-18T11:29:19+02:00</time>
      </trkpt>
      <trkpt lat="48.69299" lon="6.18927">
        <ele>200.7002</ele>
        <time>2026-05-18T11:29:20+02:00</time>
      </trkpt>
      <trkpt lat="48.69297" lon="6.1892">
        <ele>200.7998</ele>
        <time>2026-05-18T11:29:21+02:00</time>
      </trkpt>
      <trkpt lat="48.69295" lon="6.18913">
        <ele>201</ele>
        <time>2026-05-18T11:29:22+02:00</time>
      </trkpt>
      <trkpt lat="48.69293" lon="6.18905">
        <ele>201.2002</ele>
        <time>2026-05-18T11:29:23+02:00</time>
      </trkpt>
      <trkpt lat="48.69291" lon="6.18898">
        <ele>201.40039</ele>
        <time>2026-05-18T11:29:24+02:00</time>
      </trkpt>
      <trkpt lat="48.69289" lon="6.18891">
        <ele>201.40039</ele>
        <time>2026-05-18T11:29:25+02:00</time>
      </trkpt>
      <trkpt lat="48.69286" lon="6.18884">
        <ele>201.5</ele>
        <time>2026-05-18T11:29:26+02:00</time>
      </trkpt>
      <trkpt lat="48.69284" lon="6.18877">
        <ele>201.7002</ele>
        <time>2026-05-18T11:29:27+02:00</time>
      </trkpt>
      <trkpt lat="48.69282" lon="6.1887">
        <ele>201.7998</ele>
        <time>2026-05-18T11:29:28+02:00</time>
      </trkpt>
      <trkpt lat="48.69281" lon="6.18866">
        <ele>201.7998</ele>
        <time>2026-05-18T11:29:29+02:00</time>
      </trkpt>
      <trkpt lat="48.69278" lon="6.18856">
        <ele>202</ele>
        <time>2026-05-18T11:29:30+02:00</time>
      </trkpt>
      <trkpt lat="48.69276" lon="6.1885">
        <ele>201.90039</ele>
        <time>2026-05-18T11:29:31+02:00</time>
      </trkpt>
      <trkpt lat="48.69274" lon="6.18843">
        <ele>202</ele>
        <time>2026-05-18T11:29:32+02:00</time>
      </trkpt>
      <trkpt lat="48.69272" lon="6.18837">
        <ele>202.10059</ele>
        <time>2026-05-18T11:29:33+02:00</time>
      </trkpt>
      <trkpt lat="48.6927" lon="6.1883">
        <ele>202</ele>
        <time>2026-05-18T11:29:34+02:00</time>
      </trkpt>
      <trkpt lat="48.69268" lon="6.18823">
        <ele>202</ele>
        <time>2026-05-18T11:29:35+02:00</time>
      </trkpt>
      <trkpt lat="48.69265" lon="6.18816">
        <ele>201.7998</ele>
        <time>2026-05-18T11:29:36+02:00</time>
      </trkpt>
      <trkpt lat="48.69264" lon="6.1881">
        <ele>201.7998</ele>
        <time>2026-05-18T11:29:37+02:00</time>
      </trkpt>
      <trkpt lat="48.69261" lon="6.18803">
        <ele>201.7002</ele>
        <time>2026-05-18T11:29:38+02:00</time>
      </trkpt>
      <trkpt lat="48.69259" lon="6.18795">
        <ele>201.5</ele>
        <time>2026-05-18T11:29:39+02:00</time>
      </trkpt>
      <trkpt lat="48.69256" lon="6.18788">
        <ele>201.5</ele>
        <time>2026-05-18T11:29:40+02:00</time>
      </trkpt>
      <trkpt lat="48.69254" lon="6.1878">
        <ele>201.2998</ele>
        <time>2026-05-18T11:29:41+02:00</time>
      </trkpt>
      <trkpt lat="48.69251" lon="6.18773">
        <ele>201.2002</ele>
        <time>2026-05-18T11:29:42+02:00</time>
      </trkpt>
      <trkpt lat="48.6925" lon="6.18769">
        <ele>201.2002</ele>
        <time>2026-05-18T11:29:43+02:00</time>
      </trkpt>
      <trkpt lat="48.69246" lon="6.18758">
        <ele>201</ele>
        <time>2026-05-18T11:29:44+02:00</time>
      </trkpt>
      <trkpt lat="48.69244" lon="6.18751">
        <ele>201</ele>
        <time>2026-05-18T11:29:45+02:00</time>
      </trkpt>
      <trkpt lat="48.69241" lon="6.18743">
        <ele>201</ele>
        <time>2026-05-18T11:29:46+02:00</time>
      </trkpt>
      <trkpt lat="48.69239" lon="6.18736">
        <ele>201</ele>
        <time>2026-05-18T11:29:47+02:00</time>
      </trkpt>
      <trkpt lat="48.69237" lon="6.18729">
        <ele>201</ele>
        <time>2026-05-18T11:29:48+02:00</time>
      </trkpt>
      <trkpt lat="48.69235" lon="6.18723">
        <ele>201.10059</ele>
        <time>2026-05-18T11:29:49+02:00</time>
      </trkpt>
      <trkpt lat="48.69233" lon="6.18719">
        <ele>201.2998</ele>
        <time>2026-05-18T11:29:50+02:00</time>
      </trkpt>
      <trkpt lat="48.69233" lon="6.18717">
        <ele>201.2998</ele>
        <time>2026-05-18T11:29:51+02:00</time>
      </trkpt>
      <trkpt lat="48.6923" lon="6.18711">
        <ele>201.2998</ele>
        <time>2026-05-18T11:29:52+02:00</time>
      </trkpt>
      <trkpt lat="48.69228" lon="6.18707">
        <ele>201.40039</ele>
        <time>2026-05-18T11:29:53+02:00</time>
      </trkpt>
      <trkpt lat="48.69226" lon="6.18702">
        <ele>201.5</ele>
        <time>2026-05-18T11:29:54+02:00</time>
      </trkpt>
      <trkpt lat="48.69224" lon="6.18696">
        <ele>201.7002</ele>
        <time>2026-05-18T11:29:55+02:00</time>
      </trkpt>
      <trkpt lat="48.69222" lon="6.18691">
        <ele>201.90039</ele>
        <time>2026-05-18T11:29:56+02:00</time>
      </trkpt>
      <trkpt lat="48.69221" lon="6.18686">
        <ele>201.90039</ele>
        <time>2026-05-18T11:29:57+02:00</time>
      </trkpt>
      <trkpt lat="48.6922" lon="6.18683">
        <ele>202.2002</ele>
        <time>2026-05-18T11:29:58+02:00</time>
      </trkpt>
      <trkpt lat="48.69218" lon="6.18676">
        <ele>202.40039</ele>
        <time>2026-05-18T11:29:59+02:00</time>
      </trkpt>
      <trkpt lat="48.69217" lon="6.18673">
        <ele>202.40039</ele>
        <time>2026-05-18T11:30:00+02:00</time>
      </trkpt>
      <trkpt lat="48.69216" lon="6.18669">
        <ele>202.40039</ele>
        <time>2026-05-18T11:30:01+02:00</time>
      </trkpt>
      <trkpt lat="48.69215" lon="6.18665">
        <ele>202.7998</ele>
        <time>2026-05-18T11:30:02+02:00</time>
      </trkpt>
      <trkpt lat="48.69213" lon="6.18663">
        <ele>202.7998</ele>
        <time>2026-05-18T11:30:03+02:00</time>
      </trkpt>
      <trkpt lat="48.69212" lon="6.1866">
        <ele>202.7998</ele>
        <time>2026-05-18T11:30:04+02:00</time>
      </trkpt>
      <trkpt lat="48.69212" lon="6.18658">
        <ele>203.10059</ele>
        <time>2026-05-18T11:30:05+02:00</time>
      </trkpt>
      <trkpt lat="48.69211" lon="6.18656">
        <ele>203.10059</ele>
        <time>2026-05-18T11:30:06+02:00</time>
      </trkpt>
      <trkpt lat="48.6921" lon="6.18653">
        <ele>203.10059</ele>
        <time>2026-05-18T11:30:07+02:00</time>
      </trkpt>
      <trkpt lat="48.69209" lon="6.18651">
        <ele>203.2998</ele>
        <time>2026-05-18T11:30:08+02:00</time>
      </trkpt>
      <trkpt lat="48.69209" lon="6.1865">
        <ele>203.5</ele>
        <time>2026-05-18T11:30:09+02:00</time>
      </trkpt>
      <trkpt lat="48.69209" lon="6.18649">
        <ele>203.5</ele>
        <time>2026-05-18T11:30:10+02:00</time>
      </trkpt>
      <trkpt lat="48.69208" lon="6.18648">
        <ele>203.5</ele>
        <time>2026-05-18T11:30:11+02:00</time>
      </trkpt>
      <trkpt lat="48.69208" lon="6.18648">
        <ele>203.5</ele>
        <time>2026-05-18T11:30:12+02:00</time>
      </trkpt>
      <trkpt lat="48.69208" lon="6.18648">
        <ele>203.5</ele>
        <time>2026-05-18T11:30:13+02:00</time>
      </trkpt>
      <trkpt lat="48.69233" lon="6.18726">
        <ele>201.10059</ele>
        <time>2026-05-18T11:41:16+02:00</time>
      </trkpt>
      <trkpt lat="48.69235" lon="6.18733">
        <ele>201</ele>
        <time>2026-05-18T11:41:17+02:00</time>
      </trkpt>
      <trkpt lat="48.69237" lon="6.18739">
        <ele>200.90039</ele>
        <time>2026-05-18T11:41:18+02:00</time>
      </trkpt>
      <trkpt lat="48.69238" lon="6.18745">
        <ele>200.90039</ele>
        <time>2026-05-18T11:41:19+02:00</time>
      </trkpt>
      <trkpt lat="48.6924" lon="6.18752">
        <ele>200.90039</ele>
        <time>2026-05-18T11:41:20+02:00</time>
      </trkpt>
      <trkpt lat="48.69242" lon="6.18758">
        <ele>200.90039</ele>
        <time>2026-05-18T11:41:21+02:00</time>
      </trkpt>
      <trkpt lat="48.69244" lon="6.18765">
        <ele>201.10059</ele>
        <time>2026-05-18T11:41:22+02:00</time>
      </trkpt>
      <trkpt lat="48.69246" lon="6.18771">
        <ele>201.10059</ele>
        <time>2026-05-18T11:41:23+02:00</time>
      </trkpt>
      <trkpt lat="48.69248" lon="6.18778">
        <ele>201.10059</ele>
        <time>2026-05-18T11:41:24+02:00</time>
      </trkpt>
      <trkpt lat="48.6925" lon="6.18784">
        <ele>201.2998</ele>
        <time>2026-05-18T11:41:25+02:00</time>
      </trkpt>
      <trkpt lat="48.69253" lon="6.18791">
        <ele>201.40039</ele>
        <time>2026-05-18T11:41:26+02:00</time>
      </trkpt>
      <trkpt lat="48.69255" lon="6.18797">
        <ele>201.60059</ele>
        <time>2026-05-18T11:41:27+02:00</time>
      </trkpt>
      <trkpt lat="48.69257" lon="6.18803">
        <ele>201.60059</ele>
        <time>2026-05-18T11:41:28+02:00</time>
      </trkpt>
      <trkpt lat="48.69259" lon="6.1881">
        <ele>201.7002</ele>
        <time>2026-05-18T11:41:29+02:00</time>
      </trkpt>
      <trkpt lat="48.69261" lon="6.18816">
        <ele>201.7998</ele>
        <time>2026-05-18T11:41:30+02:00</time>
      </trkpt>
      <trkpt lat="48.69262" lon="6.1882">
        <ele>201.7998</ele>
        <time>2026-05-18T11:41:31+02:00</time>
      </trkpt>
      <trkpt lat="48.69266" lon="6.18831">
        <ele>202</ele>
        <time>2026-05-18T11:41:32+02:00</time>
      </trkpt>
      <trkpt lat="48.69268" lon="6.18838">
        <ele>202</ele>
        <time>2026-05-18T11:41:33+02:00</time>
      </trkpt>
      <trkpt lat="48.6927" lon="6.18845">
        <ele>201.90039</ele>
        <time>2026-05-18T11:41:34+02:00</time>
      </trkpt>
      <trkpt lat="48.69273" lon="6.18852">
        <ele>201.90039</ele>
        <time>2026-05-18T11:41:35+02:00</time>
      </trkpt>
      <trkpt lat="48.69275" lon="6.18859">
        <ele>201.90039</ele>
        <time>2026-05-18T11:41:36+02:00</time>
      </trkpt>
      <trkpt lat="48.69278" lon="6.18866">
        <ele>201.7998</ele>
        <time>2026-05-18T11:41:37+02:00</time>
      </trkpt>
      <trkpt lat="48.6928" lon="6.18874">
        <ele>201.7002</ele>
        <time>2026-05-18T11:41:38+02:00</time>
      </trkpt>
      <trkpt lat="48.69283" lon="6.1888">
        <ele>201.7002</ele>
        <time>2026-05-18T11:41:39+02:00</time>
      </trkpt>
      <trkpt lat="48.69285" lon="6.18888">
        <ele>201.5</ele>
        <time>2026-05-18T11:41:40+02:00</time>
      </trkpt>
      <trkpt lat="48.69288" lon="6.18894">
        <ele>201.40039</ele>
        <time>2026-05-18T11:41:41+02:00</time>
      </trkpt>
      <trkpt lat="48.69291" lon="6.18901">
        <ele>201.2002</ele>
        <time>2026-05-18T11:41:42+02:00</time>
      </trkpt>
      <trkpt lat="48.69293" lon="6.18908">
        <ele>201</ele>
        <time>2026-05-18T11:41:43+02:00</time>
      </trkpt>
      <trkpt lat="48.69296" lon="6.18915">
        <ele>201</ele>
        <time>2026-05-18T11:41:44+02:00</time>
      </trkpt>
      <trkpt lat="48.69297" lon="6.18923">
        <ele>200.7998</ele>
        <time>2026-05-18T11:41:45+02:00</time>
      </trkpt>
      <trkpt lat="48.69299" lon="6.1893">
        <ele>200.7002</ele>
        <time>2026-05-18T11:41:46+02:00</time>
      </trkpt>
      <trkpt lat="48.69301" lon="6.18936">
        <ele>200.40039</ele>
        <time>2026-05-18T11:41:47+02:00</time>
      </trkpt>
      <trkpt lat="48.69303" lon="6.18941">
        <ele>200.40039</ele>
        <time>2026-05-18T11:41:48+02:00</time>
      </trkpt>
      <trkpt lat="48.69304" lon="6.18944">
        <ele>200.2002</ele>
        <time>2026-05-18T11:41:49+02:00</time>
      </trkpt>
      <trkpt lat="48.69306" lon="6.18948">
        <ele>200</ele>
        <time>2026-05-18T11:41:50+02:00</time>
      </trkpt>
      <trkpt lat="48.69306" lon="6.18949">
        <ele>200</ele>
        <time>2026-05-18T11:41:51+02:00</time>
      </trkpt>
      <trkpt lat="48.69307" lon="6.18949">
        <ele>200</ele>
        <time>2026-05-18T11:41:52+02:00</time>
      </trkpt>
      <trkpt lat="48.69307" lon="6.18949">
        <ele>200</ele>
        <time>2026-05-18T11:41:53+02:00</time>
      </trkpt>
      <trkpt lat="48.69307" lon="6.18949">
        <ele>200</ele>
        <time>2026-05-18T11:41:54+02:00</time>
      </trkpt>
      <trkpt lat="48.69307" lon="6.18949">
        <ele>200</ele>
        <time>2026-05-18T11:41:55+02:00</time>
      </trkpt>
      <trkpt lat="48.69309" lon="6.18978">
        <ele>199.10059</ele>
        <time>2026-05-18T11:42:20+02:00</time>
      </trkpt>
      <trkpt lat="48.69309" lon="6.18984">
        <ele>199.10059</ele>
        <time>2026-05-18T11:42:21+02:00</time>
      </trkpt>
      <trkpt lat="48.69308" lon="6.1899">
        <ele>199</ele>
        <time>2026-05-18T11:42:22+02:00</time>
      </trkpt>
      <trkpt lat="48.69308" lon="6.18996">
        <ele>198.7998</ele>
        <time>2026-05-18T11:42:23+02:00</time>
      </trkpt>
      <trkpt lat="48.69307" lon="6.19002">
        <ele>198.7998</ele>
        <time>2026-05-18T11:42:24+02:00</time>
      </trkpt>
      <trkpt lat="48.69307" lon="6.19009">
        <ele>198.7998</ele>
        <time>2026-05-18T11:42:25+02:00</time>
      </trkpt>
      <trkpt lat="48.69307" lon="6.19015">
        <ele>198.7998</ele>
        <time>2026-05-18T11:42:26+02:00</time>
      </trkpt>
      <trkpt lat="48.69308" lon="6.19022">
        <ele>198.7998</ele>
        <time>2026-05-18T11:42:27+02:00</time>
      </trkpt>
      <trkpt lat="48.69309" lon="6.19028">
        <ele>198.7998</ele>
        <time>2026-05-18T11:42:28+02:00</time>
      </trkpt>
      <trkpt lat="48.6931" lon="6.19035">
        <ele>198.90039</ele>
        <time>2026-05-18T11:42:29+02:00</time>
      </trkpt>
      <trkpt lat="48.69311" lon="6.19041">
        <ele>198.90039</ele>
        <time>2026-05-18T11:42:30+02:00</time>
      </trkpt>
      <trkpt lat="48.69313" lon="6.19047">
        <ele>198.7998</ele>
        <time>2026-05-18T11:42:31+02:00</time>
      </trkpt>
      <trkpt lat="48.69315" lon="6.19054">
        <ele>198.90039</ele>
        <time>2026-05-18T11:42:32+02:00</time>
      </trkpt>
      <trkpt lat="48.69317" lon="6.1906">
        <ele>198.90039</ele>
        <time>2026-05-18T11:42:33+02:00</time>
      </trkpt>
      <trkpt lat="48.6932" lon="6.19066">
        <ele>198.90039</ele>
        <time>2026-05-18T11:42:34+02:00</time>
      </trkpt>
      <trkpt lat="48.69323" lon="6.19073">
        <ele>198.7998</ele>
        <time>2026-05-18T11:42:35+02:00</time>
      </trkpt>
      <trkpt lat="48.69326" lon="6.19079">
        <ele>198.7998</ele>
        <time>2026-05-18T11:42:36+02:00</time>
      </trkpt>
      <trkpt lat="48.6933" lon="6.19085">
        <ele>198.90039</ele>
        <time>2026-05-18T11:42:37+02:00</time>
      </trkpt>
      <trkpt lat="48.69333" lon="6.19091">
        <ele>198.90039</ele>
        <time>2026-05-18T11:42:38+02:00</time>
      </trkpt>
      <trkpt lat="48.69335" lon="6.19097">
        <ele>199</ele>
        <time>2026-05-18T11:42:39+02:00</time>
      </trkpt>
      <trkpt lat="48.69338" lon="6.19103">
        <ele>199</ele>
        <time>2026-05-18T11:42:40+02:00</time>
      </trkpt>
      <trkpt lat="48.69341" lon="6.19108">
        <ele>199</ele>
        <time>2026-05-18T11:42:41+02:00</time>
      </trkpt>
      <trkpt lat="48.69343" lon="6.19114">
        <ele>199.10059</ele>
        <time>2026-05-18T11:42:42+02:00</time>
      </trkpt>
      <trkpt lat="48.69346" lon="6.1912">
        <ele>199.10059</ele>
        <time>2026-05-18T11:42:43+02:00</time>
      </trkpt>
      <trkpt lat="48.69348" lon="6.19125">
        <ele>199.10059</ele>
        <time>2026-05-18T11:42:44+02:00</time>
      </trkpt>
      <trkpt lat="48.69351" lon="6.19131">
        <ele>199.10059</ele>
        <time>2026-05-18T11:42:45+02:00</time>
      </trkpt>
      <trkpt lat="48.69354" lon="6.19137">
        <ele>199.10059</ele>
        <time>2026-05-18T11:42:46+02:00</time>
      </trkpt>
      <trkpt lat="48.69357" lon="6.19143">
        <ele>199.10059</ele>
        <time>2026-05-18T11:42:47+02:00</time>
      </trkpt>
      <trkpt lat="48.69361" lon="6.19148">
        <ele>199.10059</ele>
        <time>2026-05-18T11:42:48+02:00</time>
      </trkpt>
      <trkpt lat="48.69364" lon="6.19153">
        <ele>199</ele>
        <time>2026-05-18T11:42:49+02:00</time>
      </trkpt>
      <trkpt lat="48.69365" lon="6.19156">
        <ele>199</ele>
        <time>2026-05-18T11:42:50+02:00</time>
      </trkpt>
      <trkpt lat="48.69369" lon="6.19163">
        <ele>199</ele>
        <time>2026-05-18T11:42:51+02:00</time>
      </trkpt>
      <trkpt lat="48.69372" lon="6.19168">
        <ele>198.90039</ele>
        <time>2026-05-18T11:42:52+02:00</time>
      </trkpt>
      <trkpt lat="48.69375" lon="6.19172">
        <ele>198.7998</ele>
        <time>2026-05-18T11:42:53+02:00</time>
      </trkpt>
      <trkpt lat="48.69377" lon="6.19174">
        <ele>198.7998</ele>
        <time>2026-05-18T11:42:54+02:00</time>
      </trkpt>
      <trkpt lat="48.69379" lon="6.19175">
        <ele>198.7002</ele>
        <time>2026-05-18T11:42:55+02:00</time>
      </trkpt>
      <trkpt lat="48.69381" lon="6.19176">
        <ele>198.7002</ele>
        <time>2026-05-18T11:42:56+02:00</time>
      </trkpt>
      <trkpt lat="48.69383" lon="6.19177">
        <ele>198.7002</ele>
        <time>2026-05-18T11:42:57+02:00</time>
      </trkpt>
      <trkpt lat="48.69384" lon="6.19179">
        <ele>198.7002</ele>
        <time>2026-05-18T11:42:58+02:00</time>
      </trkpt>
      <trkpt lat="48.69385" lon="6.1918">
        <ele>198.60059</ele>
        <time>2026-05-18T11:42:59+02:00</time>
      </trkpt>
      <trkpt lat="48.69386" lon="6.19182">
        <ele>198.60059</ele>
        <time>2026-05-18T11:43:00+02:00</time>
      </trkpt>
      <trkpt lat="48.69386" lon="6.19184">
        <ele>198.5</ele>
        <time>2026-05-18T11:43:01+02:00</time>
      </trkpt>
      <trkpt lat="48.69388" lon="6.19186">
        <ele>198.5</ele>
        <time>2026-05-18T11:43:02+02:00</time>
      </trkpt>
      <trkpt lat="48.69389" lon="6.19187">
        <ele>198.5</ele>
        <time>2026-05-18T11:43:03+02:00</time>
      </trkpt>
      <trkpt lat="48.69391" lon="6.19187">
        <ele>198.5</ele>
        <time>2026-05-18T11:43:04+02:00</time>
      </trkpt>
      <trkpt lat="48.69392" lon="6.19185">
        <ele>198.5</ele>
        <time>2026-05-18T11:43:05+02:00</time>
      </trkpt>
      <trkpt lat="48.69394" lon="6.19184">
        <ele>198.5</ele>
        <time>2026-05-18T11:43:06+02:00</time>
      </trkpt>
      <trkpt lat="48.69394" lon="6.19185">
        <ele>198.5</ele>
        <time>2026-05-18T11:43:07+02:00</time>
      </trkpt>
      <trkpt lat="48.69395" lon="6.19186">
        <ele>198.5</ele>
        <time>2026-05-18T11:43:08+02:00</time>
      </trkpt>
      <trkpt lat="48.69395" lon="6.19188">
        <ele>198.5</ele>
        <time>2026-05-18T11:43:09+02:00</time>
      </trkpt>
      <trkpt lat="48.69396" lon="6.19189">
        <ele>198.5</ele>
        <time>2026-05-18T11:43:10+02:00</time>
      </trkpt>
      <trkpt lat="48.69397" lon="6.1919">
        <ele>198.40039</ele>
        <time>2026-05-18T11:43:11+02:00</time>
      </trkpt>
      <trkpt lat="48.69398" lon="6.19192">
        <ele>198.40039</ele>
        <time>2026-05-18T11:43:12+02:00</time>
      </trkpt>
      <trkpt lat="48.69399" lon="6.19193">
        <ele>198.40039</ele>
        <time>2026-05-18T11:43:13+02:00</time>
      </trkpt>
      <trkpt lat="48.694" lon="6.19194">
        <ele>198.40039</ele>
        <time>2026-05-18T11:43:14+02:00</time>
      </trkpt>
      <trkpt lat="48.69401" lon="6.19194">
        <ele>198.40039</ele>
        <time>2026-05-18T11:43:15+02:00</time>
      </trkpt>
      <trkpt lat="48.69402" lon="6.19194">
        <ele>198.40039</ele>
        <time>2026-05-18T11:43:16+02:00</time>
      </trkpt>
      <trkpt lat="48.69404" lon="6.19194">
        <ele>198.40039</ele>
        <time>2026-05-18T11:43:17+02:00</time>
      </trkpt>
      <trkpt lat="48.69405" lon="6.19193">
        <ele>198.40039</ele>
        <time>2026-05-18T11:43:18+02:00</time>
      </trkpt>
      <trkpt lat="48.69407" lon="6.19192">
        <ele>198.40039</ele>
        <time>2026-05-18T11:43:19+02:00</time>
      </trkpt>
      <trkpt lat="48.69409" lon="6.19193">
        <ele>198.2998</ele>
        <time>2026-05-18T11:43:20+02:00</time>
      </trkpt>
      <trkpt lat="48.69412" lon="6.19192">
        <ele>198.2998</ele>
        <time>2026-05-18T11:43:21+02:00</time>
      </trkpt>
      <trkpt lat="48.69414" lon="6.19191">
        <ele>198.40039</ele>
        <time>2026-05-18T11:43:22+02:00</time>
      </trkpt>
      <trkpt lat="48.69417" lon="6.19189">
        <ele>198.40039</ele>
        <time>2026-05-18T11:43:23+02:00</time>
      </trkpt>
      <trkpt lat="48.6942" lon="6.19188">
        <ele>198.5</ele>
        <time>2026-05-18T11:43:24+02:00</time>
      </trkpt>
      <trkpt lat="48.69423" lon="6.19187">
        <ele>198.5</ele>
        <time>2026-05-18T11:43:25+02:00</time>
      </trkpt>
      <trkpt lat="48.69426" lon="6.19186">
        <ele>198.5</ele>
        <time>2026-05-18T11:43:26+02:00</time>
      </trkpt>
      <trkpt lat="48.6943" lon="6.19184">
        <ele>198.5</ele>
        <time>2026-05-18T11:43:27+02:00</time>
      </trkpt>
      <trkpt lat="48.69434" lon="6.19181">
        <ele>198.60059</ele>
        <time>2026-05-18T11:43:28+02:00</time>
      </trkpt>
      <trkpt lat="48.69437" lon="6.19179">
        <ele>198.60059</ele>
        <time>2026-05-18T11:43:29+02:00</time>
      </trkpt>
      <trkpt lat="48.69441" lon="6.19177">
        <ele>198.60059</ele>
        <time>2026-05-18T11:43:30+02:00</time>
      </trkpt>
      <trkpt lat="48.69444" lon="6.19175">
        <ele>198.7002</ele>
        <time>2026-05-18T11:43:31+02:00</time>
      </trkpt>
      <trkpt lat="48.69449" lon="6.19173">
        <ele>198.7998</ele>
        <time>2026-05-18T11:43:32+02:00</time>
      </trkpt>
      <trkpt lat="48.69452" lon="6.19171">
        <ele>198.7998</ele>
        <time>2026-05-18T11:43:33+02:00</time>
      </trkpt>
      <trkpt lat="48.69456" lon="6.19169">
        <ele>198.90039</ele>
        <time>2026-05-18T11:43:34+02:00</time>
      </trkpt>
      <trkpt lat="48.6946" lon="6.19167">
        <ele>198.90039</ele>
        <time>2026-05-18T11:43:35+02:00</time>
      </trkpt>
      <trkpt lat="48.69463" lon="6.19165">
        <ele>199</ele>
        <time>2026-05-18T11:43:36+02:00</time>
      </trkpt>
      <trkpt lat="48.69467" lon="6.19162">
        <ele>199.10059</ele>
        <time>2026-05-18T11:43:37+02:00</time>
      </trkpt>
      <trkpt lat="48.69471" lon="6.1916">
        <ele>199.10059</ele>
        <time>2026-05-18T11:43:38+02:00</time>
      </trkpt>
      <trkpt lat="48.69475" lon="6.19158">
        <ele>199.10059</ele>
        <time>2026-05-18T11:43:39+02:00</time>
      </trkpt>
      <trkpt lat="48.69479" lon="6.19155">
        <ele>199.2002</ele>
        <time>2026-05-18T11:43:40+02:00</time>
      </trkpt>
      <trkpt lat="48.69483" lon="6.19153">
        <ele>199.10059</ele>
        <time>2026-05-18T11:43:41+02:00</time>
      </trkpt>
      <trkpt lat="48.69486" lon="6.19151">
        <ele>199.10059</ele>
        <time>2026-05-18T11:43:42+02:00</time>
      </trkpt>
      <trkpt lat="48.69489" lon="6.19148">
        <ele>199</ele>
        <time>2026-05-18T11:43:43+02:00</time>
      </trkpt>
      <trkpt lat="48.69492" lon="6.19146">
        <ele>199</ele>
        <time>2026-05-18T11:43:44+02:00</time>
      </trkpt>
      <trkpt lat="48.69496" lon="6.19144">
        <ele>198.90039</ele>
        <time>2026-05-18T11:43:45+02:00</time>
      </trkpt>
      <trkpt lat="48.69499" lon="6.19143">
        <ele>198.7998</ele>
        <time>2026-05-18T11:43:46+02:00</time>
      </trkpt>
      <trkpt lat="48.69501" lon="6.19141">
        <ele>198.7998</ele>
        <time>2026-05-18T11:43:47+02:00</time>
      </trkpt>
      <trkpt lat="48.69504" lon="6.19138">
        <ele>198.7002</ele>
        <time>2026-05-18T11:43:48+02:00</time>
      </trkpt>
      <trkpt lat="48.69507" lon="6.19137">
        <ele>198.7002</ele>
        <time>2026-05-18T11:43:49+02:00</time>
      </trkpt>
      <trkpt lat="48.69509" lon="6.19135">
        <ele>198.7002</ele>
        <time>2026-05-18T11:43:50+02:00</time>
      </trkpt>
      <trkpt lat="48.69512" lon="6.19134">
        <ele>198.7002</ele>
        <time>2026-05-18T11:43:51+02:00</time>
      </trkpt>
      <trkpt lat="48.69513" lon="6.19134">
        <ele>198.7002</ele>
        <time>2026-05-18T11:43:52+02:00</time>
      </trkpt>
      <trkpt lat="48.69515" lon="6.19132">
        <ele>198.7002</ele>
        <time>2026-05-18T11:43:53+02:00</time>
      </trkpt>
      <trkpt lat="48.69516" lon="6.19131">
        <ele>198.60059</ele>
        <time>2026-05-18T11:43:54+02:00</time>
      </trkpt>
      <trkpt lat="48.69517" lon="6.19131">
        <ele>198.60059</ele>
        <time>2026-05-18T11:43:55+02:00</time>
      </trkpt>
      <trkpt lat="48.69517" lon="6.19131">
        <ele>198.60059</ele>
        <time>2026-05-18T11:43:56+02:00</time>
      </trkpt>
      <trkpt lat="48.69517" lon="6.19131">
        <ele>198.60059</ele>
        <time>2026-05-18T11:43:57+02:00</time>
      </trkpt>
      <trkpt lat="48.69528" lon="6.19108">
        <ele>198.2998</ele>
        <time>2026-05-18T11:44:17+02:00</time>
      </trkpt>
      <trkpt lat="48.69532" lon="6.19107">
        <ele>198.2998</ele>
        <time>2026-05-18T11:44:18+02:00</time>
      </trkpt>
      <trkpt lat="48.69535" lon="6.19104">
        <ele>198.2002</ele>
        <time>2026-05-18T11:44:19+02:00</time>
      </trkpt>
      <trkpt lat="48.69538" lon="6.19102">
        <ele>198.10059</ele>
        <time>2026-05-18T11:44:20+02:00</time>
      </trkpt>
      <trkpt lat="48.69542" lon="6.191">
        <ele>198.10059</ele>
        <time>2026-05-18T11:44:21+02:00</time>
      </trkpt>
      <trkpt lat="48.69545" lon="6.19098">
        <ele>198</ele>
        <time>2026-05-18T11:44:22+02:00</time>
      </trkpt>
      <trkpt lat="48.69549" lon="6.19095">
        <ele>198</ele>
        <time>2026-05-18T11:44:23+02:00</time>
      </trkpt>
      <trkpt lat="48.69552" lon="6.19093">
        <ele>197.90039</ele>
        <time>2026-05-18T11:44:24+02:00</time>
      </trkpt>
      <trkpt lat="48.69555" lon="6.1909">
        <ele>197.90039</ele>
        <time>2026-05-18T11:44:25+02:00</time>
      </trkpt>
      <trkpt lat="48.69558" lon="6.19088">
        <ele>197.7998</ele>
        <time>2026-05-18T11:44:26+02:00</time>
      </trkpt>
      <trkpt lat="48.69561" lon="6.19087">
        <ele>197.7998</ele>
        <time>2026-05-18T11:44:27+02:00</time>
      </trkpt>
      <trkpt lat="48.69563" lon="6.19088">
        <ele>197.7998</ele>
        <time>2026-05-18T11:44:28+02:00</time>
      </trkpt>
      <trkpt lat="48.69566" lon="6.19088">
        <ele>197.7998</ele>
        <time>2026-05-18T11:44:29+02:00</time>
      </trkpt>
      <trkpt lat="48.69568" lon="6.19088">
        <ele>197.7002</ele>
        <time>2026-05-18T11:44:30+02:00</time>
      </trkpt>
      <trkpt lat="48.6957" lon="6.19088">
        <ele>197.7002</ele>
        <time>2026-05-18T11:44:31+02:00</time>
      </trkpt>
      <trkpt lat="48.69572" lon="6.19088">
        <ele>197.7002</ele>
        <time>2026-05-18T11:44:32+02:00</time>
      </trkpt>
      <trkpt lat="48.69573" lon="6.19087">
        <ele>197.7002</ele>
        <time>2026-05-18T11:44:33+02:00</time>
      </trkpt>
      <trkpt lat="48.69574" lon="6.19086">
        <ele>197.7002</ele>
        <time>2026-05-18T11:44:34+02:00</time>
      </trkpt>
      <trkpt lat="48.69574" lon="6.19086">
        <ele>197.7002</ele>
        <time>2026-05-18T11:44:35+02:00</time>
      </trkpt>
      <trkpt lat="48.69574" lon="6.19085">
        <ele>197.7002</ele>
        <time>2026-05-18T11:44:36+02:00</time>
      </trkpt>
      <trkpt lat="48.69575" lon="6.19085">
        <ele>197.7002</ele>
        <time>2026-05-18T11:44:37+02:00</time>
      </trkpt>
      <trkpt lat="48.69584" lon="6.19101">
        <ele>197.7002</ele>
        <time>2026-05-18T11:44:45+02:00</time>
      </trkpt>
      <trkpt lat="48.69586" lon="6.19106">
        <ele>197.7002</ele>
        <time>2026-05-18T11:44:46+02:00</time>
      </trkpt>
      <trkpt lat="48.69589" lon="6.19112">
        <ele>197.7002</ele>
        <time>2026-05-18T11:44:47+02:00</time>
      </trkpt>
      <trkpt lat="48.69591" lon="6.19117">
        <ele>197.60059</ele>
        <time>2026-05-18T11:44:48+02:00</time>
      </trkpt>
      <trkpt lat="48.69592" lon="6.19123">
        <ele>197.60059</ele>
        <time>2026-05-18T11:44:49+02:00</time>
      </trkpt>
      <trkpt lat="48.69595" lon="6.19129">
        <ele>197.60059</ele>
        <time>2026-05-18T11:44:50+02:00</time>
      </trkpt>
      <trkpt lat="48.69596" lon="6.19133">
        <ele>197.5</ele>
        <time>2026-05-18T11:44:51+02:00</time>
      </trkpt>
      <trkpt lat="48.69599" lon="6.19136">
        <ele>197.5</ele>
        <time>2026-05-18T11:44:52+02:00</time>
      </trkpt>
      <trkpt lat="48.69601" lon="6.19136">
        <ele>197.5</ele>
        <time>2026-05-18T11:44:53+02:00</time>
      </trkpt>
      <trkpt lat="48.69603" lon="6.19135">
        <ele>197.5</ele>
        <time>2026-05-18T11:44:54+02:00</time>
      </trkpt>
      <trkpt lat="48.69606" lon="6.19133">
        <ele>197.40039</ele>
        <time>2026-05-18T11:44:55+02:00</time>
      </trkpt>
      <trkpt lat="48.69608" lon="6.19132">
        <ele>197.40039</ele>
        <time>2026-05-18T11:44:56+02:00</time>
      </trkpt>
      <trkpt lat="48.69611" lon="6.1913">
        <ele>197.5</ele>
        <time>2026-05-18T11:44:57+02:00</time>
      </trkpt>
      <trkpt lat="48.69614" lon="6.19128">
        <ele>197.5</ele>
        <time>2026-05-18T11:44:58+02:00</time>
      </trkpt>
      <trkpt lat="48.69617" lon="6.19126">
        <ele>197.5</ele>
        <time>2026-05-18T11:44:59+02:00</time>
      </trkpt>
      <trkpt lat="48.6962" lon="6.19124">
        <ele>197.5</ele>
        <time>2026-05-18T11:45:00+02:00</time>
      </trkpt>
      <trkpt lat="48.69624" lon="6.19123">
        <ele>197.5</ele>
        <time>2026-05-18T11:45:01+02:00</time>
      </trkpt>
      <trkpt lat="48.69628" lon="6.19121">
        <ele>197.60059</ele>
        <time>2026-05-18T11:45:02+02:00</time>
      </trkpt>
      <trkpt lat="48.69632" lon="6.19118">
        <ele>197.7002</ele>
        <time>2026-05-18T11:45:03+02:00</time>
      </trkpt>
      <trkpt lat="48.69637" lon="6.19115">
        <ele>197.7002</ele>
        <time>2026-05-18T11:45:04+02:00</time>
      </trkpt>
      <trkpt lat="48.69641" lon="6.19112">
        <ele>197.7002</ele>
        <time>2026-05-18T11:45:05+02:00</time>
      </trkpt>
      <trkpt lat="48.69646" lon="6.19109">
        <ele>197.7002</ele>
        <time>2026-05-18T11:45:06+02:00</time>
      </trkpt>
      <trkpt lat="48.69651" lon="6.19106">
        <ele>197.7002</ele>
        <time>2026-05-18T11:45:07+02:00</time>
      </trkpt>
      <trkpt lat="48.69655" lon="6.19102">
        <ele>197.7998</ele>
        <time>2026-05-18T11:45:08+02:00</time>
      </trkpt>
      <trkpt lat="48.6966" lon="6.19099">
        <ele>197.7002</ele>
        <time>2026-05-18T11:45:09+02:00</time>
      </trkpt>
      <trkpt lat="48.69665" lon="6.19096">
        <ele>197.7002</ele>
        <time>2026-05-18T11:45:10+02:00</time>
      </trkpt>
      <trkpt lat="48.6967" lon="6.19093">
        <ele>197.7002</ele>
        <time>2026-05-18T11:45:11+02:00</time>
      </trkpt>
      <trkpt lat="48.69674" lon="6.1909">
        <ele>197.7002</ele>
        <time>2026-05-18T11:45:12+02:00</time>
      </trkpt>
      <trkpt lat="48.69679" lon="6.19086">
        <ele>197.7002</ele>
        <time>2026-05-18T11:45:13+02:00</time>
      </trkpt>
      <trkpt lat="48.69684" lon="6.19083">
        <ele>197.60059</ele>
        <time>2026-05-18T11:45:14+02:00</time>
      </trkpt>
      <trkpt lat="48.69689" lon="6.1908">
        <ele>197.60059</ele>
        <time>2026-05-18T11:45:15+02:00</time>
      </trkpt>
      <trkpt lat="48.69693" lon="6.19077">
        <ele>197.5</ele>
        <time>2026-05-18T11:45:16+02:00</time>
      </trkpt>
      <trkpt lat="48.69698" lon="6.19074">
        <ele>197.40039</ele>
        <time>2026-05-18T11:45:17+02:00</time>
      </trkpt>
      <trkpt lat="48.69702" lon="6.19071">
        <ele>197.2998</ele>
        <time>2026-05-18T11:45:18+02:00</time>
      </trkpt>
      <trkpt lat="48.69707" lon="6.19068">
        <ele>197.2002</ele>
        <time>2026-05-18T11:45:19+02:00</time>
      </trkpt>
      <trkpt lat="48.69711" lon="6.19064">
        <ele>197</ele>
        <time>2026-05-18T11:45:20+02:00</time>
      </trkpt>
      <trkpt lat="48.69716" lon="6.19061">
        <ele>196.7998</ele>
        <time>2026-05-18T11:45:21+02:00</time>
      </trkpt>
      <trkpt lat="48.69721" lon="6.19058">
        <ele>196.60059</ele>
        <time>2026-05-18T11:45:22+02:00</time>
      </trkpt>
      <trkpt lat="48.69725" lon="6.19055">
        <ele>196.5</ele>
        <time>2026-05-18T11:45:23+02:00</time>
      </trkpt>
      <trkpt lat="48.6973" lon="6.19052">
        <ele>196.5</ele>
        <time>2026-05-18T11:45:24+02:00</time>
      </trkpt>
      <trkpt lat="48.69735" lon="6.19049">
        <ele>196.40039</ele>
        <time>2026-05-18T11:45:25+02:00</time>
      </trkpt>
      <trkpt lat="48.69739" lon="6.19046">
        <ele>196.2998</ele>
        <time>2026-05-18T11:45:26+02:00</time>
      </trkpt>
      <trkpt lat="48.69744" lon="6.19043">
        <ele>196.2002</ele>
        <time>2026-05-18T11:45:27+02:00</time>
      </trkpt>
      <trkpt lat="48.69749" lon="6.19039">
        <ele>196.2002</ele>
        <time>2026-05-18T11:45:28+02:00</time>
      </trkpt>
      <trkpt lat="48.69753" lon="6.19036">
        <ele>196.10059</ele>
        <time>2026-05-18T11:45:29+02:00</time>
      </trkpt>
      <trkpt lat="48.69758" lon="6.19032">
        <ele>196.10059</ele>
        <time>2026-05-18T11:45:30+02:00</time>
      </trkpt>
      <trkpt lat="48.69763" lon="6.19029">
        <ele>196.10059</ele>
        <time>2026-05-18T11:45:31+02:00</time>
      </trkpt>
      <trkpt lat="48.69768" lon="6.19025">
        <ele>196.10059</ele>
        <time>2026-05-18T11:45:32+02:00</time>
      </trkpt>
      <trkpt lat="48.69772" lon="6.19022">
        <ele>196.10059</ele>
        <time>2026-05-18T11:45:33+02:00</time>
      </trkpt>
      <trkpt lat="48.69777" lon="6.19019">
        <ele>196.10059</ele>
        <time>2026-05-18T11:45:34+02:00</time>
      </trkpt>
      <trkpt lat="48.69782" lon="6.19016">
        <ele>196.10059</ele>
        <time>2026-05-18T11:45:35+02:00</time>
      </trkpt>
      <trkpt lat="48.69786" lon="6.19013">
        <ele>196.10059</ele>
        <time>2026-05-18T11:45:36+02:00</time>
      </trkpt>
      <trkpt lat="48.69791" lon="6.1901">
        <ele>196.10059</ele>
        <time>2026-05-18T11:45:37+02:00</time>
      </trkpt>
      <trkpt lat="48.69796" lon="6.19007">
        <ele>196.2002</ele>
        <time>2026-05-18T11:45:38+02:00</time>
      </trkpt>
      <trkpt lat="48.698" lon="6.19003">
        <ele>196.2002</ele>
        <time>2026-05-18T11:45:39+02:00</time>
      </trkpt>
      <trkpt lat="48.69805" lon="6.19">
        <ele>196.2998</ele>
        <time>2026-05-18T11:45:40+02:00</time>
      </trkpt>
      <trkpt lat="48.6981" lon="6.18997">
        <ele>196.2998</ele>
        <time>2026-05-18T11:45:41+02:00</time>
      </trkpt>
      <trkpt lat="48.69815" lon="6.18994">
        <ele>196.2998</ele>
        <time>2026-05-18T11:45:42+02:00</time>
      </trkpt>
      <trkpt lat="48.69821" lon="6.1899">
        <ele>196.40039</ele>
        <time>2026-05-18T11:45:43+02:00</time>
      </trkpt>
      <trkpt lat="48.69825" lon="6.18987">
        <ele>196.40039</ele>
        <time>2026-05-18T11:45:44+02:00</time>
      </trkpt>
      <trkpt lat="48.6983" lon="6.18983">
        <ele>196.40039</ele>
        <time>2026-05-18T11:45:45+02:00</time>
      </trkpt>
      <trkpt lat="48.69836" lon="6.18979">
        <ele>196.40039</ele>
        <time>2026-05-18T11:45:46+02:00</time>
      </trkpt>
      <trkpt lat="48.69841" lon="6.18976">
        <ele>196.40039</ele>
        <time>2026-05-18T11:45:47+02:00</time>
      </trkpt>
      <trkpt lat="48.69846" lon="6.18973">
        <ele>196.40039</ele>
        <time>2026-05-18T11:45:48+02:00</time>
      </trkpt>
      <trkpt lat="48.69851" lon="6.18969">
        <ele>196.40039</ele>
        <time>2026-05-18T11:45:49+02:00</time>
      </trkpt>
      <trkpt lat="48.69857" lon="6.18965">
        <ele>196.5</ele>
        <time>2026-05-18T11:45:50+02:00</time>
      </trkpt>
      <trkpt lat="48.69862" lon="6.18961">
        <ele>196.5</ele>
        <time>2026-05-18T11:45:51+02:00</time>
      </trkpt>
      <trkpt lat="48.69867" lon="6.18958">
        <ele>196.60059</ele>
        <time>2026-05-18T11:45:52+02:00</time>
      </trkpt>
      <trkpt lat="48.69872" lon="6.18954">
        <ele>196.60059</ele>
        <time>2026-05-18T11:45:53+02:00</time>
      </trkpt>
      <trkpt lat="48.69877" lon="6.18951">
        <ele>196.60059</ele>
        <time>2026-05-18T11:45:54+02:00</time>
      </trkpt>
      <trkpt lat="48.69882" lon="6.18948">
        <ele>196.7002</ele>
        <time>2026-05-18T11:45:55+02:00</time>
      </trkpt>
      <trkpt lat="48.69887" lon="6.18945">
        <ele>196.7002</ele>
        <time>2026-05-18T11:45:56+02:00</time>
      </trkpt>
      <trkpt lat="48.69892" lon="6.18942">
        <ele>196.90039</ele>
        <time>2026-05-18T11:45:57+02:00</time>
      </trkpt>
      <trkpt lat="48.69896" lon="6.18938">
        <ele>196.90039</ele>
        <time>2026-05-18T11:45:58+02:00</time>
      </trkpt>
      <trkpt lat="48.69901" lon="6.18935">
        <ele>196.90039</ele>
        <time>2026-05-18T11:45:59+02:00</time>
      </trkpt>
      <trkpt lat="48.69905" lon="6.18933">
        <ele>197</ele>
        <time>2026-05-18T11:46:00+02:00</time>
      </trkpt>
      <trkpt lat="48.69909" lon="6.18931">
        <ele>197</ele>
        <time>2026-05-18T11:46:01+02:00</time>
      </trkpt>
      <trkpt lat="48.69912" lon="6.18929">
        <ele>197.10059</ele>
        <time>2026-05-18T11:46:02+02:00</time>
      </trkpt>
      <trkpt lat="48.69915" lon="6.18927">
        <ele>197.10059</ele>
        <time>2026-05-18T11:46:03+02:00</time>
      </trkpt>
      <trkpt lat="48.69918" lon="6.18927">
        <ele>197.10059</ele>
        <time>2026-05-18T11:46:04+02:00</time>
      </trkpt>
      <trkpt lat="48.6992" lon="6.18926">
        <ele>197.10059</ele>
        <time>2026-05-18T11:46:05+02:00</time>
      </trkpt>
      <trkpt lat="48.69923" lon="6.18924">
        <ele>197.2002</ele>
        <time>2026-05-18T11:46:06+02:00</time>
      </trkpt>
      <trkpt lat="48.69925" lon="6.18922">
        <ele>197.2002</ele>
        <time>2026-05-18T11:46:07+02:00</time>
      </trkpt>
      <trkpt lat="48.69928" lon="6.18919">
        <ele>197.2002</ele>
        <time>2026-05-18T11:46:08+02:00</time>
      </trkpt>
      <trkpt lat="48.69932" lon="6.18916">
        <ele>197.2998</ele>
        <time>2026-05-18T11:46:09+02:00</time>
      </trkpt>
      <trkpt lat="48.69936" lon="6.18913">
        <ele>197.2002</ele>
        <time>2026-05-18T11:46:10+02:00</time>
      </trkpt>
      <trkpt lat="48.6994" lon="6.18909">
        <ele>197.2002</ele>
        <time>2026-05-18T11:46:11+02:00</time>
      </trkpt>
      <trkpt lat="48.69944" lon="6.18906">
        <ele>197.2998</ele>
        <time>2026-05-18T11:46:12+02:00</time>
      </trkpt>
      <trkpt lat="48.69948" lon="6.18903">
        <ele>197.2998</ele>
        <time>2026-05-18T11:46:13+02:00</time>
      </trkpt>
      <trkpt lat="48.69953" lon="6.18899">
        <ele>197.40039</ele>
        <time>2026-05-18T11:46:14+02:00</time>
      </trkpt>
      <trkpt lat="48.69958" lon="6.18896">
        <ele>197.5</ele>
        <time>2026-05-18T11:46:15+02:00</time>
      </trkpt>
      <trkpt lat="48.69962" lon="6.18892">
        <ele>197.5</ele>
        <time>2026-05-18T11:46:16+02:00</time>
      </trkpt>
      <trkpt lat="48.69967" lon="6.18889">
        <ele>197.60059</ele>
        <time>2026-05-18T11:46:17+02:00</time>
      </trkpt>
      <trkpt lat="48.69972" lon="6.18885">
        <ele>197.60059</ele>
        <time>2026-05-18T11:46:18+02:00</time>
      </trkpt>
      <trkpt lat="48.69976" lon="6.18882">
        <ele>197.60059</ele>
        <time>2026-05-18T11:46:19+02:00</time>
      </trkpt>
      <trkpt lat="48.69981" lon="6.18879">
        <ele>197.60059</ele>
        <time>2026-05-18T11:46:20+02:00</time>
      </trkpt>
      <trkpt lat="48.69985" lon="6.18876">
        <ele>197.60059</ele>
        <time>2026-05-18T11:46:21+02:00</time>
      </trkpt>
      <trkpt lat="48.6999" lon="6.18872">
        <ele>197.7002</ele>
        <time>2026-05-18T11:46:22+02:00</time>
      </trkpt>
      <trkpt lat="48.69995" lon="6.18869">
        <ele>197.7002</ele>
        <time>2026-05-18T11:46:23+02:00</time>
      </trkpt>
      <trkpt lat="48.7" lon="6.18866">
        <ele>197.7002</ele>
        <time>2026-05-18T11:46:24+02:00</time>
      </trkpt>
      <trkpt lat="48.70004" lon="6.18863">
        <ele>197.7002</ele>
        <time>2026-05-18T11:46:25+02:00</time>
      </trkpt>
      <trkpt lat="48.70009" lon="6.1886">
        <ele>197.7002</ele>
        <time>2026-05-18T11:46:26+02:00</time>
      </trkpt>
      <trkpt lat="48.70014" lon="6.18856">
        <ele>197.7998</ele>
        <time>2026-05-18T11:46:27+02:00</time>
      </trkpt>
      <trkpt lat="48.70019" lon="6.18853">
        <ele>197.7998</ele>
        <time>2026-05-18T11:46:28+02:00</time>
      </trkpt>
      <trkpt lat="48.70024" lon="6.18849">
        <ele>197.7998</ele>
        <time>2026-05-18T11:46:29+02:00</time>
      </trkpt>
      <trkpt lat="48.7003" lon="6.18846">
        <ele>197.90039</ele>
        <time>2026-05-18T11:46:30+02:00</time>
      </trkpt>
      <trkpt lat="48.70035" lon="6.18842">
        <ele>197.90039</ele>
        <time>2026-05-18T11:46:31+02:00</time>
      </trkpt>
      <trkpt lat="48.7004" lon="6.18839">
        <ele>197.90039</ele>
        <time>2026-05-18T11:46:32+02:00</time>
      </trkpt>
      <trkpt lat="48.70045" lon="6.18835">
        <ele>197.90039</ele>
        <time>2026-05-18T11:46:33+02:00</time>
      </trkpt>
      <trkpt lat="48.7005" lon="6.18832">
        <ele>198</ele>
        <time>2026-05-18T11:46:34+02:00</time>
      </trkpt>
      <trkpt lat="48.70055" lon="6.18829">
        <ele>197.90039</ele>
        <time>2026-05-18T11:46:35+02:00</time>
      </trkpt>
      <trkpt lat="48.7006" lon="6.18826">
        <ele>198</ele>
        <time>2026-05-18T11:46:36+02:00</time>
      </trkpt>
      <trkpt lat="48.70065" lon="6.18823">
        <ele>198</ele>
        <time>2026-05-18T11:46:37+02:00</time>
      </trkpt>
      <trkpt lat="48.7007" lon="6.1882">
        <ele>198</ele>
        <time>2026-05-18T11:46:38+02:00</time>
      </trkpt>
      <trkpt lat="48.70075" lon="6.18816">
        <ele>198.10059</ele>
        <time>2026-05-18T11:46:39+02:00</time>
      </trkpt>
      <trkpt lat="48.7008" lon="6.18813">
        <ele>198</ele>
        <time>2026-05-18T11:46:40+02:00</time>
      </trkpt>
      <trkpt lat="48.70086" lon="6.18809">
        <ele>198.10059</ele>
        <time>2026-05-18T11:46:41+02:00</time>
      </trkpt>
      <trkpt lat="48.70091" lon="6.18806">
        <ele>198.10059</ele>
        <time>2026-05-18T11:46:42+02:00</time>
      </trkpt>
      <trkpt lat="48.70096" lon="6.18802">
        <ele>198</ele>
        <time>2026-05-18T11:46:43+02:00</time>
      </trkpt>
      <trkpt lat="48.70101" lon="6.18798">
        <ele>198</ele>
        <time>2026-05-18T11:46:44+02:00</time>
      </trkpt>
      <trkpt lat="48.70105" lon="6.18794">
        <ele>197.90039</ele>
        <time>2026-05-18T11:46:45+02:00</time>
      </trkpt>
      <trkpt lat="48.7011" lon="6.18789">
        <ele>197.90039</ele>
        <time>2026-05-18T11:46:46+02:00</time>
      </trkpt>
      <trkpt lat="48.70114" lon="6.18785">
        <ele>197.7998</ele>
        <time>2026-05-18T11:46:47+02:00</time>
      </trkpt>
      <trkpt lat="48.70118" lon="6.18781">
        <ele>197.7998</ele>
        <time>2026-05-18T11:46:48+02:00</time>
      </trkpt>
      <trkpt lat="48.70122" lon="6.18777">
        <ele>197.7998</ele>
        <time>2026-05-18T11:46:49+02:00</time>
      </trkpt>
      <trkpt lat="48.70127" lon="6.18772">
        <ele>197.7998</ele>
        <time>2026-05-18T11:46:50+02:00</time>
      </trkpt>
      <trkpt lat="48.70129" lon="6.1877">
        <ele>197.7998</ele>
        <time>2026-05-18T11:46:51+02:00</time>
      </trkpt>
      <trkpt lat="48.70135" lon="6.18763">
        <ele>197.7998</ele>
        <time>2026-05-18T11:46:52+02:00</time>
      </trkpt>
      <trkpt lat="48.70139" lon="6.18757">
        <ele>197.7998</ele>
        <time>2026-05-18T11:46:53+02:00</time>
      </trkpt>
      <trkpt lat="48.70143" lon="6.18752">
        <ele>197.7998</ele>
        <time>2026-05-18T11:46:54+02:00</time>
      </trkpt>
      <trkpt lat="48.70147" lon="6.18746">
        <ele>197.7998</ele>
        <time>2026-05-18T11:46:55+02:00</time>
      </trkpt>
      <trkpt lat="48.70151" lon="6.18741">
        <ele>197.7002</ele>
        <time>2026-05-18T11:46:56+02:00</time>
      </trkpt>
      <trkpt lat="48.70155" lon="6.18735">
        <ele>197.60059</ele>
        <time>2026-05-18T11:46:57+02:00</time>
      </trkpt>
      <trkpt lat="48.70156" lon="6.18732">
        <ele>197.60059</ele>
        <time>2026-05-18T11:46:58+02:00</time>
      </trkpt>
      <trkpt lat="48.70161" lon="6.18722">
        <ele>197.60059</ele>
        <time>2026-05-18T11:46:59+02:00</time>
      </trkpt>
      <trkpt lat="48.70165" lon="6.18716">
        <ele>197.7002</ele>
        <time>2026-05-18T11:47:00+02:00</time>
      </trkpt>
      <trkpt lat="48.70166" lon="6.18712">
        <ele>197.7002</ele>
        <time>2026-05-18T11:47:01+02:00</time>
      </trkpt>
      <trkpt lat="48.70171" lon="6.18702">
        <ele>197.7998</ele>
        <time>2026-05-18T11:47:02+02:00</time>
      </trkpt>
      <trkpt lat="48.70174" lon="6.18696">
        <ele>198</ele>
        <time>2026-05-18T11:47:03+02:00</time>
      </trkpt>
      <trkpt lat="48.70176" lon="6.18688">
        <ele>197.90039</ele>
        <time>2026-05-18T11:47:04+02:00</time>
      </trkpt>
      <trkpt lat="48.70179" lon="6.18681">
        <ele>197.90039</ele>
        <time>2026-05-18T11:47:05+02:00</time>
      </trkpt>
      <trkpt lat="48.70181" lon="6.18673">
        <ele>197.7998</ele>
        <time>2026-05-18T11:47:06+02:00</time>
      </trkpt>
      <trkpt lat="48.70183" lon="6.18666">
        <ele>197.7002</ele>
        <time>2026-05-18T11:47:07+02:00</time>
      </trkpt>
      <trkpt lat="48.70185" lon="6.18657">
        <ele>197.7998</ele>
        <time>2026-05-18T11:47:08+02:00</time>
      </trkpt>
      <trkpt lat="48.70187" lon="6.1865">
        <ele>197.7002</ele>
        <time>2026-05-18T11:47:09+02:00</time>
      </trkpt>
      <trkpt lat="48.70188" lon="6.18642">
        <ele>197.7002</ele>
        <time>2026-05-18T11:47:10+02:00</time>
      </trkpt>
      <trkpt lat="48.70189" lon="6.18634">
        <ele>197.7998</ele>
        <time>2026-05-18T11:47:11+02:00</time>
      </trkpt>
      <trkpt lat="48.70191" lon="6.18625">
        <ele>198</ele>
        <time>2026-05-18T11:47:12+02:00</time>
      </trkpt>
      <trkpt lat="48.70192" lon="6.18617">
        <ele>197.90039</ele>
        <time>2026-05-18T11:47:13+02:00</time>
      </trkpt>
      <trkpt lat="48.70193" lon="6.18609">
        <ele>197.7998</ele>
        <time>2026-05-18T11:47:14+02:00</time>
      </trkpt>
      <trkpt lat="48.70195" lon="6.186">
        <ele>197.7002</ele>
        <time>2026-05-18T11:47:15+02:00</time>
      </trkpt>
      <trkpt lat="48.70196" lon="6.18592">
        <ele>197.60059</ele>
        <time>2026-05-18T11:47:16+02:00</time>
      </trkpt>
      <trkpt lat="48.70196" lon="6.18584">
        <ele>197.60059</ele>
        <time>2026-05-18T11:47:17+02:00</time>
      </trkpt>
      <trkpt lat="48.70197" lon="6.18576">
        <ele>197.60059</ele>
        <time>2026-05-18T11:47:18+02:00</time>
      </trkpt>
      <trkpt lat="48.70197" lon="6.18568">
        <ele>197.60059</ele>
        <time>2026-05-18T11:47:19+02:00</time>
      </trkpt>
      <trkpt lat="48.70198" lon="6.1856">
        <ele>197.7002</ele>
        <time>2026-05-18T11:47:20+02:00</time>
      </trkpt>
      <trkpt lat="48.70199" lon="6.18552">
        <ele>197.7002</ele>
        <time>2026-05-18T11:47:21+02:00</time>
      </trkpt>
      <trkpt lat="48.70199" lon="6.18545">
        <ele>197.7002</ele>
        <time>2026-05-18T11:47:22+02:00</time>
      </trkpt>
      <trkpt lat="48.702" lon="6.18537">
        <ele>197.7002</ele>
        <time>2026-05-18T11:47:23+02:00</time>
      </trkpt>
      <trkpt lat="48.702" lon="6.18529">
        <ele>197.7002</ele>
        <time>2026-05-18T11:47:24+02:00</time>
      </trkpt>
      <trkpt lat="48.702" lon="6.18521">
        <ele>197.60059</ele>
        <time>2026-05-18T11:47:25+02:00</time>
      </trkpt>
      <trkpt lat="48.70201" lon="6.18513">
        <ele>197.60059</ele>
        <time>2026-05-18T11:47:26+02:00</time>
      </trkpt>
      <trkpt lat="48.70201" lon="6.18505">
        <ele>197.60059</ele>
        <time>2026-05-18T11:47:27+02:00</time>
      </trkpt>
      <trkpt lat="48.70201" lon="6.18497">
        <ele>197.5</ele>
        <time>2026-05-18T11:47:28+02:00</time>
      </trkpt>
      <trkpt lat="48.70202" lon="6.18489">
        <ele>197.40039</ele>
        <time>2026-05-18T11:47:29+02:00</time>
      </trkpt>
      <trkpt lat="48.70203" lon="6.18481">
        <ele>197.2998</ele>
        <time>2026-05-18T11:47:30+02:00</time>
      </trkpt>
      <trkpt lat="48.70203" lon="6.18473">
        <ele>197.10059</ele>
        <time>2026-05-18T11:47:31+02:00</time>
      </trkpt>
      <trkpt lat="48.70204" lon="6.18465">
        <ele>197</ele>
        <time>2026-05-18T11:47:32+02:00</time>
      </trkpt>
      <trkpt lat="48.70204" lon="6.18457">
        <ele>196.90039</ele>
        <time>2026-05-18T11:47:33+02:00</time>
      </trkpt>
      <trkpt lat="48.70205" lon="6.18448">
        <ele>196.7998</ele>
        <time>2026-05-18T11:47:34+02:00</time>
      </trkpt>
      <trkpt lat="48.70205" lon="6.18441">
        <ele>196.7002</ele>
        <time>2026-05-18T11:47:35+02:00</time>
      </trkpt>
      <trkpt lat="48.70205" lon="6.18432">
        <ele>196.60059</ele>
        <time>2026-05-18T11:47:36+02:00</time>
      </trkpt>
      <trkpt lat="48.70206" lon="6.18424">
        <ele>196.5</ele>
        <time>2026-05-18T11:47:37+02:00</time>
      </trkpt>
      <trkpt lat="48.70207" lon="6.18416">
        <ele>196.5</ele>
        <time>2026-05-18T11:47:38+02:00</time>
      </trkpt>
      <trkpt lat="48.70207" lon="6.18408">
        <ele>196.5</ele>
        <time>2026-05-18T11:47:39+02:00</time>
      </trkpt>
      <trkpt lat="48.70208" lon="6.184">
        <ele>196.40039</ele>
        <time>2026-05-18T11:47:40+02:00</time>
      </trkpt>
      <trkpt lat="48.70209" lon="6.18392">
        <ele>196.40039</ele>
        <time>2026-05-18T11:47:41+02:00</time>
      </trkpt>
      <trkpt lat="48.7021" lon="6.18384">
        <ele>196.40039</ele>
        <time>2026-05-18T11:47:42+02:00</time>
      </trkpt>
      <trkpt lat="48.70212" lon="6.18376">
        <ele>196.5</ele>
        <time>2026-05-18T11:47:43+02:00</time>
      </trkpt>
      <trkpt lat="48.70213" lon="6.18369">
        <ele>196.5</ele>
        <time>2026-05-18T11:47:44+02:00</time>
      </trkpt>
      <trkpt lat="48.70215" lon="6.18361">
        <ele>196.5</ele>
        <time>2026-05-18T11:47:45+02:00</time>
      </trkpt>
      <trkpt lat="48.70217" lon="6.18354">
        <ele>196.5</ele>
        <time>2026-05-18T11:47:46+02:00</time>
      </trkpt>
      <trkpt lat="48.70218" lon="6.18347">
        <ele>196.60059</ele>
        <time>2026-05-18T11:47:47+02:00</time>
      </trkpt>
      <trkpt lat="48.70221" lon="6.1834">
        <ele>196.60059</ele>
        <time>2026-05-18T11:47:48+02:00</time>
      </trkpt>
      <trkpt lat="48.70224" lon="6.18333">
        <ele>196.60059</ele>
        <time>2026-05-18T11:47:49+02:00</time>
      </trkpt>
      <trkpt lat="48.70226" lon="6.18326">
        <ele>196.60059</ele>
        <time>2026-05-18T11:47:50+02:00</time>
      </trkpt>
      <trkpt lat="48.70229" lon="6.1832">
        <ele>196.60059</ele>
        <time>2026-05-18T11:47:51+02:00</time>
      </trkpt>
      <trkpt lat="48.70232" lon="6.18313">
        <ele>196.7002</ele>
        <time>2026-05-18T11:47:52+02:00</time>
      </trkpt>
      <trkpt lat="48.70234" lon="6.18307">
        <ele>196.7002</ele>
        <time>2026-05-18T11:47:53+02:00</time>
      </trkpt>
      <trkpt lat="48.70236" lon="6.18299">
        <ele>196.7002</ele>
        <time>2026-05-18T11:47:54+02:00</time>
      </trkpt>
      <trkpt lat="48.70235" lon="6.18292">
        <ele>196.7002</ele>
        <time>2026-05-18T11:47:55+02:00</time>
      </trkpt>
      <trkpt lat="48.70232" lon="6.18287">
        <ele>196.7998</ele>
        <time>2026-05-18T11:47:56+02:00</time>
      </trkpt>
      <trkpt lat="48.70228" lon="6.18282">
        <ele>196.7998</ele>
        <time>2026-05-18T11:47:57+02:00</time>
      </trkpt>
      <trkpt lat="48.70225" lon="6.18278">
        <ele>196.90039</ele>
        <time>2026-05-18T11:47:58+02:00</time>
      </trkpt>
      <trkpt lat="48.70222" lon="6.18275">
        <ele>196.90039</ele>
        <time>2026-05-18T11:47:59+02:00</time>
      </trkpt>
      <trkpt lat="48.70221" lon="6.18273">
        <ele>196.90039</ele>
        <time>2026-05-18T11:48:00+02:00</time>
      </trkpt>
      <trkpt lat="48.70221" lon="6.18269">
        <ele>197</ele>
        <time>2026-05-18T11:48:01+02:00</time>
      </trkpt>
      <trkpt lat="48.70222" lon="6.18267">
        <ele>197</ele>
        <time>2026-05-18T11:48:02+02:00</time>
      </trkpt>
      <trkpt lat="48.70223" lon="6.18265">
        <ele>197</ele>
        <time>2026-05-18T11:48:03+02:00</time>
      </trkpt>
      <trkpt lat="48.70225" lon="6.18262">
        <ele>197</ele>
        <time>2026-05-18T11:48:04+02:00</time>
      </trkpt>
      <trkpt lat="48.70226" lon="6.18259">
        <ele>197</ele>
        <time>2026-05-18T11:48:05+02:00</time>
      </trkpt>
      <trkpt lat="48.70228" lon="6.18255">
        <ele>197.10059</ele>
        <time>2026-05-18T11:48:06+02:00</time>
      </trkpt>
      <trkpt lat="48.7023" lon="6.18251">
        <ele>197</ele>
        <time>2026-05-18T11:48:07+02:00</time>
      </trkpt>
      <trkpt lat="48.7023" lon="6.18247">
        <ele>197.10059</ele>
        <time>2026-05-18T11:48:08+02:00</time>
      </trkpt>
      <trkpt lat="48.7023" lon="6.18243">
        <ele>197.10059</ele>
        <time>2026-05-18T11:48:09+02:00</time>
      </trkpt>
      <trkpt lat="48.7023" lon="6.18237">
        <ele>197.2002</ele>
        <time>2026-05-18T11:48:10+02:00</time>
      </trkpt>
      <trkpt lat="48.70232" lon="6.18232">
        <ele>197.2002</ele>
        <time>2026-05-18T11:48:11+02:00</time>
      </trkpt>
      <trkpt lat="48.70234" lon="6.18228">
        <ele>197.2002</ele>
        <time>2026-05-18T11:48:12+02:00</time>
      </trkpt>
      <trkpt lat="48.70237" lon="6.18222">
        <ele>197.2002</ele>
        <time>2026-05-18T11:48:13+02:00</time>
      </trkpt>
      <trkpt lat="48.70239" lon="6.18216">
        <ele>197.2998</ele>
        <time>2026-05-18T11:48:14+02:00</time>
      </trkpt>
      <trkpt lat="48.70241" lon="6.18211">
        <ele>197.2998</ele>
        <time>2026-05-18T11:48:15+02:00</time>
      </trkpt>
      <trkpt lat="48.70244" lon="6.18206">
        <ele>197.2998</ele>
        <time>2026-05-18T11:48:16+02:00</time>
      </trkpt>
      <trkpt lat="48.70247" lon="6.18201">
        <ele>197.2998</ele>
        <time>2026-05-18T11:48:17+02:00</time>
      </trkpt>
      <trkpt lat="48.70249" lon="6.18195">
        <ele>197.2998</ele>
        <time>2026-05-18T11:48:18+02:00</time>
      </trkpt>
      <trkpt lat="48.70252" lon="6.1819">
        <ele>197.2998</ele>
        <time>2026-05-18T11:48:19+02:00</time>
      </trkpt>
      <trkpt lat="48.70255" lon="6.18185">
        <ele>197.2998</ele>
        <time>2026-05-18T11:48:20+02:00</time>
      </trkpt>
      <trkpt lat="48.70257" lon="6.1818">
        <ele>197.2998</ele>
        <time>2026-05-18T11:48:21+02:00</time>
      </trkpt>
      <trkpt lat="48.7026" lon="6.18175">
        <ele>197.2998</ele>
        <time>2026-05-18T11:48:22+02:00</time>
      </trkpt>
      <trkpt lat="48.70262" lon="6.18171">
        <ele>197.2998</ele>
        <time>2026-05-18T11:48:23+02:00</time>
      </trkpt>
      <trkpt lat="48.70265" lon="6.18167">
        <ele>197.40039</ele>
        <time>2026-05-18T11:48:24+02:00</time>
      </trkpt>
      <trkpt lat="48.70267" lon="6.18164">
        <ele>197.40039</ele>
        <time>2026-05-18T11:48:25+02:00</time>
      </trkpt>
      <trkpt lat="48.7027" lon="6.18162">
        <ele>197.2998</ele>
        <time>2026-05-18T11:48:26+02:00</time>
      </trkpt>
      <trkpt lat="48.70272" lon="6.18161">
        <ele>197.40039</ele>
        <time>2026-05-18T11:48:27+02:00</time>
      </trkpt>
      <trkpt lat="48.70275" lon="6.18161">
        <ele>197.40039</ele>
        <time>2026-05-18T11:48:28+02:00</time>
      </trkpt>
      <trkpt lat="48.70278" lon="6.18163">
        <ele>197.2002</ele>
        <time>2026-05-18T11:48:29+02:00</time>
      </trkpt>
      <trkpt lat="48.70281" lon="6.18166">
        <ele>197.2002</ele>
        <time>2026-05-18T11:48:30+02:00</time>
      </trkpt>
      <trkpt lat="48.70283" lon="6.18167">
        <ele>197.2002</ele>
        <time>2026-05-18T11:48:31+02:00</time>
      </trkpt>
      <trkpt lat="48.70285" lon="6.18165">
        <ele>197.2002</ele>
        <time>2026-05-18T11:48:32+02:00</time>
      </trkpt>
      <trkpt lat="48.70287" lon="6.18162">
        <ele>197.10059</ele>
        <time>2026-05-18T11:48:33+02:00</time>
      </trkpt>
      <trkpt lat="48.70287" lon="6.1816">
        <ele>197.2002</ele>
        <time>2026-05-18T11:48:34+02:00</time>
      </trkpt>
      <trkpt lat="48.70288" lon="6.18159">
        <ele>197.2002</ele>
        <time>2026-05-18T11:48:35+02:00</time>
      </trkpt>
      <trkpt lat="48.70289" lon="6.18158">
        <ele>197.2002</ele>
        <time>2026-05-18T11:48:36+02:00</time>
      </trkpt>
      <trkpt lat="48.70289" lon="6.18158">
        <ele>197.2002</ele>
        <time>2026-05-18T11:48:37+02:00</time>
      </trkpt>
      <trkpt lat="48.70289" lon="6.18158">
        <ele>197.2002</ele>
        <time>2026-05-18T11:48:38+02:00</time>
      </trkpt>
      <trkpt lat="48.70306" lon="6.18146">
        <ele>197.2002</ele>
        <time>2026-05-18T11:49:00+02:00</time>
      </trkpt>
      <trkpt lat="48.70307" lon="6.18143">
        <ele>197.2998</ele>
        <time>2026-05-18T11:49:01+02:00</time>
      </trkpt>
      <trkpt lat="48.70309" lon="6.18142">
        <ele>197.2998</ele>
        <time>2026-05-18T11:49:02+02:00</time>
      </trkpt>
      <trkpt lat="48.70312" lon="6.1814">
        <ele>197.2998</ele>
        <time>2026-05-18T11:49:03+02:00</time>
      </trkpt>
      <trkpt lat="48.70315" lon="6.1814">
        <ele>197.2998</ele>
        <time>2026-05-18T11:49:04+02:00</time>
      </trkpt>
      <trkpt lat="48.70317" lon="6.18138">
        <ele>197.2998</ele>
        <time>2026-05-18T11:49:05+02:00</time>
      </trkpt>
      <trkpt lat="48.70319" lon="6.18135">
        <ele>197.40039</ele>
        <time>2026-05-18T11:49:06+02:00</time>
      </trkpt>
      <trkpt lat="48.70321" lon="6.18131">
        <ele>197.40039</ele>
        <time>2026-05-18T11:49:07+02:00</time>
      </trkpt>
      <trkpt lat="48.70324" lon="6.18126">
        <ele>197.5</ele>
        <time>2026-05-18T11:49:08+02:00</time>
      </trkpt>
      <trkpt lat="48.70326" lon="6.18122">
        <ele>197.40039</ele>
        <time>2026-05-18T11:49:09+02:00</time>
      </trkpt>
      <trkpt lat="48.70329" lon="6.18117">
        <ele>197.5</ele>
        <time>2026-05-18T11:49:10+02:00</time>
      </trkpt>
      <trkpt lat="48.70331" lon="6.18111">
        <ele>197.5</ele>
        <time>2026-05-18T11:49:11+02:00</time>
      </trkpt>
      <trkpt lat="48.70334" lon="6.18105">
        <ele>197.60059</ele>
        <time>2026-05-18T11:49:12+02:00</time>
      </trkpt>
      <trkpt lat="48.70337" lon="6.18099">
        <ele>197.60059</ele>
        <time>2026-05-18T11:49:13+02:00</time>
      </trkpt>
      <trkpt lat="48.70339" lon="6.18093">
        <ele>197.60059</ele>
        <time>2026-05-18T11:49:14+02:00</time>
      </trkpt>
      <trkpt lat="48.70342" lon="6.18087">
        <ele>197.60059</ele>
        <time>2026-05-18T11:49:15+02:00</time>
      </trkpt>
      <trkpt lat="48.70345" lon="6.1808">
        <ele>197.5</ele>
        <time>2026-05-18T11:49:16+02:00</time>
      </trkpt>
      <trkpt lat="48.70347" lon="6.18074">
        <ele>197.60059</ele>
        <time>2026-05-18T11:49:17+02:00</time>
      </trkpt>
      <trkpt lat="48.7035" lon="6.18067">
        <ele>197.5</ele>
        <time>2026-05-18T11:49:18+02:00</time>
      </trkpt>
      <trkpt lat="48.70352" lon="6.18061">
        <ele>197.60059</ele>
        <time>2026-05-18T11:49:19+02:00</time>
      </trkpt>
      <trkpt lat="48.70355" lon="6.18054">
        <ele>197.60059</ele>
        <time>2026-05-18T11:49:20+02:00</time>
      </trkpt>
      <trkpt lat="48.70358" lon="6.18048">
        <ele>197.7002</ele>
        <time>2026-05-18T11:49:21+02:00</time>
      </trkpt>
      <trkpt lat="48.7036" lon="6.18041">
        <ele>197.60059</ele>
        <time>2026-05-18T11:49:22+02:00</time>
      </trkpt>
      <trkpt lat="48.70363" lon="6.18034">
        <ele>197.60059</ele>
        <time>2026-05-18T11:49:23+02:00</time>
      </trkpt>
      <trkpt lat="48.70365" lon="6.18027">
        <ele>197.60059</ele>
        <time>2026-05-18T11:49:24+02:00</time>
      </trkpt>
      <trkpt lat="48.70367" lon="6.18021">
        <ele>197.7002</ele>
        <time>2026-05-18T11:49:25+02:00</time>
      </trkpt>
      <trkpt lat="48.70369" lon="6.18014">
        <ele>197.7998</ele>
        <time>2026-05-18T11:49:26+02:00</time>
      </trkpt>
      <trkpt lat="48.70372" lon="6.18007">
        <ele>197.7002</ele>
        <time>2026-05-18T11:49:27+02:00</time>
      </trkpt>
      <trkpt lat="48.70373" lon="6.18">
        <ele>197.7998</ele>
        <time>2026-05-18T11:49:28+02:00</time>
      </trkpt>
      <trkpt lat="48.70375" lon="6.17994">
        <ele>197.7998</ele>
        <time>2026-05-18T11:49:29+02:00</time>
      </trkpt>
      <trkpt lat="48.70376" lon="6.17987">
        <ele>197.7998</ele>
        <time>2026-05-18T11:49:30+02:00</time>
      </trkpt>
      <trkpt lat="48.70378" lon="6.1798">
        <ele>197.7002</ele>
        <time>2026-05-18T11:49:31+02:00</time>
      </trkpt>
      <trkpt lat="48.70379" lon="6.17973">
        <ele>197.7002</ele>
        <time>2026-05-18T11:49:32+02:00</time>
      </trkpt>
      <trkpt lat="48.7038" lon="6.17966">
        <ele>197.7002</ele>
        <time>2026-05-18T11:49:33+02:00</time>
      </trkpt>
      <trkpt lat="48.70382" lon="6.17959">
        <ele>197.7002</ele>
        <time>2026-05-18T11:49:34+02:00</time>
      </trkpt>
      <trkpt lat="48.70384" lon="6.17953">
        <ele>197.7002</ele>
        <time>2026-05-18T11:49:35+02:00</time>
      </trkpt>
      <trkpt lat="48.70385" lon="6.17946">
        <ele>197.7002</ele>
        <time>2026-05-18T11:49:36+02:00</time>
      </trkpt>
      <trkpt lat="48.70387" lon="6.17939">
        <ele>197.7002</ele>
        <time>2026-05-18T11:49:37+02:00</time>
      </trkpt>
      <trkpt lat="48.70389" lon="6.17933">
        <ele>197.7002</ele>
        <time>2026-05-18T11:49:38+02:00</time>
      </trkpt>
      <trkpt lat="48.7039" lon="6.17926">
        <ele>197.7998</ele>
        <time>2026-05-18T11:49:39+02:00</time>
      </trkpt>
      <trkpt lat="48.70392" lon="6.17919">
        <ele>197.7998</ele>
        <time>2026-05-18T11:49:40+02:00</time>
      </trkpt>
      <trkpt lat="48.70393" lon="6.17912">
        <ele>197.7998</ele>
        <time>2026-05-18T11:49:41+02:00</time>
      </trkpt>
      <trkpt lat="48.70395" lon="6.17905">
        <ele>197.7998</ele>
        <time>2026-05-18T11:49:42+02:00</time>
      </trkpt>
      <trkpt lat="48.70397" lon="6.17899">
        <ele>197.7998</ele>
        <time>2026-05-18T11:49:43+02:00</time>
      </trkpt>
      <trkpt lat="48.70399" lon="6.17892">
        <ele>197.7998</ele>
        <time>2026-05-18T11:49:44+02:00</time>
      </trkpt>
      <trkpt lat="48.704" lon="6.17886">
        <ele>197.7998</ele>
        <time>2026-05-18T11:49:45+02:00</time>
      </trkpt>
      <trkpt lat="48.70402" lon="6.17879">
        <ele>197.7998</ele>
        <time>2026-05-18T11:49:46+02:00</time>
      </trkpt>
      <trkpt lat="48.70403" lon="6.17871">
        <ele>197.7998</ele>
        <time>2026-05-18T11:49:47+02:00</time>
      </trkpt>
      <trkpt lat="48.70405" lon="6.17864">
        <ele>197.7002</ele>
        <time>2026-05-18T11:49:48+02:00</time>
      </trkpt>
      <trkpt lat="48.70406" lon="6.17857">
        <ele>197.7002</ele>
        <time>2026-05-18T11:49:49+02:00</time>
      </trkpt>
      <trkpt lat="48.70407" lon="6.1785">
        <ele>197.7002</ele>
        <time>2026-05-18T11:49:50+02:00</time>
      </trkpt>
      <trkpt lat="48.70408" lon="6.17843">
        <ele>197.7002</ele>
        <time>2026-05-18T11:49:51+02:00</time>
      </trkpt>
      <trkpt lat="48.70409" lon="6.1784">
        <ele>197.7002</ele>
        <time>2026-05-18T11:49:52+02:00</time>
      </trkpt>
      <trkpt lat="48.7041" lon="6.17829">
        <ele>197.60059</ele>
        <time>2026-05-18T11:49:53+02:00</time>
      </trkpt>
      <trkpt lat="48.70411" lon="6.17821">
        <ele>197.60059</ele>
        <time>2026-05-18T11:49:54+02:00</time>
      </trkpt>
      <trkpt lat="48.70412" lon="6.17814">
        <ele>197.5</ele>
        <time>2026-05-18T11:49:55+02:00</time>
      </trkpt>
      <trkpt lat="48.70413" lon="6.17806">
        <ele>197.40039</ele>
        <time>2026-05-18T11:49:56+02:00</time>
      </trkpt>
      <trkpt lat="48.70414" lon="6.17799">
        <ele>197.2998</ele>
        <time>2026-05-18T11:49:57+02:00</time>
      </trkpt>
      <trkpt lat="48.70414" lon="6.17791">
        <ele>197.10059</ele>
        <time>2026-05-18T11:49:58+02:00</time>
      </trkpt>
      <trkpt lat="48.70415" lon="6.17787">
        <ele>197.10059</ele>
        <time>2026-05-18T11:49:59+02:00</time>
      </trkpt>
      <trkpt lat="48.70416" lon="6.17775">
        <ele>197</ele>
        <time>2026-05-18T11:50:00+02:00</time>
      </trkpt>
      <trkpt lat="48.70417" lon="6.17767">
        <ele>196.7998</ele>
        <time>2026-05-18T11:50:01+02:00</time>
      </trkpt>
      <trkpt lat="48.70418" lon="6.17759">
        <ele>196.7002</ele>
        <time>2026-05-18T11:50:02+02:00</time>
      </trkpt>
      <trkpt lat="48.70418" lon="6.17751">
        <ele>196.60059</ele>
        <time>2026-05-18T11:50:03+02:00</time>
      </trkpt>
      <trkpt lat="48.70418" lon="6.17742">
        <ele>196.5</ele>
        <time>2026-05-18T11:50:04+02:00</time>
      </trkpt>
      <trkpt lat="48.70418" lon="6.17734">
        <ele>196.40039</ele>
        <time>2026-05-18T11:50:05+02:00</time>
      </trkpt>
      <trkpt lat="48.70418" lon="6.17725">
        <ele>196.40039</ele>
        <time>2026-05-18T11:50:06+02:00</time>
      </trkpt>
      <trkpt lat="48.70418" lon="6.17717">
        <ele>196.40039</ele>
        <time>2026-05-18T11:50:07+02:00</time>
      </trkpt>
      <trkpt lat="48.70417" lon="6.17709">
        <ele>196.5</ele>
        <time>2026-05-18T11:50:08+02:00</time>
      </trkpt>
      <trkpt lat="48.70417" lon="6.17705">
        <ele>196.5</ele>
        <time>2026-05-18T11:50:09+02:00</time>
      </trkpt>
      <trkpt lat="48.70417" lon="6.17694">
        <ele>196.5</ele>
        <time>2026-05-18T11:50:10+02:00</time>
      </trkpt>
      <trkpt lat="48.70416" lon="6.17686">
        <ele>196.60059</ele>
        <time>2026-05-18T11:50:11+02:00</time>
      </trkpt>
      <trkpt lat="48.70416" lon="6.17678">
        <ele>196.60059</ele>
        <time>2026-05-18T11:50:12+02:00</time>
      </trkpt>
      <trkpt lat="48.70415" lon="6.1767">
        <ele>196.7002</ele>
        <time>2026-05-18T11:50:13+02:00</time>
      </trkpt>
      <trkpt lat="48.70415" lon="6.17662">
        <ele>196.7002</ele>
        <time>2026-05-18T11:50:14+02:00</time>
      </trkpt>
      <trkpt lat="48.70415" lon="6.17653">
        <ele>196.7998</ele>
        <time>2026-05-18T11:50:15+02:00</time>
      </trkpt>
      <trkpt lat="48.70415" lon="6.17645">
        <ele>196.7998</ele>
        <time>2026-05-18T11:50:16+02:00</time>
      </trkpt>
      <trkpt lat="48.70415" lon="6.17637">
        <ele>196.90039</ele>
        <time>2026-05-18T11:50:17+02:00</time>
      </trkpt>
      <trkpt lat="48.70415" lon="6.17629">
        <ele>196.90039</ele>
        <time>2026-05-18T11:50:18+02:00</time>
      </trkpt>
      <trkpt lat="48.70416" lon="6.17622">
        <ele>196.90039</ele>
        <time>2026-05-18T11:50:19+02:00</time>
      </trkpt>
      <trkpt lat="48.70416" lon="6.17615">
        <ele>196.90039</ele>
        <time>2026-05-18T11:50:20+02:00</time>
      </trkpt>
      <trkpt lat="48.70416" lon="6.17608">
        <ele>196.90039</ele>
        <time>2026-05-18T11:50:21+02:00</time>
      </trkpt>
      <trkpt lat="48.70416" lon="6.17601">
        <ele>197</ele>
        <time>2026-05-18T11:50:22+02:00</time>
      </trkpt>
      <trkpt lat="48.70416" lon="6.17593">
        <ele>196.90039</ele>
        <time>2026-05-18T11:50:23+02:00</time>
      </trkpt>
      <trkpt lat="48.70416" lon="6.17586">
        <ele>196.90039</ele>
        <time>2026-05-18T11:50:24+02:00</time>
      </trkpt>
      <trkpt lat="48.70416" lon="6.17578">
        <ele>196.90039</ele>
        <time>2026-05-18T11:50:25+02:00</time>
      </trkpt>
      <trkpt lat="48.70416" lon="6.1757">
        <ele>196.90039</ele>
        <time>2026-05-18T11:50:26+02:00</time>
      </trkpt>
      <trkpt lat="48.70416" lon="6.17563">
        <ele>196.7998</ele>
        <time>2026-05-18T11:50:27+02:00</time>
      </trkpt>
      <trkpt lat="48.70416" lon="6.17556">
        <ele>196.7998</ele>
        <time>2026-05-18T11:50:28+02:00</time>
      </trkpt>
      <trkpt lat="48.70416" lon="6.17549">
        <ele>196.7998</ele>
        <time>2026-05-18T11:50:29+02:00</time>
      </trkpt>
      <trkpt lat="48.70416" lon="6.17542">
        <ele>196.7002</ele>
        <time>2026-05-18T11:50:30+02:00</time>
      </trkpt>
      <trkpt lat="48.70416" lon="6.17535">
        <ele>196.7002</ele>
        <time>2026-05-18T11:50:31+02:00</time>
      </trkpt>
      <trkpt lat="48.70417" lon="6.17529">
        <ele>196.5</ele>
        <time>2026-05-18T11:50:32+02:00</time>
      </trkpt>
      <trkpt lat="48.70417" lon="6.17524">
        <ele>196.5</ele>
        <time>2026-05-18T11:50:33+02:00</time>
      </trkpt>
      <trkpt lat="48.70418" lon="6.17518">
        <ele>196.5</ele>
        <time>2026-05-18T11:50:34+02:00</time>
      </trkpt>
      <trkpt lat="48.70418" lon="6.17511">
        <ele>196.40039</ele>
        <time>2026-05-18T11:50:35+02:00</time>
      </trkpt>
      <trkpt lat="48.70418" lon="6.17505">
        <ele>196.40039</ele>
        <time>2026-05-18T11:50:36+02:00</time>
      </trkpt>
      <trkpt lat="48.70418" lon="6.17498">
        <ele>196.5</ele>
        <time>2026-05-18T11:50:37+02:00</time>
      </trkpt>
      <trkpt lat="48.70418" lon="6.17492">
        <ele>196.5</ele>
        <time>2026-05-18T11:50:38+02:00</time>
      </trkpt>
      <trkpt lat="48.70418" lon="6.17485">
        <ele>196.5</ele>
        <time>2026-05-18T11:50:39+02:00</time>
      </trkpt>
      <trkpt lat="48.70418" lon="6.17478">
        <ele>196.60059</ele>
        <time>2026-05-18T11:50:40+02:00</time>
      </trkpt>
      <trkpt lat="48.70418" lon="6.17471">
        <ele>196.7002</ele>
        <time>2026-05-18T11:50:41+02:00</time>
      </trkpt>
      <trkpt lat="48.70418" lon="6.17463">
        <ele>196.7998</ele>
        <time>2026-05-18T11:50:42+02:00</time>
      </trkpt>
      <trkpt lat="48.70418" lon="6.17455">
        <ele>196.90039</ele>
        <time>2026-05-18T11:50:43+02:00</time>
      </trkpt>
      <trkpt lat="48.70418" lon="6.17448">
        <ele>197</ele>
        <time>2026-05-18T11:50:44+02:00</time>
      </trkpt>
      <trkpt lat="48.70417" lon="6.1744">
        <ele>197.10059</ele>
        <time>2026-05-18T11:50:45+02:00</time>
      </trkpt>
      <trkpt lat="48.70417" lon="6.17432">
        <ele>197.10059</ele>
        <time>2026-05-18T11:50:46+02:00</time>
      </trkpt>
      <trkpt lat="48.70416" lon="6.17424">
        <ele>197.2998</ele>
        <time>2026-05-18T11:50:47+02:00</time>
      </trkpt>
      <trkpt lat="48.70416" lon="6.17415">
        <ele>197.40039</ele>
        <time>2026-05-18T11:50:48+02:00</time>
      </trkpt>
      <trkpt lat="48.70414" lon="6.17383">
        <ele>197.7998</ele>
        <time>2026-05-18T11:50:49+02:00</time>
      </trkpt>
      <trkpt lat="48.70414" lon="6.17375">
        <ele>197.7998</ele>
        <time>2026-05-18T11:50:50+02:00</time>
      </trkpt>
      <trkpt lat="48.70414" lon="6.17367">
        <ele>197.90039</ele>
        <time>2026-05-18T11:50:51+02:00</time>
      </trkpt>
      <trkpt lat="48.70414" lon="6.17358">
        <ele>198</ele>
        <time>2026-05-18T11:50:52+02:00</time>
      </trkpt>
      <trkpt lat="48.70414" lon="6.1735">
        <ele>198</ele>
        <time>2026-05-18T11:50:53+02:00</time>
      </trkpt>
      <trkpt lat="48.70414" lon="6.17342">
        <ele>198.10059</ele>
        <time>2026-05-18T11:50:54+02:00</time>
      </trkpt>
      <trkpt lat="48.70414" lon="6.17333">
        <ele>198.10059</ele>
        <time>2026-05-18T11:50:55+02:00</time>
      </trkpt>
      <trkpt lat="48.70414" lon="6.17325">
        <ele>198</ele>
        <time>2026-05-18T11:50:56+02:00</time>
      </trkpt>
      <trkpt lat="48.70414" lon="6.17316">
        <ele>198.10059</ele>
        <time>2026-05-18T11:50:57+02:00</time>
      </trkpt>
      <trkpt lat="48.70414" lon="6.17308">
        <ele>198.10059</ele>
        <time>2026-05-18T11:50:58+02:00</time>
      </trkpt>
      <trkpt lat="48.70414" lon="6.17299">
        <ele>198.10059</ele>
        <time>2026-05-18T11:50:59+02:00</time>
      </trkpt>
      <trkpt lat="48.70414" lon="6.17291">
        <ele>198.2002</ele>
        <time>2026-05-18T11:51:00+02:00</time>
      </trkpt>
      <trkpt lat="48.70415" lon="6.17283">
        <ele>198.2002</ele>
        <time>2026-05-18T11:51:01+02:00</time>
      </trkpt>
      <trkpt lat="48.70416" lon="6.17274">
        <ele>198.2002</ele>
        <time>2026-05-18T11:51:02+02:00</time>
      </trkpt>
      <trkpt lat="48.70416" lon="6.17266">
        <ele>198.2002</ele>
        <time>2026-05-18T11:51:03+02:00</time>
      </trkpt>
      <trkpt lat="48.70417" lon="6.17257">
        <ele>198</ele>
        <time>2026-05-18T11:51:04+02:00</time>
      </trkpt>
      <trkpt lat="48.70418" lon="6.17249">
        <ele>198</ele>
        <time>2026-05-18T11:51:05+02:00</time>
      </trkpt>
      <trkpt lat="48.70419" lon="6.1724">
        <ele>198.10059</ele>
        <time>2026-05-18T11:51:06+02:00</time>
      </trkpt>
      <trkpt lat="48.70419" lon="6.17231">
        <ele>198.2002</ele>
        <time>2026-05-18T11:51:07+02:00</time>
      </trkpt>
      <trkpt lat="48.70421" lon="6.17222">
        <ele>198.2998</ele>
        <time>2026-05-18T11:51:08+02:00</time>
      </trkpt>
      <trkpt lat="48.70421" lon="6.17213">
        <ele>198.40039</ele>
        <time>2026-05-18T11:51:09+02:00</time>
      </trkpt>
      <trkpt lat="48.70423" lon="6.17204">
        <ele>198.2002</ele>
        <time>2026-05-18T11:51:10+02:00</time>
      </trkpt>
      <trkpt lat="48.70424" lon="6.17196">
        <ele>198.2998</ele>
        <time>2026-05-18T11:51:11+02:00</time>
      </trkpt>
      <trkpt lat="48.70426" lon="6.17187">
        <ele>198.5</ele>
        <time>2026-05-18T11:51:12+02:00</time>
      </trkpt>
      <trkpt lat="48.70427" lon="6.17178">
        <ele>198.7002</ele>
        <time>2026-05-18T11:51:13+02:00</time>
      </trkpt>
      <trkpt lat="48.70429" lon="6.1717">
        <ele>198.7002</ele>
        <time>2026-05-18T11:51:14+02:00</time>
      </trkpt>
      <trkpt lat="48.70431" lon="6.17161">
        <ele>199</ele>
        <time>2026-05-18T11:51:15+02:00</time>
      </trkpt>
      <trkpt lat="48.70432" lon="6.17152">
        <ele>199.2002</ele>
        <time>2026-05-18T11:51:16+02:00</time>
      </trkpt>
      <trkpt lat="48.70434" lon="6.17144">
        <ele>199</ele>
        <time>2026-05-18T11:51:17+02:00</time>
      </trkpt>
      <trkpt lat="48.70436" lon="6.17135">
        <ele>199.2998</ele>
        <time>2026-05-18T11:51:18+02:00</time>
      </trkpt>
      <trkpt lat="48.70438" lon="6.17127">
        <ele>199.5</ele>
        <time>2026-05-18T11:51:19+02:00</time>
      </trkpt>
      <trkpt lat="48.7044" lon="6.17119">
        <ele>199.2998</ele>
        <time>2026-05-18T11:51:20+02:00</time>
      </trkpt>
      <trkpt lat="48.70443" lon="6.17111">
        <ele>199.5</ele>
        <time>2026-05-18T11:51:21+02:00</time>
      </trkpt>
      <trkpt lat="48.70445" lon="6.17103">
        <ele>199.40039</ele>
        <time>2026-05-18T11:51:22+02:00</time>
      </trkpt>
      <trkpt lat="48.70447" lon="6.17099">
        <ele>199.40039</ele>
        <time>2026-05-18T11:51:23+02:00</time>
      </trkpt>
      <trkpt lat="48.7045" lon="6.17087">
        <ele>199.7998</ele>
        <time>2026-05-18T11:51:24+02:00</time>
      </trkpt>
      <trkpt lat="48.70453" lon="6.17079">
        <ele>199.60059</ele>
        <time>2026-05-18T11:51:25+02:00</time>
      </trkpt>
      <trkpt lat="48.70455" lon="6.17072">
        <ele>199.60059</ele>
        <time>2026-05-18T11:51:26+02:00</time>
      </trkpt>
      <trkpt lat="48.70458" lon="6.17065">
        <ele>199.2998</ele>
        <time>2026-05-18T11:51:27+02:00</time>
      </trkpt>
      <trkpt lat="48.7046" lon="6.17058">
        <ele>199.40039</ele>
        <time>2026-05-18T11:51:28+02:00</time>
      </trkpt>
      <trkpt lat="48.70462" lon="6.17052">
        <ele>199.10059</ele>
        <time>2026-05-18T11:51:29+02:00</time>
      </trkpt>
      <trkpt lat="48.70465" lon="6.17046">
        <ele>199.10059</ele>
        <time>2026-05-18T11:51:30+02:00</time>
      </trkpt>
      <trkpt lat="48.70468" lon="6.17039">
        <ele>198.90039</ele>
        <time>2026-05-18T11:51:31+02:00</time>
      </trkpt>
      <trkpt lat="48.70471" lon="6.17033">
        <ele>199.10059</ele>
        <time>2026-05-18T11:51:32+02:00</time>
      </trkpt>
      <trkpt lat="48.70473" lon="6.17026">
        <ele>198.7998</ele>
        <time>2026-05-18T11:51:33+02:00</time>
      </trkpt>
      <trkpt lat="48.70476" lon="6.17019">
        <ele>199</ele>
        <time>2026-05-18T11:51:34+02:00</time>
      </trkpt>
      <trkpt lat="48.70479" lon="6.17012">
        <ele>198.60059</ele>
        <time>2026-05-18T11:51:35+02:00</time>
      </trkpt>
      <trkpt lat="48.70483" lon="6.17005">
        <ele>198.7002</ele>
        <time>2026-05-18T11:51:36+02:00</time>
      </trkpt>
      <trkpt lat="48.70486" lon="6.16998">
        <ele>198.5</ele>
        <time>2026-05-18T11:51:37+02:00</time>
      </trkpt>
      <trkpt lat="48.70489" lon="6.16991">
        <ele>198.60059</ele>
        <time>2026-05-18T11:51:38+02:00</time>
      </trkpt>
      <trkpt lat="48.70492" lon="6.16983">
        <ele>198.40039</ele>
        <time>2026-05-18T11:51:39+02:00</time>
      </trkpt>
      <trkpt lat="48.70496" lon="6.16976">
        <ele>198.2002</ele>
        <time>2026-05-18T11:51:40+02:00</time>
      </trkpt>
      <trkpt lat="48.705" lon="6.16969">
        <ele>198.2002</ele>
        <time>2026-05-18T11:51:41+02:00</time>
      </trkpt>
      <trkpt lat="48.70503" lon="6.16961">
        <ele>198</ele>
        <time>2026-05-18T11:51:42+02:00</time>
      </trkpt>
      <trkpt lat="48.70506" lon="6.16953">
        <ele>198.10059</ele>
        <time>2026-05-18T11:51:43+02:00</time>
      </trkpt>
      <trkpt lat="48.7051" lon="6.16946">
        <ele>197.90039</ele>
        <time>2026-05-18T11:51:44+02:00</time>
      </trkpt>
      <trkpt lat="48.70513" lon="6.16938">
        <ele>197.90039</ele>
        <time>2026-05-18T11:51:45+02:00</time>
      </trkpt>
      <trkpt lat="48.70517" lon="6.16931">
        <ele>198.10059</ele>
        <time>2026-05-18T11:51:46+02:00</time>
      </trkpt>
      <trkpt lat="48.70519" lon="6.16927">
        <ele>197.7998</ele>
        <time>2026-05-18T11:51:47+02:00</time>
      </trkpt>
      <trkpt lat="48.70524" lon="6.16916">
        <ele>197.90039</ele>
        <time>2026-05-18T11:51:48+02:00</time>
      </trkpt>
      <trkpt lat="48.70529" lon="6.16909">
        <ele>197.90039</ele>
        <time>2026-05-18T11:51:49+02:00</time>
      </trkpt>
      <trkpt lat="48.70533" lon="6.16902">
        <ele>197.7002</ele>
        <time>2026-05-18T11:51:50+02:00</time>
      </trkpt>
      <trkpt lat="48.70538" lon="6.16896">
        <ele>197.60059</ele>
        <time>2026-05-18T11:51:51+02:00</time>
      </trkpt>
      <trkpt lat="48.70543" lon="6.1689">
        <ele>197.7002</ele>
        <time>2026-05-18T11:51:52+02:00</time>
      </trkpt>
      <trkpt lat="48.70548" lon="6.16884">
        <ele>197.40039</ele>
        <time>2026-05-18T11:51:53+02:00</time>
      </trkpt>
      <trkpt lat="48.70553" lon="6.16878">
        <ele>197.60059</ele>
        <time>2026-05-18T11:51:54+02:00</time>
      </trkpt>
      <trkpt lat="48.70558" lon="6.16873">
        <ele>197.7998</ele>
        <time>2026-05-18T11:51:55+02:00</time>
      </trkpt>
      <trkpt lat="48.70564" lon="6.16867">
        <ele>197.60059</ele>
        <time>2026-05-18T11:51:56+02:00</time>
      </trkpt>
      <trkpt lat="48.70569" lon="6.16862">
        <ele>197.90039</ele>
        <time>2026-05-18T11:51:57+02:00</time>
      </trkpt>
      <trkpt lat="48.70574" lon="6.16856">
        <ele>197.90039</ele>
        <time>2026-05-18T11:51:58+02:00</time>
      </trkpt>
      <trkpt lat="48.70579" lon="6.1685">
        <ele>197.7002</ele>
        <time>2026-05-18T11:51:59+02:00</time>
      </trkpt>
      <trkpt lat="48.70584" lon="6.16845">
        <ele>197.7998</ele>
        <time>2026-05-18T11:52:00+02:00</time>
      </trkpt>
      <trkpt lat="48.70589" lon="6.1684">
        <ele>197.7002</ele>
        <time>2026-05-18T11:52:01+02:00</time>
      </trkpt>
      <trkpt lat="48.70594" lon="6.16835">
        <ele>197.90039</ele>
        <time>2026-05-18T11:52:02+02:00</time>
      </trkpt>
      <trkpt lat="48.70599" lon="6.16829">
        <ele>198.2002</ele>
        <time>2026-05-18T11:52:03+02:00</time>
      </trkpt>
      <trkpt lat="48.70603" lon="6.16824">
        <ele>198.2002</ele>
        <time>2026-05-18T11:52:04+02:00</time>
      </trkpt>
      <trkpt lat="48.70608" lon="6.16819">
        <ele>198.5</ele>
        <time>2026-05-18T11:52:05+02:00</time>
      </trkpt>
      <trkpt lat="48.70613" lon="6.16813">
        <ele>198.7998</ele>
        <time>2026-05-18T11:52:06+02:00</time>
      </trkpt>
      <trkpt lat="48.70617" lon="6.16808">
        <ele>198.7998</ele>
        <time>2026-05-18T11:52:07+02:00</time>
      </trkpt>
      <trkpt lat="48.70622" lon="6.16802">
        <ele>199.2002</ele>
        <time>2026-05-18T11:52:08+02:00</time>
      </trkpt>
      <trkpt lat="48.70627" lon="6.16796">
        <ele>199.90039</ele>
        <time>2026-05-18T11:52:09+02:00</time>
      </trkpt>
      <trkpt lat="48.70631" lon="6.16791">
        <ele>199.90039</ele>
        <time>2026-05-18T11:52:10+02:00</time>
      </trkpt>
      <trkpt lat="48.70636" lon="6.16785">
        <ele>200.40039</ele>
        <time>2026-05-18T11:52:11+02:00</time>
      </trkpt>
      <trkpt lat="48.7064" lon="6.1678">
        <ele>200.2002</ele>
        <time>2026-05-18T11:52:12+02:00</time>
      </trkpt>
      <trkpt lat="48.70645" lon="6.16775">
        <ele>200.40039</ele>
        <time>2026-05-18T11:52:13+02:00</time>
      </trkpt>
      <trkpt lat="48.70648" lon="6.1677">
        <ele>200.7998</ele>
        <time>2026-05-18T11:52:14+02:00</time>
      </trkpt>
      <trkpt lat="48.70652" lon="6.16766">
        <ele>200.60059</ele>
        <time>2026-05-18T11:52:15+02:00</time>
      </trkpt>
      <trkpt lat="48.70656" lon="6.16761">
        <ele>200.90039</ele>
        <time>2026-05-18T11:52:16+02:00</time>
      </trkpt>
      <trkpt lat="48.7066" lon="6.16758">
        <ele>200.7002</ele>
        <time>2026-05-18T11:52:17+02:00</time>
      </trkpt>
      <trkpt lat="48.70664" lon="6.16757">
        <ele>200.7002</ele>
        <time>2026-05-18T11:52:18+02:00</time>
      </trkpt>
      <trkpt lat="48.70669" lon="6.16757">
        <ele>200.60059</ele>
        <time>2026-05-18T11:52:19+02:00</time>
      </trkpt>
      <trkpt lat="48.70673" lon="6.16757">
        <ele>200.40039</ele>
        <time>2026-05-18T11:52:20+02:00</time>
      </trkpt>
      <trkpt lat="48.70678" lon="6.16755">
        <ele>200.2998</ele>
        <time>2026-05-18T11:52:21+02:00</time>
      </trkpt>
      <trkpt lat="48.70683" lon="6.16753">
        <ele>200.7998</ele>
        <time>2026-05-18T11:52:22+02:00</time>
      </trkpt>
      <trkpt lat="48.70688" lon="6.16751">
        <ele>200.7998</ele>
        <time>2026-05-18T11:52:23+02:00</time>
      </trkpt>
      <trkpt lat="48.70693" lon="6.16748">
        <ele>200.7002</ele>
        <time>2026-05-18T11:52:24+02:00</time>
      </trkpt>
      <trkpt lat="48.70698" lon="6.16745">
        <ele>200.5</ele>
        <time>2026-05-18T11:52:25+02:00</time>
      </trkpt>
      <trkpt lat="48.70703" lon="6.16742">
        <ele>200.7998</ele>
        <time>2026-05-18T11:52:26+02:00</time>
      </trkpt>
      <trkpt lat="48.70709" lon="6.16739">
        <ele>200.60059</ele>
        <time>2026-05-18T11:52:27+02:00</time>
      </trkpt>
      <trkpt lat="48.70714" lon="6.16737">
        <ele>200.40039</ele>
        <time>2026-05-18T11:52:28+02:00</time>
      </trkpt>
      <trkpt lat="48.70719" lon="6.16734">
        <ele>200.60059</ele>
        <time>2026-05-18T11:52:29+02:00</time>
      </trkpt>
      <trkpt lat="48.70725" lon="6.16732">
        <ele>200.40039</ele>
        <time>2026-05-18T11:52:30+02:00</time>
      </trkpt>
      <trkpt lat="48.70731" lon="6.16729">
        <ele>200.2002</ele>
        <time>2026-05-18T11:52:31+02:00</time>
      </trkpt>
      <trkpt lat="48.70736" lon="6.16726">
        <ele>200.5</ele>
        <time>2026-05-18T11:52:32+02:00</time>
      </trkpt>
      <trkpt lat="48.70742" lon="6.16724">
        <ele>200.40039</ele>
        <time>2026-05-18T11:52:33+02:00</time>
      </trkpt>
      <trkpt lat="48.70748" lon="6.16722">
        <ele>200.40039</ele>
        <time>2026-05-18T11:52:34+02:00</time>
      </trkpt>
      <trkpt lat="48.70754" lon="6.1672">
        <ele>200.5</ele>
        <time>2026-05-18T11:52:35+02:00</time>
      </trkpt>
      <trkpt lat="48.7076" lon="6.16718">
        <ele>200.90039</ele>
        <time>2026-05-18T11:52:36+02:00</time>
      </trkpt>
      <trkpt lat="48.70766" lon="6.16717">
        <ele>200.90039</ele>
        <time>2026-05-18T11:52:37+02:00</time>
      </trkpt>
      <trkpt lat="48.70772" lon="6.16716">
        <ele>201</ele>
        <time>2026-05-18T11:52:38+02:00</time>
      </trkpt>
      <trkpt lat="48.70778" lon="6.16715">
        <ele>201</ele>
        <time>2026-05-18T11:52:39+02:00</time>
      </trkpt>
      <trkpt lat="48.70781" lon="6.16714">
        <ele>201</ele>
        <time>2026-05-18T11:52:40+02:00</time>
      </trkpt>
      <trkpt lat="48.7079" lon="6.16714">
        <ele>201.10059</ele>
        <time>2026-05-18T11:52:41+02:00</time>
      </trkpt>
      <trkpt lat="48.70797" lon="6.16714">
        <ele>201.2002</ele>
        <time>2026-05-18T11:52:42+02:00</time>
      </trkpt>
      <trkpt lat="48.70802" lon="6.16714">
        <ele>201.2998</ele>
        <time>2026-05-18T11:52:43+02:00</time>
      </trkpt>
      <trkpt lat="48.70809" lon="6.16714">
        <ele>201.40039</ele>
        <time>2026-05-18T11:52:44+02:00</time>
      </trkpt>
      <trkpt lat="48.70815" lon="6.16714">
        <ele>201.5</ele>
        <time>2026-05-18T11:52:45+02:00</time>
      </trkpt>
      <trkpt lat="48.70822" lon="6.16715">
        <ele>201.60059</ele>
        <time>2026-05-18T11:52:46+02:00</time>
      </trkpt>
      <trkpt lat="48.70828" lon="6.16715">
        <ele>201.60059</ele>
        <time>2026-05-18T11:52:47+02:00</time>
      </trkpt>
      <trkpt lat="48.70834" lon="6.16716">
        <ele>201.7002</ele>
        <time>2026-05-18T11:52:48+02:00</time>
      </trkpt>
      <trkpt lat="48.70839" lon="6.16717">
        <ele>201.7002</ele>
        <time>2026-05-18T11:52:49+02:00</time>
      </trkpt>
      <trkpt lat="48.70844" lon="6.16717">
        <ele>201.7002</ele>
        <time>2026-05-18T11:52:50+02:00</time>
      </trkpt>
      <trkpt lat="48.70849" lon="6.16718">
        <ele>201.60059</ele>
        <time>2026-05-18T11:52:51+02:00</time>
      </trkpt>
      <trkpt lat="48.70852" lon="6.16719">
        <ele>201.60059</ele>
        <time>2026-05-18T11:52:52+02:00</time>
      </trkpt>
      <trkpt lat="48.70854" lon="6.1672">
        <ele>201.10059</ele>
        <time>2026-05-18T11:52:53+02:00</time>
      </trkpt>
      <trkpt lat="48.70856" lon="6.16722">
        <ele>201.10059</ele>
        <time>2026-05-18T11:52:54+02:00</time>
      </trkpt>
      <trkpt lat="48.70858" lon="6.16722">
        <ele>201.10059</ele>
        <time>2026-05-18T11:52:55+02:00</time>
      </trkpt>
      <trkpt lat="48.70861" lon="6.16722">
        <ele>201.10059</ele>
        <time>2026-05-18T11:52:56+02:00</time>
      </trkpt>
      <trkpt lat="48.70865" lon="6.16722">
        <ele>201.10059</ele>
        <time>2026-05-18T11:52:57+02:00</time>
      </trkpt>
      <trkpt lat="48.70869" lon="6.16722">
        <ele>201.10059</ele>
        <time>2026-05-18T11:52:58+02:00</time>
      </trkpt>
      <trkpt lat="48.70873" lon="6.16723">
        <ele>201</ele>
        <time>2026-05-18T11:52:59+02:00</time>
      </trkpt>
      <trkpt lat="48.70878" lon="6.16724">
        <ele>201</ele>
        <time>2026-05-18T11:53:00+02:00</time>
      </trkpt>
      <trkpt lat="48.70883" lon="6.16724">
        <ele>201.10059</ele>
        <time>2026-05-18T11:53:01+02:00</time>
      </trkpt>
      <trkpt lat="48.70889" lon="6.16725">
        <ele>201.10059</ele>
        <time>2026-05-18T11:53:02+02:00</time>
      </trkpt>
      <trkpt lat="48.70894" lon="6.16727">
        <ele>201.2002</ele>
        <time>2026-05-18T11:53:03+02:00</time>
      </trkpt>
      <trkpt lat="48.709" lon="6.16728">
        <ele>200.90039</ele>
        <time>2026-05-18T11:53:04+02:00</time>
      </trkpt>
      <trkpt lat="48.70905" lon="6.16729">
        <ele>201</ele>
        <time>2026-05-18T11:53:05+02:00</time>
      </trkpt>
      <trkpt lat="48.70911" lon="6.1673">
        <ele>201.10059</ele>
        <time>2026-05-18T11:53:06+02:00</time>
      </trkpt>
      <trkpt lat="48.70917" lon="6.16731">
        <ele>201.2998</ele>
        <time>2026-05-18T11:53:07+02:00</time>
      </trkpt>
      <trkpt lat="48.70923" lon="6.16732">
        <ele>201.5</ele>
        <time>2026-05-18T11:53:08+02:00</time>
      </trkpt>
      <trkpt lat="48.70929" lon="6.16733">
        <ele>201.60059</ele>
        <time>2026-05-18T11:53:09+02:00</time>
      </trkpt>
      <trkpt lat="48.70934" lon="6.16735">
        <ele>201.7998</ele>
        <time>2026-05-18T11:53:10+02:00</time>
      </trkpt>
      <trkpt lat="48.70941" lon="6.16736">
        <ele>201.90039</ele>
        <time>2026-05-18T11:53:11+02:00</time>
      </trkpt>
      <trkpt lat="48.70947" lon="6.16737">
        <ele>201.40039</ele>
        <time>2026-05-18T11:53:12+02:00</time>
      </trkpt>
      <trkpt lat="48.70953" lon="6.16738">
        <ele>201.5</ele>
        <time>2026-05-18T11:53:13+02:00</time>
      </trkpt>
      <trkpt lat="48.70959" lon="6.16739">
        <ele>201.5</ele>
        <time>2026-05-18T11:53:14+02:00</time>
      </trkpt>
      <trkpt lat="48.70965" lon="6.1674">
        <ele>201.5</ele>
        <time>2026-05-18T11:53:15+02:00</time>
      </trkpt>
      <trkpt lat="48.70971" lon="6.16741">
        <ele>201.5</ele>
        <time>2026-05-18T11:53:16+02:00</time>
      </trkpt>
      <trkpt lat="48.70978" lon="6.16742">
        <ele>201.2002</ele>
        <time>2026-05-18T11:53:17+02:00</time>
      </trkpt>
      <trkpt lat="48.70984" lon="6.16743">
        <ele>201.10059</ele>
        <time>2026-05-18T11:53:18+02:00</time>
      </trkpt>
      <trkpt lat="48.7099" lon="6.16744">
        <ele>200.90039</ele>
        <time>2026-05-18T11:53:19+02:00</time>
      </trkpt>
      <trkpt lat="48.70996" lon="6.16745">
        <ele>199.90039</ele>
        <time>2026-05-18T11:53:20+02:00</time>
      </trkpt>
      <trkpt lat="48.71002" lon="6.16746">
        <ele>199.7998</ele>
        <time>2026-05-18T11:53:21+02:00</time>
      </trkpt>
      <trkpt lat="48.71008" lon="6.16747">
        <ele>199.60059</ele>
        <time>2026-05-18T11:53:22+02:00</time>
      </trkpt>
      <trkpt lat="48.71013" lon="6.16749">
        <ele>199.5</ele>
        <time>2026-05-18T11:53:23+02:00</time>
      </trkpt>
      <trkpt lat="48.71019" lon="6.1675">
        <ele>199.40039</ele>
        <time>2026-05-18T11:53:24+02:00</time>
      </trkpt>
      <trkpt lat="48.71026" lon="6.16752">
        <ele>199.2998</ele>
        <time>2026-05-18T11:53:25+02:00</time>
      </trkpt>
      <trkpt lat="48.71032" lon="6.16753">
        <ele>199.2998</ele>
        <time>2026-05-18T11:53:26+02:00</time>
      </trkpt>
      <trkpt lat="48.71037" lon="6.16755">
        <ele>198.7998</ele>
        <time>2026-05-18T11:53:27+02:00</time>
      </trkpt>
      <trkpt lat="48.71044" lon="6.16756">
        <ele>198.7002</ele>
        <time>2026-05-18T11:53:28+02:00</time>
      </trkpt>
      <trkpt lat="48.7105" lon="6.16758">
        <ele>198.60059</ele>
        <time>2026-05-18T11:53:29+02:00</time>
      </trkpt>
      <trkpt lat="48.71056" lon="6.16759">
        <ele>198.40039</ele>
        <time>2026-05-18T11:53:30+02:00</time>
      </trkpt>
      <trkpt lat="48.71062" lon="6.16761">
        <ele>198.40039</ele>
        <time>2026-05-18T11:53:31+02:00</time>
      </trkpt>
      <trkpt lat="48.71068" lon="6.16763">
        <ele>198.40039</ele>
        <time>2026-05-18T11:53:32+02:00</time>
      </trkpt>
      <trkpt lat="48.71074" lon="6.16765">
        <ele>198.7002</ele>
        <time>2026-05-18T11:53:33+02:00</time>
      </trkpt>
      <trkpt lat="48.7108" lon="6.16768">
        <ele>198.90039</ele>
        <time>2026-05-18T11:53:34+02:00</time>
      </trkpt>
      <trkpt lat="48.71086" lon="6.1677">
        <ele>199.2002</ele>
        <time>2026-05-18T11:53:35+02:00</time>
      </trkpt>
      <trkpt lat="48.71092" lon="6.16773">
        <ele>199.2002</ele>
        <time>2026-05-18T11:53:36+02:00</time>
      </trkpt>
      <trkpt lat="48.71098" lon="6.16776">
        <ele>199.40039</ele>
        <time>2026-05-18T11:53:37+02:00</time>
      </trkpt>
      <trkpt lat="48.71103" lon="6.1678">
        <ele>199.2998</ele>
        <time>2026-05-18T11:53:38+02:00</time>
      </trkpt>
      <trkpt lat="48.7111" lon="6.16783">
        <ele>199.5</ele>
        <time>2026-05-18T11:53:39+02:00</time>
      </trkpt>
      <trkpt lat="48.71115" lon="6.16787">
        <ele>199.7998</ele>
        <time>2026-05-18T11:53:40+02:00</time>
      </trkpt>
      <trkpt lat="48.71121" lon="6.1679">
        <ele>199.90039</ele>
        <time>2026-05-18T11:53:41+02:00</time>
      </trkpt>
      <trkpt lat="48.71127" lon="6.16793">
        <ele>200.2998</ele>
        <time>2026-05-18T11:53:42+02:00</time>
      </trkpt>
      <trkpt lat="48.7113" lon="6.16794">
        <ele>200.60059</ele>
        <time>2026-05-18T11:53:43+02:00</time>
      </trkpt>
      <trkpt lat="48.71139" lon="6.16798">
        <ele>200.60059</ele>
        <time>2026-05-18T11:53:44+02:00</time>
      </trkpt>
      <trkpt lat="48.71144" lon="6.16802">
        <ele>200.7998</ele>
        <time>2026-05-18T11:53:45+02:00</time>
      </trkpt>
      <trkpt lat="48.71149" lon="6.16805">
        <ele>201</ele>
        <time>2026-05-18T11:53:46+02:00</time>
      </trkpt>
      <trkpt lat="48.71154" lon="6.16809">
        <ele>200.90039</ele>
        <time>2026-05-18T11:53:47+02:00</time>
      </trkpt>
      <trkpt lat="48.71159" lon="6.16812">
        <ele>201.10059</ele>
        <time>2026-05-18T11:53:48+02:00</time>
      </trkpt>
      <trkpt lat="48.71164" lon="6.16816">
        <ele>200.90039</ele>
        <time>2026-05-18T11:53:49+02:00</time>
      </trkpt>
      <trkpt lat="48.71169" lon="6.16819">
        <ele>200.90039</ele>
        <time>2026-05-18T11:53:50+02:00</time>
      </trkpt>
      <trkpt lat="48.71173" lon="6.16823">
        <ele>200.7998</ele>
        <time>2026-05-18T11:53:51+02:00</time>
      </trkpt>
      <trkpt lat="48.71177" lon="6.16826">
        <ele>201</ele>
        <time>2026-05-18T11:53:52+02:00</time>
      </trkpt>
      <trkpt lat="48.71181" lon="6.16829">
        <ele>201.10059</ele>
        <time>2026-05-18T11:53:53+02:00</time>
      </trkpt>
      <trkpt lat="48.71185" lon="6.16831">
        <ele>200.7002</ele>
        <time>2026-05-18T11:53:54+02:00</time>
      </trkpt>
      <trkpt lat="48.7119" lon="6.16834">
        <ele>200.7998</ele>
        <time>2026-05-18T11:53:55+02:00</time>
      </trkpt>
      <trkpt lat="48.71193" lon="6.16837">
        <ele>200.90039</ele>
        <time>2026-05-18T11:53:56+02:00</time>
      </trkpt>
      <trkpt lat="48.71198" lon="6.16839">
        <ele>201</ele>
        <time>2026-05-18T11:53:57+02:00</time>
      </trkpt>
      <trkpt lat="48.71201" lon="6.16842">
        <ele>200.5</ele>
        <time>2026-05-18T11:53:58+02:00</time>
      </trkpt>
      <trkpt lat="48.71206" lon="6.16844">
        <ele>200.5</ele>
        <time>2026-05-18T11:53:59+02:00</time>
      </trkpt>
      <trkpt lat="48.71209" lon="6.16847">
        <ele>200.5</ele>
        <time>2026-05-18T11:54:00+02:00</time>
      </trkpt>
      <trkpt lat="48.71214" lon="6.1685">
        <ele>200.2002</ele>
        <time>2026-05-18T11:54:01+02:00</time>
      </trkpt>
      <trkpt lat="48.71218" lon="6.16853">
        <ele>200.2002</ele>
        <time>2026-05-18T11:54:02+02:00</time>
      </trkpt>
      <trkpt lat="48.71222" lon="6.16856">
        <ele>200.2998</ele>
        <time>2026-05-18T11:54:03+02:00</time>
      </trkpt>
      <trkpt lat="48.71225" lon="6.16858">
        <ele>200</ele>
        <time>2026-05-18T11:54:04+02:00</time>
      </trkpt>
      <trkpt lat="48.71228" lon="6.1686">
        <ele>200.10059</ele>
        <time>2026-05-18T11:54:05+02:00</time>
      </trkpt>
      <trkpt lat="48.7123" lon="6.16861">
        <ele>200.10059</ele>
        <time>2026-05-18T11:54:06+02:00</time>
      </trkpt>
      <trkpt lat="48.71232" lon="6.16862">
        <ele>200.2002</ele>
        <time>2026-05-18T11:54:07+02:00</time>
      </trkpt>
      <trkpt lat="48.71232" lon="6.16862">
        <ele>200.2002</ele>
        <time>2026-05-18T11:54:08+02:00</time>
      </trkpt>
      <trkpt lat="48.71232" lon="6.16862">
        <ele>200.2002</ele>
        <time>2026-05-18T11:54:09+02:00</time>
      </trkpt>
      <trkpt lat="48.71232" lon="6.16862">
        <ele>200.2002</ele>
        <time>2026-05-18T11:54:10+02:00</time>
      </trkpt>
      <trkpt lat="48.71232" lon="6.16862">
        <ele>200.2002</ele>
        <time>2026-05-18T11:54:11+02:00</time>
      </trkpt>
      <trkpt lat="48.71229" lon="6.16878">
        <ele>199.5</ele>
        <time>2026-05-18T11:54:37+02:00</time>
      </trkpt>
      <trkpt lat="48.71227" lon="6.16882">
        <ele>199.5</ele>
        <time>2026-05-18T11:54:38+02:00</time>
      </trkpt>
      <trkpt lat="48.71226" lon="6.16887">
        <ele>199.2002</ele>
        <time>2026-05-18T11:54:39+02:00</time>
      </trkpt>
      <trkpt lat="48.71224" lon="6.16891">
        <ele>198.60059</ele>
        <time>2026-05-18T11:54:40+02:00</time>
      </trkpt>
      <trkpt lat="48.71222" lon="6.16896">
        <ele>198.60059</ele>
        <time>2026-05-18T11:54:41+02:00</time>
      </trkpt>
      <trkpt lat="48.71221" lon="6.169">
        <ele>198.2002</ele>
        <time>2026-05-18T11:54:42+02:00</time>
      </trkpt>
      <trkpt lat="48.71219" lon="6.16904">
        <ele>198.10059</ele>
        <time>2026-05-18T11:54:43+02:00</time>
      </trkpt>
      <trkpt lat="48.71217" lon="6.16908">
        <ele>198.10059</ele>
        <time>2026-05-18T11:54:44+02:00</time>
      </trkpt>
      <trkpt lat="48.71216" lon="6.16911">
        <ele>197.7002</ele>
        <time>2026-05-18T11:54:45+02:00</time>
      </trkpt>
      <trkpt lat="48.71214" lon="6.16914">
        <ele>197.60059</ele>
        <time>2026-05-18T11:54:46+02:00</time>
      </trkpt>
      <trkpt lat="48.71213" lon="6.16919">
        <ele>197.40039</ele>
        <time>2026-05-18T11:54:47+02:00</time>
      </trkpt>
      <trkpt lat="48.71213" lon="6.16924">
        <ele>197.40039</ele>
        <time>2026-05-18T11:54:48+02:00</time>
      </trkpt>
      <trkpt lat="48.71216" lon="6.16928">
        <ele>197.2998</ele>
        <time>2026-05-18T11:54:49+02:00</time>
      </trkpt>
      <trkpt lat="48.71217" lon="6.1693">
        <ele>197.2998</ele>
        <time>2026-05-18T11:54:50+02:00</time>
      </trkpt>
      <trkpt lat="48.71222" lon="6.16934">
        <ele>197.40039</ele>
        <time>2026-05-18T11:54:51+02:00</time>
      </trkpt>
      <trkpt lat="48.71224" lon="6.16936">
        <ele>197.40039</ele>
        <time>2026-05-18T11:54:52+02:00</time>
      </trkpt>
      <trkpt lat="48.71228" lon="6.16939">
        <ele>197.5</ele>
        <time>2026-05-18T11:54:53+02:00</time>
      </trkpt>
      <trkpt lat="48.71232" lon="6.16941">
        <ele>197.60059</ele>
        <time>2026-05-18T11:54:54+02:00</time>
      </trkpt>
      <trkpt lat="48.71235" lon="6.16943">
        <ele>197.5</ele>
        <time>2026-05-18T11:54:55+02:00</time>
      </trkpt>
      <trkpt lat="48.71238" lon="6.16945">
        <ele>197.60059</ele>
        <time>2026-05-18T11:54:56+02:00</time>
      </trkpt>
      <trkpt lat="48.71241" lon="6.16947">
        <ele>197.60059</ele>
        <time>2026-05-18T11:54:57+02:00</time>
      </trkpt>
      <trkpt lat="48.71245" lon="6.16949">
        <ele>197.7002</ele>
        <time>2026-05-18T11:54:58+02:00</time>
      </trkpt>
      <trkpt lat="48.71249" lon="6.16952">
        <ele>197.60059</ele>
        <time>2026-05-18T11:54:59+02:00</time>
      </trkpt>
      <trkpt lat="48.71253" lon="6.16954">
        <ele>197.60059</ele>
        <time>2026-05-18T11:55:00+02:00</time>
      </trkpt>
      <trkpt lat="48.71257" lon="6.16956">
        <ele>197.7002</ele>
        <time>2026-05-18T11:55:01+02:00</time>
      </trkpt>
      <trkpt lat="48.71261" lon="6.16958">
        <ele>197.7002</ele>
        <time>2026-05-18T11:55:02+02:00</time>
      </trkpt>
      <trkpt lat="48.71264" lon="6.1696">
        <ele>197.60059</ele>
        <time>2026-05-18T11:55:03+02:00</time>
      </trkpt>
      <trkpt lat="48.71268" lon="6.16962">
        <ele>197.60059</ele>
        <time>2026-05-18T11:55:04+02:00</time>
      </trkpt>
      <trkpt lat="48.71271" lon="6.16964">
        <ele>197.60059</ele>
        <time>2026-05-18T11:55:05+02:00</time>
      </trkpt>
      <trkpt lat="48.71274" lon="6.16967">
        <ele>197.60059</ele>
        <time>2026-05-18T11:55:06+02:00</time>
      </trkpt>
      <trkpt lat="48.71277" lon="6.16971">
        <ele>197.5</ele>
        <time>2026-05-18T11:55:07+02:00</time>
      </trkpt>
      <trkpt lat="48.7128" lon="6.16976">
        <ele>197.5</ele>
        <time>2026-05-18T11:55:08+02:00</time>
      </trkpt>
      <trkpt lat="48.71282" lon="6.16982">
        <ele>197.40039</ele>
        <time>2026-05-18T11:55:09+02:00</time>
      </trkpt>
      <trkpt lat="48.71283" lon="6.16986">
        <ele>197.10059</ele>
        <time>2026-05-18T11:55:10+02:00</time>
      </trkpt>
      <trkpt lat="48.71284" lon="6.1699">
        <ele>197.10059</ele>
        <time>2026-05-18T11:55:11+02:00</time>
      </trkpt>
      <trkpt lat="48.71285" lon="6.16994">
        <ele>197</ele>
        <time>2026-05-18T11:55:12+02:00</time>
      </trkpt>
      <trkpt lat="48.71286" lon="6.16996">
        <ele>197</ele>
        <time>2026-05-18T11:55:13+02:00</time>
      </trkpt>
      <trkpt lat="48.71286" lon="6.16996">
        <ele>197</ele>
        <time>2026-05-18T11:55:14+02:00</time>
      </trkpt>
      <trkpt lat="48.71286" lon="6.16996">
        <ele>197</ele>
        <time>2026-05-18T11:55:15+02:00</time>
      </trkpt>
      <trkpt lat="48.71286" lon="6.16996">
        <ele>197</ele>
        <time>2026-05-18T11:55:16+02:00</time>
      </trkpt>
      <trkpt lat="48.71294" lon="6.17019">
        <ele>196.60059</ele>
        <time>2026-05-18T11:56:19+02:00</time>
      </trkpt>
      <trkpt lat="48.71296" lon="6.17024">
        <ele>196.5</ele>
        <time>2026-05-18T11:56:20+02:00</time>
      </trkpt>
      <trkpt lat="48.71297" lon="6.17029">
        <ele>196.40039</ele>
        <time>2026-05-18T11:56:21+02:00</time>
      </trkpt>
      <trkpt lat="48.71299" lon="6.17035">
        <ele>196.40039</ele>
        <time>2026-05-18T11:56:22+02:00</time>
      </trkpt>
      <trkpt lat="48.71301" lon="6.17041">
        <ele>196.2998</ele>
        <time>2026-05-18T11:56:23+02:00</time>
      </trkpt>
      <trkpt lat="48.71303" lon="6.17047">
        <ele>196.2002</ele>
        <time>2026-05-18T11:56:24+02:00</time>
      </trkpt>
      <trkpt lat="48.71304" lon="6.17054">
        <ele>196.2002</ele>
        <time>2026-05-18T11:56:25+02:00</time>
      </trkpt>
      <trkpt lat="48.71306" lon="6.1706">
        <ele>196</ele>
        <time>2026-05-18T11:56:26+02:00</time>
      </trkpt>
      <trkpt lat="48.71308" lon="6.17067">
        <ele>195.90039</ele>
        <time>2026-05-18T11:56:27+02:00</time>
      </trkpt>
      <trkpt lat="48.7131" lon="6.17074">
        <ele>195.7002</ele>
        <time>2026-05-18T11:56:28+02:00</time>
      </trkpt>
      <trkpt lat="48.71312" lon="6.17081">
        <ele>195.60059</ele>
        <time>2026-05-18T11:56:29+02:00</time>
      </trkpt>
      <trkpt lat="48.71314" lon="6.17088">
        <ele>195.60059</ele>
        <time>2026-05-18T11:56:30+02:00</time>
      </trkpt>
      <trkpt lat="48.71315" lon="6.17096">
        <ele>195.40039</ele>
        <time>2026-05-18T11:56:31+02:00</time>
      </trkpt>
      <trkpt lat="48.71317" lon="6.17103">
        <ele>195.2998</ele>
        <time>2026-05-18T11:56:32+02:00</time>
      </trkpt>
      <trkpt lat="48.71318" lon="6.17111">
        <ele>195.2002</ele>
        <time>2026-05-18T11:56:33+02:00</time>
      </trkpt>
      <trkpt lat="48.71319" lon="6.17115">
        <ele>195</ele>
        <time>2026-05-18T11:56:34+02:00</time>
      </trkpt>
      <trkpt lat="48.7132" lon="6.17127">
        <ele>194.90039</ele>
        <time>2026-05-18T11:56:35+02:00</time>
      </trkpt>
      <trkpt lat="48.71321" lon="6.17136">
        <ele>194.7998</ele>
        <time>2026-05-18T11:56:36+02:00</time>
      </trkpt>
      <trkpt lat="48.71321" lon="6.1714">
        <ele>194.7002</ele>
        <time>2026-05-18T11:56:37+02:00</time>
      </trkpt>
      <trkpt lat="48.71322" lon="6.17153">
        <ele>194.60059</ele>
        <time>2026-05-18T11:56:38+02:00</time>
      </trkpt>
      <trkpt lat="48.71322" lon="6.1716">
        <ele>194.5</ele>
        <time>2026-05-18T11:56:39+02:00</time>
      </trkpt>
      <trkpt lat="48.71322" lon="6.17168">
        <ele>194.5</ele>
        <time>2026-05-18T11:56:40+02:00</time>
      </trkpt>
      <trkpt lat="48.71322" lon="6.17174">
        <ele>194.5</ele>
        <time>2026-05-18T11:56:41+02:00</time>
      </trkpt>
      <trkpt lat="48.71321" lon="6.17181">
        <ele>194.40039</ele>
        <time>2026-05-18T11:56:42+02:00</time>
      </trkpt>
      <trkpt lat="48.71322" lon="6.17187">
        <ele>194.40039</ele>
        <time>2026-05-18T11:56:43+02:00</time>
      </trkpt>
      <trkpt lat="48.71322" lon="6.17193">
        <ele>194.40039</ele>
        <time>2026-05-18T11:56:44+02:00</time>
      </trkpt>
      <trkpt lat="48.71321" lon="6.17199">
        <ele>194.40039</ele>
        <time>2026-05-18T11:56:45+02:00</time>
      </trkpt>
      <trkpt lat="48.71321" lon="6.17206">
        <ele>194.40039</ele>
        <time>2026-05-18T11:56:46+02:00</time>
      </trkpt>
      <trkpt lat="48.71321" lon="6.17212">
        <ele>194.5</ele>
        <time>2026-05-18T11:56:47+02:00</time>
      </trkpt>
      <trkpt lat="48.71322" lon="6.17219">
        <ele>194.5</ele>
        <time>2026-05-18T11:56:48+02:00</time>
      </trkpt>
      <trkpt lat="48.71322" lon="6.17225">
        <ele>194.5</ele>
        <time>2026-05-18T11:56:49+02:00</time>
      </trkpt>
      <trkpt lat="48.71323" lon="6.17231">
        <ele>194.5</ele>
        <time>2026-05-18T11:56:50+02:00</time>
      </trkpt>
      <trkpt lat="48.71324" lon="6.17238">
        <ele>194.60059</ele>
        <time>2026-05-18T11:56:51+02:00</time>
      </trkpt>
      <trkpt lat="48.71324" lon="6.17245">
        <ele>194.60059</ele>
        <time>2026-05-18T11:56:52+02:00</time>
      </trkpt>
      <trkpt lat="48.71324" lon="6.17252">
        <ele>194.7002</ele>
        <time>2026-05-18T11:56:53+02:00</time>
      </trkpt>
      <trkpt lat="48.71324" lon="6.17258">
        <ele>194.7002</ele>
        <time>2026-05-18T11:56:54+02:00</time>
      </trkpt>
      <trkpt lat="48.71324" lon="6.17261">
        <ele>194.7998</ele>
        <time>2026-05-18T11:56:55+02:00</time>
      </trkpt>
      <trkpt lat="48.71323" lon="6.17268">
        <ele>194.7998</ele>
        <time>2026-05-18T11:56:56+02:00</time>
      </trkpt>
      <trkpt lat="48.71323" lon="6.17273">
        <ele>194.7998</ele>
        <time>2026-05-18T11:56:57+02:00</time>
      </trkpt>
      <trkpt lat="48.71323" lon="6.17278">
        <ele>194.90039</ele>
        <time>2026-05-18T11:56:58+02:00</time>
      </trkpt>
      <trkpt lat="48.71324" lon="6.17283">
        <ele>194.90039</ele>
        <time>2026-05-18T11:56:59+02:00</time>
      </trkpt>
      <trkpt lat="48.71325" lon="6.17288">
        <ele>195</ele>
        <time>2026-05-18T11:57:00+02:00</time>
      </trkpt>
      <trkpt lat="48.71325" lon="6.17294">
        <ele>195</ele>
        <time>2026-05-18T11:57:01+02:00</time>
      </trkpt>
      <trkpt lat="48.71326" lon="6.17297">
        <ele>195</ele>
        <time>2026-05-18T11:57:02+02:00</time>
      </trkpt>
      <trkpt lat="48.71327" lon="6.17305">
        <ele>195.10059</ele>
        <time>2026-05-18T11:57:03+02:00</time>
      </trkpt>
      <trkpt lat="48.71327" lon="6.1731">
        <ele>195.10059</ele>
        <time>2026-05-18T11:57:04+02:00</time>
      </trkpt>
      <trkpt lat="48.71328" lon="6.17316">
        <ele>195.2002</ele>
        <time>2026-05-18T11:57:05+02:00</time>
      </trkpt>
      <trkpt lat="48.71328" lon="6.17321">
        <ele>195.10059</ele>
        <time>2026-05-18T11:57:06+02:00</time>
      </trkpt>
      <trkpt lat="48.71329" lon="6.17327">
        <ele>195.10059</ele>
        <time>2026-05-18T11:57:07+02:00</time>
      </trkpt>
      <trkpt lat="48.71331" lon="6.17332">
        <ele>194.90039</ele>
        <time>2026-05-18T11:57:08+02:00</time>
      </trkpt>
      <trkpt lat="48.71332" lon="6.17338">
        <ele>194.7002</ele>
        <time>2026-05-18T11:57:09+02:00</time>
      </trkpt>
      <trkpt lat="48.71335" lon="6.17343">
        <ele>194.7998</ele>
        <time>2026-05-18T11:57:10+02:00</time>
      </trkpt>
      <trkpt lat="48.71336" lon="6.17348">
        <ele>194.5</ele>
        <time>2026-05-18T11:57:11+02:00</time>
      </trkpt>
      <trkpt lat="48.71339" lon="6.17353">
        <ele>194.5</ele>
        <time>2026-05-18T11:57:12+02:00</time>
      </trkpt>
      <trkpt lat="48.71341" lon="6.17358">
        <ele>194.2002</ele>
        <time>2026-05-18T11:57:13+02:00</time>
      </trkpt>
      <trkpt lat="48.71343" lon="6.17363">
        <ele>193.7002</ele>
        <time>2026-05-18T11:57:14+02:00</time>
      </trkpt>
      <trkpt lat="48.71343" lon="6.17368">
        <ele>193.7002</ele>
        <time>2026-05-18T11:57:15+02:00</time>
      </trkpt>
      <trkpt lat="48.71343" lon="6.17373">
        <ele>193.2998</ele>
        <time>2026-05-18T11:57:16+02:00</time>
      </trkpt>
      <trkpt lat="48.71343" lon="6.17378">
        <ele>193.2998</ele>
        <time>2026-05-18T11:57:17+02:00</time>
      </trkpt>
      <trkpt lat="48.71343" lon="6.17382">
        <ele>192.7998</ele>
        <time>2026-05-18T11:57:18+02:00</time>
      </trkpt>
      <trkpt lat="48.71343" lon="6.17387">
        <ele>192.7998</ele>
        <time>2026-05-18T11:57:19+02:00</time>
      </trkpt>
      <trkpt lat="48.71343" lon="6.17391">
        <ele>192.5</ele>
        <time>2026-05-18T11:57:20+02:00</time>
      </trkpt>
      <trkpt lat="48.71345" lon="6.17393">
        <ele>192.2002</ele>
        <time>2026-05-18T11:57:21+02:00</time>
      </trkpt>
      <trkpt lat="48.71346" lon="6.17393">
        <ele>192.2002</ele>
        <time>2026-05-18T11:57:22+02:00</time>
      </trkpt>
      <trkpt lat="48.71348" lon="6.17392">
        <ele>192.2002</ele>
        <time>2026-05-18T11:57:23+02:00</time>
      </trkpt>
      <trkpt lat="48.71351" lon="6.1739">
        <ele>192</ele>
        <time>2026-05-18T11:57:24+02:00</time>
      </trkpt>
      <trkpt lat="48.71354" lon="6.17388">
        <ele>192.40039</ele>
        <time>2026-05-18T11:57:25+02:00</time>
      </trkpt>
      <trkpt lat="48.71357" lon="6.17386">
        <ele>192.2002</ele>
        <time>2026-05-18T11:57:26+02:00</time>
      </trkpt>
      <trkpt lat="48.7136" lon="6.17384">
        <ele>192.2002</ele>
        <time>2026-05-18T11:57:27+02:00</time>
      </trkpt>
      <trkpt lat="48.71364" lon="6.17382">
        <ele>192.10059</ele>
        <time>2026-05-18T11:57:28+02:00</time>
      </trkpt>
      <trkpt lat="48.71368" lon="6.1738">
        <ele>192.2998</ele>
        <time>2026-05-18T11:57:29+02:00</time>
      </trkpt>
      <trkpt lat="48.71372" lon="6.17379">
        <ele>192.2998</ele>
        <time>2026-05-18T11:57:30+02:00</time>
      </trkpt>
      <trkpt lat="48.71376" lon="6.17377">
        <ele>192.10059</ele>
        <time>2026-05-18T11:57:31+02:00</time>
      </trkpt>
      <trkpt lat="48.7138" lon="6.17376">
        <ele>191.7002</ele>
        <time>2026-05-18T11:57:32+02:00</time>
      </trkpt>
      <trkpt lat="48.71385" lon="6.17375">
        <ele>191.2002</ele>
        <time>2026-05-18T11:57:33+02:00</time>
      </trkpt>
      <trkpt lat="48.7139" lon="6.17373">
        <ele>191.2002</ele>
        <time>2026-05-18T11:57:34+02:00</time>
      </trkpt>
      <trkpt lat="48.71394" lon="6.17372">
        <ele>190.7002</ele>
        <time>2026-05-18T11:57:35+02:00</time>
      </trkpt>
      <trkpt lat="48.71398" lon="6.17371">
        <ele>190.7998</ele>
        <time>2026-05-18T11:57:36+02:00</time>
      </trkpt>
      <trkpt lat="48.71402" lon="6.17369">
        <ele>190.7002</ele>
        <time>2026-05-18T11:57:37+02:00</time>
      </trkpt>
      <trkpt lat="48.71407" lon="6.17368">
        <ele>190.7002</ele>
        <time>2026-05-18T11:57:38+02:00</time>
      </trkpt>
      <trkpt lat="48.71412" lon="6.17367">
        <ele>190.7002</ele>
        <time>2026-05-18T11:57:39+02:00</time>
      </trkpt>
      <trkpt lat="48.71417" lon="6.17365">
        <ele>190.60059</ele>
        <time>2026-05-18T11:57:40+02:00</time>
      </trkpt>
      <trkpt lat="48.7142" lon="6.17365">
        <ele>190.60059</ele>
        <time>2026-05-18T11:57:41+02:00</time>
      </trkpt>
      <trkpt lat="48.71427" lon="6.17362">
        <ele>191.10059</ele>
        <time>2026-05-18T11:57:42+02:00</time>
      </trkpt>
      <trkpt lat="48.71432" lon="6.17359">
        <ele>191</ele>
        <time>2026-05-18T11:57:43+02:00</time>
      </trkpt>
      <trkpt lat="48.71438" lon="6.17357">
        <ele>190.90039</ele>
        <time>2026-05-18T11:57:44+02:00</time>
      </trkpt>
      <trkpt lat="48.71443" lon="6.17354">
        <ele>191.2998</ele>
        <time>2026-05-18T11:57:45+02:00</time>
      </trkpt>
      <trkpt lat="48.71448" lon="6.1735">
        <ele>191</ele>
        <time>2026-05-18T11:57:46+02:00</time>
      </trkpt>
      <trkpt lat="48.71453" lon="6.17347">
        <ele>190.7002</ele>
        <time>2026-05-18T11:57:47+02:00</time>
      </trkpt>
      <trkpt lat="48.71459" lon="6.17344">
        <ele>190.5</ele>
        <time>2026-05-18T11:57:48+02:00</time>
      </trkpt>
      <trkpt lat="48.71464" lon="6.17341">
        <ele>190.2998</ele>
        <time>2026-05-18T11:57:49+02:00</time>
      </trkpt>
      <trkpt lat="48.7147" lon="6.17338">
        <ele>190.2998</ele>
        <time>2026-05-18T11:57:50+02:00</time>
      </trkpt>
      <trkpt lat="48.71475" lon="6.17336">
        <ele>190.5</ele>
        <time>2026-05-18T11:57:51+02:00</time>
      </trkpt>
      <trkpt lat="48.71481" lon="6.17333">
        <ele>190.5</ele>
        <time>2026-05-18T11:57:52+02:00</time>
      </trkpt>
      <trkpt lat="48.71486" lon="6.17331">
        <ele>190.5</ele>
        <time>2026-05-18T11:57:53+02:00</time>
      </trkpt>
      <trkpt lat="48.71491" lon="6.17328">
        <ele>190.7002</ele>
        <time>2026-05-18T11:57:54+02:00</time>
      </trkpt>
      <trkpt lat="48.71497" lon="6.17325">
        <ele>190.7002</ele>
        <time>2026-05-18T11:57:55+02:00</time>
      </trkpt>
      <trkpt lat="48.71502" lon="6.17322">
        <ele>190.60059</ele>
        <time>2026-05-18T11:57:56+02:00</time>
      </trkpt>
      <trkpt lat="48.71507" lon="6.17319">
        <ele>191</ele>
        <time>2026-05-18T11:57:57+02:00</time>
      </trkpt>
      <trkpt lat="48.7151" lon="6.17317">
        <ele>191</ele>
        <time>2026-05-18T11:57:58+02:00</time>
      </trkpt>
      <trkpt lat="48.71517" lon="6.17312">
        <ele>190.90039</ele>
        <time>2026-05-18T11:57:59+02:00</time>
      </trkpt>
      <trkpt lat="48.71522" lon="6.17309">
        <ele>191.40039</ele>
        <time>2026-05-18T11:58:00+02:00</time>
      </trkpt>
      <trkpt lat="48.71526" lon="6.17306">
        <ele>191.40039</ele>
        <time>2026-05-18T11:58:01+02:00</time>
      </trkpt>
      <trkpt lat="48.71531" lon="6.17304">
        <ele>191.2998</ele>
        <time>2026-05-18T11:58:02+02:00</time>
      </trkpt>
      <trkpt lat="48.71536" lon="6.17302">
        <ele>191.7002</ele>
        <time>2026-05-18T11:58:03+02:00</time>
      </trkpt>
      <trkpt lat="48.71541" lon="6.17301">
        <ele>191.7002</ele>
        <time>2026-05-18T11:58:04+02:00</time>
      </trkpt>
      <trkpt lat="48.71547" lon="6.17301">
        <ele>191.60059</ele>
        <time>2026-05-18T11:58:05+02:00</time>
      </trkpt>
      <trkpt lat="48.71552" lon="6.173">
        <ele>191.60059</ele>
        <time>2026-05-18T11:58:06+02:00</time>
      </trkpt>
      <trkpt lat="48.71558" lon="6.17299">
        <ele>191.5</ele>
        <time>2026-05-18T11:58:07+02:00</time>
      </trkpt>
      <trkpt lat="48.71564" lon="6.17298">
        <ele>191.5</ele>
        <time>2026-05-18T11:58:08+02:00</time>
      </trkpt>
      <trkpt lat="48.7157" lon="6.17297">
        <ele>191.40039</ele>
        <time>2026-05-18T11:58:09+02:00</time>
      </trkpt>
      <trkpt lat="48.71576" lon="6.17296">
        <ele>191.2002</ele>
        <time>2026-05-18T11:58:10+02:00</time>
      </trkpt>
      <trkpt lat="48.71583" lon="6.17296">
        <ele>190.7002</ele>
        <time>2026-05-18T11:58:11+02:00</time>
      </trkpt>
      <trkpt lat="48.71589" lon="6.17296">
        <ele>190.40039</ele>
        <time>2026-05-18T11:58:12+02:00</time>
      </trkpt>
      <trkpt lat="48.71595" lon="6.17297">
        <ele>190.10059</ele>
        <time>2026-05-18T11:58:13+02:00</time>
      </trkpt>
      <trkpt lat="48.71602" lon="6.17298">
        <ele>190</ele>
        <time>2026-05-18T11:58:14+02:00</time>
      </trkpt>
      <trkpt lat="48.71608" lon="6.17299">
        <ele>190</ele>
        <time>2026-05-18T11:58:15+02:00</time>
      </trkpt>
      <trkpt lat="48.71615" lon="6.17299">
        <ele>190</ele>
        <time>2026-05-18T11:58:16+02:00</time>
      </trkpt>
      <trkpt lat="48.71621" lon="6.17299">
        <ele>190</ele>
        <time>2026-05-18T11:58:17+02:00</time>
      </trkpt>
      <trkpt lat="48.71628" lon="6.173">
        <ele>189.90039</ele>
        <time>2026-05-18T11:58:18+02:00</time>
      </trkpt>
      <trkpt lat="48.71634" lon="6.17301">
        <ele>189.90039</ele>
        <time>2026-05-18T11:58:19+02:00</time>
      </trkpt>
      <trkpt lat="48.7164" lon="6.17302">
        <ele>189.90039</ele>
        <time>2026-05-18T11:58:20+02:00</time>
      </trkpt>
      <trkpt lat="48.71646" lon="6.17302">
        <ele>189.90039</ele>
        <time>2026-05-18T11:58:21+02:00</time>
      </trkpt>
      <trkpt lat="48.71652" lon="6.17302">
        <ele>189.90039</ele>
        <time>2026-05-18T11:58:22+02:00</time>
      </trkpt>
      <trkpt lat="48.71657" lon="6.17303">
        <ele>189.90039</ele>
        <time>2026-05-18T11:58:23+02:00</time>
      </trkpt>
      <trkpt lat="48.71662" lon="6.17303">
        <ele>189.90039</ele>
        <time>2026-05-18T11:58:24+02:00</time>
      </trkpt>
      <trkpt lat="48.71666" lon="6.17304">
        <ele>189.90039</ele>
        <time>2026-05-18T11:58:25+02:00</time>
      </trkpt>
      <trkpt lat="48.71671" lon="6.17304">
        <ele>189.90039</ele>
        <time>2026-05-18T11:58:26+02:00</time>
      </trkpt>
      <trkpt lat="48.71674" lon="6.17305">
        <ele>189.90039</ele>
        <time>2026-05-18T11:58:27+02:00</time>
      </trkpt>
      <trkpt lat="48.71676" lon="6.17306">
        <ele>189.90039</ele>
        <time>2026-05-18T11:58:28+02:00</time>
      </trkpt>
      <trkpt lat="48.71676" lon="6.17307">
        <ele>189.90039</ele>
        <time>2026-05-18T11:58:29+02:00</time>
      </trkpt>
      <trkpt lat="48.71677" lon="6.17307">
        <ele>189.90039</ele>
        <time>2026-05-18T11:58:30+02:00</time>
      </trkpt>
      <trkpt lat="48.71677" lon="6.17307">
        <ele>189.90039</ele>
        <time>2026-05-18T11:58:31+02:00</time>
      </trkpt>
      <trkpt lat="48.71677" lon="6.17307">
        <ele>189.90039</ele>
        <time>2026-05-18T11:58:32+02:00</time>
      </trkpt>
      <trkpt lat="48.71677" lon="6.17307">
        <ele>189.90039</ele>
        <time>2026-05-18T11:58:33+02:00</time>
      </trkpt>
      <trkpt lat="48.71732" lon="6.17322">
        <ele>189.7998</ele>
        <time>2026-05-18T12:07:21+02:00</time>
      </trkpt>
      <trkpt lat="48.71735" lon="6.17322">
        <ele>189.7998</ele>
        <time>2026-05-18T12:07:22+02:00</time>
      </trkpt>
      <trkpt lat="48.71739" lon="6.17323">
        <ele>189.7002</ele>
        <time>2026-05-18T12:07:23+02:00</time>
      </trkpt>
      <trkpt lat="48.71742" lon="6.17323">
        <ele>189.7002</ele>
        <time>2026-05-18T12:07:24+02:00</time>
      </trkpt>
      <trkpt lat="48.71746" lon="6.17324">
        <ele>189.7002</ele>
        <time>2026-05-18T12:07:25+02:00</time>
      </trkpt>
      <trkpt lat="48.71748" lon="6.17324">
        <ele>189.7002</ele>
        <time>2026-05-18T12:07:26+02:00</time>
      </trkpt>
      <trkpt lat="48.71754" lon="6.17326">
        <ele>189.60059</ele>
        <time>2026-05-18T12:07:27+02:00</time>
      </trkpt>
      <trkpt lat="48.71758" lon="6.17326">
        <ele>189.60059</ele>
        <time>2026-05-18T12:07:28+02:00</time>
      </trkpt>
      <trkpt lat="48.71762" lon="6.17327">
        <ele>189.60059</ele>
        <time>2026-05-18T12:07:29+02:00</time>
      </trkpt>
      <trkpt lat="48.71764" lon="6.17327">
        <ele>189.5</ele>
        <time>2026-05-18T12:07:30+02:00</time>
      </trkpt>
      <trkpt lat="48.71771" lon="6.17329">
        <ele>189.60059</ele>
        <time>2026-05-18T12:07:31+02:00</time>
      </trkpt>
      <trkpt lat="48.71776" lon="6.1733">
        <ele>189.60059</ele>
        <time>2026-05-18T12:07:32+02:00</time>
      </trkpt>
      <trkpt lat="48.7178" lon="6.17331">
        <ele>189.60059</ele>
        <time>2026-05-18T12:07:33+02:00</time>
      </trkpt>
      <trkpt lat="48.71785" lon="6.17332">
        <ele>189.60059</ele>
        <time>2026-05-18T12:07:34+02:00</time>
      </trkpt>
      <trkpt lat="48.7179" lon="6.17333">
        <ele>189.7998</ele>
        <time>2026-05-18T12:07:35+02:00</time>
      </trkpt>
      <trkpt lat="48.71795" lon="6.17334">
        <ele>190</ele>
        <time>2026-05-18T12:07:36+02:00</time>
      </trkpt>
      <trkpt lat="48.718" lon="6.17336">
        <ele>190.10059</ele>
        <time>2026-05-18T12:07:37+02:00</time>
      </trkpt>
      <trkpt lat="48.71805" lon="6.17337">
        <ele>190.2002</ele>
        <time>2026-05-18T12:07:38+02:00</time>
      </trkpt>
      <trkpt lat="48.7181" lon="6.17338">
        <ele>189.60059</ele>
        <time>2026-05-18T12:07:39+02:00</time>
      </trkpt>
      <trkpt lat="48.71815" lon="6.1734">
        <ele>189.5</ele>
        <time>2026-05-18T12:07:40+02:00</time>
      </trkpt>
      <trkpt lat="48.7182" lon="6.17341">
        <ele>189.5</ele>
        <time>2026-05-18T12:07:41+02:00</time>
      </trkpt>
      <trkpt lat="48.71825" lon="6.17343">
        <ele>189.5</ele>
        <time>2026-05-18T12:07:42+02:00</time>
      </trkpt>
      <trkpt lat="48.7183" lon="6.17344">
        <ele>189.7998</ele>
        <time>2026-05-18T12:07:43+02:00</time>
      </trkpt>
      <trkpt lat="48.71835" lon="6.17346">
        <ele>190.10059</ele>
        <time>2026-05-18T12:07:44+02:00</time>
      </trkpt>
      <trkpt lat="48.7184" lon="6.17347">
        <ele>190.7002</ele>
        <time>2026-05-18T12:07:45+02:00</time>
      </trkpt>
      <trkpt lat="48.71846" lon="6.17348">
        <ele>191.40039</ele>
        <time>2026-05-18T12:07:46+02:00</time>
      </trkpt>
      <trkpt lat="48.71851" lon="6.1735">
        <ele>191.90039</ele>
        <time>2026-05-18T12:07:47+02:00</time>
      </trkpt>
      <trkpt lat="48.71856" lon="6.17351">
        <ele>192.2998</ele>
        <time>2026-05-18T12:07:48+02:00</time>
      </trkpt>
      <trkpt lat="48.71861" lon="6.17352">
        <ele>192.60059</ele>
        <time>2026-05-18T12:07:49+02:00</time>
      </trkpt>
      <trkpt lat="48.71865" lon="6.17353">
        <ele>192.60059</ele>
        <time>2026-05-18T12:07:50+02:00</time>
      </trkpt>
      <trkpt lat="48.71869" lon="6.17353">
        <ele>193</ele>
        <time>2026-05-18T12:07:51+02:00</time>
      </trkpt>
      <trkpt lat="48.71873" lon="6.17355">
        <ele>191.7002</ele>
        <time>2026-05-18T12:07:52+02:00</time>
      </trkpt>
      <trkpt lat="48.71876" lon="6.17357">
        <ele>191.7002</ele>
        <time>2026-05-18T12:07:53+02:00</time>
      </trkpt>
      <trkpt lat="48.71879" lon="6.1736">
        <ele>192.40039</ele>
        <time>2026-05-18T12:07:54+02:00</time>
      </trkpt>
      <trkpt lat="48.71881" lon="6.17362">
        <ele>192.40039</ele>
        <time>2026-05-18T12:07:55+02:00</time>
      </trkpt>
      <trkpt lat="48.71884" lon="6.17365">
        <ele>192.2002</ele>
        <time>2026-05-18T12:07:56+02:00</time>
      </trkpt>
      <trkpt lat="48.71887" lon="6.17368">
        <ele>192.2002</ele>
        <time>2026-05-18T12:07:57+02:00</time>
      </trkpt>
      <trkpt lat="48.71891" lon="6.1737">
        <ele>193.2002</ele>
        <time>2026-05-18T12:07:58+02:00</time>
      </trkpt>
      <trkpt lat="48.71894" lon="6.17373">
        <ele>192.2002</ele>
        <time>2026-05-18T12:07:59+02:00</time>
      </trkpt>
      <trkpt lat="48.71898" lon="6.17376">
        <ele>192.7998</ele>
        <time>2026-05-18T12:08:00+02:00</time>
      </trkpt>
      <trkpt lat="48.719" lon="6.17378">
        <ele>193.10059</ele>
        <time>2026-05-18T12:08:01+02:00</time>
      </trkpt>
      <trkpt lat="48.71905" lon="6.17383">
        <ele>191.7998</ele>
        <time>2026-05-18T12:08:02+02:00</time>
      </trkpt>
      <trkpt lat="48.71908" lon="6.17386">
        <ele>192</ele>
        <time>2026-05-18T12:08:03+02:00</time>
      </trkpt>
      <trkpt lat="48.71912" lon="6.17389">
        <ele>190.5</ele>
        <time>2026-05-18T12:08:04+02:00</time>
      </trkpt>
      <trkpt lat="48.71915" lon="6.17391">
        <ele>190.5</ele>
        <time>2026-05-18T12:08:05+02:00</time>
      </trkpt>
      <trkpt lat="48.71918" lon="6.17394">
        <ele>190.7998</ele>
        <time>2026-05-18T12:08:06+02:00</time>
      </trkpt>
      <trkpt lat="48.71921" lon="6.17397">
        <ele>190.7998</ele>
        <time>2026-05-18T12:08:07+02:00</time>
      </trkpt>
      <trkpt lat="48.71924" lon="6.174">
        <ele>190.2998</ele>
        <time>2026-05-18T12:08:08+02:00</time>
      </trkpt>
      <trkpt lat="48.71927" lon="6.17403">
        <ele>190.2998</ele>
        <time>2026-05-18T12:08:09+02:00</time>
      </trkpt>
      <trkpt lat="48.7193" lon="6.17407">
        <ele>190.5</ele>
        <time>2026-05-18T12:08:10+02:00</time>
      </trkpt>
      <trkpt lat="48.71933" lon="6.1741">
        <ele>190.5</ele>
        <time>2026-05-18T12:08:11+02:00</time>
      </trkpt>
      <trkpt lat="48.71935" lon="6.17412">
        <ele>191.2002</ele>
        <time>2026-05-18T12:08:12+02:00</time>
      </trkpt>
      <trkpt lat="48.71942" lon="6.17418">
        <ele>190.7998</ele>
        <time>2026-05-18T12:08:13+02:00</time>
      </trkpt>
      <trkpt lat="48.71945" lon="6.17421">
        <ele>190.90039</ele>
        <time>2026-05-18T12:08:14+02:00</time>
      </trkpt>
      <trkpt lat="48.7195" lon="6.17425">
        <ele>190</ele>
        <time>2026-05-18T12:08:15+02:00</time>
      </trkpt>
      <trkpt lat="48.71954" lon="6.17429">
        <ele>189.90039</ele>
        <time>2026-05-18T12:08:16+02:00</time>
      </trkpt>
      <trkpt lat="48.71958" lon="6.17432">
        <ele>189.40039</ele>
        <time>2026-05-18T12:08:17+02:00</time>
      </trkpt>
      <trkpt lat="48.71962" lon="6.17435">
        <ele>189.40039</ele>
        <time>2026-05-18T12:08:18+02:00</time>
      </trkpt>
      <trkpt lat="48.71964" lon="6.17436">
        <ele>189.5</ele>
        <time>2026-05-18T12:08:19+02:00</time>
      </trkpt>
      <trkpt lat="48.71969" lon="6.17441">
        <ele>189.60059</ele>
        <time>2026-05-18T12:08:20+02:00</time>
      </trkpt>
      <trkpt lat="48.71973" lon="6.17443">
        <ele>189.60059</ele>
        <time>2026-05-18T12:08:21+02:00</time>
      </trkpt>
      <trkpt lat="48.71976" lon="6.17445">
        <ele>190.10059</ele>
        <time>2026-05-18T12:08:22+02:00</time>
      </trkpt>
      <trkpt lat="48.7198" lon="6.17447">
        <ele>190.60059</ele>
        <time>2026-05-18T12:08:23+02:00</time>
      </trkpt>
      <trkpt lat="48.71983" lon="6.17448">
        <ele>190.60059</ele>
        <time>2026-05-18T12:08:24+02:00</time>
      </trkpt>
      <trkpt lat="48.71987" lon="6.1745">
        <ele>190.2998</ele>
        <time>2026-05-18T12:08:25+02:00</time>
      </trkpt>
      <trkpt lat="48.71988" lon="6.17451">
        <ele>190.2998</ele>
        <time>2026-05-18T12:08:26+02:00</time>
      </trkpt>
      <trkpt lat="48.71994" lon="6.17454">
        <ele>190.2998</ele>
        <time>2026-05-18T12:08:27+02:00</time>
      </trkpt>
      <trkpt lat="48.71998" lon="6.17456">
        <ele>190.2998</ele>
        <time>2026-05-18T12:08:28+02:00</time>
      </trkpt>
      <trkpt lat="48.72002" lon="6.17459">
        <ele>189.5</ele>
        <time>2026-05-18T12:08:29+02:00</time>
      </trkpt>
      <trkpt lat="48.72006" lon="6.17462">
        <ele>189.5</ele>
        <time>2026-05-18T12:08:30+02:00</time>
      </trkpt>
      <trkpt lat="48.7201" lon="6.17465">
        <ele>189.7002</ele>
        <time>2026-05-18T12:08:31+02:00</time>
      </trkpt>
      <trkpt lat="48.72014" lon="6.17467">
        <ele>189.60059</ele>
        <time>2026-05-18T12:08:32+02:00</time>
      </trkpt>
      <trkpt lat="48.72017" lon="6.17469">
        <ele>189.60059</ele>
        <time>2026-05-18T12:08:33+02:00</time>
      </trkpt>
      <trkpt lat="48.72023" lon="6.17474">
        <ele>190.2002</ele>
        <time>2026-05-18T12:08:34+02:00</time>
      </trkpt>
      <trkpt lat="48.72027" lon="6.17477">
        <ele>190.40039</ele>
        <time>2026-05-18T12:08:35+02:00</time>
      </trkpt>
      <trkpt lat="48.72032" lon="6.17479">
        <ele>190.60059</ele>
        <time>2026-05-18T12:08:36+02:00</time>
      </trkpt>
      <trkpt lat="48.72036" lon="6.1748">
        <ele>190.7998</ele>
        <time>2026-05-18T12:08:37+02:00</time>
      </trkpt>
      <trkpt lat="48.72041" lon="6.17481">
        <ele>190.7998</ele>
        <time>2026-05-18T12:08:38+02:00</time>
      </trkpt>
      <trkpt lat="48.72046" lon="6.17482">
        <ele>190.7998</ele>
        <time>2026-05-18T12:08:39+02:00</time>
      </trkpt>
      <trkpt lat="48.72051" lon="6.17483">
        <ele>190.7998</ele>
        <time>2026-05-18T12:08:40+02:00</time>
      </trkpt>
      <trkpt lat="48.72056" lon="6.17483">
        <ele>190.90039</ele>
        <time>2026-05-18T12:08:41+02:00</time>
      </trkpt>
      <trkpt lat="48.72061" lon="6.17484">
        <ele>190.2002</ele>
        <time>2026-05-18T12:08:42+02:00</time>
      </trkpt>
      <trkpt lat="48.72066" lon="6.17483">
        <ele>191.5</ele>
        <time>2026-05-18T12:08:43+02:00</time>
      </trkpt>
      <trkpt lat="48.72071" lon="6.17484">
        <ele>191.2998</ele>
        <time>2026-05-18T12:08:44+02:00</time>
      </trkpt>
      <trkpt lat="48.72075" lon="6.17484">
        <ele>191.2998</ele>
        <time>2026-05-18T12:08:45+02:00</time>
      </trkpt>
      <trkpt lat="48.7208" lon="6.17484">
        <ele>191.60059</ele>
        <time>2026-05-18T12:08:46+02:00</time>
      </trkpt>
      <trkpt lat="48.72085" lon="6.17485">
        <ele>191.7002</ele>
        <time>2026-05-18T12:08:47+02:00</time>
      </trkpt>
      <trkpt lat="48.7209" lon="6.17485">
        <ele>191.7998</ele>
        <time>2026-05-18T12:08:48+02:00</time>
      </trkpt>
      <trkpt lat="48.72094" lon="6.17485">
        <ele>191.7998</ele>
        <time>2026-05-18T12:08:49+02:00</time>
      </trkpt>
      <trkpt lat="48.72099" lon="6.17485">
        <ele>191.7998</ele>
        <time>2026-05-18T12:08:50+02:00</time>
      </trkpt>
      <trkpt lat="48.72101" lon="6.17485">
        <ele>191.7998</ele>
        <time>2026-05-18T12:08:51+02:00</time>
      </trkpt>
      <trkpt lat="48.72107" lon="6.17486">
        <ele>191.7002</ele>
        <time>2026-05-18T12:08:52+02:00</time>
      </trkpt>
      <trkpt lat="48.72111" lon="6.17486">
        <ele>191.60059</ele>
        <time>2026-05-18T12:08:53+02:00</time>
      </trkpt>
      <trkpt lat="48.72115" lon="6.17486">
        <ele>191.60059</ele>
        <time>2026-05-18T12:08:54+02:00</time>
      </trkpt>
      <trkpt lat="48.72117" lon="6.17485">
        <ele>191.5</ele>
        <time>2026-05-18T12:08:55+02:00</time>
      </trkpt>
      <trkpt lat="48.72124" lon="6.17485">
        <ele>191.40039</ele>
        <time>2026-05-18T12:08:56+02:00</time>
      </trkpt>
      <trkpt lat="48.72129" lon="6.17485">
        <ele>191.2998</ele>
        <time>2026-05-18T12:08:57+02:00</time>
      </trkpt>
      <trkpt lat="48.72134" lon="6.17485">
        <ele>191.2998</ele>
        <time>2026-05-18T12:08:58+02:00</time>
      </trkpt>
      <trkpt lat="48.72139" lon="6.17484">
        <ele>191.2002</ele>
        <time>2026-05-18T12:08:59+02:00</time>
      </trkpt>
      <trkpt lat="48.72145" lon="6.17483">
        <ele>191.7002</ele>
        <time>2026-05-18T12:09:00+02:00</time>
      </trkpt>
      <trkpt lat="48.7215" lon="6.17482">
        <ele>191.60059</ele>
        <time>2026-05-18T12:09:01+02:00</time>
      </trkpt>
      <trkpt lat="48.72152" lon="6.17482">
        <ele>191.60059</ele>
        <time>2026-05-18T12:09:02+02:00</time>
      </trkpt>
      <trkpt lat="48.7216" lon="6.17482">
        <ele>191.5</ele>
        <time>2026-05-18T12:09:03+02:00</time>
      </trkpt>
      <trkpt lat="48.72164" lon="6.17481">
        <ele>191.40039</ele>
        <time>2026-05-18T12:09:04+02:00</time>
      </trkpt>
      <trkpt lat="48.72169" lon="6.1748">
        <ele>191.2998</ele>
        <time>2026-05-18T12:09:05+02:00</time>
      </trkpt>
      <trkpt lat="48.72174" lon="6.17479">
        <ele>190.90039</ele>
        <time>2026-05-18T12:09:06+02:00</time>
      </trkpt>
      <trkpt lat="48.72178" lon="6.17477">
        <ele>190.5</ele>
        <time>2026-05-18T12:09:07+02:00</time>
      </trkpt>
      <trkpt lat="48.72184" lon="6.17476">
        <ele>190</ele>
        <time>2026-05-18T12:09:08+02:00</time>
      </trkpt>
      <trkpt lat="48.72189" lon="6.17476">
        <ele>189.7998</ele>
        <time>2026-05-18T12:09:09+02:00</time>
      </trkpt>
      <trkpt lat="48.72194" lon="6.17474">
        <ele>190.5</ele>
        <time>2026-05-18T12:09:10+02:00</time>
      </trkpt>
      <trkpt lat="48.72199" lon="6.17472">
        <ele>190.40039</ele>
        <time>2026-05-18T12:09:11+02:00</time>
      </trkpt>
      <trkpt lat="48.72204" lon="6.1747">
        <ele>190.40039</ele>
        <time>2026-05-18T12:09:12+02:00</time>
      </trkpt>
      <trkpt lat="48.72209" lon="6.17467">
        <ele>190.2998</ele>
        <time>2026-05-18T12:09:13+02:00</time>
      </trkpt>
      <trkpt lat="48.72213" lon="6.17465">
        <ele>191.2002</ele>
        <time>2026-05-18T12:09:14+02:00</time>
      </trkpt>
      <trkpt lat="48.72218" lon="6.17463">
        <ele>191.10059</ele>
        <time>2026-05-18T12:09:15+02:00</time>
      </trkpt>
      <trkpt lat="48.72223" lon="6.17461">
        <ele>191.10059</ele>
        <time>2026-05-18T12:09:16+02:00</time>
      </trkpt>
      <trkpt lat="48.72227" lon="6.17459">
        <ele>191.10059</ele>
        <time>2026-05-18T12:09:17+02:00</time>
      </trkpt>
      <trkpt lat="48.72232" lon="6.17457">
        <ele>192.10059</ele>
        <time>2026-05-18T12:09:18+02:00</time>
      </trkpt>
      <trkpt lat="48.72237" lon="6.17454">
        <ele>192.10059</ele>
        <time>2026-05-18T12:09:19+02:00</time>
      </trkpt>
      <trkpt lat="48.72242" lon="6.17452">
        <ele>192</ele>
        <time>2026-05-18T12:09:20+02:00</time>
      </trkpt>
      <trkpt lat="48.72246" lon="6.1745">
        <ele>192</ele>
        <time>2026-05-18T12:09:21+02:00</time>
      </trkpt>
      <trkpt lat="48.72251" lon="6.17447">
        <ele>192.7998</ele>
        <time>2026-05-18T12:09:22+02:00</time>
      </trkpt>
      <trkpt lat="48.72255" lon="6.17445">
        <ele>192.7998</ele>
        <time>2026-05-18T12:09:23+02:00</time>
      </trkpt>
      <trkpt lat="48.72259" lon="6.17443">
        <ele>192.60059</ele>
        <time>2026-05-18T12:09:24+02:00</time>
      </trkpt>
      <trkpt lat="48.72264" lon="6.17441">
        <ele>192.5</ele>
        <time>2026-05-18T12:09:25+02:00</time>
      </trkpt>
      <trkpt lat="48.7227" lon="6.17439">
        <ele>193</ele>
        <time>2026-05-18T12:09:26+02:00</time>
      </trkpt>
      <trkpt lat="48.72275" lon="6.17438">
        <ele>192.60059</ele>
        <time>2026-05-18T12:09:27+02:00</time>
      </trkpt>
      <trkpt lat="48.7228" lon="6.17436">
        <ele>192.10059</ele>
        <time>2026-05-18T12:09:28+02:00</time>
      </trkpt>
      <trkpt lat="48.72285" lon="6.17434">
        <ele>191.40039</ele>
        <time>2026-05-18T12:09:29+02:00</time>
      </trkpt>
      <trkpt lat="48.72291" lon="6.17433">
        <ele>190.60059</ele>
        <time>2026-05-18T12:09:30+02:00</time>
      </trkpt>
      <trkpt lat="48.72296" lon="6.17431">
        <ele>191.40039</ele>
        <time>2026-05-18T12:09:31+02:00</time>
      </trkpt>
      <trkpt lat="48.72302" lon="6.17429">
        <ele>190.90039</ele>
        <time>2026-05-18T12:09:32+02:00</time>
      </trkpt>
      <trkpt lat="48.72307" lon="6.17427">
        <ele>190.7002</ele>
        <time>2026-05-18T12:09:33+02:00</time>
      </trkpt>
      <trkpt lat="48.72312" lon="6.17425">
        <ele>190.60059</ele>
        <time>2026-05-18T12:09:34+02:00</time>
      </trkpt>
      <trkpt lat="48.72316" lon="6.17422">
        <ele>191.2998</ele>
        <time>2026-05-18T12:09:35+02:00</time>
      </trkpt>
      <trkpt lat="48.72321" lon="6.17419">
        <ele>191.2002</ele>
        <time>2026-05-18T12:09:36+02:00</time>
      </trkpt>
      <trkpt lat="48.72325" lon="6.17417">
        <ele>191.10059</ele>
        <time>2026-05-18T12:09:37+02:00</time>
      </trkpt>
      <trkpt lat="48.72328" lon="6.17416">
        <ele>191.10059</ele>
        <time>2026-05-18T12:09:38+02:00</time>
      </trkpt>
      <trkpt lat="48.72334" lon="6.17413">
        <ele>191.60059</ele>
        <time>2026-05-18T12:09:39+02:00</time>
      </trkpt>
      <trkpt lat="48.72339" lon="6.17411">
        <ele>191.5</ele>
        <time>2026-05-18T12:09:40+02:00</time>
      </trkpt>
      <trkpt lat="48.72344" lon="6.17409">
        <ele>191.40039</ele>
        <time>2026-05-18T12:09:41+02:00</time>
      </trkpt>
      <trkpt lat="48.72349" lon="6.17407">
        <ele>191.2002</ele>
        <time>2026-05-18T12:09:42+02:00</time>
      </trkpt>
      <trkpt lat="48.72353" lon="6.17405">
        <ele>191.5</ele>
        <time>2026-05-18T12:09:43+02:00</time>
      </trkpt>
      <trkpt lat="48.72357" lon="6.17402">
        <ele>191.5</ele>
        <time>2026-05-18T12:09:44+02:00</time>
      </trkpt>
      <trkpt lat="48.72362" lon="6.174">
        <ele>191.2002</ele>
        <time>2026-05-18T12:09:45+02:00</time>
      </trkpt>
      <trkpt lat="48.72367" lon="6.17399">
        <ele>191</ele>
        <time>2026-05-18T12:09:46+02:00</time>
      </trkpt>
      <trkpt lat="48.72372" lon="6.17396">
        <ele>190.7998</ele>
        <time>2026-05-18T12:09:47+02:00</time>
      </trkpt>
      <trkpt lat="48.72377" lon="6.17394">
        <ele>190.2998</ele>
        <time>2026-05-18T12:09:48+02:00</time>
      </trkpt>
      <trkpt lat="48.72382" lon="6.17392">
        <ele>189.90039</ele>
        <time>2026-05-18T12:09:49+02:00</time>
      </trkpt>
      <trkpt lat="48.72387" lon="6.1739">
        <ele>189.7002</ele>
        <time>2026-05-18T12:09:50+02:00</time>
      </trkpt>
      <trkpt lat="48.72393" lon="6.17389">
        <ele>189.60059</ele>
        <time>2026-05-18T12:09:51+02:00</time>
      </trkpt>
      <trkpt lat="48.72399" lon="6.17388">
        <ele>189.7002</ele>
        <time>2026-05-18T12:09:52+02:00</time>
      </trkpt>
      <trkpt lat="48.72404" lon="6.17387">
        <ele>189.7002</ele>
        <time>2026-05-18T12:09:53+02:00</time>
      </trkpt>
      <trkpt lat="48.7241" lon="6.17386">
        <ele>189.7002</ele>
        <time>2026-05-18T12:09:54+02:00</time>
      </trkpt>
      <trkpt lat="48.72415" lon="6.17385">
        <ele>189.7002</ele>
        <time>2026-05-18T12:09:55+02:00</time>
      </trkpt>
      <trkpt lat="48.72421" lon="6.17385">
        <ele>189.7002</ele>
        <time>2026-05-18T12:09:56+02:00</time>
      </trkpt>
      <trkpt lat="48.72427" lon="6.17385">
        <ele>189.7002</ele>
        <time>2026-05-18T12:09:57+02:00</time>
      </trkpt>
      <trkpt lat="48.72433" lon="6.17385">
        <ele>189.7002</ele>
        <time>2026-05-18T12:09:58+02:00</time>
      </trkpt>
      <trkpt lat="48.72439" lon="6.17385">
        <ele>189.7002</ele>
        <time>2026-05-18T12:09:59+02:00</time>
      </trkpt>
      <trkpt lat="48.72445" lon="6.17385">
        <ele>189.7002</ele>
        <time>2026-05-18T12:10:00+02:00</time>
      </trkpt>
      <trkpt lat="48.72451" lon="6.17385">
        <ele>189.7998</ele>
        <time>2026-05-18T12:10:01+02:00</time>
      </trkpt>
      <trkpt lat="48.72457" lon="6.17385">
        <ele>189.7998</ele>
        <time>2026-05-18T12:10:02+02:00</time>
      </trkpt>
      <trkpt lat="48.72463" lon="6.17385">
        <ele>189.7998</ele>
        <time>2026-05-18T12:10:03+02:00</time>
      </trkpt>
      <trkpt lat="48.72468" lon="6.17386">
        <ele>189.7998</ele>
        <time>2026-05-18T12:10:04+02:00</time>
      </trkpt>
      <trkpt lat="48.72474" lon="6.17387">
        <ele>189.7998</ele>
        <time>2026-05-18T12:10:05+02:00</time>
      </trkpt>
      <trkpt lat="48.72479" lon="6.17387">
        <ele>189.7998</ele>
        <time>2026-05-18T12:10:06+02:00</time>
      </trkpt>
      <trkpt lat="48.72485" lon="6.17388">
        <ele>189.7998</ele>
        <time>2026-05-18T12:10:07+02:00</time>
      </trkpt>
      <trkpt lat="48.7249" lon="6.17389">
        <ele>189.5</ele>
        <time>2026-05-18T12:10:08+02:00</time>
      </trkpt>
      <trkpt lat="48.72495" lon="6.1739">
        <ele>189.5</ele>
        <time>2026-05-18T12:10:09+02:00</time>
      </trkpt>
      <trkpt lat="48.725" lon="6.17391">
        <ele>189.5</ele>
        <time>2026-05-18T12:10:10+02:00</time>
      </trkpt>
      <trkpt lat="48.72505" lon="6.17392">
        <ele>189.5</ele>
        <time>2026-05-18T12:10:11+02:00</time>
      </trkpt>
      <trkpt lat="48.7251" lon="6.17393">
        <ele>189.5</ele>
        <time>2026-05-18T12:10:12+02:00</time>
      </trkpt>
      <trkpt lat="48.72516" lon="6.17395">
        <ele>189.40039</ele>
        <time>2026-05-18T12:10:13+02:00</time>
      </trkpt>
      <trkpt lat="48.72521" lon="6.17398">
        <ele>189.10059</ele>
        <time>2026-05-18T12:10:14+02:00</time>
      </trkpt>
      <trkpt lat="48.72527" lon="6.174">
        <ele>189.2002</ele>
        <time>2026-05-18T12:10:15+02:00</time>
      </trkpt>
      <trkpt lat="48.72532" lon="6.17403">
        <ele>189.5</ele>
        <time>2026-05-18T12:10:16+02:00</time>
      </trkpt>
      <trkpt lat="48.72537" lon="6.17405">
        <ele>190</ele>
        <time>2026-05-18T12:10:17+02:00</time>
      </trkpt>
      <trkpt lat="48.72542" lon="6.17408">
        <ele>190.10059</ele>
        <time>2026-05-18T12:10:18+02:00</time>
      </trkpt>
      <trkpt lat="48.72548" lon="6.1741">
        <ele>190.2002</ele>
        <time>2026-05-18T12:10:19+02:00</time>
      </trkpt>
      <trkpt lat="48.72553" lon="6.17412">
        <ele>190.2998</ele>
        <time>2026-05-18T12:10:20+02:00</time>
      </trkpt>
      <trkpt lat="48.72558" lon="6.17414">
        <ele>190.2002</ele>
        <time>2026-05-18T12:10:21+02:00</time>
      </trkpt>
      <trkpt lat="48.72563" lon="6.17416">
        <ele>189.5</ele>
        <time>2026-05-18T12:10:22+02:00</time>
      </trkpt>
      <trkpt lat="48.72569" lon="6.17419">
        <ele>189.60059</ele>
        <time>2026-05-18T12:10:23+02:00</time>
      </trkpt>
      <trkpt lat="48.72574" lon="6.17422">
        <ele>189.7998</ele>
        <time>2026-05-18T12:10:24+02:00</time>
      </trkpt>
      <trkpt lat="48.72579" lon="6.17424">
        <ele>189.5</ele>
        <time>2026-05-18T12:10:25+02:00</time>
      </trkpt>
      <trkpt lat="48.72584" lon="6.17427">
        <ele>189.7998</ele>
        <time>2026-05-18T12:10:26+02:00</time>
      </trkpt>
      <trkpt lat="48.72589" lon="6.1743">
        <ele>190.10059</ele>
        <time>2026-05-18T12:10:27+02:00</time>
      </trkpt>
      <trkpt lat="48.72595" lon="6.17432">
        <ele>190</ele>
        <time>2026-05-18T12:10:28+02:00</time>
      </trkpt>
      <trkpt lat="48.726" lon="6.17435">
        <ele>190.10059</ele>
        <time>2026-05-18T12:10:29+02:00</time>
      </trkpt>
      <trkpt lat="48.72606" lon="6.17438">
        <ele>190.10059</ele>
        <time>2026-05-18T12:10:30+02:00</time>
      </trkpt>
      <trkpt lat="48.72611" lon="6.1744">
        <ele>190.10059</ele>
        <time>2026-05-18T12:10:31+02:00</time>
      </trkpt>
      <trkpt lat="48.72617" lon="6.17443">
        <ele>189.7998</ele>
        <time>2026-05-18T12:10:32+02:00</time>
      </trkpt>
      <trkpt lat="48.72623" lon="6.17446">
        <ele>189.7002</ele>
        <time>2026-05-18T12:10:33+02:00</time>
      </trkpt>
      <trkpt lat="48.72629" lon="6.17449">
        <ele>189.5</ele>
        <time>2026-05-18T12:10:34+02:00</time>
      </trkpt>
      <trkpt lat="48.72634" lon="6.17451">
        <ele>189.40039</ele>
        <time>2026-05-18T12:10:35+02:00</time>
      </trkpt>
      <trkpt lat="48.7264" lon="6.17453">
        <ele>189.5</ele>
        <time>2026-05-18T12:10:36+02:00</time>
      </trkpt>
      <trkpt lat="48.72646" lon="6.17456">
        <ele>189.60059</ele>
        <time>2026-05-18T12:10:37+02:00</time>
      </trkpt>
      <trkpt lat="48.72652" lon="6.17458">
        <ele>189.7002</ele>
        <time>2026-05-18T12:10:38+02:00</time>
      </trkpt>
      <trkpt lat="48.72658" lon="6.17461">
        <ele>189.90039</ele>
        <time>2026-05-18T12:10:39+02:00</time>
      </trkpt>
      <trkpt lat="48.72664" lon="6.17463">
        <ele>190.10059</ele>
        <time>2026-05-18T12:10:40+02:00</time>
      </trkpt>
      <trkpt lat="48.72669" lon="6.17466">
        <ele>189.7998</ele>
        <time>2026-05-18T12:10:41+02:00</time>
      </trkpt>
      <trkpt lat="48.72675" lon="6.17468">
        <ele>189.7998</ele>
        <time>2026-05-18T12:10:42+02:00</time>
      </trkpt>
      <trkpt lat="48.72681" lon="6.1747">
        <ele>189.7998</ele>
        <time>2026-05-18T12:10:43+02:00</time>
      </trkpt>
      <trkpt lat="48.72687" lon="6.17473">
        <ele>189.7002</ele>
        <time>2026-05-18T12:10:44+02:00</time>
      </trkpt>
      <trkpt lat="48.72692" lon="6.17476">
        <ele>189.5</ele>
        <time>2026-05-18T12:10:45+02:00</time>
      </trkpt>
      <trkpt lat="48.72698" lon="6.17478">
        <ele>189.5</ele>
        <time>2026-05-18T12:10:46+02:00</time>
      </trkpt>
      <trkpt lat="48.72704" lon="6.1748">
        <ele>189.5</ele>
        <time>2026-05-18T12:10:47+02:00</time>
      </trkpt>
      <trkpt lat="48.7271" lon="6.17483">
        <ele>189.60059</ele>
        <time>2026-05-18T12:10:48+02:00</time>
      </trkpt>
      <trkpt lat="48.72716" lon="6.17485">
        <ele>189.7002</ele>
        <time>2026-05-18T12:10:49+02:00</time>
      </trkpt>
      <trkpt lat="48.72721" lon="6.17487">
        <ele>190</ele>
        <time>2026-05-18T12:10:50+02:00</time>
      </trkpt>
      <trkpt lat="48.72727" lon="6.17489">
        <ele>190.2002</ele>
        <time>2026-05-18T12:10:51+02:00</time>
      </trkpt>
      <trkpt lat="48.7273" lon="6.1749">
        <ele>190.2002</ele>
        <time>2026-05-18T12:10:52+02:00</time>
      </trkpt>
      <trkpt lat="48.72738" lon="6.17492">
        <ele>190</ele>
        <time>2026-05-18T12:10:53+02:00</time>
      </trkpt>
      <trkpt lat="48.72744" lon="6.17493">
        <ele>189.90039</ele>
        <time>2026-05-18T12:10:54+02:00</time>
      </trkpt>
      <trkpt lat="48.72749" lon="6.17494">
        <ele>189.90039</ele>
        <time>2026-05-18T12:10:55+02:00</time>
      </trkpt>
      <trkpt lat="48.72754" lon="6.17495">
        <ele>189.90039</ele>
        <time>2026-05-18T12:10:56+02:00</time>
      </trkpt>
      <trkpt lat="48.7276" lon="6.17496">
        <ele>189.90039</ele>
        <time>2026-05-18T12:10:57+02:00</time>
      </trkpt>
      <trkpt lat="48.72766" lon="6.17498">
        <ele>189.90039</ele>
        <time>2026-05-18T12:10:58+02:00</time>
      </trkpt>
      <trkpt lat="48.72772" lon="6.17499">
        <ele>189.90039</ele>
        <time>2026-05-18T12:10:59+02:00</time>
      </trkpt>
      <trkpt lat="48.72778" lon="6.175">
        <ele>190</ele>
        <time>2026-05-18T12:11:00+02:00</time>
      </trkpt>
      <trkpt lat="48.72783" lon="6.175">
        <ele>190</ele>
        <time>2026-05-18T12:11:01+02:00</time>
      </trkpt>
      <trkpt lat="48.72789" lon="6.175">
        <ele>190.5</ele>
        <time>2026-05-18T12:11:02+02:00</time>
      </trkpt>
      <trkpt lat="48.72795" lon="6.17501">
        <ele>190.5</ele>
        <time>2026-05-18T12:11:03+02:00</time>
      </trkpt>
      <trkpt lat="48.72801" lon="6.17501">
        <ele>190.60059</ele>
        <time>2026-05-18T12:11:04+02:00</time>
      </trkpt>
      <trkpt lat="48.72807" lon="6.17501">
        <ele>190.7002</ele>
        <time>2026-05-18T12:11:05+02:00</time>
      </trkpt>
      <trkpt lat="48.72813" lon="6.17501">
        <ele>190.7002</ele>
        <time>2026-05-18T12:11:06+02:00</time>
      </trkpt>
      <trkpt lat="48.72819" lon="6.17501">
        <ele>190.7998</ele>
        <time>2026-05-18T12:11:07+02:00</time>
      </trkpt>
      <trkpt lat="48.72824" lon="6.17501">
        <ele>190.7998</ele>
        <time>2026-05-18T12:11:08+02:00</time>
      </trkpt>
      <trkpt lat="48.7283" lon="6.175">
        <ele>191.2002</ele>
        <time>2026-05-18T12:11:09+02:00</time>
      </trkpt>
      <trkpt lat="48.72836" lon="6.175">
        <ele>191.2002</ele>
        <time>2026-05-18T12:11:10+02:00</time>
      </trkpt>
      <trkpt lat="48.72842" lon="6.17499">
        <ele>191.2002</ele>
        <time>2026-05-18T12:11:11+02:00</time>
      </trkpt>
      <trkpt lat="48.72847" lon="6.17498">
        <ele>191.2002</ele>
        <time>2026-05-18T12:11:12+02:00</time>
      </trkpt>
      <trkpt lat="48.72854" lon="6.17497">
        <ele>191.2998</ele>
        <time>2026-05-18T12:11:13+02:00</time>
      </trkpt>
      <trkpt lat="48.72859" lon="6.17496">
        <ele>191.2998</ele>
        <time>2026-05-18T12:11:14+02:00</time>
      </trkpt>
      <trkpt lat="48.72865" lon="6.17495">
        <ele>191.2998</ele>
        <time>2026-05-18T12:11:15+02:00</time>
      </trkpt>
      <trkpt lat="48.72871" lon="6.17494">
        <ele>191.2998</ele>
        <time>2026-05-18T12:11:16+02:00</time>
      </trkpt>
      <trkpt lat="48.72877" lon="6.17493">
        <ele>191.2998</ele>
        <time>2026-05-18T12:11:17+02:00</time>
      </trkpt>
      <trkpt lat="48.7288" lon="6.17492">
        <ele>191.2002</ele>
        <time>2026-05-18T12:11:18+02:00</time>
      </trkpt>
      <trkpt lat="48.72888" lon="6.1749">
        <ele>191.40039</ele>
        <time>2026-05-18T12:11:19+02:00</time>
      </trkpt>
      <trkpt lat="48.72894" lon="6.17488">
        <ele>191.10059</ele>
        <time>2026-05-18T12:11:20+02:00</time>
      </trkpt>
      <trkpt lat="48.729" lon="6.17487">
        <ele>190.7002</ele>
        <time>2026-05-18T12:11:21+02:00</time>
      </trkpt>
      <trkpt lat="48.72905" lon="6.17485">
        <ele>190.2998</ele>
        <time>2026-05-18T12:11:22+02:00</time>
      </trkpt>
      <trkpt lat="48.72911" lon="6.17483">
        <ele>190.7002</ele>
        <time>2026-05-18T12:11:23+02:00</time>
      </trkpt>
      <trkpt lat="48.72917" lon="6.17481">
        <ele>190.5</ele>
        <time>2026-05-18T12:11:24+02:00</time>
      </trkpt>
      <trkpt lat="48.72923" lon="6.17479">
        <ele>190.40039</ele>
        <time>2026-05-18T12:11:25+02:00</time>
      </trkpt>
      <trkpt lat="48.72928" lon="6.17477">
        <ele>190.2998</ele>
        <time>2026-05-18T12:11:26+02:00</time>
      </trkpt>
      <trkpt lat="48.72934" lon="6.17474">
        <ele>190.7998</ele>
        <time>2026-05-18T12:11:27+02:00</time>
      </trkpt>
      <trkpt lat="48.72939" lon="6.17472">
        <ele>190.7998</ele>
        <time>2026-05-18T12:11:28+02:00</time>
      </trkpt>
      <trkpt lat="48.72945" lon="6.17469">
        <ele>190.7998</ele>
        <time>2026-05-18T12:11:29+02:00</time>
      </trkpt>
      <trkpt lat="48.7295" lon="6.17466">
        <ele>190.7998</ele>
        <time>2026-05-18T12:11:30+02:00</time>
      </trkpt>
      <trkpt lat="48.72956" lon="6.17463">
        <ele>191.2002</ele>
        <time>2026-05-18T12:11:31+02:00</time>
      </trkpt>
      <trkpt lat="48.72961" lon="6.1746">
        <ele>191.10059</ele>
        <time>2026-05-18T12:11:32+02:00</time>
      </trkpt>
      <trkpt lat="48.72967" lon="6.17457">
        <ele>191.40039</ele>
        <time>2026-05-18T12:11:33+02:00</time>
      </trkpt>
      <trkpt lat="48.72972" lon="6.17454">
        <ele>191.2002</ele>
        <time>2026-05-18T12:11:34+02:00</time>
      </trkpt>
      <trkpt lat="48.72978" lon="6.1745">
        <ele>190.90039</ele>
        <time>2026-05-18T12:11:35+02:00</time>
      </trkpt>
      <trkpt lat="48.72983" lon="6.17447">
        <ele>191</ele>
        <time>2026-05-18T12:11:36+02:00</time>
      </trkpt>
      <trkpt lat="48.72989" lon="6.17443">
        <ele>190.60059</ele>
        <time>2026-05-18T12:11:37+02:00</time>
      </trkpt>
      <trkpt lat="48.72995" lon="6.1744">
        <ele>190.7998</ele>
        <time>2026-05-18T12:11:38+02:00</time>
      </trkpt>
      <trkpt lat="48.73" lon="6.17436">
        <ele>190.60059</ele>
        <time>2026-05-18T12:11:39+02:00</time>
      </trkpt>
      <trkpt lat="48.73006" lon="6.17432">
        <ele>190.40039</ele>
        <time>2026-05-18T12:11:40+02:00</time>
      </trkpt>
      <trkpt lat="48.73012" lon="6.17428">
        <ele>190.7998</ele>
        <time>2026-05-18T12:11:41+02:00</time>
      </trkpt>
      <trkpt lat="48.73017" lon="6.17425">
        <ele>190.60059</ele>
        <time>2026-05-18T12:11:42+02:00</time>
      </trkpt>
      <trkpt lat="48.73023" lon="6.17421">
        <ele>190.7002</ele>
        <time>2026-05-18T12:11:43+02:00</time>
      </trkpt>
      <trkpt lat="48.73028" lon="6.17416">
        <ele>190.40039</ele>
        <time>2026-05-18T12:11:44+02:00</time>
      </trkpt>
      <trkpt lat="48.73033" lon="6.17412">
        <ele>190.40039</ele>
        <time>2026-05-18T12:11:45+02:00</time>
      </trkpt>
      <trkpt lat="48.73038" lon="6.17407">
        <ele>190.10059</ele>
        <time>2026-05-18T12:11:46+02:00</time>
      </trkpt>
      <trkpt lat="48.73044" lon="6.17402">
        <ele>190.40039</ele>
        <time>2026-05-18T12:11:47+02:00</time>
      </trkpt>
      <trkpt lat="48.73049" lon="6.17397">
        <ele>191</ele>
        <time>2026-05-18T12:11:48+02:00</time>
      </trkpt>
      <trkpt lat="48.73054" lon="6.17393">
        <ele>190.7998</ele>
        <time>2026-05-18T12:11:49+02:00</time>
      </trkpt>
      <trkpt lat="48.7306" lon="6.17388">
        <ele>191.10059</ele>
        <time>2026-05-18T12:11:50+02:00</time>
      </trkpt>
      <trkpt lat="48.73065" lon="6.17382">
        <ele>190.7998</ele>
        <time>2026-05-18T12:11:51+02:00</time>
      </trkpt>
      <trkpt lat="48.73069" lon="6.17377">
        <ele>190.90039</ele>
        <time>2026-05-18T12:11:52+02:00</time>
      </trkpt>
      <trkpt lat="48.73074" lon="6.17373">
        <ele>190.40039</ele>
        <time>2026-05-18T12:11:53+02:00</time>
      </trkpt>
      <trkpt lat="48.73079" lon="6.17368">
        <ele>190.5</ele>
        <time>2026-05-18T12:11:54+02:00</time>
      </trkpt>
      <trkpt lat="48.73083" lon="6.17362">
        <ele>191.2002</ele>
        <time>2026-05-18T12:11:55+02:00</time>
      </trkpt>
      <trkpt lat="48.73088" lon="6.17357">
        <ele>190.90039</ele>
        <time>2026-05-18T12:11:56+02:00</time>
      </trkpt>
      <trkpt lat="48.73092" lon="6.17351">
        <ele>191.40039</ele>
        <time>2026-05-18T12:11:57+02:00</time>
      </trkpt>
      <trkpt lat="48.73097" lon="6.17346">
        <ele>191.2002</ele>
        <time>2026-05-18T12:11:58+02:00</time>
      </trkpt>
      <trkpt lat="48.73102" lon="6.1734">
        <ele>191.5</ele>
        <time>2026-05-18T12:11:59+02:00</time>
      </trkpt>
      <trkpt lat="48.73106" lon="6.17335">
        <ele>191.7002</ele>
        <time>2026-05-18T12:12:00+02:00</time>
      </trkpt>
      <trkpt lat="48.73111" lon="6.17331">
        <ele>191.7002</ele>
        <time>2026-05-18T12:12:01+02:00</time>
      </trkpt>
      <trkpt lat="48.73115" lon="6.17325">
        <ele>191.7998</ele>
        <time>2026-05-18T12:12:02+02:00</time>
      </trkpt>
      <trkpt lat="48.73119" lon="6.1732">
        <ele>192.10059</ele>
        <time>2026-05-18T12:12:03+02:00</time>
      </trkpt>
      <trkpt lat="48.73124" lon="6.17315">
        <ele>191.7002</ele>
        <time>2026-05-18T12:12:04+02:00</time>
      </trkpt>
      <trkpt lat="48.73128" lon="6.17309">
        <ele>192.2998</ele>
        <time>2026-05-18T12:12:05+02:00</time>
      </trkpt>
      <trkpt lat="48.73132" lon="6.17304">
        <ele>191.7998</ele>
        <time>2026-05-18T12:12:06+02:00</time>
      </trkpt>
      <trkpt lat="48.73137" lon="6.17298">
        <ele>191.7998</ele>
        <time>2026-05-18T12:12:07+02:00</time>
      </trkpt>
      <trkpt lat="48.73141" lon="6.17292">
        <ele>191.90039</ele>
        <time>2026-05-18T12:12:08+02:00</time>
      </trkpt>
      <trkpt lat="48.73145" lon="6.17286">
        <ele>191.90039</ele>
        <time>2026-05-18T12:12:09+02:00</time>
      </trkpt>
      <trkpt lat="48.7315" lon="6.17281">
        <ele>192.40039</ele>
        <time>2026-05-18T12:12:10+02:00</time>
      </trkpt>
      <trkpt lat="48.73154" lon="6.17275">
        <ele>193</ele>
        <time>2026-05-18T12:12:11+02:00</time>
      </trkpt>
      <trkpt lat="48.73157" lon="6.17268">
        <ele>193.40039</ele>
        <time>2026-05-18T12:12:12+02:00</time>
      </trkpt>
      <trkpt lat="48.73161" lon="6.17262">
        <ele>193.40039</ele>
        <time>2026-05-18T12:12:13+02:00</time>
      </trkpt>
      <trkpt lat="48.73165" lon="6.17256">
        <ele>193.7002</ele>
        <time>2026-05-18T12:12:14+02:00</time>
      </trkpt>
      <trkpt lat="48.73168" lon="6.1725">
        <ele>193.7998</ele>
        <time>2026-05-18T12:12:15+02:00</time>
      </trkpt>
      <trkpt lat="48.73172" lon="6.17244">
        <ele>193.7998</ele>
        <time>2026-05-18T12:12:16+02:00</time>
      </trkpt>
      <trkpt lat="48.73176" lon="6.17239">
        <ele>193.90039</ele>
        <time>2026-05-18T12:12:17+02:00</time>
      </trkpt>
      <trkpt lat="48.7318" lon="6.17234">
        <ele>194.10059</ele>
        <time>2026-05-18T12:12:18+02:00</time>
      </trkpt>
      <trkpt lat="48.73184" lon="6.17228">
        <ele>194.10059</ele>
        <time>2026-05-18T12:12:19+02:00</time>
      </trkpt>
      <trkpt lat="48.73187" lon="6.17222">
        <ele>194.10059</ele>
        <time>2026-05-18T12:12:20+02:00</time>
      </trkpt>
      <trkpt lat="48.73191" lon="6.17216">
        <ele>194.10059</ele>
        <time>2026-05-18T12:12:21+02:00</time>
      </trkpt>
      <trkpt lat="48.73195" lon="6.17211">
        <ele>194.10059</ele>
        <time>2026-05-18T12:12:22+02:00</time>
      </trkpt>
      <trkpt lat="48.73198" lon="6.17205">
        <ele>194.2998</ele>
        <time>2026-05-18T12:12:23+02:00</time>
      </trkpt>
      <trkpt lat="48.732" lon="6.17202">
        <ele>194.2998</ele>
        <time>2026-05-18T12:12:24+02:00</time>
      </trkpt>
      <trkpt lat="48.73205" lon="6.17193">
        <ele>194.60059</ele>
        <time>2026-05-18T12:12:25+02:00</time>
      </trkpt>
      <trkpt lat="48.73209" lon="6.17187">
        <ele>195.10059</ele>
        <time>2026-05-18T12:12:26+02:00</time>
      </trkpt>
      <trkpt lat="48.73212" lon="6.17182">
        <ele>195.7002</ele>
        <time>2026-05-18T12:12:27+02:00</time>
      </trkpt>
      <trkpt lat="48.73216" lon="6.17176">
        <ele>195.5</ele>
        <time>2026-05-18T12:12:28+02:00</time>
      </trkpt>
      <trkpt lat="48.73219" lon="6.1717">
        <ele>196</ele>
        <time>2026-05-18T12:12:29+02:00</time>
      </trkpt>
      <trkpt lat="48.73223" lon="6.17165">
        <ele>196</ele>
        <time>2026-05-18T12:12:30+02:00</time>
      </trkpt>
      <trkpt lat="48.73227" lon="6.17159">
        <ele>195.7002</ele>
        <time>2026-05-18T12:12:31+02:00</time>
      </trkpt>
      <trkpt lat="48.7323" lon="6.17153">
        <ele>196</ele>
        <time>2026-05-18T12:12:32+02:00</time>
      </trkpt>
      <trkpt lat="48.73234" lon="6.17148">
        <ele>196.2002</ele>
        <time>2026-05-18T12:12:33+02:00</time>
      </trkpt>
      <trkpt lat="48.73237" lon="6.17142">
        <ele>196</ele>
        <time>2026-05-18T12:12:34+02:00</time>
      </trkpt>
      <trkpt lat="48.73239" lon="6.1714">
        <ele>196</ele>
        <time>2026-05-18T12:12:35+02:00</time>
      </trkpt>
      <trkpt lat="48.73245" lon="6.17131">
        <ele>196.10059</ele>
        <time>2026-05-18T12:12:36+02:00</time>
      </trkpt>
      <trkpt lat="48.73248" lon="6.17126">
        <ele>195.7998</ele>
        <time>2026-05-18T12:12:37+02:00</time>
      </trkpt>
      <trkpt lat="48.73253" lon="6.17122">
        <ele>196.2002</ele>
        <time>2026-05-18T12:12:38+02:00</time>
      </trkpt>
      <trkpt lat="48.73257" lon="6.17118">
        <ele>196</ele>
        <time>2026-05-18T12:12:39+02:00</time>
      </trkpt>
      <trkpt lat="48.73262" lon="6.17114">
        <ele>196.40039</ele>
        <time>2026-05-18T12:12:40+02:00</time>
      </trkpt>
      <trkpt lat="48.73266" lon="6.1711">
        <ele>196.40039</ele>
        <time>2026-05-18T12:12:41+02:00</time>
      </trkpt>
      <trkpt lat="48.73271" lon="6.17107">
        <ele>196.40039</ele>
        <time>2026-05-18T12:12:42+02:00</time>
      </trkpt>
      <trkpt lat="48.73276" lon="6.17104">
        <ele>197.2002</ele>
        <time>2026-05-18T12:12:43+02:00</time>
      </trkpt>
      <trkpt lat="48.7328" lon="6.17101">
        <ele>197.2002</ele>
        <time>2026-05-18T12:12:44+02:00</time>
      </trkpt>
      <trkpt lat="48.73285" lon="6.17098">
        <ele>197</ele>
        <time>2026-05-18T12:12:45+02:00</time>
      </trkpt>
      <trkpt lat="48.7329" lon="6.17095">
        <ele>197</ele>
        <time>2026-05-18T12:12:46+02:00</time>
      </trkpt>
      <trkpt lat="48.73295" lon="6.17092">
        <ele>196.2998</ele>
        <time>2026-05-18T12:12:47+02:00</time>
      </trkpt>
      <trkpt lat="48.73299" lon="6.17089">
        <ele>195.60059</ele>
        <time>2026-05-18T12:12:48+02:00</time>
      </trkpt>
      <trkpt lat="48.73304" lon="6.17086">
        <ele>196.2998</ele>
        <time>2026-05-18T12:12:49+02:00</time>
      </trkpt>
      <trkpt lat="48.73308" lon="6.17083">
        <ele>196</ele>
        <time>2026-05-18T12:12:50+02:00</time>
      </trkpt>
      <trkpt lat="48.73313" lon="6.1708">
        <ele>195.90039</ele>
        <time>2026-05-18T12:12:51+02:00</time>
      </trkpt>
      <trkpt lat="48.73317" lon="6.17077">
        <ele>196.7998</ele>
        <time>2026-05-18T12:12:52+02:00</time>
      </trkpt>
      <trkpt lat="48.73322" lon="6.17074">
        <ele>196.60059</ele>
        <time>2026-05-18T12:12:53+02:00</time>
      </trkpt>
      <trkpt lat="48.73327" lon="6.17071">
        <ele>197.2998</ele>
        <time>2026-05-18T12:12:54+02:00</time>
      </trkpt>
      <trkpt lat="48.73332" lon="6.17068">
        <ele>197.2998</ele>
        <time>2026-05-18T12:12:55+02:00</time>
      </trkpt>
      <trkpt lat="48.73337" lon="6.17065">
        <ele>196.7998</ele>
        <time>2026-05-18T12:12:56+02:00</time>
      </trkpt>
      <trkpt lat="48.73341" lon="6.17062">
        <ele>197</ele>
        <time>2026-05-18T12:12:57+02:00</time>
      </trkpt>
      <trkpt lat="48.73346" lon="6.17059">
        <ele>196.5</ele>
        <time>2026-05-18T12:12:58+02:00</time>
      </trkpt>
      <trkpt lat="48.73351" lon="6.17056">
        <ele>196.10059</ele>
        <time>2026-05-18T12:12:59+02:00</time>
      </trkpt>
      <trkpt lat="48.73356" lon="6.17053">
        <ele>196.7998</ele>
        <time>2026-05-18T12:13:00+02:00</time>
      </trkpt>
      <trkpt lat="48.73363" lon="6.17048">
        <ele>196.5</ele>
        <time>2026-05-18T12:13:01+02:00</time>
      </trkpt>
      <trkpt lat="48.73366" lon="6.17047">
        <ele>196.5</ele>
        <time>2026-05-18T12:13:02+02:00</time>
      </trkpt>
      <trkpt lat="48.73371" lon="6.17044">
        <ele>197.2002</ele>
        <time>2026-05-18T12:13:03+02:00</time>
      </trkpt>
      <trkpt lat="48.73376" lon="6.17041">
        <ele>196.7998</ele>
        <time>2026-05-18T12:13:04+02:00</time>
      </trkpt>
      <trkpt lat="48.73381" lon="6.17038">
        <ele>196.2002</ele>
        <time>2026-05-18T12:13:05+02:00</time>
      </trkpt>
      <trkpt lat="48.73386" lon="6.17035">
        <ele>196.40039</ele>
        <time>2026-05-18T12:13:06+02:00</time>
      </trkpt>
      <trkpt lat="48.73391" lon="6.17031">
        <ele>195.7002</ele>
        <time>2026-05-18T12:13:07+02:00</time>
      </trkpt>
      <trkpt lat="48.73395" lon="6.17028">
        <ele>196.10059</ele>
        <time>2026-05-18T12:13:08+02:00</time>
      </trkpt>
      <trkpt lat="48.73398" lon="6.17027">
        <ele>196.10059</ele>
        <time>2026-05-18T12:13:09+02:00</time>
      </trkpt>
      <trkpt lat="48.73405" lon="6.17022">
        <ele>195.5</ele>
        <time>2026-05-18T12:13:10+02:00</time>
      </trkpt>
      <trkpt lat="48.7341" lon="6.1702">
        <ele>194.90039</ele>
        <time>2026-05-18T12:13:11+02:00</time>
      </trkpt>
      <trkpt lat="48.73415" lon="6.17017">
        <ele>195.7998</ele>
        <time>2026-05-18T12:13:12+02:00</time>
      </trkpt>
      <trkpt lat="48.73419" lon="6.17014">
        <ele>195.2998</ele>
        <time>2026-05-18T12:13:13+02:00</time>
      </trkpt>
      <trkpt lat="48.73424" lon="6.17012">
        <ele>194.90039</ele>
        <time>2026-05-18T12:13:14+02:00</time>
      </trkpt>
      <trkpt lat="48.73429" lon="6.1701">
        <ele>195.7998</ele>
        <time>2026-05-18T12:13:15+02:00</time>
      </trkpt>
      <trkpt lat="48.73435" lon="6.17009">
        <ele>195.60059</ele>
        <time>2026-05-18T12:13:16+02:00</time>
      </trkpt>
      <trkpt lat="48.7344" lon="6.17008">
        <ele>195.40039</ele>
        <time>2026-05-18T12:13:17+02:00</time>
      </trkpt>
      <trkpt lat="48.73446" lon="6.17008">
        <ele>195.2998</ele>
        <time>2026-05-18T12:13:18+02:00</time>
      </trkpt>
      <trkpt lat="48.73451" lon="6.17008">
        <ele>195.2998</ele>
        <time>2026-05-18T12:13:19+02:00</time>
      </trkpt>
      <trkpt lat="48.73461" lon="6.17008">
        <ele>195</ele>
        <time>2026-05-18T12:13:20+02:00</time>
      </trkpt>
      <trkpt lat="48.73464" lon="6.17008">
        <ele>194.7998</ele>
        <time>2026-05-18T12:13:21+02:00</time>
      </trkpt>
      <trkpt lat="48.7347" lon="6.17008">
        <ele>194.7002</ele>
        <time>2026-05-18T12:13:22+02:00</time>
      </trkpt>
      <trkpt lat="48.73476" lon="6.17009">
        <ele>194.60059</ele>
        <time>2026-05-18T12:13:23+02:00</time>
      </trkpt>
      <trkpt lat="48.73482" lon="6.17009">
        <ele>194.40039</ele>
        <time>2026-05-18T12:13:24+02:00</time>
      </trkpt>
      <trkpt lat="48.73488" lon="6.17009">
        <ele>194.2998</ele>
        <time>2026-05-18T12:13:25+02:00</time>
      </trkpt>
      <trkpt lat="48.73494" lon="6.17009">
        <ele>194.2002</ele>
        <time>2026-05-18T12:13:26+02:00</time>
      </trkpt>
      <trkpt lat="48.73499" lon="6.1701">
        <ele>194.10059</ele>
        <time>2026-05-18T12:13:27+02:00</time>
      </trkpt>
      <trkpt lat="48.73506" lon="6.17011">
        <ele>194.10059</ele>
        <time>2026-05-18T12:13:28+02:00</time>
      </trkpt>
      <trkpt lat="48.73512" lon="6.17013">
        <ele>192.7998</ele>
        <time>2026-05-18T12:13:29+02:00</time>
      </trkpt>
      <trkpt lat="48.73519" lon="6.17015">
        <ele>192.7002</ele>
        <time>2026-05-18T12:13:30+02:00</time>
      </trkpt>
      <trkpt lat="48.73525" lon="6.17018">
        <ele>192.60059</ele>
        <time>2026-05-18T12:13:31+02:00</time>
      </trkpt>
      <trkpt lat="48.73531" lon="6.17021">
        <ele>191.2002</ele>
        <time>2026-05-18T12:13:32+02:00</time>
      </trkpt>
      <trkpt lat="48.73537" lon="6.17024">
        <ele>191.10059</ele>
        <time>2026-05-18T12:13:33+02:00</time>
      </trkpt>
      <trkpt lat="48.73543" lon="6.17027">
        <ele>191</ele>
        <time>2026-05-18T12:13:34+02:00</time>
      </trkpt>
      <trkpt lat="48.73549" lon="6.17029">
        <ele>189.90039</ele>
        <time>2026-05-18T12:13:35+02:00</time>
      </trkpt>
      <trkpt lat="48.73556" lon="6.17032">
        <ele>189.7998</ele>
        <time>2026-05-18T12:13:36+02:00</time>
      </trkpt>
      <trkpt lat="48.73563" lon="6.17034">
        <ele>189.7998</ele>
        <time>2026-05-18T12:13:37+02:00</time>
      </trkpt>
      <trkpt lat="48.73569" lon="6.17038">
        <ele>189.2998</ele>
        <time>2026-05-18T12:13:38+02:00</time>
      </trkpt>
      <trkpt lat="48.73575" lon="6.17041">
        <ele>189.2998</ele>
        <time>2026-05-18T12:13:39+02:00</time>
      </trkpt>
      <trkpt lat="48.73581" lon="6.17044">
        <ele>189.2002</ele>
        <time>2026-05-18T12:13:40+02:00</time>
      </trkpt>
      <trkpt lat="48.73588" lon="6.17048">
        <ele>188.90039</ele>
        <time>2026-05-18T12:13:41+02:00</time>
      </trkpt>
      <trkpt lat="48.73594" lon="6.17051">
        <ele>189.10059</ele>
        <time>2026-05-18T12:13:42+02:00</time>
      </trkpt>
      <trkpt lat="48.736" lon="6.17054">
        <ele>189.5</ele>
        <time>2026-05-18T12:13:43+02:00</time>
      </trkpt>
      <trkpt lat="48.73607" lon="6.17058">
        <ele>189.7002</ele>
        <time>2026-05-18T12:13:44+02:00</time>
      </trkpt>
      <trkpt lat="48.73617" lon="6.17062">
        <ele>190.10059</ele>
        <time>2026-05-18T12:13:45+02:00</time>
      </trkpt>
      <trkpt lat="48.73617" lon="6.17062">
        <ele>190.10059</ele>
        <time>2026-05-18T12:13:46+02:00</time>
      </trkpt>
      <trkpt lat="48.73626" lon="6.17067">
        <ele>189.40039</ele>
        <time>2026-05-18T12:13:47+02:00</time>
      </trkpt>
      <trkpt lat="48.73633" lon="6.1707">
        <ele>189.2998</ele>
        <time>2026-05-18T12:13:48+02:00</time>
      </trkpt>
      <trkpt lat="48.73639" lon="6.17074">
        <ele>189.10059</ele>
        <time>2026-05-18T12:13:49+02:00</time>
      </trkpt>
      <trkpt lat="48.73645" lon="6.17077">
        <ele>189.5</ele>
        <time>2026-05-18T12:13:50+02:00</time>
      </trkpt>
      <trkpt lat="48.73651" lon="6.1708">
        <ele>189.7998</ele>
        <time>2026-05-18T12:13:51+02:00</time>
      </trkpt>
      <trkpt lat="48.73657" lon="6.17084">
        <ele>190.2002</ele>
        <time>2026-05-18T12:13:52+02:00</time>
      </trkpt>
      <trkpt lat="48.7366" lon="6.17086">
        <ele>190.2002</ele>
        <time>2026-05-18T12:13:53+02:00</time>
      </trkpt>
      <trkpt lat="48.73668" lon="6.17092">
        <ele>189.60059</ele>
        <time>2026-05-18T12:13:54+02:00</time>
      </trkpt>
      <trkpt lat="48.73674" lon="6.17096">
        <ele>189.5</ele>
        <time>2026-05-18T12:13:55+02:00</time>
      </trkpt>
      <trkpt lat="48.7368" lon="6.171">
        <ele>189</ele>
        <time>2026-05-18T12:13:56+02:00</time>
      </trkpt>
      <trkpt lat="48.73686" lon="6.17105">
        <ele>189.2998</ele>
        <time>2026-05-18T12:13:57+02:00</time>
      </trkpt>
      <trkpt lat="48.73691" lon="6.17109">
        <ele>189.40039</ele>
        <time>2026-05-18T12:13:58+02:00</time>
      </trkpt>
      <trkpt lat="48.73695" lon="6.17114">
        <ele>190.10059</ele>
        <time>2026-05-18T12:13:59+02:00</time>
      </trkpt>
      <trkpt lat="48.737" lon="6.17119">
        <ele>189.5</ele>
        <time>2026-05-18T12:14:00+02:00</time>
      </trkpt>
      <trkpt lat="48.73705" lon="6.17123">
        <ele>189.2002</ele>
        <time>2026-05-18T12:14:01+02:00</time>
      </trkpt>
      <trkpt lat="48.7371" lon="6.17128">
        <ele>189.5</ele>
        <time>2026-05-18T12:14:02+02:00</time>
      </trkpt>
      <trkpt lat="48.73716" lon="6.17133">
        <ele>189.7002</ele>
        <time>2026-05-18T12:14:03+02:00</time>
      </trkpt>
      <trkpt lat="48.73721" lon="6.17138">
        <ele>190.7002</ele>
        <time>2026-05-18T12:14:04+02:00</time>
      </trkpt>
      <trkpt lat="48.73726" lon="6.17144">
        <ele>190.7002</ele>
        <time>2026-05-18T12:14:05+02:00</time>
      </trkpt>
      <trkpt lat="48.73731" lon="6.17149">
        <ele>190.10059</ele>
        <time>2026-05-18T12:14:06+02:00</time>
      </trkpt>
      <trkpt lat="48.73737" lon="6.17154">
        <ele>190.7998</ele>
        <time>2026-05-18T12:14:07+02:00</time>
      </trkpt>
      <trkpt lat="48.73742" lon="6.17159">
        <ele>190.60059</ele>
        <time>2026-05-18T12:14:08+02:00</time>
      </trkpt>
      <trkpt lat="48.7375" lon="6.17167">
        <ele>191</ele>
        <time>2026-05-18T12:14:09+02:00</time>
      </trkpt>
      <trkpt lat="48.7375" lon="6.17167">
        <ele>191</ele>
        <time>2026-05-18T12:14:10+02:00</time>
      </trkpt>
      <trkpt lat="48.73758" lon="6.17175">
        <ele>190.7998</ele>
        <time>2026-05-18T12:14:11+02:00</time>
      </trkpt>
      <trkpt lat="48.73763" lon="6.1718">
        <ele>190.90039</ele>
        <time>2026-05-18T12:14:12+02:00</time>
      </trkpt>
      <trkpt lat="48.73769" lon="6.17186">
        <ele>189.5</ele>
        <time>2026-05-18T12:14:13+02:00</time>
      </trkpt>
      <trkpt lat="48.73774" lon="6.17191">
        <ele>189.7002</ele>
        <time>2026-05-18T12:14:14+02:00</time>
      </trkpt>
      <trkpt lat="48.73779" lon="6.17197">
        <ele>189.10059</ele>
        <time>2026-05-18T12:14:15+02:00</time>
      </trkpt>
      <trkpt lat="48.73784" lon="6.17203">
        <ele>189.2002</ele>
        <time>2026-05-18T12:14:16+02:00</time>
      </trkpt>
      <trkpt lat="48.73789" lon="6.17208">
        <ele>189.7998</ele>
        <time>2026-05-18T12:14:17+02:00</time>
      </trkpt>
      <trkpt lat="48.73794" lon="6.17214">
        <ele>189.7002</ele>
        <time>2026-05-18T12:14:18+02:00</time>
      </trkpt>
      <trkpt lat="48.73799" lon="6.1722">
        <ele>189.40039</ele>
        <time>2026-05-18T12:14:19+02:00</time>
      </trkpt>
      <trkpt lat="48.73804" lon="6.17226">
        <ele>189.40039</ele>
        <time>2026-05-18T12:14:20+02:00</time>
      </trkpt>
      <trkpt lat="48.73809" lon="6.17232">
        <ele>190.10059</ele>
        <time>2026-05-18T12:14:21+02:00</time>
      </trkpt>
      <trkpt lat="48.73813" lon="6.17239">
        <ele>189.60059</ele>
        <time>2026-05-18T12:14:22+02:00</time>
      </trkpt>
      <trkpt lat="48.73818" lon="6.17245">
        <ele>189.5</ele>
        <time>2026-05-18T12:14:23+02:00</time>
      </trkpt>
      <trkpt lat="48.73823" lon="6.17251">
        <ele>189.90039</ele>
        <time>2026-05-18T12:14:24+02:00</time>
      </trkpt>
      <trkpt lat="48.73827" lon="6.17258">
        <ele>189.5</ele>
        <time>2026-05-18T12:14:25+02:00</time>
      </trkpt>
      <trkpt lat="48.73832" lon="6.17264">
        <ele>190</ele>
        <time>2026-05-18T12:14:26+02:00</time>
      </trkpt>
      <trkpt lat="48.73837" lon="6.17271">
        <ele>190</ele>
        <time>2026-05-18T12:14:27+02:00</time>
      </trkpt>
      <trkpt lat="48.73842" lon="6.17277">
        <ele>190.7002</ele>
        <time>2026-05-18T12:14:28+02:00</time>
      </trkpt>
      <trkpt lat="48.73847" lon="6.17284">
        <ele>189.60059</ele>
        <time>2026-05-18T12:14:29+02:00</time>
      </trkpt>
      <trkpt lat="48.73851" lon="6.1729">
        <ele>189.40039</ele>
        <time>2026-05-18T12:14:30+02:00</time>
      </trkpt>
      <trkpt lat="48.73854" lon="6.17293">
        <ele>190.10059</ele>
        <time>2026-05-18T12:14:31+02:00</time>
      </trkpt>
      <trkpt lat="48.73861" lon="6.17303">
        <ele>189.7002</ele>
        <time>2026-05-18T12:14:32+02:00</time>
      </trkpt>
      <trkpt lat="48.73866" lon="6.17309">
        <ele>190.2998</ele>
        <time>2026-05-18T12:14:33+02:00</time>
      </trkpt>
      <trkpt lat="48.73871" lon="6.17315">
        <ele>189.7998</ele>
        <time>2026-05-18T12:14:34+02:00</time>
      </trkpt>
      <trkpt lat="48.73876" lon="6.17322">
        <ele>189.7998</ele>
        <time>2026-05-18T12:14:35+02:00</time>
      </trkpt>
      <trkpt lat="48.7388" lon="6.17329">
        <ele>189.60059</ele>
        <time>2026-05-18T12:14:36+02:00</time>
      </trkpt>
      <trkpt lat="48.73885" lon="6.17335">
        <ele>190.2998</ele>
        <time>2026-05-18T12:14:37+02:00</time>
      </trkpt>
      <trkpt lat="48.7389" lon="6.17341">
        <ele>189.90039</ele>
        <time>2026-05-18T12:14:38+02:00</time>
      </trkpt>
      <trkpt lat="48.73895" lon="6.17348">
        <ele>189.5</ele>
        <time>2026-05-18T12:14:39+02:00</time>
      </trkpt>
      <trkpt lat="48.73902" lon="6.17357">
        <ele>189.5</ele>
        <time>2026-05-18T12:14:40+02:00</time>
      </trkpt>
      <trkpt lat="48.73902" lon="6.17357">
        <ele>189.5</ele>
        <time>2026-05-18T12:14:41+02:00</time>
      </trkpt>
      <trkpt lat="48.7391" lon="6.17366">
        <ele>190.5</ele>
        <time>2026-05-18T12:14:42+02:00</time>
      </trkpt>
      <trkpt lat="48.73914" lon="6.17372">
        <ele>189.60059</ele>
        <time>2026-05-18T12:14:43+02:00</time>
      </trkpt>
      <trkpt lat="48.73919" lon="6.17378">
        <ele>190</ele>
        <time>2026-05-18T12:14:44+02:00</time>
      </trkpt>
      <trkpt lat="48.73924" lon="6.17385">
        <ele>189.7002</ele>
        <time>2026-05-18T12:14:45+02:00</time>
      </trkpt>
      <trkpt lat="48.73929" lon="6.17391">
        <ele>190.2002</ele>
        <time>2026-05-18T12:14:46+02:00</time>
      </trkpt>
      <trkpt lat="48.73934" lon="6.17398">
        <ele>190.2002</ele>
        <time>2026-05-18T12:14:47+02:00</time>
      </trkpt>
      <trkpt lat="48.73939" lon="6.17404">
        <ele>190.90039</ele>
        <time>2026-05-18T12:14:48+02:00</time>
      </trkpt>
      <trkpt lat="48.73943" lon="6.1741">
        <ele>189.7002</ele>
        <time>2026-05-18T12:14:49+02:00</time>
      </trkpt>
      <trkpt lat="48.73948" lon="6.17417">
        <ele>189.5</ele>
        <time>2026-05-18T12:14:50+02:00</time>
      </trkpt>
      <trkpt lat="48.73954" lon="6.17423">
        <ele>190.40039</ele>
        <time>2026-05-18T12:14:51+02:00</time>
      </trkpt>
      <trkpt lat="48.73959" lon="6.1743">
        <ele>191</ele>
        <time>2026-05-18T12:14:52+02:00</time>
      </trkpt>
      <trkpt lat="48.73964" lon="6.17437">
        <ele>190.5</ele>
        <time>2026-05-18T12:14:53+02:00</time>
      </trkpt>
      <trkpt lat="48.73969" lon="6.17443">
        <ele>189.90039</ele>
        <time>2026-05-18T12:14:54+02:00</time>
      </trkpt>
      <trkpt lat="48.73974" lon="6.1745">
        <ele>190.10059</ele>
        <time>2026-05-18T12:14:55+02:00</time>
      </trkpt>
      <trkpt lat="48.73981" lon="6.1746">
        <ele>190.5</ele>
        <time>2026-05-18T12:14:56+02:00</time>
      </trkpt>
      <trkpt lat="48.73981" lon="6.1746">
        <ele>190.5</ele>
        <time>2026-05-18T12:14:57+02:00</time>
      </trkpt>
      <trkpt lat="48.73989" lon="6.1747">
        <ele>190.7002</ele>
        <time>2026-05-18T12:14:58+02:00</time>
      </trkpt>
      <trkpt lat="48.73994" lon="6.17476">
        <ele>189.60059</ele>
        <time>2026-05-18T12:14:59+02:00</time>
      </trkpt>
      <trkpt lat="48.74015" lon="6.17501">
        <ele>190</ele>
        <time>2026-05-18T12:15:00+02:00</time>
      </trkpt>
      <trkpt lat="48.74021" lon="6.17507">
        <ele>190</ele>
        <time>2026-05-18T12:15:01+02:00</time>
      </trkpt>
      <trkpt lat="48.74025" lon="6.17513">
        <ele>189.2002</ele>
        <time>2026-05-18T12:15:02+02:00</time>
      </trkpt>
      <trkpt lat="48.74031" lon="6.17519">
        <ele>188.90039</ele>
        <time>2026-05-18T12:15:03+02:00</time>
      </trkpt>
      <trkpt lat="48.74036" lon="6.17525">
        <ele>189.10059</ele>
        <time>2026-05-18T12:15:04+02:00</time>
      </trkpt>
      <trkpt lat="48.74041" lon="6.17531">
        <ele>189.2998</ele>
        <time>2026-05-18T12:15:05+02:00</time>
      </trkpt>
      <trkpt lat="48.74047" lon="6.17536">
        <ele>189.2998</ele>
        <time>2026-05-18T12:15:06+02:00</time>
      </trkpt>
      <trkpt lat="48.74052" lon="6.17542">
        <ele>189.40039</ele>
        <time>2026-05-18T12:15:07+02:00</time>
      </trkpt>
      <trkpt lat="48.74057" lon="6.17548">
        <ele>189.2998</ele>
        <time>2026-05-18T12:15:08+02:00</time>
      </trkpt>
      <trkpt lat="48.74062" lon="6.17553">
        <ele>189.10059</ele>
        <time>2026-05-18T12:15:09+02:00</time>
      </trkpt>
      <trkpt lat="48.74067" lon="6.17559">
        <ele>189.40039</ele>
        <time>2026-05-18T12:15:10+02:00</time>
      </trkpt>
      <trkpt lat="48.74072" lon="6.17565">
        <ele>189.5</ele>
        <time>2026-05-18T12:15:11+02:00</time>
      </trkpt>
      <trkpt lat="48.74077" lon="6.17571">
        <ele>189.2998</ele>
        <time>2026-05-18T12:15:12+02:00</time>
      </trkpt>
      <trkpt lat="48.74082" lon="6.17576">
        <ele>189.5</ele>
        <time>2026-05-18T12:15:13+02:00</time>
      </trkpt>
      <trkpt lat="48.74087" lon="6.17582">
        <ele>189.40039</ele>
        <time>2026-05-18T12:15:14+02:00</time>
      </trkpt>
      <trkpt lat="48.74095" lon="6.1759">
        <ele>189.7998</ele>
        <time>2026-05-18T12:15:15+02:00</time>
      </trkpt>
      <trkpt lat="48.74095" lon="6.1759">
        <ele>189.7998</ele>
        <time>2026-05-18T12:15:16+02:00</time>
      </trkpt>
      <trkpt lat="48.74101" lon="6.176">
        <ele>189.60059</ele>
        <time>2026-05-18T12:15:17+02:00</time>
      </trkpt>
      <trkpt lat="48.74106" lon="6.17606">
        <ele>189.2998</ele>
        <time>2026-05-18T12:15:18+02:00</time>
      </trkpt>
      <trkpt lat="48.7411" lon="6.17612">
        <ele>189.2998</ele>
        <time>2026-05-18T12:15:19+02:00</time>
      </trkpt>
      <trkpt lat="48.74115" lon="6.17618">
        <ele>189.7998</ele>
        <time>2026-05-18T12:15:20+02:00</time>
      </trkpt>
      <trkpt lat="48.74119" lon="6.17624">
        <ele>189.90039</ele>
        <time>2026-05-18T12:15:21+02:00</time>
      </trkpt>
      <trkpt lat="48.74123" lon="6.1763">
        <ele>189.40039</ele>
        <time>2026-05-18T12:15:22+02:00</time>
      </trkpt>
      <trkpt lat="48.74128" lon="6.17636">
        <ele>189.60059</ele>
        <time>2026-05-18T12:15:23+02:00</time>
      </trkpt>
      <trkpt lat="48.74132" lon="6.17643">
        <ele>189.40039</ele>
        <time>2026-05-18T12:15:24+02:00</time>
      </trkpt>
      <trkpt lat="48.74136" lon="6.17649">
        <ele>189.2998</ele>
        <time>2026-05-18T12:15:25+02:00</time>
      </trkpt>
      <trkpt lat="48.74141" lon="6.17656">
        <ele>189.40039</ele>
        <time>2026-05-18T12:15:26+02:00</time>
      </trkpt>
      <trkpt lat="48.74145" lon="6.17662">
        <ele>189.60059</ele>
        <time>2026-05-18T12:15:27+02:00</time>
      </trkpt>
      <trkpt lat="48.7415" lon="6.17669">
        <ele>189.40039</ele>
        <time>2026-05-18T12:15:28+02:00</time>
      </trkpt>
      <trkpt lat="48.74154" lon="6.17675">
        <ele>189.40039</ele>
        <time>2026-05-18T12:15:29+02:00</time>
      </trkpt>
      <trkpt lat="48.74158" lon="6.17681">
        <ele>189.2998</ele>
        <time>2026-05-18T12:15:30+02:00</time>
      </trkpt>
      <trkpt lat="48.74162" lon="6.17688">
        <ele>189.5</ele>
        <time>2026-05-18T12:15:31+02:00</time>
      </trkpt>
      <trkpt lat="48.74166" lon="6.17695">
        <ele>189.5</ele>
        <time>2026-05-18T12:15:32+02:00</time>
      </trkpt>
      <trkpt lat="48.74171" lon="6.17701">
        <ele>189.2998</ele>
        <time>2026-05-18T12:15:33+02:00</time>
      </trkpt>
      <trkpt lat="48.74175" lon="6.17709">
        <ele>189.2002</ele>
        <time>2026-05-18T12:15:34+02:00</time>
      </trkpt>
      <trkpt lat="48.7418" lon="6.17715">
        <ele>189.2002</ele>
        <time>2026-05-18T12:15:35+02:00</time>
      </trkpt>
      <trkpt lat="48.74185" lon="6.17722">
        <ele>189.40039</ele>
        <time>2026-05-18T12:15:36+02:00</time>
      </trkpt>
      <trkpt lat="48.74189" lon="6.17729">
        <ele>189.40039</ele>
        <time>2026-05-18T12:15:37+02:00</time>
      </trkpt>
      <trkpt lat="48.74196" lon="6.17738">
        <ele>189.2998</ele>
        <time>2026-05-18T12:15:38+02:00</time>
      </trkpt>
      <trkpt lat="48.74198" lon="6.17742">
        <ele>189.10059</ele>
        <time>2026-05-18T12:15:39+02:00</time>
      </trkpt>
      <trkpt lat="48.74203" lon="6.17748">
        <ele>189.2002</ele>
        <time>2026-05-18T12:15:40+02:00</time>
      </trkpt>
      <trkpt lat="48.74208" lon="6.17755">
        <ele>189.2998</ele>
        <time>2026-05-18T12:15:41+02:00</time>
      </trkpt>
      <trkpt lat="48.74213" lon="6.17762">
        <ele>189.40039</ele>
        <time>2026-05-18T12:15:42+02:00</time>
      </trkpt>
      <trkpt lat="48.74218" lon="6.17769">
        <ele>189.2002</ele>
        <time>2026-05-18T12:15:43+02:00</time>
      </trkpt>
      <trkpt lat="48.74223" lon="6.17776">
        <ele>189.2002</ele>
        <time>2026-05-18T12:15:44+02:00</time>
      </trkpt>
      <trkpt lat="48.74227" lon="6.17784">
        <ele>189.2998</ele>
        <time>2026-05-18T12:15:45+02:00</time>
      </trkpt>
      <trkpt lat="48.74232" lon="6.17791">
        <ele>189.2998</ele>
        <time>2026-05-18T12:15:46+02:00</time>
      </trkpt>
      <trkpt lat="48.74237" lon="6.17798">
        <ele>189.40039</ele>
        <time>2026-05-18T12:15:47+02:00</time>
      </trkpt>
      <trkpt lat="48.74242" lon="6.17805">
        <ele>189.2998</ele>
        <time>2026-05-18T12:15:48+02:00</time>
      </trkpt>
      <trkpt lat="48.74247" lon="6.17812">
        <ele>189.2002</ele>
        <time>2026-05-18T12:15:49+02:00</time>
      </trkpt>
      <trkpt lat="48.74252" lon="6.17819">
        <ele>189.2998</ele>
        <time>2026-05-18T12:15:50+02:00</time>
      </trkpt>
      <trkpt lat="48.74256" lon="6.17825">
        <ele>189.40039</ele>
        <time>2026-05-18T12:15:51+02:00</time>
      </trkpt>
      <trkpt lat="48.74261" lon="6.17832">
        <ele>189.40039</ele>
        <time>2026-05-18T12:15:52+02:00</time>
      </trkpt>
      <trkpt lat="48.74266" lon="6.17838">
        <ele>189.2998</ele>
        <time>2026-05-18T12:15:53+02:00</time>
      </trkpt>
      <trkpt lat="48.7427" lon="6.17844">
        <ele>189.2998</ele>
        <time>2026-05-18T12:15:54+02:00</time>
      </trkpt>
      <trkpt lat="48.74278" lon="6.17853">
        <ele>189.40039</ele>
        <time>2026-05-18T12:15:55+02:00</time>
      </trkpt>
      <trkpt lat="48.74278" lon="6.17853">
        <ele>189.40039</ele>
        <time>2026-05-18T12:15:56+02:00</time>
      </trkpt>
      <trkpt lat="48.74284" lon="6.17861">
        <ele>189.40039</ele>
        <time>2026-05-18T12:15:57+02:00</time>
      </trkpt>
      <trkpt lat="48.74289" lon="6.17866">
        <ele>189.40039</ele>
        <time>2026-05-18T12:15:58+02:00</time>
      </trkpt>
      <trkpt lat="48.74293" lon="6.1787">
        <ele>189.2998</ele>
        <time>2026-05-18T12:15:59+02:00</time>
      </trkpt>
      <trkpt lat="48.74297" lon="6.17873">
        <ele>189.40039</ele>
        <time>2026-05-18T12:16:00+02:00</time>
      </trkpt>
      <trkpt lat="48.74299" lon="6.17875">
        <ele>189.40039</ele>
        <time>2026-05-18T12:16:01+02:00</time>
      </trkpt>
      <trkpt lat="48.74299" lon="6.17876">
        <ele>189.40039</ele>
        <time>2026-05-18T12:16:02+02:00</time>
      </trkpt>
      <trkpt lat="48.74299" lon="6.17876">
        <ele>189.40039</ele>
        <time>2026-05-18T12:16:03+02:00</time>
      </trkpt>
      <trkpt lat="48.74299" lon="6.17876">
        <ele>189.40039</ele>
        <time>2026-05-18T12:16:04+02:00</time>
      </trkpt>
      <trkpt lat="48.74299" lon="6.17876">
        <ele>189.40039</ele>
        <time>2026-05-18T12:16:05+02:00</time>
      </trkpt>
      <trkpt lat="48.74299" lon="6.17876">
        <ele>189.40039</ele>
        <time>2026-05-18T12:16:06+02:00</time>
      </trkpt>
      <trkpt lat="48.74289" lon="6.17869">
        <ele>189.40039</ele>
        <time>2026-05-18T12:16:14+02:00</time>
      </trkpt>
      <trkpt lat="48.74289" lon="6.17868">
        <ele>189.40039</ele>
        <time>2026-05-18T12:16:15+02:00</time>
      </trkpt>
      <trkpt lat="48.7429" lon="6.17867">
        <ele>189.40039</ele>
        <time>2026-05-18T12:16:16+02:00</time>
      </trkpt>
      <trkpt lat="48.7429" lon="6.17867">
        <ele>189.40039</ele>
        <time>2026-05-18T12:16:17+02:00</time>
      </trkpt>
      <trkpt lat="48.7429" lon="6.17867">
        <ele>189.40039</ele>
        <time>2026-05-18T12:16:18+02:00</time>
      </trkpt>
      <trkpt lat="48.7429" lon="6.17867">
        <ele>189.40039</ele>
        <time>2026-05-18T12:16:19+02:00</time>
      </trkpt>
      <trkpt lat="48.74302" lon="6.17868">
        <ele>189.5</ele>
        <time>2026-05-18T12:16:48+02:00</time>
      </trkpt>
      <trkpt lat="48.74305" lon="6.17869">
        <ele>189.5</ele>
        <time>2026-05-18T12:16:49+02:00</time>
      </trkpt>
      <trkpt lat="48.74309" lon="6.17869">
        <ele>189.7002</ele>
        <time>2026-05-18T12:16:50+02:00</time>
      </trkpt>
      <trkpt lat="48.74312" lon="6.17869">
        <ele>189.7998</ele>
        <time>2026-05-18T12:16:51+02:00</time>
      </trkpt>
      <trkpt lat="48.74316" lon="6.17869">
        <ele>189.7998</ele>
        <time>2026-05-18T12:16:52+02:00</time>
      </trkpt>
      <trkpt lat="48.7432" lon="6.17868">
        <ele>189.90039</ele>
        <time>2026-05-18T12:16:53+02:00</time>
      </trkpt>
      <trkpt lat="48.74325" lon="6.17867">
        <ele>189.90039</ele>
        <time>2026-05-18T12:16:54+02:00</time>
      </trkpt>
      <trkpt lat="48.74329" lon="6.17867">
        <ele>189.7998</ele>
        <time>2026-05-18T12:16:55+02:00</time>
      </trkpt>
      <trkpt lat="48.74334" lon="6.17866">
        <ele>189.7998</ele>
        <time>2026-05-18T12:16:56+02:00</time>
      </trkpt>
      <trkpt lat="48.74339" lon="6.17866">
        <ele>189.7998</ele>
        <time>2026-05-18T12:16:57+02:00</time>
      </trkpt>
      <trkpt lat="48.74347" lon="6.17866">
        <ele>189.7002</ele>
        <time>2026-05-18T12:16:58+02:00</time>
      </trkpt>
      <trkpt lat="48.74347" lon="6.17866">
        <ele>189.7002</ele>
        <time>2026-05-18T12:16:59+02:00</time>
      </trkpt>
      <trkpt lat="48.74354" lon="6.17867">
        <ele>189.60059</ele>
        <time>2026-05-18T12:17:00+02:00</time>
      </trkpt>
      <trkpt lat="48.74359" lon="6.17867">
        <ele>189.5</ele>
        <time>2026-05-18T12:17:01+02:00</time>
      </trkpt>
      <trkpt lat="48.74363" lon="6.17867">
        <ele>189.5</ele>
        <time>2026-05-18T12:17:02+02:00</time>
      </trkpt>
      <trkpt lat="48.74368" lon="6.17867">
        <ele>189.5</ele>
        <time>2026-05-18T12:17:03+02:00</time>
      </trkpt>
      <trkpt lat="48.74372" lon="6.17867">
        <ele>189.5</ele>
        <time>2026-05-18T12:17:04+02:00</time>
      </trkpt>
      <trkpt lat="48.74377" lon="6.17867">
        <ele>189.5</ele>
        <time>2026-05-18T12:17:05+02:00</time>
      </trkpt>
      <trkpt lat="48.74382" lon="6.17867">
        <ele>189.40039</ele>
        <time>2026-05-18T12:17:06+02:00</time>
      </trkpt>
      <trkpt lat="48.74386" lon="6.17866">
        <ele>189.40039</ele>
        <time>2026-05-18T12:17:07+02:00</time>
      </trkpt>
      <trkpt lat="48.74391" lon="6.17864">
        <ele>189.40039</ele>
        <time>2026-05-18T12:17:08+02:00</time>
      </trkpt>
      <trkpt lat="48.74396" lon="6.17861">
        <ele>189.40039</ele>
        <time>2026-05-18T12:17:09+02:00</time>
      </trkpt>
      <trkpt lat="48.744" lon="6.17858">
        <ele>189.40039</ele>
        <time>2026-05-18T12:17:10+02:00</time>
      </trkpt>
      <trkpt lat="48.74404" lon="6.17853">
        <ele>189.40039</ele>
        <time>2026-05-18T12:17:11+02:00</time>
      </trkpt>
      <trkpt lat="48.74408" lon="6.17847">
        <ele>189.40039</ele>
        <time>2026-05-18T12:17:12+02:00</time>
      </trkpt>
      <trkpt lat="48.74411" lon="6.17841">
        <ele>189.40039</ele>
        <time>2026-05-18T12:17:13+02:00</time>
      </trkpt>
      <trkpt lat="48.74414" lon="6.17835">
        <ele>189.40039</ele>
        <time>2026-05-18T12:17:14+02:00</time>
      </trkpt>
      <trkpt lat="48.74416" lon="6.17827">
        <ele>189.40039</ele>
        <time>2026-05-18T12:17:15+02:00</time>
      </trkpt>
      <trkpt lat="48.74417" lon="6.1782">
        <ele>189.40039</ele>
        <time>2026-05-18T12:17:16+02:00</time>
      </trkpt>
      <trkpt lat="48.74418" lon="6.17812">
        <ele>189.40039</ele>
        <time>2026-05-18T12:17:17+02:00</time>
      </trkpt>
      <trkpt lat="48.74419" lon="6.17804">
        <ele>189.40039</ele>
        <time>2026-05-18T12:17:18+02:00</time>
      </trkpt>
      <trkpt lat="48.7442" lon="6.17792">
        <ele>189.5</ele>
        <time>2026-05-18T12:17:19+02:00</time>
      </trkpt>
      <trkpt lat="48.7442" lon="6.17792">
        <ele>189.5</ele>
        <time>2026-05-18T12:17:20+02:00</time>
      </trkpt>
      <trkpt lat="48.74421" lon="6.1778">
        <ele>189.5</ele>
        <time>2026-05-18T12:17:21+02:00</time>
      </trkpt>
      <trkpt lat="48.74422" lon="6.17772">
        <ele>189.5</ele>
        <time>2026-05-18T12:17:22+02:00</time>
      </trkpt>
      <trkpt lat="48.74423" lon="6.17764">
        <ele>189.5</ele>
        <time>2026-05-18T12:17:23+02:00</time>
      </trkpt>
      <trkpt lat="48.74423" lon="6.17756">
        <ele>189.5</ele>
        <time>2026-05-18T12:17:24+02:00</time>
      </trkpt>
      <trkpt lat="48.74424" lon="6.17748">
        <ele>189.5</ele>
        <time>2026-05-18T12:17:25+02:00</time>
      </trkpt>
      <trkpt lat="48.74424" lon="6.1774">
        <ele>189.5</ele>
        <time>2026-05-18T12:17:26+02:00</time>
      </trkpt>
      <trkpt lat="48.74425" lon="6.17735">
        <ele>189.5</ele>
        <time>2026-05-18T12:17:27+02:00</time>
      </trkpt>
      <trkpt lat="48.74426" lon="6.17722">
        <ele>189.7002</ele>
        <time>2026-05-18T12:17:28+02:00</time>
      </trkpt>
      <trkpt lat="48.74426" lon="6.17713">
        <ele>189.90039</ele>
        <time>2026-05-18T12:17:29+02:00</time>
      </trkpt>
      <trkpt lat="48.74427" lon="6.17704">
        <ele>190.10059</ele>
        <time>2026-05-18T12:17:30+02:00</time>
      </trkpt>
      <trkpt lat="48.74428" lon="6.17695">
        <ele>190.2998</ele>
        <time>2026-05-18T12:17:31+02:00</time>
      </trkpt>
      <trkpt lat="48.74428" lon="6.17686">
        <ele>190.60059</ele>
        <time>2026-05-18T12:17:32+02:00</time>
      </trkpt>
      <trkpt lat="48.74429" lon="6.17677">
        <ele>190.7998</ele>
        <time>2026-05-18T12:17:33+02:00</time>
      </trkpt>
      <trkpt lat="48.7443" lon="6.17668">
        <ele>191.10059</ele>
        <time>2026-05-18T12:17:34+02:00</time>
      </trkpt>
      <trkpt lat="48.74431" lon="6.17659">
        <ele>191.2998</ele>
        <time>2026-05-18T12:17:35+02:00</time>
      </trkpt>
      <trkpt lat="48.74432" lon="6.1765">
        <ele>191.5</ele>
        <time>2026-05-18T12:17:36+02:00</time>
      </trkpt>
      <trkpt lat="48.74433" lon="6.17641">
        <ele>191.7002</ele>
        <time>2026-05-18T12:17:37+02:00</time>
      </trkpt>
      <trkpt lat="48.74434" lon="6.17632">
        <ele>191.90039</ele>
        <time>2026-05-18T12:17:38+02:00</time>
      </trkpt>
      <trkpt lat="48.74436" lon="6.17622">
        <ele>191.90039</ele>
        <time>2026-05-18T12:17:39+02:00</time>
      </trkpt>
      <trkpt lat="48.74436" lon="6.17614">
        <ele>192.10059</ele>
        <time>2026-05-18T12:17:40+02:00</time>
      </trkpt>
      <trkpt lat="48.74438" lon="6.17605">
        <ele>192.2002</ele>
        <time>2026-05-18T12:17:41+02:00</time>
      </trkpt>
      <trkpt lat="48.74439" lon="6.17596">
        <ele>192.40039</ele>
        <time>2026-05-18T12:17:42+02:00</time>
      </trkpt>
      <trkpt lat="48.74441" lon="6.17588">
        <ele>192.5</ele>
        <time>2026-05-18T12:17:43+02:00</time>
      </trkpt>
      <trkpt lat="48.74442" lon="6.17579">
        <ele>192.2998</ele>
        <time>2026-05-18T12:17:44+02:00</time>
      </trkpt>
      <trkpt lat="48.74443" lon="6.1757">
        <ele>192.40039</ele>
        <time>2026-05-18T12:17:45+02:00</time>
      </trkpt>
      <trkpt lat="48.74445" lon="6.17562">
        <ele>192.5</ele>
        <time>2026-05-18T12:17:46+02:00</time>
      </trkpt>
      <trkpt lat="48.74446" lon="6.17554">
        <ele>192.5</ele>
        <time>2026-05-18T12:17:47+02:00</time>
      </trkpt>
      <trkpt lat="48.74448" lon="6.17545">
        <ele>192</ele>
        <time>2026-05-18T12:17:48+02:00</time>
      </trkpt>
      <trkpt lat="48.7445" lon="6.17537">
        <ele>192</ele>
        <time>2026-05-18T12:17:49+02:00</time>
      </trkpt>
      <trkpt lat="48.74452" lon="6.1753">
        <ele>192</ele>
        <time>2026-05-18T12:17:50+02:00</time>
      </trkpt>
      <trkpt lat="48.74453" lon="6.17522">
        <ele>192.10059</ele>
        <time>2026-05-18T12:17:51+02:00</time>
      </trkpt>
      <trkpt lat="48.74454" lon="6.17514">
        <ele>191.40039</ele>
        <time>2026-05-18T12:17:52+02:00</time>
      </trkpt>
      <trkpt lat="48.74456" lon="6.17506">
        <ele>191.60059</ele>
        <time>2026-05-18T12:17:53+02:00</time>
      </trkpt>
      <trkpt lat="48.74458" lon="6.17498">
        <ele>192</ele>
        <time>2026-05-18T12:17:54+02:00</time>
      </trkpt>
      <trkpt lat="48.74459" lon="6.17491">
        <ele>192.2002</ele>
        <time>2026-05-18T12:17:55+02:00</time>
      </trkpt>
      <trkpt lat="48.74461" lon="6.17483">
        <ele>192.40039</ele>
        <time>2026-05-18T12:17:56+02:00</time>
      </trkpt>
      <trkpt lat="48.74462" lon="6.17475">
        <ele>192.40039</ele>
        <time>2026-05-18T12:17:57+02:00</time>
      </trkpt>
      <trkpt lat="48.74464" lon="6.17468">
        <ele>192.2998</ele>
        <time>2026-05-18T12:17:58+02:00</time>
      </trkpt>
      <trkpt lat="48.74466" lon="6.17461">
        <ele>191.7998</ele>
        <time>2026-05-18T12:17:59+02:00</time>
      </trkpt>
      <trkpt lat="48.74467" lon="6.17454">
        <ele>191.7002</ele>
        <time>2026-05-18T12:18:00+02:00</time>
      </trkpt>
      <trkpt lat="48.74469" lon="6.17446">
        <ele>191.60059</ele>
        <time>2026-05-18T12:18:01+02:00</time>
      </trkpt>
      <trkpt lat="48.7447" lon="6.17439">
        <ele>190.90039</ele>
        <time>2026-05-18T12:18:02+02:00</time>
      </trkpt>
      <trkpt lat="48.74472" lon="6.17431">
        <ele>190.90039</ele>
        <time>2026-05-18T12:18:03+02:00</time>
      </trkpt>
      <trkpt lat="48.74474" lon="6.17424">
        <ele>190.90039</ele>
        <time>2026-05-18T12:18:04+02:00</time>
      </trkpt>
      <trkpt lat="48.74476" lon="6.17416">
        <ele>190.2998</ele>
        <time>2026-05-18T12:18:05+02:00</time>
      </trkpt>
      <trkpt lat="48.74478" lon="6.17408">
        <ele>190.2002</ele>
        <time>2026-05-18T12:18:06+02:00</time>
      </trkpt>
      <trkpt lat="48.74479" lon="6.174">
        <ele>190.10059</ele>
        <time>2026-05-18T12:18:07+02:00</time>
      </trkpt>
      <trkpt lat="48.74482" lon="6.17388">
        <ele>189.5</ele>
        <time>2026-05-18T12:18:08+02:00</time>
      </trkpt>
      <trkpt lat="48.74482" lon="6.17388">
        <ele>189.5</ele>
        <time>2026-05-18T12:18:09+02:00</time>
      </trkpt>
      <trkpt lat="48.74484" lon="6.17376">
        <ele>189.60059</ele>
        <time>2026-05-18T12:18:10+02:00</time>
      </trkpt>
      <trkpt lat="48.74486" lon="6.17368">
        <ele>189.90039</ele>
        <time>2026-05-18T12:18:11+02:00</time>
      </trkpt>
      <trkpt lat="48.74488" lon="6.1736">
        <ele>190.2002</ele>
        <time>2026-05-18T12:18:12+02:00</time>
      </trkpt>
      <trkpt lat="48.74489" lon="6.17352">
        <ele>190.7002</ele>
        <time>2026-05-18T12:18:13+02:00</time>
      </trkpt>
      <trkpt lat="48.74491" lon="6.17344">
        <ele>191.2998</ele>
        <time>2026-05-18T12:18:14+02:00</time>
      </trkpt>
      <trkpt lat="48.74492" lon="6.17335">
        <ele>192</ele>
        <time>2026-05-18T12:18:15+02:00</time>
      </trkpt>
      <trkpt lat="48.74494" lon="6.17327">
        <ele>191.7998</ele>
        <time>2026-05-18T12:18:16+02:00</time>
      </trkpt>
      <trkpt lat="48.74496" lon="6.17318">
        <ele>192.2998</ele>
        <time>2026-05-18T12:18:17+02:00</time>
      </trkpt>
      <trkpt lat="48.74498" lon="6.17305">
        <ele>192.7998</ele>
        <time>2026-05-18T12:18:18+02:00</time>
      </trkpt>
      <trkpt lat="48.74498" lon="6.17301">
        <ele>193.40039</ele>
        <time>2026-05-18T12:18:19+02:00</time>
      </trkpt>
      <trkpt lat="48.74499" lon="6.17292">
        <ele>193.5</ele>
        <time>2026-05-18T12:18:20+02:00</time>
      </trkpt>
      <trkpt lat="48.745" lon="6.17284">
        <ele>194.40039</ele>
        <time>2026-05-18T12:18:21+02:00</time>
      </trkpt>
      <trkpt lat="48.74502" lon="6.17276">
        <ele>195</ele>
        <time>2026-05-18T12:18:22+02:00</time>
      </trkpt>
      <trkpt lat="48.74503" lon="6.17267">
        <ele>195</ele>
        <time>2026-05-18T12:18:23+02:00</time>
      </trkpt>
      <trkpt lat="48.74504" lon="6.17259">
        <ele>194.2998</ele>
        <time>2026-05-18T12:18:24+02:00</time>
      </trkpt>
      <trkpt lat="48.74505" lon="6.1725">
        <ele>194.2998</ele>
        <time>2026-05-18T12:18:25+02:00</time>
      </trkpt>
      <trkpt lat="48.74506" lon="6.17242">
        <ele>194.40039</ele>
        <time>2026-05-18T12:18:26+02:00</time>
      </trkpt>
      <trkpt lat="48.74507" lon="6.17233">
        <ele>194.40039</ele>
        <time>2026-05-18T12:18:27+02:00</time>
      </trkpt>
      <trkpt lat="48.74508" lon="6.17225">
        <ele>194.5</ele>
        <time>2026-05-18T12:18:28+02:00</time>
      </trkpt>
      <trkpt lat="48.7451" lon="6.17216">
        <ele>193.40039</ele>
        <time>2026-05-18T12:18:29+02:00</time>
      </trkpt>
      <trkpt lat="48.74511" lon="6.17208">
        <ele>193.7002</ele>
        <time>2026-05-18T12:18:30+02:00</time>
      </trkpt>
      <trkpt lat="48.74511" lon="6.17199">
        <ele>194.2002</ele>
        <time>2026-05-18T12:18:31+02:00</time>
      </trkpt>
      <trkpt lat="48.74513" lon="6.17186">
        <ele>195</ele>
        <time>2026-05-18T12:18:32+02:00</time>
      </trkpt>
      <trkpt lat="48.74514" lon="6.17181">
        <ele>195.90039</ele>
        <time>2026-05-18T12:18:33+02:00</time>
      </trkpt>
      <trkpt lat="48.74515" lon="6.17172">
        <ele>196.2998</ele>
        <time>2026-05-18T12:18:34+02:00</time>
      </trkpt>
      <trkpt lat="48.74516" lon="6.17164">
        <ele>196.2002</ele>
        <time>2026-05-18T12:18:35+02:00</time>
      </trkpt>
      <trkpt lat="48.74517" lon="6.17155">
        <ele>196.10059</ele>
        <time>2026-05-18T12:18:36+02:00</time>
      </trkpt>
      <trkpt lat="48.74518" lon="6.17146">
        <ele>196</ele>
        <time>2026-05-18T12:18:37+02:00</time>
      </trkpt>
      <trkpt lat="48.74519" lon="6.17137">
        <ele>195.90039</ele>
        <time>2026-05-18T12:18:38+02:00</time>
      </trkpt>
      <trkpt lat="48.7452" lon="6.17128">
        <ele>195.7998</ele>
        <time>2026-05-18T12:18:39+02:00</time>
      </trkpt>
      <trkpt lat="48.74522" lon="6.17119">
        <ele>195.2002</ele>
        <time>2026-05-18T12:18:40+02:00</time>
      </trkpt>
      <trkpt lat="48.74523" lon="6.1711">
        <ele>195</ele>
        <time>2026-05-18T12:18:41+02:00</time>
      </trkpt>
      <trkpt lat="48.74524" lon="6.17101">
        <ele>194.90039</ele>
        <time>2026-05-18T12:18:42+02:00</time>
      </trkpt>
      <trkpt lat="48.74525" lon="6.17092">
        <ele>194.7002</ele>
        <time>2026-05-18T12:18:43+02:00</time>
      </trkpt>
      <trkpt lat="48.74527" lon="6.17083">
        <ele>193.2002</ele>
        <time>2026-05-18T12:18:44+02:00</time>
      </trkpt>
      <trkpt lat="48.74528" lon="6.17069">
        <ele>192.7002</ele>
        <time>2026-05-18T12:18:45+02:00</time>
      </trkpt>
      <trkpt lat="48.74528" lon="6.17069">
        <ele>192.7002</ele>
        <time>2026-05-18T12:18:46+02:00</time>
      </trkpt>
      <trkpt lat="48.7453" lon="6.17056">
        <ele>192.5</ele>
        <time>2026-05-18T12:18:47+02:00</time>
      </trkpt>
      <trkpt lat="48.74531" lon="6.17047">
        <ele>192.2998</ele>
        <time>2026-05-18T12:18:48+02:00</time>
      </trkpt>
      <trkpt lat="48.74532" lon="6.17038">
        <ele>192.10059</ele>
        <time>2026-05-18T12:18:49+02:00</time>
      </trkpt>
      <trkpt lat="48.74534" lon="6.17028">
        <ele>191.10059</ele>
        <time>2026-05-18T12:18:50+02:00</time>
      </trkpt>
      <trkpt lat="48.74535" lon="6.17019">
        <ele>191.60059</ele>
        <time>2026-05-18T12:18:51+02:00</time>
      </trkpt>
      <trkpt lat="48.74536" lon="6.1701">
        <ele>192.10059</ele>
        <time>2026-05-18T12:18:52+02:00</time>
      </trkpt>
      <trkpt lat="48.74537" lon="6.17">
        <ele>192.40039</ele>
        <time>2026-05-18T12:18:53+02:00</time>
      </trkpt>
      <trkpt lat="48.74538" lon="6.16991">
        <ele>191.90039</ele>
        <time>2026-05-18T12:18:54+02:00</time>
      </trkpt>
      <trkpt lat="48.74539" lon="6.16981">
        <ele>191.7998</ele>
        <time>2026-05-18T12:18:55+02:00</time>
      </trkpt>
      <trkpt lat="48.7454" lon="6.16972">
        <ele>191.7002</ele>
        <time>2026-05-18T12:18:56+02:00</time>
      </trkpt>
      <trkpt lat="48.74541" lon="6.16963">
        <ele>191.60059</ele>
        <time>2026-05-18T12:18:57+02:00</time>
      </trkpt>
      <trkpt lat="48.74542" lon="6.16954">
        <ele>191.40039</ele>
        <time>2026-05-18T12:18:58+02:00</time>
      </trkpt>
      <trkpt lat="48.74544" lon="6.16945">
        <ele>190.90039</ele>
        <time>2026-05-18T12:18:59+02:00</time>
      </trkpt>
      <trkpt lat="48.74545" lon="6.16936">
        <ele>190.90039</ele>
        <time>2026-05-18T12:19:00+02:00</time>
      </trkpt>
      <trkpt lat="48.74545" lon="6.16927">
        <ele>190.90039</ele>
        <time>2026-05-18T12:19:01+02:00</time>
      </trkpt>
      <trkpt lat="48.74546" lon="6.16919">
        <ele>190.90039</ele>
        <time>2026-05-18T12:19:02+02:00</time>
      </trkpt>
      <trkpt lat="48.74547" lon="6.16915">
        <ele>190.90039</ele>
        <time>2026-05-18T12:19:03+02:00</time>
      </trkpt>
      <trkpt lat="48.74548" lon="6.16903">
        <ele>190.90039</ele>
        <time>2026-05-18T12:19:04+02:00</time>
      </trkpt>
      <trkpt lat="48.74549" lon="6.16895">
        <ele>191</ele>
        <time>2026-05-18T12:19:05+02:00</time>
      </trkpt>
      <trkpt lat="48.7455" lon="6.16887">
        <ele>191</ele>
        <time>2026-05-18T12:19:06+02:00</time>
      </trkpt>
      <trkpt lat="48.74551" lon="6.16879">
        <ele>191.2002</ele>
        <time>2026-05-18T12:19:07+02:00</time>
      </trkpt>
      <trkpt lat="48.74552" lon="6.16871">
        <ele>191.40039</ele>
        <time>2026-05-18T12:19:08+02:00</time>
      </trkpt>
      <trkpt lat="48.74553" lon="6.16858">
        <ele>191.60059</ele>
        <time>2026-05-18T12:19:09+02:00</time>
      </trkpt>
      <trkpt lat="48.74554" lon="6.16854">
        <ele>191.7998</ele>
        <time>2026-05-18T12:19:10+02:00</time>
      </trkpt>
      <trkpt lat="48.74555" lon="6.16846">
        <ele>192</ele>
        <time>2026-05-18T12:19:11+02:00</time>
      </trkpt>
      <trkpt lat="48.74556" lon="6.16838">
        <ele>191.90039</ele>
        <time>2026-05-18T12:19:12+02:00</time>
      </trkpt>
      <trkpt lat="48.74557" lon="6.16829">
        <ele>192.10059</ele>
        <time>2026-05-18T12:19:13+02:00</time>
      </trkpt>
      <trkpt lat="48.74558" lon="6.16821">
        <ele>192.2002</ele>
        <time>2026-05-18T12:19:14+02:00</time>
      </trkpt>
      <trkpt lat="48.74559" lon="6.16812">
        <ele>192.2998</ele>
        <time>2026-05-18T12:19:15+02:00</time>
      </trkpt>
      <trkpt lat="48.7456" lon="6.16804">
        <ele>192.2998</ele>
        <time>2026-05-18T12:19:16+02:00</time>
      </trkpt>
      <trkpt lat="48.74561" lon="6.16795">
        <ele>191.2002</ele>
        <time>2026-05-18T12:19:17+02:00</time>
      </trkpt>
      <trkpt lat="48.74562" lon="6.16783">
        <ele>191.40039</ele>
        <time>2026-05-18T12:19:18+02:00</time>
      </trkpt>
      <trkpt lat="48.74562" lon="6.16783">
        <ele>191.40039</ele>
        <time>2026-05-18T12:19:19+02:00</time>
      </trkpt>
      <trkpt lat="48.74563" lon="6.16772">
        <ele>191.7998</ele>
        <time>2026-05-18T12:19:20+02:00</time>
      </trkpt>
      <trkpt lat="48.74563" lon="6.1676">
        <ele>192.5</ele>
        <time>2026-05-18T12:19:21+02:00</time>
      </trkpt>
      <trkpt lat="48.74564" lon="6.16756">
        <ele>192.5</ele>
        <time>2026-05-18T12:19:22+02:00</time>
      </trkpt>
      <trkpt lat="48.74564" lon="6.16748">
        <ele>192.7998</ele>
        <time>2026-05-18T12:19:23+02:00</time>
      </trkpt>
      <trkpt lat="48.74565" lon="6.1674">
        <ele>193.10059</ele>
        <time>2026-05-18T12:19:24+02:00</time>
      </trkpt>
      <trkpt lat="48.74565" lon="6.16732">
        <ele>193.2998</ele>
        <time>2026-05-18T12:19:25+02:00</time>
      </trkpt>
      <trkpt lat="48.74566" lon="6.16724">
        <ele>193.5</ele>
        <time>2026-05-18T12:19:26+02:00</time>
      </trkpt>
      <trkpt lat="48.74566" lon="6.16716">
        <ele>193.40039</ele>
        <time>2026-05-18T12:19:27+02:00</time>
      </trkpt>
      <trkpt lat="48.74566" lon="6.16708">
        <ele>193.40039</ele>
        <time>2026-05-18T12:19:28+02:00</time>
      </trkpt>
      <trkpt lat="48.74567" lon="6.167">
        <ele>193.2002</ele>
        <time>2026-05-18T12:19:29+02:00</time>
      </trkpt>
      <trkpt lat="48.74567" lon="6.16691">
        <ele>193.2002</ele>
        <time>2026-05-18T12:19:30+02:00</time>
      </trkpt>
      <trkpt lat="48.74568" lon="6.16682">
        <ele>193.10059</ele>
        <time>2026-05-18T12:19:31+02:00</time>
      </trkpt>
      <trkpt lat="48.74569" lon="6.16673">
        <ele>193</ele>
        <time>2026-05-18T12:19:32+02:00</time>
      </trkpt>
      <trkpt lat="48.7457" lon="6.16664">
        <ele>192.90039</ele>
        <time>2026-05-18T12:19:33+02:00</time>
      </trkpt>
      <trkpt lat="48.74571" lon="6.16655">
        <ele>192.7998</ele>
        <time>2026-05-18T12:19:34+02:00</time>
      </trkpt>
      <trkpt lat="48.74572" lon="6.16646">
        <ele>192.40039</ele>
        <time>2026-05-18T12:19:35+02:00</time>
      </trkpt>
      <trkpt lat="48.74573" lon="6.16637">
        <ele>192.2998</ele>
        <time>2026-05-18T12:19:36+02:00</time>
      </trkpt>
      <trkpt lat="48.74574" lon="6.16628">
        <ele>192.2002</ele>
        <time>2026-05-18T12:19:37+02:00</time>
      </trkpt>
      <trkpt lat="48.74575" lon="6.16619">
        <ele>192.10059</ele>
        <time>2026-05-18T12:19:38+02:00</time>
      </trkpt>
      <trkpt lat="48.74576" lon="6.1661">
        <ele>192</ele>
        <time>2026-05-18T12:19:39+02:00</time>
      </trkpt>
      <trkpt lat="48.74576" lon="6.166">
        <ele>191.90039</ele>
        <time>2026-05-18T12:19:40+02:00</time>
      </trkpt>
      <trkpt lat="48.74577" lon="6.1659">
        <ele>191.7998</ele>
        <time>2026-05-18T12:19:41+02:00</time>
      </trkpt>
      <trkpt lat="48.74579" lon="6.1658">
        <ele>191.40039</ele>
        <time>2026-05-18T12:19:42+02:00</time>
      </trkpt>
      <trkpt lat="48.74579" lon="6.16576">
        <ele>191.40039</ele>
        <time>2026-05-18T12:19:43+02:00</time>
      </trkpt>
      <trkpt lat="48.7458" lon="6.16561">
        <ele>191.60059</ele>
        <time>2026-05-18T12:19:44+02:00</time>
      </trkpt>
      <trkpt lat="48.74581" lon="6.16551">
        <ele>191.7002</ele>
        <time>2026-05-18T12:19:45+02:00</time>
      </trkpt>
      <trkpt lat="48.74582" lon="6.16541">
        <ele>191.90039</ele>
        <time>2026-05-18T12:19:46+02:00</time>
      </trkpt>
      <trkpt lat="48.74583" lon="6.16531">
        <ele>192.10059</ele>
        <time>2026-05-18T12:19:47+02:00</time>
      </trkpt>
      <trkpt lat="48.74584" lon="6.16521">
        <ele>192</ele>
        <time>2026-05-18T12:19:48+02:00</time>
      </trkpt>
      <trkpt lat="48.74584" lon="6.16512">
        <ele>192.10059</ele>
        <time>2026-05-18T12:19:49+02:00</time>
      </trkpt>
      <trkpt lat="48.74585" lon="6.16502">
        <ele>192.2998</ele>
        <time>2026-05-18T12:19:50+02:00</time>
      </trkpt>
      <trkpt lat="48.74585" lon="6.16493">
        <ele>192.5</ele>
        <time>2026-05-18T12:19:51+02:00</time>
      </trkpt>
      <trkpt lat="48.74585" lon="6.16483">
        <ele>192.60059</ele>
        <time>2026-05-18T12:19:52+02:00</time>
      </trkpt>
      <trkpt lat="48.74585" lon="6.16474">
        <ele>192.7998</ele>
        <time>2026-05-18T12:19:53+02:00</time>
      </trkpt>
      <trkpt lat="48.74584" lon="6.16464">
        <ele>192.90039</ele>
        <time>2026-05-18T12:19:54+02:00</time>
      </trkpt>
      <trkpt lat="48.74584" lon="6.16454">
        <ele>193</ele>
        <time>2026-05-18T12:19:55+02:00</time>
      </trkpt>
      <trkpt lat="48.74584" lon="6.16444">
        <ele>193.2002</ele>
        <time>2026-05-18T12:19:56+02:00</time>
      </trkpt>
      <trkpt lat="48.74583" lon="6.16434">
        <ele>193.7998</ele>
        <time>2026-05-18T12:19:57+02:00</time>
      </trkpt>
      <trkpt lat="48.74582" lon="6.16424">
        <ele>193.7998</ele>
        <time>2026-05-18T12:19:58+02:00</time>
      </trkpt>
      <trkpt lat="48.74582" lon="6.16414">
        <ele>193.7002</ele>
        <time>2026-05-18T12:19:59+02:00</time>
      </trkpt>
      <trkpt lat="48.74581" lon="6.16404">
        <ele>193.5</ele>
        <time>2026-05-18T12:20:00+02:00</time>
      </trkpt>
      <trkpt lat="48.74581" lon="6.16395">
        <ele>193.2998</ele>
        <time>2026-05-18T12:20:01+02:00</time>
      </trkpt>
      <trkpt lat="48.74581" lon="6.16386">
        <ele>193</ele>
        <time>2026-05-18T12:20:02+02:00</time>
      </trkpt>
      <trkpt lat="48.74582" lon="6.16377">
        <ele>192.7998</ele>
        <time>2026-05-18T12:20:03+02:00</time>
      </trkpt>
      <trkpt lat="48.74583" lon="6.1637">
        <ele>192.5</ele>
        <time>2026-05-18T12:20:04+02:00</time>
      </trkpt>
      <trkpt lat="48.74583" lon="6.16364">
        <ele>192.2002</ele>
        <time>2026-05-18T12:20:05+02:00</time>
      </trkpt>
      <trkpt lat="48.74583" lon="6.16358">
        <ele>191.90039</ele>
        <time>2026-05-18T12:20:06+02:00</time>
      </trkpt>
      <trkpt lat="48.74581" lon="6.16353">
        <ele>191.90039</ele>
        <time>2026-05-18T12:20:07+02:00</time>
      </trkpt>
      <trkpt lat="48.74578" lon="6.16349">
        <ele>191.7002</ele>
        <time>2026-05-18T12:20:08+02:00</time>
      </trkpt>
      <trkpt lat="48.74574" lon="6.16349">
        <ele>191.90039</ele>
        <time>2026-05-18T12:20:09+02:00</time>
      </trkpt>
      <trkpt lat="48.74572" lon="6.16348">
        <ele>191.90039</ele>
        <time>2026-05-18T12:20:10+02:00</time>
      </trkpt>
      <trkpt lat="48.74569" lon="6.16348">
        <ele>192</ele>
        <time>2026-05-18T12:20:11+02:00</time>
      </trkpt>
      <trkpt lat="48.74566" lon="6.16347">
        <ele>192.10059</ele>
        <time>2026-05-18T12:20:12+02:00</time>
      </trkpt>
      <trkpt lat="48.74563" lon="6.16346">
        <ele>192.10059</ele>
        <time>2026-05-18T12:20:13+02:00</time>
      </trkpt>
      <trkpt lat="48.74561" lon="6.16345">
        <ele>192.10059</ele>
        <time>2026-05-18T12:20:14+02:00</time>
      </trkpt>
      <trkpt lat="48.74558" lon="6.16345">
        <ele>192.2002</ele>
        <time>2026-05-18T12:20:15+02:00</time>
      </trkpt>
      <trkpt lat="48.74555" lon="6.16344">
        <ele>192.2998</ele>
        <time>2026-05-18T12:20:16+02:00</time>
      </trkpt>
      <trkpt lat="48.74552" lon="6.16343">
        <ele>192.2998</ele>
        <time>2026-05-18T12:20:17+02:00</time>
      </trkpt>
      <trkpt lat="48.74548" lon="6.16343">
        <ele>192.5</ele>
        <time>2026-05-18T12:20:18+02:00</time>
      </trkpt>
      <trkpt lat="48.74545" lon="6.16342">
        <ele>192.5</ele>
        <time>2026-05-18T12:20:19+02:00</time>
      </trkpt>
      <trkpt lat="48.74542" lon="6.16341">
        <ele>192.40039</ele>
        <time>2026-05-18T12:20:20+02:00</time>
      </trkpt>
      <trkpt lat="48.74538" lon="6.1634">
        <ele>192.40039</ele>
        <time>2026-05-18T12:20:21+02:00</time>
      </trkpt>
      <trkpt lat="48.74534" lon="6.16339">
        <ele>192.60059</ele>
        <time>2026-05-18T12:20:22+02:00</time>
      </trkpt>
      <trkpt lat="48.74529" lon="6.16338">
        <ele>192.7002</ele>
        <time>2026-05-18T12:20:23+02:00</time>
      </trkpt>
      <trkpt lat="48.74529" lon="6.16338">
        <ele>192.7002</ele>
        <time>2026-05-18T12:20:24+02:00</time>
      </trkpt>
      <trkpt lat="48.74523" lon="6.16337">
        <ele>192.90039</ele>
        <time>2026-05-18T12:20:25+02:00</time>
      </trkpt>
      <trkpt lat="48.74518" lon="6.16336">
        <ele>193.10059</ele>
        <time>2026-05-18T12:20:26+02:00</time>
      </trkpt>
      <trkpt lat="48.74514" lon="6.16335">
        <ele>193.2998</ele>
        <time>2026-05-18T12:20:27+02:00</time>
      </trkpt>
      <trkpt lat="48.7451" lon="6.16334">
        <ele>193.2998</ele>
        <time>2026-05-18T12:20:28+02:00</time>
      </trkpt>
      <trkpt lat="48.74505" lon="6.16334">
        <ele>193.5</ele>
        <time>2026-05-18T12:20:29+02:00</time>
      </trkpt>
      <trkpt lat="48.74502" lon="6.16333">
        <ele>193.7002</ele>
        <time>2026-05-18T12:20:30+02:00</time>
      </trkpt>
      <trkpt lat="48.74497" lon="6.16332">
        <ele>193.7998</ele>
        <time>2026-05-18T12:20:31+02:00</time>
      </trkpt>
      <trkpt lat="48.74493" lon="6.16331">
        <ele>193.7998</ele>
        <time>2026-05-18T12:20:32+02:00</time>
      </trkpt>
      <trkpt lat="48.74489" lon="6.1633">
        <ele>194</ele>
        <time>2026-05-18T12:20:33+02:00</time>
      </trkpt>
      <trkpt lat="48.74484" lon="6.1633">
        <ele>194.10059</ele>
        <time>2026-05-18T12:20:34+02:00</time>
      </trkpt>
      <trkpt lat="48.74479" lon="6.16329">
        <ele>194.2998</ele>
        <time>2026-05-18T12:20:35+02:00</time>
      </trkpt>
      <trkpt lat="48.74475" lon="6.16328">
        <ele>194.40039</ele>
        <time>2026-05-18T12:20:36+02:00</time>
      </trkpt>
      <trkpt lat="48.74468" lon="6.16326">
        <ele>194.5</ele>
        <time>2026-05-18T12:20:37+02:00</time>
      </trkpt>
      <trkpt lat="48.74465" lon="6.16326">
        <ele>194.5</ele>
        <time>2026-05-18T12:20:38+02:00</time>
      </trkpt>
      <trkpt lat="48.7446" lon="6.16325">
        <ele>194.7002</ele>
        <time>2026-05-18T12:20:39+02:00</time>
      </trkpt>
      <trkpt lat="48.74456" lon="6.16324">
        <ele>194.90039</ele>
        <time>2026-05-18T12:20:40+02:00</time>
      </trkpt>
      <trkpt lat="48.7445" lon="6.16323">
        <ele>195.10059</ele>
        <time>2026-05-18T12:20:41+02:00</time>
      </trkpt>
      <trkpt lat="48.74445" lon="6.16323">
        <ele>195.2998</ele>
        <time>2026-05-18T12:20:42+02:00</time>
      </trkpt>
      <trkpt lat="48.74441" lon="6.16322">
        <ele>195.40039</ele>
        <time>2026-05-18T12:20:43+02:00</time>
      </trkpt>
      <trkpt lat="48.74436" lon="6.16321">
        <ele>195.40039</ele>
        <time>2026-05-18T12:20:44+02:00</time>
      </trkpt>
      <trkpt lat="48.74431" lon="6.1632">
        <ele>195.60059</ele>
        <time>2026-05-18T12:20:45+02:00</time>
      </trkpt>
      <trkpt lat="48.74426" lon="6.16319">
        <ele>195.7998</ele>
        <time>2026-05-18T12:20:46+02:00</time>
      </trkpt>
      <trkpt lat="48.7442" lon="6.16318">
        <ele>195.90039</ele>
        <time>2026-05-18T12:20:47+02:00</time>
      </trkpt>
      <trkpt lat="48.74415" lon="6.16317">
        <ele>196</ele>
        <time>2026-05-18T12:20:48+02:00</time>
      </trkpt>
      <trkpt lat="48.7441" lon="6.16316">
        <ele>196</ele>
        <time>2026-05-18T12:20:49+02:00</time>
      </trkpt>
      <trkpt lat="48.74405" lon="6.16315">
        <ele>196.10059</ele>
        <time>2026-05-18T12:20:50+02:00</time>
      </trkpt>
      <trkpt lat="48.74398" lon="6.16313">
        <ele>196.10059</ele>
        <time>2026-05-18T12:20:51+02:00</time>
      </trkpt>
      <trkpt lat="48.74396" lon="6.16313">
        <ele>196.10059</ele>
        <time>2026-05-18T12:20:52+02:00</time>
      </trkpt>
      <trkpt lat="48.74391" lon="6.16313">
        <ele>196.10059</ele>
        <time>2026-05-18T12:20:53+02:00</time>
      </trkpt>
      <trkpt lat="48.74385" lon="6.16312">
        <ele>196</ele>
        <time>2026-05-18T12:20:54+02:00</time>
      </trkpt>
      <trkpt lat="48.74385" lon="6.16312">
        <ele>196</ele>
        <time>2026-05-18T12:20:55+02:00</time>
      </trkpt>
      <trkpt lat="48.74381" lon="6.1631">
        <ele>196</ele>
        <time>2026-05-18T12:20:56+02:00</time>
      </trkpt>
      <trkpt lat="48.74379" lon="6.16308">
        <ele>196</ele>
        <time>2026-05-18T12:20:57+02:00</time>
      </trkpt>
      <trkpt lat="48.74378" lon="6.16305">
        <ele>196</ele>
        <time>2026-05-18T12:20:58+02:00</time>
      </trkpt>
      <trkpt lat="48.74378" lon="6.16301">
        <ele>196</ele>
        <time>2026-05-18T12:20:59+02:00</time>
      </trkpt>
      <trkpt lat="48.74378" lon="6.16298">
        <ele>196</ele>
        <time>2026-05-18T12:21:00+02:00</time>
      </trkpt>
      <trkpt lat="48.74378" lon="6.16294">
        <ele>196</ele>
        <time>2026-05-18T12:21:01+02:00</time>
      </trkpt>
      <trkpt lat="48.74378" lon="6.16289">
        <ele>196</ele>
        <time>2026-05-18T12:21:02+02:00</time>
      </trkpt>
      <trkpt lat="48.74378" lon="6.16284">
        <ele>196</ele>
        <time>2026-05-18T12:21:03+02:00</time>
      </trkpt>
      <trkpt lat="48.74378" lon="6.16278">
        <ele>196</ele>
        <time>2026-05-18T12:21:04+02:00</time>
      </trkpt>
      <trkpt lat="48.74378" lon="6.16273">
        <ele>196</ele>
        <time>2026-05-18T12:21:05+02:00</time>
      </trkpt>
      <trkpt lat="48.74379" lon="6.16263">
        <ele>196</ele>
        <time>2026-05-18T12:21:06+02:00</time>
      </trkpt>
      <trkpt lat="48.74379" lon="6.16263">
        <ele>196</ele>
        <time>2026-05-18T12:21:07+02:00</time>
      </trkpt>
      <trkpt lat="48.7438" lon="6.16254">
        <ele>196</ele>
        <time>2026-05-18T12:21:08+02:00</time>
      </trkpt>
      <trkpt lat="48.74381" lon="6.16247">
        <ele>196</ele>
        <time>2026-05-18T12:21:09+02:00</time>
      </trkpt>
      <trkpt lat="48.74383" lon="6.1624">
        <ele>196</ele>
        <time>2026-05-18T12:21:10+02:00</time>
      </trkpt>
      <trkpt lat="48.74384" lon="6.16234">
        <ele>196</ele>
        <time>2026-05-18T12:21:11+02:00</time>
      </trkpt>
      <trkpt lat="48.74385" lon="6.16227">
        <ele>195.90039</ele>
        <time>2026-05-18T12:21:12+02:00</time>
      </trkpt>
      <trkpt lat="48.74387" lon="6.1622">
        <ele>195.90039</ele>
        <time>2026-05-18T12:21:13+02:00</time>
      </trkpt>
      <trkpt lat="48.74388" lon="6.16213">
        <ele>195.90039</ele>
        <time>2026-05-18T12:21:14+02:00</time>
      </trkpt>
      <trkpt lat="48.74389" lon="6.16206">
        <ele>195.7998</ele>
        <time>2026-05-18T12:21:15+02:00</time>
      </trkpt>
      <trkpt lat="48.74391" lon="6.16199">
        <ele>195.7002</ele>
        <time>2026-05-18T12:21:16+02:00</time>
      </trkpt>
      <trkpt lat="48.74392" lon="6.16192">
        <ele>195.7002</ele>
        <time>2026-05-18T12:21:17+02:00</time>
      </trkpt>
      <trkpt lat="48.74394" lon="6.16185">
        <ele>195.7002</ele>
        <time>2026-05-18T12:21:18+02:00</time>
      </trkpt>
      <trkpt lat="48.74395" lon="6.16178">
        <ele>195.7998</ele>
        <time>2026-05-18T12:21:19+02:00</time>
      </trkpt>
      <trkpt lat="48.74396" lon="6.16171">
        <ele>195.7998</ele>
        <time>2026-05-18T12:21:20+02:00</time>
      </trkpt>
      <trkpt lat="48.74398" lon="6.16163">
        <ele>195.7002</ele>
        <time>2026-05-18T12:21:21+02:00</time>
      </trkpt>
      <trkpt lat="48.74399" lon="6.16156">
        <ele>195.7998</ele>
        <time>2026-05-18T12:21:22+02:00</time>
      </trkpt>
      <trkpt lat="48.74401" lon="6.16149">
        <ele>195.7998</ele>
        <time>2026-05-18T12:21:23+02:00</time>
      </trkpt>
      <trkpt lat="48.74402" lon="6.16142">
        <ele>195.7998</ele>
        <time>2026-05-18T12:21:24+02:00</time>
      </trkpt>
      <trkpt lat="48.74404" lon="6.16134">
        <ele>195.7002</ele>
        <time>2026-05-18T12:21:25+02:00</time>
      </trkpt>
      <trkpt lat="48.74405" lon="6.16127">
        <ele>195.7002</ele>
        <time>2026-05-18T12:21:26+02:00</time>
      </trkpt>
      <trkpt lat="48.74407" lon="6.1612">
        <ele>195.7002</ele>
        <time>2026-05-18T12:21:27+02:00</time>
      </trkpt>
      <trkpt lat="48.74409" lon="6.16109">
        <ele>195.5</ele>
        <time>2026-05-18T12:21:28+02:00</time>
      </trkpt>
      <trkpt lat="48.74409" lon="6.16109">
        <ele>195.5</ele>
        <time>2026-05-18T12:21:29+02:00</time>
      </trkpt>
      <trkpt lat="48.74411" lon="6.16098">
        <ele>195.5</ele>
        <time>2026-05-18T12:21:30+02:00</time>
      </trkpt>
      <trkpt lat="48.74413" lon="6.1609">
        <ele>195.60059</ele>
        <time>2026-05-18T12:21:31+02:00</time>
      </trkpt>
      <trkpt lat="48.74414" lon="6.16087">
        <ele>195.40039</ele>
        <time>2026-05-18T12:21:32+02:00</time>
      </trkpt>
      <trkpt lat="48.74416" lon="6.16075">
        <ele>195.7002</ele>
        <time>2026-05-18T12:21:33+02:00</time>
      </trkpt>
      <trkpt lat="48.74418" lon="6.16068">
        <ele>195.7002</ele>
        <time>2026-05-18T12:21:34+02:00</time>
      </trkpt>
      <trkpt lat="48.74419" lon="6.1606">
        <ele>195.7998</ele>
        <time>2026-05-18T12:21:35+02:00</time>
      </trkpt>
      <trkpt lat="48.74421" lon="6.16052">
        <ele>195.90039</ele>
        <time>2026-05-18T12:21:36+02:00</time>
      </trkpt>
      <trkpt lat="48.74423" lon="6.16044">
        <ele>196</ele>
        <time>2026-05-18T12:21:37+02:00</time>
      </trkpt>
      <trkpt lat="48.74424" lon="6.16035">
        <ele>196.10059</ele>
        <time>2026-05-18T12:21:38+02:00</time>
      </trkpt>
      <trkpt lat="48.74426" lon="6.16027">
        <ele>196.2002</ele>
        <time>2026-05-18T12:21:39+02:00</time>
      </trkpt>
      <trkpt lat="48.74427" lon="6.16019">
        <ele>196.2998</ele>
        <time>2026-05-18T12:21:40+02:00</time>
      </trkpt>
      <trkpt lat="48.74429" lon="6.16011">
        <ele>196.40039</ele>
        <time>2026-05-18T12:21:41+02:00</time>
      </trkpt>
      <trkpt lat="48.74431" lon="6.16003">
        <ele>196.40039</ele>
        <time>2026-05-18T12:21:42+02:00</time>
      </trkpt>
      <trkpt lat="48.74433" lon="6.15995">
        <ele>196.2998</ele>
        <time>2026-05-18T12:21:43+02:00</time>
      </trkpt>
      <trkpt lat="48.74436" lon="6.15982">
        <ele>196.10059</ele>
        <time>2026-05-18T12:21:44+02:00</time>
      </trkpt>
      <trkpt lat="48.74437" lon="6.15978">
        <ele>195.90039</ele>
        <time>2026-05-18T12:21:45+02:00</time>
      </trkpt>
      <trkpt lat="48.74439" lon="6.15971">
        <ele>195.60059</ele>
        <time>2026-05-18T12:21:46+02:00</time>
      </trkpt>
      <trkpt lat="48.7444" lon="6.15963">
        <ele>195.2998</ele>
        <time>2026-05-18T12:21:47+02:00</time>
      </trkpt>
      <trkpt lat="48.74442" lon="6.15955">
        <ele>194.90039</ele>
        <time>2026-05-18T12:21:48+02:00</time>
      </trkpt>
      <trkpt lat="48.74443" lon="6.15947">
        <ele>194.90039</ele>
        <time>2026-05-18T12:21:49+02:00</time>
      </trkpt>
      <trkpt lat="48.74444" lon="6.1594">
        <ele>194.7002</ele>
        <time>2026-05-18T12:21:50+02:00</time>
      </trkpt>
      <trkpt lat="48.74446" lon="6.15932">
        <ele>194.5</ele>
        <time>2026-05-18T12:21:51+02:00</time>
      </trkpt>
      <trkpt lat="48.74449" lon="6.15924">
        <ele>194.2998</ele>
        <time>2026-05-18T12:21:52+02:00</time>
      </trkpt>
      <trkpt lat="48.74451" lon="6.15917">
        <ele>194.2002</ele>
        <time>2026-05-18T12:21:53+02:00</time>
      </trkpt>
      <trkpt lat="48.74453" lon="6.15909">
        <ele>194.2002</ele>
        <time>2026-05-18T12:21:54+02:00</time>
      </trkpt>
      <trkpt lat="48.74455" lon="6.15902">
        <ele>194.2002</ele>
        <time>2026-05-18T12:21:55+02:00</time>
      </trkpt>
      <trkpt lat="48.74457" lon="6.15894">
        <ele>194.2998</ele>
        <time>2026-05-18T12:21:56+02:00</time>
      </trkpt>
      <trkpt lat="48.7446" lon="6.15882">
        <ele>194.40039</ele>
        <time>2026-05-18T12:21:57+02:00</time>
      </trkpt>
      <trkpt lat="48.74461" lon="6.15879">
        <ele>194.40039</ele>
        <time>2026-05-18T12:21:58+02:00</time>
      </trkpt>
      <trkpt lat="48.74463" lon="6.15872">
        <ele>194.60059</ele>
        <time>2026-05-18T12:21:59+02:00</time>
      </trkpt>
      <trkpt lat="48.74465" lon="6.15865">
        <ele>194.7002</ele>
        <time>2026-05-18T12:22:00+02:00</time>
      </trkpt>
      <trkpt lat="48.74467" lon="6.15859">
        <ele>194.90039</ele>
        <time>2026-05-18T12:22:01+02:00</time>
      </trkpt>
      <trkpt lat="48.74469" lon="6.15852">
        <ele>195</ele>
        <time>2026-05-18T12:22:02+02:00</time>
      </trkpt>
      <trkpt lat="48.74472" lon="6.15842">
        <ele>195.10059</ele>
        <time>2026-05-18T12:22:03+02:00</time>
      </trkpt>
      <trkpt lat="48.74472" lon="6.15842">
        <ele>195.10059</ele>
        <time>2026-05-18T12:22:04+02:00</time>
      </trkpt>
      <trkpt lat="48.74475" lon="6.15832">
        <ele>195</ele>
        <time>2026-05-18T12:22:05+02:00</time>
      </trkpt>
      <trkpt lat="48.74477" lon="6.15825">
        <ele>194.90039</ele>
        <time>2026-05-18T12:22:06+02:00</time>
      </trkpt>
      <trkpt lat="48.74479" lon="6.15818">
        <ele>194.90039</ele>
        <time>2026-05-18T12:22:07+02:00</time>
      </trkpt>
      <trkpt lat="48.74481" lon="6.15811">
        <ele>194.7998</ele>
        <time>2026-05-18T12:22:08+02:00</time>
      </trkpt>
      <trkpt lat="48.74484" lon="6.15804">
        <ele>194.5</ele>
        <time>2026-05-18T12:22:09+02:00</time>
      </trkpt>
      <trkpt lat="48.74486" lon="6.15797">
        <ele>194.2998</ele>
        <time>2026-05-18T12:22:10+02:00</time>
      </trkpt>
      <trkpt lat="48.74489" lon="6.1579">
        <ele>193.90039</ele>
        <time>2026-05-18T12:22:11+02:00</time>
      </trkpt>
      <trkpt lat="48.74491" lon="6.15783">
        <ele>193.7002</ele>
        <time>2026-05-18T12:22:12+02:00</time>
      </trkpt>
      <trkpt lat="48.74494" lon="6.15777">
        <ele>193.60059</ele>
        <time>2026-05-18T12:22:13+02:00</time>
      </trkpt>
      <trkpt lat="48.74498" lon="6.15766">
        <ele>193.2002</ele>
        <time>2026-05-18T12:22:14+02:00</time>
      </trkpt>
      <trkpt lat="48.74498" lon="6.15766">
        <ele>193.2002</ele>
        <time>2026-05-18T12:22:15+02:00</time>
      </trkpt>
      <trkpt lat="48.74503" lon="6.15756">
        <ele>193</ele>
        <time>2026-05-18T12:22:16+02:00</time>
      </trkpt>
      <trkpt lat="48.74506" lon="6.15749">
        <ele>192.7998</ele>
        <time>2026-05-18T12:22:17+02:00</time>
      </trkpt>
      <trkpt lat="48.74508" lon="6.15742">
        <ele>192.7998</ele>
        <time>2026-05-18T12:22:18+02:00</time>
      </trkpt>
      <trkpt lat="48.74512" lon="6.15735">
        <ele>192.7002</ele>
        <time>2026-05-18T12:22:19+02:00</time>
      </trkpt>
      <trkpt lat="48.74516" lon="6.15729">
        <ele>192.60059</ele>
        <time>2026-05-18T12:22:20+02:00</time>
      </trkpt>
      <trkpt lat="48.74521" lon="6.1572">
        <ele>192.60059</ele>
        <time>2026-05-18T12:22:21+02:00</time>
      </trkpt>
      <trkpt lat="48.74523" lon="6.15717">
        <ele>192.5</ele>
        <time>2026-05-18T12:22:22+02:00</time>
      </trkpt>
      <trkpt lat="48.74527" lon="6.15711">
        <ele>192.5</ele>
        <time>2026-05-18T12:22:23+02:00</time>
      </trkpt>
      <trkpt lat="48.74531" lon="6.15705">
        <ele>192.5</ele>
        <time>2026-05-18T12:22:24+02:00</time>
      </trkpt>
      <trkpt lat="48.74534" lon="6.15699">
        <ele>192.40039</ele>
        <time>2026-05-18T12:22:25+02:00</time>
      </trkpt>
      <trkpt lat="48.74538" lon="6.15693">
        <ele>192.40039</ele>
        <time>2026-05-18T12:22:26+02:00</time>
      </trkpt>
      <trkpt lat="48.74542" lon="6.15687">
        <ele>192.40039</ele>
        <time>2026-05-18T12:22:27+02:00</time>
      </trkpt>
      <trkpt lat="48.74546" lon="6.15681">
        <ele>192.2998</ele>
        <time>2026-05-18T12:22:28+02:00</time>
      </trkpt>
      <trkpt lat="48.74549" lon="6.15675">
        <ele>192.2998</ele>
        <time>2026-05-18T12:22:29+02:00</time>
      </trkpt>
      <trkpt lat="48.74553" lon="6.15669">
        <ele>192.2002</ele>
        <time>2026-05-18T12:22:30+02:00</time>
      </trkpt>
      <trkpt lat="48.74557" lon="6.15663">
        <ele>192.10059</ele>
        <time>2026-05-18T12:22:31+02:00</time>
      </trkpt>
      <trkpt lat="48.74561" lon="6.15657">
        <ele>192</ele>
        <time>2026-05-18T12:22:32+02:00</time>
      </trkpt>
      <trkpt lat="48.74565" lon="6.15652">
        <ele>192.10059</ele>
        <time>2026-05-18T12:22:33+02:00</time>
      </trkpt>
      <trkpt lat="48.74568" lon="6.15647">
        <ele>192</ele>
        <time>2026-05-18T12:22:34+02:00</time>
      </trkpt>
      <trkpt lat="48.74573" lon="6.1564">
        <ele>191.90039</ele>
        <time>2026-05-18T12:22:35+02:00</time>
      </trkpt>
      <trkpt lat="48.74574" lon="6.15638">
        <ele>191.90039</ele>
        <time>2026-05-18T12:22:36+02:00</time>
      </trkpt>
      <trkpt lat="48.74578" lon="6.15633">
        <ele>191.90039</ele>
        <time>2026-05-18T12:22:37+02:00</time>
      </trkpt>
      <trkpt lat="48.74581" lon="6.15628">
        <ele>192</ele>
        <time>2026-05-18T12:22:38+02:00</time>
      </trkpt>
      <trkpt lat="48.74585" lon="6.15623">
        <ele>191.90039</ele>
        <time>2026-05-18T12:22:39+02:00</time>
      </trkpt>
      <trkpt lat="48.74589" lon="6.15618">
        <ele>191.90039</ele>
        <time>2026-05-18T12:22:40+02:00</time>
      </trkpt>
      <trkpt lat="48.74592" lon="6.15612">
        <ele>192</ele>
        <time>2026-05-18T12:22:41+02:00</time>
      </trkpt>
      <trkpt lat="48.74596" lon="6.15607">
        <ele>191.90039</ele>
        <time>2026-05-18T12:22:42+02:00</time>
      </trkpt>
      <trkpt lat="48.746" lon="6.15602">
        <ele>192.10059</ele>
        <time>2026-05-18T12:22:43+02:00</time>
      </trkpt>
      <trkpt lat="48.74604" lon="6.15596">
        <ele>192</ele>
        <time>2026-05-18T12:22:44+02:00</time>
      </trkpt>
      <trkpt lat="48.74608" lon="6.15591">
        <ele>192</ele>
        <time>2026-05-18T12:22:45+02:00</time>
      </trkpt>
      <trkpt lat="48.74612" lon="6.15585">
        <ele>192.10059</ele>
        <time>2026-05-18T12:22:46+02:00</time>
      </trkpt>
      <trkpt lat="48.74616" lon="6.15579">
        <ele>192.10059</ele>
        <time>2026-05-18T12:22:47+02:00</time>
      </trkpt>
      <trkpt lat="48.7462" lon="6.15573">
        <ele>192.2002</ele>
        <time>2026-05-18T12:22:48+02:00</time>
      </trkpt>
      <trkpt lat="48.74624" lon="6.15567">
        <ele>192.2998</ele>
        <time>2026-05-18T12:22:49+02:00</time>
      </trkpt>
      <trkpt lat="48.74628" lon="6.15562">
        <ele>192.2998</ele>
        <time>2026-05-18T12:22:50+02:00</time>
      </trkpt>
      <trkpt lat="48.74632" lon="6.15556">
        <ele>192.5</ele>
        <time>2026-05-18T12:22:51+02:00</time>
      </trkpt>
      <trkpt lat="48.74637" lon="6.1555">
        <ele>192.60059</ele>
        <time>2026-05-18T12:22:52+02:00</time>
      </trkpt>
      <trkpt lat="48.7464" lon="6.15545">
        <ele>192.5</ele>
        <time>2026-05-18T12:22:53+02:00</time>
      </trkpt>
      <trkpt lat="48.74644" lon="6.15539">
        <ele>192.7002</ele>
        <time>2026-05-18T12:22:54+02:00</time>
      </trkpt>
      <trkpt lat="48.74647" lon="6.15534">
        <ele>192.90039</ele>
        <time>2026-05-18T12:22:55+02:00</time>
      </trkpt>
      <trkpt lat="48.74651" lon="6.15529">
        <ele>192.90039</ele>
        <time>2026-05-18T12:22:56+02:00</time>
      </trkpt>
      <trkpt lat="48.74654" lon="6.15525">
        <ele>193</ele>
        <time>2026-05-18T12:22:57+02:00</time>
      </trkpt>
      <trkpt lat="48.74656" lon="6.15521">
        <ele>193</ele>
        <time>2026-05-18T12:22:58+02:00</time>
      </trkpt>
      <trkpt lat="48.74659" lon="6.15517">
        <ele>193.10059</ele>
        <time>2026-05-18T12:22:59+02:00</time>
      </trkpt>
      <trkpt lat="48.74663" lon="6.15515">
        <ele>193.10059</ele>
        <time>2026-05-18T12:23:00+02:00</time>
      </trkpt>
      <trkpt lat="48.74667" lon="6.15514">
        <ele>193.10059</ele>
        <time>2026-05-18T12:23:01+02:00</time>
      </trkpt>
      <trkpt lat="48.74673" lon="6.15513">
        <ele>193</ele>
        <time>2026-05-18T12:23:02+02:00</time>
      </trkpt>
      <trkpt lat="48.74673" lon="6.15513">
        <ele>193</ele>
        <time>2026-05-18T12:23:03+02:00</time>
      </trkpt>
      <trkpt lat="48.74679" lon="6.1551">
        <ele>193</ele>
        <time>2026-05-18T12:23:04+02:00</time>
      </trkpt>
      <trkpt lat="48.74683" lon="6.15507">
        <ele>193.10059</ele>
        <time>2026-05-18T12:23:05+02:00</time>
      </trkpt>
      <trkpt lat="48.74687" lon="6.15503">
        <ele>193</ele>
        <time>2026-05-18T12:23:06+02:00</time>
      </trkpt>
      <trkpt lat="48.7469" lon="6.15499">
        <ele>193.2002</ele>
        <time>2026-05-18T12:23:07+02:00</time>
      </trkpt>
      <trkpt lat="48.74693" lon="6.15495">
        <ele>193.10059</ele>
        <time>2026-05-18T12:23:08+02:00</time>
      </trkpt>
      <trkpt lat="48.74696" lon="6.15492">
        <ele>193.10059</ele>
        <time>2026-05-18T12:23:09+02:00</time>
      </trkpt>
      <trkpt lat="48.74698" lon="6.15488">
        <ele>193.10059</ele>
        <time>2026-05-18T12:23:10+02:00</time>
      </trkpt>
      <trkpt lat="48.74699" lon="6.15485">
        <ele>193.10059</ele>
        <time>2026-05-18T12:23:11+02:00</time>
      </trkpt>
      <trkpt lat="48.747" lon="6.15481">
        <ele>193.2002</ele>
        <time>2026-05-18T12:23:12+02:00</time>
      </trkpt>
      <trkpt lat="48.747" lon="6.15477">
        <ele>193.2002</ele>
        <time>2026-05-18T12:23:13+02:00</time>
      </trkpt>
      <trkpt lat="48.747" lon="6.15473">
        <ele>193.40039</ele>
        <time>2026-05-18T12:23:14+02:00</time>
      </trkpt>
      <trkpt lat="48.747" lon="6.15467">
        <ele>193.40039</ele>
        <time>2026-05-18T12:23:15+02:00</time>
      </trkpt>
      <trkpt lat="48.74702" lon="6.15461">
        <ele>193.5</ele>
        <time>2026-05-18T12:23:16+02:00</time>
      </trkpt>
      <trkpt lat="48.74705" lon="6.15455">
        <ele>193.40039</ele>
        <time>2026-05-18T12:23:17+02:00</time>
      </trkpt>
      <trkpt lat="48.74708" lon="6.1545">
        <ele>193.2998</ele>
        <time>2026-05-18T12:23:18+02:00</time>
      </trkpt>
      <trkpt lat="48.74713" lon="6.15445">
        <ele>193.40039</ele>
        <time>2026-05-18T12:23:19+02:00</time>
      </trkpt>
      <trkpt lat="48.74717" lon="6.1544">
        <ele>193.2998</ele>
        <time>2026-05-18T12:23:20+02:00</time>
      </trkpt>
      <trkpt lat="48.74721" lon="6.15434">
        <ele>193.10059</ele>
        <time>2026-05-18T12:23:21+02:00</time>
      </trkpt>
      <trkpt lat="48.74725" lon="6.15429">
        <ele>193.10059</ele>
        <time>2026-05-18T12:23:22+02:00</time>
      </trkpt>
      <trkpt lat="48.7473" lon="6.15423">
        <ele>193.2002</ele>
        <time>2026-05-18T12:23:23+02:00</time>
      </trkpt>
      <trkpt lat="48.74734" lon="6.15418">
        <ele>193.10059</ele>
        <time>2026-05-18T12:23:24+02:00</time>
      </trkpt>
      <trkpt lat="48.74738" lon="6.15413">
        <ele>193.10059</ele>
        <time>2026-05-18T12:23:25+02:00</time>
      </trkpt>
      <trkpt lat="48.74743" lon="6.15407">
        <ele>193</ele>
        <time>2026-05-18T12:23:26+02:00</time>
      </trkpt>
      <trkpt lat="48.74748" lon="6.15402">
        <ele>193.10059</ele>
        <time>2026-05-18T12:23:27+02:00</time>
      </trkpt>
      <trkpt lat="48.74754" lon="6.15393">
        <ele>193.2998</ele>
        <time>2026-05-18T12:23:28+02:00</time>
      </trkpt>
      <trkpt lat="48.74757" lon="6.15391">
        <ele>193.2998</ele>
        <time>2026-05-18T12:23:29+02:00</time>
      </trkpt>
      <trkpt lat="48.74762" lon="6.15385">
        <ele>193.5</ele>
        <time>2026-05-18T12:23:30+02:00</time>
      </trkpt>
      <trkpt lat="48.74767" lon="6.1538">
        <ele>193.7002</ele>
        <time>2026-05-18T12:23:31+02:00</time>
      </trkpt>
      <trkpt lat="48.74772" lon="6.15375">
        <ele>193.7002</ele>
        <time>2026-05-18T12:23:32+02:00</time>
      </trkpt>
      <trkpt lat="48.74776" lon="6.1537">
        <ele>193.90039</ele>
        <time>2026-05-18T12:23:33+02:00</time>
      </trkpt>
      <trkpt lat="48.74781" lon="6.15365">
        <ele>193.90039</ele>
        <time>2026-05-18T12:23:34+02:00</time>
      </trkpt>
      <trkpt lat="48.74786" lon="6.15361">
        <ele>194.10059</ele>
        <time>2026-05-18T12:23:35+02:00</time>
      </trkpt>
      <trkpt lat="48.74789" lon="6.15359">
        <ele>194</ele>
        <time>2026-05-18T12:23:36+02:00</time>
      </trkpt>
      <trkpt lat="48.74797" lon="6.15354">
        <ele>194.2998</ele>
        <time>2026-05-18T12:23:37+02:00</time>
      </trkpt>
      <trkpt lat="48.74806" lon="6.15349">
        <ele>194.10059</ele>
        <time>2026-05-18T12:23:38+02:00</time>
      </trkpt>
      <trkpt lat="48.74808" lon="6.15347">
        <ele>194.10059</ele>
        <time>2026-05-18T12:23:39+02:00</time>
      </trkpt>
      <trkpt lat="48.74814" lon="6.15344">
        <ele>194.2998</ele>
        <time>2026-05-18T12:23:40+02:00</time>
      </trkpt>
      <trkpt lat="48.74822" lon="6.15339">
        <ele>194.10059</ele>
        <time>2026-05-18T12:23:41+02:00</time>
      </trkpt>
      <trkpt lat="48.74825" lon="6.15337">
        <ele>194.2998</ele>
        <time>2026-05-18T12:23:42+02:00</time>
      </trkpt>
      <trkpt lat="48.74831" lon="6.15334">
        <ele>194.2002</ele>
        <time>2026-05-18T12:23:43+02:00</time>
      </trkpt>
      <trkpt lat="48.74837" lon="6.15331">
        <ele>194.10059</ele>
        <time>2026-05-18T12:23:44+02:00</time>
      </trkpt>
      <trkpt lat="48.74843" lon="6.15328">
        <ele>194.2002</ele>
        <time>2026-05-18T12:23:45+02:00</time>
      </trkpt>
      <trkpt lat="48.74849" lon="6.15325">
        <ele>194</ele>
        <time>2026-05-18T12:23:46+02:00</time>
      </trkpt>
      <trkpt lat="48.74854" lon="6.15322">
        <ele>193.7998</ele>
        <time>2026-05-18T12:23:47+02:00</time>
      </trkpt>
      <trkpt lat="48.7486" lon="6.15319">
        <ele>193.90039</ele>
        <time>2026-05-18T12:23:48+02:00</time>
      </trkpt>
      <trkpt lat="48.74866" lon="6.15316">
        <ele>193.7002</ele>
        <time>2026-05-18T12:23:49+02:00</time>
      </trkpt>
      <trkpt lat="48.74871" lon="6.15314">
        <ele>193.5</ele>
        <time>2026-05-18T12:23:50+02:00</time>
      </trkpt>
      <trkpt lat="48.74877" lon="6.15311">
        <ele>193.7002</ele>
        <time>2026-05-18T12:23:51+02:00</time>
      </trkpt>
      <trkpt lat="48.74882" lon="6.15309">
        <ele>193.5</ele>
        <time>2026-05-18T12:23:52+02:00</time>
      </trkpt>
      <trkpt lat="48.74888" lon="6.15307">
        <ele>193.2998</ele>
        <time>2026-05-18T12:23:53+02:00</time>
      </trkpt>
      <trkpt lat="48.74896" lon="6.15305">
        <ele>192.60059</ele>
        <time>2026-05-18T12:23:54+02:00</time>
      </trkpt>
      <trkpt lat="48.74896" lon="6.15305">
        <ele>192.60059</ele>
        <time>2026-05-18T12:23:55+02:00</time>
      </trkpt>
      <trkpt lat="48.74905" lon="6.15303">
        <ele>192.60059</ele>
        <time>2026-05-18T12:23:56+02:00</time>
      </trkpt>
      <trkpt lat="48.74914" lon="6.15302">
        <ele>192.2002</ele>
        <time>2026-05-18T12:23:57+02:00</time>
      </trkpt>
      <trkpt lat="48.74917" lon="6.15301">
        <ele>192.2002</ele>
        <time>2026-05-18T12:23:58+02:00</time>
      </trkpt>
      <trkpt lat="48.74923" lon="6.153">
        <ele>191.7998</ele>
        <time>2026-05-18T12:23:59+02:00</time>
      </trkpt>
      <trkpt lat="48.74932" lon="6.15297">
        <ele>191.60059</ele>
        <time>2026-05-18T12:24:00+02:00</time>
      </trkpt>
      <trkpt lat="48.74932" lon="6.15297">
        <ele>191.60059</ele>
        <time>2026-05-18T12:24:01+02:00</time>
      </trkpt>
      <trkpt lat="48.74942" lon="6.15295">
        <ele>191.2998</ele>
        <time>2026-05-18T12:24:02+02:00</time>
      </trkpt>
      <trkpt lat="48.74948" lon="6.15294">
        <ele>191.5</ele>
        <time>2026-05-18T12:24:03+02:00</time>
      </trkpt>
      <trkpt lat="48.74955" lon="6.15293">
        <ele>191.40039</ele>
        <time>2026-05-18T12:24:04+02:00</time>
      </trkpt>
      <trkpt lat="48.74961" lon="6.15293">
        <ele>191.2002</ele>
        <time>2026-05-18T12:24:05+02:00</time>
      </trkpt>
      <trkpt lat="48.74967" lon="6.15292">
        <ele>191</ele>
        <time>2026-05-18T12:24:06+02:00</time>
      </trkpt>
      <trkpt lat="48.74974" lon="6.15291">
        <ele>190.7998</ele>
        <time>2026-05-18T12:24:07+02:00</time>
      </trkpt>
      <trkpt lat="48.74981" lon="6.1529">
        <ele>190.7002</ele>
        <time>2026-05-18T12:24:08+02:00</time>
      </trkpt>
      <trkpt lat="48.74988" lon="6.15289">
        <ele>190.7002</ele>
        <time>2026-05-18T12:24:09+02:00</time>
      </trkpt>
      <trkpt lat="48.74996" lon="6.15288">
        <ele>190.60059</ele>
        <time>2026-05-18T12:24:10+02:00</time>
      </trkpt>
      <trkpt lat="48.75002" lon="6.15288">
        <ele>190.60059</ele>
        <time>2026-05-18T12:24:11+02:00</time>
      </trkpt>
      <trkpt lat="48.7501" lon="6.15287">
        <ele>190.40039</ele>
        <time>2026-05-18T12:24:12+02:00</time>
      </trkpt>
      <trkpt lat="48.75021" lon="6.15287">
        <ele>190.2998</ele>
        <time>2026-05-18T12:24:13+02:00</time>
      </trkpt>
      <trkpt lat="48.75024" lon="6.15287">
        <ele>190.2998</ele>
        <time>2026-05-18T12:24:14+02:00</time>
      </trkpt>
      <trkpt lat="48.75031" lon="6.15287">
        <ele>190.2998</ele>
        <time>2026-05-18T12:24:15+02:00</time>
      </trkpt>
      <trkpt lat="48.75042" lon="6.15287">
        <ele>190.2002</ele>
        <time>2026-05-18T12:24:16+02:00</time>
      </trkpt>
      <trkpt lat="48.75045" lon="6.15287">
        <ele>190.2002</ele>
        <time>2026-05-18T12:24:17+02:00</time>
      </trkpt>
      <trkpt lat="48.75052" lon="6.15286">
        <ele>190</ele>
        <time>2026-05-18T12:24:18+02:00</time>
      </trkpt>
      <trkpt lat="48.75059" lon="6.15285">
        <ele>190.2002</ele>
        <time>2026-05-18T12:24:19+02:00</time>
      </trkpt>
      <trkpt lat="48.75066" lon="6.15282">
        <ele>190.10059</ele>
        <time>2026-05-18T12:24:20+02:00</time>
      </trkpt>
      <trkpt lat="48.75072" lon="6.15279">
        <ele>190.10059</ele>
        <time>2026-05-18T12:24:21+02:00</time>
      </trkpt>
      <trkpt lat="48.75078" lon="6.15276">
        <ele>190.7002</ele>
        <time>2026-05-18T12:24:22+02:00</time>
      </trkpt>
      <trkpt lat="48.75086" lon="6.1527">
        <ele>190.7002</ele>
        <time>2026-05-18T12:24:23+02:00</time>
      </trkpt>
      <trkpt lat="48.75089" lon="6.15269">
        <ele>190.60059</ele>
        <time>2026-05-18T12:24:24+02:00</time>
      </trkpt>
      <trkpt lat="48.75095" lon="6.15266">
        <ele>191</ele>
        <time>2026-05-18T12:24:25+02:00</time>
      </trkpt>
      <trkpt lat="48.75104" lon="6.15262">
        <ele>190.5</ele>
        <time>2026-05-18T12:24:26+02:00</time>
      </trkpt>
      <trkpt lat="48.75107" lon="6.15261">
        <ele>190.5</ele>
        <time>2026-05-18T12:24:27+02:00</time>
      </trkpt>
      <trkpt lat="48.75113" lon="6.15259">
        <ele>190.7998</ele>
        <time>2026-05-18T12:24:28+02:00</time>
      </trkpt>
      <trkpt lat="48.75122" lon="6.15257">
        <ele>190.5</ele>
        <time>2026-05-18T12:24:29+02:00</time>
      </trkpt>
      <trkpt lat="48.75125" lon="6.15256">
        <ele>190.5</ele>
        <time>2026-05-18T12:24:30+02:00</time>
      </trkpt>
      <trkpt lat="48.75131" lon="6.15253">
        <ele>190.2998</ele>
        <time>2026-05-18T12:24:31+02:00</time>
      </trkpt>
      <trkpt lat="48.75137" lon="6.15251">
        <ele>190.7002</ele>
        <time>2026-05-18T12:24:32+02:00</time>
      </trkpt>
      <trkpt lat="48.75143" lon="6.15249">
        <ele>190.40039</ele>
        <time>2026-05-18T12:24:33+02:00</time>
      </trkpt>
      <trkpt lat="48.75149" lon="6.15246">
        <ele>190</ele>
        <time>2026-05-18T12:24:34+02:00</time>
      </trkpt>
      <trkpt lat="48.75154" lon="6.15244">
        <ele>189.60059</ele>
        <time>2026-05-18T12:24:35+02:00</time>
      </trkpt>
      <trkpt lat="48.7516" lon="6.15241">
        <ele>189.5</ele>
        <time>2026-05-18T12:24:36+02:00</time>
      </trkpt>
      <trkpt lat="48.75165" lon="6.15237">
        <ele>188.90039</ele>
        <time>2026-05-18T12:24:37+02:00</time>
      </trkpt>
      <trkpt lat="48.75171" lon="6.15233">
        <ele>188.90039</ele>
        <time>2026-05-18T12:24:38+02:00</time>
      </trkpt>
      <trkpt lat="48.75174" lon="6.1523">
        <ele>188.5</ele>
        <time>2026-05-18T12:24:39+02:00</time>
      </trkpt>
      <trkpt lat="48.75182" lon="6.15223">
        <ele>189</ele>
        <time>2026-05-18T12:24:40+02:00</time>
      </trkpt>
      <trkpt lat="48.75188" lon="6.15219">
        <ele>188.7002</ele>
        <time>2026-05-18T12:24:41+02:00</time>
      </trkpt>
      <trkpt lat="48.75194" lon="6.15214">
        <ele>188.90039</ele>
        <time>2026-05-18T12:24:42+02:00</time>
      </trkpt>
      <trkpt lat="48.75199" lon="6.15209">
        <ele>188.60059</ele>
        <time>2026-05-18T12:24:43+02:00</time>
      </trkpt>
      <trkpt lat="48.75205" lon="6.15204">
        <ele>188.5</ele>
        <time>2026-05-18T12:24:44+02:00</time>
      </trkpt>
      <trkpt lat="48.75213" lon="6.15197">
        <ele>188.2002</ele>
        <time>2026-05-18T12:24:45+02:00</time>
      </trkpt>
      <trkpt lat="48.75216" lon="6.15194">
        <ele>188.2002</ele>
        <time>2026-05-18T12:24:46+02:00</time>
      </trkpt>
      <trkpt lat="48.75222" lon="6.1519">
        <ele>188.5</ele>
        <time>2026-05-18T12:24:47+02:00</time>
      </trkpt>
      <trkpt lat="48.75227" lon="6.15185">
        <ele>188.2998</ele>
        <time>2026-05-18T12:24:48+02:00</time>
      </trkpt>
      <trkpt lat="48.7523" lon="6.15182">
        <ele>188.7002</ele>
        <time>2026-05-18T12:24:49+02:00</time>
      </trkpt>
      <trkpt lat="48.75239" lon="6.15174">
        <ele>188.90039</ele>
        <time>2026-05-18T12:24:50+02:00</time>
      </trkpt>
      <trkpt lat="48.75244" lon="6.15169">
        <ele>188.7998</ele>
        <time>2026-05-18T12:24:51+02:00</time>
      </trkpt>
      <trkpt lat="48.75249" lon="6.15164">
        <ele>189</ele>
        <time>2026-05-18T12:24:52+02:00</time>
      </trkpt>
      <trkpt lat="48.75255" lon="6.15158">
        <ele>188.90039</ele>
        <time>2026-05-18T12:24:53+02:00</time>
      </trkpt>
      <trkpt lat="48.7526" lon="6.15153">
        <ele>189.10059</ele>
        <time>2026-05-18T12:24:54+02:00</time>
      </trkpt>
      <trkpt lat="48.75269" lon="6.15146">
        <ele>189</ele>
        <time>2026-05-18T12:24:55+02:00</time>
      </trkpt>
      <trkpt lat="48.75272" lon="6.15143">
        <ele>189</ele>
        <time>2026-05-18T12:24:56+02:00</time>
      </trkpt>
      <trkpt lat="48.75277" lon="6.15139">
        <ele>189.2002</ele>
        <time>2026-05-18T12:24:57+02:00</time>
      </trkpt>
      <trkpt lat="48.75286" lon="6.15132">
        <ele>188.7002</ele>
        <time>2026-05-18T12:24:58+02:00</time>
      </trkpt>
      <trkpt lat="48.75286" lon="6.15132">
        <ele>188.7002</ele>
        <time>2026-05-18T12:24:59+02:00</time>
      </trkpt>
      <trkpt lat="48.75293" lon="6.15125">
        <ele>188.60059</ele>
        <time>2026-05-18T12:25:00+02:00</time>
      </trkpt>
      <trkpt lat="48.75298" lon="6.1512">
        <ele>188.7002</ele>
        <time>2026-05-18T12:25:01+02:00</time>
      </trkpt>
      <trkpt lat="48.75302" lon="6.15115">
        <ele>188.40039</ele>
        <time>2026-05-18T12:25:02+02:00</time>
      </trkpt>
      <trkpt lat="48.75306" lon="6.15111">
        <ele>189.2002</ele>
        <time>2026-05-18T12:25:03+02:00</time>
      </trkpt>
      <trkpt lat="48.7531" lon="6.15106">
        <ele>189</ele>
        <time>2026-05-18T12:25:04+02:00</time>
      </trkpt>
      <trkpt lat="48.75313" lon="6.151">
        <ele>189.60059</ele>
        <time>2026-05-18T12:25:05+02:00</time>
      </trkpt>
      <trkpt lat="48.75317" lon="6.15096">
        <ele>189.90039</ele>
        <time>2026-05-18T12:25:06+02:00</time>
      </trkpt>
      <trkpt lat="48.75321" lon="6.15092">
        <ele>189.7002</ele>
        <time>2026-05-18T12:25:07+02:00</time>
      </trkpt>
      <trkpt lat="48.75327" lon="6.15086">
        <ele>189.7998</ele>
        <time>2026-05-18T12:25:08+02:00</time>
      </trkpt>
      <trkpt lat="48.75329" lon="6.15083">
        <ele>189.7998</ele>
        <time>2026-05-18T12:25:09+02:00</time>
      </trkpt>
      <trkpt lat="48.75332" lon="6.15079">
        <ele>190</ele>
        <time>2026-05-18T12:25:10+02:00</time>
      </trkpt>
      <trkpt lat="48.75338" lon="6.15073">
        <ele>189.7002</ele>
        <time>2026-05-18T12:25:11+02:00</time>
      </trkpt>
      <trkpt lat="48.7534" lon="6.15071">
        <ele>190.2998</ele>
        <time>2026-05-18T12:25:12+02:00</time>
      </trkpt>
      <trkpt lat="48.75344" lon="6.15067">
        <ele>190.10059</ele>
        <time>2026-05-18T12:25:13+02:00</time>
      </trkpt>
      <trkpt lat="48.75348" lon="6.15063">
        <ele>189.7998</ele>
        <time>2026-05-18T12:25:14+02:00</time>
      </trkpt>
      <trkpt lat="48.75352" lon="6.15058">
        <ele>190.2998</ele>
        <time>2026-05-18T12:25:15+02:00</time>
      </trkpt>
      <trkpt lat="48.75356" lon="6.15054">
        <ele>190.60059</ele>
        <time>2026-05-18T12:25:16+02:00</time>
      </trkpt>
      <trkpt lat="48.75361" lon="6.15049">
        <ele>190.2998</ele>
        <time>2026-05-18T12:25:17+02:00</time>
      </trkpt>
      <trkpt lat="48.75366" lon="6.15045">
        <ele>190.5</ele>
        <time>2026-05-18T12:25:18+02:00</time>
      </trkpt>
      <trkpt lat="48.75371" lon="6.1504">
        <ele>190.10059</ele>
        <time>2026-05-18T12:25:19+02:00</time>
      </trkpt>
      <trkpt lat="48.75377" lon="6.15035">
        <ele>190.2998</ele>
        <time>2026-05-18T12:25:20+02:00</time>
      </trkpt>
      <trkpt lat="48.75385" lon="6.15027">
        <ele>190.40039</ele>
        <time>2026-05-18T12:25:21+02:00</time>
      </trkpt>
      <trkpt lat="48.75387" lon="6.15024">
        <ele>190.40039</ele>
        <time>2026-05-18T12:25:22+02:00</time>
      </trkpt>
      <trkpt lat="48.75393" lon="6.15019">
        <ele>190</ele>
        <time>2026-05-18T12:25:23+02:00</time>
      </trkpt>
      <trkpt lat="48.75398" lon="6.15015">
        <ele>190</ele>
        <time>2026-05-18T12:25:24+02:00</time>
      </trkpt>
      <trkpt lat="48.75403" lon="6.15009">
        <ele>189.90039</ele>
        <time>2026-05-18T12:25:25+02:00</time>
      </trkpt>
      <trkpt lat="48.75409" lon="6.15004">
        <ele>189.2998</ele>
        <time>2026-05-18T12:25:26+02:00</time>
      </trkpt>
      <trkpt lat="48.75414" lon="6.14999">
        <ele>189.7002</ele>
        <time>2026-05-18T12:25:27+02:00</time>
      </trkpt>
      <trkpt lat="48.75419" lon="6.14994">
        <ele>190.10059</ele>
        <time>2026-05-18T12:25:28+02:00</time>
      </trkpt>
      <trkpt lat="48.75424" lon="6.14989">
        <ele>189.90039</ele>
        <time>2026-05-18T12:25:29+02:00</time>
      </trkpt>
      <trkpt lat="48.7543" lon="6.14984">
        <ele>190.10059</ele>
        <time>2026-05-18T12:25:30+02:00</time>
      </trkpt>
      <trkpt lat="48.75435" lon="6.1498">
        <ele>189.7998</ele>
        <time>2026-05-18T12:25:31+02:00</time>
      </trkpt>
      <trkpt lat="48.7544" lon="6.14975">
        <ele>189.7998</ele>
        <time>2026-05-18T12:25:32+02:00</time>
      </trkpt>
      <trkpt lat="48.75445" lon="6.14971">
        <ele>189.2998</ele>
        <time>2026-05-18T12:25:33+02:00</time>
      </trkpt>
      <trkpt lat="48.7545" lon="6.14966">
        <ele>189.7002</ele>
        <time>2026-05-18T12:25:34+02:00</time>
      </trkpt>
      <trkpt lat="48.75455" lon="6.14962">
        <ele>189.40039</ele>
        <time>2026-05-18T12:25:35+02:00</time>
      </trkpt>
      <trkpt lat="48.75459" lon="6.14957">
        <ele>190.2002</ele>
        <time>2026-05-18T12:25:36+02:00</time>
      </trkpt>
      <trkpt lat="48.75465" lon="6.14952">
        <ele>190</ele>
        <time>2026-05-18T12:25:37+02:00</time>
      </trkpt>
      <trkpt lat="48.7547" lon="6.14947">
        <ele>190.40039</ele>
        <time>2026-05-18T12:25:38+02:00</time>
      </trkpt>
      <trkpt lat="48.75476" lon="6.14942">
        <ele>190.5</ele>
        <time>2026-05-18T12:25:39+02:00</time>
      </trkpt>
      <trkpt lat="48.75482" lon="6.14937">
        <ele>190.2002</ele>
        <time>2026-05-18T12:25:40+02:00</time>
      </trkpt>
      <trkpt lat="48.75487" lon="6.14932">
        <ele>190.2998</ele>
        <time>2026-05-18T12:25:41+02:00</time>
      </trkpt>
      <trkpt lat="48.75493" lon="6.14926">
        <ele>189.90039</ele>
        <time>2026-05-18T12:25:42+02:00</time>
      </trkpt>
      <trkpt lat="48.75499" lon="6.14921">
        <ele>190.40039</ele>
        <time>2026-05-18T12:25:43+02:00</time>
      </trkpt>
      <trkpt lat="48.75504" lon="6.14917">
        <ele>190.2002</ele>
        <time>2026-05-18T12:25:44+02:00</time>
      </trkpt>
      <trkpt lat="48.75513" lon="6.1491">
        <ele>190.2998</ele>
        <time>2026-05-18T12:25:45+02:00</time>
      </trkpt>
      <trkpt lat="48.75515" lon="6.14907">
        <ele>190.7002</ele>
        <time>2026-05-18T12:25:46+02:00</time>
      </trkpt>
      <trkpt lat="48.7552" lon="6.14902">
        <ele>190.5</ele>
        <time>2026-05-18T12:25:47+02:00</time>
      </trkpt>
      <trkpt lat="48.75524" lon="6.14897">
        <ele>190.7998</ele>
        <time>2026-05-18T12:25:48+02:00</time>
      </trkpt>
      <trkpt lat="48.75529" lon="6.14891">
        <ele>191.10059</ele>
        <time>2026-05-18T12:25:49+02:00</time>
      </trkpt>
      <trkpt lat="48.75533" lon="6.14886">
        <ele>191.10059</ele>
        <time>2026-05-18T12:25:50+02:00</time>
      </trkpt>
      <trkpt lat="48.75537" lon="6.1488">
        <ele>191.10059</ele>
        <time>2026-05-18T12:25:51+02:00</time>
      </trkpt>
      <trkpt lat="48.75544" lon="6.14872">
        <ele>191.2002</ele>
        <time>2026-05-18T12:25:52+02:00</time>
      </trkpt>
      <trkpt lat="48.75547" lon="6.1487">
        <ele>191.10059</ele>
        <time>2026-05-18T12:25:53+02:00</time>
      </trkpt>
      <trkpt lat="48.75552" lon="6.14865">
        <ele>191.10059</ele>
        <time>2026-05-18T12:25:54+02:00</time>
      </trkpt>
      <trkpt lat="48.75557" lon="6.1486">
        <ele>191</ele>
        <time>2026-05-18T12:25:55+02:00</time>
      </trkpt>
      <trkpt lat="48.75563" lon="6.14855">
        <ele>191.10059</ele>
        <time>2026-05-18T12:25:56+02:00</time>
      </trkpt>
      <trkpt lat="48.75569" lon="6.1485">
        <ele>191</ele>
        <time>2026-05-18T12:25:57+02:00</time>
      </trkpt>
      <trkpt lat="48.75574" lon="6.14844">
        <ele>191.10059</ele>
        <time>2026-05-18T12:25:58+02:00</time>
      </trkpt>
      <trkpt lat="48.75583" lon="6.14837">
        <ele>191.10059</ele>
        <time>2026-05-18T12:25:59+02:00</time>
      </trkpt>
      <trkpt lat="48.75585" lon="6.14834">
        <ele>191.10059</ele>
        <time>2026-05-18T12:26:00+02:00</time>
      </trkpt>
      <trkpt lat="48.75591" lon="6.14829">
        <ele>191.10059</ele>
        <time>2026-05-18T12:26:01+02:00</time>
      </trkpt>
      <trkpt lat="48.75596" lon="6.14824">
        <ele>191.10059</ele>
        <time>2026-05-18T12:26:02+02:00</time>
      </trkpt>
      <trkpt lat="48.75602" lon="6.1482">
        <ele>191.10059</ele>
        <time>2026-05-18T12:26:03+02:00</time>
      </trkpt>
      <trkpt lat="48.75608" lon="6.14815">
        <ele>191</ele>
        <time>2026-05-18T12:26:04+02:00</time>
      </trkpt>
      <trkpt lat="48.75613" lon="6.1481">
        <ele>191.2002</ele>
        <time>2026-05-18T12:26:05+02:00</time>
      </trkpt>
      <trkpt lat="48.75619" lon="6.14806">
        <ele>191</ele>
        <time>2026-05-18T12:26:06+02:00</time>
      </trkpt>
      <trkpt lat="48.75625" lon="6.14803">
        <ele>191.10059</ele>
        <time>2026-05-18T12:26:07+02:00</time>
      </trkpt>
      <trkpt lat="48.75631" lon="6.14802">
        <ele>191</ele>
        <time>2026-05-18T12:26:08+02:00</time>
      </trkpt>
      <trkpt lat="48.75638" lon="6.14802">
        <ele>190.90039</ele>
        <time>2026-05-18T12:26:09+02:00</time>
      </trkpt>
      <trkpt lat="48.75644" lon="6.14802">
        <ele>190.7998</ele>
        <time>2026-05-18T12:26:10+02:00</time>
      </trkpt>
      <trkpt lat="48.75652" lon="6.14804">
        <ele>190.60059</ele>
        <time>2026-05-18T12:26:11+02:00</time>
      </trkpt>
      <trkpt lat="48.75659" lon="6.14805">
        <ele>190.2998</ele>
        <time>2026-05-18T12:26:12+02:00</time>
      </trkpt>
      <trkpt lat="48.75665" lon="6.14807">
        <ele>189.2998</ele>
        <time>2026-05-18T12:26:13+02:00</time>
      </trkpt>
      <trkpt lat="48.75673" lon="6.14809">
        <ele>189.2002</ele>
        <time>2026-05-18T12:26:14+02:00</time>
      </trkpt>
      <trkpt lat="48.7568" lon="6.1481">
        <ele>189.10059</ele>
        <time>2026-05-18T12:26:15+02:00</time>
      </trkpt>
      <trkpt lat="48.75687" lon="6.14809">
        <ele>189</ele>
        <time>2026-05-18T12:26:16+02:00</time>
      </trkpt>
      <trkpt lat="48.75694" lon="6.14807">
        <ele>189</ele>
        <time>2026-05-18T12:26:17+02:00</time>
      </trkpt>
      <trkpt lat="48.75702" lon="6.14805">
        <ele>189.7002</ele>
        <time>2026-05-18T12:26:18+02:00</time>
      </trkpt>
      <trkpt lat="48.75709" lon="6.14802">
        <ele>189.60059</ele>
        <time>2026-05-18T12:26:19+02:00</time>
      </trkpt>
      <trkpt lat="48.75716" lon="6.14799">
        <ele>189.2998</ele>
        <time>2026-05-18T12:26:20+02:00</time>
      </trkpt>
      <trkpt lat="48.75722" lon="6.14796">
        <ele>189.60059</ele>
        <time>2026-05-18T12:26:21+02:00</time>
      </trkpt>
      <trkpt lat="48.75729" lon="6.14793">
        <ele>189</ele>
        <time>2026-05-18T12:26:22+02:00</time>
      </trkpt>
      <trkpt lat="48.75739" lon="6.14788">
        <ele>188.40039</ele>
        <time>2026-05-18T12:26:23+02:00</time>
      </trkpt>
      <trkpt lat="48.75742" lon="6.14787">
        <ele>188.40039</ele>
        <time>2026-05-18T12:26:24+02:00</time>
      </trkpt>
      <trkpt lat="48.75749" lon="6.14784">
        <ele>188.10059</ele>
        <time>2026-05-18T12:26:25+02:00</time>
      </trkpt>
      <trkpt lat="48.75755" lon="6.14782">
        <ele>188</ele>
        <time>2026-05-18T12:26:26+02:00</time>
      </trkpt>
      <trkpt lat="48.75765" lon="6.14777">
        <ele>188.60059</ele>
        <time>2026-05-18T12:26:27+02:00</time>
      </trkpt>
      <trkpt lat="48.75768" lon="6.14775">
        <ele>188.5</ele>
        <time>2026-05-18T12:26:28+02:00</time>
      </trkpt>
      <trkpt lat="48.75775" lon="6.14772">
        <ele>188.40039</ele>
        <time>2026-05-18T12:26:29+02:00</time>
      </trkpt>
      <trkpt lat="48.75785" lon="6.14768">
        <ele>188.90039</ele>
        <time>2026-05-18T12:26:30+02:00</time>
      </trkpt>
      <trkpt lat="48.75788" lon="6.14767">
        <ele>188.90039</ele>
        <time>2026-05-18T12:26:31+02:00</time>
      </trkpt>
      <trkpt lat="48.75795" lon="6.14764">
        <ele>188.7002</ele>
        <time>2026-05-18T12:26:32+02:00</time>
      </trkpt>
      <trkpt lat="48.75802" lon="6.14761">
        <ele>189.10059</ele>
        <time>2026-05-18T12:26:33+02:00</time>
      </trkpt>
      <trkpt lat="48.75808" lon="6.14758">
        <ele>188.90039</ele>
        <time>2026-05-18T12:26:34+02:00</time>
      </trkpt>
      <trkpt lat="48.75815" lon="6.14756">
        <ele>188.60059</ele>
        <time>2026-05-18T12:26:35+02:00</time>
      </trkpt>
      <trkpt lat="48.75822" lon="6.14753">
        <ele>188.60059</ele>
        <time>2026-05-18T12:26:36+02:00</time>
      </trkpt>
      <trkpt lat="48.75828" lon="6.14751">
        <ele>188</ele>
        <time>2026-05-18T12:26:37+02:00</time>
      </trkpt>
      <trkpt lat="48.75835" lon="6.14748">
        <ele>187.5</ele>
        <time>2026-05-18T12:26:38+02:00</time>
      </trkpt>
      <trkpt lat="48.75842" lon="6.14746">
        <ele>187.5</ele>
        <time>2026-05-18T12:26:39+02:00</time>
      </trkpt>
      <trkpt lat="48.75852" lon="6.14742">
        <ele>187.7998</ele>
        <time>2026-05-18T12:26:40+02:00</time>
      </trkpt>
      <trkpt lat="48.75855" lon="6.1474">
        <ele>187.7998</ele>
        <time>2026-05-18T12:26:41+02:00</time>
      </trkpt>
      <trkpt lat="48.75861" lon="6.14738">
        <ele>187.7002</ele>
        <time>2026-05-18T12:26:42+02:00</time>
      </trkpt>
      <trkpt lat="48.75868" lon="6.14735">
        <ele>188.2002</ele>
        <time>2026-05-18T12:26:43+02:00</time>
      </trkpt>
      <trkpt lat="48.75874" lon="6.14732">
        <ele>188.10059</ele>
        <time>2026-05-18T12:26:44+02:00</time>
      </trkpt>
      <trkpt lat="48.75881" lon="6.1473">
        <ele>188</ele>
        <time>2026-05-18T12:26:45+02:00</time>
      </trkpt>
      <trkpt lat="48.75887" lon="6.14727">
        <ele>188.40039</ele>
        <time>2026-05-18T12:26:46+02:00</time>
      </trkpt>
      <trkpt lat="48.75897" lon="6.14723">
        <ele>188.2998</ele>
        <time>2026-05-18T12:26:47+02:00</time>
      </trkpt>
      <trkpt lat="48.759" lon="6.14722">
        <ele>188.2998</ele>
        <time>2026-05-18T12:26:48+02:00</time>
      </trkpt>
      <trkpt lat="48.75907" lon="6.1472">
        <ele>188.2002</ele>
        <time>2026-05-18T12:26:49+02:00</time>
      </trkpt>
      <trkpt lat="48.75914" lon="6.14718">
        <ele>188.40039</ele>
        <time>2026-05-18T12:26:50+02:00</time>
      </trkpt>
      <trkpt lat="48.7592" lon="6.14715">
        <ele>188.2998</ele>
        <time>2026-05-18T12:26:51+02:00</time>
      </trkpt>
      <trkpt lat="48.75927" lon="6.14712">
        <ele>188.10059</ele>
        <time>2026-05-18T12:26:52+02:00</time>
      </trkpt>
      <trkpt lat="48.75933" lon="6.14709">
        <ele>188.10059</ele>
        <time>2026-05-18T12:26:53+02:00</time>
      </trkpt>
      <trkpt lat="48.75939" lon="6.14707">
        <ele>187.7002</ele>
        <time>2026-05-18T12:26:54+02:00</time>
      </trkpt>
      <trkpt lat="48.75946" lon="6.14704">
        <ele>187.5</ele>
        <time>2026-05-18T12:26:55+02:00</time>
      </trkpt>
      <trkpt lat="48.75953" lon="6.14701">
        <ele>187.90039</ele>
        <time>2026-05-18T12:26:56+02:00</time>
      </trkpt>
      <trkpt lat="48.75963" lon="6.14697">
        <ele>187.7998</ele>
        <time>2026-05-18T12:26:57+02:00</time>
      </trkpt>
      <trkpt lat="48.75963" lon="6.14697">
        <ele>187.7998</ele>
        <time>2026-05-18T12:26:58+02:00</time>
      </trkpt>
      <trkpt lat="48.75972" lon="6.14693">
        <ele>188.40039</ele>
        <time>2026-05-18T12:26:59+02:00</time>
      </trkpt>
      <trkpt lat="48.75979" lon="6.1469">
        <ele>188.2998</ele>
        <time>2026-05-18T12:27:00+02:00</time>
      </trkpt>
      <trkpt lat="48.75985" lon="6.14686">
        <ele>188.2998</ele>
        <time>2026-05-18T12:27:01+02:00</time>
      </trkpt>
      <trkpt lat="48.75992" lon="6.14683">
        <ele>189</ele>
        <time>2026-05-18T12:27:02+02:00</time>
      </trkpt>
      <trkpt lat="48.75998" lon="6.14679">
        <ele>188.90039</ele>
        <time>2026-05-18T12:27:03+02:00</time>
      </trkpt>
      <trkpt lat="48.76005" lon="6.14676">
        <ele>189.40039</ele>
        <time>2026-05-18T12:27:04+02:00</time>
      </trkpt>
      <trkpt lat="48.76011" lon="6.14672">
        <ele>189.40039</ele>
        <time>2026-05-18T12:27:05+02:00</time>
      </trkpt>
      <trkpt lat="48.76018" lon="6.14667">
        <ele>190</ele>
        <time>2026-05-18T12:27:06+02:00</time>
      </trkpt>
      <trkpt lat="48.76024" lon="6.14663">
        <ele>190</ele>
        <time>2026-05-18T12:27:07+02:00</time>
      </trkpt>
      <trkpt lat="48.7603" lon="6.14658">
        <ele>190.60059</ele>
        <time>2026-05-18T12:27:08+02:00</time>
      </trkpt>
      <trkpt lat="48.76037" lon="6.14652">
        <ele>190.5</ele>
        <time>2026-05-18T12:27:09+02:00</time>
      </trkpt>
      <trkpt lat="48.76043" lon="6.14647">
        <ele>190.60059</ele>
        <time>2026-05-18T12:27:10+02:00</time>
      </trkpt>
      <trkpt lat="48.7605" lon="6.14642">
        <ele>190.2002</ele>
        <time>2026-05-18T12:27:11+02:00</time>
      </trkpt>
      <trkpt lat="48.76056" lon="6.14636">
        <ele>189.90039</ele>
        <time>2026-05-18T12:27:12+02:00</time>
      </trkpt>
      <trkpt lat="48.76062" lon="6.1463">
        <ele>189.90039</ele>
        <time>2026-05-18T12:27:13+02:00</time>
      </trkpt>
      <trkpt lat="48.76068" lon="6.14624">
        <ele>189.90039</ele>
        <time>2026-05-18T12:27:14+02:00</time>
      </trkpt>
      <trkpt lat="48.76074" lon="6.14617">
        <ele>189.7002</ele>
        <time>2026-05-18T12:27:15+02:00</time>
      </trkpt>
      <trkpt lat="48.7608" lon="6.14611">
        <ele>189.7002</ele>
        <time>2026-05-18T12:27:16+02:00</time>
      </trkpt>
      <trkpt lat="48.76088" lon="6.14601">
        <ele>189.60059</ele>
        <time>2026-05-18T12:27:17+02:00</time>
      </trkpt>
      <trkpt lat="48.76091" lon="6.14598">
        <ele>189.40039</ele>
        <time>2026-05-18T12:27:18+02:00</time>
      </trkpt>
      <trkpt lat="48.76096" lon="6.14591">
        <ele>189.10059</ele>
        <time>2026-05-18T12:27:19+02:00</time>
      </trkpt>
      <trkpt lat="48.76102" lon="6.14583">
        <ele>189</ele>
        <time>2026-05-18T12:27:20+02:00</time>
      </trkpt>
      <trkpt lat="48.76107" lon="6.14576">
        <ele>188.90039</ele>
        <time>2026-05-18T12:27:21+02:00</time>
      </trkpt>
      <trkpt lat="48.76112" lon="6.14569">
        <ele>188.7998</ele>
        <time>2026-05-18T12:27:22+02:00</time>
      </trkpt>
      <trkpt lat="48.76117" lon="6.14562">
        <ele>188.7002</ele>
        <time>2026-05-18T12:27:23+02:00</time>
      </trkpt>
      <trkpt lat="48.76122" lon="6.14555">
        <ele>188.90039</ele>
        <time>2026-05-18T12:27:24+02:00</time>
      </trkpt>
      <trkpt lat="48.76127" lon="6.14547">
        <ele>188.7998</ele>
        <time>2026-05-18T12:27:25+02:00</time>
      </trkpt>
      <trkpt lat="48.76132" lon="6.1454">
        <ele>188.60059</ele>
        <time>2026-05-18T12:27:26+02:00</time>
      </trkpt>
      <trkpt lat="48.76136" lon="6.14533">
        <ele>188.60059</ele>
        <time>2026-05-18T12:27:27+02:00</time>
      </trkpt>
      <trkpt lat="48.76141" lon="6.14525">
        <ele>188.60059</ele>
        <time>2026-05-18T12:27:28+02:00</time>
      </trkpt>
      <trkpt lat="48.76145" lon="6.14517">
        <ele>188.60059</ele>
        <time>2026-05-18T12:27:29+02:00</time>
      </trkpt>
      <trkpt lat="48.7615" lon="6.14509">
        <ele>188.7998</ele>
        <time>2026-05-18T12:27:30+02:00</time>
      </trkpt>
      <trkpt lat="48.76155" lon="6.14501">
        <ele>188.7998</ele>
        <time>2026-05-18T12:27:31+02:00</time>
      </trkpt>
      <trkpt lat="48.76159" lon="6.14494">
        <ele>188.7998</ele>
        <time>2026-05-18T12:27:32+02:00</time>
      </trkpt>
      <trkpt lat="48.76165" lon="6.14486">
        <ele>188.90039</ele>
        <time>2026-05-18T12:27:33+02:00</time>
      </trkpt>
      <trkpt lat="48.7617" lon="6.14479">
        <ele>189</ele>
        <time>2026-05-18T12:27:34+02:00</time>
      </trkpt>
      <trkpt lat="48.76174" lon="6.14471">
        <ele>188.7002</ele>
        <time>2026-05-18T12:27:35+02:00</time>
      </trkpt>
      <trkpt lat="48.76181" lon="6.1446">
        <ele>189</ele>
        <time>2026-05-18T12:27:36+02:00</time>
      </trkpt>
      <trkpt lat="48.76183" lon="6.14456">
        <ele>189</ele>
        <time>2026-05-18T12:27:37+02:00</time>
      </trkpt>
      <trkpt lat="48.76188" lon="6.14449">
        <ele>189</ele>
        <time>2026-05-18T12:27:38+02:00</time>
      </trkpt>
      <trkpt lat="48.76195" lon="6.14438">
        <ele>189</ele>
        <time>2026-05-18T12:27:39+02:00</time>
      </trkpt>
      <trkpt lat="48.76195" lon="6.14438">
        <ele>189</ele>
        <time>2026-05-18T12:27:40+02:00</time>
      </trkpt>
      <trkpt lat="48.76202" lon="6.14427">
        <ele>188.90039</ele>
        <time>2026-05-18T12:27:41+02:00</time>
      </trkpt>
      <trkpt lat="48.76207" lon="6.1442">
        <ele>188.90039</ele>
        <time>2026-05-18T12:27:42+02:00</time>
      </trkpt>
      <trkpt lat="48.76211" lon="6.14412">
        <ele>189</ele>
        <time>2026-05-18T12:27:43+02:00</time>
      </trkpt>
      <trkpt lat="48.76215" lon="6.14405">
        <ele>189</ele>
        <time>2026-05-18T12:27:44+02:00</time>
      </trkpt>
      <trkpt lat="48.76219" lon="6.14399">
        <ele>189.10059</ele>
        <time>2026-05-18T12:27:45+02:00</time>
      </trkpt>
      <trkpt lat="48.76223" lon="6.14393">
        <ele>189.2998</ele>
        <time>2026-05-18T12:27:46+02:00</time>
      </trkpt>
      <trkpt lat="48.76227" lon="6.14388">
        <ele>189.10059</ele>
        <time>2026-05-18T12:27:47+02:00</time>
      </trkpt>
      <trkpt lat="48.7623" lon="6.14382">
        <ele>189.2998</ele>
        <time>2026-05-18T12:27:48+02:00</time>
      </trkpt>
      <trkpt lat="48.76235" lon="6.14376">
        <ele>189.40039</ele>
        <time>2026-05-18T12:27:49+02:00</time>
      </trkpt>
      <trkpt lat="48.76239" lon="6.1437">
        <ele>189.10059</ele>
        <time>2026-05-18T12:27:50+02:00</time>
      </trkpt>
      <trkpt lat="48.76244" lon="6.14363">
        <ele>189.10059</ele>
        <time>2026-05-18T12:27:51+02:00</time>
      </trkpt>
      <trkpt lat="48.76249" lon="6.14356">
        <ele>189.10059</ele>
        <time>2026-05-18T12:27:52+02:00</time>
      </trkpt>
      <trkpt lat="48.76255" lon="6.14348">
        <ele>189.10059</ele>
        <time>2026-05-18T12:27:53+02:00</time>
      </trkpt>
      <trkpt lat="48.76261" lon="6.1434">
        <ele>189.2002</ele>
        <time>2026-05-18T12:27:54+02:00</time>
      </trkpt>
      <trkpt lat="48.76269" lon="6.14329">
        <ele>189.2002</ele>
        <time>2026-05-18T12:27:55+02:00</time>
      </trkpt>
      <trkpt lat="48.76272" lon="6.14325">
        <ele>188.7998</ele>
        <time>2026-05-18T12:27:56+02:00</time>
      </trkpt>
      <trkpt lat="48.76278" lon="6.14317">
        <ele>188.7998</ele>
        <time>2026-05-18T12:27:57+02:00</time>
      </trkpt>
      <trkpt lat="48.76286" lon="6.14307">
        <ele>189.40039</ele>
        <time>2026-05-18T12:27:58+02:00</time>
      </trkpt>
      <trkpt lat="48.76289" lon="6.14304">
        <ele>189.2002</ele>
        <time>2026-05-18T12:27:59+02:00</time>
      </trkpt>
      <trkpt lat="48.76294" lon="6.14297">
        <ele>189.2998</ele>
        <time>2026-05-18T12:28:00+02:00</time>
      </trkpt>
      <trkpt lat="48.76302" lon="6.14288">
        <ele>189.5</ele>
        <time>2026-05-18T12:28:01+02:00</time>
      </trkpt>
      <trkpt lat="48.76305" lon="6.14285">
        <ele>189.2002</ele>
        <time>2026-05-18T12:28:02+02:00</time>
      </trkpt>
      <trkpt lat="48.7631" lon="6.14279">
        <ele>189.2002</ele>
        <time>2026-05-18T12:28:03+02:00</time>
      </trkpt>
      <trkpt lat="48.76318" lon="6.14269">
        <ele>189.2002</ele>
        <time>2026-05-18T12:28:04+02:00</time>
      </trkpt>
      <trkpt lat="48.76321" lon="6.14265">
        <ele>189</ele>
        <time>2026-05-18T12:28:05+02:00</time>
      </trkpt>
      <trkpt lat="48.76327" lon="6.14259">
        <ele>189</ele>
        <time>2026-05-18T12:28:06+02:00</time>
      </trkpt>
      <trkpt lat="48.76332" lon="6.14252">
        <ele>189</ele>
        <time>2026-05-18T12:28:07+02:00</time>
      </trkpt>
      <trkpt lat="48.76337" lon="6.14245">
        <ele>189.2002</ele>
        <time>2026-05-18T12:28:08+02:00</time>
      </trkpt>
      <trkpt lat="48.76342" lon="6.14238">
        <ele>189.2002</ele>
        <time>2026-05-18T12:28:09+02:00</time>
      </trkpt>
      <trkpt lat="48.76349" lon="6.14226">
        <ele>189.10059</ele>
        <time>2026-05-18T12:28:10+02:00</time>
      </trkpt>
      <trkpt lat="48.76351" lon="6.14222">
        <ele>189.10059</ele>
        <time>2026-05-18T12:28:11+02:00</time>
      </trkpt>
      <trkpt lat="48.76354" lon="6.14213">
        <ele>189.40039</ele>
        <time>2026-05-18T12:28:12+02:00</time>
      </trkpt>
      <trkpt lat="48.7636" lon="6.142">
        <ele>189.5</ele>
        <time>2026-05-18T12:28:13+02:00</time>
      </trkpt>
      <trkpt lat="48.76362" lon="6.14196">
        <ele>189.2998</ele>
        <time>2026-05-18T12:28:14+02:00</time>
      </trkpt>
      <trkpt lat="48.76365" lon="6.14188">
        <ele>189.2998</ele>
        <time>2026-05-18T12:28:15+02:00</time>
      </trkpt>
      <trkpt lat="48.76369" lon="6.14181">
        <ele>189.10059</ele>
        <time>2026-05-18T12:28:16+02:00</time>
      </trkpt>
      <trkpt lat="48.76375" lon="6.14174">
        <ele>188.90039</ele>
        <time>2026-05-18T12:28:17+02:00</time>
      </trkpt>
      <trkpt lat="48.7638" lon="6.14167">
        <ele>188.7998</ele>
        <time>2026-05-18T12:28:18+02:00</time>
      </trkpt>
      <trkpt lat="48.76386" lon="6.14161">
        <ele>188.7002</ele>
        <time>2026-05-18T12:28:19+02:00</time>
      </trkpt>
      <trkpt lat="48.76392" lon="6.14155">
        <ele>188.60059</ele>
        <time>2026-05-18T12:28:20+02:00</time>
      </trkpt>
      <trkpt lat="48.76398" lon="6.1415">
        <ele>188.5</ele>
        <time>2026-05-18T12:28:21+02:00</time>
      </trkpt>
      <trkpt lat="48.76404" lon="6.14145">
        <ele>188.40039</ele>
        <time>2026-05-18T12:28:22+02:00</time>
      </trkpt>
      <trkpt lat="48.7641" lon="6.1414">
        <ele>188.2998</ele>
        <time>2026-05-18T12:28:23+02:00</time>
      </trkpt>
      <trkpt lat="48.76417" lon="6.14135">
        <ele>188.2002</ele>
        <time>2026-05-18T12:28:24+02:00</time>
      </trkpt>
      <trkpt lat="48.76423" lon="6.1413">
        <ele>188.2002</ele>
        <time>2026-05-18T12:28:25+02:00</time>
      </trkpt>
      <trkpt lat="48.76429" lon="6.14126">
        <ele>188.40039</ele>
        <time>2026-05-18T12:28:26+02:00</time>
      </trkpt>
      <trkpt lat="48.76436" lon="6.14121">
        <ele>188.2998</ele>
        <time>2026-05-18T12:28:27+02:00</time>
      </trkpt>
      <trkpt lat="48.76442" lon="6.14117">
        <ele>188.60059</ele>
        <time>2026-05-18T12:28:28+02:00</time>
      </trkpt>
      <trkpt lat="48.76448" lon="6.14113">
        <ele>188.5</ele>
        <time>2026-05-18T12:28:29+02:00</time>
      </trkpt>
      <trkpt lat="48.76454" lon="6.14109">
        <ele>188.7998</ele>
        <time>2026-05-18T12:28:30+02:00</time>
      </trkpt>
      <trkpt lat="48.7646" lon="6.14105">
        <ele>188.7998</ele>
        <time>2026-05-18T12:28:31+02:00</time>
      </trkpt>
      <trkpt lat="48.76466" lon="6.14101">
        <ele>189.10059</ele>
        <time>2026-05-18T12:28:32+02:00</time>
      </trkpt>
      <trkpt lat="48.76475" lon="6.14096">
        <ele>189</ele>
        <time>2026-05-18T12:28:33+02:00</time>
      </trkpt>
      <trkpt lat="48.76475" lon="6.14096">
        <ele>189</ele>
        <time>2026-05-18T12:28:34+02:00</time>
      </trkpt>
      <trkpt lat="48.76484" lon="6.14091">
        <ele>189.2998</ele>
        <time>2026-05-18T12:28:35+02:00</time>
      </trkpt>
      <trkpt lat="48.76491" lon="6.14089">
        <ele>189.2002</ele>
        <time>2026-05-18T12:28:36+02:00</time>
      </trkpt>
      <trkpt lat="48.76497" lon="6.14087">
        <ele>189.2002</ele>
        <time>2026-05-18T12:28:37+02:00</time>
      </trkpt>
      <trkpt lat="48.76504" lon="6.14085">
        <ele>189.10059</ele>
        <time>2026-05-18T12:28:38+02:00</time>
      </trkpt>
      <trkpt lat="48.76511" lon="6.14085">
        <ele>189.10059</ele>
        <time>2026-05-18T12:28:39+02:00</time>
      </trkpt>
      <trkpt lat="48.76518" lon="6.14085">
        <ele>189.10059</ele>
        <time>2026-05-18T12:28:40+02:00</time>
      </trkpt>
      <trkpt lat="48.76524" lon="6.14086">
        <ele>189</ele>
        <time>2026-05-18T12:28:41+02:00</time>
      </trkpt>
      <trkpt lat="48.76534" lon="6.14088">
        <ele>189</ele>
        <time>2026-05-18T12:28:42+02:00</time>
      </trkpt>
      <trkpt lat="48.76534" lon="6.14088">
        <ele>189</ele>
        <time>2026-05-18T12:28:43+02:00</time>
      </trkpt>
      <trkpt lat="48.76544" lon="6.1409">
        <ele>189</ele>
        <time>2026-05-18T12:28:44+02:00</time>
      </trkpt>
      <trkpt lat="48.76554" lon="6.1409">
        <ele>189</ele>
        <time>2026-05-18T12:28:45+02:00</time>
      </trkpt>
      <trkpt lat="48.76557" lon="6.1409">
        <ele>189</ele>
        <time>2026-05-18T12:28:46+02:00</time>
      </trkpt>
      <trkpt lat="48.76564" lon="6.14089">
        <ele>189</ele>
        <time>2026-05-18T12:28:47+02:00</time>
      </trkpt>
      <trkpt lat="48.76574" lon="6.14088">
        <ele>188.7998</ele>
        <time>2026-05-18T12:28:48+02:00</time>
      </trkpt>
      <trkpt lat="48.76574" lon="6.14088">
        <ele>188.7998</ele>
        <time>2026-05-18T12:28:49+02:00</time>
      </trkpt>
      <trkpt lat="48.76584" lon="6.14086">
        <ele>188.2998</ele>
        <time>2026-05-18T12:28:50+02:00</time>
      </trkpt>
      <trkpt lat="48.76594" lon="6.14084">
        <ele>187.60059</ele>
        <time>2026-05-18T12:28:51+02:00</time>
      </trkpt>
      <trkpt lat="48.76597" lon="6.14083">
        <ele>187.60059</ele>
        <time>2026-05-18T12:28:52+02:00</time>
      </trkpt>
      <trkpt lat="48.76604" lon="6.14081">
        <ele>187.40039</ele>
        <time>2026-05-18T12:28:53+02:00</time>
      </trkpt>
      <trkpt lat="48.76611" lon="6.14079">
        <ele>187.40039</ele>
        <time>2026-05-18T12:28:54+02:00</time>
      </trkpt>
      <trkpt lat="48.76618" lon="6.14077">
        <ele>187.40039</ele>
        <time>2026-05-18T12:28:55+02:00</time>
      </trkpt>
      <trkpt lat="48.76624" lon="6.14076">
        <ele>187.40039</ele>
        <time>2026-05-18T12:28:56+02:00</time>
      </trkpt>
      <trkpt lat="48.76634" lon="6.14073">
        <ele>187.7002</ele>
        <time>2026-05-18T12:28:57+02:00</time>
      </trkpt>
      <trkpt lat="48.76637" lon="6.14072">
        <ele>187.7002</ele>
        <time>2026-05-18T12:28:58+02:00</time>
      </trkpt>
      <trkpt lat="48.76644" lon="6.14071">
        <ele>187.7002</ele>
        <time>2026-05-18T12:28:59+02:00</time>
      </trkpt>
      <trkpt lat="48.76654" lon="6.14068">
        <ele>187.7002</ele>
        <time>2026-05-18T12:29:00+02:00</time>
      </trkpt>
      <trkpt lat="48.76657" lon="6.14068">
        <ele>187.7998</ele>
        <time>2026-05-18T12:29:01+02:00</time>
      </trkpt>
      <trkpt lat="48.76664" lon="6.14066">
        <ele>188.60059</ele>
        <time>2026-05-18T12:29:02+02:00</time>
      </trkpt>
      <trkpt lat="48.76671" lon="6.14064">
        <ele>188.60059</ele>
        <time>2026-05-18T12:29:03+02:00</time>
      </trkpt>
      <trkpt lat="48.76677" lon="6.14063">
        <ele>188.40039</ele>
        <time>2026-05-18T12:29:04+02:00</time>
      </trkpt>
      <trkpt lat="48.76684" lon="6.14062">
        <ele>188.2998</ele>
        <time>2026-05-18T12:29:05+02:00</time>
      </trkpt>
      <trkpt lat="48.7669" lon="6.14061">
        <ele>188.2998</ele>
        <time>2026-05-18T12:29:06+02:00</time>
      </trkpt>
      <trkpt lat="48.76701" lon="6.14059">
        <ele>188.10059</ele>
        <time>2026-05-18T12:29:07+02:00</time>
      </trkpt>
      <trkpt lat="48.76704" lon="6.14059">
        <ele>188.10059</ele>
        <time>2026-05-18T12:29:08+02:00</time>
      </trkpt>
      <trkpt lat="48.7671" lon="6.14058">
        <ele>189</ele>
        <time>2026-05-18T12:29:09+02:00</time>
      </trkpt>
      <trkpt lat="48.7672" lon="6.14056">
        <ele>188.7998</ele>
        <time>2026-05-18T12:29:10+02:00</time>
      </trkpt>
      <trkpt lat="48.7672" lon="6.14056">
        <ele>188.7998</ele>
        <time>2026-05-18T12:29:11+02:00</time>
      </trkpt>
      <trkpt lat="48.7673" lon="6.14055">
        <ele>188.60059</ele>
        <time>2026-05-18T12:29:12+02:00</time>
      </trkpt>
      <trkpt lat="48.76739" lon="6.14053">
        <ele>188.5</ele>
        <time>2026-05-18T12:29:13+02:00</time>
      </trkpt>
      <trkpt lat="48.76742" lon="6.14052">
        <ele>188.2998</ele>
        <time>2026-05-18T12:29:14+02:00</time>
      </trkpt>
      <trkpt lat="48.76749" lon="6.14052">
        <ele>188.2002</ele>
        <time>2026-05-18T12:29:15+02:00</time>
      </trkpt>
      <trkpt lat="48.76758" lon="6.1405">
        <ele>188</ele>
        <time>2026-05-18T12:29:16+02:00</time>
      </trkpt>
      <trkpt lat="48.76761" lon="6.1405">
        <ele>188</ele>
        <time>2026-05-18T12:29:17+02:00</time>
      </trkpt>
      <trkpt lat="48.76768" lon="6.14049">
        <ele>188.2998</ele>
        <time>2026-05-18T12:29:18+02:00</time>
      </trkpt>
      <trkpt lat="48.76774" lon="6.14048">
        <ele>188.2002</ele>
        <time>2026-05-18T12:29:19+02:00</time>
      </trkpt>
      <trkpt lat="48.7678" lon="6.14047">
        <ele>188</ele>
        <time>2026-05-18T12:29:20+02:00</time>
      </trkpt>
      <trkpt lat="48.76787" lon="6.14047">
        <ele>187.90039</ele>
        <time>2026-05-18T12:29:21+02:00</time>
      </trkpt>
      <trkpt lat="48.76793" lon="6.14047">
        <ele>187.7998</ele>
        <time>2026-05-18T12:29:22+02:00</time>
      </trkpt>
      <trkpt lat="48.768" lon="6.14046">
        <ele>187.7002</ele>
        <time>2026-05-18T12:29:23+02:00</time>
      </trkpt>
      <trkpt lat="48.76806" lon="6.14046">
        <ele>187.60059</ele>
        <time>2026-05-18T12:29:24+02:00</time>
      </trkpt>
      <trkpt lat="48.76812" lon="6.14045">
        <ele>187.5</ele>
        <time>2026-05-18T12:29:25+02:00</time>
      </trkpt>
      <trkpt lat="48.76819" lon="6.14045">
        <ele>187.5</ele>
        <time>2026-05-18T12:29:26+02:00</time>
      </trkpt>
      <trkpt lat="48.76825" lon="6.14045">
        <ele>187.40039</ele>
        <time>2026-05-18T12:29:27+02:00</time>
      </trkpt>
      <trkpt lat="48.76832" lon="6.14044">
        <ele>187.40039</ele>
        <time>2026-05-18T12:29:28+02:00</time>
      </trkpt>
      <trkpt lat="48.76839" lon="6.14044">
        <ele>187.40039</ele>
        <time>2026-05-18T12:29:29+02:00</time>
      </trkpt>
      <trkpt lat="48.76846" lon="6.14045">
        <ele>187.40039</ele>
        <time>2026-05-18T12:29:30+02:00</time>
      </trkpt>
      <trkpt lat="48.76853" lon="6.14045">
        <ele>187.40039</ele>
        <time>2026-05-18T12:29:31+02:00</time>
      </trkpt>
      <trkpt lat="48.7688" lon="6.14047">
        <ele>187.60059</ele>
        <time>2026-05-18T12:29:32+02:00</time>
      </trkpt>
      <trkpt lat="48.76887" lon="6.14048">
        <ele>187.7002</ele>
        <time>2026-05-18T12:29:33+02:00</time>
      </trkpt>
      <trkpt lat="48.76894" lon="6.14049">
        <ele>187.7002</ele>
        <time>2026-05-18T12:29:34+02:00</time>
      </trkpt>
      <trkpt lat="48.769" lon="6.1405">
        <ele>187.5</ele>
        <time>2026-05-18T12:29:35+02:00</time>
      </trkpt>
      <trkpt lat="48.7691" lon="6.14052">
        <ele>187.40039</ele>
        <time>2026-05-18T12:29:36+02:00</time>
      </trkpt>
      <trkpt lat="48.7691" lon="6.14052">
        <ele>187.40039</ele>
        <time>2026-05-18T12:29:37+02:00</time>
      </trkpt>
      <trkpt lat="48.7692" lon="6.14053">
        <ele>187.40039</ele>
        <time>2026-05-18T12:29:38+02:00</time>
      </trkpt>
      <trkpt lat="48.76927" lon="6.14054">
        <ele>187.40039</ele>
        <time>2026-05-18T12:29:39+02:00</time>
      </trkpt>
      <trkpt lat="48.76931" lon="6.14054">
        <ele>187.40039</ele>
        <time>2026-05-18T12:29:40+02:00</time>
      </trkpt>
      <trkpt lat="48.76941" lon="6.14056">
        <ele>187.40039</ele>
        <time>2026-05-18T12:29:41+02:00</time>
      </trkpt>
      <trkpt lat="48.76949" lon="6.14058">
        <ele>187.40039</ele>
        <time>2026-05-18T12:29:42+02:00</time>
      </trkpt>
      <trkpt lat="48.76956" lon="6.1406">
        <ele>187.2002</ele>
        <time>2026-05-18T12:29:43+02:00</time>
      </trkpt>
      <trkpt lat="48.76964" lon="6.14061">
        <ele>187.10059</ele>
        <time>2026-05-18T12:29:44+02:00</time>
      </trkpt>
      <trkpt lat="48.76971" lon="6.14063">
        <ele>187.10059</ele>
        <time>2026-05-18T12:29:45+02:00</time>
      </trkpt>
      <trkpt lat="48.76979" lon="6.14065">
        <ele>187.10059</ele>
        <time>2026-05-18T12:29:46+02:00</time>
      </trkpt>
      <trkpt lat="48.76986" lon="6.14066">
        <ele>187.2002</ele>
        <time>2026-05-18T12:29:47+02:00</time>
      </trkpt>
      <trkpt lat="48.76993" lon="6.14068">
        <ele>187.40039</ele>
        <time>2026-05-18T12:29:48+02:00</time>
      </trkpt>
      <trkpt lat="48.77" lon="6.1407">
        <ele>187.7998</ele>
        <time>2026-05-18T12:29:49+02:00</time>
      </trkpt>
      <trkpt lat="48.77007" lon="6.14072">
        <ele>187.7998</ele>
        <time>2026-05-18T12:29:50+02:00</time>
      </trkpt>
      <trkpt lat="48.77013" lon="6.14073">
        <ele>187.7998</ele>
        <time>2026-05-18T12:29:51+02:00</time>
      </trkpt>
      <trkpt lat="48.7702" lon="6.14075">
        <ele>187.7998</ele>
        <time>2026-05-18T12:29:52+02:00</time>
      </trkpt>
      <trkpt lat="48.77027" lon="6.14077">
        <ele>187.40039</ele>
        <time>2026-05-18T12:29:53+02:00</time>
      </trkpt>
      <trkpt lat="48.77036" lon="6.1408">
        <ele>187.40039</ele>
        <time>2026-05-18T12:29:54+02:00</time>
      </trkpt>
      <trkpt lat="48.77036" lon="6.1408">
        <ele>187.40039</ele>
        <time>2026-05-18T12:29:55+02:00</time>
      </trkpt>
      <trkpt lat="48.77047" lon="6.14083">
        <ele>187.40039</ele>
        <time>2026-05-18T12:29:56+02:00</time>
      </trkpt>
      <trkpt lat="48.77055" lon="6.14085">
        <ele>187.10059</ele>
        <time>2026-05-18T12:29:57+02:00</time>
      </trkpt>
      <trkpt lat="48.77065" lon="6.14087">
        <ele>187</ele>
        <time>2026-05-18T12:29:58+02:00</time>
      </trkpt>
      <trkpt lat="48.77069" lon="6.14088">
        <ele>187.10059</ele>
        <time>2026-05-18T12:29:59+02:00</time>
      </trkpt>
      <trkpt lat="48.77076" lon="6.1409">
        <ele>187.2002</ele>
        <time>2026-05-18T12:30:00+02:00</time>
      </trkpt>
      <trkpt lat="48.77085" lon="6.14092">
        <ele>188</ele>
        <time>2026-05-18T12:30:01+02:00</time>
      </trkpt>
      <trkpt lat="48.77089" lon="6.14093">
        <ele>187.7002</ele>
        <time>2026-05-18T12:30:02+02:00</time>
      </trkpt>
      <trkpt lat="48.77095" lon="6.14094">
        <ele>187.7998</ele>
        <time>2026-05-18T12:30:03+02:00</time>
      </trkpt>
      <trkpt lat="48.77102" lon="6.14095">
        <ele>187.90039</ele>
        <time>2026-05-18T12:30:04+02:00</time>
      </trkpt>
      <trkpt lat="48.77108" lon="6.14096">
        <ele>187.90039</ele>
        <time>2026-05-18T12:30:05+02:00</time>
      </trkpt>
      <trkpt lat="48.77115" lon="6.14098">
        <ele>187.90039</ele>
        <time>2026-05-18T12:30:06+02:00</time>
      </trkpt>
      <trkpt lat="48.77122" lon="6.14099">
        <ele>187.90039</ele>
        <time>2026-05-18T12:30:07+02:00</time>
      </trkpt>
      <trkpt lat="48.77132" lon="6.14101">
        <ele>187.7998</ele>
        <time>2026-05-18T12:30:08+02:00</time>
      </trkpt>
      <trkpt lat="48.77136" lon="6.14102">
        <ele>187.40039</ele>
        <time>2026-05-18T12:30:09+02:00</time>
      </trkpt>
      <trkpt lat="48.77142" lon="6.14102">
        <ele>187.40039</ele>
        <time>2026-05-18T12:30:10+02:00</time>
      </trkpt>
      <trkpt lat="48.77153" lon="6.14104">
        <ele>187.2002</ele>
        <time>2026-05-18T12:30:11+02:00</time>
      </trkpt>
      <trkpt lat="48.77157" lon="6.14104">
        <ele>187.2002</ele>
        <time>2026-05-18T12:30:12+02:00</time>
      </trkpt>
      <trkpt lat="48.77164" lon="6.14105">
        <ele>187.5</ele>
        <time>2026-05-18T12:30:13+02:00</time>
      </trkpt>
      <trkpt lat="48.77172" lon="6.14107">
        <ele>188</ele>
        <time>2026-05-18T12:30:14+02:00</time>
      </trkpt>
      <trkpt lat="48.77179" lon="6.14107">
        <ele>188.60059</ele>
        <time>2026-05-18T12:30:15+02:00</time>
      </trkpt>
      <trkpt lat="48.77187" lon="6.14108">
        <ele>189.2002</ele>
        <time>2026-05-18T12:30:16+02:00</time>
      </trkpt>
      <trkpt lat="48.77198" lon="6.14108">
        <ele>189.5</ele>
        <time>2026-05-18T12:30:17+02:00</time>
      </trkpt>
      <trkpt lat="48.77202" lon="6.14109">
        <ele>189.5</ele>
        <time>2026-05-18T12:30:18+02:00</time>
      </trkpt>
      <trkpt lat="48.77208" lon="6.14109">
        <ele>189.60059</ele>
        <time>2026-05-18T12:30:19+02:00</time>
      </trkpt>
      <trkpt lat="48.77215" lon="6.1411">
        <ele>188.90039</ele>
        <time>2026-05-18T12:30:20+02:00</time>
      </trkpt>
      <trkpt lat="48.77218" lon="6.1411">
        <ele>188.90039</ele>
        <time>2026-05-18T12:30:21+02:00</time>
      </trkpt>
      <trkpt lat="48.77229" lon="6.1411">
        <ele>188.90039</ele>
        <time>2026-05-18T12:30:22+02:00</time>
      </trkpt>
      <trkpt lat="48.77235" lon="6.1411">
        <ele>188.7998</ele>
        <time>2026-05-18T12:30:23+02:00</time>
      </trkpt>
      <trkpt lat="48.77242" lon="6.1411">
        <ele>188.7998</ele>
        <time>2026-05-18T12:30:24+02:00</time>
      </trkpt>
      <trkpt lat="48.77249" lon="6.1411">
        <ele>188.7998</ele>
        <time>2026-05-18T12:30:25+02:00</time>
      </trkpt>
      <trkpt lat="48.77256" lon="6.1411">
        <ele>188.7998</ele>
        <time>2026-05-18T12:30:26+02:00</time>
      </trkpt>
      <trkpt lat="48.77265" lon="6.1411">
        <ele>188.7002</ele>
        <time>2026-05-18T12:30:27+02:00</time>
      </trkpt>
      <trkpt lat="48.77268" lon="6.1411">
        <ele>188.7002</ele>
        <time>2026-05-18T12:30:28+02:00</time>
      </trkpt>
      <trkpt lat="48.77278" lon="6.1411">
        <ele>188.7002</ele>
        <time>2026-05-18T12:30:29+02:00</time>
      </trkpt>
      <trkpt lat="48.77278" lon="6.1411">
        <ele>188.7002</ele>
        <time>2026-05-18T12:30:30+02:00</time>
      </trkpt>
      <trkpt lat="48.77288" lon="6.1411">
        <ele>188.60059</ele>
        <time>2026-05-18T12:30:31+02:00</time>
      </trkpt>
      <trkpt lat="48.77295" lon="6.1411">
        <ele>188.60059</ele>
        <time>2026-05-18T12:30:32+02:00</time>
      </trkpt>
      <trkpt lat="48.77302" lon="6.1411">
        <ele>188.5</ele>
        <time>2026-05-18T12:30:33+02:00</time>
      </trkpt>
      <trkpt lat="48.77309" lon="6.14109">
        <ele>189.40039</ele>
        <time>2026-05-18T12:30:34+02:00</time>
      </trkpt>
      <trkpt lat="48.77316" lon="6.14109">
        <ele>189.2998</ele>
        <time>2026-05-18T12:30:35+02:00</time>
      </trkpt>
      <trkpt lat="48.77327" lon="6.14108">
        <ele>189.2002</ele>
        <time>2026-05-18T12:30:36+02:00</time>
      </trkpt>
      <trkpt lat="48.7733" lon="6.14108">
        <ele>189.10059</ele>
        <time>2026-05-18T12:30:37+02:00</time>
      </trkpt>
      <trkpt lat="48.77337" lon="6.14108">
        <ele>189</ele>
        <time>2026-05-18T12:30:38+02:00</time>
      </trkpt>
      <trkpt lat="48.77344" lon="6.14107">
        <ele>188.90039</ele>
        <time>2026-05-18T12:30:39+02:00</time>
      </trkpt>
      <trkpt lat="48.77351" lon="6.14107">
        <ele>188.7002</ele>
        <time>2026-05-18T12:30:40+02:00</time>
      </trkpt>
      <trkpt lat="48.77358" lon="6.14106">
        <ele>188.60059</ele>
        <time>2026-05-18T12:30:41+02:00</time>
      </trkpt>
      <trkpt lat="48.77365" lon="6.14105">
        <ele>188.60059</ele>
        <time>2026-05-18T12:30:42+02:00</time>
      </trkpt>
      <trkpt lat="48.77376" lon="6.14105">
        <ele>188.40039</ele>
        <time>2026-05-18T12:30:43+02:00</time>
      </trkpt>
      <trkpt lat="48.7738" lon="6.14105">
        <ele>188.40039</ele>
        <time>2026-05-18T12:30:44+02:00</time>
      </trkpt>
      <trkpt lat="48.77387" lon="6.14104">
        <ele>188.2998</ele>
        <time>2026-05-18T12:30:45+02:00</time>
      </trkpt>
      <trkpt lat="48.77398" lon="6.14104">
        <ele>188.2002</ele>
        <time>2026-05-18T12:30:46+02:00</time>
      </trkpt>
      <trkpt lat="48.77401" lon="6.14103">
        <ele>188.2002</ele>
        <time>2026-05-18T12:30:47+02:00</time>
      </trkpt>
      <trkpt lat="48.77409" lon="6.14103">
        <ele>188.2002</ele>
        <time>2026-05-18T12:30:48+02:00</time>
      </trkpt>
      <trkpt lat="48.77419" lon="6.14102">
        <ele>188.10059</ele>
        <time>2026-05-18T12:30:49+02:00</time>
      </trkpt>
      <trkpt lat="48.77423" lon="6.14101">
        <ele>188.60059</ele>
        <time>2026-05-18T12:30:50+02:00</time>
      </trkpt>
      <trkpt lat="48.7743" lon="6.141">
        <ele>188.5</ele>
        <time>2026-05-18T12:30:51+02:00</time>
      </trkpt>
      <trkpt lat="48.77437" lon="6.14099">
        <ele>188.40039</ele>
        <time>2026-05-18T12:30:52+02:00</time>
      </trkpt>
      <trkpt lat="48.77444" lon="6.14099">
        <ele>188.40039</ele>
        <time>2026-05-18T12:30:53+02:00</time>
      </trkpt>
      <trkpt lat="48.77451" lon="6.14099">
        <ele>188.40039</ele>
        <time>2026-05-18T12:30:54+02:00</time>
      </trkpt>
      <trkpt lat="48.77458" lon="6.14099">
        <ele>188.2998</ele>
        <time>2026-05-18T12:30:55+02:00</time>
      </trkpt>
      <trkpt lat="48.77465" lon="6.14098">
        <ele>188.2002</ele>
        <time>2026-05-18T12:30:56+02:00</time>
      </trkpt>
      <trkpt lat="48.77472" lon="6.14097">
        <ele>188.2002</ele>
        <time>2026-05-18T12:30:57+02:00</time>
      </trkpt>
      <trkpt lat="48.77479" lon="6.14097">
        <ele>188.2002</ele>
        <time>2026-05-18T12:30:58+02:00</time>
      </trkpt>
      <trkpt lat="48.77487" lon="6.14097">
        <ele>188.10059</ele>
        <time>2026-05-18T12:30:59+02:00</time>
      </trkpt>
      <trkpt lat="48.77493" lon="6.14096">
        <ele>188.10059</ele>
        <time>2026-05-18T12:31:00+02:00</time>
      </trkpt>
      <trkpt lat="48.77501" lon="6.14095">
        <ele>188.10059</ele>
        <time>2026-05-18T12:31:01+02:00</time>
      </trkpt>
      <trkpt lat="48.77508" lon="6.14095">
        <ele>188.10059</ele>
        <time>2026-05-18T12:31:02+02:00</time>
      </trkpt>
      <trkpt lat="48.77516" lon="6.14095">
        <ele>188.10059</ele>
        <time>2026-05-18T12:31:03+02:00</time>
      </trkpt>
      <trkpt lat="48.77523" lon="6.14094">
        <ele>188.10059</ele>
        <time>2026-05-18T12:31:04+02:00</time>
      </trkpt>
      <trkpt lat="48.77526" lon="6.14093">
        <ele>188</ele>
        <time>2026-05-18T12:31:05+02:00</time>
      </trkpt>
      <trkpt lat="48.77537" lon="6.14093">
        <ele>188</ele>
        <time>2026-05-18T12:31:06+02:00</time>
      </trkpt>
      <trkpt lat="48.77543" lon="6.14092">
        <ele>188.60059</ele>
        <time>2026-05-18T12:31:07+02:00</time>
      </trkpt>
      <trkpt lat="48.7755" lon="6.14092">
        <ele>188.60059</ele>
        <time>2026-05-18T12:31:08+02:00</time>
      </trkpt>
      <trkpt lat="48.77556" lon="6.14091">
        <ele>188.60059</ele>
        <time>2026-05-18T12:31:09+02:00</time>
      </trkpt>
      <trkpt lat="48.77562" lon="6.14091">
        <ele>188.60059</ele>
        <time>2026-05-18T12:31:10+02:00</time>
      </trkpt>
      <trkpt lat="48.77572" lon="6.14089">
        <ele>188.60059</ele>
        <time>2026-05-18T12:31:11+02:00</time>
      </trkpt>
      <trkpt lat="48.77575" lon="6.14088">
        <ele>188.60059</ele>
        <time>2026-05-18T12:31:12+02:00</time>
      </trkpt>
      <trkpt lat="48.77581" lon="6.14087">
        <ele>188.60059</ele>
        <time>2026-05-18T12:31:13+02:00</time>
      </trkpt>
      <trkpt lat="48.77587" lon="6.14087">
        <ele>188.60059</ele>
        <time>2026-05-18T12:31:14+02:00</time>
      </trkpt>
      <trkpt lat="48.77591" lon="6.14086">
        <ele>188.5</ele>
        <time>2026-05-18T12:31:15+02:00</time>
      </trkpt>
      <trkpt lat="48.77599" lon="6.14085">
        <ele>188.5</ele>
        <time>2026-05-18T12:31:16+02:00</time>
      </trkpt>
      <trkpt lat="48.77606" lon="6.14085">
        <ele>188.40039</ele>
        <time>2026-05-18T12:31:17+02:00</time>
      </trkpt>
      <trkpt lat="48.77612" lon="6.14084">
        <ele>189.10059</ele>
        <time>2026-05-18T12:31:18+02:00</time>
      </trkpt>
      <trkpt lat="48.77619" lon="6.14082">
        <ele>189.10059</ele>
        <time>2026-05-18T12:31:19+02:00</time>
      </trkpt>
      <trkpt lat="48.77625" lon="6.14081">
        <ele>189</ele>
        <time>2026-05-18T12:31:20+02:00</time>
      </trkpt>
      <trkpt lat="48.77635" lon="6.1408">
        <ele>188.90039</ele>
        <time>2026-05-18T12:31:21+02:00</time>
      </trkpt>
      <trkpt lat="48.77638" lon="6.1408">
        <ele>188.90039</ele>
        <time>2026-05-18T12:31:22+02:00</time>
      </trkpt>
      <trkpt lat="48.77644" lon="6.14079">
        <ele>188.7998</ele>
        <time>2026-05-18T12:31:23+02:00</time>
      </trkpt>
      <trkpt lat="48.77651" lon="6.14078">
        <ele>188.7002</ele>
        <time>2026-05-18T12:31:24+02:00</time>
      </trkpt>
      <trkpt lat="48.77654" lon="6.14078">
        <ele>188.7002</ele>
        <time>2026-05-18T12:31:25+02:00</time>
      </trkpt>
      <trkpt lat="48.77662" lon="6.14076">
        <ele>188.60059</ele>
        <time>2026-05-18T12:31:26+02:00</time>
      </trkpt>
      <trkpt lat="48.77668" lon="6.14075">
        <ele>189.2002</ele>
        <time>2026-05-18T12:31:27+02:00</time>
      </trkpt>
      <trkpt lat="48.77677" lon="6.14072">
        <ele>189.10059</ele>
        <time>2026-05-18T12:31:28+02:00</time>
      </trkpt>
      <trkpt lat="48.7768" lon="6.1407">
        <ele>189</ele>
        <time>2026-05-18T12:31:29+02:00</time>
      </trkpt>
      <trkpt lat="48.77685" lon="6.14065">
        <ele>189.5</ele>
        <time>2026-05-18T12:31:30+02:00</time>
      </trkpt>
      <trkpt lat="48.77691" lon="6.14057">
        <ele>190.10059</ele>
        <time>2026-05-18T12:31:31+02:00</time>
      </trkpt>
      <trkpt lat="48.77694" lon="6.14054">
        <ele>190.10059</ele>
        <time>2026-05-18T12:31:32+02:00</time>
      </trkpt>
      <trkpt lat="48.77699" lon="6.14048">
        <ele>190.60059</ele>
        <time>2026-05-18T12:31:33+02:00</time>
      </trkpt>
      <trkpt lat="48.77706" lon="6.14039">
        <ele>191</ele>
        <time>2026-05-18T12:31:34+02:00</time>
      </trkpt>
      <trkpt lat="48.77706" lon="6.14039">
        <ele>191</ele>
        <time>2026-05-18T12:31:35+02:00</time>
      </trkpt>
      <trkpt lat="48.77713" lon="6.1403">
        <ele>191.2002</ele>
        <time>2026-05-18T12:31:36+02:00</time>
      </trkpt>
      <trkpt lat="48.77718" lon="6.14024">
        <ele>191.40039</ele>
        <time>2026-05-18T12:31:37+02:00</time>
      </trkpt>
      <trkpt lat="48.77723" lon="6.14012">
        <ele>191.5</ele>
        <time>2026-05-18T12:31:38+02:00</time>
      </trkpt>
      <trkpt lat="48.77725" lon="6.14008">
        <ele>191.40039</ele>
        <time>2026-05-18T12:31:39+02:00</time>
      </trkpt>
      <trkpt lat="48.77727" lon="6.14">
        <ele>191.5</ele>
        <time>2026-05-18T12:31:40+02:00</time>
      </trkpt>
      <trkpt lat="48.77729" lon="6.13991">
        <ele>191.60059</ele>
        <time>2026-05-18T12:31:41+02:00</time>
      </trkpt>
      <trkpt lat="48.7773" lon="6.13982">
        <ele>191.5</ele>
        <time>2026-05-18T12:31:42+02:00</time>
      </trkpt>
      <trkpt lat="48.7773" lon="6.13973">
        <ele>191.5</ele>
        <time>2026-05-18T12:31:43+02:00</time>
      </trkpt>
      <trkpt lat="48.7773" lon="6.13963">
        <ele>191.60059</ele>
        <time>2026-05-18T12:31:44+02:00</time>
      </trkpt>
      <trkpt lat="48.77728" lon="6.13949">
        <ele>191.7002</ele>
        <time>2026-05-18T12:31:45+02:00</time>
      </trkpt>
      <trkpt lat="48.77727" lon="6.13945">
        <ele>191.7002</ele>
        <time>2026-05-18T12:31:46+02:00</time>
      </trkpt>
      <trkpt lat="48.77723" lon="6.13938">
        <ele>192</ele>
        <time>2026-05-18T12:31:47+02:00</time>
      </trkpt>
      <trkpt lat="48.77718" lon="6.13931">
        <ele>192</ele>
        <time>2026-05-18T12:31:48+02:00</time>
      </trkpt>
      <trkpt lat="48.77714" lon="6.13924">
        <ele>192.2002</ele>
        <time>2026-05-18T12:31:49+02:00</time>
      </trkpt>
      <trkpt lat="48.77711" lon="6.13916">
        <ele>192.40039</ele>
        <time>2026-05-18T12:31:50+02:00</time>
      </trkpt>
      <trkpt lat="48.77707" lon="6.13908">
        <ele>192.40039</ele>
        <time>2026-05-18T12:31:51+02:00</time>
      </trkpt>
      <trkpt lat="48.77704" lon="6.13895">
        <ele>192.60059</ele>
        <time>2026-05-18T12:31:52+02:00</time>
      </trkpt>
      <trkpt lat="48.77703" lon="6.1389">
        <ele>192.60059</ele>
        <time>2026-05-18T12:31:53+02:00</time>
      </trkpt>
      <trkpt lat="48.77701" lon="6.13882">
        <ele>192.7002</ele>
        <time>2026-05-18T12:31:54+02:00</time>
      </trkpt>
      <trkpt lat="48.77698" lon="6.13874">
        <ele>192.90039</ele>
        <time>2026-05-18T12:31:55+02:00</time>
      </trkpt>
      <trkpt lat="48.77697" lon="6.1387">
        <ele>192.90039</ele>
        <time>2026-05-18T12:31:56+02:00</time>
      </trkpt>
      <trkpt lat="48.7769" lon="6.1386">
        <ele>193</ele>
        <time>2026-05-18T12:31:57+02:00</time>
      </trkpt>
      <trkpt lat="48.77686" lon="6.13853">
        <ele>193.10059</ele>
        <time>2026-05-18T12:31:58+02:00</time>
      </trkpt>
      <trkpt lat="48.77681" lon="6.13843">
        <ele>193</ele>
        <time>2026-05-18T12:31:59+02:00</time>
      </trkpt>
      <trkpt lat="48.77679" lon="6.1384">
        <ele>193</ele>
        <time>2026-05-18T12:32:00+02:00</time>
      </trkpt>
      <trkpt lat="48.77675" lon="6.13834">
        <ele>193</ele>
        <time>2026-05-18T12:32:01+02:00</time>
      </trkpt>
      <trkpt lat="48.77669" lon="6.13826">
        <ele>193</ele>
        <time>2026-05-18T12:32:02+02:00</time>
      </trkpt>
      <trkpt lat="48.77668" lon="6.13823">
        <ele>193</ele>
        <time>2026-05-18T12:32:03+02:00</time>
      </trkpt>
      <trkpt lat="48.77663" lon="6.13818">
        <ele>193</ele>
        <time>2026-05-18T12:32:04+02:00</time>
      </trkpt>
      <trkpt lat="48.77656" lon="6.13811">
        <ele>193.10059</ele>
        <time>2026-05-18T12:32:05+02:00</time>
      </trkpt>
      <trkpt lat="48.77653" lon="6.13808">
        <ele>193</ele>
        <time>2026-05-18T12:32:06+02:00</time>
      </trkpt>
      <trkpt lat="48.77648" lon="6.13804">
        <ele>193.2002</ele>
        <time>2026-05-18T12:32:07+02:00</time>
      </trkpt>
      <trkpt lat="48.7764" lon="6.13799">
        <ele>193.10059</ele>
        <time>2026-05-18T12:32:08+02:00</time>
      </trkpt>
      <trkpt lat="48.77638" lon="6.13797">
        <ele>193.2002</ele>
        <time>2026-05-18T12:32:09+02:00</time>
      </trkpt>
      <trkpt lat="48.77633" lon="6.13793">
        <ele>193.2002</ele>
        <time>2026-05-18T12:32:10+02:00</time>
      </trkpt>
      <trkpt lat="48.77628" lon="6.1379">
        <ele>193</ele>
        <time>2026-05-18T12:32:11+02:00</time>
      </trkpt>
      <trkpt lat="48.77626" lon="6.13789">
        <ele>193.10059</ele>
        <time>2026-05-18T12:32:12+02:00</time>
      </trkpt>
      <trkpt lat="48.77619" lon="6.13784">
        <ele>193.10059</ele>
        <time>2026-05-18T12:32:13+02:00</time>
      </trkpt>
      <trkpt lat="48.77614" lon="6.13781">
        <ele>192.90039</ele>
        <time>2026-05-18T12:32:14+02:00</time>
      </trkpt>
      <trkpt lat="48.77606" lon="6.13778">
        <ele>193</ele>
        <time>2026-05-18T12:32:15+02:00</time>
      </trkpt>
      <trkpt lat="48.77604" lon="6.13777">
        <ele>193.10059</ele>
        <time>2026-05-18T12:32:16+02:00</time>
      </trkpt>
      <trkpt lat="48.77598" lon="6.13774">
        <ele>193</ele>
        <time>2026-05-18T12:32:17+02:00</time>
      </trkpt>
      <trkpt lat="48.77589" lon="6.13769">
        <ele>193</ele>
        <time>2026-05-18T12:32:18+02:00</time>
      </trkpt>
      <trkpt lat="48.77586" lon="6.13767">
        <ele>193.10059</ele>
        <time>2026-05-18T12:32:19+02:00</time>
      </trkpt>
      <trkpt lat="48.77581" lon="6.13763">
        <ele>193</ele>
        <time>2026-05-18T12:32:20+02:00</time>
      </trkpt>
      <trkpt lat="48.77575" lon="6.13759">
        <ele>193.10059</ele>
        <time>2026-05-18T12:32:21+02:00</time>
      </trkpt>
      <trkpt lat="48.7757" lon="6.13756">
        <ele>192.90039</ele>
        <time>2026-05-18T12:32:22+02:00</time>
      </trkpt>
      <trkpt lat="48.77565" lon="6.13754">
        <ele>193</ele>
        <time>2026-05-18T12:32:23+02:00</time>
      </trkpt>
      <trkpt lat="48.77561" lon="6.13752">
        <ele>193</ele>
        <time>2026-05-18T12:32:24+02:00</time>
      </trkpt>
      <trkpt lat="48.77557" lon="6.1375">
        <ele>193</ele>
        <time>2026-05-18T12:32:25+02:00</time>
      </trkpt>
      <trkpt lat="48.77553" lon="6.13748">
        <ele>192.90039</ele>
        <time>2026-05-18T12:32:26+02:00</time>
      </trkpt>
      <trkpt lat="48.7755" lon="6.13747">
        <ele>192.90039</ele>
        <time>2026-05-18T12:32:27+02:00</time>
      </trkpt>
      <trkpt lat="48.77547" lon="6.13746">
        <ele>193</ele>
        <time>2026-05-18T12:32:28+02:00</time>
      </trkpt>
      <trkpt lat="48.77544" lon="6.13744">
        <ele>193</ele>
        <time>2026-05-18T12:32:29+02:00</time>
      </trkpt>
      <trkpt lat="48.77544" lon="6.13744">
        <ele>193</ele>
        <time>2026-05-18T12:32:30+02:00</time>
      </trkpt>
      <trkpt lat="48.77543" lon="6.13742">
        <ele>193</ele>
        <time>2026-05-18T12:32:31+02:00</time>
      </trkpt>
      <trkpt lat="48.77543" lon="6.13741">
        <ele>193</ele>
        <time>2026-05-18T12:32:32+02:00</time>
      </trkpt>
      <trkpt lat="48.77543" lon="6.13741">
        <ele>193</ele>
        <time>2026-05-18T12:32:33+02:00</time>
      </trkpt>
      <trkpt lat="48.77543" lon="6.13741">
        <ele>193</ele>
        <time>2026-05-18T12:32:34+02:00</time>
      </trkpt>
      <trkpt lat="48.77543" lon="6.13741">
        <ele>193</ele>
        <time>2026-05-18T12:32:35+02:00</time>
      </trkpt>
      <trkpt lat="48.77546" lon="6.1375">
        <ele>193.10059</ele>
        <time>2026-05-18T12:33:11+02:00</time>
      </trkpt>
      <trkpt lat="48.77548" lon="6.13752">
        <ele>193.10059</ele>
        <time>2026-05-18T12:33:12+02:00</time>
      </trkpt>
      <trkpt lat="48.77549" lon="6.13753">
        <ele>193.10059</ele>
        <time>2026-05-18T12:33:13+02:00</time>
      </trkpt>
      <trkpt lat="48.77551" lon="6.13755">
        <ele>193.10059</ele>
        <time>2026-05-18T12:33:14+02:00</time>
      </trkpt>
      <trkpt lat="48.77553" lon="6.13757">
        <ele>193.10059</ele>
        <time>2026-05-18T12:33:15+02:00</time>
      </trkpt>
      <trkpt lat="48.77555" lon="6.13758">
        <ele>193</ele>
        <time>2026-05-18T12:33:16+02:00</time>
      </trkpt>
      <trkpt lat="48.77557" lon="6.13759">
        <ele>193.2998</ele>
        <time>2026-05-18T12:33:17+02:00</time>
      </trkpt>
      <trkpt lat="48.77559" lon="6.1376">
        <ele>193.2998</ele>
        <time>2026-05-18T12:33:18+02:00</time>
      </trkpt>
      <trkpt lat="48.77561" lon="6.13762">
        <ele>193.2002</ele>
        <time>2026-05-18T12:33:19+02:00</time>
      </trkpt>
      <trkpt lat="48.77562" lon="6.13763">
        <ele>193.2002</ele>
        <time>2026-05-18T12:33:20+02:00</time>
      </trkpt>
      <trkpt lat="48.77563" lon="6.13764">
        <ele>193.2002</ele>
        <time>2026-05-18T12:33:21+02:00</time>
      </trkpt>
      <trkpt lat="48.77563" lon="6.13763">
        <ele>193.2002</ele>
        <time>2026-05-18T12:33:22+02:00</time>
      </trkpt>
      <trkpt lat="48.77563" lon="6.13763">
        <ele>193.2002</ele>
        <time>2026-05-18T12:33:23+02:00</time>
      </trkpt>
      <trkpt lat="48.77563" lon="6.13763">
        <ele>193.2002</ele>
        <time>2026-05-18T12:33:24+02:00</time>
      </trkpt>
      <trkpt lat="48.77574" lon="6.13774">
        <ele>193.2998</ele>
        <time>2026-05-18T12:33:30+02:00</time>
      </trkpt>
      <trkpt lat="48.77576" lon="6.13775">
        <ele>193.2998</ele>
        <time>2026-05-18T12:33:31+02:00</time>
      </trkpt>
      <trkpt lat="48.77578" lon="6.13777">
        <ele>193.40039</ele>
        <time>2026-05-18T12:33:32+02:00</time>
      </trkpt>
      <trkpt lat="48.77581" lon="6.13777">
        <ele>193.40039</ele>
        <time>2026-05-18T12:33:33+02:00</time>
      </trkpt>
      <trkpt lat="48.77584" lon="6.13778">
        <ele>193.2998</ele>
        <time>2026-05-18T12:33:34+02:00</time>
      </trkpt>
      <trkpt lat="48.77587" lon="6.13778">
        <ele>193.2998</ele>
        <time>2026-05-18T12:33:35+02:00</time>
      </trkpt>
      <trkpt lat="48.77591" lon="6.13778">
        <ele>193.2998</ele>
        <time>2026-05-18T12:33:36+02:00</time>
      </trkpt>
      <trkpt lat="48.77594" lon="6.13778">
        <ele>193.2002</ele>
        <time>2026-05-18T12:33:37+02:00</time>
      </trkpt>
      <trkpt lat="48.77597" lon="6.13778">
        <ele>193.2002</ele>
        <time>2026-05-18T12:33:38+02:00</time>
      </trkpt>
      <trkpt lat="48.776" lon="6.13779">
        <ele>193.10059</ele>
        <time>2026-05-18T12:33:39+02:00</time>
      </trkpt>
      <trkpt lat="48.77603" lon="6.13779">
        <ele>193.10059</ele>
        <time>2026-05-18T12:33:40+02:00</time>
      </trkpt>
      <trkpt lat="48.77608" lon="6.13779">
        <ele>193</ele>
        <time>2026-05-18T12:33:41+02:00</time>
      </trkpt>
      <trkpt lat="48.7761" lon="6.13779">
        <ele>193</ele>
        <time>2026-05-18T12:33:42+02:00</time>
      </trkpt>
      <trkpt lat="48.77613" lon="6.13778">
        <ele>192.90039</ele>
        <time>2026-05-18T12:33:43+02:00</time>
      </trkpt>
      <trkpt lat="48.77619" lon="6.13778">
        <ele>192.90039</ele>
        <time>2026-05-18T12:33:44+02:00</time>
      </trkpt>
      <trkpt lat="48.7762" lon="6.13778">
        <ele>192.90039</ele>
        <time>2026-05-18T12:33:45+02:00</time>
      </trkpt>
      <trkpt lat="48.77623" lon="6.13777">
        <ele>192.7998</ele>
        <time>2026-05-18T12:33:46+02:00</time>
      </trkpt>
      <trkpt lat="48.77627" lon="6.13777">
        <ele>192.7998</ele>
        <time>2026-05-18T12:33:47+02:00</time>
      </trkpt>
      <trkpt lat="48.77632" lon="6.13775">
        <ele>192.5</ele>
        <time>2026-05-18T12:33:48+02:00</time>
      </trkpt>
      <trkpt lat="48.77633" lon="6.13775">
        <ele>192.40039</ele>
        <time>2026-05-18T12:33:49+02:00</time>
      </trkpt>
      <trkpt lat="48.77637" lon="6.13773">
        <ele>192.40039</ele>
        <time>2026-05-18T12:33:50+02:00</time>
      </trkpt>
      <trkpt lat="48.7764" lon="6.13772">
        <ele>192.2998</ele>
        <time>2026-05-18T12:33:51+02:00</time>
      </trkpt>
      <trkpt lat="48.77644" lon="6.13771">
        <ele>192.2998</ele>
        <time>2026-05-18T12:33:52+02:00</time>
      </trkpt>
      <trkpt lat="48.77648" lon="6.1377">
        <ele>192.2002</ele>
        <time>2026-05-18T12:33:53+02:00</time>
      </trkpt>
      <trkpt lat="48.77652" lon="6.13768">
        <ele>192.2002</ele>
        <time>2026-05-18T12:33:54+02:00</time>
      </trkpt>
      <trkpt lat="48.77657" lon="6.13765">
        <ele>191.7002</ele>
        <time>2026-05-18T12:33:55+02:00</time>
      </trkpt>
      <trkpt lat="48.77659" lon="6.13764">
        <ele>191.7002</ele>
        <time>2026-05-18T12:33:56+02:00</time>
      </trkpt>
      <trkpt lat="48.77662" lon="6.13761">
        <ele>191.7002</ele>
        <time>2026-05-18T12:33:57+02:00</time>
      </trkpt>
      <trkpt lat="48.77666" lon="6.13759">
        <ele>191.7002</ele>
        <time>2026-05-18T12:33:58+02:00</time>
      </trkpt>
      <trkpt lat="48.77669" lon="6.13756">
        <ele>191.10059</ele>
        <time>2026-05-18T12:33:59+02:00</time>
      </trkpt>
      <trkpt lat="48.77673" lon="6.13753">
        <ele>191.10059</ele>
        <time>2026-05-18T12:34:00+02:00</time>
      </trkpt>
      <trkpt lat="48.77676" lon="6.13751">
        <ele>191.10059</ele>
        <time>2026-05-18T12:34:01+02:00</time>
      </trkpt>
      <trkpt lat="48.77682" lon="6.13746">
        <ele>190.2998</ele>
        <time>2026-05-18T12:34:02+02:00</time>
      </trkpt>
      <trkpt lat="48.77684" lon="6.13745">
        <ele>190.2002</ele>
        <time>2026-05-18T12:34:03+02:00</time>
      </trkpt>
      <trkpt lat="48.77687" lon="6.13741">
        <ele>190.2002</ele>
        <time>2026-05-18T12:34:04+02:00</time>
      </trkpt>
      <trkpt lat="48.77693" lon="6.13736">
        <ele>189.10059</ele>
        <time>2026-05-18T12:34:05+02:00</time>
      </trkpt>
      <trkpt lat="48.77694" lon="6.13734">
        <ele>189.10059</ele>
        <time>2026-05-18T12:34:06+02:00</time>
      </trkpt>
      <trkpt lat="48.77698" lon="6.13731">
        <ele>188.2998</ele>
        <time>2026-05-18T12:34:07+02:00</time>
      </trkpt>
      <trkpt lat="48.77704" lon="6.13725">
        <ele>188.2002</ele>
        <time>2026-05-18T12:34:08+02:00</time>
      </trkpt>
      <trkpt lat="48.77706" lon="6.13723">
        <ele>187.90039</ele>
        <time>2026-05-18T12:34:09+02:00</time>
      </trkpt>
      <trkpt lat="48.7771" lon="6.1372">
        <ele>187.7998</ele>
        <time>2026-05-18T12:34:10+02:00</time>
      </trkpt>
      <trkpt lat="48.77714" lon="6.13716">
        <ele>187.7998</ele>
        <time>2026-05-18T12:34:11+02:00</time>
      </trkpt>
      <trkpt lat="48.7772" lon="6.13711">
        <ele>187.60059</ele>
        <time>2026-05-18T12:34:12+02:00</time>
      </trkpt>
      <trkpt lat="48.77722" lon="6.13709">
        <ele>187.60059</ele>
        <time>2026-05-18T12:34:13+02:00</time>
      </trkpt>
      <trkpt lat="48.77726" lon="6.13706">
        <ele>187.40039</ele>
        <time>2026-05-18T12:34:14+02:00</time>
      </trkpt>
      <trkpt lat="48.77733" lon="6.13701">
        <ele>187.40039</ele>
        <time>2026-05-18T12:34:15+02:00</time>
      </trkpt>
      <trkpt lat="48.77735" lon="6.13699">
        <ele>187.40039</ele>
        <time>2026-05-18T12:34:16+02:00</time>
      </trkpt>
      <trkpt lat="48.77739" lon="6.13695">
        <ele>187.40039</ele>
        <time>2026-05-18T12:34:17+02:00</time>
      </trkpt>
      <trkpt lat="48.77743" lon="6.13692">
        <ele>187.40039</ele>
        <time>2026-05-18T12:34:18+02:00</time>
      </trkpt>
      <trkpt lat="48.77749" lon="6.13686">
        <ele>187.40039</ele>
        <time>2026-05-18T12:34:19+02:00</time>
      </trkpt>
      <trkpt lat="48.77749" lon="6.13686">
        <ele>187.40039</ele>
        <time>2026-05-18T12:34:20+02:00</time>
      </trkpt>
      <trkpt lat="48.77755" lon="6.13681">
        <ele>187.40039</ele>
        <time>2026-05-18T12:34:21+02:00</time>
      </trkpt>
      <trkpt lat="48.77761" lon="6.13676">
        <ele>187.2998</ele>
        <time>2026-05-18T12:34:22+02:00</time>
      </trkpt>
      <trkpt lat="48.77763" lon="6.13674">
        <ele>187.2998</ele>
        <time>2026-05-18T12:34:23+02:00</time>
      </trkpt>
      <trkpt lat="48.77767" lon="6.13671">
        <ele>187.2998</ele>
        <time>2026-05-18T12:34:24+02:00</time>
      </trkpt>
      <trkpt lat="48.77771" lon="6.13667">
        <ele>187.2998</ele>
        <time>2026-05-18T12:34:25+02:00</time>
      </trkpt>
      <trkpt lat="48.77777" lon="6.13663">
        <ele>187.2998</ele>
        <time>2026-05-18T12:34:26+02:00</time>
      </trkpt>
      <trkpt lat="48.77779" lon="6.13661">
        <ele>187.2998</ele>
        <time>2026-05-18T12:34:27+02:00</time>
      </trkpt>
      <trkpt lat="48.77783" lon="6.13658">
        <ele>187.40039</ele>
        <time>2026-05-18T12:34:28+02:00</time>
      </trkpt>
      <trkpt lat="48.77786" lon="6.13655">
        <ele>187.60059</ele>
        <time>2026-05-18T12:34:29+02:00</time>
      </trkpt>
      <trkpt lat="48.77791" lon="6.13651">
        <ele>187.60059</ele>
        <time>2026-05-18T12:34:30+02:00</time>
      </trkpt>
      <trkpt lat="48.77793" lon="6.13649">
        <ele>187.7998</ele>
        <time>2026-05-18T12:34:31+02:00</time>
      </trkpt>
      <trkpt lat="48.77797" lon="6.13647">
        <ele>187.90039</ele>
        <time>2026-05-18T12:34:32+02:00</time>
      </trkpt>
      <trkpt lat="48.778" lon="6.13645">
        <ele>188</ele>
        <time>2026-05-18T12:34:33+02:00</time>
      </trkpt>
      <trkpt lat="48.77804" lon="6.13643">
        <ele>188.10059</ele>
        <time>2026-05-18T12:34:34+02:00</time>
      </trkpt>
      <trkpt lat="48.77807" lon="6.13642">
        <ele>188.10059</ele>
        <time>2026-05-18T12:34:35+02:00</time>
      </trkpt>
      <trkpt lat="48.7781" lon="6.13641">
        <ele>188.2002</ele>
        <time>2026-05-18T12:34:36+02:00</time>
      </trkpt>
      <trkpt lat="48.77816" lon="6.13639">
        <ele>188.40039</ele>
        <time>2026-05-18T12:34:37+02:00</time>
      </trkpt>
      <trkpt lat="48.77816" lon="6.13639">
        <ele>188.40039</ele>
        <time>2026-05-18T12:34:38+02:00</time>
      </trkpt>
      <trkpt lat="48.77821" lon="6.13637">
        <ele>188.40039</ele>
        <time>2026-05-18T12:34:39+02:00</time>
      </trkpt>
      <trkpt lat="48.77825" lon="6.13636">
        <ele>188.40039</ele>
        <time>2026-05-18T12:34:40+02:00</time>
      </trkpt>
      <trkpt lat="48.7783" lon="6.13636">
        <ele>188.5</ele>
        <time>2026-05-18T12:34:41+02:00</time>
      </trkpt>
      <trkpt lat="48.77833" lon="6.13636">
        <ele>188.5</ele>
        <time>2026-05-18T12:34:42+02:00</time>
      </trkpt>
      <trkpt lat="48.77837" lon="6.13636">
        <ele>188.60059</ele>
        <time>2026-05-18T12:34:43+02:00</time>
      </trkpt>
      <trkpt lat="48.77841" lon="6.13636">
        <ele>188.60059</ele>
        <time>2026-05-18T12:34:44+02:00</time>
      </trkpt>
      <trkpt lat="48.77845" lon="6.13636">
        <ele>188.7002</ele>
        <time>2026-05-18T12:34:45+02:00</time>
      </trkpt>
      <trkpt lat="48.7785" lon="6.13637">
        <ele>188.90039</ele>
        <time>2026-05-18T12:34:46+02:00</time>
      </trkpt>
      <trkpt lat="48.77854" lon="6.13637">
        <ele>189.2002</ele>
        <time>2026-05-18T12:34:47+02:00</time>
      </trkpt>
      <trkpt lat="48.77861" lon="6.13637">
        <ele>189.40039</ele>
        <time>2026-05-18T12:34:48+02:00</time>
      </trkpt>
      <trkpt lat="48.77863" lon="6.13637">
        <ele>189.40039</ele>
        <time>2026-05-18T12:34:49+02:00</time>
      </trkpt>
      <trkpt lat="48.77868" lon="6.13638">
        <ele>189.90039</ele>
        <time>2026-05-18T12:34:50+02:00</time>
      </trkpt>
      <trkpt lat="48.77873" lon="6.13639">
        <ele>189.90039</ele>
        <time>2026-05-18T12:34:51+02:00</time>
      </trkpt>
      <trkpt lat="48.77879" lon="6.13641">
        <ele>189.7998</ele>
        <time>2026-05-18T12:34:52+02:00</time>
      </trkpt>
      <trkpt lat="48.77881" lon="6.13642">
        <ele>189.7998</ele>
        <time>2026-05-18T12:34:53+02:00</time>
      </trkpt>
      <trkpt lat="48.77886" lon="6.13643">
        <ele>189.7002</ele>
        <time>2026-05-18T12:34:54+02:00</time>
      </trkpt>
      <trkpt lat="48.77892" lon="6.13646">
        <ele>189.7002</ele>
        <time>2026-05-18T12:34:55+02:00</time>
      </trkpt>
      <trkpt lat="48.77892" lon="6.13646">
        <ele>189.7002</ele>
        <time>2026-05-18T12:34:56+02:00</time>
      </trkpt>
      <trkpt lat="48.77899" lon="6.13648">
        <ele>189.60059</ele>
        <time>2026-05-18T12:34:57+02:00</time>
      </trkpt>
      <trkpt lat="48.77902" lon="6.13649">
        <ele>189.60059</ele>
        <time>2026-05-18T12:34:58+02:00</time>
      </trkpt>
      <trkpt lat="48.77908" lon="6.13652">
        <ele>189.60059</ele>
        <time>2026-05-18T12:34:59+02:00</time>
      </trkpt>
      <trkpt lat="48.7791" lon="6.13653">
        <ele>189.60059</ele>
        <time>2026-05-18T12:35:00+02:00</time>
      </trkpt>
      <trkpt lat="48.77913" lon="6.13655">
        <ele>189.7002</ele>
        <time>2026-05-18T12:35:01+02:00</time>
      </trkpt>
      <trkpt lat="48.77916" lon="6.13657">
        <ele>189.7998</ele>
        <time>2026-05-18T12:35:02+02:00</time>
      </trkpt>
      <trkpt lat="48.77917" lon="6.13659">
        <ele>189.7998</ele>
        <time>2026-05-18T12:35:03+02:00</time>
      </trkpt>
      <trkpt lat="48.7792" lon="6.13666">
        <ele>189.7998</ele>
        <time>2026-05-18T12:35:04+02:00</time>
      </trkpt>
      <trkpt lat="48.7792" lon="6.1367">
        <ele>189.7998</ele>
        <time>2026-05-18T12:35:05+02:00</time>
      </trkpt>
      <trkpt lat="48.77921" lon="6.13675">
        <ele>189.7998</ele>
        <time>2026-05-18T12:35:06+02:00</time>
      </trkpt>
      <trkpt lat="48.77922" lon="6.13681">
        <ele>190</ele>
        <time>2026-05-18T12:35:07+02:00</time>
      </trkpt>
      <trkpt lat="48.77923" lon="6.13686">
        <ele>190</ele>
        <time>2026-05-18T12:35:08+02:00</time>
      </trkpt>
      <trkpt lat="48.77928" lon="6.13692">
        <ele>190.2002</ele>
        <time>2026-05-18T12:35:09+02:00</time>
      </trkpt>
      <trkpt lat="48.77929" lon="6.13694">
        <ele>190.2002</ele>
        <time>2026-05-18T12:35:10+02:00</time>
      </trkpt>
      <trkpt lat="48.77933" lon="6.13696">
        <ele>190.40039</ele>
        <time>2026-05-18T12:35:11+02:00</time>
      </trkpt>
      <trkpt lat="48.77939" lon="6.13696">
        <ele>190.60059</ele>
        <time>2026-05-18T12:35:12+02:00</time>
      </trkpt>
      <trkpt lat="48.77939" lon="6.13696">
        <ele>190.60059</ele>
        <time>2026-05-18T12:35:13+02:00</time>
      </trkpt>
      <trkpt lat="48.77943" lon="6.13695">
        <ele>190.60059</ele>
        <time>2026-05-18T12:35:14+02:00</time>
      </trkpt>
      <trkpt lat="48.77946" lon="6.13694">
        <ele>190.7998</ele>
        <time>2026-05-18T12:35:15+02:00</time>
      </trkpt>
      <trkpt lat="48.77949" lon="6.13696">
        <ele>190.7998</ele>
        <time>2026-05-18T12:35:16+02:00</time>
      </trkpt>
      <trkpt lat="48.7795" lon="6.13697">
        <ele>191</ele>
        <time>2026-05-18T12:35:17+02:00</time>
      </trkpt>
      <trkpt lat="48.77952" lon="6.137">
        <ele>191</ele>
        <time>2026-05-18T12:35:18+02:00</time>
      </trkpt>
      <trkpt lat="48.77953" lon="6.13705">
        <ele>191</ele>
        <time>2026-05-18T12:35:19+02:00</time>
      </trkpt>
      <trkpt lat="48.77954" lon="6.13714">
        <ele>191</ele>
        <time>2026-05-18T12:35:20+02:00</time>
      </trkpt>
      <trkpt lat="48.77955" lon="6.13717">
        <ele>191</ele>
        <time>2026-05-18T12:35:21+02:00</time>
      </trkpt>
      <trkpt lat="48.77957" lon="6.13723">
        <ele>191.2002</ele>
        <time>2026-05-18T12:35:22+02:00</time>
      </trkpt>
      <trkpt lat="48.7796" lon="6.13728">
        <ele>191.2002</ele>
        <time>2026-05-18T12:35:23+02:00</time>
      </trkpt>
      <trkpt lat="48.77964" lon="6.13733">
        <ele>191.40039</ele>
        <time>2026-05-18T12:35:24+02:00</time>
      </trkpt>
      <trkpt lat="48.77969" lon="6.13737">
        <ele>191.60059</ele>
        <time>2026-05-18T12:35:25+02:00</time>
      </trkpt>
      <trkpt lat="48.77972" lon="6.13743">
        <ele>191.5</ele>
        <time>2026-05-18T12:35:26+02:00</time>
      </trkpt>
      <trkpt lat="48.77973" lon="6.13753">
        <ele>191.60059</ele>
        <time>2026-05-18T12:35:27+02:00</time>
      </trkpt>
      <trkpt lat="48.77973" lon="6.13753">
        <ele>191.60059</ele>
        <time>2026-05-18T12:35:28+02:00</time>
      </trkpt>
      <trkpt lat="48.77971" lon="6.13761">
        <ele>191.2002</ele>
        <time>2026-05-18T12:35:29+02:00</time>
      </trkpt>
      <trkpt lat="48.77969" lon="6.13766">
        <ele>191.2002</ele>
        <time>2026-05-18T12:35:30+02:00</time>
      </trkpt>
      <trkpt lat="48.77966" lon="6.1377">
        <ele>190.60059</ele>
        <time>2026-05-18T12:35:31+02:00</time>
      </trkpt>
      <trkpt lat="48.77964" lon="6.13775">
        <ele>190.60059</ele>
        <time>2026-05-18T12:35:32+02:00</time>
      </trkpt>
      <trkpt lat="48.77961" lon="6.13779">
        <ele>190.40039</ele>
        <time>2026-05-18T12:35:33+02:00</time>
      </trkpt>
      <trkpt lat="48.77957" lon="6.13787">
        <ele>189.7002</ele>
        <time>2026-05-18T12:35:34+02:00</time>
      </trkpt>
      <trkpt lat="48.77956" lon="6.1379">
        <ele>189.7002</ele>
        <time>2026-05-18T12:35:35+02:00</time>
      </trkpt>
      <trkpt lat="48.77954" lon="6.13796">
        <ele>188.7998</ele>
        <time>2026-05-18T12:35:36+02:00</time>
      </trkpt>
      <trkpt lat="48.77954" lon="6.13804">
        <ele>188.40039</ele>
        <time>2026-05-18T12:35:37+02:00</time>
      </trkpt>
      <trkpt lat="48.77954" lon="6.13808">
        <ele>188.40039</ele>
        <time>2026-05-18T12:35:38+02:00</time>
      </trkpt>
      <trkpt lat="48.77958" lon="6.13819">
        <ele>187.90039</ele>
        <time>2026-05-18T12:35:39+02:00</time>
      </trkpt>
      <trkpt lat="48.7796" lon="6.13826">
        <ele>187.90039</ele>
        <time>2026-05-18T12:35:40+02:00</time>
      </trkpt>
      <trkpt lat="48.77963" lon="6.13833">
        <ele>187.7002</ele>
        <time>2026-05-18T12:35:41+02:00</time>
      </trkpt>
      <trkpt lat="48.77966" lon="6.1384">
        <ele>187.2998</ele>
        <time>2026-05-18T12:35:42+02:00</time>
      </trkpt>
      <trkpt lat="48.7797" lon="6.13846">
        <ele>187.60059</ele>
        <time>2026-05-18T12:35:43+02:00</time>
      </trkpt>
      <trkpt lat="48.77976" lon="6.13857">
        <ele>187.5</ele>
        <time>2026-05-18T12:35:44+02:00</time>
      </trkpt>
      <trkpt lat="48.77978" lon="6.1386">
        <ele>187.7998</ele>
        <time>2026-05-18T12:35:45+02:00</time>
      </trkpt>
      <trkpt lat="48.77981" lon="6.13868">
        <ele>187.2998</ele>
        <time>2026-05-18T12:35:46+02:00</time>
      </trkpt>
      <trkpt lat="48.77986" lon="6.1388">
        <ele>187.2002</ele>
        <time>2026-05-18T12:35:47+02:00</time>
      </trkpt>
      <trkpt lat="48.77987" lon="6.13884">
        <ele>187.2002</ele>
        <time>2026-05-18T12:35:48+02:00</time>
      </trkpt>
      <trkpt lat="48.7799" lon="6.13892">
        <ele>187.40039</ele>
        <time>2026-05-18T12:35:49+02:00</time>
      </trkpt>
      <trkpt lat="48.77994" lon="6.13905">
        <ele>187.5</ele>
        <time>2026-05-18T12:35:50+02:00</time>
      </trkpt>
      <trkpt lat="48.77994" lon="6.13905">
        <ele>187.5</ele>
        <time>2026-05-18T12:35:51+02:00</time>
      </trkpt>
      <trkpt lat="48.77998" lon="6.13918">
        <ele>187.60059</ele>
        <time>2026-05-18T12:35:52+02:00</time>
      </trkpt>
      <trkpt lat="48.78001" lon="6.13926">
        <ele>187.5</ele>
        <time>2026-05-18T12:35:53+02:00</time>
      </trkpt>
      <trkpt lat="48.78007" lon="6.13937">
        <ele>187.40039</ele>
        <time>2026-05-18T12:35:54+02:00</time>
      </trkpt>
      <trkpt lat="48.78009" lon="6.13941">
        <ele>187.2002</ele>
        <time>2026-05-18T12:35:55+02:00</time>
      </trkpt>
      <trkpt lat="48.78013" lon="6.13948">
        <ele>187.2998</ele>
        <time>2026-05-18T12:35:56+02:00</time>
      </trkpt>
      <trkpt lat="48.78018" lon="6.1396">
        <ele>187.40039</ele>
        <time>2026-05-18T12:35:57+02:00</time>
      </trkpt>
      <trkpt lat="48.7802" lon="6.13963">
        <ele>187.40039</ele>
        <time>2026-05-18T12:35:58+02:00</time>
      </trkpt>
      <trkpt lat="48.78024" lon="6.13971">
        <ele>187.2002</ele>
        <time>2026-05-18T12:35:59+02:00</time>
      </trkpt>
      <trkpt lat="48.78028" lon="6.13979">
        <ele>187.10059</ele>
        <time>2026-05-18T12:36:00+02:00</time>
      </trkpt>
      <trkpt lat="48.7803" lon="6.13982">
        <ele>187.2002</ele>
        <time>2026-05-18T12:36:01+02:00</time>
      </trkpt>
      <trkpt lat="48.78036" lon="6.13993">
        <ele>187.2998</ele>
        <time>2026-05-18T12:36:02+02:00</time>
      </trkpt>
      <trkpt lat="48.7804" lon="6.14001">
        <ele>187.40039</ele>
        <time>2026-05-18T12:36:03+02:00</time>
      </trkpt>
      <trkpt lat="48.78046" lon="6.14013">
        <ele>187.10059</ele>
        <time>2026-05-18T12:36:04+02:00</time>
      </trkpt>
      <trkpt lat="48.78046" lon="6.14013">
        <ele>187.10059</ele>
        <time>2026-05-18T12:36:05+02:00</time>
      </trkpt>
      <trkpt lat="48.78053" lon="6.14024">
        <ele>187.10059</ele>
        <time>2026-05-18T12:36:06+02:00</time>
      </trkpt>
      <trkpt lat="48.78056" lon="6.14032">
        <ele>187.2002</ele>
        <time>2026-05-18T12:36:07+02:00</time>
      </trkpt>
      <trkpt lat="48.7806" lon="6.1404">
        <ele>187.2998</ele>
        <time>2026-05-18T12:36:08+02:00</time>
      </trkpt>
      <trkpt lat="48.78063" lon="6.14048">
        <ele>187.2998</ele>
        <time>2026-05-18T12:36:09+02:00</time>
      </trkpt>
      <trkpt lat="48.78068" lon="6.14055">
        <ele>187.2998</ele>
        <time>2026-05-18T12:36:10+02:00</time>
      </trkpt>
      <trkpt lat="48.78074" lon="6.14066">
        <ele>187.2002</ele>
        <time>2026-05-18T12:36:11+02:00</time>
      </trkpt>
      <trkpt lat="48.78076" lon="6.1407">
        <ele>187.2002</ele>
        <time>2026-05-18T12:36:12+02:00</time>
      </trkpt>
      <trkpt lat="48.7808" lon="6.14077">
        <ele>187.2002</ele>
        <time>2026-05-18T12:36:13+02:00</time>
      </trkpt>
      <trkpt lat="48.78087" lon="6.14088">
        <ele>187.2998</ele>
        <time>2026-05-18T12:36:14+02:00</time>
      </trkpt>
      <trkpt lat="48.78087" lon="6.14088">
        <ele>187.2998</ele>
        <time>2026-05-18T12:36:15+02:00</time>
      </trkpt>
      <trkpt lat="48.78093" lon="6.14098">
        <ele>187.2002</ele>
        <time>2026-05-18T12:36:16+02:00</time>
      </trkpt>
      <trkpt lat="48.78097" lon="6.14105">
        <ele>187.2002</ele>
        <time>2026-05-18T12:36:17+02:00</time>
      </trkpt>
      <trkpt lat="48.78103" lon="6.14114">
        <ele>187.10059</ele>
        <time>2026-05-18T12:36:18+02:00</time>
      </trkpt>
      <trkpt lat="48.78105" lon="6.14118">
        <ele>187.10059</ele>
        <time>2026-05-18T12:36:19+02:00</time>
      </trkpt>
      <trkpt lat="48.78109" lon="6.14124">
        <ele>187</ele>
        <time>2026-05-18T12:36:20+02:00</time>
      </trkpt>
      <trkpt lat="48.78116" lon="6.14131">
        <ele>187.10059</ele>
        <time>2026-05-18T12:36:21+02:00</time>
      </trkpt>
      <trkpt lat="48.78119" lon="6.14133">
        <ele>187.10059</ele>
        <time>2026-05-18T12:36:22+02:00</time>
      </trkpt>
      <trkpt lat="48.78124" lon="6.14137">
        <ele>187.2002</ele>
        <time>2026-05-18T12:36:23+02:00</time>
      </trkpt>
      <trkpt lat="48.78129" lon="6.1414">
        <ele>187.2998</ele>
        <time>2026-05-18T12:36:24+02:00</time>
      </trkpt>
      <trkpt lat="48.78135" lon="6.14145">
        <ele>187.2002</ele>
        <time>2026-05-18T12:36:25+02:00</time>
      </trkpt>
      <trkpt lat="48.78138" lon="6.14147">
        <ele>187</ele>
        <time>2026-05-18T12:36:26+02:00</time>
      </trkpt>
      <trkpt lat="48.78143" lon="6.14151">
        <ele>186.7998</ele>
        <time>2026-05-18T12:36:27+02:00</time>
      </trkpt>
      <trkpt lat="48.78148" lon="6.14154">
        <ele>186.90039</ele>
        <time>2026-05-18T12:36:28+02:00</time>
      </trkpt>
      <trkpt lat="48.78156" lon="6.14158">
        <ele>186.90039</ele>
        <time>2026-05-18T12:36:29+02:00</time>
      </trkpt>
      <trkpt lat="48.78158" lon="6.14159">
        <ele>186.90039</ele>
        <time>2026-05-18T12:36:30+02:00</time>
      </trkpt>
      <trkpt lat="48.78163" lon="6.14162">
        <ele>187</ele>
        <time>2026-05-18T12:36:31+02:00</time>
      </trkpt>
      <trkpt lat="48.78171" lon="6.14165">
        <ele>186.90039</ele>
        <time>2026-05-18T12:36:32+02:00</time>
      </trkpt>
      <trkpt lat="48.78174" lon="6.14167">
        <ele>186.90039</ele>
        <time>2026-05-18T12:36:33+02:00</time>
      </trkpt>
      <trkpt lat="48.7818" lon="6.14169">
        <ele>186.90039</ele>
        <time>2026-05-18T12:36:34+02:00</time>
      </trkpt>
      <trkpt lat="48.78185" lon="6.14172">
        <ele>186.60059</ele>
        <time>2026-05-18T12:36:35+02:00</time>
      </trkpt>
      <trkpt lat="48.78191" lon="6.14175">
        <ele>186.60059</ele>
        <time>2026-05-18T12:36:36+02:00</time>
      </trkpt>
      <trkpt lat="48.78196" lon="6.14178">
        <ele>186.5</ele>
        <time>2026-05-18T12:36:37+02:00</time>
      </trkpt>
      <trkpt lat="48.78202" lon="6.14181">
        <ele>186.60059</ele>
        <time>2026-05-18T12:36:38+02:00</time>
      </trkpt>
      <trkpt lat="48.78208" lon="6.14184">
        <ele>186.60059</ele>
        <time>2026-05-18T12:36:39+02:00</time>
      </trkpt>
      <trkpt lat="48.78214" lon="6.14187">
        <ele>186.60059</ele>
        <time>2026-05-18T12:36:40+02:00</time>
      </trkpt>
      <trkpt lat="48.7822" lon="6.14189">
        <ele>186.90039</ele>
        <time>2026-05-18T12:36:41+02:00</time>
      </trkpt>
      <trkpt lat="48.78229" lon="6.14192">
        <ele>186.7002</ele>
        <time>2026-05-18T12:36:42+02:00</time>
      </trkpt>
      <trkpt lat="48.78232" lon="6.14193">
        <ele>186.7002</ele>
        <time>2026-05-18T12:36:43+02:00</time>
      </trkpt>
      <trkpt lat="48.78238" lon="6.14195">
        <ele>186.60059</ele>
        <time>2026-05-18T12:36:44+02:00</time>
      </trkpt>
      <trkpt lat="48.78244" lon="6.14197">
        <ele>186.10059</ele>
        <time>2026-05-18T12:36:45+02:00</time>
      </trkpt>
      <trkpt lat="48.78253" lon="6.142">
        <ele>186.10059</ele>
        <time>2026-05-18T12:36:46+02:00</time>
      </trkpt>
      <trkpt lat="48.78257" lon="6.142">
        <ele>186.10059</ele>
        <time>2026-05-18T12:36:47+02:00</time>
      </trkpt>
      <trkpt lat="48.78263" lon="6.14202">
        <ele>186.10059</ele>
        <time>2026-05-18T12:36:48+02:00</time>
      </trkpt>
      <trkpt lat="48.78272" lon="6.14203">
        <ele>186</ele>
        <time>2026-05-18T12:36:49+02:00</time>
      </trkpt>
      <trkpt lat="48.78272" lon="6.14203">
        <ele>186</ele>
        <time>2026-05-18T12:36:50+02:00</time>
      </trkpt>
      <trkpt lat="48.78282" lon="6.14204">
        <ele>186.10059</ele>
        <time>2026-05-18T12:36:51+02:00</time>
      </trkpt>
      <trkpt lat="48.78288" lon="6.14204">
        <ele>186.10059</ele>
        <time>2026-05-18T12:36:52+02:00</time>
      </trkpt>
      <trkpt lat="48.78291" lon="6.14204">
        <ele>186.10059</ele>
        <time>2026-05-18T12:36:53+02:00</time>
      </trkpt>
      <trkpt lat="48.783" lon="6.14205">
        <ele>186.2002</ele>
        <time>2026-05-18T12:36:54+02:00</time>
      </trkpt>
      <trkpt lat="48.78307" lon="6.14206">
        <ele>186.2002</ele>
        <time>2026-05-18T12:36:55+02:00</time>
      </trkpt>
      <trkpt lat="48.78316" lon="6.14206">
        <ele>186.2002</ele>
        <time>2026-05-18T12:36:56+02:00</time>
      </trkpt>
      <trkpt lat="48.78319" lon="6.14206">
        <ele>186.2002</ele>
        <time>2026-05-18T12:36:57+02:00</time>
      </trkpt>
      <trkpt lat="48.78326" lon="6.14207">
        <ele>186.2002</ele>
        <time>2026-05-18T12:36:58+02:00</time>
      </trkpt>
      <trkpt lat="48.78336" lon="6.14207">
        <ele>186.2002</ele>
        <time>2026-05-18T12:36:59+02:00</time>
      </trkpt>
      <trkpt lat="48.78336" lon="6.14207">
        <ele>186.2002</ele>
        <time>2026-05-18T12:37:00+02:00</time>
      </trkpt>
      <trkpt lat="48.78345" lon="6.14208">
        <ele>186.2002</ele>
        <time>2026-05-18T12:37:01+02:00</time>
      </trkpt>
      <trkpt lat="48.78354" lon="6.14208">
        <ele>186.2998</ele>
        <time>2026-05-18T12:37:02+02:00</time>
      </trkpt>
      <trkpt lat="48.78354" lon="6.14208">
        <ele>186.2998</ele>
        <time>2026-05-18T12:37:03+02:00</time>
      </trkpt>
      <trkpt lat="48.78362" lon="6.14208">
        <ele>186.2998</ele>
        <time>2026-05-18T12:37:04+02:00</time>
      </trkpt>
      <trkpt lat="48.78368" lon="6.14207">
        <ele>186.2998</ele>
        <time>2026-05-18T12:37:05+02:00</time>
      </trkpt>
      <trkpt lat="48.78373" lon="6.14206">
        <ele>186.2998</ele>
        <time>2026-05-18T12:37:06+02:00</time>
      </trkpt>
      <trkpt lat="48.78378" lon="6.14204">
        <ele>186.2002</ele>
        <time>2026-05-18T12:37:07+02:00</time>
      </trkpt>
      <trkpt lat="48.78384" lon="6.14202">
        <ele>186.2002</ele>
        <time>2026-05-18T12:37:08+02:00</time>
      </trkpt>
      <trkpt lat="48.78391" lon="6.14198">
        <ele>186.2002</ele>
        <time>2026-05-18T12:37:09+02:00</time>
      </trkpt>
      <trkpt lat="48.78394" lon="6.14196">
        <ele>186.2002</ele>
        <time>2026-05-18T12:37:10+02:00</time>
      </trkpt>
      <trkpt lat="48.784" lon="6.14194">
        <ele>186.2002</ele>
        <time>2026-05-18T12:37:11+02:00</time>
      </trkpt>
      <trkpt lat="48.78406" lon="6.14191">
        <ele>186.2002</ele>
        <time>2026-05-18T12:37:12+02:00</time>
      </trkpt>
      <trkpt lat="48.78411" lon="6.14189">
        <ele>186.2002</ele>
        <time>2026-05-18T12:37:13+02:00</time>
      </trkpt>
      <trkpt lat="48.78417" lon="6.14186">
        <ele>186.2002</ele>
        <time>2026-05-18T12:37:14+02:00</time>
      </trkpt>
      <trkpt lat="48.78423" lon="6.14184">
        <ele>186.2002</ele>
        <time>2026-05-18T12:37:15+02:00</time>
      </trkpt>
      <trkpt lat="48.78432" lon="6.1418">
        <ele>186.2002</ele>
        <time>2026-05-18T12:37:16+02:00</time>
      </trkpt>
      <trkpt lat="48.78435" lon="6.14179">
        <ele>186.2002</ele>
        <time>2026-05-18T12:37:17+02:00</time>
      </trkpt>
      <trkpt lat="48.78441" lon="6.14176">
        <ele>186.40039</ele>
        <time>2026-05-18T12:37:18+02:00</time>
      </trkpt>
      <trkpt lat="48.78451" lon="6.14172">
        <ele>186.40039</ele>
        <time>2026-05-18T12:37:19+02:00</time>
      </trkpt>
      <trkpt lat="48.78454" lon="6.14171">
        <ele>186.40039</ele>
        <time>2026-05-18T12:37:20+02:00</time>
      </trkpt>
      <trkpt lat="48.7846" lon="6.14168">
        <ele>186.7002</ele>
        <time>2026-05-18T12:37:21+02:00</time>
      </trkpt>
      <trkpt lat="48.78467" lon="6.14166">
        <ele>186.7002</ele>
        <time>2026-05-18T12:37:22+02:00</time>
      </trkpt>
      <trkpt lat="48.78476" lon="6.14162">
        <ele>186.60059</ele>
        <time>2026-05-18T12:37:23+02:00</time>
      </trkpt>
      <trkpt lat="48.7848" lon="6.14161">
        <ele>187.2998</ele>
        <time>2026-05-18T12:37:24+02:00</time>
      </trkpt>
      <trkpt lat="48.78486" lon="6.14158">
        <ele>187.2998</ele>
        <time>2026-05-18T12:37:25+02:00</time>
      </trkpt>
      <trkpt lat="48.78496" lon="6.14154">
        <ele>187.2002</ele>
        <time>2026-05-18T12:37:26+02:00</time>
      </trkpt>
      <trkpt lat="48.78496" lon="6.14154">
        <ele>187.2002</ele>
        <time>2026-05-18T12:37:27+02:00</time>
      </trkpt>
      <trkpt lat="48.78506" lon="6.1415">
        <ele>187.7998</ele>
        <time>2026-05-18T12:37:28+02:00</time>
      </trkpt>
      <trkpt lat="48.78513" lon="6.14147">
        <ele>187.60059</ele>
        <time>2026-05-18T12:37:29+02:00</time>
      </trkpt>
      <trkpt lat="48.78523" lon="6.14143">
        <ele>187.2998</ele>
        <time>2026-05-18T12:37:30+02:00</time>
      </trkpt>
      <trkpt lat="48.78527" lon="6.14141">
        <ele>186.7002</ele>
        <time>2026-05-18T12:37:31+02:00</time>
      </trkpt>
      <trkpt lat="48.78534" lon="6.14138">
        <ele>186.2998</ele>
        <time>2026-05-18T12:37:32+02:00</time>
      </trkpt>
      <trkpt lat="48.78541" lon="6.14135">
        <ele>186.5</ele>
        <time>2026-05-18T12:37:33+02:00</time>
      </trkpt>
      <trkpt lat="48.78548" lon="6.14132">
        <ele>186.40039</ele>
        <time>2026-05-18T12:37:34+02:00</time>
      </trkpt>
      <trkpt lat="48.78555" lon="6.14129">
        <ele>186.40039</ele>
        <time>2026-05-18T12:37:35+02:00</time>
      </trkpt>
      <trkpt lat="48.78562" lon="6.14126">
        <ele>186.90039</ele>
        <time>2026-05-18T12:37:36+02:00</time>
      </trkpt>
      <trkpt lat="48.78573" lon="6.14122">
        <ele>186.7998</ele>
        <time>2026-05-18T12:37:37+02:00</time>
      </trkpt>
      <trkpt lat="48.78576" lon="6.1412">
        <ele>186.7998</ele>
        <time>2026-05-18T12:37:38+02:00</time>
      </trkpt>
      <trkpt lat="48.78583" lon="6.14117">
        <ele>187.60059</ele>
        <time>2026-05-18T12:37:39+02:00</time>
      </trkpt>
      <trkpt lat="48.78593" lon="6.14113">
        <ele>187.5</ele>
        <time>2026-05-18T12:37:40+02:00</time>
      </trkpt>
      <trkpt lat="48.78596" lon="6.14112">
        <ele>187.5</ele>
        <time>2026-05-18T12:37:41+02:00</time>
      </trkpt>
      <trkpt lat="48.78603" lon="6.14109">
        <ele>188.2998</ele>
        <time>2026-05-18T12:37:42+02:00</time>
      </trkpt>
      <trkpt lat="48.7861" lon="6.14106">
        <ele>188.2002</ele>
        <time>2026-05-18T12:37:43+02:00</time>
      </trkpt>
      <trkpt lat="48.7862" lon="6.14101">
        <ele>188.7002</ele>
        <time>2026-05-18T12:37:44+02:00</time>
      </trkpt>
      <trkpt lat="48.78624" lon="6.14099">
        <ele>188.40039</ele>
        <time>2026-05-18T12:37:45+02:00</time>
      </trkpt>
      <trkpt lat="48.7863" lon="6.14095">
        <ele>187.90039</ele>
        <time>2026-05-18T12:37:46+02:00</time>
      </trkpt>
      <trkpt lat="48.78639" lon="6.14088">
        <ele>187.7002</ele>
        <time>2026-05-18T12:37:47+02:00</time>
      </trkpt>
      <trkpt lat="48.78639" lon="6.14088">
        <ele>187.7002</ele>
        <time>2026-05-18T12:37:48+02:00</time>
      </trkpt>
      <trkpt lat="48.78648" lon="6.14079">
        <ele>187.40039</ele>
        <time>2026-05-18T12:37:49+02:00</time>
      </trkpt>
      <trkpt lat="48.78654" lon="6.14073">
        <ele>188.2998</ele>
        <time>2026-05-18T12:37:50+02:00</time>
      </trkpt>
      <trkpt lat="48.78662" lon="6.14064">
        <ele>189.2998</ele>
        <time>2026-05-18T12:37:51+02:00</time>
      </trkpt>
      <trkpt lat="48.78665" lon="6.14062">
        <ele>189.2002</ele>
        <time>2026-05-18T12:37:52+02:00</time>
      </trkpt>
      <trkpt lat="48.78671" lon="6.14056">
        <ele>190</ele>
        <time>2026-05-18T12:37:53+02:00</time>
      </trkpt>
      <trkpt lat="48.78681" lon="6.14047">
        <ele>190.7998</ele>
        <time>2026-05-18T12:37:54+02:00</time>
      </trkpt>
      <trkpt lat="48.78684" lon="6.14044">
        <ele>190.7998</ele>
        <time>2026-05-18T12:37:55+02:00</time>
      </trkpt>
      <trkpt lat="48.7869" lon="6.14038">
        <ele>191.7002</ele>
        <time>2026-05-18T12:37:56+02:00</time>
      </trkpt>
      <trkpt lat="48.78696" lon="6.14033">
        <ele>191.7002</ele>
        <time>2026-05-18T12:37:57+02:00</time>
      </trkpt>
      <trkpt lat="48.78702" lon="6.14027">
        <ele>192.40039</ele>
        <time>2026-05-18T12:37:58+02:00</time>
      </trkpt>
      <trkpt lat="48.78708" lon="6.14023">
        <ele>192.7998</ele>
        <time>2026-05-18T12:37:59+02:00</time>
      </trkpt>
      <trkpt lat="48.78715" lon="6.14019">
        <ele>192.60059</ele>
        <time>2026-05-18T12:38:00+02:00</time>
      </trkpt>
      <trkpt lat="48.78724" lon="6.14013">
        <ele>192.5</ele>
        <time>2026-05-18T12:38:01+02:00</time>
      </trkpt>
      <trkpt lat="48.78727" lon="6.1401">
        <ele>192.2002</ele>
        <time>2026-05-18T12:38:02+02:00</time>
      </trkpt>
      <trkpt lat="48.78731" lon="6.14004">
        <ele>191.7998</ele>
        <time>2026-05-18T12:38:03+02:00</time>
      </trkpt>
      <trkpt lat="48.78738" lon="6.13994">
        <ele>191.2002</ele>
        <time>2026-05-18T12:38:04+02:00</time>
      </trkpt>
      <trkpt lat="48.78738" lon="6.13994">
        <ele>191.2002</ele>
        <time>2026-05-18T12:38:05+02:00</time>
      </trkpt>
      <trkpt lat="48.78744" lon="6.13983">
        <ele>190.7998</ele>
        <time>2026-05-18T12:38:06+02:00</time>
      </trkpt>
      <trkpt lat="48.78749" lon="6.13971">
        <ele>190.60059</ele>
        <time>2026-05-18T12:38:07+02:00</time>
      </trkpt>
      <trkpt lat="48.78749" lon="6.13971">
        <ele>190.60059</ele>
        <time>2026-05-18T12:38:08+02:00</time>
      </trkpt>
      <trkpt lat="48.78755" lon="6.13959">
        <ele>190.2998</ele>
        <time>2026-05-18T12:38:09+02:00</time>
      </trkpt>
      <trkpt lat="48.78758" lon="6.13951">
        <ele>190.5</ele>
        <time>2026-05-18T12:38:10+02:00</time>
      </trkpt>
      <trkpt lat="48.7876" lon="6.13947">
        <ele>190.2002</ele>
        <time>2026-05-18T12:38:11+02:00</time>
      </trkpt>
      <trkpt lat="48.78764" lon="6.13935">
        <ele>190.5</ele>
        <time>2026-05-18T12:38:12+02:00</time>
      </trkpt>
      <trkpt lat="48.78766" lon="6.13927">
        <ele>190.40039</ele>
        <time>2026-05-18T12:38:13+02:00</time>
      </trkpt>
      <trkpt lat="48.78769" lon="6.13916">
        <ele>190.5</ele>
        <time>2026-05-18T12:38:14+02:00</time>
      </trkpt>
      <trkpt lat="48.7877" lon="6.13913">
        <ele>190.2002</ele>
        <time>2026-05-18T12:38:15+02:00</time>
      </trkpt>
      <trkpt lat="48.78773" lon="6.13907">
        <ele>190.40039</ele>
        <time>2026-05-18T12:38:16+02:00</time>
      </trkpt>
      <trkpt lat="48.78778" lon="6.13899">
        <ele>190.2998</ele>
        <time>2026-05-18T12:38:17+02:00</time>
      </trkpt>
      <trkpt lat="48.7878" lon="6.13897">
        <ele>190.2998</ele>
        <time>2026-05-18T12:38:18+02:00</time>
      </trkpt>
      <trkpt lat="48.78783" lon="6.13893">
        <ele>190.2998</ele>
        <time>2026-05-18T12:38:19+02:00</time>
      </trkpt>
      <trkpt lat="48.78787" lon="6.13888">
        <ele>190.10059</ele>
        <time>2026-05-18T12:38:20+02:00</time>
      </trkpt>
      <trkpt lat="48.78787" lon="6.13888">
        <ele>190.10059</ele>
        <time>2026-05-18T12:38:21+02:00</time>
      </trkpt>
      <trkpt lat="48.78788" lon="6.13886">
        <ele>190.2002</ele>
        <time>2026-05-18T12:38:22+02:00</time>
      </trkpt>
      <trkpt lat="48.78789" lon="6.13886">
        <ele>190.2002</ele>
        <time>2026-05-18T12:38:23+02:00</time>
      </trkpt>
      <trkpt lat="48.78788" lon="6.13886">
        <ele>190.2002</ele>
        <time>2026-05-18T12:38:24+02:00</time>
      </trkpt>
      <trkpt lat="48.78788" lon="6.13886">
        <ele>190.2002</ele>
        <time>2026-05-18T12:38:25+02:00</time>
      </trkpt>
      <trkpt lat="48.78788" lon="6.13886">
        <ele>190.2002</ele>
        <time>2026-05-18T12:38:26+02:00</time>
      </trkpt>
      <trkpt lat="48.78872" lon="6.13988">
        <ele>186.40039</ele>
        <time>2026-05-18T12:42:22+02:00</time>
      </trkpt>
      <trkpt lat="48.78874" lon="6.13993">
        <ele>186.40039</ele>
        <time>2026-05-18T12:42:23+02:00</time>
      </trkpt>
      <trkpt lat="48.78876" lon="6.13998">
        <ele>186.40039</ele>
        <time>2026-05-18T12:42:24+02:00</time>
      </trkpt>
      <trkpt lat="48.78879" lon="6.14004">
        <ele>186.40039</ele>
        <time>2026-05-18T12:42:25+02:00</time>
      </trkpt>
      <trkpt lat="48.7888" lon="6.14007">
        <ele>186.2998</ele>
        <time>2026-05-18T12:42:26+02:00</time>
      </trkpt>
      <trkpt lat="48.78884" lon="6.14015">
        <ele>186.2998</ele>
        <time>2026-05-18T12:42:27+02:00</time>
      </trkpt>
      <trkpt lat="48.78887" lon="6.14021">
        <ele>186.2998</ele>
        <time>2026-05-18T12:42:28+02:00</time>
      </trkpt>
      <trkpt lat="48.78891" lon="6.14029">
        <ele>186.2998</ele>
        <time>2026-05-18T12:42:29+02:00</time>
      </trkpt>
      <trkpt lat="48.78892" lon="6.14032">
        <ele>186.2998</ele>
        <time>2026-05-18T12:42:30+02:00</time>
      </trkpt>
      <trkpt lat="48.78895" lon="6.14038">
        <ele>186.2998</ele>
        <time>2026-05-18T12:42:31+02:00</time>
      </trkpt>
      <trkpt lat="48.78899" lon="6.14048">
        <ele>186.40039</ele>
        <time>2026-05-18T12:42:32+02:00</time>
      </trkpt>
      <trkpt lat="48.78899" lon="6.14048">
        <ele>186.40039</ele>
        <time>2026-05-18T12:42:33+02:00</time>
      </trkpt>
      <trkpt lat="48.78903" lon="6.14057">
        <ele>186.40039</ele>
        <time>2026-05-18T12:42:34+02:00</time>
      </trkpt>
      <trkpt lat="48.78906" lon="6.14063">
        <ele>186.40039</ele>
        <time>2026-05-18T12:42:35+02:00</time>
      </trkpt>
      <trkpt lat="48.7891" lon="6.14073">
        <ele>186.40039</ele>
        <time>2026-05-18T12:42:36+02:00</time>
      </trkpt>
      <trkpt lat="48.78911" lon="6.14076">
        <ele>186.40039</ele>
        <time>2026-05-18T12:42:37+02:00</time>
      </trkpt>
      <trkpt lat="48.78914" lon="6.14083">
        <ele>186.40039</ele>
        <time>2026-05-18T12:42:38+02:00</time>
      </trkpt>
      <trkpt lat="48.78918" lon="6.14092">
        <ele>186.60059</ele>
        <time>2026-05-18T12:42:39+02:00</time>
      </trkpt>
      <trkpt lat="48.7892" lon="6.14095">
        <ele>186.7998</ele>
        <time>2026-05-18T12:42:40+02:00</time>
      </trkpt>
      <trkpt lat="48.78922" lon="6.14102">
        <ele>187.10059</ele>
        <time>2026-05-18T12:42:41+02:00</time>
      </trkpt>
      <trkpt lat="48.78925" lon="6.14108">
        <ele>187.2998</ele>
        <time>2026-05-18T12:42:42+02:00</time>
      </trkpt>
      <trkpt lat="48.78929" lon="6.14117">
        <ele>187.7998</ele>
        <time>2026-05-18T12:42:43+02:00</time>
      </trkpt>
      <trkpt lat="48.7893" lon="6.1412">
        <ele>188.2998</ele>
        <time>2026-05-18T12:42:44+02:00</time>
      </trkpt>
      <trkpt lat="48.78933" lon="6.14126">
        <ele>188.2998</ele>
        <time>2026-05-18T12:42:45+02:00</time>
      </trkpt>
      <trkpt lat="48.78937" lon="6.14136">
        <ele>189.40039</ele>
        <time>2026-05-18T12:42:46+02:00</time>
      </trkpt>
      <trkpt lat="48.78938" lon="6.14139">
        <ele>189.40039</ele>
        <time>2026-05-18T12:42:47+02:00</time>
      </trkpt>
      <trkpt lat="48.78941" lon="6.14145">
        <ele>190</ele>
        <time>2026-05-18T12:42:48+02:00</time>
      </trkpt>
      <trkpt lat="48.78943" lon="6.14152">
        <ele>190</ele>
        <time>2026-05-18T12:42:49+02:00</time>
      </trkpt>
      <trkpt lat="48.78948" lon="6.14162">
        <ele>190.7002</ele>
        <time>2026-05-18T12:42:50+02:00</time>
      </trkpt>
      <trkpt lat="48.78949" lon="6.14165">
        <ele>190.7002</ele>
        <time>2026-05-18T12:42:51+02:00</time>
      </trkpt>
      <trkpt lat="48.78952" lon="6.14172">
        <ele>190.90039</ele>
        <time>2026-05-18T12:42:52+02:00</time>
      </trkpt>
      <trkpt lat="48.78954" lon="6.14178">
        <ele>190.90039</ele>
        <time>2026-05-18T12:42:53+02:00</time>
      </trkpt>
      <trkpt lat="48.78957" lon="6.14185">
        <ele>191.10059</ele>
        <time>2026-05-18T12:42:54+02:00</time>
      </trkpt>
      <trkpt lat="48.78959" lon="6.14192">
        <ele>191.2002</ele>
        <time>2026-05-18T12:42:55+02:00</time>
      </trkpt>
      <trkpt lat="48.78962" lon="6.14199">
        <ele>191.40039</ele>
        <time>2026-05-18T12:42:56+02:00</time>
      </trkpt>
      <trkpt lat="48.78965" lon="6.14206">
        <ele>191.5</ele>
        <time>2026-05-18T12:42:57+02:00</time>
      </trkpt>
      <trkpt lat="48.78966" lon="6.1421">
        <ele>191.5</ele>
        <time>2026-05-18T12:42:58+02:00</time>
      </trkpt>
      <trkpt lat="48.7897" lon="6.14221">
        <ele>191.60059</ele>
        <time>2026-05-18T12:42:59+02:00</time>
      </trkpt>
      <trkpt lat="48.78973" lon="6.14229">
        <ele>191.60059</ele>
        <time>2026-05-18T12:43:00+02:00</time>
      </trkpt>
      <trkpt lat="48.78977" lon="6.14239">
        <ele>191.7002</ele>
        <time>2026-05-18T12:43:01+02:00</time>
      </trkpt>
      <trkpt lat="48.78978" lon="6.14242">
        <ele>191.7002</ele>
        <time>2026-05-18T12:43:02+02:00</time>
      </trkpt>
      <trkpt lat="48.78981" lon="6.14249">
        <ele>191.90039</ele>
        <time>2026-05-18T12:43:03+02:00</time>
      </trkpt>
      <trkpt lat="48.78985" lon="6.1426">
        <ele>192.10059</ele>
        <time>2026-05-18T12:43:04+02:00</time>
      </trkpt>
      <trkpt lat="48.78986" lon="6.14263">
        <ele>192.10059</ele>
        <time>2026-05-18T12:43:05+02:00</time>
      </trkpt>
      <trkpt lat="48.78988" lon="6.14271">
        <ele>192.2002</ele>
        <time>2026-05-18T12:43:06+02:00</time>
      </trkpt>
      <trkpt lat="48.7899" lon="6.14282">
        <ele>192.2998</ele>
        <time>2026-05-18T12:43:07+02:00</time>
      </trkpt>
      <trkpt lat="48.7899" lon="6.14286">
        <ele>192.2998</ele>
        <time>2026-05-18T12:43:08+02:00</time>
      </trkpt>
      <trkpt lat="48.78991" lon="6.14293">
        <ele>192.2998</ele>
        <time>2026-05-18T12:43:09+02:00</time>
      </trkpt>
      <trkpt lat="48.78993" lon="6.14299">
        <ele>192.40039</ele>
        <time>2026-05-18T12:43:10+02:00</time>
      </trkpt>
      <trkpt lat="48.78997" lon="6.14306">
        <ele>192.2998</ele>
        <time>2026-05-18T12:43:11+02:00</time>
      </trkpt>
      <trkpt lat="48.78999" lon="6.14308">
        <ele>192.40039</ele>
        <time>2026-05-18T12:43:12+02:00</time>
      </trkpt>
      <trkpt lat="48.79003" lon="6.14308">
        <ele>192.40039</ele>
        <time>2026-05-18T12:43:13+02:00</time>
      </trkpt>
      <trkpt lat="48.79008" lon="6.14306">
        <ele>192.2998</ele>
        <time>2026-05-18T12:43:14+02:00</time>
      </trkpt>
      <trkpt lat="48.7901" lon="6.14304">
        <ele>192.2998</ele>
        <time>2026-05-18T12:43:15+02:00</time>
      </trkpt>
      <trkpt lat="48.79012" lon="6.143">
        <ele>192.2998</ele>
        <time>2026-05-18T12:43:16+02:00</time>
      </trkpt>
      <trkpt lat="48.79014" lon="6.14294">
        <ele>192.2998</ele>
        <time>2026-05-18T12:43:17+02:00</time>
      </trkpt>
      <trkpt lat="48.79015" lon="6.14284">
        <ele>192.2998</ele>
        <time>2026-05-18T12:43:18+02:00</time>
      </trkpt>
      <trkpt lat="48.79016" lon="6.1428">
        <ele>192.2998</ele>
        <time>2026-05-18T12:43:19+02:00</time>
      </trkpt>
      <trkpt lat="48.79017" lon="6.14274">
        <ele>192.2998</ele>
        <time>2026-05-18T12:43:20+02:00</time>
      </trkpt>
      <trkpt lat="48.79021" lon="6.14264">
        <ele>192.2998</ele>
        <time>2026-05-18T12:43:21+02:00</time>
      </trkpt>
      <trkpt lat="48.79022" lon="6.14261">
        <ele>192.2998</ele>
        <time>2026-05-18T12:43:22+02:00</time>
      </trkpt>
      <trkpt lat="48.79025" lon="6.14254">
        <ele>192.40039</ele>
        <time>2026-05-18T12:43:23+02:00</time>
      </trkpt>
      <trkpt lat="48.79027" lon="6.14248">
        <ele>192.40039</ele>
        <time>2026-05-18T12:43:24+02:00</time>
      </trkpt>
      <trkpt lat="48.79032" lon="6.14238">
        <ele>192.60059</ele>
        <time>2026-05-18T12:43:25+02:00</time>
      </trkpt>
      <trkpt lat="48.79033" lon="6.14235">
        <ele>192.60059</ele>
        <time>2026-05-18T12:43:26+02:00</time>
      </trkpt>
      <trkpt lat="48.79036" lon="6.14229">
        <ele>192.7998</ele>
        <time>2026-05-18T12:43:27+02:00</time>
      </trkpt>
      <trkpt lat="48.79039" lon="6.1422">
        <ele>192.7998</ele>
        <time>2026-05-18T12:43:28+02:00</time>
      </trkpt>
      <trkpt lat="48.7904" lon="6.14217">
        <ele>192.7998</ele>
        <time>2026-05-18T12:43:29+02:00</time>
      </trkpt>
      <trkpt lat="48.79043" lon="6.14211">
        <ele>193</ele>
        <time>2026-05-18T12:43:30+02:00</time>
      </trkpt>
      <trkpt lat="48.79045" lon="6.14206">
        <ele>193</ele>
        <time>2026-05-18T12:43:31+02:00</time>
      </trkpt>
      <trkpt lat="48.79048" lon="6.14197">
        <ele>193.2002</ele>
        <time>2026-05-18T12:43:32+02:00</time>
      </trkpt>
      <trkpt lat="48.79049" lon="6.14194">
        <ele>193.2002</ele>
        <time>2026-05-18T12:43:33+02:00</time>
      </trkpt>
      <trkpt lat="48.79051" lon="6.14188">
        <ele>193.2002</ele>
        <time>2026-05-18T12:43:34+02:00</time>
      </trkpt>
      <trkpt lat="48.79053" lon="6.14182">
        <ele>193.40039</ele>
        <time>2026-05-18T12:43:35+02:00</time>
      </trkpt>
      <trkpt lat="48.79057" lon="6.14173">
        <ele>193.40039</ele>
        <time>2026-05-18T12:43:36+02:00</time>
      </trkpt>
      <trkpt lat="48.79058" lon="6.1417">
        <ele>193.60059</ele>
        <time>2026-05-18T12:43:37+02:00</time>
      </trkpt>
      <trkpt lat="48.7906" lon="6.14164">
        <ele>193.60059</ele>
        <time>2026-05-18T12:43:38+02:00</time>
      </trkpt>
      <trkpt lat="48.79062" lon="6.14155">
        <ele>193.5</ele>
        <time>2026-05-18T12:43:39+02:00</time>
      </trkpt>
      <trkpt lat="48.79062" lon="6.14152">
        <ele>193.2998</ele>
        <time>2026-05-18T12:43:40+02:00</time>
      </trkpt>
      <trkpt lat="48.79064" lon="6.14146">
        <ele>193.5</ele>
        <time>2026-05-18T12:43:41+02:00</time>
      </trkpt>
      <trkpt lat="48.79067" lon="6.14138">
        <ele>193.2998</ele>
        <time>2026-05-18T12:43:42+02:00</time>
      </trkpt>
      <trkpt lat="48.79067" lon="6.14138">
        <ele>193.2998</ele>
        <time>2026-05-18T12:43:43+02:00</time>
      </trkpt>
      <trkpt lat="48.79069" lon="6.14129">
        <ele>193.10059</ele>
        <time>2026-05-18T12:43:44+02:00</time>
      </trkpt>
      <trkpt lat="48.7907" lon="6.14123">
        <ele>193.10059</ele>
        <time>2026-05-18T12:43:45+02:00</time>
      </trkpt>
      <trkpt lat="48.79071" lon="6.14114">
        <ele>192.7998</ele>
        <time>2026-05-18T12:43:46+02:00</time>
      </trkpt>
      <trkpt lat="48.79072" lon="6.14112">
        <ele>192.7998</ele>
        <time>2026-05-18T12:43:47+02:00</time>
      </trkpt>
      <trkpt lat="48.79073" lon="6.14107">
        <ele>192.60059</ele>
        <time>2026-05-18T12:43:48+02:00</time>
      </trkpt>
      <trkpt lat="48.79078" lon="6.14102">
        <ele>192.90039</ele>
        <time>2026-05-18T12:43:49+02:00</time>
      </trkpt>
      <trkpt lat="48.7908" lon="6.14102">
        <ele>192.90039</ele>
        <time>2026-05-18T12:43:50+02:00</time>
      </trkpt>
      <trkpt lat="48.79084" lon="6.14101">
        <ele>192.90039</ele>
        <time>2026-05-18T12:43:51+02:00</time>
      </trkpt>
      <trkpt lat="48.79087" lon="6.14103">
        <ele>193.40039</ele>
        <time>2026-05-18T12:43:52+02:00</time>
      </trkpt>
      <trkpt lat="48.79091" lon="6.14107">
        <ele>193.40039</ele>
        <time>2026-05-18T12:43:53+02:00</time>
      </trkpt>
      <trkpt lat="48.79091" lon="6.14109">
        <ele>193.40039</ele>
        <time>2026-05-18T12:43:54+02:00</time>
      </trkpt>
      <trkpt lat="48.79093" lon="6.14113">
        <ele>194</ele>
        <time>2026-05-18T12:43:55+02:00</time>
      </trkpt>
      <trkpt lat="48.79096" lon="6.14119">
        <ele>194.2998</ele>
        <time>2026-05-18T12:43:56+02:00</time>
      </trkpt>
      <trkpt lat="48.79097" lon="6.14121">
        <ele>194.2998</ele>
        <time>2026-05-18T12:43:57+02:00</time>
      </trkpt>
      <trkpt lat="48.79099" lon="6.14126">
        <ele>194.60059</ele>
        <time>2026-05-18T12:43:58+02:00</time>
      </trkpt>
      <trkpt lat="48.79101" lon="6.14129">
        <ele>194.7998</ele>
        <time>2026-05-18T12:43:59+02:00</time>
      </trkpt>
      <trkpt lat="48.79103" lon="6.14135">
        <ele>194.7998</ele>
        <time>2026-05-18T12:44:00+02:00</time>
      </trkpt>
      <trkpt lat="48.79104" lon="6.14137">
        <ele>195.2998</ele>
        <time>2026-05-18T12:44:01+02:00</time>
      </trkpt>
      <trkpt lat="48.79105" lon="6.14139">
        <ele>195.2998</ele>
        <time>2026-05-18T12:44:02+02:00</time>
      </trkpt>
      <trkpt lat="48.79107" lon="6.14144">
        <ele>195.2998</ele>
        <time>2026-05-18T12:44:03+02:00</time>
      </trkpt>
      <trkpt lat="48.79107" lon="6.14144">
        <ele>195.2998</ele>
        <time>2026-05-18T12:44:04+02:00</time>
      </trkpt>
      <trkpt lat="48.7911" lon="6.1415">
        <ele>195.7998</ele>
        <time>2026-05-18T12:44:05+02:00</time>
      </trkpt>
      <trkpt lat="48.79111" lon="6.14153">
        <ele>196</ele>
        <time>2026-05-18T12:44:06+02:00</time>
      </trkpt>
      <trkpt lat="48.79114" lon="6.14159">
        <ele>196</ele>
        <time>2026-05-18T12:44:07+02:00</time>
      </trkpt>
      <trkpt lat="48.79115" lon="6.1416">
        <ele>196.2998</ele>
        <time>2026-05-18T12:44:08+02:00</time>
      </trkpt>
      <trkpt lat="48.79118" lon="6.14163">
        <ele>196.40039</ele>
        <time>2026-05-18T12:44:09+02:00</time>
      </trkpt>
      <trkpt lat="48.79121" lon="6.14163">
        <ele>196.7002</ele>
        <time>2026-05-18T12:44:10+02:00</time>
      </trkpt>
      <trkpt lat="48.79124" lon="6.1416">
        <ele>196.60059</ele>
        <time>2026-05-18T12:44:11+02:00</time>
      </trkpt>
      <trkpt lat="48.79124" lon="6.1416">
        <ele>196.60059</ele>
        <time>2026-05-18T12:44:12+02:00</time>
      </trkpt>
      <trkpt lat="48.79126" lon="6.14158">
        <ele>196.90039</ele>
        <time>2026-05-18T12:44:13+02:00</time>
      </trkpt>
      <trkpt lat="48.79128" lon="6.14156">
        <ele>196.90039</ele>
        <time>2026-05-18T12:44:14+02:00</time>
      </trkpt>
      <trkpt lat="48.7913" lon="6.14156">
        <ele>196.90039</ele>
        <time>2026-05-18T12:44:15+02:00</time>
      </trkpt>
      <trkpt lat="48.79131" lon="6.14155">
        <ele>196.90039</ele>
        <time>2026-05-18T12:44:16+02:00</time>
      </trkpt>
      <trkpt lat="48.79133" lon="6.14154">
        <ele>197.2002</ele>
        <time>2026-05-18T12:44:17+02:00</time>
      </trkpt>
      <trkpt lat="48.79135" lon="6.14153">
        <ele>197.2002</ele>
        <time>2026-05-18T12:44:18+02:00</time>
      </trkpt>
      <trkpt lat="48.79138" lon="6.14153">
        <ele>197.5</ele>
        <time>2026-05-18T12:44:19+02:00</time>
      </trkpt>
      <trkpt lat="48.7914" lon="6.14152">
        <ele>197.2002</ele>
        <time>2026-05-18T12:44:20+02:00</time>
      </trkpt>
      <trkpt lat="48.79141" lon="6.1415">
        <ele>197.2002</ele>
        <time>2026-05-18T12:44:21+02:00</time>
      </trkpt>
      <trkpt lat="48.79141" lon="6.14147">
        <ele>197.2002</ele>
        <time>2026-05-18T12:44:22+02:00</time>
      </trkpt>
      <trkpt lat="48.7914" lon="6.14145">
        <ele>197.2002</ele>
        <time>2026-05-18T12:44:23+02:00</time>
      </trkpt>
      <trkpt lat="48.79139" lon="6.14143">
        <ele>197</ele>
        <time>2026-05-18T12:44:24+02:00</time>
      </trkpt>
      <trkpt lat="48.79138" lon="6.14141">
        <ele>197</ele>
        <time>2026-05-18T12:44:25+02:00</time>
      </trkpt>
      <trkpt lat="48.79138" lon="6.14139">
        <ele>197</ele>
        <time>2026-05-18T12:44:26+02:00</time>
      </trkpt>
      <trkpt lat="48.79136" lon="6.14137">
        <ele>196.7002</ele>
        <time>2026-05-18T12:44:27+02:00</time>
      </trkpt>
      <trkpt lat="48.79136" lon="6.14137">
        <ele>196.7002</ele>
        <time>2026-05-18T12:44:28+02:00</time>
      </trkpt>
      <trkpt lat="48.79135" lon="6.14136">
        <ele>196.7002</ele>
        <time>2026-05-18T12:44:29+02:00</time>
      </trkpt>
      <trkpt lat="48.79134" lon="6.14136">
        <ele>196.7002</ele>
        <time>2026-05-18T12:44:30+02:00</time>
      </trkpt>
      <trkpt lat="48.79134" lon="6.14136">
        <ele>196.7002</ele>
        <time>2026-05-18T12:44:31+02:00</time>
      </trkpt>
      <trkpt lat="48.79134" lon="6.14136">
        <ele>196.7002</ele>
        <time>2026-05-18T13:03:37+02:00</time>
      </trkpt>
      <trkpt lat="48.79134" lon="6.14136">
        <ele>196.7002</ele>
        <time>2026-05-18T13:03:38+02:00</time>
      </trkpt>
      <trkpt lat="48.79134" lon="6.14136">
        <ele>196.7002</ele>
        <time>2026-05-18T13:03:39+02:00</time>
      </trkpt>
      <trkpt lat="48.79134" lon="6.14136">
        <ele>196.7002</ele>
        <time>2026-05-18T13:03:40+02:00</time>
      </trkpt>
      <trkpt lat="48.79134" lon="6.14136">
        <ele>196.7002</ele>
        <time>2026-05-18T13:03:41+02:00</time>
      </trkpt>
      <trkpt lat="48.79134" lon="6.14136">
        <ele>196.7002</ele>
        <time>2026-05-18T13:03:42+02:00</time>
      </trkpt>
      <trkpt lat="48.79142" lon="6.14126">
        <ele>196.40039</ele>
        <time>2026-05-18T13:03:43+02:00</time>
      </trkpt>
      <trkpt lat="48.79142" lon="6.14128">
        <ele>196.7002</ele>
        <time>2026-05-18T13:03:44+02:00</time>
      </trkpt>
      <trkpt lat="48.79142" lon="6.14129">
        <ele>196.7002</ele>
        <time>2026-05-18T13:03:45+02:00</time>
      </trkpt>
      <trkpt lat="48.79141" lon="6.14131">
        <ele>196.7002</ele>
        <time>2026-05-18T13:03:46+02:00</time>
      </trkpt>
      <trkpt lat="48.79141" lon="6.14133">
        <ele>196.7002</ele>
        <time>2026-05-18T13:03:47+02:00</time>
      </trkpt>
      <trkpt lat="48.79141" lon="6.14136">
        <ele>197</ele>
        <time>2026-05-18T13:03:48+02:00</time>
      </trkpt>
      <trkpt lat="48.7914" lon="6.14138">
        <ele>197</ele>
        <time>2026-05-18T13:03:49+02:00</time>
      </trkpt>
      <trkpt lat="48.79139" lon="6.1414">
        <ele>197</ele>
        <time>2026-05-18T13:03:50+02:00</time>
      </trkpt>
      <trkpt lat="48.79138" lon="6.14143">
        <ele>197</ele>
        <time>2026-05-18T13:03:51+02:00</time>
      </trkpt>
      <trkpt lat="48.79136" lon="6.14145">
        <ele>197</ele>
        <time>2026-05-18T13:03:52+02:00</time>
      </trkpt>
      <trkpt lat="48.79134" lon="6.14147">
        <ele>197</ele>
        <time>2026-05-18T13:03:53+02:00</time>
      </trkpt>
      <trkpt lat="48.79132" lon="6.14148">
        <ele>197</ele>
        <time>2026-05-18T13:03:54+02:00</time>
      </trkpt>
      <trkpt lat="48.7913" lon="6.14148">
        <ele>196.7002</ele>
        <time>2026-05-18T13:03:55+02:00</time>
      </trkpt>
      <trkpt lat="48.79128" lon="6.14151">
        <ele>196.7002</ele>
        <time>2026-05-18T13:03:56+02:00</time>
      </trkpt>
      <trkpt lat="48.79128" lon="6.14153">
        <ele>196.90039</ele>
        <time>2026-05-18T13:03:57+02:00</time>
      </trkpt>
      <trkpt lat="48.79128" lon="6.14156">
        <ele>196.90039</ele>
        <time>2026-05-18T13:03:58+02:00</time>
      </trkpt>
      <trkpt lat="48.79127" lon="6.14158">
        <ele>196.90039</ele>
        <time>2026-05-18T13:03:59+02:00</time>
      </trkpt>
      <trkpt lat="48.79126" lon="6.14159">
        <ele>196.90039</ele>
        <time>2026-05-18T13:04:00+02:00</time>
      </trkpt>
      <trkpt lat="48.79126" lon="6.14161">
        <ele>196.90039</ele>
        <time>2026-05-18T13:04:01+02:00</time>
      </trkpt>
      <trkpt lat="48.79125" lon="6.14163">
        <ele>196.7002</ele>
        <time>2026-05-18T13:04:02+02:00</time>
      </trkpt>
      <trkpt lat="48.79125" lon="6.14166">
        <ele>196.7002</ele>
        <time>2026-05-18T13:04:03+02:00</time>
      </trkpt>
      <trkpt lat="48.79125" lon="6.1417">
        <ele>196.7002</ele>
        <time>2026-05-18T13:04:04+02:00</time>
      </trkpt>
      <trkpt lat="48.79125" lon="6.14174">
        <ele>196.7998</ele>
        <time>2026-05-18T13:04:05+02:00</time>
      </trkpt>
      <trkpt lat="48.79125" lon="6.14178">
        <ele>196.7998</ele>
        <time>2026-05-18T13:04:06+02:00</time>
      </trkpt>
      <trkpt lat="48.79126" lon="6.14182">
        <ele>197.10059</ele>
        <time>2026-05-18T13:04:07+02:00</time>
      </trkpt>
      <trkpt lat="48.79127" lon="6.14185">
        <ele>197.10059</ele>
        <time>2026-05-18T13:04:08+02:00</time>
      </trkpt>
      <trkpt lat="48.79128" lon="6.14186">
        <ele>197.10059</ele>
        <time>2026-05-18T13:04:09+02:00</time>
      </trkpt>
      <trkpt lat="48.7913" lon="6.14187">
        <ele>197.10059</ele>
        <time>2026-05-18T13:04:10+02:00</time>
      </trkpt>
      <trkpt lat="48.79131" lon="6.14188">
        <ele>197.10059</ele>
        <time>2026-05-18T13:04:11+02:00</time>
      </trkpt>
      <trkpt lat="48.79131" lon="6.14189">
        <ele>197.10059</ele>
        <time>2026-05-18T13:04:12+02:00</time>
      </trkpt>
      <trkpt lat="48.79131" lon="6.14189">
        <ele>197.10059</ele>
        <time>2026-05-18T13:04:13+02:00</time>
      </trkpt>
      <trkpt lat="48.79131" lon="6.14189">
        <ele>197.10059</ele>
        <time>2026-05-18T13:04:14+02:00</time>
      </trkpt>
      <trkpt lat="48.79131" lon="6.14189">
        <ele>197.10059</ele>
        <time>2026-05-18T13:04:15+02:00</time>
      </trkpt>
      <trkpt lat="48.7913" lon="6.14211">
        <ele>197.10059</ele>
        <time>2026-05-18T13:05:15+02:00</time>
      </trkpt>
      <trkpt lat="48.79131" lon="6.14214">
        <ele>197</ele>
        <time>2026-05-18T13:05:16+02:00</time>
      </trkpt>
      <trkpt lat="48.79132" lon="6.14217">
        <ele>197.2998</ele>
        <time>2026-05-18T13:05:17+02:00</time>
      </trkpt>
      <trkpt lat="48.79133" lon="6.1422">
        <ele>197.2998</ele>
        <time>2026-05-18T13:05:18+02:00</time>
      </trkpt>
      <trkpt lat="48.79133" lon="6.14223">
        <ele>197.2998</ele>
        <time>2026-05-18T13:05:19+02:00</time>
      </trkpt>
      <trkpt lat="48.79133" lon="6.14227">
        <ele>197.2998</ele>
        <time>2026-05-18T13:05:20+02:00</time>
      </trkpt>
      <trkpt lat="48.79133" lon="6.1423">
        <ele>197.2998</ele>
        <time>2026-05-18T13:05:21+02:00</time>
      </trkpt>
      <trkpt lat="48.79134" lon="6.14234">
        <ele>197.2002</ele>
        <time>2026-05-18T13:05:22+02:00</time>
      </trkpt>
      <trkpt lat="48.79134" lon="6.14238">
        <ele>197.2002</ele>
        <time>2026-05-18T13:05:23+02:00</time>
      </trkpt>
      <trkpt lat="48.79135" lon="6.14241">
        <ele>197.10059</ele>
        <time>2026-05-18T13:05:24+02:00</time>
      </trkpt>
      <trkpt lat="48.79136" lon="6.14244">
        <ele>197.10059</ele>
        <time>2026-05-18T13:05:25+02:00</time>
      </trkpt>
      <trkpt lat="48.79136" lon="6.14246">
        <ele>197.10059</ele>
        <time>2026-05-18T13:05:26+02:00</time>
      </trkpt>
      <trkpt lat="48.79136" lon="6.14248">
        <ele>197.10059</ele>
        <time>2026-05-18T13:05:27+02:00</time>
      </trkpt>
      <trkpt lat="48.79136" lon="6.1425">
        <ele>197.10059</ele>
        <time>2026-05-18T13:05:28+02:00</time>
      </trkpt>
      <trkpt lat="48.79136" lon="6.14251">
        <ele>197.10059</ele>
        <time>2026-05-18T13:05:29+02:00</time>
      </trkpt>
      <trkpt lat="48.79136" lon="6.14251">
        <ele>197.10059</ele>
        <time>2026-05-18T13:05:30+02:00</time>
      </trkpt>
      <trkpt lat="48.79136" lon="6.14251">
        <ele>197.10059</ele>
        <time>2026-05-18T13:05:31+02:00</time>
      </trkpt>
      <trkpt lat="48.79247" lon="6.1443">
        <ele>198.7002</ele>
        <time>2026-05-18T13:18:40+02:00</time>
      </trkpt>
      <trkpt lat="48.79246" lon="6.14425">
        <ele>198.7998</ele>
        <time>2026-05-18T13:18:41+02:00</time>
      </trkpt>
      <trkpt lat="48.79244" lon="6.1442">
        <ele>198.60059</ele>
        <time>2026-05-18T13:18:42+02:00</time>
      </trkpt>
      <trkpt lat="48.79242" lon="6.14415">
        <ele>198.7002</ele>
        <time>2026-05-18T13:18:43+02:00</time>
      </trkpt>
      <trkpt lat="48.79241" lon="6.1441">
        <ele>198.7998</ele>
        <time>2026-05-18T13:18:44+02:00</time>
      </trkpt>
      <trkpt lat="48.79239" lon="6.14405">
        <ele>198.5</ele>
        <time>2026-05-18T13:18:45+02:00</time>
      </trkpt>
      <trkpt lat="48.79237" lon="6.144">
        <ele>198.60059</ele>
        <time>2026-05-18T13:18:46+02:00</time>
      </trkpt>
      <trkpt lat="48.79236" lon="6.14395">
        <ele>198.60059</ele>
        <time>2026-05-18T13:18:47+02:00</time>
      </trkpt>
      <trkpt lat="48.79234" lon="6.14389">
        <ele>198.7002</ele>
        <time>2026-05-18T13:18:48+02:00</time>
      </trkpt>
      <trkpt lat="48.79232" lon="6.14384">
        <ele>198.60059</ele>
        <time>2026-05-18T13:18:49+02:00</time>
      </trkpt>
      <trkpt lat="48.7923" lon="6.14378">
        <ele>198.60059</ele>
        <time>2026-05-18T13:18:50+02:00</time>
      </trkpt>
      <trkpt lat="48.79229" lon="6.14372">
        <ele>198.7002</ele>
        <time>2026-05-18T13:18:51+02:00</time>
      </trkpt>
      <trkpt lat="48.79227" lon="6.14366">
        <ele>198.7002</ele>
        <time>2026-05-18T13:18:52+02:00</time>
      </trkpt>
      <trkpt lat="48.79225" lon="6.14361">
        <ele>198.7002</ele>
        <time>2026-05-18T13:18:53+02:00</time>
      </trkpt>
      <trkpt lat="48.79223" lon="6.14355">
        <ele>198.7998</ele>
        <time>2026-05-18T13:18:54+02:00</time>
      </trkpt>
      <trkpt lat="48.79221" lon="6.14349">
        <ele>198.7998</ele>
        <time>2026-05-18T13:18:55+02:00</time>
      </trkpt>
      <trkpt lat="48.7922" lon="6.14344">
        <ele>198.7998</ele>
        <time>2026-05-18T13:18:56+02:00</time>
      </trkpt>
      <trkpt lat="48.79218" lon="6.14338">
        <ele>199</ele>
        <time>2026-05-18T13:18:57+02:00</time>
      </trkpt>
      <trkpt lat="48.79217" lon="6.14333">
        <ele>199.2002</ele>
        <time>2026-05-18T13:18:58+02:00</time>
      </trkpt>
      <trkpt lat="48.79215" lon="6.14327">
        <ele>199</ele>
        <time>2026-05-18T13:18:59+02:00</time>
      </trkpt>
      <trkpt lat="48.79213" lon="6.14321">
        <ele>199.2002</ele>
        <time>2026-05-18T13:19:00+02:00</time>
      </trkpt>
      <trkpt lat="48.79211" lon="6.14315">
        <ele>199.40039</ele>
        <time>2026-05-18T13:19:01+02:00</time>
      </trkpt>
      <trkpt lat="48.79209" lon="6.1431">
        <ele>199.2002</ele>
        <time>2026-05-18T13:19:02+02:00</time>
      </trkpt>
      <trkpt lat="48.79207" lon="6.14304">
        <ele>199.40039</ele>
        <time>2026-05-18T13:19:03+02:00</time>
      </trkpt>
      <trkpt lat="48.79205" lon="6.14299">
        <ele>199.2002</ele>
        <time>2026-05-18T13:19:04+02:00</time>
      </trkpt>
      <trkpt lat="48.79202" lon="6.14294">
        <ele>199.40039</ele>
        <time>2026-05-18T13:19:05+02:00</time>
      </trkpt>
      <trkpt lat="48.79199" lon="6.14292">
        <ele>199.2002</ele>
        <time>2026-05-18T13:19:06+02:00</time>
      </trkpt>
      <trkpt lat="48.79196" lon="6.14291">
        <ele>199.2002</ele>
        <time>2026-05-18T13:19:07+02:00</time>
      </trkpt>
      <trkpt lat="48.79192" lon="6.1429">
        <ele>199.10059</ele>
        <time>2026-05-18T13:19:08+02:00</time>
      </trkpt>
      <trkpt lat="48.79188" lon="6.1429">
        <ele>199.10059</ele>
        <time>2026-05-18T13:19:09+02:00</time>
      </trkpt>
      <trkpt lat="48.79183" lon="6.14289">
        <ele>198.90039</ele>
        <time>2026-05-18T13:19:10+02:00</time>
      </trkpt>
      <trkpt lat="48.7918" lon="6.14289">
        <ele>198.7002</ele>
        <time>2026-05-18T13:19:11+02:00</time>
      </trkpt>
      <trkpt lat="48.79175" lon="6.14287">
        <ele>198.40039</ele>
        <time>2026-05-18T13:19:12+02:00</time>
      </trkpt>
      <trkpt lat="48.7917" lon="6.14285">
        <ele>198.2002</ele>
        <time>2026-05-18T13:19:13+02:00</time>
      </trkpt>
      <trkpt lat="48.79167" lon="6.14283">
        <ele>198.2002</ele>
        <time>2026-05-18T13:19:14+02:00</time>
      </trkpt>
      <trkpt lat="48.79163" lon="6.14281">
        <ele>198.10059</ele>
        <time>2026-05-18T13:19:15+02:00</time>
      </trkpt>
      <trkpt lat="48.79159" lon="6.1428">
        <ele>197.90039</ele>
        <time>2026-05-18T13:19:16+02:00</time>
      </trkpt>
      <trkpt lat="48.79155" lon="6.14277">
        <ele>197.90039</ele>
        <time>2026-05-18T13:19:17+02:00</time>
      </trkpt>
      <trkpt lat="48.79152" lon="6.14274">
        <ele>197.60059</ele>
        <time>2026-05-18T13:19:18+02:00</time>
      </trkpt>
      <trkpt lat="48.79149" lon="6.14271">
        <ele>197.7998</ele>
        <time>2026-05-18T13:19:19+02:00</time>
      </trkpt>
      <trkpt lat="48.79146" lon="6.14267">
        <ele>197.5</ele>
        <time>2026-05-18T13:19:20+02:00</time>
      </trkpt>
      <trkpt lat="48.79144" lon="6.14263">
        <ele>197.60059</ele>
        <time>2026-05-18T13:19:21+02:00</time>
      </trkpt>
      <trkpt lat="48.79142" lon="6.14258">
        <ele>197.2998</ele>
        <time>2026-05-18T13:19:22+02:00</time>
      </trkpt>
      <trkpt lat="48.79141" lon="6.14252">
        <ele>197.40039</ele>
        <time>2026-05-18T13:19:23+02:00</time>
      </trkpt>
      <trkpt lat="48.79139" lon="6.14247">
        <ele>197.5</ele>
        <time>2026-05-18T13:19:24+02:00</time>
      </trkpt>
      <trkpt lat="48.79138" lon="6.14241">
        <ele>197.5</ele>
        <time>2026-05-18T13:19:25+02:00</time>
      </trkpt>
      <trkpt lat="48.79138" lon="6.14235">
        <ele>197.5</ele>
        <time>2026-05-18T13:19:26+02:00</time>
      </trkpt>
      <trkpt lat="48.79137" lon="6.1423">
        <ele>197.2998</ele>
        <time>2026-05-18T13:19:27+02:00</time>
      </trkpt>
      <trkpt lat="48.79136" lon="6.14224">
        <ele>197.2998</ele>
        <time>2026-05-18T13:19:28+02:00</time>
      </trkpt>
      <trkpt lat="48.79135" lon="6.14218">
        <ele>197.2998</ele>
        <time>2026-05-18T13:19:29+02:00</time>
      </trkpt>
      <trkpt lat="48.79135" lon="6.14213">
        <ele>197.2998</ele>
        <time>2026-05-18T13:19:30+02:00</time>
      </trkpt>
      <trkpt lat="48.79135" lon="6.14208">
        <ele>197.40039</ele>
        <time>2026-05-18T13:19:31+02:00</time>
      </trkpt>
      <trkpt lat="48.79135" lon="6.14203">
        <ele>197.40039</ele>
        <time>2026-05-18T13:19:32+02:00</time>
      </trkpt>
      <trkpt lat="48.79134" lon="6.14198">
        <ele>197.40039</ele>
        <time>2026-05-18T13:19:33+02:00</time>
      </trkpt>
      <trkpt lat="48.79133" lon="6.14194">
        <ele>197.40039</ele>
        <time>2026-05-18T13:19:34+02:00</time>
      </trkpt>
      <trkpt lat="48.79133" lon="6.14192">
        <ele>197.40039</ele>
        <time>2026-05-18T13:19:35+02:00</time>
      </trkpt>
      <trkpt lat="48.79132" lon="6.14191">
        <ele>197.40039</ele>
        <time>2026-05-18T13:19:36+02:00</time>
      </trkpt>
      <trkpt lat="48.79132" lon="6.14191">
        <ele>197.40039</ele>
        <time>2026-05-18T13:19:37+02:00</time>
      </trkpt>
      <trkpt lat="48.79132" lon="6.14191">
        <ele>197.40039</ele>
        <time>2026-05-18T13:19:38+02:00</time>
      </trkpt>
      <trkpt lat="48.79132" lon="6.14191">
        <ele>197.40039</ele>
        <time>2026-05-18T13:19:39+02:00</time>
      </trkpt>
      <trkpt lat="48.7912" lon="6.14169">
        <ele>196.40039</ele>
        <time>2026-05-18T13:20:38+02:00</time>
      </trkpt>
      <trkpt lat="48.79119" lon="6.14167">
        <ele>196.40039</ele>
        <time>2026-05-18T13:20:39+02:00</time>
      </trkpt>
      <trkpt lat="48.79118" lon="6.14165">
        <ele>196.40039</ele>
        <time>2026-05-18T13:20:40+02:00</time>
      </trkpt>
      <trkpt lat="48.79117" lon="6.14163">
        <ele>196.40039</ele>
        <time>2026-05-18T13:20:41+02:00</time>
      </trkpt>
      <trkpt lat="48.79116" lon="6.14161">
        <ele>196.2998</ele>
        <time>2026-05-18T13:20:42+02:00</time>
      </trkpt>
      <trkpt lat="48.79115" lon="6.14159">
        <ele>196.2998</ele>
        <time>2026-05-18T13:20:43+02:00</time>
      </trkpt>
      <trkpt lat="48.79114" lon="6.14156">
        <ele>196</ele>
        <time>2026-05-18T13:20:44+02:00</time>
      </trkpt>
      <trkpt lat="48.79113" lon="6.14153">
        <ele>196</ele>
        <time>2026-05-18T13:20:45+02:00</time>
      </trkpt>
      <trkpt lat="48.79111" lon="6.1415">
        <ele>195.7998</ele>
        <time>2026-05-18T13:20:46+02:00</time>
      </trkpt>
      <trkpt lat="48.7911" lon="6.14147">
        <ele>195.7998</ele>
        <time>2026-05-18T13:20:47+02:00</time>
      </trkpt>
      <trkpt lat="48.79109" lon="6.14143">
        <ele>195.2998</ele>
        <time>2026-05-18T13:20:48+02:00</time>
      </trkpt>
      <trkpt lat="48.79107" lon="6.14139">
        <ele>195.2998</ele>
        <time>2026-05-18T13:20:49+02:00</time>
      </trkpt>
      <trkpt lat="48.79106" lon="6.14136">
        <ele>195.2998</ele>
        <time>2026-05-18T13:20:50+02:00</time>
      </trkpt>
      <trkpt lat="48.79104" lon="6.14131">
        <ele>195.10059</ele>
        <time>2026-05-18T13:20:51+02:00</time>
      </trkpt>
      <trkpt lat="48.79102" lon="6.14127">
        <ele>194.60059</ele>
        <time>2026-05-18T13:20:52+02:00</time>
      </trkpt>
      <trkpt lat="48.791" lon="6.14122">
        <ele>194.60059</ele>
        <time>2026-05-18T13:20:53+02:00</time>
      </trkpt>
      <trkpt lat="48.79098" lon="6.14118">
        <ele>194.2998</ele>
        <time>2026-05-18T13:20:54+02:00</time>
      </trkpt>
      <trkpt lat="48.79097" lon="6.14113">
        <ele>194</ele>
        <time>2026-05-18T13:20:55+02:00</time>
      </trkpt>
      <trkpt lat="48.79095" lon="6.14109">
        <ele>193.7002</ele>
        <time>2026-05-18T13:20:56+02:00</time>
      </trkpt>
      <trkpt lat="48.79093" lon="6.14105">
        <ele>193.7002</ele>
        <time>2026-05-18T13:20:57+02:00</time>
      </trkpt>
      <trkpt lat="48.79092" lon="6.14101">
        <ele>193.40039</ele>
        <time>2026-05-18T13:20:58+02:00</time>
      </trkpt>
      <trkpt lat="48.7909" lon="6.14096">
        <ele>193.2002</ele>
        <time>2026-05-18T13:20:59+02:00</time>
      </trkpt>
      <trkpt lat="48.79089" lon="6.14091">
        <ele>193</ele>
        <time>2026-05-18T13:21:00+02:00</time>
      </trkpt>
      <trkpt lat="48.79086" lon="6.14086">
        <ele>192.7002</ele>
        <time>2026-05-18T13:21:01+02:00</time>
      </trkpt>
      <trkpt lat="48.79084" lon="6.14082">
        <ele>192.5</ele>
        <time>2026-05-18T13:21:02+02:00</time>
      </trkpt>
      <trkpt lat="48.79082" lon="6.14076">
        <ele>192.5</ele>
        <time>2026-05-18T13:21:03+02:00</time>
      </trkpt>
      <trkpt lat="48.79081" lon="6.1407">
        <ele>192.2998</ele>
        <time>2026-05-18T13:21:04+02:00</time>
      </trkpt>
      <trkpt lat="48.79082" lon="6.14064">
        <ele>192.10059</ele>
        <time>2026-05-18T13:21:05+02:00</time>
      </trkpt>
      <trkpt lat="48.79084" lon="6.14058">
        <ele>191.90039</ele>
        <time>2026-05-18T13:21:06+02:00</time>
      </trkpt>
      <trkpt lat="48.79086" lon="6.14051">
        <ele>191.90039</ele>
        <time>2026-05-18T13:21:07+02:00</time>
      </trkpt>
      <trkpt lat="48.79088" lon="6.14044">
        <ele>192.10059</ele>
        <time>2026-05-18T13:21:08+02:00</time>
      </trkpt>
      <trkpt lat="48.7909" lon="6.14037">
        <ele>191.90039</ele>
        <time>2026-05-18T13:21:09+02:00</time>
      </trkpt>
      <trkpt lat="48.79092" lon="6.14029">
        <ele>192.2002</ele>
        <time>2026-05-18T13:21:10+02:00</time>
      </trkpt>
      <trkpt lat="48.79094" lon="6.14022">
        <ele>192</ele>
        <time>2026-05-18T13:21:11+02:00</time>
      </trkpt>
      <trkpt lat="48.79096" lon="6.14014">
        <ele>191.90039</ele>
        <time>2026-05-18T13:21:12+02:00</time>
      </trkpt>
      <trkpt lat="48.79098" lon="6.14005">
        <ele>192.2002</ele>
        <time>2026-05-18T13:21:13+02:00</time>
      </trkpt>
      <trkpt lat="48.791" lon="6.13997">
        <ele>192.10059</ele>
        <time>2026-05-18T13:21:14+02:00</time>
      </trkpt>
      <trkpt lat="48.79102" lon="6.13988">
        <ele>191.90039</ele>
        <time>2026-05-18T13:21:15+02:00</time>
      </trkpt>
      <trkpt lat="48.79104" lon="6.13979">
        <ele>192.2002</ele>
        <time>2026-05-18T13:21:16+02:00</time>
      </trkpt>
      <trkpt lat="48.79106" lon="6.1397">
        <ele>192.10059</ele>
        <time>2026-05-18T13:21:17+02:00</time>
      </trkpt>
      <trkpt lat="48.79108" lon="6.13961">
        <ele>192.10059</ele>
        <time>2026-05-18T13:21:18+02:00</time>
      </trkpt>
      <trkpt lat="48.79111" lon="6.13952">
        <ele>192.40039</ele>
        <time>2026-05-18T13:21:19+02:00</time>
      </trkpt>
      <trkpt lat="48.79114" lon="6.13943">
        <ele>192.40039</ele>
        <time>2026-05-18T13:21:20+02:00</time>
      </trkpt>
      <trkpt lat="48.79117" lon="6.13934">
        <ele>192.7998</ele>
        <time>2026-05-18T13:21:21+02:00</time>
      </trkpt>
      <trkpt lat="48.7912" lon="6.13926">
        <ele>192.7998</ele>
        <time>2026-05-18T13:21:22+02:00</time>
      </trkpt>
      <trkpt lat="48.79124" lon="6.13917">
        <ele>193.2002</ele>
        <time>2026-05-18T13:21:23+02:00</time>
      </trkpt>
      <trkpt lat="48.79128" lon="6.13909">
        <ele>193.5</ele>
        <time>2026-05-18T13:21:24+02:00</time>
      </trkpt>
      <trkpt lat="48.79131" lon="6.13901">
        <ele>193.40039</ele>
        <time>2026-05-18T13:21:25+02:00</time>
      </trkpt>
      <trkpt lat="48.79135" lon="6.13894">
        <ele>193.5</ele>
        <time>2026-05-18T13:21:26+02:00</time>
      </trkpt>
      <trkpt lat="48.79139" lon="6.13887">
        <ele>193.7998</ele>
        <time>2026-05-18T13:21:27+02:00</time>
      </trkpt>
      <trkpt lat="48.79143" lon="6.13879">
        <ele>193.90039</ele>
        <time>2026-05-18T13:21:28+02:00</time>
      </trkpt>
      <trkpt lat="48.79147" lon="6.13872">
        <ele>193.7998</ele>
        <time>2026-05-18T13:21:29+02:00</time>
      </trkpt>
      <trkpt lat="48.79151" lon="6.13865">
        <ele>193.90039</ele>
        <time>2026-05-18T13:21:30+02:00</time>
      </trkpt>
      <trkpt lat="48.79155" lon="6.13857">
        <ele>194.10059</ele>
        <time>2026-05-18T13:21:31+02:00</time>
      </trkpt>
      <trkpt lat="48.79159" lon="6.1385">
        <ele>193.90039</ele>
        <time>2026-05-18T13:21:32+02:00</time>
      </trkpt>
      <trkpt lat="48.79163" lon="6.13842">
        <ele>194</ele>
        <time>2026-05-18T13:21:33+02:00</time>
      </trkpt>
      <trkpt lat="48.79167" lon="6.13835">
        <ele>194.10059</ele>
        <time>2026-05-18T13:21:34+02:00</time>
      </trkpt>
      <trkpt lat="48.79171" lon="6.13827">
        <ele>194.10059</ele>
        <time>2026-05-18T13:21:35+02:00</time>
      </trkpt>
      <trkpt lat="48.79174" lon="6.13819">
        <ele>194.2002</ele>
        <time>2026-05-18T13:21:36+02:00</time>
      </trkpt>
      <trkpt lat="48.79178" lon="6.13812">
        <ele>194.2998</ele>
        <time>2026-05-18T13:21:37+02:00</time>
      </trkpt>
      <trkpt lat="48.79181" lon="6.13804">
        <ele>194</ele>
        <time>2026-05-18T13:21:38+02:00</time>
      </trkpt>
      <trkpt lat="48.79184" lon="6.13796">
        <ele>194</ele>
        <time>2026-05-18T13:21:39+02:00</time>
      </trkpt>
      <trkpt lat="48.79188" lon="6.13789">
        <ele>194</ele>
        <time>2026-05-18T13:21:40+02:00</time>
      </trkpt>
      <trkpt lat="48.79191" lon="6.13781">
        <ele>193.7002</ele>
        <time>2026-05-18T13:21:41+02:00</time>
      </trkpt>
      <trkpt lat="48.79194" lon="6.13773">
        <ele>193.7002</ele>
        <time>2026-05-18T13:21:42+02:00</time>
      </trkpt>
      <trkpt lat="48.79196" lon="6.13766">
        <ele>193.40039</ele>
        <time>2026-05-18T13:21:43+02:00</time>
      </trkpt>
      <trkpt lat="48.79199" lon="6.13758">
        <ele>193.2002</ele>
        <time>2026-05-18T13:21:44+02:00</time>
      </trkpt>
      <trkpt lat="48.79201" lon="6.1375">
        <ele>193.40039</ele>
        <time>2026-05-18T13:21:45+02:00</time>
      </trkpt>
      <trkpt lat="48.79203" lon="6.13743">
        <ele>193.10059</ele>
        <time>2026-05-18T13:21:46+02:00</time>
      </trkpt>
      <trkpt lat="48.79206" lon="6.13735">
        <ele>193.10059</ele>
        <time>2026-05-18T13:21:47+02:00</time>
      </trkpt>
      <trkpt lat="48.79208" lon="6.13728">
        <ele>192.7998</ele>
        <time>2026-05-18T13:21:48+02:00</time>
      </trkpt>
      <trkpt lat="48.7921" lon="6.1372">
        <ele>192.60059</ele>
        <time>2026-05-18T13:21:49+02:00</time>
      </trkpt>
      <trkpt lat="48.79212" lon="6.13713">
        <ele>192.5</ele>
        <time>2026-05-18T13:21:50+02:00</time>
      </trkpt>
      <trkpt lat="48.79215" lon="6.13705">
        <ele>192.2998</ele>
        <time>2026-05-18T13:21:51+02:00</time>
      </trkpt>
      <trkpt lat="48.79217" lon="6.13698">
        <ele>192.5</ele>
        <time>2026-05-18T13:21:52+02:00</time>
      </trkpt>
      <trkpt lat="48.79218" lon="6.13691">
        <ele>192.2998</ele>
        <time>2026-05-18T13:21:53+02:00</time>
      </trkpt>
      <trkpt lat="48.7922" lon="6.13683">
        <ele>192.2002</ele>
        <time>2026-05-18T13:21:54+02:00</time>
      </trkpt>
      <trkpt lat="48.79222" lon="6.13675">
        <ele>192.40039</ele>
        <time>2026-05-18T13:21:55+02:00</time>
      </trkpt>
      <trkpt lat="48.79223" lon="6.13667">
        <ele>192.40039</ele>
        <time>2026-05-18T13:21:56+02:00</time>
      </trkpt>
      <trkpt lat="48.79225" lon="6.13659">
        <ele>192.2998</ele>
        <time>2026-05-18T13:21:57+02:00</time>
      </trkpt>
      <trkpt lat="48.79226" lon="6.13651">
        <ele>192.40039</ele>
        <time>2026-05-18T13:21:58+02:00</time>
      </trkpt>
      <trkpt lat="48.79228" lon="6.13643">
        <ele>192.7002</ele>
        <time>2026-05-18T13:21:59+02:00</time>
      </trkpt>
      <trkpt lat="48.79229" lon="6.13635">
        <ele>192.7002</ele>
        <time>2026-05-18T13:22:00+02:00</time>
      </trkpt>
      <trkpt lat="48.79231" lon="6.13626">
        <ele>192.7002</ele>
        <time>2026-05-18T13:22:01+02:00</time>
      </trkpt>
      <trkpt lat="48.79232" lon="6.13618">
        <ele>192.7998</ele>
        <time>2026-05-18T13:22:02+02:00</time>
      </trkpt>
      <trkpt lat="48.79234" lon="6.13609">
        <ele>193.10059</ele>
        <time>2026-05-18T13:22:03+02:00</time>
      </trkpt>
      <trkpt lat="48.79236" lon="6.13601">
        <ele>193.10059</ele>
        <time>2026-05-18T13:22:04+02:00</time>
      </trkpt>
      <trkpt lat="48.79237" lon="6.13592">
        <ele>193.10059</ele>
        <time>2026-05-18T13:22:05+02:00</time>
      </trkpt>
      <trkpt lat="48.79238" lon="6.13584">
        <ele>193.10059</ele>
        <time>2026-05-18T13:22:06+02:00</time>
      </trkpt>
      <trkpt lat="48.79239" lon="6.13575">
        <ele>193.10059</ele>
        <time>2026-05-18T13:22:07+02:00</time>
      </trkpt>
      <trkpt lat="48.7924" lon="6.13567">
        <ele>193.40039</ele>
        <time>2026-05-18T13:22:08+02:00</time>
      </trkpt>
      <trkpt lat="48.79241" lon="6.13558">
        <ele>193.40039</ele>
        <time>2026-05-18T13:22:09+02:00</time>
      </trkpt>
      <trkpt lat="48.79241" lon="6.1355">
        <ele>193.40039</ele>
        <time>2026-05-18T13:22:10+02:00</time>
      </trkpt>
      <trkpt lat="48.79241" lon="6.13541">
        <ele>193.40039</ele>
        <time>2026-05-18T13:22:11+02:00</time>
      </trkpt>
      <trkpt lat="48.79242" lon="6.13532">
        <ele>193.2998</ele>
        <time>2026-05-18T13:22:12+02:00</time>
      </trkpt>
      <trkpt lat="48.79242" lon="6.13524">
        <ele>193.2998</ele>
        <time>2026-05-18T13:22:13+02:00</time>
      </trkpt>
      <trkpt lat="48.79242" lon="6.1349">
        <ele>193.2002</ele>
        <time>2026-05-18T13:22:14+02:00</time>
      </trkpt>
      <trkpt lat="48.79242" lon="6.13481">
        <ele>193.2002</ele>
        <time>2026-05-18T13:22:15+02:00</time>
      </trkpt>
      <trkpt lat="48.79242" lon="6.13473">
        <ele>193.2002</ele>
        <time>2026-05-18T13:22:16+02:00</time>
      </trkpt>
      <trkpt lat="48.79242" lon="6.13464">
        <ele>193.10059</ele>
        <time>2026-05-18T13:22:17+02:00</time>
      </trkpt>
      <trkpt lat="48.79241" lon="6.13456">
        <ele>193.2002</ele>
        <time>2026-05-18T13:22:18+02:00</time>
      </trkpt>
      <trkpt lat="48.79241" lon="6.13447">
        <ele>193.2998</ele>
        <time>2026-05-18T13:22:19+02:00</time>
      </trkpt>
      <trkpt lat="48.79241" lon="6.13438">
        <ele>193.40039</ele>
        <time>2026-05-18T13:22:20+02:00</time>
      </trkpt>
      <trkpt lat="48.7924" lon="6.1343">
        <ele>193.60059</ele>
        <time>2026-05-18T13:22:21+02:00</time>
      </trkpt>
      <trkpt lat="48.79239" lon="6.13421">
        <ele>193.10059</ele>
        <time>2026-05-18T13:22:22+02:00</time>
      </trkpt>
      <trkpt lat="48.79239" lon="6.13413">
        <ele>193.2998</ele>
        <time>2026-05-18T13:22:23+02:00</time>
      </trkpt>
      <trkpt lat="48.79238" lon="6.13405">
        <ele>193.5</ele>
        <time>2026-05-18T13:22:24+02:00</time>
      </trkpt>
      <trkpt lat="48.79238" lon="6.13397">
        <ele>193.7998</ele>
        <time>2026-05-18T13:22:25+02:00</time>
      </trkpt>
      <trkpt lat="48.79237" lon="6.13389">
        <ele>194.10059</ele>
        <time>2026-05-18T13:22:26+02:00</time>
      </trkpt>
      <trkpt lat="48.79236" lon="6.1338">
        <ele>194.40039</ele>
        <time>2026-05-18T13:22:27+02:00</time>
      </trkpt>
      <trkpt lat="48.79235" lon="6.13372">
        <ele>194.40039</ele>
        <time>2026-05-18T13:22:28+02:00</time>
      </trkpt>
      <trkpt lat="48.79234" lon="6.13364">
        <ele>194.60059</ele>
        <time>2026-05-18T13:22:29+02:00</time>
      </trkpt>
      <trkpt lat="48.79233" lon="6.13356">
        <ele>194.2998</ele>
        <time>2026-05-18T13:22:30+02:00</time>
      </trkpt>
      <trkpt lat="48.79232" lon="6.13348">
        <ele>194.40039</ele>
        <time>2026-05-18T13:22:31+02:00</time>
      </trkpt>
      <trkpt lat="48.79231" lon="6.13341">
        <ele>194.60059</ele>
        <time>2026-05-18T13:22:32+02:00</time>
      </trkpt>
      <trkpt lat="48.79229" lon="6.13332">
        <ele>194.90039</ele>
        <time>2026-05-18T13:22:33+02:00</time>
      </trkpt>
      <trkpt lat="48.79228" lon="6.13325">
        <ele>195.2002</ele>
        <time>2026-05-18T13:22:34+02:00</time>
      </trkpt>
      <trkpt lat="48.79227" lon="6.13317">
        <ele>194.60059</ele>
        <time>2026-05-18T13:22:35+02:00</time>
      </trkpt>
      <trkpt lat="48.79225" lon="6.13308">
        <ele>195</ele>
        <time>2026-05-18T13:22:36+02:00</time>
      </trkpt>
      <trkpt lat="48.79224" lon="6.133">
        <ele>195.40039</ele>
        <time>2026-05-18T13:22:37+02:00</time>
      </trkpt>
      <trkpt lat="48.79223" lon="6.13292">
        <ele>195.7002</ele>
        <time>2026-05-18T13:22:38+02:00</time>
      </trkpt>
      <trkpt lat="48.79222" lon="6.13284">
        <ele>196.10059</ele>
        <time>2026-05-18T13:22:39+02:00</time>
      </trkpt>
      <trkpt lat="48.79221" lon="6.13276">
        <ele>195</ele>
        <time>2026-05-18T13:22:40+02:00</time>
      </trkpt>
      <trkpt lat="48.7922" lon="6.13269">
        <ele>195</ele>
        <time>2026-05-18T13:22:41+02:00</time>
      </trkpt>
      <trkpt lat="48.79218" lon="6.13261">
        <ele>195.2998</ele>
        <time>2026-05-18T13:22:42+02:00</time>
      </trkpt>
      <trkpt lat="48.79217" lon="6.13254">
        <ele>195.60059</ele>
        <time>2026-05-18T13:22:43+02:00</time>
      </trkpt>
      <trkpt lat="48.79216" lon="6.13246">
        <ele>194.2002</ele>
        <time>2026-05-18T13:22:44+02:00</time>
      </trkpt>
      <trkpt lat="48.79215" lon="6.13239">
        <ele>194.5</ele>
        <time>2026-05-18T13:22:45+02:00</time>
      </trkpt>
      <trkpt lat="48.79214" lon="6.13231">
        <ele>194.90039</ele>
        <time>2026-05-18T13:22:46+02:00</time>
      </trkpt>
      <trkpt lat="48.79213" lon="6.13224">
        <ele>195.2998</ele>
        <time>2026-05-18T13:22:47+02:00</time>
      </trkpt>
      <trkpt lat="48.79212" lon="6.13218">
        <ele>195.2998</ele>
        <time>2026-05-18T13:22:48+02:00</time>
      </trkpt>
      <trkpt lat="48.79212" lon="6.13211">
        <ele>195.7002</ele>
        <time>2026-05-18T13:22:49+02:00</time>
      </trkpt>
      <trkpt lat="48.79211" lon="6.13204">
        <ele>196.2002</ele>
        <time>2026-05-18T13:22:50+02:00</time>
      </trkpt>
      <trkpt lat="48.7921" lon="6.13197">
        <ele>195</ele>
        <time>2026-05-18T13:22:51+02:00</time>
      </trkpt>
      <trkpt lat="48.79209" lon="6.13191">
        <ele>195.5</ele>
        <time>2026-05-18T13:22:52+02:00</time>
      </trkpt>
      <trkpt lat="48.79209" lon="6.13184">
        <ele>195.5</ele>
        <time>2026-05-18T13:22:53+02:00</time>
      </trkpt>
      <trkpt lat="48.79208" lon="6.13178">
        <ele>196</ele>
        <time>2026-05-18T13:22:54+02:00</time>
      </trkpt>
      <trkpt lat="48.79207" lon="6.13171">
        <ele>196.60059</ele>
        <time>2026-05-18T13:22:55+02:00</time>
      </trkpt>
      <trkpt lat="48.79206" lon="6.13165">
        <ele>197.2002</ele>
        <time>2026-05-18T13:22:56+02:00</time>
      </trkpt>
      <trkpt lat="48.79205" lon="6.13158">
        <ele>195.7998</ele>
        <time>2026-05-18T13:22:57+02:00</time>
      </trkpt>
      <trkpt lat="48.79205" lon="6.13152">
        <ele>196.60059</ele>
        <time>2026-05-18T13:22:58+02:00</time>
      </trkpt>
      <trkpt lat="48.79204" lon="6.13145">
        <ele>197.5</ele>
        <time>2026-05-18T13:22:59+02:00</time>
      </trkpt>
      <trkpt lat="48.79202" lon="6.13139">
        <ele>198.2998</ele>
        <time>2026-05-18T13:23:00+02:00</time>
      </trkpt>
      <trkpt lat="48.79201" lon="6.13133">
        <ele>198.2998</ele>
        <time>2026-05-18T13:23:01+02:00</time>
      </trkpt>
      <trkpt lat="48.792" lon="6.13127">
        <ele>198.90039</ele>
        <time>2026-05-18T13:23:02+02:00</time>
      </trkpt>
      <trkpt lat="48.79199" lon="6.13121">
        <ele>197.7998</ele>
        <time>2026-05-18T13:23:03+02:00</time>
      </trkpt>
      <trkpt lat="48.79197" lon="6.13115">
        <ele>197.7998</ele>
        <time>2026-05-18T13:23:04+02:00</time>
      </trkpt>
      <trkpt lat="48.79197" lon="6.13109">
        <ele>198</ele>
        <time>2026-05-18T13:23:05+02:00</time>
      </trkpt>
      <trkpt lat="48.79196" lon="6.13103">
        <ele>198.10059</ele>
        <time>2026-05-18T13:23:06+02:00</time>
      </trkpt>
      <trkpt lat="48.79194" lon="6.13098">
        <ele>198.10059</ele>
        <time>2026-05-18T13:23:07+02:00</time>
      </trkpt>
      <trkpt lat="48.79193" lon="6.13092">
        <ele>197</ele>
        <time>2026-05-18T13:23:08+02:00</time>
      </trkpt>
      <trkpt lat="48.79192" lon="6.13086">
        <ele>197.40039</ele>
        <time>2026-05-18T13:23:09+02:00</time>
      </trkpt>
      <trkpt lat="48.79191" lon="6.13081">
        <ele>197.40039</ele>
        <time>2026-05-18T13:23:10+02:00</time>
      </trkpt>
      <trkpt lat="48.7919" lon="6.13075">
        <ele>197.7998</ele>
        <time>2026-05-18T13:23:11+02:00</time>
      </trkpt>
      <trkpt lat="48.79189" lon="6.13069">
        <ele>198.2998</ele>
        <time>2026-05-18T13:23:12+02:00</time>
      </trkpt>
      <trkpt lat="48.79188" lon="6.13064">
        <ele>198.2998</ele>
        <time>2026-05-18T13:23:13+02:00</time>
      </trkpt>
      <trkpt lat="48.79186" lon="6.13059">
        <ele>197.60059</ele>
        <time>2026-05-18T13:23:14+02:00</time>
      </trkpt>
      <trkpt lat="48.79185" lon="6.13054">
        <ele>198.2002</ele>
        <time>2026-05-18T13:23:15+02:00</time>
      </trkpt>
      <trkpt lat="48.79184" lon="6.13048">
        <ele>198.2002</ele>
        <time>2026-05-18T13:23:16+02:00</time>
      </trkpt>
      <trkpt lat="48.79183" lon="6.13042">
        <ele>198.90039</ele>
        <time>2026-05-18T13:23:17+02:00</time>
      </trkpt>
      <trkpt lat="48.79181" lon="6.13037">
        <ele>198.40039</ele>
        <time>2026-05-18T13:23:18+02:00</time>
      </trkpt>
      <trkpt lat="48.7918" lon="6.13031">
        <ele>198.40039</ele>
        <time>2026-05-18T13:23:19+02:00</time>
      </trkpt>
      <trkpt lat="48.79179" lon="6.13025">
        <ele>198.90039</ele>
        <time>2026-05-18T13:23:20+02:00</time>
      </trkpt>
      <trkpt lat="48.79178" lon="6.13018">
        <ele>199.2998</ele>
        <time>2026-05-18T13:23:21+02:00</time>
      </trkpt>
      <trkpt lat="48.79177" lon="6.13012">
        <ele>199.2998</ele>
        <time>2026-05-18T13:23:22+02:00</time>
      </trkpt>
      <trkpt lat="48.79176" lon="6.13005">
        <ele>198.40039</ele>
        <time>2026-05-18T13:23:23+02:00</time>
      </trkpt>
      <trkpt lat="48.79175" lon="6.12999">
        <ele>198.7002</ele>
        <time>2026-05-18T13:23:24+02:00</time>
      </trkpt>
      <trkpt lat="48.79174" lon="6.12993">
        <ele>199.10059</ele>
        <time>2026-05-18T13:23:25+02:00</time>
      </trkpt>
      <trkpt lat="48.79173" lon="6.12987">
        <ele>199.10059</ele>
        <time>2026-05-18T13:23:26+02:00</time>
      </trkpt>
      <trkpt lat="48.79172" lon="6.12981">
        <ele>199.40039</ele>
        <time>2026-05-18T13:23:27+02:00</time>
      </trkpt>
      <trkpt lat="48.7917" lon="6.12975">
        <ele>198.5</ele>
        <time>2026-05-18T13:23:28+02:00</time>
      </trkpt>
      <trkpt lat="48.79169" lon="6.12969">
        <ele>198.5</ele>
        <time>2026-05-18T13:23:29+02:00</time>
      </trkpt>
      <trkpt lat="48.79167" lon="6.12963">
        <ele>198.7998</ele>
        <time>2026-05-18T13:23:30+02:00</time>
      </trkpt>
      <trkpt lat="48.79166" lon="6.12957">
        <ele>199.2002</ele>
        <time>2026-05-18T13:23:31+02:00</time>
      </trkpt>
      <trkpt lat="48.79165" lon="6.1295">
        <ele>198.5</ele>
        <time>2026-05-18T13:23:32+02:00</time>
      </trkpt>
      <trkpt lat="48.79163" lon="6.12944">
        <ele>198.5</ele>
        <time>2026-05-18T13:23:33+02:00</time>
      </trkpt>
      <trkpt lat="48.79162" lon="6.12938">
        <ele>199</ele>
        <time>2026-05-18T13:23:34+02:00</time>
      </trkpt>
      <trkpt lat="48.79161" lon="6.12932">
        <ele>199.40039</ele>
        <time>2026-05-18T13:23:35+02:00</time>
      </trkpt>
      <trkpt lat="48.7916" lon="6.12926">
        <ele>199.40039</ele>
        <time>2026-05-18T13:23:36+02:00</time>
      </trkpt>
      <trkpt lat="48.79159" lon="6.12919">
        <ele>199</ele>
        <time>2026-05-18T13:23:37+02:00</time>
      </trkpt>
      <trkpt lat="48.79157" lon="6.12913">
        <ele>199.2998</ele>
        <time>2026-05-18T13:23:38+02:00</time>
      </trkpt>
      <trkpt lat="48.79155" lon="6.12906">
        <ele>199.40039</ele>
        <time>2026-05-18T13:23:39+02:00</time>
      </trkpt>
      <trkpt lat="48.79154" lon="6.12899">
        <ele>198.7002</ele>
        <time>2026-05-18T13:23:40+02:00</time>
      </trkpt>
      <trkpt lat="48.79152" lon="6.12891">
        <ele>198.90039</ele>
        <time>2026-05-18T13:23:41+02:00</time>
      </trkpt>
      <trkpt lat="48.79151" lon="6.12884">
        <ele>198.90039</ele>
        <time>2026-05-18T13:23:42+02:00</time>
      </trkpt>
      <trkpt lat="48.79149" lon="6.12877">
        <ele>199.2002</ele>
        <time>2026-05-18T13:23:43+02:00</time>
      </trkpt>
      <trkpt lat="48.79147" lon="6.12869">
        <ele>198.40039</ele>
        <time>2026-05-18T13:23:44+02:00</time>
      </trkpt>
      <trkpt lat="48.79146" lon="6.12861">
        <ele>198.60059</ele>
        <time>2026-05-18T13:23:45+02:00</time>
      </trkpt>
      <trkpt lat="48.79145" lon="6.12853">
        <ele>198.90039</ele>
        <time>2026-05-18T13:23:46+02:00</time>
      </trkpt>
      <trkpt lat="48.79144" lon="6.12845">
        <ele>199.2002</ele>
        <time>2026-05-18T13:23:47+02:00</time>
      </trkpt>
      <trkpt lat="48.79143" lon="6.12835">
        <ele>199.5</ele>
        <time>2026-05-18T13:23:48+02:00</time>
      </trkpt>
      <trkpt lat="48.79143" lon="6.12825">
        <ele>199.7002</ele>
        <time>2026-05-18T13:23:49+02:00</time>
      </trkpt>
      <trkpt lat="48.79143" lon="6.12815">
        <ele>199.7998</ele>
        <time>2026-05-18T13:23:50+02:00</time>
      </trkpt>
      <trkpt lat="48.79142" lon="6.12805">
        <ele>198.90039</ele>
        <time>2026-05-18T13:23:51+02:00</time>
      </trkpt>
      <trkpt lat="48.79142" lon="6.12795">
        <ele>199.10059</ele>
        <time>2026-05-18T13:23:52+02:00</time>
      </trkpt>
      <trkpt lat="48.79141" lon="6.12784">
        <ele>199.2998</ele>
        <time>2026-05-18T13:23:53+02:00</time>
      </trkpt>
      <trkpt lat="48.79141" lon="6.12773">
        <ele>199.7002</ele>
        <time>2026-05-18T13:23:54+02:00</time>
      </trkpt>
      <trkpt lat="48.7914" lon="6.12762">
        <ele>200.2002</ele>
        <time>2026-05-18T13:23:55+02:00</time>
      </trkpt>
      <trkpt lat="48.79139" lon="6.12751">
        <ele>200.2998</ele>
        <time>2026-05-18T13:23:56+02:00</time>
      </trkpt>
      <trkpt lat="48.79138" lon="6.1274">
        <ele>200.40039</ele>
        <time>2026-05-18T13:23:57+02:00</time>
      </trkpt>
      <trkpt lat="48.79138" lon="6.12729">
        <ele>200.40039</ele>
        <time>2026-05-18T13:23:58+02:00</time>
      </trkpt>
      <trkpt lat="48.79137" lon="6.12718">
        <ele>200.10059</ele>
        <time>2026-05-18T13:23:59+02:00</time>
      </trkpt>
      <trkpt lat="48.79136" lon="6.12706">
        <ele>200.2998</ele>
        <time>2026-05-18T13:24:00+02:00</time>
      </trkpt>
      <trkpt lat="48.79136" lon="6.12695">
        <ele>200.5</ele>
        <time>2026-05-18T13:24:01+02:00</time>
      </trkpt>
      <trkpt lat="48.79135" lon="6.12683">
        <ele>200.5</ele>
        <time>2026-05-18T13:24:02+02:00</time>
      </trkpt>
      <trkpt lat="48.79135" lon="6.12672">
        <ele>200.5</ele>
        <time>2026-05-18T13:24:03+02:00</time>
      </trkpt>
      <trkpt lat="48.79134" lon="6.12661">
        <ele>200.5</ele>
        <time>2026-05-18T13:24:04+02:00</time>
      </trkpt>
      <trkpt lat="48.79134" lon="6.1265">
        <ele>200.40039</ele>
        <time>2026-05-18T13:24:05+02:00</time>
      </trkpt>
      <trkpt lat="48.79134" lon="6.12638">
        <ele>200.2998</ele>
        <time>2026-05-18T13:24:06+02:00</time>
      </trkpt>
      <trkpt lat="48.79134" lon="6.12627">
        <ele>200.2998</ele>
        <time>2026-05-18T13:24:07+02:00</time>
      </trkpt>
      <trkpt lat="48.79135" lon="6.12616">
        <ele>200.2002</ele>
        <time>2026-05-18T13:24:08+02:00</time>
      </trkpt>
      <trkpt lat="48.79135" lon="6.12605">
        <ele>200.2002</ele>
        <time>2026-05-18T13:24:09+02:00</time>
      </trkpt>
      <trkpt lat="48.79135" lon="6.12595">
        <ele>200.10059</ele>
        <time>2026-05-18T13:24:10+02:00</time>
      </trkpt>
      <trkpt lat="48.79136" lon="6.12586">
        <ele>200.10059</ele>
        <time>2026-05-18T13:24:11+02:00</time>
      </trkpt>
      <trkpt lat="48.79137" lon="6.12576">
        <ele>200</ele>
        <time>2026-05-18T13:24:12+02:00</time>
      </trkpt>
      <trkpt lat="48.79138" lon="6.12567">
        <ele>200.7998</ele>
        <time>2026-05-18T13:24:13+02:00</time>
      </trkpt>
      <trkpt lat="48.79139" lon="6.12558">
        <ele>200.7002</ele>
        <time>2026-05-18T13:24:14+02:00</time>
      </trkpt>
      <trkpt lat="48.7914" lon="6.12548">
        <ele>200.5</ele>
        <time>2026-05-18T13:24:15+02:00</time>
      </trkpt>
      <trkpt lat="48.79141" lon="6.12539">
        <ele>200</ele>
        <time>2026-05-18T13:24:16+02:00</time>
      </trkpt>
      <trkpt lat="48.79142" lon="6.1253">
        <ele>199.7002</ele>
        <time>2026-05-18T13:24:17+02:00</time>
      </trkpt>
      <trkpt lat="48.79143" lon="6.12521">
        <ele>200.40039</ele>
        <time>2026-05-18T13:24:18+02:00</time>
      </trkpt>
      <trkpt lat="48.79144" lon="6.12512">
        <ele>200.10059</ele>
        <time>2026-05-18T13:24:19+02:00</time>
      </trkpt>
      <trkpt lat="48.79144" lon="6.12503">
        <ele>199.60059</ele>
        <time>2026-05-18T13:24:20+02:00</time>
      </trkpt>
      <trkpt lat="48.79146" lon="6.12494">
        <ele>199.2002</ele>
        <time>2026-05-18T13:24:21+02:00</time>
      </trkpt>
      <trkpt lat="48.79147" lon="6.12486">
        <ele>198.7998</ele>
        <time>2026-05-18T13:24:22+02:00</time>
      </trkpt>
      <trkpt lat="48.79148" lon="6.12479">
        <ele>198.2998</ele>
        <time>2026-05-18T13:24:23+02:00</time>
      </trkpt>
      <trkpt lat="48.79149" lon="6.12471">
        <ele>199.2002</ele>
        <time>2026-05-18T13:24:24+02:00</time>
      </trkpt>
      <trkpt lat="48.79149" lon="6.12464">
        <ele>198.7002</ele>
        <time>2026-05-18T13:24:25+02:00</time>
      </trkpt>
      <trkpt lat="48.79148" lon="6.12457">
        <ele>197.40039</ele>
        <time>2026-05-18T13:24:26+02:00</time>
      </trkpt>
      <trkpt lat="48.79147" lon="6.12451">
        <ele>197</ele>
        <time>2026-05-18T13:24:27+02:00</time>
      </trkpt>
      <trkpt lat="48.79146" lon="6.12446">
        <ele>197</ele>
        <time>2026-05-18T13:24:28+02:00</time>
      </trkpt>
      <trkpt lat="48.79144" lon="6.12441">
        <ele>196.7002</ele>
        <time>2026-05-18T13:24:29+02:00</time>
      </trkpt>
      <trkpt lat="48.79143" lon="6.12436">
        <ele>196.2998</ele>
        <time>2026-05-18T13:24:30+02:00</time>
      </trkpt>
      <trkpt lat="48.79142" lon="6.12432">
        <ele>195.60059</ele>
        <time>2026-05-18T13:24:31+02:00</time>
      </trkpt>
      <trkpt lat="48.79139" lon="6.12429">
        <ele>195.60059</ele>
        <time>2026-05-18T13:24:32+02:00</time>
      </trkpt>
      <trkpt lat="48.79136" lon="6.12428">
        <ele>194.90039</ele>
        <time>2026-05-18T13:24:33+02:00</time>
      </trkpt>
      <trkpt lat="48.79132" lon="6.12427">
        <ele>194.5</ele>
        <time>2026-05-18T13:24:34+02:00</time>
      </trkpt>
      <trkpt lat="48.79129" lon="6.12426">
        <ele>193.7998</ele>
        <time>2026-05-18T13:24:35+02:00</time>
      </trkpt>
      <trkpt lat="48.79125" lon="6.12425">
        <ele>193.2002</ele>
        <time>2026-05-18T13:24:36+02:00</time>
      </trkpt>
      <trkpt lat="48.79122" lon="6.12425">
        <ele>193.2002</ele>
        <time>2026-05-18T13:24:37+02:00</time>
      </trkpt>
      <trkpt lat="48.79117" lon="6.12424">
        <ele>192.60059</ele>
        <time>2026-05-18T13:24:38+02:00</time>
      </trkpt>
      <trkpt lat="48.79113" lon="6.12423">
        <ele>192</ele>
        <time>2026-05-18T13:24:39+02:00</time>
      </trkpt>
      <trkpt lat="48.79106" lon="6.12421">
        <ele>191.40039</ele>
        <time>2026-05-18T13:24:40+02:00</time>
      </trkpt>
      <trkpt lat="48.79101" lon="6.12416">
        <ele>190.7998</ele>
        <time>2026-05-18T13:24:41+02:00</time>
      </trkpt>
      <trkpt lat="48.79096" lon="6.12414">
        <ele>190.2998</ele>
        <time>2026-05-18T13:24:42+02:00</time>
      </trkpt>
      <trkpt lat="48.79092" lon="6.1241">
        <ele>190.2002</ele>
        <time>2026-05-18T13:24:43+02:00</time>
      </trkpt>
      <trkpt lat="48.79089" lon="6.12406">
        <ele>189.7998</ele>
        <time>2026-05-18T13:24:44+02:00</time>
      </trkpt>
      <trkpt lat="48.79086" lon="6.12402">
        <ele>189.40039</ele>
        <time>2026-05-18T13:24:45+02:00</time>
      </trkpt>
      <trkpt lat="48.79085" lon="6.12398">
        <ele>189.2998</ele>
        <time>2026-05-18T13:24:46+02:00</time>
      </trkpt>
      <trkpt lat="48.79082" lon="6.12395">
        <ele>189.2998</ele>
        <time>2026-05-18T13:24:47+02:00</time>
      </trkpt>
      <trkpt lat="48.79078" lon="6.12392">
        <ele>188.7998</ele>
        <time>2026-05-18T13:24:48+02:00</time>
      </trkpt>
      <trkpt lat="48.79075" lon="6.1239">
        <ele>188.5</ele>
        <time>2026-05-18T13:24:49+02:00</time>
      </trkpt>
      <trkpt lat="48.79071" lon="6.12389">
        <ele>188.5</ele>
        <time>2026-05-18T13:24:50+02:00</time>
      </trkpt>
      <trkpt lat="48.79067" lon="6.12388">
        <ele>188.2002</ele>
        <time>2026-05-18T13:24:51+02:00</time>
      </trkpt>
      <trkpt lat="48.79062" lon="6.12386">
        <ele>188</ele>
        <time>2026-05-18T13:24:52+02:00</time>
      </trkpt>
      <trkpt lat="48.79057" lon="6.12385">
        <ele>187.7002</ele>
        <time>2026-05-18T13:24:53+02:00</time>
      </trkpt>
      <trkpt lat="48.79053" lon="6.12384">
        <ele>187.60059</ele>
        <time>2026-05-18T13:24:54+02:00</time>
      </trkpt>
      <trkpt lat="48.79049" lon="6.12382">
        <ele>187.2998</ele>
        <time>2026-05-18T13:24:55+02:00</time>
      </trkpt>
      <trkpt lat="48.79045" lon="6.12381">
        <ele>187</ele>
        <time>2026-05-18T13:24:56+02:00</time>
      </trkpt>
      <trkpt lat="48.79041" lon="6.12379">
        <ele>186.7002</ele>
        <time>2026-05-18T13:24:57+02:00</time>
      </trkpt>
      <trkpt lat="48.79038" lon="6.12376">
        <ele>186.7002</ele>
        <time>2026-05-18T13:24:58+02:00</time>
      </trkpt>
      <trkpt lat="48.79035" lon="6.12371">
        <ele>186.40039</ele>
        <time>2026-05-18T13:24:59+02:00</time>
      </trkpt>
      <trkpt lat="48.79034" lon="6.12365">
        <ele>186.2998</ele>
        <time>2026-05-18T13:25:00+02:00</time>
      </trkpt>
      <trkpt lat="48.79033" lon="6.12357">
        <ele>186.2998</ele>
        <time>2026-05-18T13:25:01+02:00</time>
      </trkpt>
      <trkpt lat="48.79033" lon="6.1235">
        <ele>186.2998</ele>
        <time>2026-05-18T13:25:02+02:00</time>
      </trkpt>
      <trkpt lat="48.79034" lon="6.12342">
        <ele>186.2998</ele>
        <time>2026-05-18T13:25:03+02:00</time>
      </trkpt>
      <trkpt lat="48.79035" lon="6.12334">
        <ele>186.2002</ele>
        <time>2026-05-18T13:25:04+02:00</time>
      </trkpt>
      <trkpt lat="48.79035" lon="6.12326">
        <ele>186.2002</ele>
        <time>2026-05-18T13:25:05+02:00</time>
      </trkpt>
      <trkpt lat="48.79036" lon="6.12318">
        <ele>186.2998</ele>
        <time>2026-05-18T13:25:06+02:00</time>
      </trkpt>
      <trkpt lat="48.79036" lon="6.12311">
        <ele>186.2002</ele>
        <time>2026-05-18T13:25:07+02:00</time>
      </trkpt>
      <trkpt lat="48.79037" lon="6.12303">
        <ele>186.2002</ele>
        <time>2026-05-18T13:25:08+02:00</time>
      </trkpt>
      <trkpt lat="48.79037" lon="6.12296">
        <ele>186.10059</ele>
        <time>2026-05-18T13:25:09+02:00</time>
      </trkpt>
      <trkpt lat="48.79038" lon="6.1229">
        <ele>186</ele>
        <time>2026-05-18T13:25:10+02:00</time>
      </trkpt>
      <trkpt lat="48.79038" lon="6.12284">
        <ele>186</ele>
        <time>2026-05-18T13:25:11+02:00</time>
      </trkpt>
      <trkpt lat="48.79039" lon="6.12278">
        <ele>185.7998</ele>
        <time>2026-05-18T13:25:12+02:00</time>
      </trkpt>
      <trkpt lat="48.7904" lon="6.12271">
        <ele>185.7002</ele>
        <time>2026-05-18T13:25:13+02:00</time>
      </trkpt>
      <trkpt lat="48.79041" lon="6.12265">
        <ele>185.7002</ele>
        <time>2026-05-18T13:25:14+02:00</time>
      </trkpt>
      <trkpt lat="48.79043" lon="6.12258">
        <ele>185.7002</ele>
        <time>2026-05-18T13:25:15+02:00</time>
      </trkpt>
      <trkpt lat="48.79045" lon="6.12251">
        <ele>185.7002</ele>
        <time>2026-05-18T13:25:16+02:00</time>
      </trkpt>
      <trkpt lat="48.79047" lon="6.12244">
        <ele>185.7998</ele>
        <time>2026-05-18T13:25:17+02:00</time>
      </trkpt>
      <trkpt lat="48.79048" lon="6.12236">
        <ele>185.7998</ele>
        <time>2026-05-18T13:25:18+02:00</time>
      </trkpt>
      <trkpt lat="48.79051" lon="6.12228">
        <ele>185.7998</ele>
        <time>2026-05-18T13:25:19+02:00</time>
      </trkpt>
      <trkpt lat="48.79052" lon="6.1222">
        <ele>185.7998</ele>
        <time>2026-05-18T13:25:20+02:00</time>
      </trkpt>
      <trkpt lat="48.79054" lon="6.12212">
        <ele>185.90039</ele>
        <time>2026-05-18T13:25:21+02:00</time>
      </trkpt>
      <trkpt lat="48.79057" lon="6.12205">
        <ele>185.90039</ele>
        <time>2026-05-18T13:25:22+02:00</time>
      </trkpt>
      <trkpt lat="48.79059" lon="6.12197">
        <ele>186.10059</ele>
        <time>2026-05-18T13:25:23+02:00</time>
      </trkpt>
      <trkpt lat="48.79062" lon="6.12189">
        <ele>186.10059</ele>
        <time>2026-05-18T13:25:24+02:00</time>
      </trkpt>
      <trkpt lat="48.79064" lon="6.12182">
        <ele>186.2002</ele>
        <time>2026-05-18T13:25:25+02:00</time>
      </trkpt>
      <trkpt lat="48.79067" lon="6.12174">
        <ele>186.2002</ele>
        <time>2026-05-18T13:25:26+02:00</time>
      </trkpt>
      <trkpt lat="48.79069" lon="6.12166">
        <ele>186.10059</ele>
        <time>2026-05-18T13:25:27+02:00</time>
      </trkpt>
      <trkpt lat="48.79072" lon="6.12159">
        <ele>186.2998</ele>
        <time>2026-05-18T13:25:28+02:00</time>
      </trkpt>
      <trkpt lat="48.79075" lon="6.12152">
        <ele>186.2998</ele>
        <time>2026-05-18T13:25:29+02:00</time>
      </trkpt>
      <trkpt lat="48.79078" lon="6.12144">
        <ele>186.60059</ele>
        <time>2026-05-18T13:25:30+02:00</time>
      </trkpt>
      <trkpt lat="48.79081" lon="6.12137">
        <ele>186.90039</ele>
        <time>2026-05-18T13:25:31+02:00</time>
      </trkpt>
      <trkpt lat="48.79084" lon="6.1213">
        <ele>186.7998</ele>
        <time>2026-05-18T13:25:32+02:00</time>
      </trkpt>
      <trkpt lat="48.79087" lon="6.12122">
        <ele>186.90039</ele>
        <time>2026-05-18T13:25:33+02:00</time>
      </trkpt>
      <trkpt lat="48.79089" lon="6.12115">
        <ele>186.7998</ele>
        <time>2026-05-18T13:25:34+02:00</time>
      </trkpt>
      <trkpt lat="48.79093" lon="6.12108">
        <ele>186.90039</ele>
        <time>2026-05-18T13:25:35+02:00</time>
      </trkpt>
      <trkpt lat="48.79096" lon="6.121">
        <ele>186.7998</ele>
        <time>2026-05-18T13:25:36+02:00</time>
      </trkpt>
      <trkpt lat="48.79098" lon="6.12093">
        <ele>187.10059</ele>
        <time>2026-05-18T13:25:37+02:00</time>
      </trkpt>
      <trkpt lat="48.79101" lon="6.12086">
        <ele>187.10059</ele>
        <time>2026-05-18T13:25:38+02:00</time>
      </trkpt>
      <trkpt lat="48.79104" lon="6.1208">
        <ele>187.2998</ele>
        <time>2026-05-18T13:25:39+02:00</time>
      </trkpt>
      <trkpt lat="48.79107" lon="6.12073">
        <ele>187.10059</ele>
        <time>2026-05-18T13:25:40+02:00</time>
      </trkpt>
      <trkpt lat="48.79109" lon="6.12066">
        <ele>186.7998</ele>
        <time>2026-05-18T13:25:41+02:00</time>
      </trkpt>
      <trkpt lat="48.79112" lon="6.12059">
        <ele>187.10059</ele>
        <time>2026-05-18T13:25:42+02:00</time>
      </trkpt>
      <trkpt lat="48.79115" lon="6.12053">
        <ele>187</ele>
        <time>2026-05-18T13:25:43+02:00</time>
      </trkpt>
      <trkpt lat="48.79118" lon="6.12046">
        <ele>186.7002</ele>
        <time>2026-05-18T13:25:44+02:00</time>
      </trkpt>
      <trkpt lat="48.79121" lon="6.12039">
        <ele>186.7998</ele>
        <time>2026-05-18T13:25:45+02:00</time>
      </trkpt>
      <trkpt lat="48.79123" lon="6.12033">
        <ele>186.7998</ele>
        <time>2026-05-18T13:25:46+02:00</time>
      </trkpt>
      <trkpt lat="48.79126" lon="6.12026">
        <ele>186.7998</ele>
        <time>2026-05-18T13:25:47+02:00</time>
      </trkpt>
      <trkpt lat="48.79129" lon="6.12019">
        <ele>186.5</ele>
        <time>2026-05-18T13:25:48+02:00</time>
      </trkpt>
      <trkpt lat="48.79131" lon="6.12012">
        <ele>186.2998</ele>
        <time>2026-05-18T13:25:49+02:00</time>
      </trkpt>
      <trkpt lat="48.79134" lon="6.12006">
        <ele>186.2998</ele>
        <time>2026-05-18T13:25:50+02:00</time>
      </trkpt>
      <trkpt lat="48.79137" lon="6.11999">
        <ele>186.2998</ele>
        <time>2026-05-18T13:25:51+02:00</time>
      </trkpt>
      <trkpt lat="48.79139" lon="6.11992">
        <ele>186.40039</ele>
        <time>2026-05-18T13:25:52+02:00</time>
      </trkpt>
      <trkpt lat="48.79142" lon="6.11985">
        <ele>186.2998</ele>
        <time>2026-05-18T13:25:53+02:00</time>
      </trkpt>
      <trkpt lat="48.79145" lon="6.11978">
        <ele>186.40039</ele>
        <time>2026-05-18T13:25:54+02:00</time>
      </trkpt>
      <trkpt lat="48.79148" lon="6.11971">
        <ele>186.2998</ele>
        <time>2026-05-18T13:25:55+02:00</time>
      </trkpt>
      <trkpt lat="48.79151" lon="6.11964">
        <ele>186.40039</ele>
        <time>2026-05-18T13:25:56+02:00</time>
      </trkpt>
      <trkpt lat="48.79153" lon="6.11957">
        <ele>186.40039</ele>
        <time>2026-05-18T13:25:57+02:00</time>
      </trkpt>
      <trkpt lat="48.79156" lon="6.1195">
        <ele>186.5</ele>
        <time>2026-05-18T13:25:58+02:00</time>
      </trkpt>
      <trkpt lat="48.79159" lon="6.11943">
        <ele>186.2998</ele>
        <time>2026-05-18T13:25:59+02:00</time>
      </trkpt>
      <trkpt lat="48.79162" lon="6.11936">
        <ele>186.40039</ele>
        <time>2026-05-18T13:26:00+02:00</time>
      </trkpt>
      <trkpt lat="48.79165" lon="6.11929">
        <ele>186.10059</ele>
        <time>2026-05-18T13:26:01+02:00</time>
      </trkpt>
      <trkpt lat="48.79168" lon="6.11922">
        <ele>186.5</ele>
        <time>2026-05-18T13:26:02+02:00</time>
      </trkpt>
      <trkpt lat="48.79171" lon="6.11916">
        <ele>186.2002</ele>
        <time>2026-05-18T13:26:03+02:00</time>
      </trkpt>
      <trkpt lat="48.79173" lon="6.11909">
        <ele>186.40039</ele>
        <time>2026-05-18T13:26:04+02:00</time>
      </trkpt>
      <trkpt lat="48.79176" lon="6.11902">
        <ele>186.2002</ele>
        <time>2026-05-18T13:26:05+02:00</time>
      </trkpt>
      <trkpt lat="48.7918" lon="6.11895">
        <ele>186.2002</ele>
        <time>2026-05-18T13:26:06+02:00</time>
      </trkpt>
      <trkpt lat="48.79183" lon="6.11889">
        <ele>186.5</ele>
        <time>2026-05-18T13:26:07+02:00</time>
      </trkpt>
      <trkpt lat="48.79186" lon="6.11882">
        <ele>186.2002</ele>
        <time>2026-05-18T13:26:08+02:00</time>
      </trkpt>
      <trkpt lat="48.79189" lon="6.11875">
        <ele>186.2998</ele>
        <time>2026-05-18T13:26:09+02:00</time>
      </trkpt>
      <trkpt lat="48.79192" lon="6.11868">
        <ele>186.10059</ele>
        <time>2026-05-18T13:26:10+02:00</time>
      </trkpt>
      <trkpt lat="48.79195" lon="6.1186">
        <ele>186.5</ele>
        <time>2026-05-18T13:26:11+02:00</time>
      </trkpt>
      <trkpt lat="48.79198" lon="6.11853">
        <ele>186.5</ele>
        <time>2026-05-18T13:26:12+02:00</time>
      </trkpt>
      <trkpt lat="48.79201" lon="6.11846">
        <ele>186.60059</ele>
        <time>2026-05-18T13:26:13+02:00</time>
      </trkpt>
      <trkpt lat="48.79204" lon="6.11838">
        <ele>186.40039</ele>
        <time>2026-05-18T13:26:14+02:00</time>
      </trkpt>
      <trkpt lat="48.79207" lon="6.11831">
        <ele>186.5</ele>
        <time>2026-05-18T13:26:15+02:00</time>
      </trkpt>
      <trkpt lat="48.7921" lon="6.11823">
        <ele>186.2002</ele>
        <time>2026-05-18T13:26:16+02:00</time>
      </trkpt>
      <trkpt lat="48.79213" lon="6.11816">
        <ele>186.2998</ele>
        <time>2026-05-18T13:26:17+02:00</time>
      </trkpt>
      <trkpt lat="48.79216" lon="6.11809">
        <ele>186</ele>
        <time>2026-05-18T13:26:18+02:00</time>
      </trkpt>
      <trkpt lat="48.79219" lon="6.11802">
        <ele>186.2998</ele>
        <time>2026-05-18T13:26:19+02:00</time>
      </trkpt>
      <trkpt lat="48.79221" lon="6.11795">
        <ele>186.10059</ele>
        <time>2026-05-18T13:26:20+02:00</time>
      </trkpt>
      <trkpt lat="48.79225" lon="6.11788">
        <ele>186</ele>
        <time>2026-05-18T13:26:21+02:00</time>
      </trkpt>
      <trkpt lat="48.79227" lon="6.11781">
        <ele>185.7998</ele>
        <time>2026-05-18T13:26:22+02:00</time>
      </trkpt>
      <trkpt lat="48.7923" lon="6.11775">
        <ele>185.7998</ele>
        <time>2026-05-18T13:26:23+02:00</time>
      </trkpt>
      <trkpt lat="48.79233" lon="6.11768">
        <ele>185.7998</ele>
        <time>2026-05-18T13:26:24+02:00</time>
      </trkpt>
      <trkpt lat="48.79237" lon="6.11762">
        <ele>185.7998</ele>
        <time>2026-05-18T13:26:25+02:00</time>
      </trkpt>
      <trkpt lat="48.7924" lon="6.11755">
        <ele>185.7002</ele>
        <time>2026-05-18T13:26:26+02:00</time>
      </trkpt>
      <trkpt lat="48.79243" lon="6.11749">
        <ele>185.60059</ele>
        <time>2026-05-18T13:26:27+02:00</time>
      </trkpt>
      <trkpt lat="48.79246" lon="6.11743">
        <ele>185.7002</ele>
        <time>2026-05-18T13:26:28+02:00</time>
      </trkpt>
      <trkpt lat="48.7925" lon="6.11736">
        <ele>185.60059</ele>
        <time>2026-05-18T13:26:29+02:00</time>
      </trkpt>
      <trkpt lat="48.79253" lon="6.11729">
        <ele>185.60059</ele>
        <time>2026-05-18T13:26:30+02:00</time>
      </trkpt>
      <trkpt lat="48.79255" lon="6.11722">
        <ele>185.5</ele>
        <time>2026-05-18T13:26:31+02:00</time>
      </trkpt>
      <trkpt lat="48.79258" lon="6.11715">
        <ele>185.5</ele>
        <time>2026-05-18T13:26:32+02:00</time>
      </trkpt>
      <trkpt lat="48.79261" lon="6.11709">
        <ele>185.5</ele>
        <time>2026-05-18T13:26:33+02:00</time>
      </trkpt>
      <trkpt lat="48.79263" lon="6.11702">
        <ele>185.5</ele>
        <time>2026-05-18T13:26:34+02:00</time>
      </trkpt>
      <trkpt lat="48.79266" lon="6.11696">
        <ele>185.40039</ele>
        <time>2026-05-18T13:26:35+02:00</time>
      </trkpt>
      <trkpt lat="48.79269" lon="6.11689">
        <ele>185.40039</ele>
        <time>2026-05-18T13:26:36+02:00</time>
      </trkpt>
      <trkpt lat="48.79272" lon="6.11683">
        <ele>185.40039</ele>
        <time>2026-05-18T13:26:37+02:00</time>
      </trkpt>
      <trkpt lat="48.79275" lon="6.11677">
        <ele>185.40039</ele>
        <time>2026-05-18T13:26:38+02:00</time>
      </trkpt>
      <trkpt lat="48.79278" lon="6.11671">
        <ele>185.2998</ele>
        <time>2026-05-18T13:26:39+02:00</time>
      </trkpt>
      <trkpt lat="48.79281" lon="6.11665">
        <ele>185.40039</ele>
        <time>2026-05-18T13:26:40+02:00</time>
      </trkpt>
      <trkpt lat="48.79284" lon="6.11659">
        <ele>185.2998</ele>
        <time>2026-05-18T13:26:41+02:00</time>
      </trkpt>
      <trkpt lat="48.79287" lon="6.11653">
        <ele>185.10059</ele>
        <time>2026-05-18T13:26:42+02:00</time>
      </trkpt>
      <trkpt lat="48.79291" lon="6.11647">
        <ele>185.2002</ele>
        <time>2026-05-18T13:26:43+02:00</time>
      </trkpt>
      <trkpt lat="48.79294" lon="6.11641">
        <ele>185.10059</ele>
        <time>2026-05-18T13:26:44+02:00</time>
      </trkpt>
      <trkpt lat="48.79296" lon="6.11635">
        <ele>185.10059</ele>
        <time>2026-05-18T13:26:45+02:00</time>
      </trkpt>
      <trkpt lat="48.79299" lon="6.11628">
        <ele>185</ele>
        <time>2026-05-18T13:26:46+02:00</time>
      </trkpt>
      <trkpt lat="48.79302" lon="6.11622">
        <ele>185.2002</ele>
        <time>2026-05-18T13:26:47+02:00</time>
      </trkpt>
      <trkpt lat="48.79304" lon="6.11616">
        <ele>185.10059</ele>
        <time>2026-05-18T13:26:48+02:00</time>
      </trkpt>
      <trkpt lat="48.79307" lon="6.11609">
        <ele>185.10059</ele>
        <time>2026-05-18T13:26:49+02:00</time>
      </trkpt>
      <trkpt lat="48.7931" lon="6.11603">
        <ele>184.7998</ele>
        <time>2026-05-18T13:26:50+02:00</time>
      </trkpt>
      <trkpt lat="48.79312" lon="6.11598">
        <ele>184.7998</ele>
        <time>2026-05-18T13:26:51+02:00</time>
      </trkpt>
      <trkpt lat="48.79315" lon="6.11591">
        <ele>184.90039</ele>
        <time>2026-05-18T13:26:52+02:00</time>
      </trkpt>
      <trkpt lat="48.79317" lon="6.11585">
        <ele>184.7002</ele>
        <time>2026-05-18T13:26:53+02:00</time>
      </trkpt>
      <trkpt lat="48.7932" lon="6.11579">
        <ele>185</ele>
        <time>2026-05-18T13:26:54+02:00</time>
      </trkpt>
      <trkpt lat="48.79323" lon="6.11573">
        <ele>184.7998</ele>
        <time>2026-05-18T13:26:55+02:00</time>
      </trkpt>
      <trkpt lat="48.79326" lon="6.11567">
        <ele>184.7002</ele>
        <time>2026-05-18T13:26:56+02:00</time>
      </trkpt>
      <trkpt lat="48.79329" lon="6.11561">
        <ele>184.7002</ele>
        <time>2026-05-18T13:26:57+02:00</time>
      </trkpt>
      <trkpt lat="48.79332" lon="6.11554">
        <ele>184.7002</ele>
        <time>2026-05-18T13:26:58+02:00</time>
      </trkpt>
      <trkpt lat="48.79335" lon="6.11548">
        <ele>184.60059</ele>
        <time>2026-05-18T13:26:59+02:00</time>
      </trkpt>
      <trkpt lat="48.79337" lon="6.11541">
        <ele>184.7002</ele>
        <time>2026-05-18T13:27:00+02:00</time>
      </trkpt>
      <trkpt lat="48.7934" lon="6.11534">
        <ele>184.5</ele>
        <time>2026-05-18T13:27:01+02:00</time>
      </trkpt>
      <trkpt lat="48.79344" lon="6.11528">
        <ele>184.60059</ele>
        <time>2026-05-18T13:27:02+02:00</time>
      </trkpt>
      <trkpt lat="48.79347" lon="6.11521">
        <ele>184.5</ele>
        <time>2026-05-18T13:27:03+02:00</time>
      </trkpt>
      <trkpt lat="48.79349" lon="6.11515">
        <ele>184.40039</ele>
        <time>2026-05-18T13:27:04+02:00</time>
      </trkpt>
      <trkpt lat="48.79353" lon="6.11508">
        <ele>184.60059</ele>
        <time>2026-05-18T13:27:05+02:00</time>
      </trkpt>
      <trkpt lat="48.79356" lon="6.11502">
        <ele>184.60059</ele>
        <time>2026-05-18T13:27:06+02:00</time>
      </trkpt>
      <trkpt lat="48.7936" lon="6.11495">
        <ele>184.90039</ele>
        <time>2026-05-18T13:27:07+02:00</time>
      </trkpt>
      <trkpt lat="48.79363" lon="6.11489">
        <ele>184.7998</ele>
        <time>2026-05-18T13:27:08+02:00</time>
      </trkpt>
      <trkpt lat="48.79366" lon="6.11483">
        <ele>184.7998</ele>
        <time>2026-05-18T13:27:09+02:00</time>
      </trkpt>
      <trkpt lat="48.79369" lon="6.11477">
        <ele>184.7998</ele>
        <time>2026-05-18T13:27:10+02:00</time>
      </trkpt>
      <trkpt lat="48.79373" lon="6.11472">
        <ele>184.7998</ele>
        <time>2026-05-18T13:27:11+02:00</time>
      </trkpt>
      <trkpt lat="48.79376" lon="6.11466">
        <ele>184.90039</ele>
        <time>2026-05-18T13:27:12+02:00</time>
      </trkpt>
      <trkpt lat="48.7938" lon="6.1146">
        <ele>184.90039</ele>
        <time>2026-05-18T13:27:13+02:00</time>
      </trkpt>
      <trkpt lat="48.79383" lon="6.11455">
        <ele>184.90039</ele>
        <time>2026-05-18T13:27:14+02:00</time>
      </trkpt>
      <trkpt lat="48.79386" lon="6.11449">
        <ele>184.7998</ele>
        <time>2026-05-18T13:27:15+02:00</time>
      </trkpt>
      <trkpt lat="48.7939" lon="6.11443">
        <ele>184.7998</ele>
        <time>2026-05-18T13:27:16+02:00</time>
      </trkpt>
      <trkpt lat="48.79393" lon="6.11438">
        <ele>184.60059</ele>
        <time>2026-05-18T13:27:17+02:00</time>
      </trkpt>
      <trkpt lat="48.79396" lon="6.11433">
        <ele>184.60059</ele>
        <time>2026-05-18T13:27:18+02:00</time>
      </trkpt>
      <trkpt lat="48.79399" lon="6.11428">
        <ele>184.5</ele>
        <time>2026-05-18T13:27:19+02:00</time>
      </trkpt>
      <trkpt lat="48.79403" lon="6.11423">
        <ele>184.2002</ele>
        <time>2026-05-18T13:27:20+02:00</time>
      </trkpt>
      <trkpt lat="48.79406" lon="6.11417">
        <ele>184.5</ele>
        <time>2026-05-18T13:27:21+02:00</time>
      </trkpt>
      <trkpt lat="48.7941" lon="6.11412">
        <ele>184.60059</ele>
        <time>2026-05-18T13:27:22+02:00</time>
      </trkpt>
      <trkpt lat="48.79414" lon="6.11407">
        <ele>184.60059</ele>
        <time>2026-05-18T13:27:23+02:00</time>
      </trkpt>
      <trkpt lat="48.79417" lon="6.11402">
        <ele>184.60059</ele>
        <time>2026-05-18T13:27:24+02:00</time>
      </trkpt>
      <trkpt lat="48.79421" lon="6.11397">
        <ele>184.60059</ele>
        <time>2026-05-18T13:27:25+02:00</time>
      </trkpt>
      <trkpt lat="48.79424" lon="6.11392">
        <ele>184.60059</ele>
        <time>2026-05-18T13:27:26+02:00</time>
      </trkpt>
      <trkpt lat="48.79428" lon="6.11387">
        <ele>184.60059</ele>
        <time>2026-05-18T13:27:27+02:00</time>
      </trkpt>
      <trkpt lat="48.79432" lon="6.11382">
        <ele>184.90039</ele>
        <time>2026-05-18T13:27:28+02:00</time>
      </trkpt>
      <trkpt lat="48.79435" lon="6.11377">
        <ele>184.60059</ele>
        <time>2026-05-18T13:27:29+02:00</time>
      </trkpt>
      <trkpt lat="48.79439" lon="6.11372">
        <ele>184.60059</ele>
        <time>2026-05-18T13:27:30+02:00</time>
      </trkpt>
      <trkpt lat="48.79443" lon="6.11367">
        <ele>184.7998</ele>
        <time>2026-05-18T13:27:31+02:00</time>
      </trkpt>
      <trkpt lat="48.79447" lon="6.11362">
        <ele>184.5</ele>
        <time>2026-05-18T13:27:32+02:00</time>
      </trkpt>
      <trkpt lat="48.7945" lon="6.11356">
        <ele>184.7998</ele>
        <time>2026-05-18T13:27:33+02:00</time>
      </trkpt>
      <trkpt lat="48.79454" lon="6.11352">
        <ele>184.7998</ele>
        <time>2026-05-18T13:27:34+02:00</time>
      </trkpt>
      <trkpt lat="48.79458" lon="6.11347">
        <ele>184.7998</ele>
        <time>2026-05-18T13:27:35+02:00</time>
      </trkpt>
      <trkpt lat="48.79461" lon="6.11343">
        <ele>184.7002</ele>
        <time>2026-05-18T13:27:36+02:00</time>
      </trkpt>
      <trkpt lat="48.79465" lon="6.11338">
        <ele>184.7002</ele>
        <time>2026-05-18T13:27:37+02:00</time>
      </trkpt>
      <trkpt lat="48.79469" lon="6.11333">
        <ele>184.7002</ele>
        <time>2026-05-18T13:27:38+02:00</time>
      </trkpt>
      <trkpt lat="48.79472" lon="6.11328">
        <ele>184.7002</ele>
        <time>2026-05-18T13:27:39+02:00</time>
      </trkpt>
      <trkpt lat="48.79476" lon="6.11324">
        <ele>184.7002</ele>
        <time>2026-05-18T13:27:40+02:00</time>
      </trkpt>
      <trkpt lat="48.7948" lon="6.11319">
        <ele>184.7002</ele>
        <time>2026-05-18T13:27:41+02:00</time>
      </trkpt>
      <trkpt lat="48.79484" lon="6.11315">
        <ele>185</ele>
        <time>2026-05-18T13:27:42+02:00</time>
      </trkpt>
      <trkpt lat="48.79488" lon="6.1131">
        <ele>184.90039</ele>
        <time>2026-05-18T13:27:43+02:00</time>
      </trkpt>
      <trkpt lat="48.79492" lon="6.11306">
        <ele>184.90039</ele>
        <time>2026-05-18T13:27:44+02:00</time>
      </trkpt>
      <trkpt lat="48.79495" lon="6.11301">
        <ele>184.90039</ele>
        <time>2026-05-18T13:27:45+02:00</time>
      </trkpt>
      <trkpt lat="48.79499" lon="6.11297">
        <ele>184.90039</ele>
        <time>2026-05-18T13:27:46+02:00</time>
      </trkpt>
      <trkpt lat="48.79503" lon="6.11292">
        <ele>184.90039</ele>
        <time>2026-05-18T13:27:47+02:00</time>
      </trkpt>
      <trkpt lat="48.79506" lon="6.11288">
        <ele>185.2998</ele>
        <time>2026-05-18T13:27:48+02:00</time>
      </trkpt>
      <trkpt lat="48.7951" lon="6.11284">
        <ele>184.90039</ele>
        <time>2026-05-18T13:27:49+02:00</time>
      </trkpt>
      <trkpt lat="48.79514" lon="6.1128">
        <ele>185.2002</ele>
        <time>2026-05-18T13:27:50+02:00</time>
      </trkpt>
      <trkpt lat="48.79518" lon="6.11276">
        <ele>184.90039</ele>
        <time>2026-05-18T13:27:51+02:00</time>
      </trkpt>
      <trkpt lat="48.79522" lon="6.11272">
        <ele>185.10059</ele>
        <time>2026-05-18T13:27:52+02:00</time>
      </trkpt>
      <trkpt lat="48.79526" lon="6.11268">
        <ele>184.7002</ele>
        <time>2026-05-18T13:27:53+02:00</time>
      </trkpt>
      <trkpt lat="48.7953" lon="6.11264">
        <ele>184.7998</ele>
        <time>2026-05-18T13:27:54+02:00</time>
      </trkpt>
      <trkpt lat="48.79535" lon="6.1126">
        <ele>184.7002</ele>
        <time>2026-05-18T13:27:55+02:00</time>
      </trkpt>
      <trkpt lat="48.79539" lon="6.11256">
        <ele>184.90039</ele>
        <time>2026-05-18T13:27:56+02:00</time>
      </trkpt>
      <trkpt lat="48.79543" lon="6.11253">
        <ele>184.90039</ele>
        <time>2026-05-18T13:27:57+02:00</time>
      </trkpt>
      <trkpt lat="48.79548" lon="6.11249">
        <ele>185</ele>
        <time>2026-05-18T13:27:58+02:00</time>
      </trkpt>
      <trkpt lat="48.79552" lon="6.11245">
        <ele>185.2998</ele>
        <time>2026-05-18T13:27:59+02:00</time>
      </trkpt>
      <trkpt lat="48.79556" lon="6.11241">
        <ele>185</ele>
        <time>2026-05-18T13:28:00+02:00</time>
      </trkpt>
      <trkpt lat="48.79561" lon="6.11237">
        <ele>185</ele>
        <time>2026-05-18T13:28:01+02:00</time>
      </trkpt>
      <trkpt lat="48.79564" lon="6.11233">
        <ele>184.90039</ele>
        <time>2026-05-18T13:28:02+02:00</time>
      </trkpt>
      <trkpt lat="48.79569" lon="6.11228">
        <ele>185.2998</ele>
        <time>2026-05-18T13:28:03+02:00</time>
      </trkpt>
      <trkpt lat="48.79573" lon="6.11224">
        <ele>185.60059</ele>
        <time>2026-05-18T13:28:04+02:00</time>
      </trkpt>
      <trkpt lat="48.79578" lon="6.11219">
        <ele>185.60059</ele>
        <time>2026-05-18T13:28:05+02:00</time>
      </trkpt>
      <trkpt lat="48.79582" lon="6.11215">
        <ele>185.5</ele>
        <time>2026-05-18T13:28:06+02:00</time>
      </trkpt>
      <trkpt lat="48.79586" lon="6.11211">
        <ele>185.60059</ele>
        <time>2026-05-18T13:28:07+02:00</time>
      </trkpt>
      <trkpt lat="48.79591" lon="6.11207">
        <ele>185</ele>
        <time>2026-05-18T13:28:08+02:00</time>
      </trkpt>
      <trkpt lat="48.79596" lon="6.11203">
        <ele>185.10059</ele>
        <time>2026-05-18T13:28:09+02:00</time>
      </trkpt>
      <trkpt lat="48.796" lon="6.112">
        <ele>184.60059</ele>
        <time>2026-05-18T13:28:10+02:00</time>
      </trkpt>
      <trkpt lat="48.79604" lon="6.11196">
        <ele>184.7002</ele>
        <time>2026-05-18T13:28:11+02:00</time>
      </trkpt>
      <trkpt lat="48.79609" lon="6.11192">
        <ele>184.7998</ele>
        <time>2026-05-18T13:28:12+02:00</time>
      </trkpt>
      <trkpt lat="48.79614" lon="6.11189">
        <ele>184.60059</ele>
        <time>2026-05-18T13:28:13+02:00</time>
      </trkpt>
      <trkpt lat="48.79619" lon="6.11185">
        <ele>184.7002</ele>
        <time>2026-05-18T13:28:14+02:00</time>
      </trkpt>
      <trkpt lat="48.79624" lon="6.11182">
        <ele>184.60059</ele>
        <time>2026-05-18T13:28:15+02:00</time>
      </trkpt>
      <trkpt lat="48.79629" lon="6.11179">
        <ele>184.60059</ele>
        <time>2026-05-18T13:28:16+02:00</time>
      </trkpt>
      <trkpt lat="48.79633" lon="6.11175">
        <ele>184.7002</ele>
        <time>2026-05-18T13:28:17+02:00</time>
      </trkpt>
      <trkpt lat="48.79638" lon="6.11171">
        <ele>184.60059</ele>
        <time>2026-05-18T13:28:18+02:00</time>
      </trkpt>
      <trkpt lat="48.79642" lon="6.11168">
        <ele>184.7998</ele>
        <time>2026-05-18T13:28:19+02:00</time>
      </trkpt>
      <trkpt lat="48.79647" lon="6.11165">
        <ele>184.40039</ele>
        <time>2026-05-18T13:28:20+02:00</time>
      </trkpt>
      <trkpt lat="48.79651" lon="6.11162">
        <ele>184.40039</ele>
        <time>2026-05-18T13:28:21+02:00</time>
      </trkpt>
      <trkpt lat="48.79656" lon="6.11158">
        <ele>184.5</ele>
        <time>2026-05-18T13:28:22+02:00</time>
      </trkpt>
      <trkpt lat="48.79661" lon="6.11155">
        <ele>184.2002</ele>
        <time>2026-05-18T13:28:23+02:00</time>
      </trkpt>
      <trkpt lat="48.79666" lon="6.11152">
        <ele>184.2002</ele>
        <time>2026-05-18T13:28:24+02:00</time>
      </trkpt>
      <trkpt lat="48.79671" lon="6.11149">
        <ele>184.2998</ele>
        <time>2026-05-18T13:28:25+02:00</time>
      </trkpt>
      <trkpt lat="48.79676" lon="6.11145">
        <ele>184.10059</ele>
        <time>2026-05-18T13:28:26+02:00</time>
      </trkpt>
      <trkpt lat="48.79681" lon="6.11142">
        <ele>184.2002</ele>
        <time>2026-05-18T13:28:27+02:00</time>
      </trkpt>
      <trkpt lat="48.79686" lon="6.11138">
        <ele>184.10059</ele>
        <time>2026-05-18T13:28:28+02:00</time>
      </trkpt>
      <trkpt lat="48.79691" lon="6.11135">
        <ele>184.10059</ele>
        <time>2026-05-18T13:28:29+02:00</time>
      </trkpt>
      <trkpt lat="48.79696" lon="6.11131">
        <ele>184.10059</ele>
        <time>2026-05-18T13:28:30+02:00</time>
      </trkpt>
      <trkpt lat="48.79701" lon="6.11128">
        <ele>184.2002</ele>
        <time>2026-05-18T13:28:31+02:00</time>
      </trkpt>
      <trkpt lat="48.79706" lon="6.11125">
        <ele>184.40039</ele>
        <time>2026-05-18T13:28:32+02:00</time>
      </trkpt>
      <trkpt lat="48.79711" lon="6.11122">
        <ele>184.2002</ele>
        <time>2026-05-18T13:28:33+02:00</time>
      </trkpt>
      <trkpt lat="48.79715" lon="6.11119">
        <ele>184.2998</ele>
        <time>2026-05-18T13:28:34+02:00</time>
      </trkpt>
      <trkpt lat="48.7972" lon="6.11117">
        <ele>184.40039</ele>
        <time>2026-05-18T13:28:35+02:00</time>
      </trkpt>
      <trkpt lat="48.79725" lon="6.11115">
        <ele>184.40039</ele>
        <time>2026-05-18T13:28:36+02:00</time>
      </trkpt>
      <trkpt lat="48.7973" lon="6.11112">
        <ele>184.2002</ele>
        <time>2026-05-18T13:28:37+02:00</time>
      </trkpt>
      <trkpt lat="48.79735" lon="6.1111">
        <ele>184.2998</ele>
        <time>2026-05-18T13:28:38+02:00</time>
      </trkpt>
      <trkpt lat="48.7974" lon="6.11108">
        <ele>184.5</ele>
        <time>2026-05-18T13:28:39+02:00</time>
      </trkpt>
      <trkpt lat="48.79744" lon="6.11106">
        <ele>184.7002</ele>
        <time>2026-05-18T13:28:40+02:00</time>
      </trkpt>
      <trkpt lat="48.79749" lon="6.11104">
        <ele>184.7002</ele>
        <time>2026-05-18T13:28:41+02:00</time>
      </trkpt>
      <trkpt lat="48.79754" lon="6.11102">
        <ele>185</ele>
        <time>2026-05-18T13:28:42+02:00</time>
      </trkpt>
      <trkpt lat="48.79759" lon="6.111">
        <ele>185</ele>
        <time>2026-05-18T13:28:43+02:00</time>
      </trkpt>
      <trkpt lat="48.79763" lon="6.11098">
        <ele>185.10059</ele>
        <time>2026-05-18T13:28:44+02:00</time>
      </trkpt>
      <trkpt lat="48.79768" lon="6.11096">
        <ele>184.7002</ele>
        <time>2026-05-18T13:28:45+02:00</time>
      </trkpt>
      <trkpt lat="48.79773" lon="6.11094">
        <ele>184.7998</ele>
        <time>2026-05-18T13:28:46+02:00</time>
      </trkpt>
      <trkpt lat="48.79778" lon="6.11092">
        <ele>184.7998</ele>
        <time>2026-05-18T13:28:47+02:00</time>
      </trkpt>
      <trkpt lat="48.79783" lon="6.1109">
        <ele>184.90039</ele>
        <time>2026-05-18T13:28:48+02:00</time>
      </trkpt>
      <trkpt lat="48.79788" lon="6.11088">
        <ele>184.60059</ele>
        <time>2026-05-18T13:28:49+02:00</time>
      </trkpt>
      <trkpt lat="48.79792" lon="6.11087">
        <ele>184.60059</ele>
        <time>2026-05-18T13:28:50+02:00</time>
      </trkpt>
      <trkpt lat="48.79797" lon="6.11085">
        <ele>184.7002</ele>
        <time>2026-05-18T13:28:51+02:00</time>
      </trkpt>
      <trkpt lat="48.79802" lon="6.11084">
        <ele>184.7998</ele>
        <time>2026-05-18T13:28:52+02:00</time>
      </trkpt>
      <trkpt lat="48.79807" lon="6.11083">
        <ele>185</ele>
        <time>2026-05-18T13:28:53+02:00</time>
      </trkpt>
      <trkpt lat="48.79812" lon="6.11081">
        <ele>185.2998</ele>
        <time>2026-05-18T13:28:54+02:00</time>
      </trkpt>
      <trkpt lat="48.79817" lon="6.1108">
        <ele>185.5</ele>
        <time>2026-05-18T13:28:55+02:00</time>
      </trkpt>
      <trkpt lat="48.79822" lon="6.11079">
        <ele>185.7998</ele>
        <time>2026-05-18T13:28:56+02:00</time>
      </trkpt>
      <trkpt lat="48.79827" lon="6.11078">
        <ele>186</ele>
        <time>2026-05-18T13:28:57+02:00</time>
      </trkpt>
      <trkpt lat="48.79832" lon="6.11077">
        <ele>186</ele>
        <time>2026-05-18T13:28:58+02:00</time>
      </trkpt>
      <trkpt lat="48.79838" lon="6.11075">
        <ele>186.10059</ele>
        <time>2026-05-18T13:28:59+02:00</time>
      </trkpt>
      <trkpt lat="48.79843" lon="6.11075">
        <ele>186.2002</ele>
        <time>2026-05-18T13:29:00+02:00</time>
      </trkpt>
      <trkpt lat="48.79848" lon="6.11074">
        <ele>186.2998</ele>
        <time>2026-05-18T13:29:01+02:00</time>
      </trkpt>
      <trkpt lat="48.79853" lon="6.11074">
        <ele>186.40039</ele>
        <time>2026-05-18T13:29:02+02:00</time>
      </trkpt>
      <trkpt lat="48.79859" lon="6.11073">
        <ele>186.40039</ele>
        <time>2026-05-18T13:29:03+02:00</time>
      </trkpt>
      <trkpt lat="48.79864" lon="6.11072">
        <ele>186.5</ele>
        <time>2026-05-18T13:29:04+02:00</time>
      </trkpt>
      <trkpt lat="48.79869" lon="6.11072">
        <ele>186.5</ele>
        <time>2026-05-18T13:29:05+02:00</time>
      </trkpt>
      <trkpt lat="48.79875" lon="6.11072">
        <ele>186.5</ele>
        <time>2026-05-18T13:29:06+02:00</time>
      </trkpt>
      <trkpt lat="48.7988" lon="6.11072">
        <ele>186.5</ele>
        <time>2026-05-18T13:29:07+02:00</time>
      </trkpt>
      <trkpt lat="48.79885" lon="6.11071">
        <ele>186.2002</ele>
        <time>2026-05-18T13:29:08+02:00</time>
      </trkpt>
      <trkpt lat="48.7989" lon="6.11071">
        <ele>186.2002</ele>
        <time>2026-05-18T13:29:09+02:00</time>
      </trkpt>
      <trkpt lat="48.79896" lon="6.11072">
        <ele>186.40039</ele>
        <time>2026-05-18T13:29:10+02:00</time>
      </trkpt>
      <trkpt lat="48.79901" lon="6.11072">
        <ele>186.5</ele>
        <time>2026-05-18T13:29:11+02:00</time>
      </trkpt>
      <trkpt lat="48.79906" lon="6.11071">
        <ele>186.2998</ele>
        <time>2026-05-18T13:29:12+02:00</time>
      </trkpt>
      <trkpt lat="48.79912" lon="6.11072">
        <ele>186.40039</ele>
        <time>2026-05-18T13:29:13+02:00</time>
      </trkpt>
      <trkpt lat="48.79917" lon="6.11072">
        <ele>186.40039</ele>
        <time>2026-05-18T13:29:14+02:00</time>
      </trkpt>
      <trkpt lat="48.79922" lon="6.11072">
        <ele>186.2002</ele>
        <time>2026-05-18T13:29:15+02:00</time>
      </trkpt>
      <trkpt lat="48.79927" lon="6.11072">
        <ele>185.7002</ele>
        <time>2026-05-18T13:29:16+02:00</time>
      </trkpt>
      <trkpt lat="48.79932" lon="6.11073">
        <ele>185.2002</ele>
        <time>2026-05-18T13:29:17+02:00</time>
      </trkpt>
      <trkpt lat="48.79937" lon="6.11073">
        <ele>184.7998</ele>
        <time>2026-05-18T13:29:18+02:00</time>
      </trkpt>
      <trkpt lat="48.79942" lon="6.11074">
        <ele>184.7998</ele>
        <time>2026-05-18T13:29:19+02:00</time>
      </trkpt>
      <trkpt lat="48.79947" lon="6.11075">
        <ele>184.7002</ele>
        <time>2026-05-18T13:29:20+02:00</time>
      </trkpt>
      <trkpt lat="48.79952" lon="6.11075">
        <ele>184.7998</ele>
        <time>2026-05-18T13:29:21+02:00</time>
      </trkpt>
      <trkpt lat="48.79957" lon="6.11077">
        <ele>184.7998</ele>
        <time>2026-05-18T13:29:22+02:00</time>
      </trkpt>
      <trkpt lat="48.79962" lon="6.11078">
        <ele>184.7998</ele>
        <time>2026-05-18T13:29:23+02:00</time>
      </trkpt>
      <trkpt lat="48.79967" lon="6.11079">
        <ele>184.90039</ele>
        <time>2026-05-18T13:29:24+02:00</time>
      </trkpt>
      <trkpt lat="48.79972" lon="6.1108">
        <ele>185</ele>
        <time>2026-05-18T13:29:25+02:00</time>
      </trkpt>
      <trkpt lat="48.79978" lon="6.11081">
        <ele>186</ele>
        <time>2026-05-18T13:29:26+02:00</time>
      </trkpt>
      <trkpt lat="48.79983" lon="6.11082">
        <ele>186</ele>
        <time>2026-05-18T13:29:27+02:00</time>
      </trkpt>
      <trkpt lat="48.79988" lon="6.11083">
        <ele>185.90039</ele>
        <time>2026-05-18T13:29:28+02:00</time>
      </trkpt>
      <trkpt lat="48.79993" lon="6.11084">
        <ele>185.7998</ele>
        <time>2026-05-18T13:29:29+02:00</time>
      </trkpt>
      <trkpt lat="48.79998" lon="6.11085">
        <ele>185.5</ele>
        <time>2026-05-18T13:29:30+02:00</time>
      </trkpt>
      <trkpt lat="48.80003" lon="6.11086">
        <ele>185.2002</ele>
        <time>2026-05-18T13:29:31+02:00</time>
      </trkpt>
      <trkpt lat="48.80008" lon="6.11088">
        <ele>185.2002</ele>
        <time>2026-05-18T13:29:32+02:00</time>
      </trkpt>
      <trkpt lat="48.80013" lon="6.11089">
        <ele>185.2002</ele>
        <time>2026-05-18T13:29:33+02:00</time>
      </trkpt>
      <trkpt lat="48.80018" lon="6.11091">
        <ele>184.60059</ele>
        <time>2026-05-18T13:29:34+02:00</time>
      </trkpt>
      <trkpt lat="48.80024" lon="6.11092">
        <ele>184</ele>
        <time>2026-05-18T13:29:35+02:00</time>
      </trkpt>
      <trkpt lat="48.80029" lon="6.11094">
        <ele>183.5</ele>
        <time>2026-05-18T13:29:36+02:00</time>
      </trkpt>
      <trkpt lat="48.80034" lon="6.11095">
        <ele>183.40039</ele>
        <time>2026-05-18T13:29:37+02:00</time>
      </trkpt>
      <trkpt lat="48.80039" lon="6.11097">
        <ele>183.5</ele>
        <time>2026-05-18T13:29:38+02:00</time>
      </trkpt>
      <trkpt lat="48.80044" lon="6.11099">
        <ele>183.7002</ele>
        <time>2026-05-18T13:29:39+02:00</time>
      </trkpt>
      <trkpt lat="48.80049" lon="6.11101">
        <ele>183.7998</ele>
        <time>2026-05-18T13:29:40+02:00</time>
      </trkpt>
      <trkpt lat="48.80055" lon="6.11104">
        <ele>183.7002</ele>
        <time>2026-05-18T13:29:41+02:00</time>
      </trkpt>
      <trkpt lat="48.8006" lon="6.11106">
        <ele>183.60059</ele>
        <time>2026-05-18T13:29:42+02:00</time>
      </trkpt>
      <trkpt lat="48.80065" lon="6.11109">
        <ele>183.5</ele>
        <time>2026-05-18T13:29:43+02:00</time>
      </trkpt>
      <trkpt lat="48.8007" lon="6.11112">
        <ele>183.5</ele>
        <time>2026-05-18T13:29:44+02:00</time>
      </trkpt>
      <trkpt lat="48.80076" lon="6.11115">
        <ele>183.2998</ele>
        <time>2026-05-18T13:29:45+02:00</time>
      </trkpt>
      <trkpt lat="48.80081" lon="6.11118">
        <ele>183.2998</ele>
        <time>2026-05-18T13:29:46+02:00</time>
      </trkpt>
      <trkpt lat="48.80086" lon="6.11121">
        <ele>183.2002</ele>
        <time>2026-05-18T13:29:47+02:00</time>
      </trkpt>
      <trkpt lat="48.80091" lon="6.11124">
        <ele>183</ele>
        <time>2026-05-18T13:29:48+02:00</time>
      </trkpt>
      <trkpt lat="48.80096" lon="6.11127">
        <ele>183</ele>
        <time>2026-05-18T13:29:49+02:00</time>
      </trkpt>
      <trkpt lat="48.80101" lon="6.1113">
        <ele>182.90039</ele>
        <time>2026-05-18T13:29:50+02:00</time>
      </trkpt>
      <trkpt lat="48.80106" lon="6.11134">
        <ele>182.7998</ele>
        <time>2026-05-18T13:29:51+02:00</time>
      </trkpt>
      <trkpt lat="48.80111" lon="6.11137">
        <ele>182.7002</ele>
        <time>2026-05-18T13:29:52+02:00</time>
      </trkpt>
      <trkpt lat="48.80116" lon="6.11141">
        <ele>182.60059</ele>
        <time>2026-05-18T13:29:53+02:00</time>
      </trkpt>
      <trkpt lat="48.80121" lon="6.11144">
        <ele>182.60059</ele>
        <time>2026-05-18T13:29:54+02:00</time>
      </trkpt>
      <trkpt lat="48.80126" lon="6.11148">
        <ele>182.5</ele>
        <time>2026-05-18T13:29:55+02:00</time>
      </trkpt>
      <trkpt lat="48.80131" lon="6.11152">
        <ele>182.5</ele>
        <time>2026-05-18T13:29:56+02:00</time>
      </trkpt>
      <trkpt lat="48.80135" lon="6.11155">
        <ele>182.5</ele>
        <time>2026-05-18T13:29:57+02:00</time>
      </trkpt>
      <trkpt lat="48.8014" lon="6.11159">
        <ele>182.40039</ele>
        <time>2026-05-18T13:29:58+02:00</time>
      </trkpt>
      <trkpt lat="48.80145" lon="6.11163">
        <ele>182.40039</ele>
        <time>2026-05-18T13:29:59+02:00</time>
      </trkpt>
      <trkpt lat="48.8015" lon="6.11167">
        <ele>182.40039</ele>
        <time>2026-05-18T13:30:00+02:00</time>
      </trkpt>
      <trkpt lat="48.80154" lon="6.11171">
        <ele>182.40039</ele>
        <time>2026-05-18T13:30:01+02:00</time>
      </trkpt>
      <trkpt lat="48.80158" lon="6.11175">
        <ele>182.40039</ele>
        <time>2026-05-18T13:30:02+02:00</time>
      </trkpt>
      <trkpt lat="48.80163" lon="6.11179">
        <ele>182.40039</ele>
        <time>2026-05-18T13:30:03+02:00</time>
      </trkpt>
      <trkpt lat="48.80167" lon="6.11184">
        <ele>182.40039</ele>
        <time>2026-05-18T13:30:04+02:00</time>
      </trkpt>
      <trkpt lat="48.80172" lon="6.11188">
        <ele>182.40039</ele>
        <time>2026-05-18T13:30:05+02:00</time>
      </trkpt>
      <trkpt lat="48.80176" lon="6.11192">
        <ele>182.40039</ele>
        <time>2026-05-18T13:30:06+02:00</time>
      </trkpt>
      <trkpt lat="48.8018" lon="6.11197">
        <ele>182.40039</ele>
        <time>2026-05-18T13:30:07+02:00</time>
      </trkpt>
      <trkpt lat="48.80185" lon="6.11202">
        <ele>182.2998</ele>
        <time>2026-05-18T13:30:08+02:00</time>
      </trkpt>
      <trkpt lat="48.8019" lon="6.11206">
        <ele>182.2998</ele>
        <time>2026-05-18T13:30:09+02:00</time>
      </trkpt>
      <trkpt lat="48.80194" lon="6.1121">
        <ele>182.2998</ele>
        <time>2026-05-18T13:30:10+02:00</time>
      </trkpt>
      <trkpt lat="48.80198" lon="6.11215">
        <ele>182.40039</ele>
        <time>2026-05-18T13:30:11+02:00</time>
      </trkpt>
      <trkpt lat="48.80203" lon="6.1122">
        <ele>182.5</ele>
        <time>2026-05-18T13:30:12+02:00</time>
      </trkpt>
      <trkpt lat="48.80208" lon="6.11225">
        <ele>182.60059</ele>
        <time>2026-05-18T13:30:13+02:00</time>
      </trkpt>
      <trkpt lat="48.80213" lon="6.1123">
        <ele>182.90039</ele>
        <time>2026-05-18T13:30:14+02:00</time>
      </trkpt>
      <trkpt lat="48.80217" lon="6.11234">
        <ele>182.90039</ele>
        <time>2026-05-18T13:30:15+02:00</time>
      </trkpt>
      <trkpt lat="48.80222" lon="6.11238">
        <ele>183</ele>
        <time>2026-05-18T13:30:16+02:00</time>
      </trkpt>
      <trkpt lat="48.80227" lon="6.11243">
        <ele>182.90039</ele>
        <time>2026-05-18T13:30:17+02:00</time>
      </trkpt>
      <trkpt lat="48.80231" lon="6.11248">
        <ele>183</ele>
        <time>2026-05-18T13:30:18+02:00</time>
      </trkpt>
      <trkpt lat="48.80235" lon="6.11252">
        <ele>183.7002</ele>
        <time>2026-05-18T13:30:19+02:00</time>
      </trkpt>
      <trkpt lat="48.8024" lon="6.11256">
        <ele>183.60059</ele>
        <time>2026-05-18T13:30:20+02:00</time>
      </trkpt>
      <trkpt lat="48.80245" lon="6.11261">
        <ele>184.60059</ele>
        <time>2026-05-18T13:30:21+02:00</time>
      </trkpt>
      <trkpt lat="48.80249" lon="6.11265">
        <ele>184.2002</ele>
        <time>2026-05-18T13:30:22+02:00</time>
      </trkpt>
      <trkpt lat="48.80253" lon="6.1127">
        <ele>184.2002</ele>
        <time>2026-05-18T13:30:23+02:00</time>
      </trkpt>
      <trkpt lat="48.80257" lon="6.11274">
        <ele>183.7002</ele>
        <time>2026-05-18T13:30:24+02:00</time>
      </trkpt>
      <trkpt lat="48.80261" lon="6.11279">
        <ele>184.2998</ele>
        <time>2026-05-18T13:30:25+02:00</time>
      </trkpt>
      <trkpt lat="48.80264" lon="6.11284">
        <ele>184.2002</ele>
        <time>2026-05-18T13:30:26+02:00</time>
      </trkpt>
      <trkpt lat="48.80267" lon="6.11289">
        <ele>185.2002</ele>
        <time>2026-05-18T13:30:27+02:00</time>
      </trkpt>
      <trkpt lat="48.80269" lon="6.11295">
        <ele>185.7998</ele>
        <time>2026-05-18T13:30:28+02:00</time>
      </trkpt>
      <trkpt lat="48.80272" lon="6.11301">
        <ele>185.7998</ele>
        <time>2026-05-18T13:30:29+02:00</time>
      </trkpt>
      <trkpt lat="48.80275" lon="6.11306">
        <ele>186.2002</ele>
        <time>2026-05-18T13:30:30+02:00</time>
      </trkpt>
      <trkpt lat="48.80278" lon="6.1131">
        <ele>186.2002</ele>
        <time>2026-05-18T13:30:31+02:00</time>
      </trkpt>
      <trkpt lat="48.80282" lon="6.11315">
        <ele>186.2002</ele>
        <time>2026-05-18T13:30:32+02:00</time>
      </trkpt>
      <trkpt lat="48.80284" lon="6.11318">
        <ele>186.2002</ele>
        <time>2026-05-18T13:30:33+02:00</time>
      </trkpt>
      <trkpt lat="48.80287" lon="6.11321">
        <ele>186.5</ele>
        <time>2026-05-18T13:30:34+02:00</time>
      </trkpt>
      <trkpt lat="48.8029" lon="6.11324">
        <ele>186.5</ele>
        <time>2026-05-18T13:30:35+02:00</time>
      </trkpt>
      <trkpt lat="48.80294" lon="6.11327">
        <ele>186.2002</ele>
        <time>2026-05-18T13:30:36+02:00</time>
      </trkpt>
      <trkpt lat="48.80297" lon="6.11333">
        <ele>186.7998</ele>
        <time>2026-05-18T13:30:37+02:00</time>
      </trkpt>
      <trkpt lat="48.80299" lon="6.1134">
        <ele>187.2002</ele>
        <time>2026-05-18T13:30:38+02:00</time>
      </trkpt>
      <trkpt lat="48.80301" lon="6.11347">
        <ele>187.2998</ele>
        <time>2026-05-18T13:30:39+02:00</time>
      </trkpt>
      <trkpt lat="48.80304" lon="6.11354">
        <ele>187.2002</ele>
        <time>2026-05-18T13:30:40+02:00</time>
      </trkpt>
      <trkpt lat="48.80307" lon="6.11361">
        <ele>187.10059</ele>
        <time>2026-05-18T13:30:41+02:00</time>
      </trkpt>
      <trkpt lat="48.8031" lon="6.11369">
        <ele>186.90039</ele>
        <time>2026-05-18T13:30:42+02:00</time>
      </trkpt>
      <trkpt lat="48.80312" lon="6.11377">
        <ele>186.7998</ele>
        <time>2026-05-18T13:30:43+02:00</time>
      </trkpt>
      <trkpt lat="48.80314" lon="6.11385">
        <ele>186.7002</ele>
        <time>2026-05-18T13:30:44+02:00</time>
      </trkpt>
      <trkpt lat="48.80316" lon="6.11393">
        <ele>186.60059</ele>
        <time>2026-05-18T13:30:45+02:00</time>
      </trkpt>
      <trkpt lat="48.80317" lon="6.11401">
        <ele>186.40039</ele>
        <time>2026-05-18T13:30:46+02:00</time>
      </trkpt>
      <trkpt lat="48.80318" lon="6.11409">
        <ele>186.40039</ele>
        <time>2026-05-18T13:30:47+02:00</time>
      </trkpt>
      <trkpt lat="48.80319" lon="6.11417">
        <ele>186.2998</ele>
        <time>2026-05-18T13:30:48+02:00</time>
      </trkpt>
      <trkpt lat="48.8032" lon="6.11425">
        <ele>186.2998</ele>
        <time>2026-05-18T13:30:49+02:00</time>
      </trkpt>
      <trkpt lat="48.80322" lon="6.11432">
        <ele>186.2998</ele>
        <time>2026-05-18T13:30:50+02:00</time>
      </trkpt>
      <trkpt lat="48.80323" lon="6.1144">
        <ele>186.2998</ele>
        <time>2026-05-18T13:30:51+02:00</time>
      </trkpt>
      <trkpt lat="48.80325" lon="6.11447">
        <ele>186.2998</ele>
        <time>2026-05-18T13:30:52+02:00</time>
      </trkpt>
      <trkpt lat="48.80327" lon="6.11454">
        <ele>186.2998</ele>
        <time>2026-05-18T13:30:53+02:00</time>
      </trkpt>
      <trkpt lat="48.80329" lon="6.1146">
        <ele>186.2998</ele>
        <time>2026-05-18T13:30:54+02:00</time>
      </trkpt>
      <trkpt lat="48.80333" lon="6.11466">
        <ele>186.2998</ele>
        <time>2026-05-18T13:30:55+02:00</time>
      </trkpt>
      <trkpt lat="48.80336" lon="6.11471">
        <ele>186.2998</ele>
        <time>2026-05-18T13:30:56+02:00</time>
      </trkpt>
      <trkpt lat="48.8034" lon="6.11476">
        <ele>186.40039</ele>
        <time>2026-05-18T13:30:57+02:00</time>
      </trkpt>
      <trkpt lat="48.80344" lon="6.1148">
        <ele>186.40039</ele>
        <time>2026-05-18T13:30:58+02:00</time>
      </trkpt>
      <trkpt lat="48.80348" lon="6.11485">
        <ele>186.60059</ele>
        <time>2026-05-18T13:30:59+02:00</time>
      </trkpt>
      <trkpt lat="48.80353" lon="6.11489">
        <ele>186.60059</ele>
        <time>2026-05-18T13:31:00+02:00</time>
      </trkpt>
      <trkpt lat="48.80356" lon="6.11494">
        <ele>186.7002</ele>
        <time>2026-05-18T13:31:01+02:00</time>
      </trkpt>
      <trkpt lat="48.8036" lon="6.115">
        <ele>186.7998</ele>
        <time>2026-05-18T13:31:02+02:00</time>
      </trkpt>
      <trkpt lat="48.80363" lon="6.11506">
        <ele>186.90039</ele>
        <time>2026-05-18T13:31:03+02:00</time>
      </trkpt>
      <trkpt lat="48.80366" lon="6.11513">
        <ele>187.10059</ele>
        <time>2026-05-18T13:31:04+02:00</time>
      </trkpt>
      <trkpt lat="48.80369" lon="6.11519">
        <ele>187.2998</ele>
        <time>2026-05-18T13:31:05+02:00</time>
      </trkpt>
      <trkpt lat="48.80372" lon="6.11526">
        <ele>187.2998</ele>
        <time>2026-05-18T13:31:06+02:00</time>
      </trkpt>
      <trkpt lat="48.80374" lon="6.11533">
        <ele>187.5</ele>
        <time>2026-05-18T13:31:07+02:00</time>
      </trkpt>
      <trkpt lat="48.80377" lon="6.1154">
        <ele>187.60059</ele>
        <time>2026-05-18T13:31:08+02:00</time>
      </trkpt>
      <trkpt lat="48.8038" lon="6.11547">
        <ele>187.7002</ele>
        <time>2026-05-18T13:31:09+02:00</time>
      </trkpt>
      <trkpt lat="48.80383" lon="6.11553">
        <ele>187.7002</ele>
        <time>2026-05-18T13:31:10+02:00</time>
      </trkpt>
      <trkpt lat="48.80386" lon="6.1156">
        <ele>187.7002</ele>
        <time>2026-05-18T13:31:11+02:00</time>
      </trkpt>
      <trkpt lat="48.80388" lon="6.11567">
        <ele>187.7002</ele>
        <time>2026-05-18T13:31:12+02:00</time>
      </trkpt>
      <trkpt lat="48.80391" lon="6.11573">
        <ele>187.7998</ele>
        <time>2026-05-18T13:31:13+02:00</time>
      </trkpt>
      <trkpt lat="48.80394" lon="6.11579">
        <ele>187.7998</ele>
        <time>2026-05-18T13:31:14+02:00</time>
      </trkpt>
      <trkpt lat="48.80396" lon="6.11585">
        <ele>187.7998</ele>
        <time>2026-05-18T13:31:15+02:00</time>
      </trkpt>
      <trkpt lat="48.80399" lon="6.1159">
        <ele>187.7998</ele>
        <time>2026-05-18T13:31:16+02:00</time>
      </trkpt>
      <trkpt lat="48.80401" lon="6.11595">
        <ele>187.7998</ele>
        <time>2026-05-18T13:31:17+02:00</time>
      </trkpt>
      <trkpt lat="48.80404" lon="6.11601">
        <ele>187.7998</ele>
        <time>2026-05-18T13:31:18+02:00</time>
      </trkpt>
      <trkpt lat="48.80407" lon="6.11606">
        <ele>187.7998</ele>
        <time>2026-05-18T13:31:19+02:00</time>
      </trkpt>
      <trkpt lat="48.8041" lon="6.11612">
        <ele>187.7998</ele>
        <time>2026-05-18T13:31:20+02:00</time>
      </trkpt>
      <trkpt lat="48.80412" lon="6.11617">
        <ele>187.7998</ele>
        <time>2026-05-18T13:31:21+02:00</time>
      </trkpt>
      <trkpt lat="48.80415" lon="6.11622">
        <ele>187.90039</ele>
        <time>2026-05-18T13:31:22+02:00</time>
      </trkpt>
      <trkpt lat="48.80419" lon="6.11627">
        <ele>187.90039</ele>
        <time>2026-05-18T13:31:23+02:00</time>
      </trkpt>
      <trkpt lat="48.80422" lon="6.11632">
        <ele>187.90039</ele>
        <time>2026-05-18T13:31:24+02:00</time>
      </trkpt>
      <trkpt lat="48.80425" lon="6.11637">
        <ele>187.90039</ele>
        <time>2026-05-18T13:31:25+02:00</time>
      </trkpt>
      <trkpt lat="48.80428" lon="6.11642">
        <ele>187.90039</ele>
        <time>2026-05-18T13:31:26+02:00</time>
      </trkpt>
      <trkpt lat="48.80431" lon="6.11647">
        <ele>188</ele>
        <time>2026-05-18T13:31:27+02:00</time>
      </trkpt>
      <trkpt lat="48.80432" lon="6.11653">
        <ele>187.90039</ele>
        <time>2026-05-18T13:31:28+02:00</time>
      </trkpt>
      <trkpt lat="48.80432" lon="6.11658">
        <ele>187.90039</ele>
        <time>2026-05-18T13:31:29+02:00</time>
      </trkpt>
      <trkpt lat="48.80432" lon="6.11663">
        <ele>187.90039</ele>
        <time>2026-05-18T13:31:30+02:00</time>
      </trkpt>
      <trkpt lat="48.80433" lon="6.11667">
        <ele>188</ele>
        <time>2026-05-18T13:31:31+02:00</time>
      </trkpt>
      <trkpt lat="48.80435" lon="6.11671">
        <ele>188</ele>
        <time>2026-05-18T13:31:32+02:00</time>
      </trkpt>
      <trkpt lat="48.80438" lon="6.11674">
        <ele>187.90039</ele>
        <time>2026-05-18T13:31:33+02:00</time>
      </trkpt>
      <trkpt lat="48.80442" lon="6.11678">
        <ele>187.90039</ele>
        <time>2026-05-18T13:31:34+02:00</time>
      </trkpt>
      <trkpt lat="48.80446" lon="6.11682">
        <ele>187.90039</ele>
        <time>2026-05-18T13:31:35+02:00</time>
      </trkpt>
      <trkpt lat="48.8045" lon="6.11686">
        <ele>187.7998</ele>
        <time>2026-05-18T13:31:36+02:00</time>
      </trkpt>
      <trkpt lat="48.80454" lon="6.1169">
        <ele>187.7998</ele>
        <time>2026-05-18T13:31:37+02:00</time>
      </trkpt>
      <trkpt lat="48.80458" lon="6.11694">
        <ele>187.7998</ele>
        <time>2026-05-18T13:31:38+02:00</time>
      </trkpt>
      <trkpt lat="48.80462" lon="6.11699">
        <ele>187.7998</ele>
        <time>2026-05-18T13:31:39+02:00</time>
      </trkpt>
      <trkpt lat="48.80467" lon="6.11704">
        <ele>187.7998</ele>
        <time>2026-05-18T13:31:40+02:00</time>
      </trkpt>
      <trkpt lat="48.80472" lon="6.11709">
        <ele>187.90039</ele>
        <time>2026-05-18T13:31:41+02:00</time>
      </trkpt>
      <trkpt lat="48.80476" lon="6.11714">
        <ele>187.90039</ele>
        <time>2026-05-18T13:31:42+02:00</time>
      </trkpt>
      <trkpt lat="48.80481" lon="6.1172">
        <ele>187.90039</ele>
        <time>2026-05-18T13:31:43+02:00</time>
      </trkpt>
      <trkpt lat="48.80485" lon="6.11726">
        <ele>188</ele>
        <time>2026-05-18T13:31:44+02:00</time>
      </trkpt>
      <trkpt lat="48.80489" lon="6.11732">
        <ele>188</ele>
        <time>2026-05-18T13:31:45+02:00</time>
      </trkpt>
      <trkpt lat="48.80494" lon="6.11738">
        <ele>188</ele>
        <time>2026-05-18T13:31:46+02:00</time>
      </trkpt>
      <trkpt lat="48.80498" lon="6.11744">
        <ele>188.10059</ele>
        <time>2026-05-18T13:31:47+02:00</time>
      </trkpt>
      <trkpt lat="48.80502" lon="6.1175">
        <ele>188.10059</ele>
        <time>2026-05-18T13:31:48+02:00</time>
      </trkpt>
      <trkpt lat="48.80507" lon="6.11756">
        <ele>188.10059</ele>
        <time>2026-05-18T13:31:49+02:00</time>
      </trkpt>
      <trkpt lat="48.8051" lon="6.11762">
        <ele>188.10059</ele>
        <time>2026-05-18T13:31:50+02:00</time>
      </trkpt>
      <trkpt lat="48.80515" lon="6.11769">
        <ele>188</ele>
        <time>2026-05-18T13:31:51+02:00</time>
      </trkpt>
      <trkpt lat="48.80519" lon="6.11775">
        <ele>188</ele>
        <time>2026-05-18T13:31:52+02:00</time>
      </trkpt>
      <trkpt lat="48.80523" lon="6.11782">
        <ele>187.90039</ele>
        <time>2026-05-18T13:31:53+02:00</time>
      </trkpt>
      <trkpt lat="48.80528" lon="6.11788">
        <ele>187.7998</ele>
        <time>2026-05-18T13:31:54+02:00</time>
      </trkpt>
      <trkpt lat="48.80532" lon="6.11795">
        <ele>187.7002</ele>
        <time>2026-05-18T13:31:55+02:00</time>
      </trkpt>
      <trkpt lat="48.80536" lon="6.11802">
        <ele>187.60059</ele>
        <time>2026-05-18T13:31:56+02:00</time>
      </trkpt>
      <trkpt lat="48.80541" lon="6.11808">
        <ele>187.60059</ele>
        <time>2026-05-18T13:31:57+02:00</time>
      </trkpt>
      <trkpt lat="48.80545" lon="6.11815">
        <ele>187.60059</ele>
        <time>2026-05-18T13:31:58+02:00</time>
      </trkpt>
      <trkpt lat="48.8055" lon="6.11822">
        <ele>187.5</ele>
        <time>2026-05-18T13:31:59+02:00</time>
      </trkpt>
      <trkpt lat="48.80554" lon="6.11829">
        <ele>187.40039</ele>
        <time>2026-05-18T13:32:00+02:00</time>
      </trkpt>
      <trkpt lat="48.80559" lon="6.11835">
        <ele>187.40039</ele>
        <time>2026-05-18T13:32:01+02:00</time>
      </trkpt>
      <trkpt lat="48.80563" lon="6.11842">
        <ele>187.2998</ele>
        <time>2026-05-18T13:32:02+02:00</time>
      </trkpt>
      <trkpt lat="48.80567" lon="6.11849">
        <ele>187.2998</ele>
        <time>2026-05-18T13:32:03+02:00</time>
      </trkpt>
      <trkpt lat="48.80571" lon="6.11855">
        <ele>187.2998</ele>
        <time>2026-05-18T13:32:04+02:00</time>
      </trkpt>
      <trkpt lat="48.80576" lon="6.11861">
        <ele>187.2998</ele>
        <time>2026-05-18T13:32:05+02:00</time>
      </trkpt>
      <trkpt lat="48.8058" lon="6.11867">
        <ele>187.2002</ele>
        <time>2026-05-18T13:32:06+02:00</time>
      </trkpt>
      <trkpt lat="48.80583" lon="6.11873">
        <ele>187.2002</ele>
        <time>2026-05-18T13:32:07+02:00</time>
      </trkpt>
      <trkpt lat="48.80587" lon="6.11878">
        <ele>187.2002</ele>
        <time>2026-05-18T13:32:08+02:00</time>
      </trkpt>
      <trkpt lat="48.80591" lon="6.11884">
        <ele>187.2002</ele>
        <time>2026-05-18T13:32:09+02:00</time>
      </trkpt>
      <trkpt lat="48.80594" lon="6.1189">
        <ele>187.2998</ele>
        <time>2026-05-18T13:32:10+02:00</time>
      </trkpt>
      <trkpt lat="48.80598" lon="6.11896">
        <ele>187.2998</ele>
        <time>2026-05-18T13:32:11+02:00</time>
      </trkpt>
      <trkpt lat="48.80602" lon="6.11901">
        <ele>187.2998</ele>
        <time>2026-05-18T13:32:12+02:00</time>
      </trkpt>
      <trkpt lat="48.80605" lon="6.11907">
        <ele>187.40039</ele>
        <time>2026-05-18T13:32:13+02:00</time>
      </trkpt>
      <trkpt lat="48.80609" lon="6.11913">
        <ele>187.40039</ele>
        <time>2026-05-18T13:32:14+02:00</time>
      </trkpt>
      <trkpt lat="48.80612" lon="6.11919">
        <ele>187.40039</ele>
        <time>2026-05-18T13:32:15+02:00</time>
      </trkpt>
      <trkpt lat="48.80616" lon="6.11925">
        <ele>187.5</ele>
        <time>2026-05-18T13:32:16+02:00</time>
      </trkpt>
      <trkpt lat="48.80619" lon="6.11931">
        <ele>187.60059</ele>
        <time>2026-05-18T13:32:17+02:00</time>
      </trkpt>
      <trkpt lat="48.80622" lon="6.11937">
        <ele>187.60059</ele>
        <time>2026-05-18T13:32:18+02:00</time>
      </trkpt>
      <trkpt lat="48.80625" lon="6.11943">
        <ele>187.7002</ele>
        <time>2026-05-18T13:32:19+02:00</time>
      </trkpt>
      <trkpt lat="48.80628" lon="6.11949">
        <ele>187.7998</ele>
        <time>2026-05-18T13:32:20+02:00</time>
      </trkpt>
      <trkpt lat="48.80631" lon="6.11955">
        <ele>187.7998</ele>
        <time>2026-05-18T13:32:21+02:00</time>
      </trkpt>
      <trkpt lat="48.80634" lon="6.11961">
        <ele>187.90039</ele>
        <time>2026-05-18T13:32:22+02:00</time>
      </trkpt>
      <trkpt lat="48.80637" lon="6.11967">
        <ele>188</ele>
        <time>2026-05-18T13:32:23+02:00</time>
      </trkpt>
      <trkpt lat="48.8064" lon="6.11973">
        <ele>188.10059</ele>
        <time>2026-05-18T13:32:24+02:00</time>
      </trkpt>
      <trkpt lat="48.80643" lon="6.11979">
        <ele>188.10059</ele>
        <time>2026-05-18T13:32:25+02:00</time>
      </trkpt>
      <trkpt lat="48.80646" lon="6.11985">
        <ele>188.10059</ele>
        <time>2026-05-18T13:32:26+02:00</time>
      </trkpt>
      <trkpt lat="48.80649" lon="6.11992">
        <ele>188.2002</ele>
        <time>2026-05-18T13:32:27+02:00</time>
      </trkpt>
      <trkpt lat="48.80652" lon="6.11997">
        <ele>188.2002</ele>
        <time>2026-05-18T13:32:28+02:00</time>
      </trkpt>
      <trkpt lat="48.80654" lon="6.12003">
        <ele>188.2002</ele>
        <time>2026-05-18T13:32:29+02:00</time>
      </trkpt>
      <trkpt lat="48.80657" lon="6.12009">
        <ele>188.2002</ele>
        <time>2026-05-18T13:32:30+02:00</time>
      </trkpt>
      <trkpt lat="48.8066" lon="6.12015">
        <ele>188.2002</ele>
        <time>2026-05-18T13:32:31+02:00</time>
      </trkpt>
      <trkpt lat="48.80663" lon="6.12021">
        <ele>188.10059</ele>
        <time>2026-05-18T13:32:32+02:00</time>
      </trkpt>
      <trkpt lat="48.80665" lon="6.12027">
        <ele>188.10059</ele>
        <time>2026-05-18T13:32:33+02:00</time>
      </trkpt>
      <trkpt lat="48.80668" lon="6.12033">
        <ele>188</ele>
        <time>2026-05-18T13:32:34+02:00</time>
      </trkpt>
      <trkpt lat="48.80671" lon="6.12038">
        <ele>188</ele>
        <time>2026-05-18T13:32:35+02:00</time>
      </trkpt>
      <trkpt lat="48.80674" lon="6.12043">
        <ele>187.90039</ele>
        <time>2026-05-18T13:32:36+02:00</time>
      </trkpt>
      <trkpt lat="48.80679" lon="6.12046">
        <ele>188</ele>
        <time>2026-05-18T13:32:37+02:00</time>
      </trkpt>
      <trkpt lat="48.80683" lon="6.12046">
        <ele>188</ele>
        <time>2026-05-18T13:32:38+02:00</time>
      </trkpt>
      <trkpt lat="48.80688" lon="6.12044">
        <ele>188.10059</ele>
        <time>2026-05-18T13:32:39+02:00</time>
      </trkpt>
      <trkpt lat="48.80692" lon="6.12041">
        <ele>188.2002</ele>
        <time>2026-05-18T13:32:40+02:00</time>
      </trkpt>
      <trkpt lat="48.80695" lon="6.12037">
        <ele>188.2998</ele>
        <time>2026-05-18T13:32:41+02:00</time>
      </trkpt>
      <trkpt lat="48.80698" lon="6.12035">
        <ele>188.2998</ele>
        <time>2026-05-18T13:32:42+02:00</time>
      </trkpt>
      <trkpt lat="48.80701" lon="6.12036">
        <ele>188.2998</ele>
        <time>2026-05-18T13:32:43+02:00</time>
      </trkpt>
      <trkpt lat="48.80703" lon="6.1204">
        <ele>188.2998</ele>
        <time>2026-05-18T13:32:44+02:00</time>
      </trkpt>
      <trkpt lat="48.80705" lon="6.12044">
        <ele>188.2998</ele>
        <time>2026-05-18T13:32:45+02:00</time>
      </trkpt>
      <trkpt lat="48.80708" lon="6.12048">
        <ele>188.2998</ele>
        <time>2026-05-18T13:32:46+02:00</time>
      </trkpt>
      <trkpt lat="48.8071" lon="6.12053">
        <ele>188.2002</ele>
        <time>2026-05-18T13:32:47+02:00</time>
      </trkpt>
      <trkpt lat="48.80713" lon="6.12059">
        <ele>188.10059</ele>
        <time>2026-05-18T13:32:48+02:00</time>
      </trkpt>
      <trkpt lat="48.80716" lon="6.12064">
        <ele>188.2002</ele>
        <time>2026-05-18T13:32:49+02:00</time>
      </trkpt>
      <trkpt lat="48.8072" lon="6.1207">
        <ele>188.10059</ele>
        <time>2026-05-18T13:32:50+02:00</time>
      </trkpt>
      <trkpt lat="48.80723" lon="6.12077">
        <ele>188.10059</ele>
        <time>2026-05-18T13:32:51+02:00</time>
      </trkpt>
      <trkpt lat="48.80726" lon="6.12084">
        <ele>188.10059</ele>
        <time>2026-05-18T13:32:52+02:00</time>
      </trkpt>
      <trkpt lat="48.80728" lon="6.12091">
        <ele>188.10059</ele>
        <time>2026-05-18T13:32:53+02:00</time>
      </trkpt>
      <trkpt lat="48.80731" lon="6.12099">
        <ele>188</ele>
        <time>2026-05-18T13:32:54+02:00</time>
      </trkpt>
      <trkpt lat="48.80734" lon="6.12106">
        <ele>188</ele>
        <time>2026-05-18T13:32:55+02:00</time>
      </trkpt>
      <trkpt lat="48.80737" lon="6.12114">
        <ele>188</ele>
        <time>2026-05-18T13:32:56+02:00</time>
      </trkpt>
      <trkpt lat="48.8074" lon="6.12121">
        <ele>188</ele>
        <time>2026-05-18T13:32:57+02:00</time>
      </trkpt>
      <trkpt lat="48.80743" lon="6.12128">
        <ele>188.10059</ele>
        <time>2026-05-18T13:32:58+02:00</time>
      </trkpt>
      <trkpt lat="48.80747" lon="6.12135">
        <ele>188.10059</ele>
        <time>2026-05-18T13:32:59+02:00</time>
      </trkpt>
      <trkpt lat="48.8075" lon="6.12143">
        <ele>188.10059</ele>
        <time>2026-05-18T13:33:00+02:00</time>
      </trkpt>
      <trkpt lat="48.80755" lon="6.1215">
        <ele>188</ele>
        <time>2026-05-18T13:33:01+02:00</time>
      </trkpt>
      <trkpt lat="48.80758" lon="6.12157">
        <ele>188</ele>
        <time>2026-05-18T13:33:02+02:00</time>
      </trkpt>
      <trkpt lat="48.80762" lon="6.12165">
        <ele>187.90039</ele>
        <time>2026-05-18T13:33:03+02:00</time>
      </trkpt>
      <trkpt lat="48.80765" lon="6.12172">
        <ele>187.90039</ele>
        <time>2026-05-18T13:33:04+02:00</time>
      </trkpt>
      <trkpt lat="48.80769" lon="6.12179">
        <ele>187.7998</ele>
        <time>2026-05-18T13:33:05+02:00</time>
      </trkpt>
      <trkpt lat="48.80773" lon="6.12186">
        <ele>187.7998</ele>
        <time>2026-05-18T13:33:06+02:00</time>
      </trkpt>
      <trkpt lat="48.80776" lon="6.12193">
        <ele>187.7002</ele>
        <time>2026-05-18T13:33:07+02:00</time>
      </trkpt>
      <trkpt lat="48.80779" lon="6.122">
        <ele>187.7002</ele>
        <time>2026-05-18T13:33:08+02:00</time>
      </trkpt>
      <trkpt lat="48.80783" lon="6.12206">
        <ele>187.60059</ele>
        <time>2026-05-18T13:33:09+02:00</time>
      </trkpt>
      <trkpt lat="48.80787" lon="6.12212">
        <ele>187.60059</ele>
        <time>2026-05-18T13:33:10+02:00</time>
      </trkpt>
      <trkpt lat="48.80791" lon="6.12219">
        <ele>187.5</ele>
        <time>2026-05-18T13:33:11+02:00</time>
      </trkpt>
      <trkpt lat="48.80795" lon="6.12225">
        <ele>187.5</ele>
        <time>2026-05-18T13:33:12+02:00</time>
      </trkpt>
      <trkpt lat="48.80798" lon="6.12232">
        <ele>187.5</ele>
        <time>2026-05-18T13:33:13+02:00</time>
      </trkpt>
      <trkpt lat="48.80802" lon="6.12239">
        <ele>187.5</ele>
        <time>2026-05-18T13:33:14+02:00</time>
      </trkpt>
      <trkpt lat="48.80805" lon="6.12246">
        <ele>187.5</ele>
        <time>2026-05-18T13:33:15+02:00</time>
      </trkpt>
      <trkpt lat="48.80808" lon="6.12253">
        <ele>187.60059</ele>
        <time>2026-05-18T13:33:16+02:00</time>
      </trkpt>
      <trkpt lat="48.80811" lon="6.1226">
        <ele>187.60059</ele>
        <time>2026-05-18T13:33:17+02:00</time>
      </trkpt>
      <trkpt lat="48.80815" lon="6.12268">
        <ele>187.7998</ele>
        <time>2026-05-18T13:33:18+02:00</time>
      </trkpt>
      <trkpt lat="48.80818" lon="6.12275">
        <ele>187.90039</ele>
        <time>2026-05-18T13:33:19+02:00</time>
      </trkpt>
      <trkpt lat="48.80821" lon="6.12282">
        <ele>188.10059</ele>
        <time>2026-05-18T13:33:20+02:00</time>
      </trkpt>
      <trkpt lat="48.80825" lon="6.12288">
        <ele>188</ele>
        <time>2026-05-18T13:33:21+02:00</time>
      </trkpt>
      <trkpt lat="48.80828" lon="6.12294">
        <ele>188.10059</ele>
        <time>2026-05-18T13:33:22+02:00</time>
      </trkpt>
      <trkpt lat="48.80832" lon="6.123">
        <ele>188.2002</ele>
        <time>2026-05-18T13:33:23+02:00</time>
      </trkpt>
      <trkpt lat="48.80835" lon="6.12307">
        <ele>188.2002</ele>
        <time>2026-05-18T13:33:24+02:00</time>
      </trkpt>
      <trkpt lat="48.80839" lon="6.12313">
        <ele>188.2002</ele>
        <time>2026-05-18T13:33:25+02:00</time>
      </trkpt>
      <trkpt lat="48.80843" lon="6.12319">
        <ele>188.2998</ele>
        <time>2026-05-18T13:33:26+02:00</time>
      </trkpt>
      <trkpt lat="48.80846" lon="6.12324">
        <ele>188.2002</ele>
        <time>2026-05-18T13:33:27+02:00</time>
      </trkpt>
      <trkpt lat="48.8085" lon="6.1233">
        <ele>188.2998</ele>
        <time>2026-05-18T13:33:28+02:00</time>
      </trkpt>
      <trkpt lat="48.80853" lon="6.12336">
        <ele>188.2002</ele>
        <time>2026-05-18T13:33:29+02:00</time>
      </trkpt>
      <trkpt lat="48.80856" lon="6.12342">
        <ele>188.10059</ele>
        <time>2026-05-18T13:33:30+02:00</time>
      </trkpt>
      <trkpt lat="48.8086" lon="6.12347">
        <ele>188.10059</ele>
        <time>2026-05-18T13:33:31+02:00</time>
      </trkpt>
      <trkpt lat="48.80863" lon="6.12353">
        <ele>188</ele>
        <time>2026-05-18T13:33:32+02:00</time>
      </trkpt>
      <trkpt lat="48.80867" lon="6.12358">
        <ele>188</ele>
        <time>2026-05-18T13:33:33+02:00</time>
      </trkpt>
      <trkpt lat="48.80871" lon="6.12363">
        <ele>187.90039</ele>
        <time>2026-05-18T13:33:34+02:00</time>
      </trkpt>
      <trkpt lat="48.80874" lon="6.12369">
        <ele>187.7998</ele>
        <time>2026-05-18T13:33:35+02:00</time>
      </trkpt>
      <trkpt lat="48.80878" lon="6.12374">
        <ele>187.7998</ele>
        <time>2026-05-18T13:33:36+02:00</time>
      </trkpt>
      <trkpt lat="48.80881" lon="6.12378">
        <ele>187.7002</ele>
        <time>2026-05-18T13:33:37+02:00</time>
      </trkpt>
      <trkpt lat="48.80884" lon="6.12384">
        <ele>187.7002</ele>
        <time>2026-05-18T13:33:38+02:00</time>
      </trkpt>
      <trkpt lat="48.80888" lon="6.12389">
        <ele>187.60059</ele>
        <time>2026-05-18T13:33:39+02:00</time>
      </trkpt>
      <trkpt lat="48.80891" lon="6.12395">
        <ele>187.7002</ele>
        <time>2026-05-18T13:33:40+02:00</time>
      </trkpt>
      <trkpt lat="48.80894" lon="6.12401">
        <ele>187.7002</ele>
        <time>2026-05-18T13:33:41+02:00</time>
      </trkpt>
      <trkpt lat="48.80897" lon="6.12407">
        <ele>187.7998</ele>
        <time>2026-05-18T13:33:42+02:00</time>
      </trkpt>
      <trkpt lat="48.80901" lon="6.12413">
        <ele>188.10059</ele>
        <time>2026-05-18T13:33:43+02:00</time>
      </trkpt>
      <trkpt lat="48.80904" lon="6.12419">
        <ele>188</ele>
        <time>2026-05-18T13:33:44+02:00</time>
      </trkpt>
      <trkpt lat="48.80908" lon="6.12426">
        <ele>188.2998</ele>
        <time>2026-05-18T13:33:45+02:00</time>
      </trkpt>
      <trkpt lat="48.80911" lon="6.12431">
        <ele>188.7002</ele>
        <time>2026-05-18T13:33:46+02:00</time>
      </trkpt>
      <trkpt lat="48.80914" lon="6.12437">
        <ele>189.10059</ele>
        <time>2026-05-18T13:33:47+02:00</time>
      </trkpt>
      <trkpt lat="48.80918" lon="6.12442">
        <ele>189</ele>
        <time>2026-05-18T13:33:48+02:00</time>
      </trkpt>
      <trkpt lat="48.80921" lon="6.12448">
        <ele>189.5</ele>
        <time>2026-05-18T13:33:49+02:00</time>
      </trkpt>
      <trkpt lat="48.80924" lon="6.12453">
        <ele>189.40039</ele>
        <time>2026-05-18T13:33:50+02:00</time>
      </trkpt>
      <trkpt lat="48.80928" lon="6.12458">
        <ele>189.90039</ele>
        <time>2026-05-18T13:33:51+02:00</time>
      </trkpt>
      <trkpt lat="48.80931" lon="6.12463">
        <ele>190.2998</ele>
        <time>2026-05-18T13:33:52+02:00</time>
      </trkpt>
      <trkpt lat="48.80935" lon="6.12467">
        <ele>190.2998</ele>
        <time>2026-05-18T13:33:53+02:00</time>
      </trkpt>
      <trkpt lat="48.80938" lon="6.12472">
        <ele>190.7002</ele>
        <time>2026-05-18T13:33:54+02:00</time>
      </trkpt>
      <trkpt lat="48.80942" lon="6.12477">
        <ele>190.7002</ele>
        <time>2026-05-18T13:33:55+02:00</time>
      </trkpt>
      <trkpt lat="48.80945" lon="6.12481">
        <ele>191.2002</ele>
        <time>2026-05-18T13:33:56+02:00</time>
      </trkpt>
      <trkpt lat="48.80948" lon="6.12485">
        <ele>191.10059</ele>
        <time>2026-05-18T13:33:57+02:00</time>
      </trkpt>
      <trkpt lat="48.80951" lon="6.12489">
        <ele>191.60059</ele>
        <time>2026-05-18T13:33:58+02:00</time>
      </trkpt>
      <trkpt lat="48.80954" lon="6.12493">
        <ele>191.5</ele>
        <time>2026-05-18T13:33:59+02:00</time>
      </trkpt>
      <trkpt lat="48.80957" lon="6.12496">
        <ele>191.5</ele>
        <time>2026-05-18T13:34:00+02:00</time>
      </trkpt>
      <trkpt lat="48.8096" lon="6.12499">
        <ele>191.90039</ele>
        <time>2026-05-18T13:34:01+02:00</time>
      </trkpt>
      <trkpt lat="48.80963" lon="6.12503">
        <ele>191.90039</ele>
        <time>2026-05-18T13:34:02+02:00</time>
      </trkpt>
      <trkpt lat="48.80966" lon="6.12507">
        <ele>192.40039</ele>
        <time>2026-05-18T13:34:03+02:00</time>
      </trkpt>
      <trkpt lat="48.80969" lon="6.12511">
        <ele>192.40039</ele>
        <time>2026-05-18T13:34:04+02:00</time>
      </trkpt>
      <trkpt lat="48.80972" lon="6.12514">
        <ele>192.7998</ele>
        <time>2026-05-18T13:34:05+02:00</time>
      </trkpt>
      <trkpt lat="48.80976" lon="6.12517">
        <ele>192.7998</ele>
        <time>2026-05-18T13:34:06+02:00</time>
      </trkpt>
      <trkpt lat="48.8098" lon="6.12519">
        <ele>192.7998</ele>
        <time>2026-05-18T13:34:07+02:00</time>
      </trkpt>
      <trkpt lat="48.80984" lon="6.12522">
        <ele>192.7002</ele>
        <time>2026-05-18T13:34:08+02:00</time>
      </trkpt>
      <trkpt lat="48.80988" lon="6.12524">
        <ele>193.2002</ele>
        <time>2026-05-18T13:34:09+02:00</time>
      </trkpt>
      <trkpt lat="48.80991" lon="6.12527">
        <ele>193.2002</ele>
        <time>2026-05-18T13:34:10+02:00</time>
      </trkpt>
      <trkpt lat="48.80996" lon="6.12529">
        <ele>193.10059</ele>
        <time>2026-05-18T13:34:11+02:00</time>
      </trkpt>
      <trkpt lat="48.81" lon="6.12532">
        <ele>193.5</ele>
        <time>2026-05-18T13:34:12+02:00</time>
      </trkpt>
      <trkpt lat="48.81004" lon="6.12534">
        <ele>193.40039</ele>
        <time>2026-05-18T13:34:13+02:00</time>
      </trkpt>
      <trkpt lat="48.81009" lon="6.12536">
        <ele>193.2998</ele>
        <time>2026-05-18T13:34:14+02:00</time>
      </trkpt>
      <trkpt lat="48.81013" lon="6.12538">
        <ele>193.2998</ele>
        <time>2026-05-18T13:34:15+02:00</time>
      </trkpt>
      <trkpt lat="48.81017" lon="6.12541">
        <ele>193.7002</ele>
        <time>2026-05-18T13:34:16+02:00</time>
      </trkpt>
      <trkpt lat="48.81022" lon="6.12543">
        <ele>193.7002</ele>
        <time>2026-05-18T13:34:17+02:00</time>
      </trkpt>
      <trkpt lat="48.81027" lon="6.12545">
        <ele>193.60059</ele>
        <time>2026-05-18T13:34:18+02:00</time>
      </trkpt>
      <trkpt lat="48.81031" lon="6.12548">
        <ele>194.2002</ele>
        <time>2026-05-18T13:34:19+02:00</time>
      </trkpt>
      <trkpt lat="48.81036" lon="6.1255">
        <ele>194.10059</ele>
        <time>2026-05-18T13:34:20+02:00</time>
      </trkpt>
      <trkpt lat="48.8104" lon="6.12552">
        <ele>194</ele>
        <time>2026-05-18T13:34:21+02:00</time>
      </trkpt>
      <trkpt lat="48.81045" lon="6.12554">
        <ele>194</ele>
        <time>2026-05-18T13:34:22+02:00</time>
      </trkpt>
      <trkpt lat="48.81049" lon="6.12556">
        <ele>193.90039</ele>
        <time>2026-05-18T13:34:23+02:00</time>
      </trkpt>
      <trkpt lat="48.81054" lon="6.12559">
        <ele>194.2998</ele>
        <time>2026-05-18T13:34:24+02:00</time>
      </trkpt>
      <trkpt lat="48.81058" lon="6.12561">
        <ele>194.2998</ele>
        <time>2026-05-18T13:34:25+02:00</time>
      </trkpt>
      <trkpt lat="48.81063" lon="6.12563">
        <ele>194.2998</ele>
        <time>2026-05-18T13:34:26+02:00</time>
      </trkpt>
      <trkpt lat="48.81067" lon="6.12566">
        <ele>194.7998</ele>
        <time>2026-05-18T13:34:27+02:00</time>
      </trkpt>
      <trkpt lat="48.81072" lon="6.12568">
        <ele>194.7998</ele>
        <time>2026-05-18T13:34:28+02:00</time>
      </trkpt>
      <trkpt lat="48.81076" lon="6.12571">
        <ele>194.7998</ele>
        <time>2026-05-18T13:34:29+02:00</time>
      </trkpt>
      <trkpt lat="48.81081" lon="6.12574">
        <ele>195.2998</ele>
        <time>2026-05-18T13:34:30+02:00</time>
      </trkpt>
      <trkpt lat="48.81085" lon="6.12576">
        <ele>195.2998</ele>
        <time>2026-05-18T13:34:31+02:00</time>
      </trkpt>
      <trkpt lat="48.8109" lon="6.12579">
        <ele>195.2002</ele>
        <time>2026-05-18T13:34:32+02:00</time>
      </trkpt>
      <trkpt lat="48.81094" lon="6.12581">
        <ele>195.2002</ele>
        <time>2026-05-18T13:34:33+02:00</time>
      </trkpt>
      <trkpt lat="48.81099" lon="6.12584">
        <ele>195.7002</ele>
        <time>2026-05-18T13:34:34+02:00</time>
      </trkpt>
      <trkpt lat="48.81103" lon="6.12587">
        <ele>195.60059</ele>
        <time>2026-05-18T13:34:35+02:00</time>
      </trkpt>
      <trkpt lat="48.81107" lon="6.1259">
        <ele>195.5</ele>
        <time>2026-05-18T13:34:36+02:00</time>
      </trkpt>
      <trkpt lat="48.81112" lon="6.12592">
        <ele>195.90039</ele>
        <time>2026-05-18T13:34:37+02:00</time>
      </trkpt>
      <trkpt lat="48.81116" lon="6.12595">
        <ele>195.7002</ele>
        <time>2026-05-18T13:34:38+02:00</time>
      </trkpt>
      <trkpt lat="48.8112" lon="6.12598">
        <ele>195.7002</ele>
        <time>2026-05-18T13:34:39+02:00</time>
      </trkpt>
      <trkpt lat="48.81124" lon="6.12601">
        <ele>195.90039</ele>
        <time>2026-05-18T13:34:40+02:00</time>
      </trkpt>
      <trkpt lat="48.81128" lon="6.12604">
        <ele>195.60059</ele>
        <time>2026-05-18T13:34:41+02:00</time>
      </trkpt>
      <trkpt lat="48.81132" lon="6.12606">
        <ele>195.60059</ele>
        <time>2026-05-18T13:34:42+02:00</time>
      </trkpt>
      <trkpt lat="48.81136" lon="6.12608">
        <ele>195.7002</ele>
        <time>2026-05-18T13:34:43+02:00</time>
      </trkpt>
      <trkpt lat="48.81141" lon="6.12609">
        <ele>195.5</ele>
        <time>2026-05-18T13:34:44+02:00</time>
      </trkpt>
      <trkpt lat="48.81147" lon="6.12611">
        <ele>195.40039</ele>
        <time>2026-05-18T13:34:45+02:00</time>
      </trkpt>
      <trkpt lat="48.81152" lon="6.12613">
        <ele>195.2998</ele>
        <time>2026-05-18T13:34:46+02:00</time>
      </trkpt>
      <trkpt lat="48.81158" lon="6.12615">
        <ele>195.2002</ele>
        <time>2026-05-18T13:34:47+02:00</time>
      </trkpt>
      <trkpt lat="48.81164" lon="6.12617">
        <ele>195.10059</ele>
        <time>2026-05-18T13:34:48+02:00</time>
      </trkpt>
      <trkpt lat="48.8117" lon="6.12618">
        <ele>194.7002</ele>
        <time>2026-05-18T13:34:49+02:00</time>
      </trkpt>
      <trkpt lat="48.81176" lon="6.1262">
        <ele>194.2002</ele>
        <time>2026-05-18T13:34:50+02:00</time>
      </trkpt>
      <trkpt lat="48.81182" lon="6.1262">
        <ele>193.7002</ele>
        <time>2026-05-18T13:34:51+02:00</time>
      </trkpt>
      <trkpt lat="48.81188" lon="6.12621">
        <ele>193.2998</ele>
        <time>2026-05-18T13:34:52+02:00</time>
      </trkpt>
      <trkpt lat="48.81194" lon="6.12621">
        <ele>193.10059</ele>
        <time>2026-05-18T13:34:53+02:00</time>
      </trkpt>
      <trkpt lat="48.81201" lon="6.12622">
        <ele>192.60059</ele>
        <time>2026-05-18T13:34:54+02:00</time>
      </trkpt>
      <trkpt lat="48.81207" lon="6.12623">
        <ele>192.2998</ele>
        <time>2026-05-18T13:34:55+02:00</time>
      </trkpt>
      <trkpt lat="48.81214" lon="6.12623">
        <ele>191.90039</ele>
        <time>2026-05-18T13:34:56+02:00</time>
      </trkpt>
      <trkpt lat="48.81221" lon="6.12624">
        <ele>191.5</ele>
        <time>2026-05-18T13:34:57+02:00</time>
      </trkpt>
      <trkpt lat="48.81227" lon="6.12625">
        <ele>191.2002</ele>
        <time>2026-05-18T13:34:58+02:00</time>
      </trkpt>
      <trkpt lat="48.81234" lon="6.12626">
        <ele>192.2002</ele>
        <time>2026-05-18T13:34:59+02:00</time>
      </trkpt>
      <trkpt lat="48.81241" lon="6.12627">
        <ele>191.5</ele>
        <time>2026-05-18T13:35:00+02:00</time>
      </trkpt>
      <trkpt lat="48.81248" lon="6.12628">
        <ele>191.2002</ele>
        <time>2026-05-18T13:35:01+02:00</time>
      </trkpt>
      <trkpt lat="48.81255" lon="6.12629">
        <ele>191</ele>
        <time>2026-05-18T13:35:02+02:00</time>
      </trkpt>
      <trkpt lat="48.81261" lon="6.12631">
        <ele>190.7998</ele>
        <time>2026-05-18T13:35:03+02:00</time>
      </trkpt>
      <trkpt lat="48.81267" lon="6.12632">
        <ele>190.7002</ele>
        <time>2026-05-18T13:35:04+02:00</time>
      </trkpt>
      <trkpt lat="48.81274" lon="6.12635">
        <ele>191.60059</ele>
        <time>2026-05-18T13:35:05+02:00</time>
      </trkpt>
      <trkpt lat="48.81281" lon="6.12638">
        <ele>190.7002</ele>
        <time>2026-05-18T13:35:06+02:00</time>
      </trkpt>
      <trkpt lat="48.81287" lon="6.12641">
        <ele>189.90039</ele>
        <time>2026-05-18T13:35:07+02:00</time>
      </trkpt>
      <trkpt lat="48.81293" lon="6.12645">
        <ele>190.7002</ele>
        <time>2026-05-18T13:35:08+02:00</time>
      </trkpt>
      <trkpt lat="48.81299" lon="6.12649">
        <ele>190.2998</ele>
        <time>2026-05-18T13:35:09+02:00</time>
      </trkpt>
      <trkpt lat="48.81305" lon="6.12653">
        <ele>191.5</ele>
        <time>2026-05-18T13:35:10+02:00</time>
      </trkpt>
      <trkpt lat="48.81312" lon="6.12655">
        <ele>191.2998</ele>
        <time>2026-05-18T13:35:11+02:00</time>
      </trkpt>
      <trkpt lat="48.81318" lon="6.12658">
        <ele>190.90039</ele>
        <time>2026-05-18T13:35:12+02:00</time>
      </trkpt>
      <trkpt lat="48.81324" lon="6.12662">
        <ele>191.10059</ele>
        <time>2026-05-18T13:35:13+02:00</time>
      </trkpt>
      <trkpt lat="48.8133" lon="6.12666">
        <ele>190</ele>
        <time>2026-05-18T13:35:14+02:00</time>
      </trkpt>
      <trkpt lat="48.81336" lon="6.12669">
        <ele>189.7998</ele>
        <time>2026-05-18T13:35:15+02:00</time>
      </trkpt>
      <trkpt lat="48.81342" lon="6.12673">
        <ele>188.60059</ele>
        <time>2026-05-18T13:35:16+02:00</time>
      </trkpt>
      <trkpt lat="48.81349" lon="6.12676">
        <ele>187.7998</ele>
        <time>2026-05-18T13:35:17+02:00</time>
      </trkpt>
      <trkpt lat="48.81355" lon="6.12679">
        <ele>189.7002</ele>
        <time>2026-05-18T13:35:18+02:00</time>
      </trkpt>
      <trkpt lat="48.81362" lon="6.12682">
        <ele>189.60059</ele>
        <time>2026-05-18T13:35:19+02:00</time>
      </trkpt>
      <trkpt lat="48.81369" lon="6.12686">
        <ele>190.2002</ele>
        <time>2026-05-18T13:35:20+02:00</time>
      </trkpt>
      <trkpt lat="48.81376" lon="6.12689">
        <ele>189.7002</ele>
        <time>2026-05-18T13:35:21+02:00</time>
      </trkpt>
      <trkpt lat="48.81383" lon="6.12691">
        <ele>188.40039</ele>
        <time>2026-05-18T13:35:22+02:00</time>
      </trkpt>
      <trkpt lat="48.8139" lon="6.12694">
        <ele>188.7002</ele>
        <time>2026-05-18T13:35:23+02:00</time>
      </trkpt>
      <trkpt lat="48.81397" lon="6.12696">
        <ele>188.2002</ele>
        <time>2026-05-18T13:35:24+02:00</time>
      </trkpt>
      <trkpt lat="48.81404" lon="6.12698">
        <ele>187.7002</ele>
        <time>2026-05-18T13:35:25+02:00</time>
      </trkpt>
      <trkpt lat="48.8141" lon="6.127">
        <ele>187.2998</ele>
        <time>2026-05-18T13:35:26+02:00</time>
      </trkpt>
      <trkpt lat="48.81417" lon="6.12702">
        <ele>186.7002</ele>
        <time>2026-05-18T13:35:27+02:00</time>
      </trkpt>
      <trkpt lat="48.81423" lon="6.12705">
        <ele>188.2002</ele>
        <time>2026-05-18T13:35:28+02:00</time>
      </trkpt>
      <trkpt lat="48.81429" lon="6.12708">
        <ele>188.2002</ele>
        <time>2026-05-18T13:35:29+02:00</time>
      </trkpt>
      <trkpt lat="48.81436" lon="6.12711">
        <ele>189.40039</ele>
        <time>2026-05-18T13:35:30+02:00</time>
      </trkpt>
      <trkpt lat="48.81442" lon="6.12713">
        <ele>189.2998</ele>
        <time>2026-05-18T13:35:31+02:00</time>
      </trkpt>
      <trkpt lat="48.81448" lon="6.12714">
        <ele>189.2998</ele>
        <time>2026-05-18T13:35:32+02:00</time>
      </trkpt>
      <trkpt lat="48.81454" lon="6.12715">
        <ele>189.2998</ele>
        <time>2026-05-18T13:35:33+02:00</time>
      </trkpt>
      <trkpt lat="48.8146" lon="6.12715">
        <ele>189.2002</ele>
        <time>2026-05-18T13:35:34+02:00</time>
      </trkpt>
      <trkpt lat="48.81466" lon="6.12717">
        <ele>189.2002</ele>
        <time>2026-05-18T13:35:35+02:00</time>
      </trkpt>
      <trkpt lat="48.81472" lon="6.12719">
        <ele>189.10059</ele>
        <time>2026-05-18T13:35:36+02:00</time>
      </trkpt>
      <trkpt lat="48.81478" lon="6.1272">
        <ele>189.7998</ele>
        <time>2026-05-18T13:35:37+02:00</time>
      </trkpt>
      <trkpt lat="48.81484" lon="6.12722">
        <ele>189.7002</ele>
        <time>2026-05-18T13:35:38+02:00</time>
      </trkpt>
      <trkpt lat="48.81489" lon="6.12723">
        <ele>189.60059</ele>
        <time>2026-05-18T13:35:39+02:00</time>
      </trkpt>
      <trkpt lat="48.81495" lon="6.12724">
        <ele>189.60059</ele>
        <time>2026-05-18T13:35:40+02:00</time>
      </trkpt>
      <trkpt lat="48.815" lon="6.12725">
        <ele>189.60059</ele>
        <time>2026-05-18T13:35:41+02:00</time>
      </trkpt>
      <trkpt lat="48.81506" lon="6.12726">
        <ele>189.5</ele>
        <time>2026-05-18T13:35:42+02:00</time>
      </trkpt>
      <trkpt lat="48.81512" lon="6.12726">
        <ele>189.40039</ele>
        <time>2026-05-18T13:35:43+02:00</time>
      </trkpt>
      <trkpt lat="48.81518" lon="6.12725">
        <ele>189.40039</ele>
        <time>2026-05-18T13:35:44+02:00</time>
      </trkpt>
      <trkpt lat="48.81524" lon="6.12725">
        <ele>189.2998</ele>
        <time>2026-05-18T13:35:45+02:00</time>
      </trkpt>
      <trkpt lat="48.8153" lon="6.12724">
        <ele>189.2998</ele>
        <time>2026-05-18T13:35:46+02:00</time>
      </trkpt>
      <trkpt lat="48.81535" lon="6.12723">
        <ele>189.2002</ele>
        <time>2026-05-18T13:35:47+02:00</time>
      </trkpt>
      <trkpt lat="48.81541" lon="6.12722">
        <ele>189.2002</ele>
        <time>2026-05-18T13:35:48+02:00</time>
      </trkpt>
      <trkpt lat="48.81547" lon="6.12721">
        <ele>189.10059</ele>
        <time>2026-05-18T13:35:49+02:00</time>
      </trkpt>
      <trkpt lat="48.81552" lon="6.1272">
        <ele>189.2002</ele>
        <time>2026-05-18T13:35:50+02:00</time>
      </trkpt>
      <trkpt lat="48.81558" lon="6.12719">
        <ele>188</ele>
        <time>2026-05-18T13:35:51+02:00</time>
      </trkpt>
      <trkpt lat="48.81563" lon="6.12718">
        <ele>188</ele>
        <time>2026-05-18T13:35:52+02:00</time>
      </trkpt>
      <trkpt lat="48.81569" lon="6.12717">
        <ele>188</ele>
        <time>2026-05-18T13:35:53+02:00</time>
      </trkpt>
      <trkpt lat="48.81575" lon="6.12716">
        <ele>188</ele>
        <time>2026-05-18T13:35:54+02:00</time>
      </trkpt>
      <trkpt lat="48.8158" lon="6.12715">
        <ele>188</ele>
        <time>2026-05-18T13:35:55+02:00</time>
      </trkpt>
      <trkpt lat="48.81585" lon="6.12714">
        <ele>188</ele>
        <time>2026-05-18T13:35:56+02:00</time>
      </trkpt>
      <trkpt lat="48.81591" lon="6.12714">
        <ele>188</ele>
        <time>2026-05-18T13:35:57+02:00</time>
      </trkpt>
      <trkpt lat="48.81597" lon="6.12714">
        <ele>188</ele>
        <time>2026-05-18T13:35:58+02:00</time>
      </trkpt>
      <trkpt lat="48.81603" lon="6.12714">
        <ele>188</ele>
        <time>2026-05-18T13:35:59+02:00</time>
      </trkpt>
      <trkpt lat="48.81609" lon="6.12713">
        <ele>188</ele>
        <time>2026-05-18T13:36:00+02:00</time>
      </trkpt>
      <trkpt lat="48.81615" lon="6.12712">
        <ele>188</ele>
        <time>2026-05-18T13:36:01+02:00</time>
      </trkpt>
      <trkpt lat="48.8162" lon="6.12711">
        <ele>188</ele>
        <time>2026-05-18T13:36:02+02:00</time>
      </trkpt>
      <trkpt lat="48.81625" lon="6.1271">
        <ele>186.10059</ele>
        <time>2026-05-18T13:36:03+02:00</time>
      </trkpt>
      <trkpt lat="48.81631" lon="6.12709">
        <ele>186</ele>
        <time>2026-05-18T13:36:04+02:00</time>
      </trkpt>
      <trkpt lat="48.81637" lon="6.12708">
        <ele>185.90039</ele>
        <time>2026-05-18T13:36:05+02:00</time>
      </trkpt>
      <trkpt lat="48.81643" lon="6.12706">
        <ele>185.90039</ele>
        <time>2026-05-18T13:36:06+02:00</time>
      </trkpt>
      <trkpt lat="48.81649" lon="6.12704">
        <ele>185.7998</ele>
        <time>2026-05-18T13:36:07+02:00</time>
      </trkpt>
      <trkpt lat="48.81654" lon="6.12702">
        <ele>184.5</ele>
        <time>2026-05-18T13:36:08+02:00</time>
      </trkpt>
      <trkpt lat="48.81661" lon="6.12701">
        <ele>184.2998</ele>
        <time>2026-05-18T13:36:09+02:00</time>
      </trkpt>
      <trkpt lat="48.81666" lon="6.12701">
        <ele>184.2002</ele>
        <time>2026-05-18T13:36:10+02:00</time>
      </trkpt>
      <trkpt lat="48.81686" lon="6.12712">
        <ele>188.10059</ele>
        <time>2026-05-18T13:36:11+02:00</time>
      </trkpt>
      <trkpt lat="48.81691" lon="6.12714">
        <ele>188.10059</ele>
        <time>2026-05-18T13:36:12+02:00</time>
      </trkpt>
      <trkpt lat="48.81695" lon="6.12716">
        <ele>188.10059</ele>
        <time>2026-05-18T13:36:13+02:00</time>
      </trkpt>
      <trkpt lat="48.81699" lon="6.12717">
        <ele>188.10059</ele>
        <time>2026-05-18T13:36:14+02:00</time>
      </trkpt>
      <trkpt lat="48.81703" lon="6.1272">
        <ele>190.60059</ele>
        <time>2026-05-18T13:36:15+02:00</time>
      </trkpt>
      <trkpt lat="48.81706" lon="6.12723">
        <ele>190.5</ele>
        <time>2026-05-18T13:36:16+02:00</time>
      </trkpt>
      <trkpt lat="48.81709" lon="6.12725">
        <ele>190.5</ele>
        <time>2026-05-18T13:36:17+02:00</time>
      </trkpt>
      <trkpt lat="48.81714" lon="6.12726">
        <ele>190.40039</ele>
        <time>2026-05-18T13:36:18+02:00</time>
      </trkpt>
      <trkpt lat="48.81718" lon="6.12727">
        <ele>190.2002</ele>
        <time>2026-05-18T13:36:19+02:00</time>
      </trkpt>
      <trkpt lat="48.81723" lon="6.12726">
        <ele>190.10059</ele>
        <time>2026-05-18T13:36:20+02:00</time>
      </trkpt>
      <trkpt lat="48.81728" lon="6.12726">
        <ele>189.90039</ele>
        <time>2026-05-18T13:36:21+02:00</time>
      </trkpt>
      <trkpt lat="48.81733" lon="6.12725">
        <ele>189.7998</ele>
        <time>2026-05-18T13:36:22+02:00</time>
      </trkpt>
      <trkpt lat="48.81738" lon="6.12724">
        <ele>189.60059</ele>
        <time>2026-05-18T13:36:23+02:00</time>
      </trkpt>
      <trkpt lat="48.81744" lon="6.12724">
        <ele>189.5</ele>
        <time>2026-05-18T13:36:24+02:00</time>
      </trkpt>
      <trkpt lat="48.81749" lon="6.12723">
        <ele>189.40039</ele>
        <time>2026-05-18T13:36:25+02:00</time>
      </trkpt>
      <trkpt lat="48.81754" lon="6.12722">
        <ele>189.40039</ele>
        <time>2026-05-18T13:36:26+02:00</time>
      </trkpt>
      <trkpt lat="48.8176" lon="6.12722">
        <ele>189.2998</ele>
        <time>2026-05-18T13:36:27+02:00</time>
      </trkpt>
      <trkpt lat="48.81765" lon="6.12721">
        <ele>189.2998</ele>
        <time>2026-05-18T13:36:28+02:00</time>
      </trkpt>
      <trkpt lat="48.81771" lon="6.1272">
        <ele>189.2998</ele>
        <time>2026-05-18T13:36:29+02:00</time>
      </trkpt>
      <trkpt lat="48.81777" lon="6.12719">
        <ele>187.7002</ele>
        <time>2026-05-18T13:36:30+02:00</time>
      </trkpt>
      <trkpt lat="48.81782" lon="6.12718">
        <ele>187.90039</ele>
        <time>2026-05-18T13:36:31+02:00</time>
      </trkpt>
      <trkpt lat="48.81788" lon="6.12717">
        <ele>188.2002</ele>
        <time>2026-05-18T13:36:32+02:00</time>
      </trkpt>
      <trkpt lat="48.81793" lon="6.12715">
        <ele>188.40039</ele>
        <time>2026-05-18T13:36:33+02:00</time>
      </trkpt>
      <trkpt lat="48.81798" lon="6.12714">
        <ele>188.5</ele>
        <time>2026-05-18T13:36:34+02:00</time>
      </trkpt>
      <trkpt lat="48.81804" lon="6.12712">
        <ele>188.60059</ele>
        <time>2026-05-18T13:36:35+02:00</time>
      </trkpt>
      <trkpt lat="48.81809" lon="6.1271">
        <ele>188.2002</ele>
        <time>2026-05-18T13:36:36+02:00</time>
      </trkpt>
      <trkpt lat="48.81814" lon="6.12707">
        <ele>188.2998</ele>
        <time>2026-05-18T13:36:37+02:00</time>
      </trkpt>
      <trkpt lat="48.8182" lon="6.12705">
        <ele>188.40039</ele>
        <time>2026-05-18T13:36:38+02:00</time>
      </trkpt>
      <trkpt lat="48.81826" lon="6.12703">
        <ele>188.40039</ele>
        <time>2026-05-18T13:36:39+02:00</time>
      </trkpt>
      <trkpt lat="48.81831" lon="6.127">
        <ele>188.10059</ele>
        <time>2026-05-18T13:36:40+02:00</time>
      </trkpt>
      <trkpt lat="48.81836" lon="6.12697">
        <ele>188.10059</ele>
        <time>2026-05-18T13:36:41+02:00</time>
      </trkpt>
      <trkpt lat="48.81842" lon="6.12695">
        <ele>188.2998</ele>
        <time>2026-05-18T13:36:42+02:00</time>
      </trkpt>
      <trkpt lat="48.81848" lon="6.12692">
        <ele>188</ele>
        <time>2026-05-18T13:36:43+02:00</time>
      </trkpt>
      <trkpt lat="48.81853" lon="6.12688">
        <ele>188.2998</ele>
        <time>2026-05-18T13:36:44+02:00</time>
      </trkpt>
      <trkpt lat="48.81858" lon="6.12685">
        <ele>188.10059</ele>
        <time>2026-05-18T13:36:45+02:00</time>
      </trkpt>
      <trkpt lat="48.81864" lon="6.12681">
        <ele>188.2998</ele>
        <time>2026-05-18T13:36:46+02:00</time>
      </trkpt>
      <trkpt lat="48.81869" lon="6.12678">
        <ele>188.40039</ele>
        <time>2026-05-18T13:36:47+02:00</time>
      </trkpt>
      <trkpt lat="48.81875" lon="6.12674">
        <ele>187.7002</ele>
        <time>2026-05-18T13:36:48+02:00</time>
      </trkpt>
      <trkpt lat="48.8188" lon="6.12671">
        <ele>187.90039</ele>
        <time>2026-05-18T13:36:49+02:00</time>
      </trkpt>
      <trkpt lat="48.81885" lon="6.12667">
        <ele>186.90039</ele>
        <time>2026-05-18T13:36:50+02:00</time>
      </trkpt>
      <trkpt lat="48.8189" lon="6.12663">
        <ele>186.90039</ele>
        <time>2026-05-18T13:36:51+02:00</time>
      </trkpt>
      <trkpt lat="48.81896" lon="6.1266">
        <ele>187.10059</ele>
        <time>2026-05-18T13:36:52+02:00</time>
      </trkpt>
      <trkpt lat="48.81901" lon="6.12656">
        <ele>186.10059</ele>
        <time>2026-05-18T13:36:53+02:00</time>
      </trkpt>
      <trkpt lat="48.81906" lon="6.12652">
        <ele>186.40039</ele>
        <time>2026-05-18T13:36:54+02:00</time>
      </trkpt>
      <trkpt lat="48.81911" lon="6.12648">
        <ele>185.7998</ele>
        <time>2026-05-18T13:36:55+02:00</time>
      </trkpt>
      <trkpt lat="48.81916" lon="6.12644">
        <ele>186.2002</ele>
        <time>2026-05-18T13:36:56+02:00</time>
      </trkpt>
      <trkpt lat="48.81921" lon="6.1264">
        <ele>186</ele>
        <time>2026-05-18T13:36:57+02:00</time>
      </trkpt>
      <trkpt lat="48.81926" lon="6.12635">
        <ele>186.60059</ele>
        <time>2026-05-18T13:36:58+02:00</time>
      </trkpt>
      <trkpt lat="48.8193" lon="6.1263">
        <ele>186.2998</ele>
        <time>2026-05-18T13:36:59+02:00</time>
      </trkpt>
      <trkpt lat="48.81935" lon="6.12625">
        <ele>185.2998</ele>
        <time>2026-05-18T13:37:00+02:00</time>
      </trkpt>
      <trkpt lat="48.81939" lon="6.1262">
        <ele>186.10059</ele>
        <time>2026-05-18T13:37:01+02:00</time>
      </trkpt>
      <trkpt lat="48.81944" lon="6.12615">
        <ele>185.7002</ele>
        <time>2026-05-18T13:37:02+02:00</time>
      </trkpt>
      <trkpt lat="48.81948" lon="6.1261">
        <ele>186.5</ele>
        <time>2026-05-18T13:37:03+02:00</time>
      </trkpt>
      <trkpt lat="48.81953" lon="6.12605">
        <ele>186.2002</ele>
        <time>2026-05-18T13:37:04+02:00</time>
      </trkpt>
      <trkpt lat="48.81957" lon="6.12599">
        <ele>185.10059</ele>
        <time>2026-05-18T13:37:05+02:00</time>
      </trkpt>
      <trkpt lat="48.81962" lon="6.12594">
        <ele>186.10059</ele>
        <time>2026-05-18T13:37:06+02:00</time>
      </trkpt>
      <trkpt lat="48.81966" lon="6.12588">
        <ele>186.2002</ele>
        <time>2026-05-18T13:37:07+02:00</time>
      </trkpt>
      <trkpt lat="48.8197" lon="6.12582">
        <ele>186.40039</ele>
        <time>2026-05-18T13:37:08+02:00</time>
      </trkpt>
      <trkpt lat="48.81975" lon="6.12575">
        <ele>187.5</ele>
        <time>2026-05-18T13:37:09+02:00</time>
      </trkpt>
      <trkpt lat="48.81978" lon="6.12569">
        <ele>186.60059</ele>
        <time>2026-05-18T13:37:10+02:00</time>
      </trkpt>
      <trkpt lat="48.81982" lon="6.12562">
        <ele>186.7998</ele>
        <time>2026-05-18T13:37:11+02:00</time>
      </trkpt>
      <trkpt lat="48.81985" lon="6.12554">
        <ele>185.90039</ele>
        <time>2026-05-18T13:37:12+02:00</time>
      </trkpt>
      <trkpt lat="48.81989" lon="6.12546">
        <ele>186.2998</ele>
        <time>2026-05-18T13:37:13+02:00</time>
      </trkpt>
      <trkpt lat="48.81991" lon="6.12538">
        <ele>185.40039</ele>
        <time>2026-05-18T13:37:14+02:00</time>
      </trkpt>
      <trkpt lat="48.81994" lon="6.1253">
        <ele>185.5</ele>
        <time>2026-05-18T13:37:15+02:00</time>
      </trkpt>
      <trkpt lat="48.81996" lon="6.12521">
        <ele>184.2998</ele>
        <time>2026-05-18T13:37:16+02:00</time>
      </trkpt>
      <trkpt lat="48.81997" lon="6.12512">
        <ele>183.10059</ele>
        <time>2026-05-18T13:37:17+02:00</time>
      </trkpt>
      <trkpt lat="48.81999" lon="6.12503">
        <ele>183.7998</ele>
        <time>2026-05-18T13:37:18+02:00</time>
      </trkpt>
      <trkpt lat="48.82001" lon="6.12494">
        <ele>183.7002</ele>
        <time>2026-05-18T13:37:19+02:00</time>
      </trkpt>
      <trkpt lat="48.82003" lon="6.12485">
        <ele>183.60059</ele>
        <time>2026-05-18T13:37:20+02:00</time>
      </trkpt>
      <trkpt lat="48.82004" lon="6.12476">
        <ele>184.7998</ele>
        <time>2026-05-18T13:37:21+02:00</time>
      </trkpt>
      <trkpt lat="48.82006" lon="6.12468">
        <ele>184.40039</ele>
        <time>2026-05-18T13:37:22+02:00</time>
      </trkpt>
      <trkpt lat="48.82008" lon="6.12459">
        <ele>183.7002</ele>
        <time>2026-05-18T13:37:23+02:00</time>
      </trkpt>
      <trkpt lat="48.8201" lon="6.12451">
        <ele>183.7002</ele>
        <time>2026-05-18T13:37:24+02:00</time>
      </trkpt>
      <trkpt lat="48.82012" lon="6.12443">
        <ele>182.7998</ele>
        <time>2026-05-18T13:37:25+02:00</time>
      </trkpt>
      <trkpt lat="48.82015" lon="6.12435">
        <ele>183</ele>
        <time>2026-05-18T13:37:26+02:00</time>
      </trkpt>
      <trkpt lat="48.82017" lon="6.12426">
        <ele>183</ele>
        <time>2026-05-18T13:37:27+02:00</time>
      </trkpt>
      <trkpt lat="48.82019" lon="6.12417">
        <ele>183</ele>
        <time>2026-05-18T13:37:28+02:00</time>
      </trkpt>
      <trkpt lat="48.82022" lon="6.12409">
        <ele>184.10059</ele>
        <time>2026-05-18T13:37:29+02:00</time>
      </trkpt>
      <trkpt lat="48.82025" lon="6.12401">
        <ele>183.7998</ele>
        <time>2026-05-18T13:37:30+02:00</time>
      </trkpt>
      <trkpt lat="48.82028" lon="6.12392">
        <ele>184.2002</ele>
        <time>2026-05-18T13:37:31+02:00</time>
      </trkpt>
      <trkpt lat="48.8203" lon="6.12384">
        <ele>183.2998</ele>
        <time>2026-05-18T13:37:32+02:00</time>
      </trkpt>
      <trkpt lat="48.82033" lon="6.12376">
        <ele>183.2002</ele>
        <time>2026-05-18T13:37:33+02:00</time>
      </trkpt>
      <trkpt lat="48.82037" lon="6.12368">
        <ele>183.2002</ele>
        <time>2026-05-18T13:37:34+02:00</time>
      </trkpt>
      <trkpt lat="48.82039" lon="6.1236">
        <ele>183.5</ele>
        <time>2026-05-18T13:37:35+02:00</time>
      </trkpt>
      <trkpt lat="48.82042" lon="6.12352">
        <ele>183.40039</ele>
        <time>2026-05-18T13:37:36+02:00</time>
      </trkpt>
      <trkpt lat="48.82045" lon="6.12344">
        <ele>184.60059</ele>
        <time>2026-05-18T13:37:37+02:00</time>
      </trkpt>
      <trkpt lat="48.82048" lon="6.12336">
        <ele>184.40039</ele>
        <time>2026-05-18T13:37:38+02:00</time>
      </trkpt>
      <trkpt lat="48.82051" lon="6.12329">
        <ele>185.2002</ele>
        <time>2026-05-18T13:37:39+02:00</time>
      </trkpt>
      <trkpt lat="48.82054" lon="6.12321">
        <ele>185.60059</ele>
        <time>2026-05-18T13:37:40+02:00</time>
      </trkpt>
      <trkpt lat="48.82057" lon="6.12314">
        <ele>184.7002</ele>
        <time>2026-05-18T13:37:41+02:00</time>
      </trkpt>
      <trkpt lat="48.82059" lon="6.12306">
        <ele>183.7002</ele>
        <time>2026-05-18T13:37:42+02:00</time>
      </trkpt>
      <trkpt lat="48.82062" lon="6.12297">
        <ele>183.90039</ele>
        <time>2026-05-18T13:37:43+02:00</time>
      </trkpt>
      <trkpt lat="48.82065" lon="6.12289">
        <ele>183.40039</ele>
        <time>2026-05-18T13:37:44+02:00</time>
      </trkpt>
      <trkpt lat="48.82067" lon="6.1228">
        <ele>183.60059</ele>
        <time>2026-05-18T13:37:45+02:00</time>
      </trkpt>
      <trkpt lat="48.82069" lon="6.12271">
        <ele>182.60059</ele>
        <time>2026-05-18T13:37:46+02:00</time>
      </trkpt>
      <trkpt lat="48.82071" lon="6.12263">
        <ele>181.90039</ele>
        <time>2026-05-18T13:37:47+02:00</time>
      </trkpt>
      <trkpt lat="48.82073" lon="6.12254">
        <ele>182.40039</ele>
        <time>2026-05-18T13:37:48+02:00</time>
      </trkpt>
      <trkpt lat="48.82075" lon="6.12245">
        <ele>182.40039</ele>
        <time>2026-05-18T13:37:49+02:00</time>
      </trkpt>
      <trkpt lat="48.82077" lon="6.12236">
        <ele>183.2002</ele>
        <time>2026-05-18T13:37:50+02:00</time>
      </trkpt>
      <trkpt lat="48.82079" lon="6.12227">
        <ele>183.2002</ele>
        <time>2026-05-18T13:37:51+02:00</time>
      </trkpt>
      <trkpt lat="48.82081" lon="6.12217">
        <ele>183.2002</ele>
        <time>2026-05-18T13:37:52+02:00</time>
      </trkpt>
      <trkpt lat="48.82082" lon="6.12208">
        <ele>183.2002</ele>
        <time>2026-05-18T13:37:53+02:00</time>
      </trkpt>
      <trkpt lat="48.82084" lon="6.12199">
        <ele>184.5</ele>
        <time>2026-05-18T13:37:54+02:00</time>
      </trkpt>
      <trkpt lat="48.82085" lon="6.1219">
        <ele>184.40039</ele>
        <time>2026-05-18T13:37:55+02:00</time>
      </trkpt>
      <trkpt lat="48.82086" lon="6.12182">
        <ele>184</ele>
        <time>2026-05-18T13:37:56+02:00</time>
      </trkpt>
      <trkpt lat="48.82088" lon="6.12173">
        <ele>184.2002</ele>
        <time>2026-05-18T13:37:57+02:00</time>
      </trkpt>
      <trkpt lat="48.82089" lon="6.12164">
        <ele>183.10059</ele>
        <time>2026-05-18T13:37:58+02:00</time>
      </trkpt>
      <trkpt lat="48.82089" lon="6.12155">
        <ele>182.2002</ele>
        <time>2026-05-18T13:37:59+02:00</time>
      </trkpt>
      <trkpt lat="48.8209" lon="6.12146">
        <ele>182.2002</ele>
        <time>2026-05-18T13:38:00+02:00</time>
      </trkpt>
      <trkpt lat="48.82091" lon="6.12136">
        <ele>182.2998</ele>
        <time>2026-05-18T13:38:01+02:00</time>
      </trkpt>
      <trkpt lat="48.82091" lon="6.12127">
        <ele>182.2998</ele>
        <time>2026-05-18T13:38:02+02:00</time>
      </trkpt>
      <trkpt lat="48.82091" lon="6.12118">
        <ele>182.2998</ele>
        <time>2026-05-18T13:38:03+02:00</time>
      </trkpt>
      <trkpt lat="48.82092" lon="6.12108">
        <ele>182.2998</ele>
        <time>2026-05-18T13:38:04+02:00</time>
      </trkpt>
      <trkpt lat="48.82092" lon="6.12098">
        <ele>182.40039</ele>
        <time>2026-05-18T13:38:05+02:00</time>
      </trkpt>
      <trkpt lat="48.82093" lon="6.12089">
        <ele>182.40039</ele>
        <time>2026-05-18T13:38:06+02:00</time>
      </trkpt>
      <trkpt lat="48.82094" lon="6.12079">
        <ele>183.2998</ele>
        <time>2026-05-18T13:38:07+02:00</time>
      </trkpt>
      <trkpt lat="48.82095" lon="6.1207">
        <ele>183.40039</ele>
        <time>2026-05-18T13:38:08+02:00</time>
      </trkpt>
      <trkpt lat="48.82096" lon="6.12061">
        <ele>183.5</ele>
        <time>2026-05-18T13:38:09+02:00</time>
      </trkpt>
      <trkpt lat="48.82097" lon="6.12052">
        <ele>183.5</ele>
        <time>2026-05-18T13:38:10+02:00</time>
      </trkpt>
      <trkpt lat="48.82098" lon="6.12043">
        <ele>183.60059</ele>
        <time>2026-05-18T13:38:11+02:00</time>
      </trkpt>
      <trkpt lat="48.82099" lon="6.12034">
        <ele>183.60059</ele>
        <time>2026-05-18T13:38:12+02:00</time>
      </trkpt>
      <trkpt lat="48.821" lon="6.12025">
        <ele>185.40039</ele>
        <time>2026-05-18T13:38:13+02:00</time>
      </trkpt>
      <trkpt lat="48.82101" lon="6.12016">
        <ele>185.40039</ele>
        <time>2026-05-18T13:38:14+02:00</time>
      </trkpt>
      <trkpt lat="48.82101" lon="6.12007">
        <ele>185.40039</ele>
        <time>2026-05-18T13:38:15+02:00</time>
      </trkpt>
      <trkpt lat="48.82102" lon="6.11998">
        <ele>185.2998</ele>
        <time>2026-05-18T13:38:16+02:00</time>
      </trkpt>
      <trkpt lat="48.82102" lon="6.11988">
        <ele>185</ele>
        <time>2026-05-18T13:38:17+02:00</time>
      </trkpt>
      <trkpt lat="48.82101" lon="6.11979">
        <ele>184.40039</ele>
        <time>2026-05-18T13:38:18+02:00</time>
      </trkpt>
      <trkpt lat="48.82101" lon="6.1197">
        <ele>183.60059</ele>
        <time>2026-05-18T13:38:19+02:00</time>
      </trkpt>
      <trkpt lat="48.82101" lon="6.11961">
        <ele>182.60059</ele>
        <time>2026-05-18T13:38:20+02:00</time>
      </trkpt>
      <trkpt lat="48.82101" lon="6.11952">
        <ele>181.90039</ele>
        <time>2026-05-18T13:38:21+02:00</time>
      </trkpt>
      <trkpt lat="48.82101" lon="6.11942">
        <ele>181.90039</ele>
        <time>2026-05-18T13:38:22+02:00</time>
      </trkpt>
      <trkpt lat="48.82102" lon="6.11932">
        <ele>181.90039</ele>
        <time>2026-05-18T13:38:23+02:00</time>
      </trkpt>
      <trkpt lat="48.82102" lon="6.11923">
        <ele>182</ele>
        <time>2026-05-18T13:38:24+02:00</time>
      </trkpt>
      <trkpt lat="48.82102" lon="6.11913">
        <ele>182</ele>
        <time>2026-05-18T13:38:25+02:00</time>
      </trkpt>
      <trkpt lat="48.82103" lon="6.11903">
        <ele>182.10059</ele>
        <time>2026-05-18T13:38:26+02:00</time>
      </trkpt>
      <trkpt lat="48.82103" lon="6.11894">
        <ele>182.10059</ele>
        <time>2026-05-18T13:38:27+02:00</time>
      </trkpt>
      <trkpt lat="48.82103" lon="6.11884">
        <ele>182.10059</ele>
        <time>2026-05-18T13:38:28+02:00</time>
      </trkpt>
      <trkpt lat="48.82103" lon="6.11874">
        <ele>182.10059</ele>
        <time>2026-05-18T13:38:29+02:00</time>
      </trkpt>
      <trkpt lat="48.82103" lon="6.11865">
        <ele>182.10059</ele>
        <time>2026-05-18T13:38:30+02:00</time>
      </trkpt>
      <trkpt lat="48.82104" lon="6.11855">
        <ele>182.2002</ele>
        <time>2026-05-18T13:38:31+02:00</time>
      </trkpt>
      <trkpt lat="48.82104" lon="6.11845">
        <ele>182.2002</ele>
        <time>2026-05-18T13:38:32+02:00</time>
      </trkpt>
      <trkpt lat="48.82104" lon="6.11835">
        <ele>182.2002</ele>
        <time>2026-05-18T13:38:33+02:00</time>
      </trkpt>
      <trkpt lat="48.82105" lon="6.11825">
        <ele>182.2998</ele>
        <time>2026-05-18T13:38:34+02:00</time>
      </trkpt>
      <trkpt lat="48.82106" lon="6.11816">
        <ele>182.7002</ele>
        <time>2026-05-18T13:38:35+02:00</time>
      </trkpt>
      <trkpt lat="48.82106" lon="6.11806">
        <ele>182.7002</ele>
        <time>2026-05-18T13:38:36+02:00</time>
      </trkpt>
      <trkpt lat="48.82107" lon="6.11797">
        <ele>182.7998</ele>
        <time>2026-05-18T13:38:37+02:00</time>
      </trkpt>
      <trkpt lat="48.82107" lon="6.11787">
        <ele>182.7998</ele>
        <time>2026-05-18T13:38:38+02:00</time>
      </trkpt>
      <trkpt lat="48.82108" lon="6.11778">
        <ele>182.7998</ele>
        <time>2026-05-18T13:38:39+02:00</time>
      </trkpt>
      <trkpt lat="48.82109" lon="6.11768">
        <ele>182.7002</ele>
        <time>2026-05-18T13:38:40+02:00</time>
      </trkpt>
      <trkpt lat="48.8211" lon="6.11759">
        <ele>182.5</ele>
        <time>2026-05-18T13:38:41+02:00</time>
      </trkpt>
      <trkpt lat="48.82111" lon="6.11749">
        <ele>181.7998</ele>
        <time>2026-05-18T13:38:42+02:00</time>
      </trkpt>
      <trkpt lat="48.82112" lon="6.1174">
        <ele>181.90039</ele>
        <time>2026-05-18T13:38:43+02:00</time>
      </trkpt>
      <trkpt lat="48.82114" lon="6.1173">
        <ele>181.90039</ele>
        <time>2026-05-18T13:38:44+02:00</time>
      </trkpt>
      <trkpt lat="48.82115" lon="6.1172">
        <ele>181.90039</ele>
        <time>2026-05-18T13:38:45+02:00</time>
      </trkpt>
      <trkpt lat="48.82116" lon="6.11711">
        <ele>182</ele>
        <time>2026-05-18T13:38:46+02:00</time>
      </trkpt>
      <trkpt lat="48.82118" lon="6.11701">
        <ele>182.2002</ele>
        <time>2026-05-18T13:38:47+02:00</time>
      </trkpt>
      <trkpt lat="48.8212" lon="6.11692">
        <ele>182.2002</ele>
        <time>2026-05-18T13:38:48+02:00</time>
      </trkpt>
      <trkpt lat="48.82122" lon="6.11682">
        <ele>182.5</ele>
        <time>2026-05-18T13:38:49+02:00</time>
      </trkpt>
      <trkpt lat="48.82124" lon="6.11673">
        <ele>182.5</ele>
        <time>2026-05-18T13:38:50+02:00</time>
      </trkpt>
      <trkpt lat="48.82126" lon="6.11664">
        <ele>182.5</ele>
        <time>2026-05-18T13:38:51+02:00</time>
      </trkpt>
      <trkpt lat="48.82129" lon="6.11655">
        <ele>182.2998</ele>
        <time>2026-05-18T13:38:52+02:00</time>
      </trkpt>
      <trkpt lat="48.82131" lon="6.11646">
        <ele>181.90039</ele>
        <time>2026-05-18T13:38:53+02:00</time>
      </trkpt>
      <trkpt lat="48.82134" lon="6.11637">
        <ele>181.90039</ele>
        <time>2026-05-18T13:38:54+02:00</time>
      </trkpt>
      <trkpt lat="48.82136" lon="6.11629">
        <ele>181.90039</ele>
        <time>2026-05-18T13:38:55+02:00</time>
      </trkpt>
      <trkpt lat="48.82139" lon="6.1162">
        <ele>181.90039</ele>
        <time>2026-05-18T13:38:56+02:00</time>
      </trkpt>
      <trkpt lat="48.82142" lon="6.11611">
        <ele>182.40039</ele>
        <time>2026-05-18T13:38:57+02:00</time>
      </trkpt>
      <trkpt lat="48.82144" lon="6.11602">
        <ele>182.40039</ele>
        <time>2026-05-18T13:38:58+02:00</time>
      </trkpt>
      <trkpt lat="48.82147" lon="6.11593">
        <ele>183.2002</ele>
        <time>2026-05-18T13:38:59+02:00</time>
      </trkpt>
      <trkpt lat="48.8215" lon="6.11584">
        <ele>183.2002</ele>
        <time>2026-05-18T13:39:00+02:00</time>
      </trkpt>
      <trkpt lat="48.82152" lon="6.11575">
        <ele>184.2998</ele>
        <time>2026-05-18T13:39:01+02:00</time>
      </trkpt>
      <trkpt lat="48.82155" lon="6.11565">
        <ele>184</ele>
        <time>2026-05-18T13:39:02+02:00</time>
      </trkpt>
      <trkpt lat="48.82158" lon="6.11556">
        <ele>184.2002</ele>
        <time>2026-05-18T13:39:03+02:00</time>
      </trkpt>
      <trkpt lat="48.8216" lon="6.11547">
        <ele>183.10059</ele>
        <time>2026-05-18T13:39:04+02:00</time>
      </trkpt>
      <trkpt lat="48.82163" lon="6.11538">
        <ele>183.2998</ele>
        <time>2026-05-18T13:39:05+02:00</time>
      </trkpt>
      <trkpt lat="48.82166" lon="6.11529">
        <ele>182.7002</ele>
        <time>2026-05-18T13:39:06+02:00</time>
      </trkpt>
      <trkpt lat="48.82169" lon="6.11521">
        <ele>184</ele>
        <time>2026-05-18T13:39:07+02:00</time>
      </trkpt>
      <trkpt lat="48.82173" lon="6.11512">
        <ele>185.2998</ele>
        <time>2026-05-18T13:39:08+02:00</time>
      </trkpt>
      <trkpt lat="48.82177" lon="6.11505">
        <ele>184.7998</ele>
        <time>2026-05-18T13:39:09+02:00</time>
      </trkpt>
      <trkpt lat="48.82181" lon="6.11497">
        <ele>185.2998</ele>
        <time>2026-05-18T13:39:10+02:00</time>
      </trkpt>
      <trkpt lat="48.82185" lon="6.1149">
        <ele>185.7002</ele>
        <time>2026-05-18T13:39:11+02:00</time>
      </trkpt>
      <trkpt lat="48.82189" lon="6.11483">
        <ele>184.7002</ele>
        <time>2026-05-18T13:39:12+02:00</time>
      </trkpt>
      <trkpt lat="48.82193" lon="6.11476">
        <ele>186.2002</ele>
        <time>2026-05-18T13:39:13+02:00</time>
      </trkpt>
      <trkpt lat="48.82197" lon="6.11469">
        <ele>187</ele>
        <time>2026-05-18T13:39:14+02:00</time>
      </trkpt>
      <trkpt lat="48.82201" lon="6.11462">
        <ele>186.40039</ele>
        <time>2026-05-18T13:39:15+02:00</time>
      </trkpt>
      <trkpt lat="48.82205" lon="6.11455">
        <ele>187.2998</ele>
        <time>2026-05-18T13:39:16+02:00</time>
      </trkpt>
      <trkpt lat="48.82209" lon="6.11448">
        <ele>187.90039</ele>
        <time>2026-05-18T13:39:17+02:00</time>
      </trkpt>
      <trkpt lat="48.82213" lon="6.11441">
        <ele>189.5</ele>
        <time>2026-05-18T13:39:18+02:00</time>
      </trkpt>
      <trkpt lat="48.82217" lon="6.11433">
        <ele>188.2002</ele>
        <time>2026-05-18T13:39:19+02:00</time>
      </trkpt>
      <trkpt lat="48.82221" lon="6.11424">
        <ele>188.2998</ele>
        <time>2026-05-18T13:39:20+02:00</time>
      </trkpt>
      <trkpt lat="48.82225" lon="6.11416">
        <ele>188.90039</ele>
        <time>2026-05-18T13:39:21+02:00</time>
      </trkpt>
      <trkpt lat="48.82229" lon="6.11407">
        <ele>188.2998</ele>
        <time>2026-05-18T13:39:22+02:00</time>
      </trkpt>
      <trkpt lat="48.82232" lon="6.11399">
        <ele>189.2998</ele>
        <time>2026-05-18T13:39:23+02:00</time>
      </trkpt>
      <trkpt lat="48.82235" lon="6.11391">
        <ele>188.7002</ele>
        <time>2026-05-18T13:39:24+02:00</time>
      </trkpt>
      <trkpt lat="48.82239" lon="6.11382">
        <ele>189.5</ele>
        <time>2026-05-18T13:39:25+02:00</time>
      </trkpt>
      <trkpt lat="48.82243" lon="6.11373">
        <ele>189.7002</ele>
        <time>2026-05-18T13:39:26+02:00</time>
      </trkpt>
      <trkpt lat="48.82246" lon="6.11364">
        <ele>188.5</ele>
        <time>2026-05-18T13:39:27+02:00</time>
      </trkpt>
      <trkpt lat="48.8225" lon="6.11355">
        <ele>188.7002</ele>
        <time>2026-05-18T13:39:28+02:00</time>
      </trkpt>
      <trkpt lat="48.82253" lon="6.11346">
        <ele>188.60059</ele>
        <time>2026-05-18T13:39:29+02:00</time>
      </trkpt>
      <trkpt lat="48.82256" lon="6.11337">
        <ele>187.90039</ele>
        <time>2026-05-18T13:39:30+02:00</time>
      </trkpt>
      <trkpt lat="48.8226" lon="6.11328">
        <ele>188.10059</ele>
        <time>2026-05-18T13:39:31+02:00</time>
      </trkpt>
      <trkpt lat="48.82263" lon="6.11319">
        <ele>187.40039</ele>
        <time>2026-05-18T13:39:32+02:00</time>
      </trkpt>
      <trkpt lat="48.82266" lon="6.11311">
        <ele>187.7998</ele>
        <time>2026-05-18T13:39:33+02:00</time>
      </trkpt>
      <trkpt lat="48.82269" lon="6.11302">
        <ele>188.5</ele>
        <time>2026-05-18T13:39:34+02:00</time>
      </trkpt>
      <trkpt lat="48.82272" lon="6.11294">
        <ele>188</ele>
        <time>2026-05-18T13:39:35+02:00</time>
      </trkpt>
      <trkpt lat="48.82275" lon="6.11286">
        <ele>188.90039</ele>
        <time>2026-05-18T13:39:36+02:00</time>
      </trkpt>
      <trkpt lat="48.82278" lon="6.11278">
        <ele>188.90039</ele>
        <time>2026-05-18T13:39:37+02:00</time>
      </trkpt>
      <trkpt lat="48.82281" lon="6.1127">
        <ele>189.10059</ele>
        <time>2026-05-18T13:39:38+02:00</time>
      </trkpt>
      <trkpt lat="48.82284" lon="6.11262">
        <ele>188</ele>
        <time>2026-05-18T13:39:39+02:00</time>
      </trkpt>
      <trkpt lat="48.82287" lon="6.11253">
        <ele>188</ele>
        <time>2026-05-18T13:39:40+02:00</time>
      </trkpt>
      <trkpt lat="48.82289" lon="6.11246">
        <ele>187.2998</ele>
        <time>2026-05-18T13:39:41+02:00</time>
      </trkpt>
      <trkpt lat="48.82292" lon="6.11238">
        <ele>187.90039</ele>
        <time>2026-05-18T13:39:42+02:00</time>
      </trkpt>
      <trkpt lat="48.82295" lon="6.1123">
        <ele>187.10059</ele>
        <time>2026-05-18T13:39:43+02:00</time>
      </trkpt>
      <trkpt lat="48.82297" lon="6.11222">
        <ele>186.2998</ele>
        <time>2026-05-18T13:39:44+02:00</time>
      </trkpt>
      <trkpt lat="48.823" lon="6.11214">
        <ele>186.5</ele>
        <time>2026-05-18T13:39:45+02:00</time>
      </trkpt>
      <trkpt lat="48.82302" lon="6.11206">
        <ele>185.90039</ele>
        <time>2026-05-18T13:39:46+02:00</time>
      </trkpt>
      <trkpt lat="48.82304" lon="6.11198">
        <ele>186.10059</ele>
        <time>2026-05-18T13:39:47+02:00</time>
      </trkpt>
      <trkpt lat="48.82306" lon="6.1119">
        <ele>185.60059</ele>
        <time>2026-05-18T13:39:48+02:00</time>
      </trkpt>
      <trkpt lat="48.82308" lon="6.11181">
        <ele>184.90039</ele>
        <time>2026-05-18T13:39:49+02:00</time>
      </trkpt>
      <trkpt lat="48.8231" lon="6.11172">
        <ele>184.90039</ele>
        <time>2026-05-18T13:39:50+02:00</time>
      </trkpt>
      <trkpt lat="48.82313" lon="6.11164">
        <ele>184</ele>
        <time>2026-05-18T13:39:51+02:00</time>
      </trkpt>
      <trkpt lat="48.82314" lon="6.11155">
        <ele>183.2002</ele>
        <time>2026-05-18T13:39:52+02:00</time>
      </trkpt>
      <trkpt lat="48.82317" lon="6.11146">
        <ele>183.90039</ele>
        <time>2026-05-18T13:39:53+02:00</time>
      </trkpt>
      <trkpt lat="48.82319" lon="6.11137">
        <ele>183.7998</ele>
        <time>2026-05-18T13:39:54+02:00</time>
      </trkpt>
      <trkpt lat="48.82322" lon="6.11128">
        <ele>184.60059</ele>
        <time>2026-05-18T13:39:55+02:00</time>
      </trkpt>
      <trkpt lat="48.82324" lon="6.11119">
        <ele>184.2998</ele>
        <time>2026-05-18T13:39:56+02:00</time>
      </trkpt>
      <trkpt lat="48.82327" lon="6.1111">
        <ele>184.7998</ele>
        <time>2026-05-18T13:39:57+02:00</time>
      </trkpt>
      <trkpt lat="48.82329" lon="6.11101">
        <ele>184.60059</ele>
        <time>2026-05-18T13:39:58+02:00</time>
      </trkpt>
      <trkpt lat="48.82332" lon="6.11092">
        <ele>185</ele>
        <time>2026-05-18T13:39:59+02:00</time>
      </trkpt>
      <trkpt lat="48.82334" lon="6.11083">
        <ele>184.7998</ele>
        <time>2026-05-18T13:40:00+02:00</time>
      </trkpt>
      <trkpt lat="48.82337" lon="6.11074">
        <ele>185</ele>
        <time>2026-05-18T13:40:01+02:00</time>
      </trkpt>
      <trkpt lat="48.8234" lon="6.11065">
        <ele>184.60059</ele>
        <time>2026-05-18T13:40:02+02:00</time>
      </trkpt>
      <trkpt lat="48.82342" lon="6.11057">
        <ele>184.2002</ele>
        <time>2026-05-18T13:40:03+02:00</time>
      </trkpt>
      <trkpt lat="48.82345" lon="6.11048">
        <ele>184.40039</ele>
        <time>2026-05-18T13:40:04+02:00</time>
      </trkpt>
      <trkpt lat="48.82347" lon="6.11039">
        <ele>184</ele>
        <time>2026-05-18T13:40:05+02:00</time>
      </trkpt>
      <trkpt lat="48.8235" lon="6.11031">
        <ele>183.90039</ele>
        <time>2026-05-18T13:40:06+02:00</time>
      </trkpt>
      <trkpt lat="48.82352" lon="6.11022">
        <ele>183.40039</ele>
        <time>2026-05-18T13:40:07+02:00</time>
      </trkpt>
      <trkpt lat="48.82355" lon="6.11013">
        <ele>183.40039</ele>
        <time>2026-05-18T13:40:08+02:00</time>
      </trkpt>
      <trkpt lat="48.82358" lon="6.11004">
        <ele>183.10059</ele>
        <time>2026-05-18T13:40:09+02:00</time>
      </trkpt>
      <trkpt lat="48.8236" lon="6.10996">
        <ele>183.2998</ele>
        <time>2026-05-18T13:40:10+02:00</time>
      </trkpt>
      <trkpt lat="48.82363" lon="6.10987">
        <ele>182.7998</ele>
        <time>2026-05-18T13:40:11+02:00</time>
      </trkpt>
      <trkpt lat="48.82366" lon="6.10979">
        <ele>182.60059</ele>
        <time>2026-05-18T13:40:12+02:00</time>
      </trkpt>
      <trkpt lat="48.82368" lon="6.10971">
        <ele>182.40039</ele>
        <time>2026-05-18T13:40:13+02:00</time>
      </trkpt>
      <trkpt lat="48.82371" lon="6.10963">
        <ele>182.7998</ele>
        <time>2026-05-18T13:40:14+02:00</time>
      </trkpt>
      <trkpt lat="48.82374" lon="6.10955">
        <ele>182.7998</ele>
        <time>2026-05-18T13:40:15+02:00</time>
      </trkpt>
      <trkpt lat="48.82376" lon="6.10946">
        <ele>182.7002</ele>
        <time>2026-05-18T13:40:16+02:00</time>
      </trkpt>
      <trkpt lat="48.82379" lon="6.10938">
        <ele>183.10059</ele>
        <time>2026-05-18T13:40:17+02:00</time>
      </trkpt>
      <trkpt lat="48.82382" lon="6.1093">
        <ele>182.90039</ele>
        <time>2026-05-18T13:40:18+02:00</time>
      </trkpt>
      <trkpt lat="48.82385" lon="6.10921">
        <ele>182.7998</ele>
        <time>2026-05-18T13:40:19+02:00</time>
      </trkpt>
      <trkpt lat="48.82387" lon="6.10913">
        <ele>182.5</ele>
        <time>2026-05-18T13:40:20+02:00</time>
      </trkpt>
      <trkpt lat="48.8239" lon="6.10904">
        <ele>182.5</ele>
        <time>2026-05-18T13:40:21+02:00</time>
      </trkpt>
      <trkpt lat="48.82392" lon="6.10897">
        <ele>182.5</ele>
        <time>2026-05-18T13:40:22+02:00</time>
      </trkpt>
      <trkpt lat="48.82394" lon="6.10889">
        <ele>183</ele>
        <time>2026-05-18T13:40:23+02:00</time>
      </trkpt>
      <trkpt lat="48.82396" lon="6.10881">
        <ele>182.90039</ele>
        <time>2026-05-18T13:40:24+02:00</time>
      </trkpt>
      <trkpt lat="48.82398" lon="6.10874">
        <ele>182.7998</ele>
        <time>2026-05-18T13:40:25+02:00</time>
      </trkpt>
      <trkpt lat="48.824" lon="6.10866">
        <ele>183.2002</ele>
        <time>2026-05-18T13:40:26+02:00</time>
      </trkpt>
      <trkpt lat="48.82403" lon="6.10858">
        <ele>183</ele>
        <time>2026-05-18T13:40:27+02:00</time>
      </trkpt>
      <trkpt lat="48.82405" lon="6.1085">
        <ele>183</ele>
        <time>2026-05-18T13:40:28+02:00</time>
      </trkpt>
      <trkpt lat="48.82407" lon="6.10842">
        <ele>182.60059</ele>
        <time>2026-05-18T13:40:29+02:00</time>
      </trkpt>
      <trkpt lat="48.82409" lon="6.10835">
        <ele>182.2998</ele>
        <time>2026-05-18T13:40:30+02:00</time>
      </trkpt>
      <trkpt lat="48.82411" lon="6.10827">
        <ele>182.7002</ele>
        <time>2026-05-18T13:40:31+02:00</time>
      </trkpt>
      <trkpt lat="48.82413" lon="6.10819">
        <ele>182.60059</ele>
        <time>2026-05-18T13:40:32+02:00</time>
      </trkpt>
      <trkpt lat="48.82416" lon="6.10811">
        <ele>183.10059</ele>
        <time>2026-05-18T13:40:33+02:00</time>
      </trkpt>
      <trkpt lat="48.82418" lon="6.10803">
        <ele>183</ele>
        <time>2026-05-18T13:40:34+02:00</time>
      </trkpt>
      <trkpt lat="48.8242" lon="6.10795">
        <ele>182.7998</ele>
        <time>2026-05-18T13:40:35+02:00</time>
      </trkpt>
      <trkpt lat="48.82422" lon="6.10787">
        <ele>182.7998</ele>
        <time>2026-05-18T13:40:36+02:00</time>
      </trkpt>
      <trkpt lat="48.82424" lon="6.10778">
        <ele>182.5</ele>
        <time>2026-05-18T13:40:37+02:00</time>
      </trkpt>
      <trkpt lat="48.82426" lon="6.1077">
        <ele>182.2998</ele>
        <time>2026-05-18T13:40:38+02:00</time>
      </trkpt>
      <trkpt lat="48.82428" lon="6.10761">
        <ele>182.40039</ele>
        <time>2026-05-18T13:40:39+02:00</time>
      </trkpt>
      <trkpt lat="48.8243" lon="6.10753">
        <ele>182.40039</ele>
        <time>2026-05-18T13:40:40+02:00</time>
      </trkpt>
      <trkpt lat="48.82432" lon="6.10744">
        <ele>182.40039</ele>
        <time>2026-05-18T13:40:41+02:00</time>
      </trkpt>
      <trkpt lat="48.82434" lon="6.10735">
        <ele>182.7002</ele>
        <time>2026-05-18T13:40:42+02:00</time>
      </trkpt>
      <trkpt lat="48.82436" lon="6.10727">
        <ele>182.60059</ele>
        <time>2026-05-18T13:40:43+02:00</time>
      </trkpt>
      <trkpt lat="48.82438" lon="6.10718">
        <ele>182.5</ele>
        <time>2026-05-18T13:40:44+02:00</time>
      </trkpt>
      <trkpt lat="48.8244" lon="6.10709">
        <ele>182.40039</ele>
        <time>2026-05-18T13:40:45+02:00</time>
      </trkpt>
      <trkpt lat="48.82441" lon="6.10701">
        <ele>182.2002</ele>
        <time>2026-05-18T13:40:46+02:00</time>
      </trkpt>
      <trkpt lat="48.82443" lon="6.10692">
        <ele>182.2002</ele>
        <time>2026-05-18T13:40:47+02:00</time>
      </trkpt>
      <trkpt lat="48.82445" lon="6.10683">
        <ele>182.2998</ele>
        <time>2026-05-18T13:40:48+02:00</time>
      </trkpt>
      <trkpt lat="48.82446" lon="6.10675">
        <ele>182.2998</ele>
        <time>2026-05-18T13:40:49+02:00</time>
      </trkpt>
      <trkpt lat="48.82448" lon="6.10666">
        <ele>182.2998</ele>
        <time>2026-05-18T13:40:50+02:00</time>
      </trkpt>
      <trkpt lat="48.8245" lon="6.10657">
        <ele>182.5</ele>
        <time>2026-05-18T13:40:51+02:00</time>
      </trkpt>
      <trkpt lat="48.82452" lon="6.10649">
        <ele>182.40039</ele>
        <time>2026-05-18T13:40:52+02:00</time>
      </trkpt>
      <trkpt lat="48.82454" lon="6.1064">
        <ele>182.2998</ele>
        <time>2026-05-18T13:40:53+02:00</time>
      </trkpt>
      <trkpt lat="48.82456" lon="6.10631">
        <ele>182.2002</ele>
        <time>2026-05-18T13:40:54+02:00</time>
      </trkpt>
      <trkpt lat="48.82457" lon="6.10622">
        <ele>182.2002</ele>
        <time>2026-05-18T13:40:55+02:00</time>
      </trkpt>
      <trkpt lat="48.82459" lon="6.10614">
        <ele>182.2002</ele>
        <time>2026-05-18T13:40:56+02:00</time>
      </trkpt>
      <trkpt lat="48.82461" lon="6.10605">
        <ele>182.2998</ele>
        <time>2026-05-18T13:40:57+02:00</time>
      </trkpt>
      <trkpt lat="48.82463" lon="6.10596">
        <ele>182.2998</ele>
        <time>2026-05-18T13:40:58+02:00</time>
      </trkpt>
      <trkpt lat="48.82465" lon="6.10588">
        <ele>182.2998</ele>
        <time>2026-05-18T13:40:59+02:00</time>
      </trkpt>
      <trkpt lat="48.82467" lon="6.10579">
        <ele>182.40039</ele>
        <time>2026-05-18T13:41:00+02:00</time>
      </trkpt>
      <trkpt lat="48.82469" lon="6.10571">
        <ele>182.40039</ele>
        <time>2026-05-18T13:41:01+02:00</time>
      </trkpt>
      <trkpt lat="48.82471" lon="6.10563">
        <ele>182.40039</ele>
        <time>2026-05-18T13:41:02+02:00</time>
      </trkpt>
      <trkpt lat="48.82473" lon="6.10555">
        <ele>182.60059</ele>
        <time>2026-05-18T13:41:03+02:00</time>
      </trkpt>
      <trkpt lat="48.82474" lon="6.10546">
        <ele>182.5</ele>
        <time>2026-05-18T13:41:04+02:00</time>
      </trkpt>
      <trkpt lat="48.82476" lon="6.10538">
        <ele>182.40039</ele>
        <time>2026-05-18T13:41:05+02:00</time>
      </trkpt>
      <trkpt lat="48.82478" lon="6.1053">
        <ele>182.2002</ele>
        <time>2026-05-18T13:41:06+02:00</time>
      </trkpt>
      <trkpt lat="48.82479" lon="6.10523">
        <ele>182.2998</ele>
        <time>2026-05-18T13:41:07+02:00</time>
      </trkpt>
      <trkpt lat="48.82481" lon="6.10515">
        <ele>182.2002</ele>
        <time>2026-05-18T13:41:08+02:00</time>
      </trkpt>
      <trkpt lat="48.82482" lon="6.10508">
        <ele>182.2002</ele>
        <time>2026-05-18T13:41:09+02:00</time>
      </trkpt>
      <trkpt lat="48.82484" lon="6.105">
        <ele>182.2998</ele>
        <time>2026-05-18T13:41:10+02:00</time>
      </trkpt>
      <trkpt lat="48.82485" lon="6.10493">
        <ele>182.2998</ele>
        <time>2026-05-18T13:41:11+02:00</time>
      </trkpt>
      <trkpt lat="48.82487" lon="6.10485">
        <ele>182.2998</ele>
        <time>2026-05-18T13:41:12+02:00</time>
      </trkpt>
      <trkpt lat="48.82489" lon="6.10477">
        <ele>182.40039</ele>
        <time>2026-05-18T13:41:13+02:00</time>
      </trkpt>
      <trkpt lat="48.8249" lon="6.10469">
        <ele>182.60059</ele>
        <time>2026-05-18T13:41:14+02:00</time>
      </trkpt>
      <trkpt lat="48.82491" lon="6.10462">
        <ele>182.60059</ele>
        <time>2026-05-18T13:41:15+02:00</time>
      </trkpt>
      <trkpt lat="48.82493" lon="6.10454">
        <ele>182.60059</ele>
        <time>2026-05-18T13:41:16+02:00</time>
      </trkpt>
      <trkpt lat="48.82494" lon="6.10446">
        <ele>182.60059</ele>
        <time>2026-05-18T13:41:17+02:00</time>
      </trkpt>
      <trkpt lat="48.82496" lon="6.10438">
        <ele>182.7002</ele>
        <time>2026-05-18T13:41:18+02:00</time>
      </trkpt>
      <trkpt lat="48.82497" lon="6.10429">
        <ele>182.5</ele>
        <time>2026-05-18T13:41:19+02:00</time>
      </trkpt>
      <trkpt lat="48.82498" lon="6.10421">
        <ele>182.2998</ele>
        <time>2026-05-18T13:41:20+02:00</time>
      </trkpt>
      <trkpt lat="48.82498" lon="6.10413">
        <ele>182.2002</ele>
        <time>2026-05-18T13:41:21+02:00</time>
      </trkpt>
      <trkpt lat="48.82499" lon="6.10404">
        <ele>182.2002</ele>
        <time>2026-05-18T13:41:22+02:00</time>
      </trkpt>
      <trkpt lat="48.825" lon="6.10396">
        <ele>182.2002</ele>
        <time>2026-05-18T13:41:23+02:00</time>
      </trkpt>
      <trkpt lat="48.82501" lon="6.10388">
        <ele>182.2998</ele>
        <time>2026-05-18T13:41:24+02:00</time>
      </trkpt>
      <trkpt lat="48.82501" lon="6.1038">
        <ele>182.2998</ele>
        <time>2026-05-18T13:41:25+02:00</time>
      </trkpt>
      <trkpt lat="48.82502" lon="6.10371">
        <ele>182.2998</ele>
        <time>2026-05-18T13:41:26+02:00</time>
      </trkpt>
      <trkpt lat="48.82502" lon="6.10363">
        <ele>182.2998</ele>
        <time>2026-05-18T13:41:27+02:00</time>
      </trkpt>
      <trkpt lat="48.82503" lon="6.10355">
        <ele>182.2998</ele>
        <time>2026-05-18T13:41:28+02:00</time>
      </trkpt>
      <trkpt lat="48.82504" lon="6.10347">
        <ele>182.2998</ele>
        <time>2026-05-18T13:41:29+02:00</time>
      </trkpt>
      <trkpt lat="48.82504" lon="6.10339">
        <ele>182.2998</ele>
        <time>2026-05-18T13:41:30+02:00</time>
      </trkpt>
      <trkpt lat="48.82505" lon="6.1033">
        <ele>182.2998</ele>
        <time>2026-05-18T13:41:31+02:00</time>
      </trkpt>
      <trkpt lat="48.82506" lon="6.10322">
        <ele>182.2998</ele>
        <time>2026-05-18T13:41:32+02:00</time>
      </trkpt>
      <trkpt lat="48.82507" lon="6.10314">
        <ele>182.5</ele>
        <time>2026-05-18T13:41:33+02:00</time>
      </trkpt>
      <trkpt lat="48.82507" lon="6.10306">
        <ele>182.40039</ele>
        <time>2026-05-18T13:41:34+02:00</time>
      </trkpt>
      <trkpt lat="48.82508" lon="6.10298">
        <ele>182.2998</ele>
        <time>2026-05-18T13:41:35+02:00</time>
      </trkpt>
      <trkpt lat="48.82508" lon="6.1029">
        <ele>182.2998</ele>
        <time>2026-05-18T13:41:36+02:00</time>
      </trkpt>
      <trkpt lat="48.82509" lon="6.10282">
        <ele>182.2998</ele>
        <time>2026-05-18T13:41:37+02:00</time>
      </trkpt>
      <trkpt lat="48.82509" lon="6.10274">
        <ele>182.2002</ele>
        <time>2026-05-18T13:41:38+02:00</time>
      </trkpt>
      <trkpt lat="48.8251" lon="6.10266">
        <ele>182.2002</ele>
        <time>2026-05-18T13:41:39+02:00</time>
      </trkpt>
      <trkpt lat="48.82511" lon="6.10258">
        <ele>182.2002</ele>
        <time>2026-05-18T13:41:40+02:00</time>
      </trkpt>
      <trkpt lat="48.82511" lon="6.10249">
        <ele>182.2998</ele>
        <time>2026-05-18T13:41:41+02:00</time>
      </trkpt>
      <trkpt lat="48.82512" lon="6.10241">
        <ele>182.2002</ele>
        <time>2026-05-18T13:41:42+02:00</time>
      </trkpt>
      <trkpt lat="48.82512" lon="6.10233">
        <ele>182.2002</ele>
        <time>2026-05-18T13:41:43+02:00</time>
      </trkpt>
      <trkpt lat="48.82513" lon="6.10225">
        <ele>182.2002</ele>
        <time>2026-05-18T13:41:44+02:00</time>
      </trkpt>
      <trkpt lat="48.82514" lon="6.10218">
        <ele>182.2002</ele>
        <time>2026-05-18T13:41:45+02:00</time>
      </trkpt>
      <trkpt lat="48.82515" lon="6.1021">
        <ele>182.2002</ele>
        <time>2026-05-18T13:41:46+02:00</time>
      </trkpt>
      <trkpt lat="48.82516" lon="6.10202">
        <ele>182.2002</ele>
        <time>2026-05-18T13:41:47+02:00</time>
      </trkpt>
      <trkpt lat="48.82517" lon="6.10194">
        <ele>182.2998</ele>
        <time>2026-05-18T13:41:48+02:00</time>
      </trkpt>
      <trkpt lat="48.82518" lon="6.10185">
        <ele>182.2998</ele>
        <time>2026-05-18T13:41:49+02:00</time>
      </trkpt>
      <trkpt lat="48.82519" lon="6.10177">
        <ele>182.2998</ele>
        <time>2026-05-18T13:41:50+02:00</time>
      </trkpt>
      <trkpt lat="48.82519" lon="6.10169">
        <ele>182.2998</ele>
        <time>2026-05-18T13:41:51+02:00</time>
      </trkpt>
      <trkpt lat="48.82521" lon="6.10161">
        <ele>182.40039</ele>
        <time>2026-05-18T13:41:52+02:00</time>
      </trkpt>
      <trkpt lat="48.82523" lon="6.10154">
        <ele>182.40039</ele>
        <time>2026-05-18T13:41:53+02:00</time>
      </trkpt>
      <trkpt lat="48.82524" lon="6.10148">
        <ele>182.60059</ele>
        <time>2026-05-18T13:41:54+02:00</time>
      </trkpt>
      <trkpt lat="48.82526" lon="6.10142">
        <ele>182.60059</ele>
        <time>2026-05-18T13:41:55+02:00</time>
      </trkpt>
      <trkpt lat="48.82526" lon="6.10137">
        <ele>182.60059</ele>
        <time>2026-05-18T13:41:56+02:00</time>
      </trkpt>
      <trkpt lat="48.82525" lon="6.10133">
        <ele>182.7002</ele>
        <time>2026-05-18T13:41:57+02:00</time>
      </trkpt>
      <trkpt lat="48.82523" lon="6.1013">
        <ele>182.40039</ele>
        <time>2026-05-18T13:41:58+02:00</time>
      </trkpt>
      <trkpt lat="48.8252" lon="6.10128">
        <ele>182.40039</ele>
        <time>2026-05-18T13:41:59+02:00</time>
      </trkpt>
      <trkpt lat="48.82518" lon="6.10127">
        <ele>182.40039</ele>
        <time>2026-05-18T13:42:00+02:00</time>
      </trkpt>
      <trkpt lat="48.82516" lon="6.10124">
        <ele>182.2998</ele>
        <time>2026-05-18T13:42:01+02:00</time>
      </trkpt>
      <trkpt lat="48.82514" lon="6.1012">
        <ele>182.2998</ele>
        <time>2026-05-18T13:42:02+02:00</time>
      </trkpt>
      <trkpt lat="48.82514" lon="6.10114">
        <ele>182.2998</ele>
        <time>2026-05-18T13:42:03+02:00</time>
      </trkpt>
      <trkpt lat="48.82513" lon="6.10109">
        <ele>182.2998</ele>
        <time>2026-05-18T13:42:04+02:00</time>
      </trkpt>
      <trkpt lat="48.82512" lon="6.10103">
        <ele>182.2998</ele>
        <time>2026-05-18T13:42:05+02:00</time>
      </trkpt>
      <trkpt lat="48.82512" lon="6.10097">
        <ele>182.2998</ele>
        <time>2026-05-18T13:42:06+02:00</time>
      </trkpt>
      <trkpt lat="48.82511" lon="6.10091">
        <ele>182.2002</ele>
        <time>2026-05-18T13:42:07+02:00</time>
      </trkpt>
      <trkpt lat="48.82509" lon="6.10085">
        <ele>182.2002</ele>
        <time>2026-05-18T13:42:08+02:00</time>
      </trkpt>
      <trkpt lat="48.82507" lon="6.10078">
        <ele>182.2002</ele>
        <time>2026-05-18T13:42:09+02:00</time>
      </trkpt>
      <trkpt lat="48.82506" lon="6.10072">
        <ele>182.2002</ele>
        <time>2026-05-18T13:42:10+02:00</time>
      </trkpt>
      <trkpt lat="48.82504" lon="6.10066">
        <ele>182.2002</ele>
        <time>2026-05-18T13:42:11+02:00</time>
      </trkpt>
      <trkpt lat="48.82504" lon="6.10059">
        <ele>182.2002</ele>
        <time>2026-05-18T13:42:12+02:00</time>
      </trkpt>
      <trkpt lat="48.82503" lon="6.10053">
        <ele>182.2002</ele>
        <time>2026-05-18T13:42:13+02:00</time>
      </trkpt>
      <trkpt lat="48.82503" lon="6.10047">
        <ele>182.2002</ele>
        <time>2026-05-18T13:42:14+02:00</time>
      </trkpt>
      <trkpt lat="48.82503" lon="6.10041">
        <ele>182.2002</ele>
        <time>2026-05-18T13:42:15+02:00</time>
      </trkpt>
      <trkpt lat="48.82504" lon="6.10036">
        <ele>182.2002</ele>
        <time>2026-05-18T13:42:16+02:00</time>
      </trkpt>
      <trkpt lat="48.82503" lon="6.10031">
        <ele>182.2002</ele>
        <time>2026-05-18T13:42:17+02:00</time>
      </trkpt>
      <trkpt lat="48.82503" lon="6.10025">
        <ele>182.2002</ele>
        <time>2026-05-18T13:42:18+02:00</time>
      </trkpt>
      <trkpt lat="48.82503" lon="6.10019">
        <ele>182.2002</ele>
        <time>2026-05-18T13:42:19+02:00</time>
      </trkpt>
      <trkpt lat="48.82504" lon="6.10013">
        <ele>182.2002</ele>
        <time>2026-05-18T13:42:20+02:00</time>
      </trkpt>
      <trkpt lat="48.82504" lon="6.10006">
        <ele>182.2002</ele>
        <time>2026-05-18T13:42:21+02:00</time>
      </trkpt>
      <trkpt lat="48.82504" lon="6.09998">
        <ele>182.2002</ele>
        <time>2026-05-18T13:42:22+02:00</time>
      </trkpt>
      <trkpt lat="48.82505" lon="6.0999">
        <ele>182.2002</ele>
        <time>2026-05-18T13:42:23+02:00</time>
      </trkpt>
      <trkpt lat="48.82505" lon="6.09981">
        <ele>182.2002</ele>
        <time>2026-05-18T13:42:24+02:00</time>
      </trkpt>
      <trkpt lat="48.82505" lon="6.09972">
        <ele>182.2002</ele>
        <time>2026-05-18T13:42:25+02:00</time>
      </trkpt>
      <trkpt lat="48.82504" lon="6.09964">
        <ele>182.10059</ele>
        <time>2026-05-18T13:42:26+02:00</time>
      </trkpt>
      <trkpt lat="48.82502" lon="6.09957">
        <ele>182.10059</ele>
        <time>2026-05-18T13:42:27+02:00</time>
      </trkpt>
      <trkpt lat="48.82501" lon="6.0995">
        <ele>182.10059</ele>
        <time>2026-05-18T13:42:28+02:00</time>
      </trkpt>
      <trkpt lat="48.82499" lon="6.09942">
        <ele>182.2002</ele>
        <time>2026-05-18T13:42:29+02:00</time>
      </trkpt>
      <trkpt lat="48.82498" lon="6.09934">
        <ele>182.2002</ele>
        <time>2026-05-18T13:42:30+02:00</time>
      </trkpt>
      <trkpt lat="48.82497" lon="6.09926">
        <ele>182.2002</ele>
        <time>2026-05-18T13:42:31+02:00</time>
      </trkpt>
      <trkpt lat="48.82496" lon="6.09918">
        <ele>182.2002</ele>
        <time>2026-05-18T13:42:32+02:00</time>
      </trkpt>
      <trkpt lat="48.82496" lon="6.09909">
        <ele>182.2002</ele>
        <time>2026-05-18T13:42:33+02:00</time>
      </trkpt>
      <trkpt lat="48.82496" lon="6.099">
        <ele>182.2002</ele>
        <time>2026-05-18T13:42:34+02:00</time>
      </trkpt>
      <trkpt lat="48.82495" lon="6.09891">
        <ele>182.2002</ele>
        <time>2026-05-18T13:42:35+02:00</time>
      </trkpt>
      <trkpt lat="48.82495" lon="6.09882">
        <ele>182.2002</ele>
        <time>2026-05-18T13:42:36+02:00</time>
      </trkpt>
      <trkpt lat="48.82494" lon="6.09873">
        <ele>182.2998</ele>
        <time>2026-05-18T13:42:37+02:00</time>
      </trkpt>
      <trkpt lat="48.82493" lon="6.09864">
        <ele>182.2998</ele>
        <time>2026-05-18T13:42:38+02:00</time>
      </trkpt>
      <trkpt lat="48.82491" lon="6.09855">
        <ele>182.2998</ele>
        <time>2026-05-18T13:42:39+02:00</time>
      </trkpt>
      <trkpt lat="48.8249" lon="6.09846">
        <ele>182.2998</ele>
        <time>2026-05-18T13:42:40+02:00</time>
      </trkpt>
      <trkpt lat="48.82489" lon="6.09838">
        <ele>182.2998</ele>
        <time>2026-05-18T13:42:41+02:00</time>
      </trkpt>
      <trkpt lat="48.82487" lon="6.09829">
        <ele>182.2998</ele>
        <time>2026-05-18T13:42:42+02:00</time>
      </trkpt>
      <trkpt lat="48.82486" lon="6.0982">
        <ele>182.2998</ele>
        <time>2026-05-18T13:42:43+02:00</time>
      </trkpt>
      <trkpt lat="48.82484" lon="6.09812">
        <ele>182.2998</ele>
        <time>2026-05-18T13:42:44+02:00</time>
      </trkpt>
      <trkpt lat="48.82482" lon="6.09803">
        <ele>182.2998</ele>
        <time>2026-05-18T13:42:45+02:00</time>
      </trkpt>
      <trkpt lat="48.8248" lon="6.09795">
        <ele>182.2998</ele>
        <time>2026-05-18T13:42:46+02:00</time>
      </trkpt>
      <trkpt lat="48.82478" lon="6.09787">
        <ele>182.2998</ele>
        <time>2026-05-18T13:42:47+02:00</time>
      </trkpt>
      <trkpt lat="48.82476" lon="6.09779">
        <ele>182.2998</ele>
        <time>2026-05-18T13:42:48+02:00</time>
      </trkpt>
      <trkpt lat="48.82474" lon="6.09771">
        <ele>182.2998</ele>
        <time>2026-05-18T13:42:49+02:00</time>
      </trkpt>
      <trkpt lat="48.82472" lon="6.09762">
        <ele>182.2998</ele>
        <time>2026-05-18T13:42:50+02:00</time>
      </trkpt>
      <trkpt lat="48.8247" lon="6.09753">
        <ele>182.2998</ele>
        <time>2026-05-18T13:42:51+02:00</time>
      </trkpt>
      <trkpt lat="48.82467" lon="6.09744">
        <ele>182.2998</ele>
        <time>2026-05-18T13:42:52+02:00</time>
      </trkpt>
      <trkpt lat="48.82465" lon="6.09735">
        <ele>182.2998</ele>
        <time>2026-05-18T13:42:53+02:00</time>
      </trkpt>
      <trkpt lat="48.82464" lon="6.09727">
        <ele>182.2998</ele>
        <time>2026-05-18T13:42:54+02:00</time>
      </trkpt>
      <trkpt lat="48.82462" lon="6.09719">
        <ele>182.2998</ele>
        <time>2026-05-18T13:42:55+02:00</time>
      </trkpt>
      <trkpt lat="48.8246" lon="6.09711">
        <ele>182.2998</ele>
        <time>2026-05-18T13:42:56+02:00</time>
      </trkpt>
      <trkpt lat="48.82458" lon="6.09704">
        <ele>182.2998</ele>
        <time>2026-05-18T13:42:57+02:00</time>
      </trkpt>
      <trkpt lat="48.82456" lon="6.09696">
        <ele>182.2998</ele>
        <time>2026-05-18T13:42:58+02:00</time>
      </trkpt>
      <trkpt lat="48.82454" lon="6.09687">
        <ele>182.2998</ele>
        <time>2026-05-18T13:42:59+02:00</time>
      </trkpt>
      <trkpt lat="48.82452" lon="6.09679">
        <ele>182.2998</ele>
        <time>2026-05-18T13:43:00+02:00</time>
      </trkpt>
      <trkpt lat="48.8245" lon="6.09671">
        <ele>182.2998</ele>
        <time>2026-05-18T13:43:01+02:00</time>
      </trkpt>
      <trkpt lat="48.82448" lon="6.09664">
        <ele>182.2998</ele>
        <time>2026-05-18T13:43:02+02:00</time>
      </trkpt>
      <trkpt lat="48.82446" lon="6.09656">
        <ele>182.2998</ele>
        <time>2026-05-18T13:43:03+02:00</time>
      </trkpt>
      <trkpt lat="48.82444" lon="6.09647">
        <ele>182.2998</ele>
        <time>2026-05-18T13:43:04+02:00</time>
      </trkpt>
      <trkpt lat="48.82443" lon="6.09639">
        <ele>182.2998</ele>
        <time>2026-05-18T13:43:05+02:00</time>
      </trkpt>
      <trkpt lat="48.82441" lon="6.0963">
        <ele>182.2998</ele>
        <time>2026-05-18T13:43:06+02:00</time>
      </trkpt>
      <trkpt lat="48.8244" lon="6.09621">
        <ele>182.2998</ele>
        <time>2026-05-18T13:43:07+02:00</time>
      </trkpt>
      <trkpt lat="48.82438" lon="6.09613">
        <ele>182.2998</ele>
        <time>2026-05-18T13:43:08+02:00</time>
      </trkpt>
      <trkpt lat="48.82437" lon="6.09604">
        <ele>182.2998</ele>
        <time>2026-05-18T13:43:09+02:00</time>
      </trkpt>
      <trkpt lat="48.82436" lon="6.09596">
        <ele>182.2998</ele>
        <time>2026-05-18T13:43:10+02:00</time>
      </trkpt>
      <trkpt lat="48.82434" lon="6.09587">
        <ele>182.2998</ele>
        <time>2026-05-18T13:43:11+02:00</time>
      </trkpt>
      <trkpt lat="48.82433" lon="6.09578">
        <ele>182.2998</ele>
        <time>2026-05-18T13:43:12+02:00</time>
      </trkpt>
      <trkpt lat="48.82431" lon="6.0957">
        <ele>182.2998</ele>
        <time>2026-05-18T13:43:13+02:00</time>
      </trkpt>
      <trkpt lat="48.82429" lon="6.09562">
        <ele>182.2998</ele>
        <time>2026-05-18T13:43:14+02:00</time>
      </trkpt>
      <trkpt lat="48.82427" lon="6.09553">
        <ele>182.2998</ele>
        <time>2026-05-18T13:43:15+02:00</time>
      </trkpt>
      <trkpt lat="48.82425" lon="6.09544">
        <ele>182.2998</ele>
        <time>2026-05-18T13:43:16+02:00</time>
      </trkpt>
      <trkpt lat="48.82424" lon="6.09535">
        <ele>182.2998</ele>
        <time>2026-05-18T13:43:17+02:00</time>
      </trkpt>
      <trkpt lat="48.82423" lon="6.09525">
        <ele>182.2998</ele>
        <time>2026-05-18T13:43:18+02:00</time>
      </trkpt>
      <trkpt lat="48.82421" lon="6.09516">
        <ele>182.2998</ele>
        <time>2026-05-18T13:43:19+02:00</time>
      </trkpt>
      <trkpt lat="48.8242" lon="6.09506">
        <ele>182.2998</ele>
        <time>2026-05-18T13:43:20+02:00</time>
      </trkpt>
      <trkpt lat="48.82418" lon="6.09497">
        <ele>182.2002</ele>
        <time>2026-05-18T13:43:21+02:00</time>
      </trkpt>
      <trkpt lat="48.82416" lon="6.09489">
        <ele>182.2002</ele>
        <time>2026-05-18T13:43:22+02:00</time>
      </trkpt>
      <trkpt lat="48.82415" lon="6.09481">
        <ele>182.2002</ele>
        <time>2026-05-18T13:43:23+02:00</time>
      </trkpt>
      <trkpt lat="48.82414" lon="6.09472">
        <ele>182.2998</ele>
        <time>2026-05-18T13:43:24+02:00</time>
      </trkpt>
      <trkpt lat="48.82413" lon="6.09463">
        <ele>182.2998</ele>
        <time>2026-05-18T13:43:25+02:00</time>
      </trkpt>
      <trkpt lat="48.82412" lon="6.09453">
        <ele>182.5</ele>
        <time>2026-05-18T13:43:26+02:00</time>
      </trkpt>
      <trkpt lat="48.82411" lon="6.09445">
        <ele>182.7002</ele>
        <time>2026-05-18T13:43:27+02:00</time>
      </trkpt>
      <trkpt lat="48.8241" lon="6.09436">
        <ele>182.40039</ele>
        <time>2026-05-18T13:43:28+02:00</time>
      </trkpt>
      <trkpt lat="48.82409" lon="6.09428">
        <ele>182.2998</ele>
        <time>2026-05-18T13:43:29+02:00</time>
      </trkpt>
      <trkpt lat="48.82408" lon="6.09421">
        <ele>182.10059</ele>
        <time>2026-05-18T13:43:30+02:00</time>
      </trkpt>
      <trkpt lat="48.82408" lon="6.09412">
        <ele>181.7998</ele>
        <time>2026-05-18T13:43:31+02:00</time>
      </trkpt>
      <trkpt lat="48.82409" lon="6.09403">
        <ele>181.7002</ele>
        <time>2026-05-18T13:43:32+02:00</time>
      </trkpt>
      <trkpt lat="48.82412" lon="6.09394">
        <ele>182.60059</ele>
        <time>2026-05-18T13:43:33+02:00</time>
      </trkpt>
      <trkpt lat="48.82416" lon="6.09387">
        <ele>183.7002</ele>
        <time>2026-05-18T13:43:34+02:00</time>
      </trkpt>
      <trkpt lat="48.8242" lon="6.0938">
        <ele>183.7998</ele>
        <time>2026-05-18T13:43:35+02:00</time>
      </trkpt>
      <trkpt lat="48.82425" lon="6.09374">
        <ele>184.7002</ele>
        <time>2026-05-18T13:43:36+02:00</time>
      </trkpt>
      <trkpt lat="48.8243" lon="6.09369">
        <ele>185.7002</ele>
        <time>2026-05-18T13:43:37+02:00</time>
      </trkpt>
      <trkpt lat="48.82436" lon="6.09364">
        <ele>186.60059</ele>
        <time>2026-05-18T13:43:38+02:00</time>
      </trkpt>
      <trkpt lat="48.8244" lon="6.09359">
        <ele>187.5</ele>
        <time>2026-05-18T13:43:39+02:00</time>
      </trkpt>
      <trkpt lat="48.82445" lon="6.09354">
        <ele>188.10059</ele>
        <time>2026-05-18T13:43:40+02:00</time>
      </trkpt>
      <trkpt lat="48.8245" lon="6.09349">
        <ele>188.40039</ele>
        <time>2026-05-18T13:43:41+02:00</time>
      </trkpt>
      <trkpt lat="48.82455" lon="6.09345">
        <ele>188.40039</ele>
        <time>2026-05-18T13:43:42+02:00</time>
      </trkpt>
      <trkpt lat="48.82461" lon="6.09341">
        <ele>188.2998</ele>
        <time>2026-05-18T13:43:43+02:00</time>
      </trkpt>
      <trkpt lat="48.82467" lon="6.09337">
        <ele>188.2998</ele>
        <time>2026-05-18T13:43:44+02:00</time>
      </trkpt>
      <trkpt lat="48.82473" lon="6.09334">
        <ele>188.40039</ele>
        <time>2026-05-18T13:43:45+02:00</time>
      </trkpt>
      <trkpt lat="48.82479" lon="6.09332">
        <ele>188.40039</ele>
        <time>2026-05-18T13:43:46+02:00</time>
      </trkpt>
      <trkpt lat="48.82485" lon="6.09331">
        <ele>188.2998</ele>
        <time>2026-05-18T13:43:47+02:00</time>
      </trkpt>
      <trkpt lat="48.82491" lon="6.09331">
        <ele>188</ele>
        <time>2026-05-18T13:43:48+02:00</time>
      </trkpt>
      <trkpt lat="48.82497" lon="6.09331">
        <ele>187.5</ele>
        <time>2026-05-18T13:43:49+02:00</time>
      </trkpt>
      <trkpt lat="48.82503" lon="6.09329">
        <ele>187.2998</ele>
        <time>2026-05-18T13:43:50+02:00</time>
      </trkpt>
      <trkpt lat="48.82508" lon="6.09325">
        <ele>186.7002</ele>
        <time>2026-05-18T13:43:51+02:00</time>
      </trkpt>
      <trkpt lat="48.82512" lon="6.09318">
        <ele>186.7002</ele>
        <time>2026-05-18T13:43:52+02:00</time>
      </trkpt>
      <trkpt lat="48.82515" lon="6.09311">
        <ele>187.10059</ele>
        <time>2026-05-18T13:43:53+02:00</time>
      </trkpt>
      <trkpt lat="48.82519" lon="6.09303">
        <ele>187</ele>
        <time>2026-05-18T13:43:54+02:00</time>
      </trkpt>
      <trkpt lat="48.82522" lon="6.09295">
        <ele>187</ele>
        <time>2026-05-18T13:43:55+02:00</time>
      </trkpt>
      <trkpt lat="48.82525" lon="6.09287">
        <ele>186.7002</ele>
        <time>2026-05-18T13:43:56+02:00</time>
      </trkpt>
      <trkpt lat="48.82528" lon="6.09278">
        <ele>186.7002</ele>
        <time>2026-05-18T13:43:57+02:00</time>
      </trkpt>
      <trkpt lat="48.82532" lon="6.09271">
        <ele>186.5</ele>
        <time>2026-05-18T13:43:58+02:00</time>
      </trkpt>
      <trkpt lat="48.82536" lon="6.09262">
        <ele>186.2998</ele>
        <time>2026-05-18T13:43:59+02:00</time>
      </trkpt>
      <trkpt lat="48.8254" lon="6.09254">
        <ele>186.10059</ele>
        <time>2026-05-18T13:44:00+02:00</time>
      </trkpt>
      <trkpt lat="48.82544" lon="6.09245">
        <ele>186.10059</ele>
        <time>2026-05-18T13:44:01+02:00</time>
      </trkpt>
      <trkpt lat="48.82548" lon="6.09236">
        <ele>186</ele>
        <time>2026-05-18T13:44:02+02:00</time>
      </trkpt>
      <trkpt lat="48.82552" lon="6.09227">
        <ele>185.90039</ele>
        <time>2026-05-18T13:44:03+02:00</time>
      </trkpt>
      <trkpt lat="48.82556" lon="6.09219">
        <ele>185.90039</ele>
        <time>2026-05-18T13:44:04+02:00</time>
      </trkpt>
      <trkpt lat="48.82559" lon="6.09211">
        <ele>185.90039</ele>
        <time>2026-05-18T13:44:05+02:00</time>
      </trkpt>
      <trkpt lat="48.82561" lon="6.09202">
        <ele>186.10059</ele>
        <time>2026-05-18T13:44:06+02:00</time>
      </trkpt>
      <trkpt lat="48.82564" lon="6.09193">
        <ele>186</ele>
        <time>2026-05-18T13:44:07+02:00</time>
      </trkpt>
      <trkpt lat="48.82567" lon="6.09185">
        <ele>186</ele>
        <time>2026-05-18T13:44:08+02:00</time>
      </trkpt>
      <trkpt lat="48.82569" lon="6.09178">
        <ele>185.60059</ele>
        <time>2026-05-18T13:44:09+02:00</time>
      </trkpt>
      <trkpt lat="48.82573" lon="6.0917">
        <ele>185.2998</ele>
        <time>2026-05-18T13:44:10+02:00</time>
      </trkpt>
      <trkpt lat="48.82577" lon="6.09164">
        <ele>185.2002</ele>
        <time>2026-05-18T13:44:11+02:00</time>
      </trkpt>
      <trkpt lat="48.82581" lon="6.09158">
        <ele>185.5</ele>
        <time>2026-05-18T13:44:12+02:00</time>
      </trkpt>
      <trkpt lat="48.82585" lon="6.09152">
        <ele>185.40039</ele>
        <time>2026-05-18T13:44:13+02:00</time>
      </trkpt>
      <trkpt lat="48.82588" lon="6.09146">
        <ele>185.7002</ele>
        <time>2026-05-18T13:44:14+02:00</time>
      </trkpt>
      <trkpt lat="48.82592" lon="6.0914">
        <ele>185.60059</ele>
        <time>2026-05-18T13:44:15+02:00</time>
      </trkpt>
      <trkpt lat="48.82596" lon="6.09134">
        <ele>185.60059</ele>
        <time>2026-05-18T13:44:16+02:00</time>
      </trkpt>
      <trkpt lat="48.82601" lon="6.09128">
        <ele>185.5</ele>
        <time>2026-05-18T13:44:17+02:00</time>
      </trkpt>
      <trkpt lat="48.82605" lon="6.09121">
        <ele>185.7002</ele>
        <time>2026-05-18T13:44:18+02:00</time>
      </trkpt>
      <trkpt lat="48.82608" lon="6.09114">
        <ele>186</ele>
        <time>2026-05-18T13:44:19+02:00</time>
      </trkpt>
      <trkpt lat="48.82611" lon="6.09106">
        <ele>185.7998</ele>
        <time>2026-05-18T13:44:20+02:00</time>
      </trkpt>
      <trkpt lat="48.82613" lon="6.09098">
        <ele>185.7998</ele>
        <time>2026-05-18T13:44:21+02:00</time>
      </trkpt>
      <trkpt lat="48.82615" lon="6.09089">
        <ele>185.7002</ele>
        <time>2026-05-18T13:44:22+02:00</time>
      </trkpt>
      <trkpt lat="48.82615" lon="6.09081">
        <ele>185.40039</ele>
        <time>2026-05-18T13:44:23+02:00</time>
      </trkpt>
      <trkpt lat="48.82615" lon="6.09072">
        <ele>185.2998</ele>
        <time>2026-05-18T13:44:24+02:00</time>
      </trkpt>
      <trkpt lat="48.82616" lon="6.09064">
        <ele>185.2998</ele>
        <time>2026-05-18T13:44:25+02:00</time>
      </trkpt>
      <trkpt lat="48.82618" lon="6.09055">
        <ele>185.2002</ele>
        <time>2026-05-18T13:44:26+02:00</time>
      </trkpt>
      <trkpt lat="48.8262" lon="6.09048">
        <ele>185.2998</ele>
        <time>2026-05-18T13:44:27+02:00</time>
      </trkpt>
      <trkpt lat="48.82623" lon="6.0904">
        <ele>185</ele>
        <time>2026-05-18T13:44:28+02:00</time>
      </trkpt>
      <trkpt lat="48.82626" lon="6.09032">
        <ele>184.90039</ele>
        <time>2026-05-18T13:44:29+02:00</time>
      </trkpt>
      <trkpt lat="48.82629" lon="6.09025">
        <ele>184.40039</ele>
        <time>2026-05-18T13:44:30+02:00</time>
      </trkpt>
      <trkpt lat="48.82632" lon="6.09018">
        <ele>184.7998</ele>
        <time>2026-05-18T13:44:31+02:00</time>
      </trkpt>
      <trkpt lat="48.82636" lon="6.09011">
        <ele>184.5</ele>
        <time>2026-05-18T13:44:32+02:00</time>
      </trkpt>
      <trkpt lat="48.82639" lon="6.09004">
        <ele>185.10059</ele>
        <time>2026-05-18T13:44:33+02:00</time>
      </trkpt>
      <trkpt lat="48.82643" lon="6.08997">
        <ele>185.2998</ele>
        <time>2026-05-18T13:44:34+02:00</time>
      </trkpt>
      <trkpt lat="48.82646" lon="6.08989">
        <ele>185</ele>
        <time>2026-05-18T13:44:35+02:00</time>
      </trkpt>
      <trkpt lat="48.82649" lon="6.08982">
        <ele>185</ele>
        <time>2026-05-18T13:44:36+02:00</time>
      </trkpt>
      <trkpt lat="48.82652" lon="6.08975">
        <ele>184.7002</ele>
        <time>2026-05-18T13:44:37+02:00</time>
      </trkpt>
      <trkpt lat="48.82656" lon="6.08968">
        <ele>184.7998</ele>
        <time>2026-05-18T13:44:38+02:00</time>
      </trkpt>
      <trkpt lat="48.82659" lon="6.0896">
        <ele>185</ele>
        <time>2026-05-18T13:44:39+02:00</time>
      </trkpt>
      <trkpt lat="48.82662" lon="6.08953">
        <ele>185</ele>
        <time>2026-05-18T13:44:40+02:00</time>
      </trkpt>
      <trkpt lat="48.82666" lon="6.08945">
        <ele>184.7998</ele>
        <time>2026-05-18T13:44:41+02:00</time>
      </trkpt>
      <trkpt lat="48.82669" lon="6.08938">
        <ele>184.40039</ele>
        <time>2026-05-18T13:44:42+02:00</time>
      </trkpt>
      <trkpt lat="48.82673" lon="6.08931">
        <ele>184.2998</ele>
        <time>2026-05-18T13:44:43+02:00</time>
      </trkpt>
      <trkpt lat="48.82676" lon="6.08924">
        <ele>184.2998</ele>
        <time>2026-05-18T13:44:44+02:00</time>
      </trkpt>
      <trkpt lat="48.82679" lon="6.08917">
        <ele>183.90039</ele>
        <time>2026-05-18T13:44:45+02:00</time>
      </trkpt>
      <trkpt lat="48.82683" lon="6.08909">
        <ele>184.2002</ele>
        <time>2026-05-18T13:44:46+02:00</time>
      </trkpt>
      <trkpt lat="48.82686" lon="6.08903">
        <ele>183.7998</ele>
        <time>2026-05-18T13:44:47+02:00</time>
      </trkpt>
      <trkpt lat="48.8269" lon="6.08896">
        <ele>183.7002</ele>
        <time>2026-05-18T13:44:48+02:00</time>
      </trkpt>
      <trkpt lat="48.82693" lon="6.08889">
        <ele>183.7002</ele>
        <time>2026-05-18T13:44:49+02:00</time>
      </trkpt>
      <trkpt lat="48.82696" lon="6.08882">
        <ele>183.40039</ele>
        <time>2026-05-18T13:44:50+02:00</time>
      </trkpt>
      <trkpt lat="48.827" lon="6.08875">
        <ele>183.7002</ele>
        <time>2026-05-18T13:44:51+02:00</time>
      </trkpt>
      <trkpt lat="48.82704" lon="6.08868">
        <ele>183.7002</ele>
        <time>2026-05-18T13:44:52+02:00</time>
      </trkpt>
      <trkpt lat="48.82707" lon="6.08861">
        <ele>183.40039</ele>
        <time>2026-05-18T13:44:53+02:00</time>
      </trkpt>
      <trkpt lat="48.82711" lon="6.08854">
        <ele>183.40039</ele>
        <time>2026-05-18T13:44:54+02:00</time>
      </trkpt>
      <trkpt lat="48.82715" lon="6.08848">
        <ele>183</ele>
        <time>2026-05-18T13:44:55+02:00</time>
      </trkpt>
      <trkpt lat="48.82718" lon="6.08841">
        <ele>183.40039</ele>
        <time>2026-05-18T13:44:56+02:00</time>
      </trkpt>
      <trkpt lat="48.82722" lon="6.08835">
        <ele>183.40039</ele>
        <time>2026-05-18T13:44:57+02:00</time>
      </trkpt>
      <trkpt lat="48.82725" lon="6.08829">
        <ele>183</ele>
        <time>2026-05-18T13:44:58+02:00</time>
      </trkpt>
      <trkpt lat="48.82729" lon="6.08824">
        <ele>183.2002</ele>
        <time>2026-05-18T13:44:59+02:00</time>
      </trkpt>
      <trkpt lat="48.82733" lon="6.08818">
        <ele>183</ele>
        <time>2026-05-18T13:45:00+02:00</time>
      </trkpt>
      <trkpt lat="48.82736" lon="6.08812">
        <ele>182.7002</ele>
        <time>2026-05-18T13:45:01+02:00</time>
      </trkpt>
      <trkpt lat="48.82739" lon="6.08806">
        <ele>183</ele>
        <time>2026-05-18T13:45:02+02:00</time>
      </trkpt>
      <trkpt lat="48.82742" lon="6.088">
        <ele>182.7002</ele>
        <time>2026-05-18T13:45:03+02:00</time>
      </trkpt>
      <trkpt lat="48.82745" lon="6.08794">
        <ele>182.60059</ele>
        <time>2026-05-18T13:45:04+02:00</time>
      </trkpt>
      <trkpt lat="48.82749" lon="6.08789">
        <ele>182.60059</ele>
        <time>2026-05-18T13:45:05+02:00</time>
      </trkpt>
      <trkpt lat="48.82753" lon="6.08784">
        <ele>182.40039</ele>
        <time>2026-05-18T13:45:06+02:00</time>
      </trkpt>
      <trkpt lat="48.82757" lon="6.08778">
        <ele>181.90039</ele>
        <time>2026-05-18T13:45:07+02:00</time>
      </trkpt>
      <trkpt lat="48.8276" lon="6.08771">
        <ele>181.40039</ele>
        <time>2026-05-18T13:45:08+02:00</time>
      </trkpt>
      <trkpt lat="48.82764" lon="6.08765">
        <ele>181.60059</ele>
        <time>2026-05-18T13:45:09+02:00</time>
      </trkpt>
      <trkpt lat="48.82768" lon="6.08758">
        <ele>181.7998</ele>
        <time>2026-05-18T13:45:10+02:00</time>
      </trkpt>
      <trkpt lat="48.82772" lon="6.08751">
        <ele>182.2002</ele>
        <time>2026-05-18T13:45:11+02:00</time>
      </trkpt>
      <trkpt lat="48.82776" lon="6.08745">
        <ele>181.7002</ele>
        <time>2026-05-18T13:45:12+02:00</time>
      </trkpt>
      <trkpt lat="48.8278" lon="6.08738">
        <ele>182.10059</ele>
        <time>2026-05-18T13:45:13+02:00</time>
      </trkpt>
      <trkpt lat="48.82785" lon="6.08732">
        <ele>181.7002</ele>
        <time>2026-05-18T13:45:14+02:00</time>
      </trkpt>
      <trkpt lat="48.8279" lon="6.08726">
        <ele>181.7998</ele>
        <time>2026-05-18T13:45:15+02:00</time>
      </trkpt>
      <trkpt lat="48.82795" lon="6.0872">
        <ele>182.40039</ele>
        <time>2026-05-18T13:45:16+02:00</time>
      </trkpt>
      <trkpt lat="48.828" lon="6.08715">
        <ele>182.10059</ele>
        <time>2026-05-18T13:45:17+02:00</time>
      </trkpt>
      <trkpt lat="48.82807" lon="6.08711">
        <ele>182.2002</ele>
        <time>2026-05-18T13:45:18+02:00</time>
      </trkpt>
      <trkpt lat="48.82812" lon="6.08708">
        <ele>182.40039</ele>
        <time>2026-05-18T13:45:19+02:00</time>
      </trkpt>
      <trkpt lat="48.82818" lon="6.08705">
        <ele>182.7002</ele>
        <time>2026-05-18T13:45:20+02:00</time>
      </trkpt>
      <trkpt lat="48.82824" lon="6.08702">
        <ele>182.60059</ele>
        <time>2026-05-18T13:45:21+02:00</time>
      </trkpt>
      <trkpt lat="48.82831" lon="6.087">
        <ele>182.7998</ele>
        <time>2026-05-18T13:45:22+02:00</time>
      </trkpt>
      <trkpt lat="48.82836" lon="6.08698">
        <ele>183</ele>
        <time>2026-05-18T13:45:23+02:00</time>
      </trkpt>
      <trkpt lat="48.82843" lon="6.08696">
        <ele>183.10059</ele>
        <time>2026-05-18T13:45:24+02:00</time>
      </trkpt>
      <trkpt lat="48.82849" lon="6.08694">
        <ele>183.10059</ele>
        <time>2026-05-18T13:45:25+02:00</time>
      </trkpt>
      <trkpt lat="48.82855" lon="6.08692">
        <ele>183.10059</ele>
        <time>2026-05-18T13:45:26+02:00</time>
      </trkpt>
      <trkpt lat="48.82861" lon="6.0869">
        <ele>183.2002</ele>
        <time>2026-05-18T13:45:27+02:00</time>
      </trkpt>
      <trkpt lat="48.82868" lon="6.0869">
        <ele>183.10059</ele>
        <time>2026-05-18T13:45:28+02:00</time>
      </trkpt>
      <trkpt lat="48.82874" lon="6.0869">
        <ele>183.2998</ele>
        <time>2026-05-18T13:45:29+02:00</time>
      </trkpt>
      <trkpt lat="48.8288" lon="6.0869">
        <ele>183.40039</ele>
        <time>2026-05-18T13:45:30+02:00</time>
      </trkpt>
      <trkpt lat="48.82886" lon="6.0869">
        <ele>183.5</ele>
        <time>2026-05-18T13:45:31+02:00</time>
      </trkpt>
      <trkpt lat="48.82892" lon="6.08691">
        <ele>183.60059</ele>
        <time>2026-05-18T13:45:32+02:00</time>
      </trkpt>
      <trkpt lat="48.82897" lon="6.08694">
        <ele>183.7002</ele>
        <time>2026-05-18T13:45:33+02:00</time>
      </trkpt>
      <trkpt lat="48.82903" lon="6.08697">
        <ele>183.10059</ele>
        <time>2026-05-18T13:45:34+02:00</time>
      </trkpt>
      <trkpt lat="48.82908" lon="6.08703">
        <ele>183.10059</ele>
        <time>2026-05-18T13:45:35+02:00</time>
      </trkpt>
      <trkpt lat="48.82913" lon="6.08709">
        <ele>183.10059</ele>
        <time>2026-05-18T13:45:36+02:00</time>
      </trkpt>
      <trkpt lat="48.82917" lon="6.08716">
        <ele>183.2002</ele>
        <time>2026-05-18T13:45:37+02:00</time>
      </trkpt>
      <trkpt lat="48.82921" lon="6.08724">
        <ele>182.90039</ele>
        <time>2026-05-18T13:45:38+02:00</time>
      </trkpt>
      <trkpt lat="48.82925" lon="6.08731">
        <ele>182.60059</ele>
        <time>2026-05-18T13:45:39+02:00</time>
      </trkpt>
      <trkpt lat="48.82929" lon="6.08738">
        <ele>182.10059</ele>
        <time>2026-05-18T13:45:40+02:00</time>
      </trkpt>
      <trkpt lat="48.82932" lon="6.08745">
        <ele>182.60059</ele>
        <time>2026-05-18T13:45:41+02:00</time>
      </trkpt>
      <trkpt lat="48.82937" lon="6.08753">
        <ele>182.7998</ele>
        <time>2026-05-18T13:45:42+02:00</time>
      </trkpt>
      <trkpt lat="48.82941" lon="6.08761">
        <ele>182.2998</ele>
        <time>2026-05-18T13:45:43+02:00</time>
      </trkpt>
      <trkpt lat="48.82945" lon="6.08769">
        <ele>182</ele>
        <time>2026-05-18T13:45:44+02:00</time>
      </trkpt>
      <trkpt lat="48.8295" lon="6.08777">
        <ele>181.7002</ele>
        <time>2026-05-18T13:45:45+02:00</time>
      </trkpt>
      <trkpt lat="48.82955" lon="6.08784">
        <ele>181.90039</ele>
        <time>2026-05-18T13:45:46+02:00</time>
      </trkpt>
      <trkpt lat="48.82959" lon="6.08792">
        <ele>181.90039</ele>
        <time>2026-05-18T13:45:47+02:00</time>
      </trkpt>
      <trkpt lat="48.82965" lon="6.08798">
        <ele>181.7002</ele>
        <time>2026-05-18T13:45:48+02:00</time>
      </trkpt>
      <trkpt lat="48.82971" lon="6.08803">
        <ele>181.7998</ele>
        <time>2026-05-18T13:45:49+02:00</time>
      </trkpt>
      <trkpt lat="48.82976" lon="6.08808">
        <ele>181.7998</ele>
        <time>2026-05-18T13:45:50+02:00</time>
      </trkpt>
      <trkpt lat="48.82982" lon="6.08812">
        <ele>182.10059</ele>
        <time>2026-05-18T13:45:51+02:00</time>
      </trkpt>
      <trkpt lat="48.82987" lon="6.08817">
        <ele>182.10059</ele>
        <time>2026-05-18T13:45:52+02:00</time>
      </trkpt>
      <trkpt lat="48.82994" lon="6.0882">
        <ele>182.2002</ele>
        <time>2026-05-18T13:45:53+02:00</time>
      </trkpt>
      <trkpt lat="48.83" lon="6.08822">
        <ele>182.2002</ele>
        <time>2026-05-18T13:45:54+02:00</time>
      </trkpt>
      <trkpt lat="48.83006" lon="6.08825">
        <ele>181.7998</ele>
        <time>2026-05-18T13:45:55+02:00</time>
      </trkpt>
      <trkpt lat="48.83013" lon="6.08828">
        <ele>181.7998</ele>
        <time>2026-05-18T13:45:56+02:00</time>
      </trkpt>
      <trkpt lat="48.83019" lon="6.08831">
        <ele>182</ele>
        <time>2026-05-18T13:45:57+02:00</time>
      </trkpt>
      <trkpt lat="48.83026" lon="6.08833">
        <ele>182.40039</ele>
        <time>2026-05-18T13:45:58+02:00</time>
      </trkpt>
      <trkpt lat="48.83033" lon="6.08835">
        <ele>182.7002</ele>
        <time>2026-05-18T13:45:59+02:00</time>
      </trkpt>
      <trkpt lat="48.8304" lon="6.08837">
        <ele>182.7998</ele>
        <time>2026-05-18T13:46:00+02:00</time>
      </trkpt>
      <trkpt lat="48.83047" lon="6.08839">
        <ele>182.90039</ele>
        <time>2026-05-18T13:46:01+02:00</time>
      </trkpt>
      <trkpt lat="48.83054" lon="6.08842">
        <ele>183.10059</ele>
        <time>2026-05-18T13:46:02+02:00</time>
      </trkpt>
      <trkpt lat="48.83061" lon="6.08845">
        <ele>183.2002</ele>
        <time>2026-05-18T13:46:03+02:00</time>
      </trkpt>
      <trkpt lat="48.83067" lon="6.08848">
        <ele>183.2002</ele>
        <time>2026-05-18T13:46:04+02:00</time>
      </trkpt>
      <trkpt lat="48.83075" lon="6.08852">
        <ele>183.40039</ele>
        <time>2026-05-18T13:46:05+02:00</time>
      </trkpt>
      <trkpt lat="48.83082" lon="6.08855">
        <ele>183.2998</ele>
        <time>2026-05-18T13:46:06+02:00</time>
      </trkpt>
      <trkpt lat="48.83088" lon="6.08858">
        <ele>183.5</ele>
        <time>2026-05-18T13:46:07+02:00</time>
      </trkpt>
      <trkpt lat="48.83095" lon="6.08863">
        <ele>183.2998</ele>
        <time>2026-05-18T13:46:08+02:00</time>
      </trkpt>
      <trkpt lat="48.83101" lon="6.08866">
        <ele>183.5</ele>
        <time>2026-05-18T13:46:09+02:00</time>
      </trkpt>
      <trkpt lat="48.83108" lon="6.0887">
        <ele>183.40039</ele>
        <time>2026-05-18T13:46:10+02:00</time>
      </trkpt>
      <trkpt lat="48.83114" lon="6.08873">
        <ele>183.2998</ele>
        <time>2026-05-18T13:46:11+02:00</time>
      </trkpt>
      <trkpt lat="48.8312" lon="6.08877">
        <ele>183.7002</ele>
        <time>2026-05-18T13:46:12+02:00</time>
      </trkpt>
      <trkpt lat="48.83126" lon="6.08881">
        <ele>183.60059</ele>
        <time>2026-05-18T13:46:13+02:00</time>
      </trkpt>
      <trkpt lat="48.83132" lon="6.08885">
        <ele>184.2002</ele>
        <time>2026-05-18T13:46:14+02:00</time>
      </trkpt>
      <trkpt lat="48.83138" lon="6.08888">
        <ele>183.90039</ele>
        <time>2026-05-18T13:46:15+02:00</time>
      </trkpt>
      <trkpt lat="48.83144" lon="6.08892">
        <ele>184.2002</ele>
        <time>2026-05-18T13:46:16+02:00</time>
      </trkpt>
      <trkpt lat="48.8315" lon="6.08896">
        <ele>183.7998</ele>
        <time>2026-05-18T13:46:17+02:00</time>
      </trkpt>
      <trkpt lat="48.83156" lon="6.08899">
        <ele>183.5</ele>
        <time>2026-05-18T13:46:18+02:00</time>
      </trkpt>
      <trkpt lat="48.83161" lon="6.08902">
        <ele>183.2998</ele>
        <time>2026-05-18T13:46:19+02:00</time>
      </trkpt>
      <trkpt lat="48.83166" lon="6.08904">
        <ele>182.90039</ele>
        <time>2026-05-18T13:46:20+02:00</time>
      </trkpt>
      <trkpt lat="48.83172" lon="6.08907">
        <ele>182.5</ele>
        <time>2026-05-18T13:46:21+02:00</time>
      </trkpt>
      <trkpt lat="48.83176" lon="6.08912">
        <ele>182.40039</ele>
        <time>2026-05-18T13:46:22+02:00</time>
      </trkpt>
      <trkpt lat="48.83179" lon="6.08919">
        <ele>182.40039</ele>
        <time>2026-05-18T13:46:23+02:00</time>
      </trkpt>
      <trkpt lat="48.8318" lon="6.08926">
        <ele>182.60059</ele>
        <time>2026-05-18T13:46:24+02:00</time>
      </trkpt>
      <trkpt lat="48.8318" lon="6.08933">
        <ele>182.60059</ele>
        <time>2026-05-18T13:46:25+02:00</time>
      </trkpt>
      <trkpt lat="48.83179" lon="6.0894">
        <ele>182.7998</ele>
        <time>2026-05-18T13:46:26+02:00</time>
      </trkpt>
      <trkpt lat="48.83177" lon="6.08947">
        <ele>183.10059</ele>
        <time>2026-05-18T13:46:27+02:00</time>
      </trkpt>
      <trkpt lat="48.83175" lon="6.08954">
        <ele>183.2002</ele>
        <time>2026-05-18T13:46:28+02:00</time>
      </trkpt>
      <trkpt lat="48.83173" lon="6.08959">
        <ele>183.2002</ele>
        <time>2026-05-18T13:46:29+02:00</time>
      </trkpt>
      <trkpt lat="48.83172" lon="6.08962">
        <ele>183.2002</ele>
        <time>2026-05-18T13:46:30+02:00</time>
      </trkpt>
      <trkpt lat="48.83173" lon="6.08964">
        <ele>183.2002</ele>
        <time>2026-05-18T13:46:31+02:00</time>
      </trkpt>
      <trkpt lat="48.83174" lon="6.08964">
        <ele>183.2002</ele>
        <time>2026-05-18T13:46:32+02:00</time>
      </trkpt>
      <trkpt lat="48.83175" lon="6.08963">
        <ele>183.2002</ele>
        <time>2026-05-18T13:46:33+02:00</time>
      </trkpt>
      <trkpt lat="48.83177" lon="6.08963">
        <ele>183.2002</ele>
        <time>2026-05-18T13:46:34+02:00</time>
      </trkpt>
      <trkpt lat="48.83178" lon="6.08964">
        <ele>183.2002</ele>
        <time>2026-05-18T13:46:35+02:00</time>
      </trkpt>
      <trkpt lat="48.8318" lon="6.08966">
        <ele>183.2002</ele>
        <time>2026-05-18T13:46:36+02:00</time>
      </trkpt>
      <trkpt lat="48.83181" lon="6.08968">
        <ele>183.2002</ele>
        <time>2026-05-18T13:46:37+02:00</time>
      </trkpt>
      <trkpt lat="48.83182" lon="6.0897">
        <ele>183.2002</ele>
        <time>2026-05-18T13:46:38+02:00</time>
      </trkpt>
      <trkpt lat="48.83184" lon="6.08973">
        <ele>183.2002</ele>
        <time>2026-05-18T13:46:39+02:00</time>
      </trkpt>
      <trkpt lat="48.83186" lon="6.08976">
        <ele>183.2002</ele>
        <time>2026-05-18T13:46:40+02:00</time>
      </trkpt>
      <trkpt lat="48.83188" lon="6.0898">
        <ele>183</ele>
        <time>2026-05-18T13:46:41+02:00</time>
      </trkpt>
      <trkpt lat="48.83191" lon="6.08985">
        <ele>183</ele>
        <time>2026-05-18T13:46:42+02:00</time>
      </trkpt>
      <trkpt lat="48.83193" lon="6.0899">
        <ele>182.7998</ele>
        <time>2026-05-18T13:46:43+02:00</time>
      </trkpt>
      <trkpt lat="48.83196" lon="6.08996">
        <ele>182.60059</ele>
        <time>2026-05-18T13:46:44+02:00</time>
      </trkpt>
      <trkpt lat="48.83199" lon="6.09001">
        <ele>182.60059</ele>
        <time>2026-05-18T13:46:45+02:00</time>
      </trkpt>
      <trkpt lat="48.83202" lon="6.09006">
        <ele>182.5</ele>
        <time>2026-05-18T13:46:46+02:00</time>
      </trkpt>
      <trkpt lat="48.83206" lon="6.0901">
        <ele>182.5</ele>
        <time>2026-05-18T13:46:47+02:00</time>
      </trkpt>
      <trkpt lat="48.83209" lon="6.09015">
        <ele>182.60059</ele>
        <time>2026-05-18T13:46:48+02:00</time>
      </trkpt>
      <trkpt lat="48.83213" lon="6.09019">
        <ele>182.5</ele>
        <time>2026-05-18T13:46:49+02:00</time>
      </trkpt>
      <trkpt lat="48.83217" lon="6.09023">
        <ele>183.10059</ele>
        <time>2026-05-18T13:46:50+02:00</time>
      </trkpt>
      <trkpt lat="48.8322" lon="6.09028">
        <ele>183</ele>
        <time>2026-05-18T13:46:51+02:00</time>
      </trkpt>
      <trkpt lat="48.83223" lon="6.09033">
        <ele>183.40039</ele>
        <time>2026-05-18T13:46:52+02:00</time>
      </trkpt>
      <trkpt lat="48.83227" lon="6.09039">
        <ele>183.5</ele>
        <time>2026-05-18T13:46:53+02:00</time>
      </trkpt>
      <trkpt lat="48.83231" lon="6.09045">
        <ele>183.2998</ele>
        <time>2026-05-18T13:46:54+02:00</time>
      </trkpt>
      <trkpt lat="48.83234" lon="6.09051">
        <ele>183.60059</ele>
        <time>2026-05-18T13:46:55+02:00</time>
      </trkpt>
      <trkpt lat="48.83238" lon="6.09057">
        <ele>183.7998</ele>
        <time>2026-05-18T13:46:56+02:00</time>
      </trkpt>
      <trkpt lat="48.83242" lon="6.09063">
        <ele>183.7002</ele>
        <time>2026-05-18T13:46:57+02:00</time>
      </trkpt>
      <trkpt lat="48.83246" lon="6.09069">
        <ele>183.90039</ele>
        <time>2026-05-18T13:46:58+02:00</time>
      </trkpt>
      <trkpt lat="48.83251" lon="6.09075">
        <ele>183.90039</ele>
        <time>2026-05-18T13:46:59+02:00</time>
      </trkpt>
      <trkpt lat="48.83256" lon="6.09081">
        <ele>183.60059</ele>
        <time>2026-05-18T13:47:00+02:00</time>
      </trkpt>
      <trkpt lat="48.8326" lon="6.09087">
        <ele>183.2002</ele>
        <time>2026-05-18T13:47:01+02:00</time>
      </trkpt>
      <trkpt lat="48.83265" lon="6.09092">
        <ele>183.10059</ele>
        <time>2026-05-18T13:47:02+02:00</time>
      </trkpt>
      <trkpt lat="48.8327" lon="6.09097">
        <ele>182.90039</ele>
        <time>2026-05-18T13:47:03+02:00</time>
      </trkpt>
      <trkpt lat="48.83275" lon="6.09104">
        <ele>182.90039</ele>
        <time>2026-05-18T13:47:04+02:00</time>
      </trkpt>
      <trkpt lat="48.83279" lon="6.09111">
        <ele>183.2002</ele>
        <time>2026-05-18T13:47:05+02:00</time>
      </trkpt>
      <trkpt lat="48.83283" lon="6.09118">
        <ele>183.40039</ele>
        <time>2026-05-18T13:47:06+02:00</time>
      </trkpt>
      <trkpt lat="48.83287" lon="6.09126">
        <ele>183.7002</ele>
        <time>2026-05-18T13:47:07+02:00</time>
      </trkpt>
      <trkpt lat="48.83291" lon="6.09133">
        <ele>183.90039</ele>
        <time>2026-05-18T13:47:08+02:00</time>
      </trkpt>
      <trkpt lat="48.83295" lon="6.09141">
        <ele>184.10059</ele>
        <time>2026-05-18T13:47:09+02:00</time>
      </trkpt>
      <trkpt lat="48.833" lon="6.09148">
        <ele>184.10059</ele>
        <time>2026-05-18T13:47:10+02:00</time>
      </trkpt>
      <trkpt lat="48.83304" lon="6.09155">
        <ele>184.40039</ele>
        <time>2026-05-18T13:47:11+02:00</time>
      </trkpt>
      <trkpt lat="48.83309" lon="6.09162">
        <ele>184.7998</ele>
        <time>2026-05-18T13:47:12+02:00</time>
      </trkpt>
      <trkpt lat="48.83314" lon="6.09167">
        <ele>185</ele>
        <time>2026-05-18T13:47:13+02:00</time>
      </trkpt>
      <trkpt lat="48.8332" lon="6.09172">
        <ele>185.10059</ele>
        <time>2026-05-18T13:47:14+02:00</time>
      </trkpt>
      <trkpt lat="48.83326" lon="6.09175">
        <ele>185.2998</ele>
        <time>2026-05-18T13:47:15+02:00</time>
      </trkpt>
      <trkpt lat="48.83332" lon="6.09176">
        <ele>185.2998</ele>
        <time>2026-05-18T13:47:16+02:00</time>
      </trkpt>
      <trkpt lat="48.83338" lon="6.09175">
        <ele>185.2998</ele>
        <time>2026-05-18T13:47:17+02:00</time>
      </trkpt>
      <trkpt lat="48.83344" lon="6.09172">
        <ele>185.10059</ele>
        <time>2026-05-18T13:47:18+02:00</time>
      </trkpt>
      <trkpt lat="48.8335" lon="6.09169">
        <ele>185</ele>
        <time>2026-05-18T13:47:19+02:00</time>
      </trkpt>
      <trkpt lat="48.83355" lon="6.09165">
        <ele>184.7002</ele>
        <time>2026-05-18T13:47:20+02:00</time>
      </trkpt>
      <trkpt lat="48.8336" lon="6.09161">
        <ele>184.7002</ele>
        <time>2026-05-18T13:47:21+02:00</time>
      </trkpt>
      <trkpt lat="48.83366" lon="6.09156">
        <ele>184.40039</ele>
        <time>2026-05-18T13:47:22+02:00</time>
      </trkpt>
      <trkpt lat="48.83372" lon="6.09153">
        <ele>184.5</ele>
        <time>2026-05-18T13:47:23+02:00</time>
      </trkpt>
      <trkpt lat="48.83378" lon="6.09149">
        <ele>184.10059</ele>
        <time>2026-05-18T13:47:24+02:00</time>
      </trkpt>
      <trkpt lat="48.83383" lon="6.09145">
        <ele>184.2002</ele>
        <time>2026-05-18T13:47:25+02:00</time>
      </trkpt>
      <trkpt lat="48.83389" lon="6.09141">
        <ele>184.2002</ele>
        <time>2026-05-18T13:47:26+02:00</time>
      </trkpt>
      <trkpt lat="48.83396" lon="6.09137">
        <ele>183.7998</ele>
        <time>2026-05-18T13:47:27+02:00</time>
      </trkpt>
      <trkpt lat="48.83402" lon="6.09132">
        <ele>183.90039</ele>
        <time>2026-05-18T13:47:28+02:00</time>
      </trkpt>
      <trkpt lat="48.83408" lon="6.09126">
        <ele>183.7002</ele>
        <time>2026-05-18T13:47:29+02:00</time>
      </trkpt>
      <trkpt lat="48.83413" lon="6.0912">
        <ele>183.60059</ele>
        <time>2026-05-18T13:47:30+02:00</time>
      </trkpt>
      <trkpt lat="48.83419" lon="6.09114">
        <ele>183.5</ele>
        <time>2026-05-18T13:47:31+02:00</time>
      </trkpt>
      <trkpt lat="48.83424" lon="6.09107">
        <ele>183.7002</ele>
        <time>2026-05-18T13:47:32+02:00</time>
      </trkpt>
      <trkpt lat="48.83428" lon="6.091">
        <ele>183.5</ele>
        <time>2026-05-18T13:47:33+02:00</time>
      </trkpt>
      <trkpt lat="48.83433" lon="6.09093">
        <ele>183.40039</ele>
        <time>2026-05-18T13:47:34+02:00</time>
      </trkpt>
      <trkpt lat="48.83438" lon="6.09086">
        <ele>183</ele>
        <time>2026-05-18T13:47:35+02:00</time>
      </trkpt>
      <trkpt lat="48.83444" lon="6.0908">
        <ele>183</ele>
        <time>2026-05-18T13:47:36+02:00</time>
      </trkpt>
      <trkpt lat="48.83449" lon="6.09075">
        <ele>183.2002</ele>
        <time>2026-05-18T13:47:37+02:00</time>
      </trkpt>
      <trkpt lat="48.83454" lon="6.09069">
        <ele>183.10059</ele>
        <time>2026-05-18T13:47:38+02:00</time>
      </trkpt>
      <trkpt lat="48.8346" lon="6.09064">
        <ele>183.40039</ele>
        <time>2026-05-18T13:47:39+02:00</time>
      </trkpt>
      <trkpt lat="48.83465" lon="6.0906">
        <ele>182.90039</ele>
        <time>2026-05-18T13:47:40+02:00</time>
      </trkpt>
      <trkpt lat="48.8347" lon="6.09059">
        <ele>182.90039</ele>
        <time>2026-05-18T13:47:41+02:00</time>
      </trkpt>
      <trkpt lat="48.83475" lon="6.0906">
        <ele>182.7002</ele>
        <time>2026-05-18T13:47:42+02:00</time>
      </trkpt>
      <trkpt lat="48.83479" lon="6.09064">
        <ele>182.7002</ele>
        <time>2026-05-18T13:47:43+02:00</time>
      </trkpt>
      <trkpt lat="48.83483" lon="6.0907">
        <ele>182.7002</ele>
        <time>2026-05-18T13:47:44+02:00</time>
      </trkpt>
      <trkpt lat="48.83486" lon="6.09077">
        <ele>182.10059</ele>
        <time>2026-05-18T13:47:45+02:00</time>
      </trkpt>
      <trkpt lat="48.83489" lon="6.09085">
        <ele>182.60059</ele>
        <time>2026-05-18T13:47:46+02:00</time>
      </trkpt>
      <trkpt lat="48.83492" lon="6.09093">
        <ele>183.40039</ele>
        <time>2026-05-18T13:47:47+02:00</time>
      </trkpt>
      <trkpt lat="48.83496" lon="6.09101">
        <ele>184.7998</ele>
        <time>2026-05-18T13:47:48+02:00</time>
      </trkpt>
      <trkpt lat="48.835" lon="6.09109">
        <ele>186</ele>
        <time>2026-05-18T13:47:49+02:00</time>
      </trkpt>
      <trkpt lat="48.83504" lon="6.09115">
        <ele>185.5</ele>
        <time>2026-05-18T13:47:50+02:00</time>
      </trkpt>
      <trkpt lat="48.8351" lon="6.09119">
        <ele>184.2998</ele>
        <time>2026-05-18T13:47:51+02:00</time>
      </trkpt>
      <trkpt lat="48.83516" lon="6.09122">
        <ele>183.2998</ele>
        <time>2026-05-18T13:47:52+02:00</time>
      </trkpt>
      <trkpt lat="48.83523" lon="6.09123">
        <ele>183.2998</ele>
        <time>2026-05-18T13:47:53+02:00</time>
      </trkpt>
      <trkpt lat="48.83529" lon="6.09124">
        <ele>185.2002</ele>
        <time>2026-05-18T13:47:54+02:00</time>
      </trkpt>
      <trkpt lat="48.83536" lon="6.09123">
        <ele>184.2002</ele>
        <time>2026-05-18T13:47:55+02:00</time>
      </trkpt>
      <trkpt lat="48.83543" lon="6.09122">
        <ele>184.2998</ele>
        <time>2026-05-18T13:47:56+02:00</time>
      </trkpt>
      <trkpt lat="48.83549" lon="6.09121">
        <ele>184.2998</ele>
        <time>2026-05-18T13:47:57+02:00</time>
      </trkpt>
      <trkpt lat="48.83556" lon="6.0912">
        <ele>184.2998</ele>
        <time>2026-05-18T13:47:58+02:00</time>
      </trkpt>
      <trkpt lat="48.83563" lon="6.09118">
        <ele>184.2998</ele>
        <time>2026-05-18T13:47:59+02:00</time>
      </trkpt>
      <trkpt lat="48.83569" lon="6.09117">
        <ele>184.2998</ele>
        <time>2026-05-18T13:48:00+02:00</time>
      </trkpt>
      <trkpt lat="48.83575" lon="6.09115">
        <ele>184.2998</ele>
        <time>2026-05-18T13:48:01+02:00</time>
      </trkpt>
      <trkpt lat="48.83581" lon="6.09114">
        <ele>183.2998</ele>
        <time>2026-05-18T13:48:02+02:00</time>
      </trkpt>
      <trkpt lat="48.83587" lon="6.09113">
        <ele>183.40039</ele>
        <time>2026-05-18T13:48:03+02:00</time>
      </trkpt>
      <trkpt lat="48.83594" lon="6.09111">
        <ele>183.5</ele>
        <time>2026-05-18T13:48:04+02:00</time>
      </trkpt>
      <trkpt lat="48.836" lon="6.0911">
        <ele>183.60059</ele>
        <time>2026-05-18T13:48:05+02:00</time>
      </trkpt>
      <trkpt lat="48.83607" lon="6.09108">
        <ele>183.7002</ele>
        <time>2026-05-18T13:48:06+02:00</time>
      </trkpt>
      <trkpt lat="48.83613" lon="6.09107">
        <ele>183.7998</ele>
        <time>2026-05-18T13:48:07+02:00</time>
      </trkpt>
      <trkpt lat="48.83619" lon="6.09104">
        <ele>183.2998</ele>
        <time>2026-05-18T13:48:08+02:00</time>
      </trkpt>
      <trkpt lat="48.83626" lon="6.09099">
        <ele>183.60059</ele>
        <time>2026-05-18T13:48:09+02:00</time>
      </trkpt>
      <trkpt lat="48.83631" lon="6.09095">
        <ele>183.2002</ele>
        <time>2026-05-18T13:48:10+02:00</time>
      </trkpt>
      <trkpt lat="48.83636" lon="6.09092">
        <ele>183.2002</ele>
        <time>2026-05-18T13:48:11+02:00</time>
      </trkpt>
      <trkpt lat="48.83642" lon="6.09091">
        <ele>183.5</ele>
        <time>2026-05-18T13:48:12+02:00</time>
      </trkpt>
      <trkpt lat="48.83648" lon="6.09091">
        <ele>184.10059</ele>
        <time>2026-05-18T13:48:13+02:00</time>
      </trkpt>
      <trkpt lat="48.83654" lon="6.09091">
        <ele>184.2998</ele>
        <time>2026-05-18T13:48:14+02:00</time>
      </trkpt>
      <trkpt lat="48.83661" lon="6.0909">
        <ele>184.40039</ele>
        <time>2026-05-18T13:48:15+02:00</time>
      </trkpt>
      <trkpt lat="48.83667" lon="6.09089">
        <ele>184.5</ele>
        <time>2026-05-18T13:48:16+02:00</time>
      </trkpt>
      <trkpt lat="48.83674" lon="6.09088">
        <ele>184.40039</ele>
        <time>2026-05-18T13:48:17+02:00</time>
      </trkpt>
      <trkpt lat="48.8368" lon="6.09087">
        <ele>184.2998</ele>
        <time>2026-05-18T13:48:18+02:00</time>
      </trkpt>
      <trkpt lat="48.83686" lon="6.09087">
        <ele>184.2998</ele>
        <time>2026-05-18T13:48:19+02:00</time>
      </trkpt>
      <trkpt lat="48.83693" lon="6.09086">
        <ele>184.10059</ele>
        <time>2026-05-18T13:48:20+02:00</time>
      </trkpt>
      <trkpt lat="48.83699" lon="6.09085">
        <ele>184</ele>
        <time>2026-05-18T13:48:21+02:00</time>
      </trkpt>
      <trkpt lat="48.83705" lon="6.09085">
        <ele>184</ele>
        <time>2026-05-18T13:48:22+02:00</time>
      </trkpt>
      <trkpt lat="48.83712" lon="6.09084">
        <ele>183.90039</ele>
        <time>2026-05-18T13:48:23+02:00</time>
      </trkpt>
      <trkpt lat="48.83718" lon="6.09083">
        <ele>183.7998</ele>
        <time>2026-05-18T13:48:24+02:00</time>
      </trkpt>
      <trkpt lat="48.83724" lon="6.09082">
        <ele>183.7998</ele>
        <time>2026-05-18T13:48:25+02:00</time>
      </trkpt>
      <trkpt lat="48.8373" lon="6.09081">
        <ele>183.7002</ele>
        <time>2026-05-18T13:48:26+02:00</time>
      </trkpt>
      <trkpt lat="48.83736" lon="6.0908">
        <ele>183.2998</ele>
        <time>2026-05-18T13:48:27+02:00</time>
      </trkpt>
      <trkpt lat="48.83742" lon="6.09079">
        <ele>183.2998</ele>
        <time>2026-05-18T13:48:28+02:00</time>
      </trkpt>
      <trkpt lat="48.83749" lon="6.09078">
        <ele>183.2998</ele>
        <time>2026-05-18T13:48:29+02:00</time>
      </trkpt>
      <trkpt lat="48.83755" lon="6.09077">
        <ele>183.2998</ele>
        <time>2026-05-18T13:48:30+02:00</time>
      </trkpt>
      <trkpt lat="48.83762" lon="6.09077">
        <ele>183.2998</ele>
        <time>2026-05-18T13:48:31+02:00</time>
      </trkpt>
      <trkpt lat="48.83769" lon="6.09076">
        <ele>183.2998</ele>
        <time>2026-05-18T13:48:32+02:00</time>
      </trkpt>
      <trkpt lat="48.83775" lon="6.09075">
        <ele>183.2998</ele>
        <time>2026-05-18T13:48:33+02:00</time>
      </trkpt>
      <trkpt lat="48.83782" lon="6.09075">
        <ele>183.2998</ele>
        <time>2026-05-18T13:48:34+02:00</time>
      </trkpt>
      <trkpt lat="48.83788" lon="6.09074">
        <ele>183.2998</ele>
        <time>2026-05-18T13:48:35+02:00</time>
      </trkpt>
      <trkpt lat="48.83793" lon="6.09073">
        <ele>183.2998</ele>
        <time>2026-05-18T13:48:36+02:00</time>
      </trkpt>
      <trkpt lat="48.83799" lon="6.09072">
        <ele>183.2998</ele>
        <time>2026-05-18T13:48:37+02:00</time>
      </trkpt>
      <trkpt lat="48.83805" lon="6.09072">
        <ele>183.2998</ele>
        <time>2026-05-18T13:48:38+02:00</time>
      </trkpt>
      <trkpt lat="48.83811" lon="6.09071">
        <ele>182.90039</ele>
        <time>2026-05-18T13:48:39+02:00</time>
      </trkpt>
      <trkpt lat="48.83817" lon="6.0907">
        <ele>183</ele>
        <time>2026-05-18T13:48:40+02:00</time>
      </trkpt>
      <trkpt lat="48.83823" lon="6.09069">
        <ele>183.2998</ele>
        <time>2026-05-18T13:48:41+02:00</time>
      </trkpt>
      <trkpt lat="48.8383" lon="6.09068">
        <ele>183.40039</ele>
        <time>2026-05-18T13:48:42+02:00</time>
      </trkpt>
      <trkpt lat="48.83836" lon="6.09067">
        <ele>183.5</ele>
        <time>2026-05-18T13:48:43+02:00</time>
      </trkpt>
      <trkpt lat="48.83842" lon="6.09067">
        <ele>183.60059</ele>
        <time>2026-05-18T13:48:44+02:00</time>
      </trkpt>
      <trkpt lat="48.83848" lon="6.09066">
        <ele>183.7002</ele>
        <time>2026-05-18T13:48:45+02:00</time>
      </trkpt>
      <trkpt lat="48.83854" lon="6.09065">
        <ele>183.7998</ele>
        <time>2026-05-18T13:48:46+02:00</time>
      </trkpt>
      <trkpt lat="48.83861" lon="6.09064">
        <ele>183.90039</ele>
        <time>2026-05-18T13:48:47+02:00</time>
      </trkpt>
      <trkpt lat="48.83867" lon="6.09063">
        <ele>183.60059</ele>
        <time>2026-05-18T13:48:48+02:00</time>
      </trkpt>
      <trkpt lat="48.83873" lon="6.09062">
        <ele>183.7002</ele>
        <time>2026-05-18T13:48:49+02:00</time>
      </trkpt>
      <trkpt lat="48.83879" lon="6.09061">
        <ele>183.7998</ele>
        <time>2026-05-18T13:48:50+02:00</time>
      </trkpt>
      <trkpt lat="48.83885" lon="6.0906">
        <ele>184</ele>
        <time>2026-05-18T13:48:51+02:00</time>
      </trkpt>
      <trkpt lat="48.83891" lon="6.09059">
        <ele>184.40039</ele>
        <time>2026-05-18T13:48:52+02:00</time>
      </trkpt>
      <trkpt lat="48.83897" lon="6.09057">
        <ele>184.5</ele>
        <time>2026-05-18T13:48:53+02:00</time>
      </trkpt>
      <trkpt lat="48.83904" lon="6.09056">
        <ele>184.60059</ele>
        <time>2026-05-18T13:48:54+02:00</time>
      </trkpt>
      <trkpt lat="48.8391" lon="6.09055">
        <ele>184.7002</ele>
        <time>2026-05-18T13:48:55+02:00</time>
      </trkpt>
      <trkpt lat="48.83916" lon="6.09055">
        <ele>184.7002</ele>
        <time>2026-05-18T13:48:56+02:00</time>
      </trkpt>
      <trkpt lat="48.83922" lon="6.09054">
        <ele>184.7002</ele>
        <time>2026-05-18T13:48:57+02:00</time>
      </trkpt>
      <trkpt lat="48.83929" lon="6.09053">
        <ele>184.7002</ele>
        <time>2026-05-18T13:48:58+02:00</time>
      </trkpt>
      <trkpt lat="48.83935" lon="6.09052">
        <ele>184.7002</ele>
        <time>2026-05-18T13:48:59+02:00</time>
      </trkpt>
      <trkpt lat="48.83942" lon="6.09051">
        <ele>184.7998</ele>
        <time>2026-05-18T13:49:00+02:00</time>
      </trkpt>
      <trkpt lat="48.83948" lon="6.0905">
        <ele>184.90039</ele>
        <time>2026-05-18T13:49:01+02:00</time>
      </trkpt>
      <trkpt lat="48.83955" lon="6.09049">
        <ele>184.90039</ele>
        <time>2026-05-18T13:49:02+02:00</time>
      </trkpt>
      <trkpt lat="48.8396" lon="6.09048">
        <ele>185</ele>
        <time>2026-05-18T13:49:03+02:00</time>
      </trkpt>
      <trkpt lat="48.83967" lon="6.09047">
        <ele>185</ele>
        <time>2026-05-18T13:49:04+02:00</time>
      </trkpt>
      <trkpt lat="48.83973" lon="6.09045">
        <ele>184.90039</ele>
        <time>2026-05-18T13:49:05+02:00</time>
      </trkpt>
      <trkpt lat="48.83979" lon="6.09043">
        <ele>184.90039</ele>
        <time>2026-05-18T13:49:06+02:00</time>
      </trkpt>
      <trkpt lat="48.83986" lon="6.09041">
        <ele>184.90039</ele>
        <time>2026-05-18T13:49:07+02:00</time>
      </trkpt>
      <trkpt lat="48.83992" lon="6.09038">
        <ele>185</ele>
        <time>2026-05-18T13:49:08+02:00</time>
      </trkpt>
      <trkpt lat="48.83998" lon="6.09034">
        <ele>185</ele>
        <time>2026-05-18T13:49:09+02:00</time>
      </trkpt>
      <trkpt lat="48.84005" lon="6.09031">
        <ele>185.10059</ele>
        <time>2026-05-18T13:49:10+02:00</time>
      </trkpt>
      <trkpt lat="48.84011" lon="6.09028">
        <ele>185.10059</ele>
        <time>2026-05-18T13:49:11+02:00</time>
      </trkpt>
      <trkpt lat="48.84017" lon="6.09024">
        <ele>185.2002</ele>
        <time>2026-05-18T13:49:12+02:00</time>
      </trkpt>
      <trkpt lat="48.84023" lon="6.0902">
        <ele>185.2002</ele>
        <time>2026-05-18T13:49:13+02:00</time>
      </trkpt>
      <trkpt lat="48.84029" lon="6.09015">
        <ele>185.2998</ele>
        <time>2026-05-18T13:49:14+02:00</time>
      </trkpt>
      <trkpt lat="48.84034" lon="6.09011">
        <ele>185.2998</ele>
        <time>2026-05-18T13:49:15+02:00</time>
      </trkpt>
      <trkpt lat="48.8404" lon="6.09007">
        <ele>185.5</ele>
        <time>2026-05-18T13:49:16+02:00</time>
      </trkpt>
      <trkpt lat="48.84046" lon="6.09002">
        <ele>185.5</ele>
        <time>2026-05-18T13:49:17+02:00</time>
      </trkpt>
      <trkpt lat="48.84051" lon="6.08996">
        <ele>185.60059</ele>
        <time>2026-05-18T13:49:18+02:00</time>
      </trkpt>
      <trkpt lat="48.84057" lon="6.0899">
        <ele>185.7002</ele>
        <time>2026-05-18T13:49:19+02:00</time>
      </trkpt>
      <trkpt lat="48.84061" lon="6.08983">
        <ele>185.7002</ele>
        <time>2026-05-18T13:49:20+02:00</time>
      </trkpt>
      <trkpt lat="48.84066" lon="6.08976">
        <ele>185.7002</ele>
        <time>2026-05-18T13:49:21+02:00</time>
      </trkpt>
      <trkpt lat="48.8407" lon="6.08969">
        <ele>185.7002</ele>
        <time>2026-05-18T13:49:22+02:00</time>
      </trkpt>
      <trkpt lat="48.84075" lon="6.08962">
        <ele>185.7002</ele>
        <time>2026-05-18T13:49:23+02:00</time>
      </trkpt>
      <trkpt lat="48.8408" lon="6.08955">
        <ele>185.7002</ele>
        <time>2026-05-18T13:49:24+02:00</time>
      </trkpt>
      <trkpt lat="48.84084" lon="6.08948">
        <ele>185.60059</ele>
        <time>2026-05-18T13:49:25+02:00</time>
      </trkpt>
      <trkpt lat="48.84088" lon="6.08941">
        <ele>185.5</ele>
        <time>2026-05-18T13:49:26+02:00</time>
      </trkpt>
      <trkpt lat="48.84091" lon="6.08933">
        <ele>185.40039</ele>
        <time>2026-05-18T13:49:27+02:00</time>
      </trkpt>
      <trkpt lat="48.84094" lon="6.08925">
        <ele>185.5</ele>
        <time>2026-05-18T13:49:28+02:00</time>
      </trkpt>
      <trkpt lat="48.84097" lon="6.08916">
        <ele>185.5</ele>
        <time>2026-05-18T13:49:29+02:00</time>
      </trkpt>
      <trkpt lat="48.84099" lon="6.08908">
        <ele>185.60059</ele>
        <time>2026-05-18T13:49:30+02:00</time>
      </trkpt>
      <trkpt lat="48.84102" lon="6.089">
        <ele>185.5</ele>
        <time>2026-05-18T13:49:31+02:00</time>
      </trkpt>
      <trkpt lat="48.84105" lon="6.08892">
        <ele>185.5</ele>
        <time>2026-05-18T13:49:32+02:00</time>
      </trkpt>
      <trkpt lat="48.84109" lon="6.08885">
        <ele>185.5</ele>
        <time>2026-05-18T13:49:33+02:00</time>
      </trkpt>
      <trkpt lat="48.84112" lon="6.08877">
        <ele>185.60059</ele>
        <time>2026-05-18T13:49:34+02:00</time>
      </trkpt>
      <trkpt lat="48.84116" lon="6.0887">
        <ele>185.7002</ele>
        <time>2026-05-18T13:49:35+02:00</time>
      </trkpt>
      <trkpt lat="48.8412" lon="6.08862">
        <ele>185.7002</ele>
        <time>2026-05-18T13:49:36+02:00</time>
      </trkpt>
      <trkpt lat="48.84124" lon="6.08854">
        <ele>185.60059</ele>
        <time>2026-05-18T13:49:37+02:00</time>
      </trkpt>
      <trkpt lat="48.84128" lon="6.08846">
        <ele>185.60059</ele>
        <time>2026-05-18T13:49:38+02:00</time>
      </trkpt>
      <trkpt lat="48.84132" lon="6.08838">
        <ele>185.5</ele>
        <time>2026-05-18T13:49:39+02:00</time>
      </trkpt>
      <trkpt lat="48.84136" lon="6.0883">
        <ele>185.60059</ele>
        <time>2026-05-18T13:49:40+02:00</time>
      </trkpt>
      <trkpt lat="48.84141" lon="6.08823">
        <ele>185.7998</ele>
        <time>2026-05-18T13:49:41+02:00</time>
      </trkpt>
      <trkpt lat="48.84146" lon="6.08817">
        <ele>185.7002</ele>
        <time>2026-05-18T13:49:42+02:00</time>
      </trkpt>
      <trkpt lat="48.8415" lon="6.0881">
        <ele>185.5</ele>
        <time>2026-05-18T13:49:43+02:00</time>
      </trkpt>
      <trkpt lat="48.84155" lon="6.08805">
        <ele>185.2998</ele>
        <time>2026-05-18T13:49:44+02:00</time>
      </trkpt>
      <trkpt lat="48.8416" lon="6.08799">
        <ele>185.2998</ele>
        <time>2026-05-18T13:49:45+02:00</time>
      </trkpt>
      <trkpt lat="48.84165" lon="6.08792">
        <ele>185.40039</ele>
        <time>2026-05-18T13:49:46+02:00</time>
      </trkpt>
      <trkpt lat="48.8417" lon="6.08786">
        <ele>185.40039</ele>
        <time>2026-05-18T13:49:47+02:00</time>
      </trkpt>
      <trkpt lat="48.84175" lon="6.08779">
        <ele>185.40039</ele>
        <time>2026-05-18T13:49:48+02:00</time>
      </trkpt>
      <trkpt lat="48.8418" lon="6.08773">
        <ele>185.2002</ele>
        <time>2026-05-18T13:49:49+02:00</time>
      </trkpt>
      <trkpt lat="48.84184" lon="6.08768">
        <ele>185.10059</ele>
        <time>2026-05-18T13:49:50+02:00</time>
      </trkpt>
      <trkpt lat="48.84189" lon="6.08761">
        <ele>184.7998</ele>
        <time>2026-05-18T13:49:51+02:00</time>
      </trkpt>
      <trkpt lat="48.84193" lon="6.08754">
        <ele>184.40039</ele>
        <time>2026-05-18T13:49:52+02:00</time>
      </trkpt>
      <trkpt lat="48.84196" lon="6.08745">
        <ele>184.2002</ele>
        <time>2026-05-18T13:49:53+02:00</time>
      </trkpt>
      <trkpt lat="48.84199" lon="6.08736">
        <ele>184.40039</ele>
        <time>2026-05-18T13:49:54+02:00</time>
      </trkpt>
      <trkpt lat="48.84202" lon="6.08727">
        <ele>184.5</ele>
        <time>2026-05-18T13:49:55+02:00</time>
      </trkpt>
      <trkpt lat="48.84205" lon="6.08718">
        <ele>184.5</ele>
        <time>2026-05-18T13:49:56+02:00</time>
      </trkpt>
      <trkpt lat="48.84208" lon="6.0871">
        <ele>184.40039</ele>
        <time>2026-05-18T13:49:57+02:00</time>
      </trkpt>
      <trkpt lat="48.84211" lon="6.08702">
        <ele>184.2002</ele>
        <time>2026-05-18T13:49:58+02:00</time>
      </trkpt>
      <trkpt lat="48.84215" lon="6.08694">
        <ele>184.10059</ele>
        <time>2026-05-18T13:49:59+02:00</time>
      </trkpt>
      <trkpt lat="48.84218" lon="6.08685">
        <ele>183.90039</ele>
        <time>2026-05-18T13:50:00+02:00</time>
      </trkpt>
      <trkpt lat="48.84221" lon="6.08676">
        <ele>183.90039</ele>
        <time>2026-05-18T13:50:01+02:00</time>
      </trkpt>
      <trkpt lat="48.84223" lon="6.08667">
        <ele>183.7002</ele>
        <time>2026-05-18T13:50:02+02:00</time>
      </trkpt>
      <trkpt lat="48.84226" lon="6.08658">
        <ele>183.7998</ele>
        <time>2026-05-18T13:50:03+02:00</time>
      </trkpt>
      <trkpt lat="48.84228" lon="6.08649">
        <ele>183.60059</ele>
        <time>2026-05-18T13:50:04+02:00</time>
      </trkpt>
      <trkpt lat="48.84229" lon="6.0864">
        <ele>183.5</ele>
        <time>2026-05-18T13:50:05+02:00</time>
      </trkpt>
      <trkpt lat="48.84231" lon="6.08631">
        <ele>183.7002</ele>
        <time>2026-05-18T13:50:06+02:00</time>
      </trkpt>
      <trkpt lat="48.84234" lon="6.08622">
        <ele>183.7002</ele>
        <time>2026-05-18T13:50:07+02:00</time>
      </trkpt>
      <trkpt lat="48.84245" lon="6.08589">
        <ele>183.40039</ele>
        <time>2026-05-18T13:50:08+02:00</time>
      </trkpt>
      <trkpt lat="48.84248" lon="6.08581">
        <ele>183.40039</ele>
        <time>2026-05-18T13:50:09+02:00</time>
      </trkpt>
      <trkpt lat="48.84252" lon="6.08573">
        <ele>183.5</ele>
        <time>2026-05-18T13:50:10+02:00</time>
      </trkpt>
      <trkpt lat="48.84255" lon="6.08565">
        <ele>183.2998</ele>
        <time>2026-05-18T13:50:11+02:00</time>
      </trkpt>
      <trkpt lat="48.84258" lon="6.08558">
        <ele>183.5</ele>
        <time>2026-05-18T13:50:12+02:00</time>
      </trkpt>
      <trkpt lat="48.84262" lon="6.0855">
        <ele>183.2002</ele>
        <time>2026-05-18T13:50:13+02:00</time>
      </trkpt>
      <trkpt lat="48.84265" lon="6.08542">
        <ele>183.2002</ele>
        <time>2026-05-18T13:50:14+02:00</time>
      </trkpt>
      <trkpt lat="48.84269" lon="6.08534">
        <ele>183.2002</ele>
        <time>2026-05-18T13:50:15+02:00</time>
      </trkpt>
      <trkpt lat="48.84273" lon="6.08526">
        <ele>183</ele>
        <time>2026-05-18T13:50:16+02:00</time>
      </trkpt>
      <trkpt lat="48.84276" lon="6.08518">
        <ele>182.90039</ele>
        <time>2026-05-18T13:50:17+02:00</time>
      </trkpt>
      <trkpt lat="48.84279" lon="6.0851">
        <ele>182.7002</ele>
        <time>2026-05-18T13:50:18+02:00</time>
      </trkpt>
      <trkpt lat="48.84283" lon="6.08502">
        <ele>182.60059</ele>
        <time>2026-05-18T13:50:19+02:00</time>
      </trkpt>
      <trkpt lat="48.84286" lon="6.08495">
        <ele>182.7002</ele>
        <time>2026-05-18T13:50:20+02:00</time>
      </trkpt>
      <trkpt lat="48.8429" lon="6.08487">
        <ele>182.60059</ele>
        <time>2026-05-18T13:50:21+02:00</time>
      </trkpt>
      <trkpt lat="48.84294" lon="6.08479">
        <ele>182.60059</ele>
        <time>2026-05-18T13:50:22+02:00</time>
      </trkpt>
      <trkpt lat="48.84297" lon="6.08472">
        <ele>182.60059</ele>
        <time>2026-05-18T13:50:23+02:00</time>
      </trkpt>
      <trkpt lat="48.84301" lon="6.08464">
        <ele>182.60059</ele>
        <time>2026-05-18T13:50:24+02:00</time>
      </trkpt>
      <trkpt lat="48.84305" lon="6.08456">
        <ele>182.7002</ele>
        <time>2026-05-18T13:50:25+02:00</time>
      </trkpt>
      <trkpt lat="48.84309" lon="6.08449">
        <ele>182.7998</ele>
        <time>2026-05-18T13:50:26+02:00</time>
      </trkpt>
      <trkpt lat="48.84313" lon="6.08441">
        <ele>182.60059</ele>
        <time>2026-05-18T13:50:27+02:00</time>
      </trkpt>
      <trkpt lat="48.84317" lon="6.08433">
        <ele>182.7002</ele>
        <time>2026-05-18T13:50:28+02:00</time>
      </trkpt>
      <trkpt lat="48.84321" lon="6.08426">
        <ele>182.7998</ele>
        <time>2026-05-18T13:50:29+02:00</time>
      </trkpt>
      <trkpt lat="48.84325" lon="6.08418">
        <ele>182.60059</ele>
        <time>2026-05-18T13:50:30+02:00</time>
      </trkpt>
      <trkpt lat="48.84329" lon="6.08411">
        <ele>182.7998</ele>
        <time>2026-05-18T13:50:31+02:00</time>
      </trkpt>
      <trkpt lat="48.84333" lon="6.08404">
        <ele>182.7998</ele>
        <time>2026-05-18T13:50:32+02:00</time>
      </trkpt>
      <trkpt lat="48.84337" lon="6.08396">
        <ele>182.7998</ele>
        <time>2026-05-18T13:50:33+02:00</time>
      </trkpt>
      <trkpt lat="48.84341" lon="6.08389">
        <ele>182.60059</ele>
        <time>2026-05-18T13:50:34+02:00</time>
      </trkpt>
      <trkpt lat="48.84345" lon="6.08382">
        <ele>182.60059</ele>
        <time>2026-05-18T13:50:35+02:00</time>
      </trkpt>
      <trkpt lat="48.84349" lon="6.08374">
        <ele>182.7002</ele>
        <time>2026-05-18T13:50:36+02:00</time>
      </trkpt>
      <trkpt lat="48.84353" lon="6.08367">
        <ele>182.5</ele>
        <time>2026-05-18T13:50:37+02:00</time>
      </trkpt>
      <trkpt lat="48.84357" lon="6.0836">
        <ele>182.7002</ele>
        <time>2026-05-18T13:50:38+02:00</time>
      </trkpt>
      <trkpt lat="48.84361" lon="6.08352">
        <ele>182.60059</ele>
        <time>2026-05-18T13:50:39+02:00</time>
      </trkpt>
      <trkpt lat="48.84365" lon="6.08345">
        <ele>182.5</ele>
        <time>2026-05-18T13:50:40+02:00</time>
      </trkpt>
      <trkpt lat="48.84369" lon="6.08337">
        <ele>182.2998</ele>
        <time>2026-05-18T13:50:41+02:00</time>
      </trkpt>
      <trkpt lat="48.84373" lon="6.0833">
        <ele>182.2998</ele>
        <time>2026-05-18T13:50:42+02:00</time>
      </trkpt>
      <trkpt lat="48.84377" lon="6.08322">
        <ele>182.2002</ele>
        <time>2026-05-18T13:50:43+02:00</time>
      </trkpt>
      <trkpt lat="48.84381" lon="6.08315">
        <ele>182.10059</ele>
        <time>2026-05-18T13:50:44+02:00</time>
      </trkpt>
      <trkpt lat="48.84386" lon="6.08308">
        <ele>182.2002</ele>
        <time>2026-05-18T13:50:45+02:00</time>
      </trkpt>
      <trkpt lat="48.8439" lon="6.08301">
        <ele>182.10059</ele>
        <time>2026-05-18T13:50:46+02:00</time>
      </trkpt>
      <trkpt lat="48.84395" lon="6.08295">
        <ele>182.10059</ele>
        <time>2026-05-18T13:50:47+02:00</time>
      </trkpt>
      <trkpt lat="48.844" lon="6.08288">
        <ele>182.10059</ele>
        <time>2026-05-18T13:50:48+02:00</time>
      </trkpt>
      <trkpt lat="48.84404" lon="6.08282">
        <ele>182</ele>
        <time>2026-05-18T13:50:49+02:00</time>
      </trkpt>
      <trkpt lat="48.84409" lon="6.08274">
        <ele>182.10059</ele>
        <time>2026-05-18T13:50:50+02:00</time>
      </trkpt>
      <trkpt lat="48.84413" lon="6.08266">
        <ele>182</ele>
        <time>2026-05-18T13:50:51+02:00</time>
      </trkpt>
      <trkpt lat="48.84416" lon="6.08256">
        <ele>181.90039</ele>
        <time>2026-05-18T13:50:52+02:00</time>
      </trkpt>
      <trkpt lat="48.8442" lon="6.08248">
        <ele>181.90039</ele>
        <time>2026-05-18T13:50:53+02:00</time>
      </trkpt>
      <trkpt lat="48.84423" lon="6.08241">
        <ele>181.7998</ele>
        <time>2026-05-18T13:50:54+02:00</time>
      </trkpt>
      <trkpt lat="48.84427" lon="6.08234">
        <ele>181.7002</ele>
        <time>2026-05-18T13:50:55+02:00</time>
      </trkpt>
      <trkpt lat="48.84431" lon="6.08227">
        <ele>181.7002</ele>
        <time>2026-05-18T13:50:56+02:00</time>
      </trkpt>
      <trkpt lat="48.84435" lon="6.08221">
        <ele>181.60059</ele>
        <time>2026-05-18T13:50:57+02:00</time>
      </trkpt>
      <trkpt lat="48.84438" lon="6.08214">
        <ele>181.60059</ele>
        <time>2026-05-18T13:50:58+02:00</time>
      </trkpt>
      <trkpt lat="48.84443" lon="6.08207">
        <ele>181.5</ele>
        <time>2026-05-18T13:50:59+02:00</time>
      </trkpt>
      <trkpt lat="48.84447" lon="6.08201">
        <ele>181.5</ele>
        <time>2026-05-18T13:51:00+02:00</time>
      </trkpt>
      <trkpt lat="48.84451" lon="6.08195">
        <ele>181.5</ele>
        <time>2026-05-18T13:51:01+02:00</time>
      </trkpt>
      <trkpt lat="48.84456" lon="6.08188">
        <ele>181.60059</ele>
        <time>2026-05-18T13:51:02+02:00</time>
      </trkpt>
      <trkpt lat="48.8446" lon="6.08182">
        <ele>181.60059</ele>
        <time>2026-05-18T13:51:03+02:00</time>
      </trkpt>
      <trkpt lat="48.84465" lon="6.08176">
        <ele>181.7002</ele>
        <time>2026-05-18T13:51:04+02:00</time>
      </trkpt>
      <trkpt lat="48.84469" lon="6.08169">
        <ele>181.7002</ele>
        <time>2026-05-18T13:51:05+02:00</time>
      </trkpt>
      <trkpt lat="48.84474" lon="6.08163">
        <ele>181.7998</ele>
        <time>2026-05-18T13:51:06+02:00</time>
      </trkpt>
      <trkpt lat="48.84479" lon="6.08157">
        <ele>181.90039</ele>
        <time>2026-05-18T13:51:07+02:00</time>
      </trkpt>
      <trkpt lat="48.84483" lon="6.08151">
        <ele>182</ele>
        <time>2026-05-18T13:51:08+02:00</time>
      </trkpt>
      <trkpt lat="48.84488" lon="6.08144">
        <ele>182.10059</ele>
        <time>2026-05-18T13:51:09+02:00</time>
      </trkpt>
      <trkpt lat="48.84493" lon="6.08138">
        <ele>182.2002</ele>
        <time>2026-05-18T13:51:10+02:00</time>
      </trkpt>
      <trkpt lat="48.84499" lon="6.08132">
        <ele>182.2002</ele>
        <time>2026-05-18T13:51:11+02:00</time>
      </trkpt>
      <trkpt lat="48.84503" lon="6.08126">
        <ele>182.2998</ele>
        <time>2026-05-18T13:51:12+02:00</time>
      </trkpt>
      <trkpt lat="48.84508" lon="6.0812">
        <ele>182.5</ele>
        <time>2026-05-18T13:51:13+02:00</time>
      </trkpt>
      <trkpt lat="48.84514" lon="6.08114">
        <ele>182.60059</ele>
        <time>2026-05-18T13:51:14+02:00</time>
      </trkpt>
      <trkpt lat="48.84519" lon="6.08108">
        <ele>182.5</ele>
        <time>2026-05-18T13:51:15+02:00</time>
      </trkpt>
      <trkpt lat="48.84524" lon="6.08103">
        <ele>182.40039</ele>
        <time>2026-05-18T13:51:16+02:00</time>
      </trkpt>
      <trkpt lat="48.84529" lon="6.08097">
        <ele>182.2002</ele>
        <time>2026-05-18T13:51:17+02:00</time>
      </trkpt>
      <trkpt lat="48.84535" lon="6.08093">
        <ele>182.10059</ele>
        <time>2026-05-18T13:51:18+02:00</time>
      </trkpt>
      <trkpt lat="48.8454" lon="6.08087">
        <ele>182.10059</ele>
        <time>2026-05-18T13:51:19+02:00</time>
      </trkpt>
      <trkpt lat="48.84546" lon="6.08083">
        <ele>182</ele>
        <time>2026-05-18T13:51:20+02:00</time>
      </trkpt>
      <trkpt lat="48.84551" lon="6.08078">
        <ele>182</ele>
        <time>2026-05-18T13:51:21+02:00</time>
      </trkpt>
      <trkpt lat="48.84557" lon="6.08073">
        <ele>182</ele>
        <time>2026-05-18T13:51:22+02:00</time>
      </trkpt>
      <trkpt lat="48.84562" lon="6.08068">
        <ele>182</ele>
        <time>2026-05-18T13:51:23+02:00</time>
      </trkpt>
      <trkpt lat="48.84568" lon="6.08064">
        <ele>181.90039</ele>
        <time>2026-05-18T13:51:24+02:00</time>
      </trkpt>
      <trkpt lat="48.84574" lon="6.08061">
        <ele>182</ele>
        <time>2026-05-18T13:51:25+02:00</time>
      </trkpt>
      <trkpt lat="48.8458" lon="6.08057">
        <ele>182.10059</ele>
        <time>2026-05-18T13:51:26+02:00</time>
      </trkpt>
      <trkpt lat="48.84586" lon="6.08054">
        <ele>182.10059</ele>
        <time>2026-05-18T13:51:27+02:00</time>
      </trkpt>
      <trkpt lat="48.84592" lon="6.08051">
        <ele>182.10059</ele>
        <time>2026-05-18T13:51:28+02:00</time>
      </trkpt>
      <trkpt lat="48.84598" lon="6.08048">
        <ele>182.10059</ele>
        <time>2026-05-18T13:51:29+02:00</time>
      </trkpt>
      <trkpt lat="48.84605" lon="6.08045">
        <ele>182</ele>
        <time>2026-05-18T13:51:30+02:00</time>
      </trkpt>
      <trkpt lat="48.84611" lon="6.08042">
        <ele>182</ele>
        <time>2026-05-18T13:51:31+02:00</time>
      </trkpt>
      <trkpt lat="48.84619" lon="6.08038">
        <ele>182.2002</ele>
        <time>2026-05-18T13:51:32+02:00</time>
      </trkpt>
      <trkpt lat="48.84626" lon="6.08034">
        <ele>182.2002</ele>
        <time>2026-05-18T13:51:33+02:00</time>
      </trkpt>
      <trkpt lat="48.84633" lon="6.08031">
        <ele>182.5</ele>
        <time>2026-05-18T13:51:34+02:00</time>
      </trkpt>
      <trkpt lat="48.8464" lon="6.08027">
        <ele>182.5</ele>
        <time>2026-05-18T13:51:35+02:00</time>
      </trkpt>
      <trkpt lat="48.84647" lon="6.08024">
        <ele>182.5</ele>
        <time>2026-05-18T13:51:36+02:00</time>
      </trkpt>
      <trkpt lat="48.84653" lon="6.0802">
        <ele>181.90039</ele>
        <time>2026-05-18T13:51:37+02:00</time>
      </trkpt>
      <trkpt lat="48.84659" lon="6.08017">
        <ele>181.5</ele>
        <time>2026-05-18T13:51:38+02:00</time>
      </trkpt>
      <trkpt lat="48.84664" lon="6.08015">
        <ele>181.7998</ele>
        <time>2026-05-18T13:51:39+02:00</time>
      </trkpt>
      <trkpt lat="48.84669" lon="6.08012">
        <ele>181.60059</ele>
        <time>2026-05-18T13:51:40+02:00</time>
      </trkpt>
      <trkpt lat="48.84675" lon="6.08009">
        <ele>181.40039</ele>
        <time>2026-05-18T13:51:41+02:00</time>
      </trkpt>
      <trkpt lat="48.8468" lon="6.08006">
        <ele>181.60059</ele>
        <time>2026-05-18T13:51:42+02:00</time>
      </trkpt>
      <trkpt lat="48.84686" lon="6.08004">
        <ele>181.5</ele>
        <time>2026-05-18T13:51:43+02:00</time>
      </trkpt>
      <trkpt lat="48.84692" lon="6.08002">
        <ele>181.40039</ele>
        <time>2026-05-18T13:51:44+02:00</time>
      </trkpt>
      <trkpt lat="48.84698" lon="6.08">
        <ele>181.40039</ele>
        <time>2026-05-18T13:51:45+02:00</time>
      </trkpt>
      <trkpt lat="48.84704" lon="6.07998">
        <ele>181.40039</ele>
        <time>2026-05-18T13:51:46+02:00</time>
      </trkpt>
      <trkpt lat="48.8471" lon="6.07997">
        <ele>181.40039</ele>
        <time>2026-05-18T13:51:47+02:00</time>
      </trkpt>
      <trkpt lat="48.84716" lon="6.07997">
        <ele>181.40039</ele>
        <time>2026-05-18T13:51:48+02:00</time>
      </trkpt>
      <trkpt lat="48.84722" lon="6.07998">
        <ele>181.2998</ele>
        <time>2026-05-18T13:51:49+02:00</time>
      </trkpt>
      <trkpt lat="48.84728" lon="6.08">
        <ele>181.10059</ele>
        <time>2026-05-18T13:51:50+02:00</time>
      </trkpt>
      <trkpt lat="48.84734" lon="6.08002">
        <ele>181.10059</ele>
        <time>2026-05-18T13:51:51+02:00</time>
      </trkpt>
      <trkpt lat="48.8474" lon="6.08004">
        <ele>181.10059</ele>
        <time>2026-05-18T13:51:52+02:00</time>
      </trkpt>
      <trkpt lat="48.84746" lon="6.08006">
        <ele>181.10059</ele>
        <time>2026-05-18T13:51:53+02:00</time>
      </trkpt>
      <trkpt lat="48.84752" lon="6.08008">
        <ele>180.7998</ele>
        <time>2026-05-18T13:51:54+02:00</time>
      </trkpt>
      <trkpt lat="48.84759" lon="6.0801">
        <ele>180.7998</ele>
        <time>2026-05-18T13:51:55+02:00</time>
      </trkpt>
      <trkpt lat="48.84765" lon="6.08012">
        <ele>180.7998</ele>
        <time>2026-05-18T13:51:56+02:00</time>
      </trkpt>
      <trkpt lat="48.84771" lon="6.08014">
        <ele>180.7998</ele>
        <time>2026-05-18T13:51:57+02:00</time>
      </trkpt>
      <trkpt lat="48.84777" lon="6.08016">
        <ele>180.5</ele>
        <time>2026-05-18T13:51:58+02:00</time>
      </trkpt>
      <trkpt lat="48.84783" lon="6.08018">
        <ele>180.60059</ele>
        <time>2026-05-18T13:51:59+02:00</time>
      </trkpt>
      <trkpt lat="48.8479" lon="6.0802">
        <ele>180.7998</ele>
        <time>2026-05-18T13:52:00+02:00</time>
      </trkpt>
      <trkpt lat="48.84796" lon="6.08023">
        <ele>181.10059</ele>
        <time>2026-05-18T13:52:01+02:00</time>
      </trkpt>
      <trkpt lat="48.84803" lon="6.08025">
        <ele>181.2998</ele>
        <time>2026-05-18T13:52:02+02:00</time>
      </trkpt>
      <trkpt lat="48.84809" lon="6.08029">
        <ele>181.40039</ele>
        <time>2026-05-18T13:52:03+02:00</time>
      </trkpt>
      <trkpt lat="48.84815" lon="6.08033">
        <ele>181.5</ele>
        <time>2026-05-18T13:52:04+02:00</time>
      </trkpt>
      <trkpt lat="48.84821" lon="6.08037">
        <ele>181.10059</ele>
        <time>2026-05-18T13:52:05+02:00</time>
      </trkpt>
      <trkpt lat="48.84826" lon="6.08041">
        <ele>181.10059</ele>
        <time>2026-05-18T13:52:06+02:00</time>
      </trkpt>
      <trkpt lat="48.84832" lon="6.08046">
        <ele>180.7998</ele>
        <time>2026-05-18T13:52:07+02:00</time>
      </trkpt>
      <trkpt lat="48.84837" lon="6.0805">
        <ele>181</ele>
        <time>2026-05-18T13:52:08+02:00</time>
      </trkpt>
      <trkpt lat="48.84841" lon="6.08055">
        <ele>181.2998</ele>
        <time>2026-05-18T13:52:09+02:00</time>
      </trkpt>
      <trkpt lat="48.84845" lon="6.0806">
        <ele>181.2002</ele>
        <time>2026-05-18T13:52:10+02:00</time>
      </trkpt>
      <trkpt lat="48.84849" lon="6.08065">
        <ele>181.7998</ele>
        <time>2026-05-18T13:52:11+02:00</time>
      </trkpt>
      <trkpt lat="48.84852" lon="6.08069">
        <ele>182.10059</ele>
        <time>2026-05-18T13:52:12+02:00</time>
      </trkpt>
      <trkpt lat="48.84857" lon="6.08071">
        <ele>182.2998</ele>
        <time>2026-05-18T13:52:13+02:00</time>
      </trkpt>
      <trkpt lat="48.84861" lon="6.08073">
        <ele>182.2998</ele>
        <time>2026-05-18T13:52:14+02:00</time>
      </trkpt>
      <trkpt lat="48.84864" lon="6.08075">
        <ele>182.5</ele>
        <time>2026-05-18T13:52:15+02:00</time>
      </trkpt>
      <trkpt lat="48.84866" lon="6.08077">
        <ele>182.5</ele>
        <time>2026-05-18T13:52:16+02:00</time>
      </trkpt>
      <trkpt lat="48.84868" lon="6.08078">
        <ele>182.7002</ele>
        <time>2026-05-18T13:52:17+02:00</time>
      </trkpt>
      <trkpt lat="48.8487" lon="6.08079">
        <ele>182.7002</ele>
        <time>2026-05-18T13:52:18+02:00</time>
      </trkpt>
      <trkpt lat="48.84873" lon="6.08078">
        <ele>182.7002</ele>
        <time>2026-05-18T13:52:19+02:00</time>
      </trkpt>
      <trkpt lat="48.84875" lon="6.08074">
        <ele>182.7002</ele>
        <time>2026-05-18T13:52:20+02:00</time>
      </trkpt>
      <trkpt lat="48.84875" lon="6.08069">
        <ele>182.7002</ele>
        <time>2026-05-18T13:52:21+02:00</time>
      </trkpt>
      <trkpt lat="48.84876" lon="6.08064">
        <ele>182.7002</ele>
        <time>2026-05-18T13:52:22+02:00</time>
      </trkpt>
      <trkpt lat="48.84876" lon="6.08058">
        <ele>182.60059</ele>
        <time>2026-05-18T13:52:23+02:00</time>
      </trkpt>
      <trkpt lat="48.84877" lon="6.08052">
        <ele>182.60059</ele>
        <time>2026-05-18T13:52:24+02:00</time>
      </trkpt>
      <trkpt lat="48.84878" lon="6.08047">
        <ele>182.60059</ele>
        <time>2026-05-18T13:52:25+02:00</time>
      </trkpt>
      <trkpt lat="48.84879" lon="6.08041">
        <ele>182.5</ele>
        <time>2026-05-18T13:52:26+02:00</time>
      </trkpt>
      <trkpt lat="48.84879" lon="6.08035">
        <ele>182.5</ele>
        <time>2026-05-18T13:52:27+02:00</time>
      </trkpt>
      <trkpt lat="48.84879" lon="6.0803">
        <ele>182.5</ele>
        <time>2026-05-18T13:52:28+02:00</time>
      </trkpt>
      <trkpt lat="48.8488" lon="6.08023">
        <ele>182.40039</ele>
        <time>2026-05-18T13:52:29+02:00</time>
      </trkpt>
      <trkpt lat="48.84881" lon="6.08017">
        <ele>182.40039</ele>
        <time>2026-05-18T13:52:30+02:00</time>
      </trkpt>
      <trkpt lat="48.84882" lon="6.0801">
        <ele>182.40039</ele>
        <time>2026-05-18T13:52:31+02:00</time>
      </trkpt>
      <trkpt lat="48.84882" lon="6.08002">
        <ele>182.40039</ele>
        <time>2026-05-18T13:52:32+02:00</time>
      </trkpt>
      <trkpt lat="48.84883" lon="6.07995">
        <ele>182.40039</ele>
        <time>2026-05-18T13:52:33+02:00</time>
      </trkpt>
      <trkpt lat="48.84884" lon="6.07988">
        <ele>182.40039</ele>
        <time>2026-05-18T13:52:34+02:00</time>
      </trkpt>
      <trkpt lat="48.84885" lon="6.0798">
        <ele>182.2998</ele>
        <time>2026-05-18T13:52:35+02:00</time>
      </trkpt>
      <trkpt lat="48.84886" lon="6.07973">
        <ele>182</ele>
        <time>2026-05-18T13:52:36+02:00</time>
      </trkpt>
      <trkpt lat="48.84887" lon="6.07965">
        <ele>182</ele>
        <time>2026-05-18T13:52:37+02:00</time>
      </trkpt>
      <trkpt lat="48.84887" lon="6.07958">
        <ele>181.5</ele>
        <time>2026-05-18T13:52:38+02:00</time>
      </trkpt>
      <trkpt lat="48.84888" lon="6.07951">
        <ele>181</ele>
        <time>2026-05-18T13:52:39+02:00</time>
      </trkpt>
      <trkpt lat="48.84889" lon="6.07944">
        <ele>180.7998</ele>
        <time>2026-05-18T13:52:40+02:00</time>
      </trkpt>
      <trkpt lat="48.8489" lon="6.07937">
        <ele>180.60059</ele>
        <time>2026-05-18T13:52:41+02:00</time>
      </trkpt>
      <trkpt lat="48.8489" lon="6.0793">
        <ele>180.40039</ele>
        <time>2026-05-18T13:52:42+02:00</time>
      </trkpt>
      <trkpt lat="48.84891" lon="6.07922">
        <ele>180.40039</ele>
        <time>2026-05-18T13:52:43+02:00</time>
      </trkpt>
      <trkpt lat="48.84892" lon="6.07914">
        <ele>180.2998</ele>
        <time>2026-05-18T13:52:44+02:00</time>
      </trkpt>
      <trkpt lat="48.84893" lon="6.07906">
        <ele>180.2998</ele>
        <time>2026-05-18T13:52:45+02:00</time>
      </trkpt>
      <trkpt lat="48.84894" lon="6.07899">
        <ele>180.2998</ele>
        <time>2026-05-18T13:52:46+02:00</time>
      </trkpt>
      <trkpt lat="48.84894" lon="6.0789">
        <ele>180.2998</ele>
        <time>2026-05-18T13:52:47+02:00</time>
      </trkpt>
      <trkpt lat="48.84895" lon="6.07882">
        <ele>180.2998</ele>
        <time>2026-05-18T13:52:48+02:00</time>
      </trkpt>
      <trkpt lat="48.84897" lon="6.07874">
        <ele>180.2998</ele>
        <time>2026-05-18T13:52:49+02:00</time>
      </trkpt>
      <trkpt lat="48.84898" lon="6.07866">
        <ele>180.2002</ele>
        <time>2026-05-18T13:52:50+02:00</time>
      </trkpt>
      <trkpt lat="48.84898" lon="6.07858">
        <ele>180.2002</ele>
        <time>2026-05-18T13:52:51+02:00</time>
      </trkpt>
      <trkpt lat="48.84899" lon="6.0785">
        <ele>180.2002</ele>
        <time>2026-05-18T13:52:52+02:00</time>
      </trkpt>
      <trkpt lat="48.849" lon="6.07843">
        <ele>180.2998</ele>
        <time>2026-05-18T13:52:53+02:00</time>
      </trkpt>
      <trkpt lat="48.84901" lon="6.07837">
        <ele>180.2998</ele>
        <time>2026-05-18T13:52:54+02:00</time>
      </trkpt>
      <trkpt lat="48.84902" lon="6.07832">
        <ele>180.5</ele>
        <time>2026-05-18T13:52:55+02:00</time>
      </trkpt>
      <trkpt lat="48.84902" lon="6.07827">
        <ele>180.7998</ele>
        <time>2026-05-18T13:52:56+02:00</time>
      </trkpt>
      <trkpt lat="48.84902" lon="6.07822">
        <ele>180.7998</ele>
        <time>2026-05-18T13:52:57+02:00</time>
      </trkpt>
      <trkpt lat="48.84903" lon="6.07818">
        <ele>181</ele>
        <time>2026-05-18T13:52:58+02:00</time>
      </trkpt>
      <trkpt lat="48.84903" lon="6.07814">
        <ele>181</ele>
        <time>2026-05-18T13:52:59+02:00</time>
      </trkpt>
      <trkpt lat="48.84905" lon="6.0781">
        <ele>181</ele>
        <time>2026-05-18T13:53:00+02:00</time>
      </trkpt>
      <trkpt lat="48.84907" lon="6.07808">
        <ele>181.2002</ele>
        <time>2026-05-18T13:53:01+02:00</time>
      </trkpt>
      <trkpt lat="48.8491" lon="6.07806">
        <ele>181.2002</ele>
        <time>2026-05-18T13:53:02+02:00</time>
      </trkpt>
      <trkpt lat="48.84913" lon="6.07805">
        <ele>181.2002</ele>
        <time>2026-05-18T13:53:03+02:00</time>
      </trkpt>
      <trkpt lat="48.84917" lon="6.07804">
        <ele>181.2002</ele>
        <time>2026-05-18T13:53:04+02:00</time>
      </trkpt>
      <trkpt lat="48.84921" lon="6.07804">
        <ele>181.2998</ele>
        <time>2026-05-18T13:53:05+02:00</time>
      </trkpt>
      <trkpt lat="48.84926" lon="6.07803">
        <ele>181.40039</ele>
        <time>2026-05-18T13:53:06+02:00</time>
      </trkpt>
      <trkpt lat="48.84931" lon="6.07802">
        <ele>181.5</ele>
        <time>2026-05-18T13:53:07+02:00</time>
      </trkpt>
      <trkpt lat="48.84936" lon="6.07802">
        <ele>181.5</ele>
        <time>2026-05-18T13:53:08+02:00</time>
      </trkpt>
      <trkpt lat="48.84942" lon="6.078">
        <ele>181.7002</ele>
        <time>2026-05-18T13:53:09+02:00</time>
      </trkpt>
      <trkpt lat="48.84949" lon="6.07799">
        <ele>181.7002</ele>
        <time>2026-05-18T13:53:10+02:00</time>
      </trkpt>
      <trkpt lat="48.84956" lon="6.07798">
        <ele>181.60059</ele>
        <time>2026-05-18T13:53:11+02:00</time>
      </trkpt>
      <trkpt lat="48.84963" lon="6.07797">
        <ele>181.40039</ele>
        <time>2026-05-18T13:53:12+02:00</time>
      </trkpt>
      <trkpt lat="48.84971" lon="6.07796">
        <ele>180.7002</ele>
        <time>2026-05-18T13:53:13+02:00</time>
      </trkpt>
      <trkpt lat="48.84979" lon="6.07794">
        <ele>180.40039</ele>
        <time>2026-05-18T13:53:14+02:00</time>
      </trkpt>
      <trkpt lat="48.84987" lon="6.07792">
        <ele>180.60059</ele>
        <time>2026-05-18T13:53:15+02:00</time>
      </trkpt>
      <trkpt lat="48.84995" lon="6.0779">
        <ele>180.60059</ele>
        <time>2026-05-18T13:53:16+02:00</time>
      </trkpt>
      <trkpt lat="48.85003" lon="6.07788">
        <ele>180.5</ele>
        <time>2026-05-18T13:53:17+02:00</time>
      </trkpt>
      <trkpt lat="48.85011" lon="6.07786">
        <ele>180.5</ele>
        <time>2026-05-18T13:53:18+02:00</time>
      </trkpt>
      <trkpt lat="48.8502" lon="6.07784">
        <ele>180.7002</ele>
        <time>2026-05-18T13:53:19+02:00</time>
      </trkpt>
      <trkpt lat="48.85028" lon="6.07782">
        <ele>180.60059</ele>
        <time>2026-05-18T13:53:20+02:00</time>
      </trkpt>
      <trkpt lat="48.85036" lon="6.07781">
        <ele>180.60059</ele>
        <time>2026-05-18T13:53:21+02:00</time>
      </trkpt>
      <trkpt lat="48.85043" lon="6.0778">
        <ele>180.5</ele>
        <time>2026-05-18T13:53:22+02:00</time>
      </trkpt>
      <trkpt lat="48.85051" lon="6.07779">
        <ele>180.5</ele>
        <time>2026-05-18T13:53:23+02:00</time>
      </trkpt>
      <trkpt lat="48.85058" lon="6.07778">
        <ele>180.5</ele>
        <time>2026-05-18T13:53:24+02:00</time>
      </trkpt>
      <trkpt lat="48.85066" lon="6.07777">
        <ele>180.5</ele>
        <time>2026-05-18T13:53:25+02:00</time>
      </trkpt>
      <trkpt lat="48.85072" lon="6.07776">
        <ele>180.60059</ele>
        <time>2026-05-18T13:53:26+02:00</time>
      </trkpt>
      <trkpt lat="48.85079" lon="6.07775">
        <ele>180.7998</ele>
        <time>2026-05-18T13:53:27+02:00</time>
      </trkpt>
      <trkpt lat="48.85086" lon="6.07774">
        <ele>180.7998</ele>
        <time>2026-05-18T13:53:28+02:00</time>
      </trkpt>
      <trkpt lat="48.85092" lon="6.07773">
        <ele>180.7998</ele>
        <time>2026-05-18T13:53:29+02:00</time>
      </trkpt>
      <trkpt lat="48.85098" lon="6.07772">
        <ele>180.7998</ele>
        <time>2026-05-18T13:53:30+02:00</time>
      </trkpt>
      <trkpt lat="48.85105" lon="6.07771">
        <ele>180.7002</ele>
        <time>2026-05-18T13:53:31+02:00</time>
      </trkpt>
      <trkpt lat="48.85111" lon="6.0777">
        <ele>180.60059</ele>
        <time>2026-05-18T13:53:32+02:00</time>
      </trkpt>
      <trkpt lat="48.85117" lon="6.07769">
        <ele>180.60059</ele>
        <time>2026-05-18T13:53:33+02:00</time>
      </trkpt>
      <trkpt lat="48.85124" lon="6.07768">
        <ele>180.5</ele>
        <time>2026-05-18T13:53:34+02:00</time>
      </trkpt>
      <trkpt lat="48.8513" lon="6.07767">
        <ele>180.60059</ele>
        <time>2026-05-18T13:53:35+02:00</time>
      </trkpt>
      <trkpt lat="48.85137" lon="6.07767">
        <ele>180.60059</ele>
        <time>2026-05-18T13:53:36+02:00</time>
      </trkpt>
      <trkpt lat="48.85143" lon="6.07766">
        <ele>180.60059</ele>
        <time>2026-05-18T13:53:37+02:00</time>
      </trkpt>
      <trkpt lat="48.85149" lon="6.07765">
        <ele>180.60059</ele>
        <time>2026-05-18T13:53:38+02:00</time>
      </trkpt>
      <trkpt lat="48.85155" lon="6.07765">
        <ele>180.5</ele>
        <time>2026-05-18T13:53:39+02:00</time>
      </trkpt>
      <trkpt lat="48.85162" lon="6.07764">
        <ele>180.5</ele>
        <time>2026-05-18T13:53:40+02:00</time>
      </trkpt>
      <trkpt lat="48.85168" lon="6.07763">
        <ele>180.5</ele>
        <time>2026-05-18T13:53:41+02:00</time>
      </trkpt>
      <trkpt lat="48.85174" lon="6.07762">
        <ele>180.60059</ele>
        <time>2026-05-18T13:53:42+02:00</time>
      </trkpt>
      <trkpt lat="48.85181" lon="6.07761">
        <ele>180.60059</ele>
        <time>2026-05-18T13:53:43+02:00</time>
      </trkpt>
      <trkpt lat="48.85187" lon="6.07761">
        <ele>180.60059</ele>
        <time>2026-05-18T13:53:44+02:00</time>
      </trkpt>
      <trkpt lat="48.85194" lon="6.0776">
        <ele>180.7002</ele>
        <time>2026-05-18T13:53:45+02:00</time>
      </trkpt>
      <trkpt lat="48.852" lon="6.07759">
        <ele>180.7002</ele>
        <time>2026-05-18T13:53:46+02:00</time>
      </trkpt>
      <trkpt lat="48.85207" lon="6.07759">
        <ele>180.7998</ele>
        <time>2026-05-18T13:53:47+02:00</time>
      </trkpt>
      <trkpt lat="48.85214" lon="6.07758">
        <ele>181.10059</ele>
        <time>2026-05-18T13:53:48+02:00</time>
      </trkpt>
      <trkpt lat="48.8522" lon="6.07757">
        <ele>181.2002</ele>
        <time>2026-05-18T13:53:49+02:00</time>
      </trkpt>
      <trkpt lat="48.85227" lon="6.07756">
        <ele>181.2002</ele>
        <time>2026-05-18T13:53:50+02:00</time>
      </trkpt>
      <trkpt lat="48.85233" lon="6.07755">
        <ele>181.2002</ele>
        <time>2026-05-18T13:53:51+02:00</time>
      </trkpt>
      <trkpt lat="48.8524" lon="6.07754">
        <ele>181.2998</ele>
        <time>2026-05-18T13:53:52+02:00</time>
      </trkpt>
      <trkpt lat="48.85246" lon="6.07753">
        <ele>181.2998</ele>
        <time>2026-05-18T13:53:53+02:00</time>
      </trkpt>
      <trkpt lat="48.85253" lon="6.07753">
        <ele>181.2002</ele>
        <time>2026-05-18T13:53:54+02:00</time>
      </trkpt>
      <trkpt lat="48.8526" lon="6.07752">
        <ele>181.2002</ele>
        <time>2026-05-18T13:53:55+02:00</time>
      </trkpt>
      <trkpt lat="48.85267" lon="6.07751">
        <ele>181.10059</ele>
        <time>2026-05-18T13:53:56+02:00</time>
      </trkpt>
      <trkpt lat="48.85274" lon="6.07751">
        <ele>181.10059</ele>
        <time>2026-05-18T13:53:57+02:00</time>
      </trkpt>
      <trkpt lat="48.85281" lon="6.0775">
        <ele>181</ele>
        <time>2026-05-18T13:53:58+02:00</time>
      </trkpt>
      <trkpt lat="48.85288" lon="6.07749">
        <ele>181.2002</ele>
        <time>2026-05-18T13:53:59+02:00</time>
      </trkpt>
      <trkpt lat="48.85294" lon="6.07748">
        <ele>181.10059</ele>
        <time>2026-05-18T13:54:00+02:00</time>
      </trkpt>
      <trkpt lat="48.85301" lon="6.07747">
        <ele>181.10059</ele>
        <time>2026-05-18T13:54:01+02:00</time>
      </trkpt>
      <trkpt lat="48.85308" lon="6.07746">
        <ele>181</ele>
        <time>2026-05-18T13:54:02+02:00</time>
      </trkpt>
      <trkpt lat="48.85315" lon="6.07746">
        <ele>181</ele>
        <time>2026-05-18T13:54:03+02:00</time>
      </trkpt>
      <trkpt lat="48.85321" lon="6.07745">
        <ele>180.90039</ele>
        <time>2026-05-18T13:54:04+02:00</time>
      </trkpt>
      <trkpt lat="48.85328" lon="6.07744">
        <ele>180.90039</ele>
        <time>2026-05-18T13:54:05+02:00</time>
      </trkpt>
      <trkpt lat="48.85334" lon="6.07744">
        <ele>180.90039</ele>
        <time>2026-05-18T13:54:06+02:00</time>
      </trkpt>
      <trkpt lat="48.85341" lon="6.07743">
        <ele>180.90039</ele>
        <time>2026-05-18T13:54:07+02:00</time>
      </trkpt>
      <trkpt lat="48.85347" lon="6.07742">
        <ele>180.7998</ele>
        <time>2026-05-18T13:54:08+02:00</time>
      </trkpt>
      <trkpt lat="48.85354" lon="6.07741">
        <ele>180.90039</ele>
        <time>2026-05-18T13:54:09+02:00</time>
      </trkpt>
      <trkpt lat="48.8536" lon="6.0774">
        <ele>180.90039</ele>
        <time>2026-05-18T13:54:10+02:00</time>
      </trkpt>
      <trkpt lat="48.85367" lon="6.07739">
        <ele>180.90039</ele>
        <time>2026-05-18T13:54:11+02:00</time>
      </trkpt>
      <trkpt lat="48.85373" lon="6.07739">
        <ele>180.90039</ele>
        <time>2026-05-18T13:54:12+02:00</time>
      </trkpt>
      <trkpt lat="48.8538" lon="6.07738">
        <ele>180.7998</ele>
        <time>2026-05-18T13:54:13+02:00</time>
      </trkpt>
      <trkpt lat="48.85387" lon="6.07737">
        <ele>180.7998</ele>
        <time>2026-05-18T13:54:14+02:00</time>
      </trkpt>
      <trkpt lat="48.85393" lon="6.07736">
        <ele>180.7002</ele>
        <time>2026-05-18T13:54:15+02:00</time>
      </trkpt>
      <trkpt lat="48.854" lon="6.07736">
        <ele>180.7002</ele>
        <time>2026-05-18T13:54:16+02:00</time>
      </trkpt>
      <trkpt lat="48.85406" lon="6.07735">
        <ele>180.7002</ele>
        <time>2026-05-18T13:54:17+02:00</time>
      </trkpt>
      <trkpt lat="48.85413" lon="6.07734">
        <ele>180.60059</ele>
        <time>2026-05-18T13:54:18+02:00</time>
      </trkpt>
      <trkpt lat="48.8542" lon="6.07733">
        <ele>180.60059</ele>
        <time>2026-05-18T13:54:19+02:00</time>
      </trkpt>
      <trkpt lat="48.85426" lon="6.07733">
        <ele>180.5</ele>
        <time>2026-05-18T13:54:20+02:00</time>
      </trkpt>
      <trkpt lat="48.85433" lon="6.07732">
        <ele>180.5</ele>
        <time>2026-05-18T13:54:21+02:00</time>
      </trkpt>
      <trkpt lat="48.85439" lon="6.07731">
        <ele>180.40039</ele>
        <time>2026-05-18T13:54:22+02:00</time>
      </trkpt>
      <trkpt lat="48.85446" lon="6.0773">
        <ele>180.40039</ele>
        <time>2026-05-18T13:54:23+02:00</time>
      </trkpt>
      <trkpt lat="48.85452" lon="6.07729">
        <ele>180.40039</ele>
        <time>2026-05-18T13:54:24+02:00</time>
      </trkpt>
      <trkpt lat="48.85459" lon="6.07729">
        <ele>180.2998</ele>
        <time>2026-05-18T13:54:25+02:00</time>
      </trkpt>
      <trkpt lat="48.85465" lon="6.07728">
        <ele>180.2998</ele>
        <time>2026-05-18T13:54:26+02:00</time>
      </trkpt>
      <trkpt lat="48.85471" lon="6.07727">
        <ele>180.2998</ele>
        <time>2026-05-18T13:54:27+02:00</time>
      </trkpt>
      <trkpt lat="48.85478" lon="6.07726">
        <ele>180.2998</ele>
        <time>2026-05-18T13:54:28+02:00</time>
      </trkpt>
      <trkpt lat="48.85484" lon="6.07726">
        <ele>180.2998</ele>
        <time>2026-05-18T13:54:29+02:00</time>
      </trkpt>
      <trkpt lat="48.85491" lon="6.07725">
        <ele>180.2998</ele>
        <time>2026-05-18T13:54:30+02:00</time>
      </trkpt>
      <trkpt lat="48.85497" lon="6.07724">
        <ele>180.2998</ele>
        <time>2026-05-18T13:54:31+02:00</time>
      </trkpt>
      <trkpt lat="48.85504" lon="6.07724">
        <ele>180.2998</ele>
        <time>2026-05-18T13:54:32+02:00</time>
      </trkpt>
      <trkpt lat="48.8551" lon="6.07723">
        <ele>180.2998</ele>
        <time>2026-05-18T13:54:33+02:00</time>
      </trkpt>
      <trkpt lat="48.85516" lon="6.07722">
        <ele>180.2002</ele>
        <time>2026-05-18T13:54:34+02:00</time>
      </trkpt>
      <trkpt lat="48.85523" lon="6.07722">
        <ele>180</ele>
        <time>2026-05-18T13:54:35+02:00</time>
      </trkpt>
      <trkpt lat="48.85528" lon="6.07721">
        <ele>180</ele>
        <time>2026-05-18T13:54:36+02:00</time>
      </trkpt>
      <trkpt lat="48.85534" lon="6.0772">
        <ele>179.7998</ele>
        <time>2026-05-18T13:54:37+02:00</time>
      </trkpt>
      <trkpt lat="48.85541" lon="6.07719">
        <ele>179.5</ele>
        <time>2026-05-18T13:54:38+02:00</time>
      </trkpt>
      <trkpt lat="48.85546" lon="6.07719">
        <ele>179.40039</ele>
        <time>2026-05-18T13:54:39+02:00</time>
      </trkpt>
      <trkpt lat="48.85552" lon="6.07718">
        <ele>179.2998</ele>
        <time>2026-05-18T13:54:40+02:00</time>
      </trkpt>
      <trkpt lat="48.85558" lon="6.07717">
        <ele>179.2998</ele>
        <time>2026-05-18T13:54:41+02:00</time>
      </trkpt>
      <trkpt lat="48.85563" lon="6.07717">
        <ele>179.2998</ele>
        <time>2026-05-18T13:54:42+02:00</time>
      </trkpt>
      <trkpt lat="48.85569" lon="6.07716">
        <ele>179.2998</ele>
        <time>2026-05-18T13:54:43+02:00</time>
      </trkpt>
      <trkpt lat="48.85574" lon="6.07715">
        <ele>179.2998</ele>
        <time>2026-05-18T13:54:44+02:00</time>
      </trkpt>
      <trkpt lat="48.85581" lon="6.07715">
        <ele>179.2998</ele>
        <time>2026-05-18T13:54:45+02:00</time>
      </trkpt>
      <trkpt lat="48.85586" lon="6.07714">
        <ele>179.2998</ele>
        <time>2026-05-18T13:54:46+02:00</time>
      </trkpt>
      <trkpt lat="48.85592" lon="6.07713">
        <ele>179.2998</ele>
        <time>2026-05-18T13:54:47+02:00</time>
      </trkpt>
      <trkpt lat="48.85598" lon="6.07713">
        <ele>179.2998</ele>
        <time>2026-05-18T13:54:48+02:00</time>
      </trkpt>
      <trkpt lat="48.85603" lon="6.07712">
        <ele>179.2998</ele>
        <time>2026-05-18T13:54:49+02:00</time>
      </trkpt>
      <trkpt lat="48.85609" lon="6.07711">
        <ele>179.2998</ele>
        <time>2026-05-18T13:54:50+02:00</time>
      </trkpt>
      <trkpt lat="48.85615" lon="6.0771">
        <ele>179.2998</ele>
        <time>2026-05-18T13:54:51+02:00</time>
      </trkpt>
      <trkpt lat="48.85621" lon="6.07709">
        <ele>179.2998</ele>
        <time>2026-05-18T13:54:52+02:00</time>
      </trkpt>
      <trkpt lat="48.85626" lon="6.07709">
        <ele>179.2998</ele>
        <time>2026-05-18T13:54:53+02:00</time>
      </trkpt>
      <trkpt lat="48.85632" lon="6.07708">
        <ele>179.2998</ele>
        <time>2026-05-18T13:54:54+02:00</time>
      </trkpt>
      <trkpt lat="48.85637" lon="6.07708">
        <ele>179.2998</ele>
        <time>2026-05-18T13:54:55+02:00</time>
      </trkpt>
      <trkpt lat="48.85643" lon="6.07707">
        <ele>179.2998</ele>
        <time>2026-05-18T13:54:56+02:00</time>
      </trkpt>
      <trkpt lat="48.85649" lon="6.07707">
        <ele>179.2998</ele>
        <time>2026-05-18T13:54:57+02:00</time>
      </trkpt>
      <trkpt lat="48.85655" lon="6.07706">
        <ele>179.2998</ele>
        <time>2026-05-18T13:54:58+02:00</time>
      </trkpt>
      <trkpt lat="48.85661" lon="6.07706">
        <ele>179.2998</ele>
        <time>2026-05-18T13:54:59+02:00</time>
      </trkpt>
      <trkpt lat="48.85667" lon="6.07705">
        <ele>179.2998</ele>
        <time>2026-05-18T13:55:00+02:00</time>
      </trkpt>
      <trkpt lat="48.85673" lon="6.07704">
        <ele>179.2998</ele>
        <time>2026-05-18T13:55:01+02:00</time>
      </trkpt>
      <trkpt lat="48.85679" lon="6.07703">
        <ele>179.2998</ele>
        <time>2026-05-18T13:55:02+02:00</time>
      </trkpt>
      <trkpt lat="48.85685" lon="6.07702">
        <ele>179.2998</ele>
        <time>2026-05-18T13:55:03+02:00</time>
      </trkpt>
      <trkpt lat="48.85691" lon="6.07701">
        <ele>179.2998</ele>
        <time>2026-05-18T13:55:04+02:00</time>
      </trkpt>
      <trkpt lat="48.85697" lon="6.077">
        <ele>179.2998</ele>
        <time>2026-05-18T13:55:05+02:00</time>
      </trkpt>
      <trkpt lat="48.85703" lon="6.077">
        <ele>179.2998</ele>
        <time>2026-05-18T13:55:06+02:00</time>
      </trkpt>
      <trkpt lat="48.85709" lon="6.07699">
        <ele>179.2998</ele>
        <time>2026-05-18T13:55:07+02:00</time>
      </trkpt>
      <trkpt lat="48.85715" lon="6.07698">
        <ele>179.2998</ele>
        <time>2026-05-18T13:55:08+02:00</time>
      </trkpt>
      <trkpt lat="48.85721" lon="6.07697">
        <ele>179.2998</ele>
        <time>2026-05-18T13:55:09+02:00</time>
      </trkpt>
      <trkpt lat="48.85727" lon="6.07697">
        <ele>179.2998</ele>
        <time>2026-05-18T13:55:10+02:00</time>
      </trkpt>
      <trkpt lat="48.85733" lon="6.07696">
        <ele>179.2998</ele>
        <time>2026-05-18T13:55:11+02:00</time>
      </trkpt>
      <trkpt lat="48.85739" lon="6.07695">
        <ele>179.2998</ele>
        <time>2026-05-18T13:55:12+02:00</time>
      </trkpt>
      <trkpt lat="48.85744" lon="6.07695">
        <ele>179.2998</ele>
        <time>2026-05-18T13:55:13+02:00</time>
      </trkpt>
      <trkpt lat="48.8575" lon="6.07694">
        <ele>179.2998</ele>
        <time>2026-05-18T13:55:14+02:00</time>
      </trkpt>
      <trkpt lat="48.85756" lon="6.07693">
        <ele>179.2998</ele>
        <time>2026-05-18T13:55:15+02:00</time>
      </trkpt>
      <trkpt lat="48.85761" lon="6.07693">
        <ele>179.2998</ele>
        <time>2026-05-18T13:55:16+02:00</time>
      </trkpt>
      <trkpt lat="48.85767" lon="6.07692">
        <ele>179.2002</ele>
        <time>2026-05-18T13:55:17+02:00</time>
      </trkpt>
      <trkpt lat="48.85773" lon="6.07692">
        <ele>179.10059</ele>
        <time>2026-05-18T13:55:18+02:00</time>
      </trkpt>
      <trkpt lat="48.85779" lon="6.07691">
        <ele>178.90039</ele>
        <time>2026-05-18T13:55:19+02:00</time>
      </trkpt>
      <trkpt lat="48.85784" lon="6.07691">
        <ele>178.7998</ele>
        <time>2026-05-18T13:55:20+02:00</time>
      </trkpt>
      <trkpt lat="48.8579" lon="6.0769">
        <ele>178.60059</ele>
        <time>2026-05-18T13:55:21+02:00</time>
      </trkpt>
      <trkpt lat="48.85796" lon="6.0769">
        <ele>178.5</ele>
        <time>2026-05-18T13:55:22+02:00</time>
      </trkpt>
      <trkpt lat="48.85802" lon="6.07689">
        <ele>178.5</ele>
        <time>2026-05-18T13:55:23+02:00</time>
      </trkpt>
      <trkpt lat="48.85808" lon="6.07689">
        <ele>178.40039</ele>
        <time>2026-05-18T13:55:24+02:00</time>
      </trkpt>
      <trkpt lat="48.85814" lon="6.07688">
        <ele>178.40039</ele>
        <time>2026-05-18T13:55:25+02:00</time>
      </trkpt>
      <trkpt lat="48.85821" lon="6.07687">
        <ele>178.2998</ele>
        <time>2026-05-18T13:55:26+02:00</time>
      </trkpt>
      <trkpt lat="48.85827" lon="6.07687">
        <ele>178.2998</ele>
        <time>2026-05-18T13:55:27+02:00</time>
      </trkpt>
      <trkpt lat="48.85833" lon="6.07686">
        <ele>178.2998</ele>
        <time>2026-05-18T13:55:28+02:00</time>
      </trkpt>
      <trkpt lat="48.8584" lon="6.07685">
        <ele>178.2998</ele>
        <time>2026-05-18T13:55:29+02:00</time>
      </trkpt>
      <trkpt lat="48.85847" lon="6.07685">
        <ele>178.2998</ele>
        <time>2026-05-18T13:55:30+02:00</time>
      </trkpt>
      <trkpt lat="48.85853" lon="6.07684">
        <ele>178.2998</ele>
        <time>2026-05-18T13:55:31+02:00</time>
      </trkpt>
      <trkpt lat="48.8586" lon="6.07683">
        <ele>178.2998</ele>
        <time>2026-05-18T13:55:32+02:00</time>
      </trkpt>
      <trkpt lat="48.85867" lon="6.07682">
        <ele>178.2998</ele>
        <time>2026-05-18T13:55:33+02:00</time>
      </trkpt>
      <trkpt lat="48.85874" lon="6.07682">
        <ele>178.40039</ele>
        <time>2026-05-18T13:55:34+02:00</time>
      </trkpt>
      <trkpt lat="48.8588" lon="6.07681">
        <ele>178.7002</ele>
        <time>2026-05-18T13:55:35+02:00</time>
      </trkpt>
      <trkpt lat="48.85887" lon="6.0768">
        <ele>178.7998</ele>
        <time>2026-05-18T13:55:36+02:00</time>
      </trkpt>
      <trkpt lat="48.85894" lon="6.0768">
        <ele>179</ele>
        <time>2026-05-18T13:55:37+02:00</time>
      </trkpt>
      <trkpt lat="48.85901" lon="6.07679">
        <ele>179.10059</ele>
        <time>2026-05-18T13:55:38+02:00</time>
      </trkpt>
      <trkpt lat="48.85907" lon="6.07678">
        <ele>179.40039</ele>
        <time>2026-05-18T13:55:39+02:00</time>
      </trkpt>
      <trkpt lat="48.85914" lon="6.07678">
        <ele>179.5</ele>
        <time>2026-05-18T13:55:40+02:00</time>
      </trkpt>
      <trkpt lat="48.85921" lon="6.07677">
        <ele>179.60059</ele>
        <time>2026-05-18T13:55:41+02:00</time>
      </trkpt>
      <trkpt lat="48.85928" lon="6.07676">
        <ele>179.60059</ele>
        <time>2026-05-18T13:55:42+02:00</time>
      </trkpt>
      <trkpt lat="48.85935" lon="6.07675">
        <ele>179.60059</ele>
        <time>2026-05-18T13:55:43+02:00</time>
      </trkpt>
      <trkpt lat="48.85941" lon="6.07675">
        <ele>179.60059</ele>
        <time>2026-05-18T13:55:44+02:00</time>
      </trkpt>
      <trkpt lat="48.85948" lon="6.07674">
        <ele>179.60059</ele>
        <time>2026-05-18T13:55:45+02:00</time>
      </trkpt>
      <trkpt lat="48.85955" lon="6.07673">
        <ele>179.60059</ele>
        <time>2026-05-18T13:55:46+02:00</time>
      </trkpt>
      <trkpt lat="48.85962" lon="6.07672">
        <ele>179.60059</ele>
        <time>2026-05-18T13:55:47+02:00</time>
      </trkpt>
      <trkpt lat="48.85969" lon="6.07672">
        <ele>179.7998</ele>
        <time>2026-05-18T13:55:48+02:00</time>
      </trkpt>
      <trkpt lat="48.85975" lon="6.07671">
        <ele>179.7998</ele>
        <time>2026-05-18T13:55:49+02:00</time>
      </trkpt>
      <trkpt lat="48.85982" lon="6.0767">
        <ele>179.90039</ele>
        <time>2026-05-18T13:55:50+02:00</time>
      </trkpt>
      <trkpt lat="48.85988" lon="6.0767">
        <ele>180</ele>
        <time>2026-05-18T13:55:51+02:00</time>
      </trkpt>
      <trkpt lat="48.85995" lon="6.07669">
        <ele>180</ele>
        <time>2026-05-18T13:55:52+02:00</time>
      </trkpt>
      <trkpt lat="48.86002" lon="6.07668">
        <ele>180.10059</ele>
        <time>2026-05-18T13:55:53+02:00</time>
      </trkpt>
      <trkpt lat="48.86008" lon="6.07667">
        <ele>180.2002</ele>
        <time>2026-05-18T13:55:54+02:00</time>
      </trkpt>
      <trkpt lat="48.86015" lon="6.07666">
        <ele>180.2998</ele>
        <time>2026-05-18T13:55:55+02:00</time>
      </trkpt>
      <trkpt lat="48.86021" lon="6.07665">
        <ele>180.40039</ele>
        <time>2026-05-18T13:55:56+02:00</time>
      </trkpt>
      <trkpt lat="48.86027" lon="6.07664">
        <ele>180.2998</ele>
        <time>2026-05-18T13:55:57+02:00</time>
      </trkpt>
      <trkpt lat="48.86034" lon="6.07663">
        <ele>180.40039</ele>
        <time>2026-05-18T13:55:58+02:00</time>
      </trkpt>
      <trkpt lat="48.8604" lon="6.07662">
        <ele>180.40039</ele>
        <time>2026-05-18T13:55:59+02:00</time>
      </trkpt>
      <trkpt lat="48.86046" lon="6.07662">
        <ele>180.5</ele>
        <time>2026-05-18T13:56:00+02:00</time>
      </trkpt>
      <trkpt lat="48.86051" lon="6.07661">
        <ele>180.60059</ele>
        <time>2026-05-18T13:56:01+02:00</time>
      </trkpt>
      <trkpt lat="48.86056" lon="6.07661">
        <ele>180.60059</ele>
        <time>2026-05-18T13:56:02+02:00</time>
      </trkpt>
      <trkpt lat="48.86061" lon="6.07661">
        <ele>180.7002</ele>
        <time>2026-05-18T13:56:03+02:00</time>
      </trkpt>
      <trkpt lat="48.86065" lon="6.0766">
        <ele>180.7002</ele>
        <time>2026-05-18T13:56:04+02:00</time>
      </trkpt>
      <trkpt lat="48.8607" lon="6.0766">
        <ele>180.90039</ele>
        <time>2026-05-18T13:56:05+02:00</time>
      </trkpt>
      <trkpt lat="48.86074" lon="6.07659">
        <ele>181</ele>
        <time>2026-05-18T13:56:06+02:00</time>
      </trkpt>
      <trkpt lat="48.86078" lon="6.07658">
        <ele>181</ele>
        <time>2026-05-18T13:56:07+02:00</time>
      </trkpt>
      <trkpt lat="48.86082" lon="6.07657">
        <ele>181.10059</ele>
        <time>2026-05-18T13:56:08+02:00</time>
      </trkpt>
      <trkpt lat="48.86086" lon="6.07657">
        <ele>181.10059</ele>
        <time>2026-05-18T13:56:09+02:00</time>
      </trkpt>
      <trkpt lat="48.86089" lon="6.07656">
        <ele>181</ele>
        <time>2026-05-18T13:56:10+02:00</time>
      </trkpt>
      <trkpt lat="48.86093" lon="6.07655">
        <ele>181</ele>
        <time>2026-05-18T13:56:11+02:00</time>
      </trkpt>
      <trkpt lat="48.86096" lon="6.07654">
        <ele>180.90039</ele>
        <time>2026-05-18T13:56:12+02:00</time>
      </trkpt>
      <trkpt lat="48.861" lon="6.07653">
        <ele>180.7002</ele>
        <time>2026-05-18T13:56:13+02:00</time>
      </trkpt>
      <trkpt lat="48.86103" lon="6.07652">
        <ele>180.7002</ele>
        <time>2026-05-18T13:56:14+02:00</time>
      </trkpt>
      <trkpt lat="48.86106" lon="6.07651">
        <ele>180.5</ele>
        <time>2026-05-18T13:56:15+02:00</time>
      </trkpt>
      <trkpt lat="48.86109" lon="6.07651">
        <ele>180.5</ele>
        <time>2026-05-18T13:56:16+02:00</time>
      </trkpt>
      <trkpt lat="48.86112" lon="6.0765">
        <ele>180.2002</ele>
        <time>2026-05-18T13:56:17+02:00</time>
      </trkpt>
      <trkpt lat="48.86115" lon="6.07649">
        <ele>180.2002</ele>
        <time>2026-05-18T13:56:18+02:00</time>
      </trkpt>
      <trkpt lat="48.86119" lon="6.07648">
        <ele>179.90039</ele>
        <time>2026-05-18T13:56:19+02:00</time>
      </trkpt>
      <trkpt lat="48.86123" lon="6.07647">
        <ele>179.7002</ele>
        <time>2026-05-18T13:56:20+02:00</time>
      </trkpt>
      <trkpt lat="48.86126" lon="6.07646">
        <ele>179.5</ele>
        <time>2026-05-18T13:56:21+02:00</time>
      </trkpt>
      <trkpt lat="48.86131" lon="6.07644">
        <ele>179.2002</ele>
        <time>2026-05-18T13:56:22+02:00</time>
      </trkpt>
      <trkpt lat="48.86135" lon="6.07643">
        <ele>179</ele>
        <time>2026-05-18T13:56:23+02:00</time>
      </trkpt>
      <trkpt lat="48.86139" lon="6.07641">
        <ele>178.7002</ele>
        <time>2026-05-18T13:56:24+02:00</time>
      </trkpt>
      <trkpt lat="48.86143" lon="6.0764">
        <ele>178.7002</ele>
        <time>2026-05-18T13:56:25+02:00</time>
      </trkpt>
      <trkpt lat="48.86147" lon="6.07638">
        <ele>178.2998</ele>
        <time>2026-05-18T13:56:26+02:00</time>
      </trkpt>
      <trkpt lat="48.86151" lon="6.07636">
        <ele>178</ele>
        <time>2026-05-18T13:56:27+02:00</time>
      </trkpt>
      <trkpt lat="48.86155" lon="6.07634">
        <ele>178</ele>
        <time>2026-05-18T13:56:28+02:00</time>
      </trkpt>
      <trkpt lat="48.86159" lon="6.07632">
        <ele>177.90039</ele>
        <time>2026-05-18T13:56:29+02:00</time>
      </trkpt>
      <trkpt lat="48.86163" lon="6.0763">
        <ele>178.10059</ele>
        <time>2026-05-18T13:56:30+02:00</time>
      </trkpt>
      <trkpt lat="48.86168" lon="6.07627">
        <ele>178.40039</ele>
        <time>2026-05-18T13:56:31+02:00</time>
      </trkpt>
      <trkpt lat="48.86172" lon="6.07625">
        <ele>178.40039</ele>
        <time>2026-05-18T13:56:32+02:00</time>
      </trkpt>
      <trkpt lat="48.86177" lon="6.07623">
        <ele>179.40039</ele>
        <time>2026-05-18T13:56:33+02:00</time>
      </trkpt>
      <trkpt lat="48.86181" lon="6.0762">
        <ele>179.5</ele>
        <time>2026-05-18T13:56:34+02:00</time>
      </trkpt>
      <trkpt lat="48.86186" lon="6.07618">
        <ele>180.10059</ele>
        <time>2026-05-18T13:56:35+02:00</time>
      </trkpt>
      <trkpt lat="48.86191" lon="6.07615">
        <ele>180.40039</ele>
        <time>2026-05-18T13:56:36+02:00</time>
      </trkpt>
      <trkpt lat="48.86196" lon="6.07612">
        <ele>179.10059</ele>
        <time>2026-05-18T13:56:37+02:00</time>
      </trkpt>
      <trkpt lat="48.862" lon="6.0761">
        <ele>179.10059</ele>
        <time>2026-05-18T13:56:38+02:00</time>
      </trkpt>
      <trkpt lat="48.86205" lon="6.07607">
        <ele>179.2998</ele>
        <time>2026-05-18T13:56:39+02:00</time>
      </trkpt>
      <trkpt lat="48.8621" lon="6.07604">
        <ele>178.7002</ele>
        <time>2026-05-18T13:56:40+02:00</time>
      </trkpt>
      <trkpt lat="48.86215" lon="6.07601">
        <ele>178.7998</ele>
        <time>2026-05-18T13:56:41+02:00</time>
      </trkpt>
      <trkpt lat="48.8622" lon="6.07598">
        <ele>179</ele>
        <time>2026-05-18T13:56:42+02:00</time>
      </trkpt>
      <trkpt lat="48.86225" lon="6.07595">
        <ele>178.5</ele>
        <time>2026-05-18T13:56:43+02:00</time>
      </trkpt>
      <trkpt lat="48.86231" lon="6.07592">
        <ele>178.7002</ele>
        <time>2026-05-18T13:56:44+02:00</time>
      </trkpt>
      <trkpt lat="48.86236" lon="6.07589">
        <ele>178.90039</ele>
        <time>2026-05-18T13:56:45+02:00</time>
      </trkpt>
      <trkpt lat="48.86241" lon="6.07585">
        <ele>178.60059</ele>
        <time>2026-05-18T13:56:46+02:00</time>
      </trkpt>
      <trkpt lat="48.86246" lon="6.07582">
        <ele>179.10059</ele>
        <time>2026-05-18T13:56:47+02:00</time>
      </trkpt>
      <trkpt lat="48.86252" lon="6.07579">
        <ele>179.5</ele>
        <time>2026-05-18T13:56:48+02:00</time>
      </trkpt>
      <trkpt lat="48.86257" lon="6.07575">
        <ele>179.2998</ele>
        <time>2026-05-18T13:56:49+02:00</time>
      </trkpt>
      <trkpt lat="48.86263" lon="6.07572">
        <ele>179.60059</ele>
        <time>2026-05-18T13:56:50+02:00</time>
      </trkpt>
      <trkpt lat="48.86269" lon="6.07568">
        <ele>179</ele>
        <time>2026-05-18T13:56:51+02:00</time>
      </trkpt>
      <trkpt lat="48.86275" lon="6.07565">
        <ele>179.2002</ele>
        <time>2026-05-18T13:56:52+02:00</time>
      </trkpt>
      <trkpt lat="48.86281" lon="6.0756">
        <ele>178.7998</ele>
        <time>2026-05-18T13:56:53+02:00</time>
      </trkpt>
      <trkpt lat="48.86287" lon="6.07556">
        <ele>178.90039</ele>
        <time>2026-05-18T13:56:54+02:00</time>
      </trkpt>
      <trkpt lat="48.86293" lon="6.07552">
        <ele>178.40039</ele>
        <time>2026-05-18T13:56:55+02:00</time>
      </trkpt>
      <trkpt lat="48.86299" lon="6.07548">
        <ele>178.60059</ele>
        <time>2026-05-18T13:56:56+02:00</time>
      </trkpt>
      <trkpt lat="48.86306" lon="6.07544">
        <ele>178.7998</ele>
        <time>2026-05-18T13:56:57+02:00</time>
      </trkpt>
      <trkpt lat="48.86312" lon="6.0754">
        <ele>178.60059</ele>
        <time>2026-05-18T13:56:58+02:00</time>
      </trkpt>
      <trkpt lat="48.86318" lon="6.07536">
        <ele>179</ele>
        <time>2026-05-18T13:56:59+02:00</time>
      </trkpt>
      <trkpt lat="48.86324" lon="6.07532">
        <ele>179</ele>
        <time>2026-05-18T13:57:00+02:00</time>
      </trkpt>
      <trkpt lat="48.8633" lon="6.07529">
        <ele>179.40039</ele>
        <time>2026-05-18T13:57:01+02:00</time>
      </trkpt>
      <trkpt lat="48.86336" lon="6.07525">
        <ele>179.40039</ele>
        <time>2026-05-18T13:57:02+02:00</time>
      </trkpt>
      <trkpt lat="48.86342" lon="6.07521">
        <ele>179.7002</ele>
        <time>2026-05-18T13:57:03+02:00</time>
      </trkpt>
      <trkpt lat="48.86347" lon="6.07518">
        <ele>178.90039</ele>
        <time>2026-05-18T13:57:04+02:00</time>
      </trkpt>
      <trkpt lat="48.86353" lon="6.07514">
        <ele>179.60059</ele>
        <time>2026-05-18T13:57:05+02:00</time>
      </trkpt>
      <trkpt lat="48.86359" lon="6.0751">
        <ele>180</ele>
        <time>2026-05-18T13:57:06+02:00</time>
      </trkpt>
      <trkpt lat="48.86365" lon="6.07507">
        <ele>179.5</ele>
        <time>2026-05-18T13:57:07+02:00</time>
      </trkpt>
      <trkpt lat="48.86371" lon="6.07504">
        <ele>180</ele>
        <time>2026-05-18T13:57:08+02:00</time>
      </trkpt>
      <trkpt lat="48.86376" lon="6.075">
        <ele>179.7002</ele>
        <time>2026-05-18T13:57:09+02:00</time>
      </trkpt>
      <trkpt lat="48.86381" lon="6.07499">
        <ele>180.2002</ele>
        <time>2026-05-18T13:57:10+02:00</time>
      </trkpt>
      <trkpt lat="48.86385" lon="6.075">
        <ele>180.2002</ele>
        <time>2026-05-18T13:57:11+02:00</time>
      </trkpt>
      <trkpt lat="48.86389" lon="6.07504">
        <ele>181.2998</ele>
        <time>2026-05-18T13:57:12+02:00</time>
      </trkpt>
      <trkpt lat="48.86393" lon="6.07508">
        <ele>181.7002</ele>
        <time>2026-05-18T13:57:13+02:00</time>
      </trkpt>
      <trkpt lat="48.86398" lon="6.07511">
        <ele>182.40039</ele>
        <time>2026-05-18T13:57:14+02:00</time>
      </trkpt>
      <trkpt lat="48.86403" lon="6.07511">
        <ele>182.90039</ele>
        <time>2026-05-18T13:57:15+02:00</time>
      </trkpt>
      <trkpt lat="48.86408" lon="6.07509">
        <ele>182.60059</ele>
        <time>2026-05-18T13:57:16+02:00</time>
      </trkpt>
      <trkpt lat="48.86413" lon="6.07506">
        <ele>182.90039</ele>
        <time>2026-05-18T13:57:17+02:00</time>
      </trkpt>
      <trkpt lat="48.86418" lon="6.07502">
        <ele>183.10059</ele>
        <time>2026-05-18T13:57:18+02:00</time>
      </trkpt>
      <trkpt lat="48.86423" lon="6.07498">
        <ele>182.2002</ele>
        <time>2026-05-18T13:57:19+02:00</time>
      </trkpt>
      <trkpt lat="48.86429" lon="6.07494">
        <ele>182.5</ele>
        <time>2026-05-18T13:57:20+02:00</time>
      </trkpt>
      <trkpt lat="48.86434" lon="6.0749">
        <ele>182.10059</ele>
        <time>2026-05-18T13:57:21+02:00</time>
      </trkpt>
      <trkpt lat="48.8644" lon="6.07485">
        <ele>182.90039</ele>
        <time>2026-05-18T13:57:22+02:00</time>
      </trkpt>
      <trkpt lat="48.86445" lon="6.0748">
        <ele>183.40039</ele>
        <time>2026-05-18T13:57:23+02:00</time>
      </trkpt>
      <trkpt lat="48.8645" lon="6.07475">
        <ele>183.5</ele>
        <time>2026-05-18T13:57:24+02:00</time>
      </trkpt>
      <trkpt lat="48.86455" lon="6.0747">
        <ele>183.7998</ele>
        <time>2026-05-18T13:57:25+02:00</time>
      </trkpt>
      <trkpt lat="48.86461" lon="6.07465">
        <ele>182.7002</ele>
        <time>2026-05-18T13:57:26+02:00</time>
      </trkpt>
      <trkpt lat="48.86465" lon="6.07459">
        <ele>182.7002</ele>
        <time>2026-05-18T13:57:27+02:00</time>
      </trkpt>
      <trkpt lat="48.86469" lon="6.07453">
        <ele>181.7002</ele>
        <time>2026-05-18T13:57:28+02:00</time>
      </trkpt>
      <trkpt lat="48.86472" lon="6.07446">
        <ele>180.90039</ele>
        <time>2026-05-18T13:57:29+02:00</time>
      </trkpt>
      <trkpt lat="48.86475" lon="6.07439">
        <ele>179.90039</ele>
        <time>2026-05-18T13:57:30+02:00</time>
      </trkpt>
      <trkpt lat="48.86477" lon="6.07433">
        <ele>179.90039</ele>
        <time>2026-05-18T13:57:31+02:00</time>
      </trkpt>
      <trkpt lat="48.8648" lon="6.07426">
        <ele>179.2002</ele>
        <time>2026-05-18T13:57:32+02:00</time>
      </trkpt>
      <trkpt lat="48.86482" lon="6.07421">
        <ele>178.2998</ele>
        <time>2026-05-18T13:57:33+02:00</time>
      </trkpt>
      <trkpt lat="48.86485" lon="6.07415">
        <ele>178.2998</ele>
        <time>2026-05-18T13:57:34+02:00</time>
      </trkpt>
      <trkpt lat="48.86488" lon="6.07411">
        <ele>178.2998</ele>
        <time>2026-05-18T13:57:35+02:00</time>
      </trkpt>
      <trkpt lat="48.86492" lon="6.07407">
        <ele>179.10059</ele>
        <time>2026-05-18T13:57:36+02:00</time>
      </trkpt>
      <trkpt lat="48.86496" lon="6.07404">
        <ele>179</ele>
        <time>2026-05-18T13:57:37+02:00</time>
      </trkpt>
      <trkpt lat="48.865" lon="6.07401">
        <ele>179.2998</ele>
        <time>2026-05-18T13:57:38+02:00</time>
      </trkpt>
      <trkpt lat="48.86503" lon="6.07398">
        <ele>178.5</ele>
        <time>2026-05-18T13:57:39+02:00</time>
      </trkpt>
      <trkpt lat="48.86507" lon="6.07396">
        <ele>178.60059</ele>
        <time>2026-05-18T13:57:40+02:00</time>
      </trkpt>
      <trkpt lat="48.86509" lon="6.07395">
        <ele>178.60059</ele>
        <time>2026-05-18T13:57:41+02:00</time>
      </trkpt>
      <trkpt lat="48.86512" lon="6.07395">
        <ele>178.7998</ele>
        <time>2026-05-18T13:57:42+02:00</time>
      </trkpt>
      <trkpt lat="48.86513" lon="6.07395">
        <ele>178.7998</ele>
        <time>2026-05-18T13:57:43+02:00</time>
      </trkpt>
      <trkpt lat="48.86513" lon="6.07395">
        <ele>178.7998</ele>
        <time>2026-05-18T13:57:44+02:00</time>
      </trkpt>
      <trkpt lat="48.86513" lon="6.07395">
        <ele>178.7998</ele>
        <time>2026-05-18T13:57:45+02:00</time>
      </trkpt>
      <trkpt lat="48.86513" lon="6.07395">
        <ele>178.7998</ele>
        <time>2026-05-18T13:57:46+02:00</time>
      </trkpt>
      <trkpt lat="48.86513" lon="6.07395">
        <ele>178.7998</ele>
        <time>2026-05-18T13:57:47+02:00</time>
      </trkpt>
      <trkpt lat="48.86513" lon="6.07395">
        <ele>178.7998</ele>
        <time>2026-05-18T14:04:56+02:00</time>
      </trkpt>
      <trkpt lat="48.86513" lon="6.07395">
        <ele>178.7998</ele>
        <time>2026-05-18T14:04:57+02:00</time>
      </trkpt>
      <trkpt lat="48.86513" lon="6.07395">
        <ele>178.7998</ele>
        <time>2026-05-18T14:04:58+02:00</time>
      </trkpt>
      <trkpt lat="48.86513" lon="6.07395">
        <ele>178.7998</ele>
        <time>2026-05-18T14:04:59+02:00</time>
      </trkpt>
      <trkpt lat="48.86513" lon="6.07395">
        <ele>178.7998</ele>
        <time>2026-05-18T14:05:00+02:00</time>
      </trkpt>
      <trkpt lat="48.86513" lon="6.07395">
        <ele>178.7998</ele>
        <time>2026-05-18T14:05:01+02:00</time>
      </trkpt>
      <trkpt lat="48.86513" lon="6.07395">
        <ele>178.7998</ele>
        <time>2026-05-18T14:05:02+02:00</time>
      </trkpt>
      <trkpt lat="48.86513" lon="6.07395">
        <ele>178.7998</ele>
        <time>2026-05-18T14:05:03+02:00</time>
      </trkpt>
      <trkpt lat="48.86513" lon="6.07395">
        <ele>178.7998</ele>
        <time>2026-05-18T14:05:04+02:00</time>
      </trkpt>
      <trkpt lat="48.86513" lon="6.07395">
        <ele>178.7998</ele>
        <time>2026-05-18T14:05:05+02:00</time>
      </trkpt>
      <trkpt lat="48.86513" lon="6.07395">
        <ele>178.7998</ele>
        <time>2026-05-18T14:05:06+02:00</time>
      </trkpt>
      <trkpt lat="48.86513" lon="6.07395">
        <ele>178.7998</ele>
        <time>2026-05-18T14:05:07+02:00</time>
      </trkpt>
      <trkpt lat="48.86513" lon="6.07395">
        <ele>178.7998</ele>
        <time>2026-05-18T14:05:08+02:00</time>
      </trkpt>
      <trkpt lat="48.86513" lon="6.07395">
        <ele>178.7998</ele>
        <time>2026-05-18T14:05:09+02:00</time>
      </trkpt>
      <trkpt lat="48.86513" lon="6.07395">
        <ele>178.7998</ele>
        <time>2026-05-18T14:05:10+02:00</time>
      </trkpt>
      <trkpt lat="48.86513" lon="6.07395">
        <ele>178.7998</ele>
        <time>2026-05-18T14:05:11+02:00</time>
      </trkpt>
      <trkpt lat="48.86519" lon="6.07401">
        <ele>180.10059</ele>
        <time>2026-05-18T14:05:12+02:00</time>
      </trkpt>
      <trkpt lat="48.86521" lon="6.07401">
        <ele>180.10059</ele>
        <time>2026-05-18T14:05:13+02:00</time>
      </trkpt>
      <trkpt lat="48.86524" lon="6.074">
        <ele>180.5</ele>
        <time>2026-05-18T14:05:14+02:00</time>
      </trkpt>
      <trkpt lat="48.86526" lon="6.07399">
        <ele>180.5</ele>
        <time>2026-05-18T14:05:15+02:00</time>
      </trkpt>
      <trkpt lat="48.86529" lon="6.07398">
        <ele>180</ele>
        <time>2026-05-18T14:05:16+02:00</time>
      </trkpt>
      <trkpt lat="48.86532" lon="6.07397">
        <ele>180</ele>
        <time>2026-05-18T14:05:17+02:00</time>
      </trkpt>
      <trkpt lat="48.86535" lon="6.07396">
        <ele>180.5</ele>
        <time>2026-05-18T14:05:18+02:00</time>
      </trkpt>
      <trkpt lat="48.86538" lon="6.07395">
        <ele>180.5</ele>
        <time>2026-05-18T14:05:19+02:00</time>
      </trkpt>
      <trkpt lat="48.86542" lon="6.07394">
        <ele>181</ele>
        <time>2026-05-18T14:05:20+02:00</time>
      </trkpt>
      <trkpt lat="48.86546" lon="6.07393">
        <ele>181.7002</ele>
        <time>2026-05-18T14:05:21+02:00</time>
      </trkpt>
      <trkpt lat="48.8655" lon="6.07392">
        <ele>181.7002</ele>
        <time>2026-05-18T14:05:22+02:00</time>
      </trkpt>
      <trkpt lat="48.86554" lon="6.0739">
        <ele>182.40039</ele>
        <time>2026-05-18T14:05:23+02:00</time>
      </trkpt>
      <trkpt lat="48.86558" lon="6.07388">
        <ele>181.7002</ele>
        <time>2026-05-18T14:05:24+02:00</time>
      </trkpt>
      <trkpt lat="48.86562" lon="6.07385">
        <ele>182.10059</ele>
        <time>2026-05-18T14:05:25+02:00</time>
      </trkpt>
      <trkpt lat="48.86566" lon="6.07383">
        <ele>182.10059</ele>
        <time>2026-05-18T14:05:26+02:00</time>
      </trkpt>
      <trkpt lat="48.8657" lon="6.07379">
        <ele>181</ele>
        <time>2026-05-18T14:05:27+02:00</time>
      </trkpt>
      <trkpt lat="48.86574" lon="6.07376">
        <ele>181.40039</ele>
        <time>2026-05-18T14:05:28+02:00</time>
      </trkpt>
      <trkpt lat="48.86579" lon="6.07373">
        <ele>181.7998</ele>
        <time>2026-05-18T14:05:29+02:00</time>
      </trkpt>
      <trkpt lat="48.86583" lon="6.07371">
        <ele>180.5</ele>
        <time>2026-05-18T14:05:30+02:00</time>
      </trkpt>
      <trkpt lat="48.86588" lon="6.07367">
        <ele>180.7998</ele>
        <time>2026-05-18T14:05:31+02:00</time>
      </trkpt>
      <trkpt lat="48.86592" lon="6.07364">
        <ele>181.10059</ele>
        <time>2026-05-18T14:05:32+02:00</time>
      </trkpt>
      <trkpt lat="48.86597" lon="6.07361">
        <ele>180.40039</ele>
        <time>2026-05-18T14:05:33+02:00</time>
      </trkpt>
      <trkpt lat="48.86602" lon="6.07358">
        <ele>180.90039</ele>
        <time>2026-05-18T14:05:34+02:00</time>
      </trkpt>
      <trkpt lat="48.86607" lon="6.07354">
        <ele>180.10059</ele>
        <time>2026-05-18T14:05:35+02:00</time>
      </trkpt>
      <trkpt lat="48.86612" lon="6.07351">
        <ele>180.7998</ele>
        <time>2026-05-18T14:05:36+02:00</time>
      </trkpt>
      <trkpt lat="48.86617" lon="6.07348">
        <ele>181.7002</ele>
        <time>2026-05-18T14:05:37+02:00</time>
      </trkpt>
      <trkpt lat="48.86622" lon="6.07344">
        <ele>181.10059</ele>
        <time>2026-05-18T14:05:38+02:00</time>
      </trkpt>
      <trkpt lat="48.86626" lon="6.0734">
        <ele>181.7002</ele>
        <time>2026-05-18T14:05:39+02:00</time>
      </trkpt>
      <trkpt lat="48.86631" lon="6.07337">
        <ele>180.40039</ele>
        <time>2026-05-18T14:05:40+02:00</time>
      </trkpt>
      <trkpt lat="48.86636" lon="6.07334">
        <ele>180.7998</ele>
        <time>2026-05-18T14:05:41+02:00</time>
      </trkpt>
      <trkpt lat="48.86641" lon="6.07331">
        <ele>181.10059</ele>
        <time>2026-05-18T14:05:42+02:00</time>
      </trkpt>
      <trkpt lat="48.86646" lon="6.07328">
        <ele>180</ele>
        <time>2026-05-18T14:05:43+02:00</time>
      </trkpt>
      <trkpt lat="48.86652" lon="6.07325">
        <ele>180.2998</ele>
        <time>2026-05-18T14:05:44+02:00</time>
      </trkpt>
      <trkpt lat="48.86657" lon="6.07321">
        <ele>180.7002</ele>
        <time>2026-05-18T14:05:45+02:00</time>
      </trkpt>
      <trkpt lat="48.86662" lon="6.07318">
        <ele>180.2002</ele>
        <time>2026-05-18T14:05:46+02:00</time>
      </trkpt>
      <trkpt lat="48.86668" lon="6.07314">
        <ele>180.7998</ele>
        <time>2026-05-18T14:05:47+02:00</time>
      </trkpt>
      <trkpt lat="48.86673" lon="6.0731">
        <ele>180.60059</ele>
        <time>2026-05-18T14:05:48+02:00</time>
      </trkpt>
      <trkpt lat="48.86678" lon="6.07307">
        <ele>181.2002</ele>
        <time>2026-05-18T14:05:49+02:00</time>
      </trkpt>
      <trkpt lat="48.86683" lon="6.07303">
        <ele>180.7998</ele>
        <time>2026-05-18T14:05:50+02:00</time>
      </trkpt>
      <trkpt lat="48.86689" lon="6.07299">
        <ele>181.2002</ele>
        <time>2026-05-18T14:05:51+02:00</time>
      </trkpt>
      <trkpt lat="48.86694" lon="6.07296">
        <ele>181.5</ele>
        <time>2026-05-18T14:05:52+02:00</time>
      </trkpt>
      <trkpt lat="48.86699" lon="6.07292">
        <ele>180.60059</ele>
        <time>2026-05-18T14:05:53+02:00</time>
      </trkpt>
      <trkpt lat="48.86704" lon="6.07289">
        <ele>180.7998</ele>
        <time>2026-05-18T14:05:54+02:00</time>
      </trkpt>
      <trkpt lat="48.8671" lon="6.07286">
        <ele>180.2002</ele>
        <time>2026-05-18T14:05:55+02:00</time>
      </trkpt>
      <trkpt lat="48.86715" lon="6.07282">
        <ele>180.60059</ele>
        <time>2026-05-18T14:05:56+02:00</time>
      </trkpt>
      <trkpt lat="48.86721" lon="6.07279">
        <ele>181.10059</ele>
        <time>2026-05-18T14:05:57+02:00</time>
      </trkpt>
      <trkpt lat="48.86727" lon="6.07275">
        <ele>180.90039</ele>
        <time>2026-05-18T14:05:58+02:00</time>
      </trkpt>
      <trkpt lat="48.86732" lon="6.07272">
        <ele>181.40039</ele>
        <time>2026-05-18T14:05:59+02:00</time>
      </trkpt>
      <trkpt lat="48.86737" lon="6.07269">
        <ele>180.40039</ele>
        <time>2026-05-18T14:06:00+02:00</time>
      </trkpt>
      <trkpt lat="48.86743" lon="6.07266">
        <ele>180.60059</ele>
        <time>2026-05-18T14:06:01+02:00</time>
      </trkpt>
      <trkpt lat="48.86748" lon="6.07263">
        <ele>180.60059</ele>
        <time>2026-05-18T14:06:02+02:00</time>
      </trkpt>
      <trkpt lat="48.86753" lon="6.0726">
        <ele>179.40039</ele>
        <time>2026-05-18T14:06:03+02:00</time>
      </trkpt>
      <trkpt lat="48.86759" lon="6.07257">
        <ele>179.5</ele>
        <time>2026-05-18T14:06:04+02:00</time>
      </trkpt>
      <trkpt lat="48.86764" lon="6.07254">
        <ele>179.7002</ele>
        <time>2026-05-18T14:06:05+02:00</time>
      </trkpt>
      <trkpt lat="48.86769" lon="6.07252">
        <ele>179</ele>
        <time>2026-05-18T14:06:06+02:00</time>
      </trkpt>
      <trkpt lat="48.86775" lon="6.07249">
        <ele>179.2002</ele>
        <time>2026-05-18T14:06:07+02:00</time>
      </trkpt>
      <trkpt lat="48.86781" lon="6.07247">
        <ele>179.5</ele>
        <time>2026-05-18T14:06:08+02:00</time>
      </trkpt>
      <trkpt lat="48.86786" lon="6.07245">
        <ele>179.7002</ele>
        <time>2026-05-18T14:06:09+02:00</time>
      </trkpt>
      <trkpt lat="48.86792" lon="6.07242">
        <ele>179.10059</ele>
        <time>2026-05-18T14:06:10+02:00</time>
      </trkpt>
      <trkpt lat="48.86798" lon="6.0724">
        <ele>179.40039</ele>
        <time>2026-05-18T14:06:11+02:00</time>
      </trkpt>
      <trkpt lat="48.86804" lon="6.07238">
        <ele>179.7002</ele>
        <time>2026-05-18T14:06:12+02:00</time>
      </trkpt>
      <trkpt lat="48.86809" lon="6.07236">
        <ele>180.2002</ele>
        <time>2026-05-18T14:06:13+02:00</time>
      </trkpt>
      <trkpt lat="48.86815" lon="6.07234">
        <ele>180.2002</ele>
        <time>2026-05-18T14:06:14+02:00</time>
      </trkpt>
      <trkpt lat="48.86821" lon="6.07232">
        <ele>180.90039</ele>
        <time>2026-05-18T14:06:15+02:00</time>
      </trkpt>
      <trkpt lat="48.86826" lon="6.07231">
        <ele>181.60059</ele>
        <time>2026-05-18T14:06:16+02:00</time>
      </trkpt>
      <trkpt lat="48.86832" lon="6.0723">
        <ele>181.90039</ele>
        <time>2026-05-18T14:06:17+02:00</time>
      </trkpt>
      <trkpt lat="48.86838" lon="6.07228">
        <ele>182</ele>
        <time>2026-05-18T14:06:18+02:00</time>
      </trkpt>
      <trkpt lat="48.86844" lon="6.07227">
        <ele>182.10059</ele>
        <time>2026-05-18T14:06:19+02:00</time>
      </trkpt>
      <trkpt lat="48.8685" lon="6.07226">
        <ele>180.7002</ele>
        <time>2026-05-18T14:06:20+02:00</time>
      </trkpt>
      <trkpt lat="48.86856" lon="6.07226">
        <ele>180.90039</ele>
        <time>2026-05-18T14:06:21+02:00</time>
      </trkpt>
      <trkpt lat="48.86862" lon="6.07226">
        <ele>181</ele>
        <time>2026-05-18T14:06:22+02:00</time>
      </trkpt>
      <trkpt lat="48.86868" lon="6.07226">
        <ele>181.10059</ele>
        <time>2026-05-18T14:06:23+02:00</time>
      </trkpt>
      <trkpt lat="48.86874" lon="6.07225">
        <ele>181.2002</ele>
        <time>2026-05-18T14:06:24+02:00</time>
      </trkpt>
      <trkpt lat="48.86879" lon="6.07224">
        <ele>181.2998</ele>
        <time>2026-05-18T14:06:25+02:00</time>
      </trkpt>
      <trkpt lat="48.86884" lon="6.07222">
        <ele>181.40039</ele>
        <time>2026-05-18T14:06:26+02:00</time>
      </trkpt>
      <trkpt lat="48.86889" lon="6.07222">
        <ele>181.40039</ele>
        <time>2026-05-18T14:06:27+02:00</time>
      </trkpt>
      <trkpt lat="48.86895" lon="6.07224">
        <ele>181.60059</ele>
        <time>2026-05-18T14:06:28+02:00</time>
      </trkpt>
      <trkpt lat="48.869" lon="6.07227">
        <ele>182.7002</ele>
        <time>2026-05-18T14:06:29+02:00</time>
      </trkpt>
      <trkpt lat="48.86906" lon="6.07231">
        <ele>182.7002</ele>
        <time>2026-05-18T14:06:30+02:00</time>
      </trkpt>
      <trkpt lat="48.86913" lon="6.07233">
        <ele>182.60059</ele>
        <time>2026-05-18T14:06:31+02:00</time>
      </trkpt>
      <trkpt lat="48.8692" lon="6.07233">
        <ele>182.7002</ele>
        <time>2026-05-18T14:06:32+02:00</time>
      </trkpt>
      <trkpt lat="48.86927" lon="6.07232">
        <ele>182.7002</ele>
        <time>2026-05-18T14:06:33+02:00</time>
      </trkpt>
      <trkpt lat="48.86933" lon="6.07231">
        <ele>182.7998</ele>
        <time>2026-05-18T14:06:34+02:00</time>
      </trkpt>
      <trkpt lat="48.8694" lon="6.0723">
        <ele>182.7998</ele>
        <time>2026-05-18T14:06:35+02:00</time>
      </trkpt>
      <trkpt lat="48.86947" lon="6.07229">
        <ele>182.90039</ele>
        <time>2026-05-18T14:06:36+02:00</time>
      </trkpt>
      <trkpt lat="48.86953" lon="6.07228">
        <ele>182.90039</ele>
        <time>2026-05-18T14:06:37+02:00</time>
      </trkpt>
      <trkpt lat="48.8696" lon="6.07227">
        <ele>183</ele>
        <time>2026-05-18T14:06:38+02:00</time>
      </trkpt>
      <trkpt lat="48.86966" lon="6.07225">
        <ele>182.2002</ele>
        <time>2026-05-18T14:06:39+02:00</time>
      </trkpt>
      <trkpt lat="48.86973" lon="6.07224">
        <ele>182.5</ele>
        <time>2026-05-18T14:06:40+02:00</time>
      </trkpt>
      <trkpt lat="48.86979" lon="6.07223">
        <ele>182.7002</ele>
        <time>2026-05-18T14:06:41+02:00</time>
      </trkpt>
      <trkpt lat="48.86985" lon="6.07222">
        <ele>182.90039</ele>
        <time>2026-05-18T14:06:42+02:00</time>
      </trkpt>
      <trkpt lat="48.86992" lon="6.07221">
        <ele>183.2998</ele>
        <time>2026-05-18T14:06:43+02:00</time>
      </trkpt>
      <trkpt lat="48.86998" lon="6.0722">
        <ele>183.5</ele>
        <time>2026-05-18T14:06:44+02:00</time>
      </trkpt>
      <trkpt lat="48.87004" lon="6.07219">
        <ele>183.60059</ele>
        <time>2026-05-18T14:06:45+02:00</time>
      </trkpt>
      <trkpt lat="48.87011" lon="6.07218">
        <ele>183.7002</ele>
        <time>2026-05-18T14:06:46+02:00</time>
      </trkpt>
      <trkpt lat="48.87016" lon="6.07217">
        <ele>183.90039</ele>
        <time>2026-05-18T14:06:47+02:00</time>
      </trkpt>
      <trkpt lat="48.87022" lon="6.07216">
        <ele>183.90039</ele>
        <time>2026-05-18T14:06:48+02:00</time>
      </trkpt>
      <trkpt lat="48.87027" lon="6.07215">
        <ele>183.90039</ele>
        <time>2026-05-18T14:06:49+02:00</time>
      </trkpt>
      <trkpt lat="48.87033" lon="6.07214">
        <ele>183.90039</ele>
        <time>2026-05-18T14:06:50+02:00</time>
      </trkpt>
      <trkpt lat="48.87038" lon="6.07212">
        <ele>184</ele>
        <time>2026-05-18T14:06:51+02:00</time>
      </trkpt>
      <trkpt lat="48.87044" lon="6.07211">
        <ele>184</ele>
        <time>2026-05-18T14:06:52+02:00</time>
      </trkpt>
      <trkpt lat="48.87049" lon="6.07211">
        <ele>184</ele>
        <time>2026-05-18T14:06:53+02:00</time>
      </trkpt>
      <trkpt lat="48.87055" lon="6.0721">
        <ele>184.10059</ele>
        <time>2026-05-18T14:06:54+02:00</time>
      </trkpt>
      <trkpt lat="48.8706" lon="6.07209">
        <ele>184.10059</ele>
        <time>2026-05-18T14:06:55+02:00</time>
      </trkpt>
      <trkpt lat="48.87066" lon="6.07208">
        <ele>184.10059</ele>
        <time>2026-05-18T14:06:56+02:00</time>
      </trkpt>
      <trkpt lat="48.87071" lon="6.07207">
        <ele>184</ele>
        <time>2026-05-18T14:06:57+02:00</time>
      </trkpt>
      <trkpt lat="48.87077" lon="6.07206">
        <ele>184</ele>
        <time>2026-05-18T14:06:58+02:00</time>
      </trkpt>
      <trkpt lat="48.87082" lon="6.07204">
        <ele>184</ele>
        <time>2026-05-18T14:06:59+02:00</time>
      </trkpt>
      <trkpt lat="48.87088" lon="6.07203">
        <ele>183.90039</ele>
        <time>2026-05-18T14:07:00+02:00</time>
      </trkpt>
      <trkpt lat="48.87093" lon="6.07202">
        <ele>183.7998</ele>
        <time>2026-05-18T14:07:01+02:00</time>
      </trkpt>
      <trkpt lat="48.87098" lon="6.072">
        <ele>183.60059</ele>
        <time>2026-05-18T14:07:02+02:00</time>
      </trkpt>
      <trkpt lat="48.87104" lon="6.07199">
        <ele>183.40039</ele>
        <time>2026-05-18T14:07:03+02:00</time>
      </trkpt>
      <trkpt lat="48.87109" lon="6.07198">
        <ele>183.40039</ele>
        <time>2026-05-18T14:07:04+02:00</time>
      </trkpt>
      <trkpt lat="48.87114" lon="6.07197">
        <ele>183.2998</ele>
        <time>2026-05-18T14:07:05+02:00</time>
      </trkpt>
      <trkpt lat="48.87119" lon="6.07196">
        <ele>183.10059</ele>
        <time>2026-05-18T14:07:06+02:00</time>
      </trkpt>
      <trkpt lat="48.87125" lon="6.07194">
        <ele>183</ele>
        <time>2026-05-18T14:07:07+02:00</time>
      </trkpt>
      <trkpt lat="48.8713" lon="6.07193">
        <ele>182.90039</ele>
        <time>2026-05-18T14:07:08+02:00</time>
      </trkpt>
      <trkpt lat="48.87135" lon="6.07192">
        <ele>182.2998</ele>
        <time>2026-05-18T14:07:09+02:00</time>
      </trkpt>
      <trkpt lat="48.87139" lon="6.07191">
        <ele>182.2002</ele>
        <time>2026-05-18T14:07:10+02:00</time>
      </trkpt>
      <trkpt lat="48.87144" lon="6.0719">
        <ele>182.10059</ele>
        <time>2026-05-18T14:07:11+02:00</time>
      </trkpt>
      <trkpt lat="48.87149" lon="6.0719">
        <ele>182.10059</ele>
        <time>2026-05-18T14:07:12+02:00</time>
      </trkpt>
      <trkpt lat="48.87155" lon="6.07189">
        <ele>182.2002</ele>
        <time>2026-05-18T14:07:13+02:00</time>
      </trkpt>
      <trkpt lat="48.8716" lon="6.07188">
        <ele>182.2002</ele>
        <time>2026-05-18T14:07:14+02:00</time>
      </trkpt>
      <trkpt lat="48.87165" lon="6.07187">
        <ele>182.2002</ele>
        <time>2026-05-18T14:07:15+02:00</time>
      </trkpt>
      <trkpt lat="48.87171" lon="6.07186">
        <ele>182.2002</ele>
        <time>2026-05-18T14:07:16+02:00</time>
      </trkpt>
      <trkpt lat="48.87176" lon="6.07185">
        <ele>182.2002</ele>
        <time>2026-05-18T14:07:17+02:00</time>
      </trkpt>
      <trkpt lat="48.8718" lon="6.07184">
        <ele>182.2998</ele>
        <time>2026-05-18T14:07:18+02:00</time>
      </trkpt>
      <trkpt lat="48.87184" lon="6.07183">
        <ele>181.7998</ele>
        <time>2026-05-18T14:07:19+02:00</time>
      </trkpt>
      <trkpt lat="48.87189" lon="6.07182">
        <ele>181.90039</ele>
        <time>2026-05-18T14:07:20+02:00</time>
      </trkpt>
      <trkpt lat="48.87193" lon="6.0718">
        <ele>181.90039</ele>
        <time>2026-05-18T14:07:21+02:00</time>
      </trkpt>
      <trkpt lat="48.87197" lon="6.0718">
        <ele>182</ele>
        <time>2026-05-18T14:07:22+02:00</time>
      </trkpt>
      <trkpt lat="48.87201" lon="6.07179">
        <ele>182.10059</ele>
        <time>2026-05-18T14:07:23+02:00</time>
      </trkpt>
      <trkpt lat="48.87205" lon="6.07178">
        <ele>182.10059</ele>
        <time>2026-05-18T14:07:24+02:00</time>
      </trkpt>
      <trkpt lat="48.87208" lon="6.07177">
        <ele>182.2002</ele>
        <time>2026-05-18T14:07:25+02:00</time>
      </trkpt>
      <trkpt lat="48.87212" lon="6.07175">
        <ele>182.2998</ele>
        <time>2026-05-18T14:07:26+02:00</time>
      </trkpt>
      <trkpt lat="48.87215" lon="6.07173">
        <ele>181.60059</ele>
        <time>2026-05-18T14:07:27+02:00</time>
      </trkpt>
      <trkpt lat="48.87218" lon="6.07172">
        <ele>181.60059</ele>
        <time>2026-05-18T14:07:28+02:00</time>
      </trkpt>
      <trkpt lat="48.87221" lon="6.0717">
        <ele>181.60059</ele>
        <time>2026-05-18T14:07:29+02:00</time>
      </trkpt>
      <trkpt lat="48.87224" lon="6.07168">
        <ele>181.7002</ele>
        <time>2026-05-18T14:07:30+02:00</time>
      </trkpt>
      <trkpt lat="48.87226" lon="6.07166">
        <ele>180.7002</ele>
        <time>2026-05-18T14:07:31+02:00</time>
      </trkpt>
      <trkpt lat="48.87229" lon="6.07164">
        <ele>180.7002</ele>
        <time>2026-05-18T14:07:32+02:00</time>
      </trkpt>
      <trkpt lat="48.87232" lon="6.07162">
        <ele>180.7002</ele>
        <time>2026-05-18T14:07:33+02:00</time>
      </trkpt>
      <trkpt lat="48.87235" lon="6.0716">
        <ele>180.7998</ele>
        <time>2026-05-18T14:07:34+02:00</time>
      </trkpt>
      <trkpt lat="48.87238" lon="6.07158">
        <ele>180.7998</ele>
        <time>2026-05-18T14:07:35+02:00</time>
      </trkpt>
      <trkpt lat="48.87241" lon="6.07157">
        <ele>179.7002</ele>
        <time>2026-05-18T14:07:36+02:00</time>
      </trkpt>
      <trkpt lat="48.87244" lon="6.07156">
        <ele>179.7002</ele>
        <time>2026-05-18T14:07:37+02:00</time>
      </trkpt>
      <trkpt lat="48.87248" lon="6.07155">
        <ele>179.7002</ele>
        <time>2026-05-18T14:07:38+02:00</time>
      </trkpt>
      <trkpt lat="48.87251" lon="6.07154">
        <ele>179.7998</ele>
        <time>2026-05-18T14:07:39+02:00</time>
      </trkpt>
      <trkpt lat="48.87254" lon="6.07154">
        <ele>179.7998</ele>
        <time>2026-05-18T14:07:40+02:00</time>
      </trkpt>
      <trkpt lat="48.87258" lon="6.07153">
        <ele>179.90039</ele>
        <time>2026-05-18T14:07:41+02:00</time>
      </trkpt>
      <trkpt lat="48.87261" lon="6.07151">
        <ele>179.90039</ele>
        <time>2026-05-18T14:07:42+02:00</time>
      </trkpt>
      <trkpt lat="48.87264" lon="6.07151">
        <ele>180</ele>
        <time>2026-05-18T14:07:43+02:00</time>
      </trkpt>
      <trkpt lat="48.87268" lon="6.07151">
        <ele>180.10059</ele>
        <time>2026-05-18T14:07:44+02:00</time>
      </trkpt>
      <trkpt lat="48.87271" lon="6.0715">
        <ele>180.10059</ele>
        <time>2026-05-18T14:07:45+02:00</time>
      </trkpt>
      <trkpt lat="48.87274" lon="6.07149">
        <ele>179.40039</ele>
        <time>2026-05-18T14:07:46+02:00</time>
      </trkpt>
      <trkpt lat="48.87277" lon="6.07148">
        <ele>179.40039</ele>
        <time>2026-05-18T14:07:47+02:00</time>
      </trkpt>
      <trkpt lat="48.87279" lon="6.07145">
        <ele>179.40039</ele>
        <time>2026-05-18T14:07:48+02:00</time>
      </trkpt>
      <trkpt lat="48.8728" lon="6.07142">
        <ele>179.40039</ele>
        <time>2026-05-18T14:07:49+02:00</time>
      </trkpt>
      <trkpt lat="48.8728" lon="6.07139">
        <ele>178.7998</ele>
        <time>2026-05-18T14:07:50+02:00</time>
      </trkpt>
      <trkpt lat="48.8728" lon="6.07135">
        <ele>178.7998</ele>
        <time>2026-05-18T14:07:51+02:00</time>
      </trkpt>
      <trkpt lat="48.8728" lon="6.0713">
        <ele>178.2998</ele>
        <time>2026-05-18T14:07:52+02:00</time>
      </trkpt>
      <trkpt lat="48.8728" lon="6.07126">
        <ele>178.2998</ele>
        <time>2026-05-18T14:07:53+02:00</time>
      </trkpt>
      <trkpt lat="48.8728" lon="6.07122">
        <ele>177.90039</ele>
        <time>2026-05-18T14:07:54+02:00</time>
      </trkpt>
      <trkpt lat="48.8728" lon="6.07117">
        <ele>177.90039</ele>
        <time>2026-05-18T14:07:55+02:00</time>
      </trkpt>
      <trkpt lat="48.8728" lon="6.07111">
        <ele>177.5</ele>
        <time>2026-05-18T14:07:56+02:00</time>
      </trkpt>
      <trkpt lat="48.87279" lon="6.07106">
        <ele>177.40039</ele>
        <time>2026-05-18T14:07:57+02:00</time>
      </trkpt>
      <trkpt lat="48.87279" lon="6.071">
        <ele>177.40039</ele>
        <time>2026-05-18T14:07:58+02:00</time>
      </trkpt>
      <trkpt lat="48.87279" lon="6.07095">
        <ele>177.2998</ele>
        <time>2026-05-18T14:07:59+02:00</time>
      </trkpt>
      <trkpt lat="48.87278" lon="6.07089">
        <ele>177.2998</ele>
        <time>2026-05-18T14:08:00+02:00</time>
      </trkpt>
      <trkpt lat="48.87277" lon="6.07083">
        <ele>177.2998</ele>
        <time>2026-05-18T14:08:01+02:00</time>
      </trkpt>
      <trkpt lat="48.87275" lon="6.07076">
        <ele>177.2998</ele>
        <time>2026-05-18T14:08:02+02:00</time>
      </trkpt>
      <trkpt lat="48.87274" lon="6.0707">
        <ele>177.2002</ele>
        <time>2026-05-18T14:08:03+02:00</time>
      </trkpt>
      <trkpt lat="48.87272" lon="6.07063">
        <ele>177</ele>
        <time>2026-05-18T14:08:04+02:00</time>
      </trkpt>
      <trkpt lat="48.8727" lon="6.07057">
        <ele>177</ele>
        <time>2026-05-18T14:08:05+02:00</time>
      </trkpt>
      <trkpt lat="48.87269" lon="6.0705">
        <ele>177</ele>
        <time>2026-05-18T14:08:06+02:00</time>
      </trkpt>
      <trkpt lat="48.87266" lon="6.07043">
        <ele>177.2998</ele>
        <time>2026-05-18T14:08:07+02:00</time>
      </trkpt>
      <trkpt lat="48.87264" lon="6.07036">
        <ele>177.60059</ele>
        <time>2026-05-18T14:08:08+02:00</time>
      </trkpt>
      <trkpt lat="48.87262" lon="6.07029">
        <ele>177.60059</ele>
        <time>2026-05-18T14:08:09+02:00</time>
      </trkpt>
      <trkpt lat="48.87258" lon="6.07023">
        <ele>178.7002</ele>
        <time>2026-05-18T14:08:10+02:00</time>
      </trkpt>
      <trkpt lat="48.87254" lon="6.07017">
        <ele>180</ele>
        <time>2026-05-18T14:08:11+02:00</time>
      </trkpt>
      <trkpt lat="48.87249" lon="6.07011">
        <ele>181.10059</ele>
        <time>2026-05-18T14:08:12+02:00</time>
      </trkpt>
      <trkpt lat="48.87243" lon="6.07007">
        <ele>181.2998</ele>
        <time>2026-05-18T14:08:13+02:00</time>
      </trkpt>
      <trkpt lat="48.87237" lon="6.07003">
        <ele>182.7002</ele>
        <time>2026-05-18T14:08:14+02:00</time>
      </trkpt>
      <trkpt lat="48.8723" lon="6.07">
        <ele>182.90039</ele>
        <time>2026-05-18T14:08:15+02:00</time>
      </trkpt>
      <trkpt lat="48.87224" lon="6.06996">
        <ele>183.2002</ele>
        <time>2026-05-18T14:08:16+02:00</time>
      </trkpt>
      <trkpt lat="48.87217" lon="6.06993">
        <ele>184.10059</ele>
        <time>2026-05-18T14:08:17+02:00</time>
      </trkpt>
      <trkpt lat="48.87211" lon="6.0699">
        <ele>184.2998</ele>
        <time>2026-05-18T14:08:18+02:00</time>
      </trkpt>
      <trkpt lat="48.87205" lon="6.06987">
        <ele>184.2998</ele>
        <time>2026-05-18T14:08:19+02:00</time>
      </trkpt>
      <trkpt lat="48.87199" lon="6.06984">
        <ele>184.2998</ele>
        <time>2026-05-18T14:08:20+02:00</time>
      </trkpt>
      <trkpt lat="48.87194" lon="6.06981">
        <ele>184</ele>
        <time>2026-05-18T14:08:21+02:00</time>
      </trkpt>
      <trkpt lat="48.87188" lon="6.06978">
        <ele>183.60059</ele>
        <time>2026-05-18T14:08:22+02:00</time>
      </trkpt>
      <trkpt lat="48.87184" lon="6.06973">
        <ele>183.10059</ele>
        <time>2026-05-18T14:08:23+02:00</time>
      </trkpt>
      <trkpt lat="48.8718" lon="6.06967">
        <ele>182.2002</ele>
        <time>2026-05-18T14:08:24+02:00</time>
      </trkpt>
      <trkpt lat="48.87179" lon="6.0696">
        <ele>181.60059</ele>
        <time>2026-05-18T14:08:25+02:00</time>
      </trkpt>
      <trkpt lat="48.87179" lon="6.06953">
        <ele>181.60059</ele>
        <time>2026-05-18T14:08:26+02:00</time>
      </trkpt>
      <trkpt lat="48.87182" lon="6.06947">
        <ele>181.10059</ele>
        <time>2026-05-18T14:08:27+02:00</time>
      </trkpt>
      <trkpt lat="48.87187" lon="6.06944">
        <ele>181.2998</ele>
        <time>2026-05-18T14:08:28+02:00</time>
      </trkpt>
      <trkpt lat="48.87191" lon="6.06941">
        <ele>180.7998</ele>
        <time>2026-05-18T14:08:29+02:00</time>
      </trkpt>
      <trkpt lat="48.87195" lon="6.06937">
        <ele>181</ele>
        <time>2026-05-18T14:08:30+02:00</time>
      </trkpt>
      <trkpt lat="48.872" lon="6.06934">
        <ele>180.2998</ele>
        <time>2026-05-18T14:08:31+02:00</time>
      </trkpt>
      <trkpt lat="48.87204" lon="6.06931">
        <ele>180.2998</ele>
        <time>2026-05-18T14:08:32+02:00</time>
      </trkpt>
      <trkpt lat="48.87209" lon="6.06928">
        <ele>180.5</ele>
        <time>2026-05-18T14:08:33+02:00</time>
      </trkpt>
      <trkpt lat="48.87213" lon="6.06925">
        <ele>179.7002</ele>
        <time>2026-05-18T14:08:34+02:00</time>
      </trkpt>
      <trkpt lat="48.87218" lon="6.06922">
        <ele>179.90039</ele>
        <time>2026-05-18T14:08:35+02:00</time>
      </trkpt>
      <trkpt lat="48.87222" lon="6.0692">
        <ele>179.90039</ele>
        <time>2026-05-18T14:08:36+02:00</time>
      </trkpt>
      <trkpt lat="48.87227" lon="6.06917">
        <ele>179.40039</ele>
        <time>2026-05-18T14:08:37+02:00</time>
      </trkpt>
      <trkpt lat="48.87232" lon="6.06915">
        <ele>180</ele>
        <time>2026-05-18T14:08:38+02:00</time>
      </trkpt>
      <trkpt lat="48.87237" lon="6.06912">
        <ele>180.7002</ele>
        <time>2026-05-18T14:08:39+02:00</time>
      </trkpt>
      <trkpt lat="48.87242" lon="6.06909">
        <ele>181.2998</ele>
        <time>2026-05-18T14:08:40+02:00</time>
      </trkpt>
      <trkpt lat="48.87246" lon="6.06906">
        <ele>181</ele>
        <time>2026-05-18T14:08:41+02:00</time>
      </trkpt>
      <trkpt lat="48.87251" lon="6.06902">
        <ele>181.10059</ele>
        <time>2026-05-18T14:08:42+02:00</time>
      </trkpt>
      <trkpt lat="48.87256" lon="6.06898">
        <ele>180.40039</ele>
        <time>2026-05-18T14:08:43+02:00</time>
      </trkpt>
      <trkpt lat="48.87261" lon="6.06895">
        <ele>180.60059</ele>
        <time>2026-05-18T14:08:44+02:00</time>
      </trkpt>
      <trkpt lat="48.87265" lon="6.06892">
        <ele>180.7002</ele>
        <time>2026-05-18T14:08:45+02:00</time>
      </trkpt>
      <trkpt lat="48.87269" lon="6.0689">
        <ele>180.10059</ele>
        <time>2026-05-18T14:08:46+02:00</time>
      </trkpt>
      <trkpt lat="48.87274" lon="6.06887">
        <ele>180.2002</ele>
        <time>2026-05-18T14:08:47+02:00</time>
      </trkpt>
      <trkpt lat="48.87279" lon="6.06884">
        <ele>180.2998</ele>
        <time>2026-05-18T14:08:48+02:00</time>
      </trkpt>
      <trkpt lat="48.87284" lon="6.06881">
        <ele>179.5</ele>
        <time>2026-05-18T14:08:49+02:00</time>
      </trkpt>
      <trkpt lat="48.87289" lon="6.06879">
        <ele>179.7002</ele>
        <time>2026-05-18T14:08:50+02:00</time>
      </trkpt>
      <trkpt lat="48.87294" lon="6.06876">
        <ele>180</ele>
        <time>2026-05-18T14:08:51+02:00</time>
      </trkpt>
      <trkpt lat="48.87299" lon="6.06873">
        <ele>179.90039</ele>
        <time>2026-05-18T14:08:52+02:00</time>
      </trkpt>
      <trkpt lat="48.87303" lon="6.0687">
        <ele>180.5</ele>
        <time>2026-05-18T14:08:53+02:00</time>
      </trkpt>
      <trkpt lat="48.87308" lon="6.06867">
        <ele>181</ele>
        <time>2026-05-18T14:08:54+02:00</time>
      </trkpt>
      <trkpt lat="48.87313" lon="6.06863">
        <ele>180.60059</ele>
        <time>2026-05-18T14:08:55+02:00</time>
      </trkpt>
      <trkpt lat="48.87318" lon="6.0686">
        <ele>180.60059</ele>
        <time>2026-05-18T14:08:56+02:00</time>
      </trkpt>
      <trkpt lat="48.87323" lon="6.06857">
        <ele>180.10059</ele>
        <time>2026-05-18T14:08:57+02:00</time>
      </trkpt>
      <trkpt lat="48.87328" lon="6.06853">
        <ele>180.2002</ele>
        <time>2026-05-18T14:08:58+02:00</time>
      </trkpt>
      <trkpt lat="48.87333" lon="6.0685">
        <ele>180.2998</ele>
        <time>2026-05-18T14:08:59+02:00</time>
      </trkpt>
      <trkpt lat="48.87338" lon="6.06847">
        <ele>179.7002</ele>
        <time>2026-05-18T14:09:00+02:00</time>
      </trkpt>
      <trkpt lat="48.87343" lon="6.06844">
        <ele>179.7998</ele>
        <time>2026-05-18T14:09:01+02:00</time>
      </trkpt>
      <trkpt lat="48.87348" lon="6.06841">
        <ele>179.90039</ele>
        <time>2026-05-18T14:09:02+02:00</time>
      </trkpt>
      <trkpt lat="48.87353" lon="6.06837">
        <ele>179.40039</ele>
        <time>2026-05-18T14:09:03+02:00</time>
      </trkpt>
      <trkpt lat="48.87358" lon="6.06834">
        <ele>179.7002</ele>
        <time>2026-05-18T14:09:04+02:00</time>
      </trkpt>
      <trkpt lat="48.87364" lon="6.0683">
        <ele>179.7002</ele>
        <time>2026-05-18T14:09:05+02:00</time>
      </trkpt>
      <trkpt lat="48.87369" lon="6.06826">
        <ele>180.2002</ele>
        <time>2026-05-18T14:09:06+02:00</time>
      </trkpt>
      <trkpt lat="48.87374" lon="6.06823">
        <ele>180.2002</ele>
        <time>2026-05-18T14:09:07+02:00</time>
      </trkpt>
      <trkpt lat="48.8738" lon="6.0682">
        <ele>180.10059</ele>
        <time>2026-05-18T14:09:08+02:00</time>
      </trkpt>
      <trkpt lat="48.87385" lon="6.06817">
        <ele>180.2002</ele>
        <time>2026-05-18T14:09:09+02:00</time>
      </trkpt>
      <trkpt lat="48.87391" lon="6.06814">
        <ele>179.7998</ele>
        <time>2026-05-18T14:09:10+02:00</time>
      </trkpt>
      <trkpt lat="48.87396" lon="6.0681">
        <ele>179.90039</ele>
        <time>2026-05-18T14:09:11+02:00</time>
      </trkpt>
      <trkpt lat="48.87402" lon="6.06807">
        <ele>180.10059</ele>
        <time>2026-05-18T14:09:12+02:00</time>
      </trkpt>
      <trkpt lat="48.87407" lon="6.06803">
        <ele>179.90039</ele>
        <time>2026-05-18T14:09:13+02:00</time>
      </trkpt>
      <trkpt lat="48.87412" lon="6.068">
        <ele>180.5</ele>
        <time>2026-05-18T14:09:14+02:00</time>
      </trkpt>
      <trkpt lat="48.87418" lon="6.06796">
        <ele>180.7002</ele>
        <time>2026-05-18T14:09:15+02:00</time>
      </trkpt>
      <trkpt lat="48.87423" lon="6.06793">
        <ele>180.90039</ele>
        <time>2026-05-18T14:09:16+02:00</time>
      </trkpt>
      <trkpt lat="48.87428" lon="6.0679">
        <ele>180.7998</ele>
        <time>2026-05-18T14:09:17+02:00</time>
      </trkpt>
      <trkpt lat="48.87433" lon="6.06787">
        <ele>180.40039</ele>
        <time>2026-05-18T14:09:18+02:00</time>
      </trkpt>
      <trkpt lat="48.87439" lon="6.06784">
        <ele>180.40039</ele>
        <time>2026-05-18T14:09:19+02:00</time>
      </trkpt>
      <trkpt lat="48.87444" lon="6.06781">
        <ele>180.40039</ele>
        <time>2026-05-18T14:09:20+02:00</time>
      </trkpt>
      <trkpt lat="48.87449" lon="6.06778">
        <ele>180</ele>
        <time>2026-05-18T14:09:21+02:00</time>
      </trkpt>
      <trkpt lat="48.87454" lon="6.06775">
        <ele>180.10059</ele>
        <time>2026-05-18T14:09:22+02:00</time>
      </trkpt>
      <trkpt lat="48.8746" lon="6.06772">
        <ele>180.2998</ele>
        <time>2026-05-18T14:09:23+02:00</time>
      </trkpt>
      <trkpt lat="48.87465" lon="6.06769">
        <ele>179.7998</ele>
        <time>2026-05-18T14:09:24+02:00</time>
      </trkpt>
      <trkpt lat="48.8747" lon="6.06766">
        <ele>180</ele>
        <time>2026-05-18T14:09:25+02:00</time>
      </trkpt>
      <trkpt lat="48.87475" lon="6.06763">
        <ele>180.2002</ele>
        <time>2026-05-18T14:09:26+02:00</time>
      </trkpt>
      <trkpt lat="48.8748" lon="6.0676">
        <ele>180.2002</ele>
        <time>2026-05-18T14:09:27+02:00</time>
      </trkpt>
      <trkpt lat="48.87485" lon="6.06757">
        <ele>180.40039</ele>
        <time>2026-05-18T14:09:28+02:00</time>
      </trkpt>
      <trkpt lat="48.87491" lon="6.06754">
        <ele>180.2998</ele>
        <time>2026-05-18T14:09:29+02:00</time>
      </trkpt>
      <trkpt lat="48.87496" lon="6.06751">
        <ele>180.40039</ele>
        <time>2026-05-18T14:09:30+02:00</time>
      </trkpt>
      <trkpt lat="48.87501" lon="6.06748">
        <ele>180.5</ele>
        <time>2026-05-18T14:09:31+02:00</time>
      </trkpt>
      <trkpt lat="48.87506" lon="6.06744">
        <ele>180.2002</ele>
        <time>2026-05-18T14:09:32+02:00</time>
      </trkpt>
      <trkpt lat="48.87511" lon="6.06741">
        <ele>180.2998</ele>
        <time>2026-05-18T14:09:33+02:00</time>
      </trkpt>
      <trkpt lat="48.87517" lon="6.06738">
        <ele>180.40039</ele>
        <time>2026-05-18T14:09:34+02:00</time>
      </trkpt>
      <trkpt lat="48.87521" lon="6.06735">
        <ele>179.90039</ele>
        <time>2026-05-18T14:09:35+02:00</time>
      </trkpt>
      <trkpt lat="48.87527" lon="6.06732">
        <ele>180</ele>
        <time>2026-05-18T14:09:36+02:00</time>
      </trkpt>
      <trkpt lat="48.87532" lon="6.06728">
        <ele>179.7002</ele>
        <time>2026-05-18T14:09:37+02:00</time>
      </trkpt>
      <trkpt lat="48.87537" lon="6.06725">
        <ele>179.90039</ele>
        <time>2026-05-18T14:09:38+02:00</time>
      </trkpt>
      <trkpt lat="48.87542" lon="6.06722">
        <ele>180.10059</ele>
        <time>2026-05-18T14:09:39+02:00</time>
      </trkpt>
      <trkpt lat="48.87547" lon="6.06719">
        <ele>180.10059</ele>
        <time>2026-05-18T14:09:40+02:00</time>
      </trkpt>
      <trkpt lat="48.87552" lon="6.06715">
        <ele>180.2998</ele>
        <time>2026-05-18T14:09:41+02:00</time>
      </trkpt>
      <trkpt lat="48.87557" lon="6.06712">
        <ele>180.40039</ele>
        <time>2026-05-18T14:09:42+02:00</time>
      </trkpt>
      <trkpt lat="48.87562" lon="6.06709">
        <ele>180.2002</ele>
        <time>2026-05-18T14:09:43+02:00</time>
      </trkpt>
      <trkpt lat="48.87567" lon="6.06706">
        <ele>180.2998</ele>
        <time>2026-05-18T14:09:44+02:00</time>
      </trkpt>
      <trkpt lat="48.87572" lon="6.06703">
        <ele>180.2998</ele>
        <time>2026-05-18T14:09:45+02:00</time>
      </trkpt>
      <trkpt lat="48.87577" lon="6.06699">
        <ele>180</ele>
        <time>2026-05-18T14:09:46+02:00</time>
      </trkpt>
      <trkpt lat="48.87582" lon="6.06696">
        <ele>180.10059</ele>
        <time>2026-05-18T14:09:47+02:00</time>
      </trkpt>
      <trkpt lat="48.87587" lon="6.06693">
        <ele>179.7998</ele>
        <time>2026-05-18T14:09:48+02:00</time>
      </trkpt>
      <trkpt lat="48.87592" lon="6.0669">
        <ele>179.90039</ele>
        <time>2026-05-18T14:09:49+02:00</time>
      </trkpt>
      <trkpt lat="48.87597" lon="6.06686">
        <ele>180</ele>
        <time>2026-05-18T14:09:50+02:00</time>
      </trkpt>
      <trkpt lat="48.87603" lon="6.06683">
        <ele>179.7002</ele>
        <time>2026-05-18T14:09:51+02:00</time>
      </trkpt>
      <trkpt lat="48.87608" lon="6.0668">
        <ele>179.90039</ele>
        <time>2026-05-18T14:09:52+02:00</time>
      </trkpt>
      <trkpt lat="48.87613" lon="6.06677">
        <ele>179.90039</ele>
        <time>2026-05-18T14:09:53+02:00</time>
      </trkpt>
      <trkpt lat="48.87618" lon="6.06673">
        <ele>180</ele>
        <time>2026-05-18T14:09:54+02:00</time>
      </trkpt>
      <trkpt lat="48.87623" lon="6.0667">
        <ele>180</ele>
        <time>2026-05-18T14:09:55+02:00</time>
      </trkpt>
      <trkpt lat="48.87629" lon="6.06667">
        <ele>180</ele>
        <time>2026-05-18T14:09:56+02:00</time>
      </trkpt>
      <trkpt lat="48.87634" lon="6.06663">
        <ele>180</ele>
        <time>2026-05-18T14:09:57+02:00</time>
      </trkpt>
      <trkpt lat="48.87639" lon="6.0666">
        <ele>180.10059</ele>
        <time>2026-05-18T14:09:58+02:00</time>
      </trkpt>
      <trkpt lat="48.87644" lon="6.06657">
        <ele>180.2002</ele>
        <time>2026-05-18T14:09:59+02:00</time>
      </trkpt>
      <trkpt lat="48.8765" lon="6.06654">
        <ele>180.10059</ele>
        <time>2026-05-18T14:10:00+02:00</time>
      </trkpt>
      <trkpt lat="48.87655" lon="6.06651">
        <ele>180.10059</ele>
        <time>2026-05-18T14:10:01+02:00</time>
      </trkpt>
      <trkpt lat="48.8766" lon="6.06647">
        <ele>180</ele>
        <time>2026-05-18T14:10:02+02:00</time>
      </trkpt>
      <trkpt lat="48.87666" lon="6.06644">
        <ele>180</ele>
        <time>2026-05-18T14:10:03+02:00</time>
      </trkpt>
      <trkpt lat="48.87671" lon="6.06641">
        <ele>180</ele>
        <time>2026-05-18T14:10:04+02:00</time>
      </trkpt>
      <trkpt lat="48.87676" lon="6.06637">
        <ele>179.90039</ele>
        <time>2026-05-18T14:10:05+02:00</time>
      </trkpt>
      <trkpt lat="48.87681" lon="6.06634">
        <ele>179.90039</ele>
        <time>2026-05-18T14:10:06+02:00</time>
      </trkpt>
      <trkpt lat="48.87687" lon="6.06631">
        <ele>179.90039</ele>
        <time>2026-05-18T14:10:07+02:00</time>
      </trkpt>
      <trkpt lat="48.87692" lon="6.06628">
        <ele>179.90039</ele>
        <time>2026-05-18T14:10:08+02:00</time>
      </trkpt>
      <trkpt lat="48.87697" lon="6.06625">
        <ele>179.7998</ele>
        <time>2026-05-18T14:10:09+02:00</time>
      </trkpt>
      <trkpt lat="48.87702" lon="6.06622">
        <ele>179.7998</ele>
        <time>2026-05-18T14:10:10+02:00</time>
      </trkpt>
      <trkpt lat="48.87707" lon="6.06619">
        <ele>179.90039</ele>
        <time>2026-05-18T14:10:11+02:00</time>
      </trkpt>
      <trkpt lat="48.87712" lon="6.06615">
        <ele>179.90039</ele>
        <time>2026-05-18T14:10:12+02:00</time>
      </trkpt>
      <trkpt lat="48.87717" lon="6.06612">
        <ele>180.10059</ele>
        <time>2026-05-18T14:10:13+02:00</time>
      </trkpt>
      <trkpt lat="48.87722" lon="6.06609">
        <ele>180.2998</ele>
        <time>2026-05-18T14:10:14+02:00</time>
      </trkpt>
      <trkpt lat="48.87727" lon="6.06606">
        <ele>180.5</ele>
        <time>2026-05-18T14:10:15+02:00</time>
      </trkpt>
      <trkpt lat="48.87731" lon="6.06603">
        <ele>180.60059</ele>
        <time>2026-05-18T14:10:16+02:00</time>
      </trkpt>
      <trkpt lat="48.87736" lon="6.066">
        <ele>180.7002</ele>
        <time>2026-05-18T14:10:17+02:00</time>
      </trkpt>
      <trkpt lat="48.87741" lon="6.06596">
        <ele>180.60059</ele>
        <time>2026-05-18T14:10:18+02:00</time>
      </trkpt>
      <trkpt lat="48.87746" lon="6.06593">
        <ele>180.7002</ele>
        <time>2026-05-18T14:10:19+02:00</time>
      </trkpt>
      <trkpt lat="48.87751" lon="6.0659">
        <ele>180.60059</ele>
        <time>2026-05-18T14:10:20+02:00</time>
      </trkpt>
      <trkpt lat="48.87756" lon="6.06587">
        <ele>180.7002</ele>
        <time>2026-05-18T14:10:21+02:00</time>
      </trkpt>
      <trkpt lat="48.87761" lon="6.06584">
        <ele>180.7998</ele>
        <time>2026-05-18T14:10:22+02:00</time>
      </trkpt>
      <trkpt lat="48.87766" lon="6.0658">
        <ele>180.40039</ele>
        <time>2026-05-18T14:10:23+02:00</time>
      </trkpt>
      <trkpt lat="48.87771" lon="6.06577">
        <ele>180.5</ele>
        <time>2026-05-18T14:10:24+02:00</time>
      </trkpt>
      <trkpt lat="48.87776" lon="6.06574">
        <ele>180.2002</ele>
        <time>2026-05-18T14:10:25+02:00</time>
      </trkpt>
      <trkpt lat="48.87781" lon="6.06571">
        <ele>180.2002</ele>
        <time>2026-05-18T14:10:26+02:00</time>
      </trkpt>
      <trkpt lat="48.87786" lon="6.06568">
        <ele>180.2998</ele>
        <time>2026-05-18T14:10:27+02:00</time>
      </trkpt>
      <trkpt lat="48.87791" lon="6.06564">
        <ele>180.40039</ele>
        <time>2026-05-18T14:10:28+02:00</time>
      </trkpt>
      <trkpt lat="48.87797" lon="6.06561">
        <ele>180.5</ele>
        <time>2026-05-18T14:10:29+02:00</time>
      </trkpt>
      <trkpt lat="48.87802" lon="6.06558">
        <ele>180.5</ele>
        <time>2026-05-18T14:10:30+02:00</time>
      </trkpt>
      <trkpt lat="48.87807" lon="6.06554">
        <ele>180.40039</ele>
        <time>2026-05-18T14:10:31+02:00</time>
      </trkpt>
      <trkpt lat="48.87813" lon="6.06551">
        <ele>180.2998</ele>
        <time>2026-05-18T14:10:32+02:00</time>
      </trkpt>
      <trkpt lat="48.87818" lon="6.06547">
        <ele>180.10059</ele>
        <time>2026-05-18T14:10:33+02:00</time>
      </trkpt>
      <trkpt lat="48.87823" lon="6.06543">
        <ele>180.2002</ele>
        <time>2026-05-18T14:10:34+02:00</time>
      </trkpt>
      <trkpt lat="48.87829" lon="6.0654">
        <ele>180.2002</ele>
        <time>2026-05-18T14:10:35+02:00</time>
      </trkpt>
      <trkpt lat="48.87834" lon="6.06536">
        <ele>180.2002</ele>
        <time>2026-05-18T14:10:36+02:00</time>
      </trkpt>
      <trkpt lat="48.8784" lon="6.06533">
        <ele>180.2002</ele>
        <time>2026-05-18T14:10:37+02:00</time>
      </trkpt>
      <trkpt lat="48.87845" lon="6.0653">
        <ele>180.10059</ele>
        <time>2026-05-18T14:10:38+02:00</time>
      </trkpt>
      <trkpt lat="48.8785" lon="6.06526">
        <ele>180</ele>
        <time>2026-05-18T14:10:39+02:00</time>
      </trkpt>
      <trkpt lat="48.87856" lon="6.06523">
        <ele>179.90039</ele>
        <time>2026-05-18T14:10:40+02:00</time>
      </trkpt>
      <trkpt lat="48.87861" lon="6.0652">
        <ele>179.90039</ele>
        <time>2026-05-18T14:10:41+02:00</time>
      </trkpt>
      <trkpt lat="48.87866" lon="6.06516">
        <ele>179.90039</ele>
        <time>2026-05-18T14:10:42+02:00</time>
      </trkpt>
      <trkpt lat="48.87872" lon="6.06513">
        <ele>179.7998</ele>
        <time>2026-05-18T14:10:43+02:00</time>
      </trkpt>
      <trkpt lat="48.87877" lon="6.0651">
        <ele>179.7998</ele>
        <time>2026-05-18T14:10:44+02:00</time>
      </trkpt>
      <trkpt lat="48.87883" lon="6.06507">
        <ele>179.7002</ele>
        <time>2026-05-18T14:10:45+02:00</time>
      </trkpt>
      <trkpt lat="48.87888" lon="6.06503">
        <ele>179.7002</ele>
        <time>2026-05-18T14:10:46+02:00</time>
      </trkpt>
      <trkpt lat="48.87893" lon="6.065">
        <ele>179.7002</ele>
        <time>2026-05-18T14:10:47+02:00</time>
      </trkpt>
      <trkpt lat="48.87898" lon="6.06496">
        <ele>179.7998</ele>
        <time>2026-05-18T14:10:48+02:00</time>
      </trkpt>
      <trkpt lat="48.87903" lon="6.06493">
        <ele>179.7998</ele>
        <time>2026-05-18T14:10:49+02:00</time>
      </trkpt>
      <trkpt lat="48.87908" lon="6.0649">
        <ele>179.7998</ele>
        <time>2026-05-18T14:10:50+02:00</time>
      </trkpt>
      <trkpt lat="48.87913" lon="6.06487">
        <ele>179.90039</ele>
        <time>2026-05-18T14:10:51+02:00</time>
      </trkpt>
      <trkpt lat="48.87918" lon="6.06484">
        <ele>179.90039</ele>
        <time>2026-05-18T14:10:52+02:00</time>
      </trkpt>
      <trkpt lat="48.87923" lon="6.06481">
        <ele>179.90039</ele>
        <time>2026-05-18T14:10:53+02:00</time>
      </trkpt>
      <trkpt lat="48.87928" lon="6.06478">
        <ele>179.90039</ele>
        <time>2026-05-18T14:10:54+02:00</time>
      </trkpt>
      <trkpt lat="48.87933" lon="6.06474">
        <ele>179.90039</ele>
        <time>2026-05-18T14:10:55+02:00</time>
      </trkpt>
      <trkpt lat="48.87938" lon="6.06471">
        <ele>180</ele>
        <time>2026-05-18T14:10:56+02:00</time>
      </trkpt>
      <trkpt lat="48.87943" lon="6.06468">
        <ele>180</ele>
        <time>2026-05-18T14:10:57+02:00</time>
      </trkpt>
      <trkpt lat="48.87949" lon="6.06464">
        <ele>180.10059</ele>
        <time>2026-05-18T14:10:58+02:00</time>
      </trkpt>
      <trkpt lat="48.87954" lon="6.06461">
        <ele>180.2002</ele>
        <time>2026-05-18T14:10:59+02:00</time>
      </trkpt>
      <trkpt lat="48.87959" lon="6.06457">
        <ele>180.2002</ele>
        <time>2026-05-18T14:11:00+02:00</time>
      </trkpt>
      <trkpt lat="48.87964" lon="6.06454">
        <ele>180.10059</ele>
        <time>2026-05-18T14:11:01+02:00</time>
      </trkpt>
      <trkpt lat="48.87969" lon="6.06451">
        <ele>180.2002</ele>
        <time>2026-05-18T14:11:02+02:00</time>
      </trkpt>
      <trkpt lat="48.87974" lon="6.06447">
        <ele>180.2002</ele>
        <time>2026-05-18T14:11:03+02:00</time>
      </trkpt>
      <trkpt lat="48.87979" lon="6.06444">
        <ele>180.2002</ele>
        <time>2026-05-18T14:11:04+02:00</time>
      </trkpt>
      <trkpt lat="48.87984" lon="6.06441">
        <ele>180.2002</ele>
        <time>2026-05-18T14:11:05+02:00</time>
      </trkpt>
      <trkpt lat="48.87989" lon="6.06438">
        <ele>180.2998</ele>
        <time>2026-05-18T14:11:06+02:00</time>
      </trkpt>
      <trkpt lat="48.87994" lon="6.06434">
        <ele>180.2998</ele>
        <time>2026-05-18T14:11:07+02:00</time>
      </trkpt>
      <trkpt lat="48.87999" lon="6.06431">
        <ele>180.40039</ele>
        <time>2026-05-18T14:11:08+02:00</time>
      </trkpt>
      <trkpt lat="48.88004" lon="6.06428">
        <ele>180.40039</ele>
        <time>2026-05-18T14:11:09+02:00</time>
      </trkpt>
      <trkpt lat="48.88009" lon="6.06425">
        <ele>180.60059</ele>
        <time>2026-05-18T14:11:10+02:00</time>
      </trkpt>
      <trkpt lat="48.88014" lon="6.06422">
        <ele>180.7002</ele>
        <time>2026-05-18T14:11:11+02:00</time>
      </trkpt>
      <trkpt lat="48.88019" lon="6.06419">
        <ele>180.7002</ele>
        <time>2026-05-18T14:11:12+02:00</time>
      </trkpt>
      <trkpt lat="48.88038" lon="6.06406">
        <ele>180.7002</ele>
        <time>2026-05-18T14:11:13+02:00</time>
      </trkpt>
      <trkpt lat="48.88043" lon="6.06402">
        <ele>180.60059</ele>
        <time>2026-05-18T14:11:14+02:00</time>
      </trkpt>
      <trkpt lat="48.88048" lon="6.06399">
        <ele>180.7002</ele>
        <time>2026-05-18T14:11:15+02:00</time>
      </trkpt>
      <trkpt lat="48.88053" lon="6.06396">
        <ele>180.7998</ele>
        <time>2026-05-18T14:11:16+02:00</time>
      </trkpt>
      <trkpt lat="48.88058" lon="6.06393">
        <ele>180.7002</ele>
        <time>2026-05-18T14:11:17+02:00</time>
      </trkpt>
      <trkpt lat="48.88063" lon="6.0639">
        <ele>180.7002</ele>
        <time>2026-05-18T14:11:18+02:00</time>
      </trkpt>
      <trkpt lat="48.88068" lon="6.06386">
        <ele>180.90039</ele>
        <time>2026-05-18T14:11:19+02:00</time>
      </trkpt>
      <trkpt lat="48.88073" lon="6.06383">
        <ele>180.90039</ele>
        <time>2026-05-18T14:11:20+02:00</time>
      </trkpt>
      <trkpt lat="48.88078" lon="6.0638">
        <ele>181.2002</ele>
        <time>2026-05-18T14:11:21+02:00</time>
      </trkpt>
      <trkpt lat="48.88083" lon="6.06377">
        <ele>181.40039</ele>
        <time>2026-05-18T14:11:22+02:00</time>
      </trkpt>
      <trkpt lat="48.88088" lon="6.06373">
        <ele>181.2998</ele>
        <time>2026-05-18T14:11:23+02:00</time>
      </trkpt>
      <trkpt lat="48.88093" lon="6.0637">
        <ele>181.2998</ele>
        <time>2026-05-18T14:11:24+02:00</time>
      </trkpt>
      <trkpt lat="48.88098" lon="6.06367">
        <ele>181.10059</ele>
        <time>2026-05-18T14:11:25+02:00</time>
      </trkpt>
      <trkpt lat="48.88103" lon="6.06364">
        <ele>181.2002</ele>
        <time>2026-05-18T14:11:26+02:00</time>
      </trkpt>
      <trkpt lat="48.88108" lon="6.0636">
        <ele>181.2002</ele>
        <time>2026-05-18T14:11:27+02:00</time>
      </trkpt>
      <trkpt lat="48.88113" lon="6.06357">
        <ele>181</ele>
        <time>2026-05-18T14:11:28+02:00</time>
      </trkpt>
      <trkpt lat="48.88118" lon="6.06353">
        <ele>181.10059</ele>
        <time>2026-05-18T14:11:29+02:00</time>
      </trkpt>
      <trkpt lat="48.88123" lon="6.0635">
        <ele>180.7998</ele>
        <time>2026-05-18T14:11:30+02:00</time>
      </trkpt>
      <trkpt lat="48.88129" lon="6.06347">
        <ele>181</ele>
        <time>2026-05-18T14:11:31+02:00</time>
      </trkpt>
      <trkpt lat="48.88134" lon="6.06344">
        <ele>181.2998</ele>
        <time>2026-05-18T14:11:32+02:00</time>
      </trkpt>
      <trkpt lat="48.88139" lon="6.06341">
        <ele>181.2002</ele>
        <time>2026-05-18T14:11:33+02:00</time>
      </trkpt>
      <trkpt lat="48.88144" lon="6.06337">
        <ele>181.40039</ele>
        <time>2026-05-18T14:11:34+02:00</time>
      </trkpt>
      <trkpt lat="48.88149" lon="6.06334">
        <ele>181.7002</ele>
        <time>2026-05-18T14:11:35+02:00</time>
      </trkpt>
      <trkpt lat="48.88154" lon="6.06331">
        <ele>181.5</ele>
        <time>2026-05-18T14:11:36+02:00</time>
      </trkpt>
      <trkpt lat="48.88159" lon="6.06327">
        <ele>181.5</ele>
        <time>2026-05-18T14:11:37+02:00</time>
      </trkpt>
      <trkpt lat="48.88164" lon="6.06324">
        <ele>181.2002</ele>
        <time>2026-05-18T14:11:38+02:00</time>
      </trkpt>
      <trkpt lat="48.88169" lon="6.06321">
        <ele>181.2998</ele>
        <time>2026-05-18T14:11:39+02:00</time>
      </trkpt>
      <trkpt lat="48.88174" lon="6.06318">
        <ele>181.5</ele>
        <time>2026-05-18T14:11:40+02:00</time>
      </trkpt>
      <trkpt lat="48.8818" lon="6.06315">
        <ele>181.10059</ele>
        <time>2026-05-18T14:11:41+02:00</time>
      </trkpt>
      <trkpt lat="48.88184" lon="6.06312">
        <ele>181.2998</ele>
        <time>2026-05-18T14:11:42+02:00</time>
      </trkpt>
      <trkpt lat="48.88189" lon="6.06308">
        <ele>181.40039</ele>
        <time>2026-05-18T14:11:43+02:00</time>
      </trkpt>
      <trkpt lat="48.88194" lon="6.06305">
        <ele>181.10059</ele>
        <time>2026-05-18T14:11:44+02:00</time>
      </trkpt>
      <trkpt lat="48.882" lon="6.06302">
        <ele>181.2998</ele>
        <time>2026-05-18T14:11:45+02:00</time>
      </trkpt>
      <trkpt lat="48.88205" lon="6.06299">
        <ele>181.2002</ele>
        <time>2026-05-18T14:11:46+02:00</time>
      </trkpt>
      <trkpt lat="48.8821" lon="6.06296">
        <ele>181.2002</ele>
        <time>2026-05-18T14:11:47+02:00</time>
      </trkpt>
      <trkpt lat="48.88215" lon="6.06292">
        <ele>181.5</ele>
        <time>2026-05-18T14:11:48+02:00</time>
      </trkpt>
      <trkpt lat="48.8822" lon="6.06289">
        <ele>181.5</ele>
        <time>2026-05-18T14:11:49+02:00</time>
      </trkpt>
      <trkpt lat="48.88225" lon="6.06286">
        <ele>181.7002</ele>
        <time>2026-05-18T14:11:50+02:00</time>
      </trkpt>
      <trkpt lat="48.8823" lon="6.06282">
        <ele>181.5</ele>
        <time>2026-05-18T14:11:51+02:00</time>
      </trkpt>
      <trkpt lat="48.88235" lon="6.06279">
        <ele>181.7002</ele>
        <time>2026-05-18T14:11:52+02:00</time>
      </trkpt>
      <trkpt lat="48.8824" lon="6.06276">
        <ele>181.90039</ele>
        <time>2026-05-18T14:11:53+02:00</time>
      </trkpt>
      <trkpt lat="48.88246" lon="6.06272">
        <ele>181.60059</ele>
        <time>2026-05-18T14:11:54+02:00</time>
      </trkpt>
      <trkpt lat="48.8825" lon="6.06269">
        <ele>181.7998</ele>
        <time>2026-05-18T14:11:55+02:00</time>
      </trkpt>
      <trkpt lat="48.88255" lon="6.06265">
        <ele>181.5</ele>
        <time>2026-05-18T14:11:56+02:00</time>
      </trkpt>
      <trkpt lat="48.8826" lon="6.06262">
        <ele>181.7002</ele>
        <time>2026-05-18T14:11:57+02:00</time>
      </trkpt>
      <trkpt lat="48.88265" lon="6.06259">
        <ele>181.90039</ele>
        <time>2026-05-18T14:11:58+02:00</time>
      </trkpt>
      <trkpt lat="48.8827" lon="6.06256">
        <ele>181.60059</ele>
        <time>2026-05-18T14:11:59+02:00</time>
      </trkpt>
      <trkpt lat="48.88275" lon="6.06253">
        <ele>181.7002</ele>
        <time>2026-05-18T14:12:00+02:00</time>
      </trkpt>
      <trkpt lat="48.8828" lon="6.0625">
        <ele>181.7998</ele>
        <time>2026-05-18T14:12:01+02:00</time>
      </trkpt>
      <trkpt lat="48.88285" lon="6.06247">
        <ele>181.60059</ele>
        <time>2026-05-18T14:12:02+02:00</time>
      </trkpt>
      <trkpt lat="48.8829" lon="6.06243">
        <ele>181.7002</ele>
        <time>2026-05-18T14:12:03+02:00</time>
      </trkpt>
      <trkpt lat="48.88295" lon="6.0624">
        <ele>181.7998</ele>
        <time>2026-05-18T14:12:04+02:00</time>
      </trkpt>
      <trkpt lat="48.883" lon="6.06237">
        <ele>181.2998</ele>
        <time>2026-05-18T14:12:05+02:00</time>
      </trkpt>
      <trkpt lat="48.88304" lon="6.06233">
        <ele>181.40039</ele>
        <time>2026-05-18T14:12:06+02:00</time>
      </trkpt>
      <trkpt lat="48.88309" lon="6.0623">
        <ele>181</ele>
        <time>2026-05-18T14:12:07+02:00</time>
      </trkpt>
      <trkpt lat="48.88315" lon="6.06227">
        <ele>181.2002</ele>
        <time>2026-05-18T14:12:08+02:00</time>
      </trkpt>
      <trkpt lat="48.88319" lon="6.06224">
        <ele>181.2998</ele>
        <time>2026-05-18T14:12:09+02:00</time>
      </trkpt>
      <trkpt lat="48.88324" lon="6.06221">
        <ele>181.2998</ele>
        <time>2026-05-18T14:12:10+02:00</time>
      </trkpt>
      <trkpt lat="48.88328" lon="6.06218">
        <ele>181.2998</ele>
        <time>2026-05-18T14:12:11+02:00</time>
      </trkpt>
      <trkpt lat="48.88332" lon="6.06215">
        <ele>181.2998</ele>
        <time>2026-05-18T14:12:12+02:00</time>
      </trkpt>
      <trkpt lat="48.88337" lon="6.06211">
        <ele>181.2002</ele>
        <time>2026-05-18T14:12:13+02:00</time>
      </trkpt>
      <trkpt lat="48.88341" lon="6.06208">
        <ele>181.10059</ele>
        <time>2026-05-18T14:12:14+02:00</time>
      </trkpt>
      <trkpt lat="48.88345" lon="6.06205">
        <ele>181.10059</ele>
        <time>2026-05-18T14:12:15+02:00</time>
      </trkpt>
      <trkpt lat="48.88349" lon="6.06202">
        <ele>181.10059</ele>
        <time>2026-05-18T14:12:16+02:00</time>
      </trkpt>
      <trkpt lat="48.88353" lon="6.06199">
        <ele>181.10059</ele>
        <time>2026-05-18T14:12:17+02:00</time>
      </trkpt>
      <trkpt lat="48.88357" lon="6.06197">
        <ele>181.2002</ele>
        <time>2026-05-18T14:12:18+02:00</time>
      </trkpt>
      <trkpt lat="48.88361" lon="6.06195">
        <ele>181.10059</ele>
        <time>2026-05-18T14:12:19+02:00</time>
      </trkpt>
      <trkpt lat="48.88365" lon="6.06193">
        <ele>181.10059</ele>
        <time>2026-05-18T14:12:20+02:00</time>
      </trkpt>
      <trkpt lat="48.88369" lon="6.06191">
        <ele>181.10059</ele>
        <time>2026-05-18T14:12:21+02:00</time>
      </trkpt>
      <trkpt lat="48.88372" lon="6.06189">
        <ele>181.10059</ele>
        <time>2026-05-18T14:12:22+02:00</time>
      </trkpt>
      <trkpt lat="48.88375" lon="6.06187">
        <ele>181</ele>
        <time>2026-05-18T14:12:23+02:00</time>
      </trkpt>
      <trkpt lat="48.88378" lon="6.06186">
        <ele>181</ele>
        <time>2026-05-18T14:12:24+02:00</time>
      </trkpt>
      <trkpt lat="48.88381" lon="6.06184">
        <ele>181.10059</ele>
        <time>2026-05-18T14:12:25+02:00</time>
      </trkpt>
      <trkpt lat="48.88384" lon="6.06181">
        <ele>181.10059</ele>
        <time>2026-05-18T14:12:26+02:00</time>
      </trkpt>
      <trkpt lat="48.88387" lon="6.06178">
        <ele>181</ele>
        <time>2026-05-18T14:12:27+02:00</time>
      </trkpt>
      <trkpt lat="48.88392" lon="6.06175">
        <ele>181</ele>
        <time>2026-05-18T14:12:28+02:00</time>
      </trkpt>
      <trkpt lat="48.88396" lon="6.06172">
        <ele>181</ele>
        <time>2026-05-18T14:12:29+02:00</time>
      </trkpt>
      <trkpt lat="48.88401" lon="6.06169">
        <ele>180.7998</ele>
        <time>2026-05-18T14:12:30+02:00</time>
      </trkpt>
      <trkpt lat="48.88407" lon="6.06166">
        <ele>180.7998</ele>
        <time>2026-05-18T14:12:31+02:00</time>
      </trkpt>
      <trkpt lat="48.88412" lon="6.06164">
        <ele>180.7998</ele>
        <time>2026-05-18T14:12:32+02:00</time>
      </trkpt>
      <trkpt lat="48.88418" lon="6.06161">
        <ele>180.90039</ele>
        <time>2026-05-18T14:12:33+02:00</time>
      </trkpt>
      <trkpt lat="48.88424" lon="6.06158">
        <ele>181</ele>
        <time>2026-05-18T14:12:34+02:00</time>
      </trkpt>
      <trkpt lat="48.8843" lon="6.06154">
        <ele>181.10059</ele>
        <time>2026-05-18T14:12:35+02:00</time>
      </trkpt>
      <trkpt lat="48.88435" lon="6.06151">
        <ele>181.2002</ele>
        <time>2026-05-18T14:12:36+02:00</time>
      </trkpt>
      <trkpt lat="48.8844" lon="6.06147">
        <ele>181.2002</ele>
        <time>2026-05-18T14:12:37+02:00</time>
      </trkpt>
      <trkpt lat="48.88445" lon="6.06144">
        <ele>181.2998</ele>
        <time>2026-05-18T14:12:38+02:00</time>
      </trkpt>
      <trkpt lat="48.8845" lon="6.0614">
        <ele>181.2998</ele>
        <time>2026-05-18T14:12:39+02:00</time>
      </trkpt>
      <trkpt lat="48.88455" lon="6.06136">
        <ele>181.40039</ele>
        <time>2026-05-18T14:12:40+02:00</time>
      </trkpt>
      <trkpt lat="48.88459" lon="6.06133">
        <ele>181.40039</ele>
        <time>2026-05-18T14:12:41+02:00</time>
      </trkpt>
      <trkpt lat="48.88464" lon="6.0613">
        <ele>181.40039</ele>
        <time>2026-05-18T14:12:42+02:00</time>
      </trkpt>
      <trkpt lat="48.88469" lon="6.06127">
        <ele>181.40039</ele>
        <time>2026-05-18T14:12:43+02:00</time>
      </trkpt>
      <trkpt lat="48.88473" lon="6.06124">
        <ele>181.40039</ele>
        <time>2026-05-18T14:12:44+02:00</time>
      </trkpt>
      <trkpt lat="48.88477" lon="6.06122">
        <ele>181.40039</ele>
        <time>2026-05-18T14:12:45+02:00</time>
      </trkpt>
      <trkpt lat="48.88482" lon="6.06119">
        <ele>181.40039</ele>
        <time>2026-05-18T14:12:46+02:00</time>
      </trkpt>
      <trkpt lat="48.88487" lon="6.06116">
        <ele>181.40039</ele>
        <time>2026-05-18T14:12:47+02:00</time>
      </trkpt>
      <trkpt lat="48.88491" lon="6.06113">
        <ele>181.40039</ele>
        <time>2026-05-18T14:12:48+02:00</time>
      </trkpt>
      <trkpt lat="48.88496" lon="6.06109">
        <ele>181.40039</ele>
        <time>2026-05-18T14:12:49+02:00</time>
      </trkpt>
      <trkpt lat="48.885" lon="6.06106">
        <ele>181.40039</ele>
        <time>2026-05-18T14:12:50+02:00</time>
      </trkpt>
      <trkpt lat="48.88505" lon="6.06103">
        <ele>181.40039</ele>
        <time>2026-05-18T14:12:51+02:00</time>
      </trkpt>
      <trkpt lat="48.8851" lon="6.06099">
        <ele>181.40039</ele>
        <time>2026-05-18T14:12:52+02:00</time>
      </trkpt>
      <trkpt lat="48.88514" lon="6.06096">
        <ele>181.40039</ele>
        <time>2026-05-18T14:12:53+02:00</time>
      </trkpt>
      <trkpt lat="48.8852" lon="6.06092">
        <ele>181.40039</ele>
        <time>2026-05-18T14:12:54+02:00</time>
      </trkpt>
      <trkpt lat="48.88525" lon="6.06089">
        <ele>181.2998</ele>
        <time>2026-05-18T14:12:55+02:00</time>
      </trkpt>
      <trkpt lat="48.8853" lon="6.06085">
        <ele>181.2998</ele>
        <time>2026-05-18T14:12:56+02:00</time>
      </trkpt>
      <trkpt lat="48.88536" lon="6.06082">
        <ele>181.2002</ele>
        <time>2026-05-18T14:12:57+02:00</time>
      </trkpt>
      <trkpt lat="48.88541" lon="6.06078">
        <ele>181.2002</ele>
        <time>2026-05-18T14:12:58+02:00</time>
      </trkpt>
      <trkpt lat="48.88547" lon="6.06074">
        <ele>181.10059</ele>
        <time>2026-05-18T14:12:59+02:00</time>
      </trkpt>
      <trkpt lat="48.88552" lon="6.0607">
        <ele>181</ele>
        <time>2026-05-18T14:13:00+02:00</time>
      </trkpt>
      <trkpt lat="48.88558" lon="6.06067">
        <ele>180.90039</ele>
        <time>2026-05-18T14:13:01+02:00</time>
      </trkpt>
      <trkpt lat="48.88563" lon="6.06063">
        <ele>180.90039</ele>
        <time>2026-05-18T14:13:02+02:00</time>
      </trkpt>
      <trkpt lat="48.88568" lon="6.0606">
        <ele>180.7998</ele>
        <time>2026-05-18T14:13:03+02:00</time>
      </trkpt>
      <trkpt lat="48.88574" lon="6.06057">
        <ele>180.7002</ele>
        <time>2026-05-18T14:13:04+02:00</time>
      </trkpt>
      <trkpt lat="48.8858" lon="6.06054">
        <ele>180.60059</ele>
        <time>2026-05-18T14:13:05+02:00</time>
      </trkpt>
      <trkpt lat="48.88585" lon="6.0605">
        <ele>180.5</ele>
        <time>2026-05-18T14:13:06+02:00</time>
      </trkpt>
      <trkpt lat="48.8859" lon="6.06047">
        <ele>180.40039</ele>
        <time>2026-05-18T14:13:07+02:00</time>
      </trkpt>
      <trkpt lat="48.88595" lon="6.06043">
        <ele>180.40039</ele>
        <time>2026-05-18T14:13:08+02:00</time>
      </trkpt>
      <trkpt lat="48.88601" lon="6.0604">
        <ele>180.2998</ele>
        <time>2026-05-18T14:13:09+02:00</time>
      </trkpt>
      <trkpt lat="48.88606" lon="6.06037">
        <ele>180.2002</ele>
        <time>2026-05-18T14:13:10+02:00</time>
      </trkpt>
      <trkpt lat="48.88612" lon="6.06033">
        <ele>180.10059</ele>
        <time>2026-05-18T14:13:11+02:00</time>
      </trkpt>
      <trkpt lat="48.88617" lon="6.0603">
        <ele>180</ele>
        <time>2026-05-18T14:13:12+02:00</time>
      </trkpt>
      <trkpt lat="48.88623" lon="6.06027">
        <ele>179.90039</ele>
        <time>2026-05-18T14:13:13+02:00</time>
      </trkpt>
      <trkpt lat="48.88629" lon="6.06024">
        <ele>179.7998</ele>
        <time>2026-05-18T14:13:14+02:00</time>
      </trkpt>
      <trkpt lat="48.88635" lon="6.06021">
        <ele>179.7002</ele>
        <time>2026-05-18T14:13:15+02:00</time>
      </trkpt>
      <trkpt lat="48.88641" lon="6.06018">
        <ele>179.60059</ele>
        <time>2026-05-18T14:13:16+02:00</time>
      </trkpt>
      <trkpt lat="48.88647" lon="6.06015">
        <ele>179.40039</ele>
        <time>2026-05-18T14:13:17+02:00</time>
      </trkpt>
      <trkpt lat="48.88653" lon="6.06012">
        <ele>179.2998</ele>
        <time>2026-05-18T14:13:18+02:00</time>
      </trkpt>
      <trkpt lat="48.88659" lon="6.06008">
        <ele>179.2002</ele>
        <time>2026-05-18T14:13:19+02:00</time>
      </trkpt>
      <trkpt lat="48.88664" lon="6.06005">
        <ele>179.2002</ele>
        <time>2026-05-18T14:13:20+02:00</time>
      </trkpt>
      <trkpt lat="48.8867" lon="6.06002">
        <ele>179.2002</ele>
        <time>2026-05-18T14:13:21+02:00</time>
      </trkpt>
      <trkpt lat="48.88676" lon="6.05998">
        <ele>179.2998</ele>
        <time>2026-05-18T14:13:22+02:00</time>
      </trkpt>
      <trkpt lat="48.88682" lon="6.05995">
        <ele>179.2998</ele>
        <time>2026-05-18T14:13:23+02:00</time>
      </trkpt>
      <trkpt lat="48.88687" lon="6.05991">
        <ele>179.40039</ele>
        <time>2026-05-18T14:13:24+02:00</time>
      </trkpt>
      <trkpt lat="48.88693" lon="6.05988">
        <ele>179.5</ele>
        <time>2026-05-18T14:13:25+02:00</time>
      </trkpt>
      <trkpt lat="48.88699" lon="6.05984">
        <ele>179.7002</ele>
        <time>2026-05-18T14:13:26+02:00</time>
      </trkpt>
      <trkpt lat="48.88704" lon="6.05981">
        <ele>179.90039</ele>
        <time>2026-05-18T14:13:27+02:00</time>
      </trkpt>
      <trkpt lat="48.8871" lon="6.05977">
        <ele>180.10059</ele>
        <time>2026-05-18T14:13:28+02:00</time>
      </trkpt>
      <trkpt lat="48.88715" lon="6.05974">
        <ele>180.2002</ele>
        <time>2026-05-18T14:13:29+02:00</time>
      </trkpt>
      <trkpt lat="48.88721" lon="6.0597">
        <ele>180.40039</ele>
        <time>2026-05-18T14:13:30+02:00</time>
      </trkpt>
      <trkpt lat="48.88727" lon="6.05967">
        <ele>180.5</ele>
        <time>2026-05-18T14:13:31+02:00</time>
      </trkpt>
      <trkpt lat="48.88732" lon="6.05963">
        <ele>180.7998</ele>
        <time>2026-05-18T14:13:32+02:00</time>
      </trkpt>
      <trkpt lat="48.88737" lon="6.05959">
        <ele>180.90039</ele>
        <time>2026-05-18T14:13:33+02:00</time>
      </trkpt>
      <trkpt lat="48.88743" lon="6.05956">
        <ele>181.10059</ele>
        <time>2026-05-18T14:13:34+02:00</time>
      </trkpt>
      <trkpt lat="48.88748" lon="6.05952">
        <ele>181.2002</ele>
        <time>2026-05-18T14:13:35+02:00</time>
      </trkpt>
      <trkpt lat="48.88754" lon="6.05949">
        <ele>181.2998</ele>
        <time>2026-05-18T14:13:36+02:00</time>
      </trkpt>
      <trkpt lat="48.88759" lon="6.05945">
        <ele>181.40039</ele>
        <time>2026-05-18T14:13:37+02:00</time>
      </trkpt>
      <trkpt lat="48.88764" lon="6.05941">
        <ele>181.5</ele>
        <time>2026-05-18T14:13:38+02:00</time>
      </trkpt>
      <trkpt lat="48.88769" lon="6.05937">
        <ele>181.60059</ele>
        <time>2026-05-18T14:13:39+02:00</time>
      </trkpt>
      <trkpt lat="48.88775" lon="6.05934">
        <ele>181.7002</ele>
        <time>2026-05-18T14:13:40+02:00</time>
      </trkpt>
      <trkpt lat="48.8878" lon="6.0593">
        <ele>181.7002</ele>
        <time>2026-05-18T14:13:41+02:00</time>
      </trkpt>
      <trkpt lat="48.88785" lon="6.05926">
        <ele>181.7998</ele>
        <time>2026-05-18T14:13:42+02:00</time>
      </trkpt>
      <trkpt lat="48.88789" lon="6.05922">
        <ele>181.7998</ele>
        <time>2026-05-18T14:13:43+02:00</time>
      </trkpt>
      <trkpt lat="48.88794" lon="6.05919">
        <ele>181.90039</ele>
        <time>2026-05-18T14:13:44+02:00</time>
      </trkpt>
      <trkpt lat="48.88799" lon="6.05915">
        <ele>181.90039</ele>
        <time>2026-05-18T14:13:45+02:00</time>
      </trkpt>
      <trkpt lat="48.88804" lon="6.05912">
        <ele>181.7002</ele>
        <time>2026-05-18T14:13:46+02:00</time>
      </trkpt>
      <trkpt lat="48.88809" lon="6.05908">
        <ele>181.7002</ele>
        <time>2026-05-18T14:13:47+02:00</time>
      </trkpt>
      <trkpt lat="48.88815" lon="6.05905">
        <ele>181.7002</ele>
        <time>2026-05-18T14:13:48+02:00</time>
      </trkpt>
      <trkpt lat="48.8882" lon="6.05901">
        <ele>181.60059</ele>
        <time>2026-05-18T14:13:49+02:00</time>
      </trkpt>
      <trkpt lat="48.88826" lon="6.05898">
        <ele>181.60059</ele>
        <time>2026-05-18T14:13:50+02:00</time>
      </trkpt>
      <trkpt lat="48.88831" lon="6.05894">
        <ele>181.5</ele>
        <time>2026-05-18T14:13:51+02:00</time>
      </trkpt>
      <trkpt lat="48.88836" lon="6.05891">
        <ele>181.5</ele>
        <time>2026-05-18T14:13:52+02:00</time>
      </trkpt>
      <trkpt lat="48.88842" lon="6.05887">
        <ele>181.5</ele>
        <time>2026-05-18T14:13:53+02:00</time>
      </trkpt>
      <trkpt lat="48.88847" lon="6.05883">
        <ele>181.5</ele>
        <time>2026-05-18T14:13:54+02:00</time>
      </trkpt>
      <trkpt lat="48.88852" lon="6.05879">
        <ele>181.5</ele>
        <time>2026-05-18T14:13:55+02:00</time>
      </trkpt>
      <trkpt lat="48.88858" lon="6.05876">
        <ele>181.5</ele>
        <time>2026-05-18T14:13:56+02:00</time>
      </trkpt>
      <trkpt lat="48.88864" lon="6.05872">
        <ele>181.5</ele>
        <time>2026-05-18T14:13:57+02:00</time>
      </trkpt>
      <trkpt lat="48.88869" lon="6.05869">
        <ele>181.5</ele>
        <time>2026-05-18T14:13:58+02:00</time>
      </trkpt>
      <trkpt lat="48.88875" lon="6.05866">
        <ele>181.5</ele>
        <time>2026-05-18T14:13:59+02:00</time>
      </trkpt>
      <trkpt lat="48.8888" lon="6.05863">
        <ele>181.5</ele>
        <time>2026-05-18T14:14:00+02:00</time>
      </trkpt>
      <trkpt lat="48.88886" lon="6.05861">
        <ele>181.5</ele>
        <time>2026-05-18T14:14:01+02:00</time>
      </trkpt>
      <trkpt lat="48.88891" lon="6.05858">
        <ele>181.5</ele>
        <time>2026-05-18T14:14:02+02:00</time>
      </trkpt>
      <trkpt lat="48.88897" lon="6.05856">
        <ele>181.5</ele>
        <time>2026-05-18T14:14:03+02:00</time>
      </trkpt>
      <trkpt lat="48.88903" lon="6.05852">
        <ele>181.5</ele>
        <time>2026-05-18T14:14:04+02:00</time>
      </trkpt>
      <trkpt lat="48.88909" lon="6.05849">
        <ele>181.5</ele>
        <time>2026-05-18T14:14:05+02:00</time>
      </trkpt>
      <trkpt lat="48.88914" lon="6.05846">
        <ele>181.5</ele>
        <time>2026-05-18T14:14:06+02:00</time>
      </trkpt>
      <trkpt lat="48.8892" lon="6.05842">
        <ele>181.5</ele>
        <time>2026-05-18T14:14:07+02:00</time>
      </trkpt>
      <trkpt lat="48.88925" lon="6.05839">
        <ele>181.5</ele>
        <time>2026-05-18T14:14:08+02:00</time>
      </trkpt>
      <trkpt lat="48.8893" lon="6.05836">
        <ele>181.5</ele>
        <time>2026-05-18T14:14:09+02:00</time>
      </trkpt>
      <trkpt lat="48.88935" lon="6.05832">
        <ele>181.5</ele>
        <time>2026-05-18T14:14:10+02:00</time>
      </trkpt>
      <trkpt lat="48.8894" lon="6.05829">
        <ele>181.5</ele>
        <time>2026-05-18T14:14:11+02:00</time>
      </trkpt>
      <trkpt lat="48.88945" lon="6.05825">
        <ele>181.5</ele>
        <time>2026-05-18T14:14:12+02:00</time>
      </trkpt>
      <trkpt lat="48.8895" lon="6.0582">
        <ele>181.40039</ele>
        <time>2026-05-18T14:14:13+02:00</time>
      </trkpt>
      <trkpt lat="48.88954" lon="6.05816">
        <ele>181.40039</ele>
        <time>2026-05-18T14:14:14+02:00</time>
      </trkpt>
      <trkpt lat="48.88959" lon="6.05811">
        <ele>181.5</ele>
        <time>2026-05-18T14:14:15+02:00</time>
      </trkpt>
      <trkpt lat="48.88964" lon="6.05807">
        <ele>181.7002</ele>
        <time>2026-05-18T14:14:16+02:00</time>
      </trkpt>
      <trkpt lat="48.88969" lon="6.05802">
        <ele>182</ele>
        <time>2026-05-18T14:14:17+02:00</time>
      </trkpt>
      <trkpt lat="48.88974" lon="6.05798">
        <ele>182.60059</ele>
        <time>2026-05-18T14:14:18+02:00</time>
      </trkpt>
      <trkpt lat="48.88979" lon="6.05794">
        <ele>183</ele>
        <time>2026-05-18T14:14:19+02:00</time>
      </trkpt>
      <trkpt lat="48.88983" lon="6.0579">
        <ele>182.90039</ele>
        <time>2026-05-18T14:14:20+02:00</time>
      </trkpt>
      <trkpt lat="48.88988" lon="6.05786">
        <ele>183.10059</ele>
        <time>2026-05-18T14:14:21+02:00</time>
      </trkpt>
      <trkpt lat="48.88992" lon="6.05783">
        <ele>183.10059</ele>
        <time>2026-05-18T14:14:22+02:00</time>
      </trkpt>
      <trkpt lat="48.88997" lon="6.0578">
        <ele>183.2998</ele>
        <time>2026-05-18T14:14:23+02:00</time>
      </trkpt>
      <trkpt lat="48.89002" lon="6.05777">
        <ele>183.5</ele>
        <time>2026-05-18T14:14:24+02:00</time>
      </trkpt>
      <trkpt lat="48.89007" lon="6.05774">
        <ele>183.40039</ele>
        <time>2026-05-18T14:14:25+02:00</time>
      </trkpt>
      <trkpt lat="48.89011" lon="6.05771">
        <ele>183.40039</ele>
        <time>2026-05-18T14:14:26+02:00</time>
      </trkpt>
      <trkpt lat="48.89016" lon="6.05767">
        <ele>183.2002</ele>
        <time>2026-05-18T14:14:27+02:00</time>
      </trkpt>
      <trkpt lat="48.89021" lon="6.05764">
        <ele>183.2998</ele>
        <time>2026-05-18T14:14:28+02:00</time>
      </trkpt>
      <trkpt lat="48.89026" lon="6.05761">
        <ele>183.40039</ele>
        <time>2026-05-18T14:14:29+02:00</time>
      </trkpt>
      <trkpt lat="48.89031" lon="6.05757">
        <ele>183.2002</ele>
        <time>2026-05-18T14:14:30+02:00</time>
      </trkpt>
      <trkpt lat="48.89035" lon="6.05754">
        <ele>183.60059</ele>
        <time>2026-05-18T14:14:31+02:00</time>
      </trkpt>
      <trkpt lat="48.8904" lon="6.05751">
        <ele>184</ele>
        <time>2026-05-18T14:14:32+02:00</time>
      </trkpt>
      <trkpt lat="48.89045" lon="6.05748">
        <ele>183.7998</ele>
        <time>2026-05-18T14:14:33+02:00</time>
      </trkpt>
      <trkpt lat="48.8905" lon="6.05745">
        <ele>184.2002</ele>
        <time>2026-05-18T14:14:34+02:00</time>
      </trkpt>
      <trkpt lat="48.89055" lon="6.05742">
        <ele>184.40039</ele>
        <time>2026-05-18T14:14:35+02:00</time>
      </trkpt>
      <trkpt lat="48.8906" lon="6.05739">
        <ele>184.40039</ele>
        <time>2026-05-18T14:14:36+02:00</time>
      </trkpt>
      <trkpt lat="48.89065" lon="6.05735">
        <ele>184.5</ele>
        <time>2026-05-18T14:14:37+02:00</time>
      </trkpt>
      <trkpt lat="48.89069" lon="6.0573">
        <ele>184.5</ele>
        <time>2026-05-18T14:14:38+02:00</time>
      </trkpt>
      <trkpt lat="48.89073" lon="6.05724">
        <ele>184.40039</ele>
        <time>2026-05-18T14:14:39+02:00</time>
      </trkpt>
      <trkpt lat="48.89078" lon="6.05719">
        <ele>184.40039</ele>
        <time>2026-05-18T14:14:40+02:00</time>
      </trkpt>
      <trkpt lat="48.89082" lon="6.05715">
        <ele>184.40039</ele>
        <time>2026-05-18T14:14:41+02:00</time>
      </trkpt>
      <trkpt lat="48.89087" lon="6.05712">
        <ele>184.5</ele>
        <time>2026-05-18T14:14:42+02:00</time>
      </trkpt>
      <trkpt lat="48.89092" lon="6.05709">
        <ele>184.40039</ele>
        <time>2026-05-18T14:14:43+02:00</time>
      </trkpt>
      <trkpt lat="48.89097" lon="6.05706">
        <ele>184.2998</ele>
        <time>2026-05-18T14:14:44+02:00</time>
      </trkpt>
      <trkpt lat="48.89101" lon="6.05704">
        <ele>184.2998</ele>
        <time>2026-05-18T14:14:45+02:00</time>
      </trkpt>
      <trkpt lat="48.89104" lon="6.05703">
        <ele>184.10059</ele>
        <time>2026-05-18T14:14:46+02:00</time>
      </trkpt>
      <trkpt lat="48.89108" lon="6.05703">
        <ele>183.90039</ele>
        <time>2026-05-18T14:14:47+02:00</time>
      </trkpt>
      <trkpt lat="48.89111" lon="6.05702">
        <ele>183.90039</ele>
        <time>2026-05-18T14:14:48+02:00</time>
      </trkpt>
      <trkpt lat="48.89115" lon="6.05701">
        <ele>183.7998</ele>
        <time>2026-05-18T14:14:49+02:00</time>
      </trkpt>
      <trkpt lat="48.89118" lon="6.057">
        <ele>183.7998</ele>
        <time>2026-05-18T14:14:50+02:00</time>
      </trkpt>
      <trkpt lat="48.89121" lon="6.05699">
        <ele>183.5</ele>
        <time>2026-05-18T14:14:51+02:00</time>
      </trkpt>
      <trkpt lat="48.89125" lon="6.05698">
        <ele>183.2998</ele>
        <time>2026-05-18T14:14:52+02:00</time>
      </trkpt>
      <trkpt lat="48.89128" lon="6.05699">
        <ele>183.2998</ele>
        <time>2026-05-18T14:14:53+02:00</time>
      </trkpt>
      <trkpt lat="48.89132" lon="6.05699">
        <ele>183.10059</ele>
        <time>2026-05-18T14:14:54+02:00</time>
      </trkpt>
      <trkpt lat="48.89137" lon="6.05697">
        <ele>182.7998</ele>
        <time>2026-05-18T14:14:55+02:00</time>
      </trkpt>
      <trkpt lat="48.89142" lon="6.05694">
        <ele>182.7002</ele>
        <time>2026-05-18T14:14:56+02:00</time>
      </trkpt>
      <trkpt lat="48.89146" lon="6.05691">
        <ele>182.7002</ele>
        <time>2026-05-18T14:14:57+02:00</time>
      </trkpt>
      <trkpt lat="48.89151" lon="6.05688">
        <ele>182.2998</ele>
        <time>2026-05-18T14:14:58+02:00</time>
      </trkpt>
      <trkpt lat="48.89156" lon="6.05685">
        <ele>182.10059</ele>
        <time>2026-05-18T14:14:59+02:00</time>
      </trkpt>
      <trkpt lat="48.89161" lon="6.05682">
        <ele>181.90039</ele>
        <time>2026-05-18T14:15:00+02:00</time>
      </trkpt>
      <trkpt lat="48.89166" lon="6.05681">
        <ele>181.60059</ele>
        <time>2026-05-18T14:15:01+02:00</time>
      </trkpt>
      <trkpt lat="48.89171" lon="6.05682">
        <ele>181.60059</ele>
        <time>2026-05-18T14:15:02+02:00</time>
      </trkpt>
      <trkpt lat="48.89176" lon="6.05685">
        <ele>181.40039</ele>
        <time>2026-05-18T14:15:03+02:00</time>
      </trkpt>
      <trkpt lat="48.8918" lon="6.0569">
        <ele>181.60059</ele>
        <time>2026-05-18T14:15:04+02:00</time>
      </trkpt>
      <trkpt lat="48.89183" lon="6.05697">
        <ele>181.40039</ele>
        <time>2026-05-18T14:15:05+02:00</time>
      </trkpt>
      <trkpt lat="48.89187" lon="6.05705">
        <ele>181.40039</ele>
        <time>2026-05-18T14:15:06+02:00</time>
      </trkpt>
      <trkpt lat="48.89189" lon="6.05713">
        <ele>181.60059</ele>
        <time>2026-05-18T14:15:07+02:00</time>
      </trkpt>
      <trkpt lat="48.89192" lon="6.0572">
        <ele>181.7998</ele>
        <time>2026-05-18T14:15:08+02:00</time>
      </trkpt>
      <trkpt lat="48.89195" lon="6.05727">
        <ele>181.7002</ele>
        <time>2026-05-18T14:15:09+02:00</time>
      </trkpt>
      <trkpt lat="48.89197" lon="6.05735">
        <ele>181.7998</ele>
        <time>2026-05-18T14:15:10+02:00</time>
      </trkpt>
      <trkpt lat="48.892" lon="6.05742">
        <ele>181.7002</ele>
        <time>2026-05-18T14:15:11+02:00</time>
      </trkpt>
      <trkpt lat="48.89202" lon="6.05749">
        <ele>181.7002</ele>
        <time>2026-05-18T14:15:12+02:00</time>
      </trkpt>
      <trkpt lat="48.89205" lon="6.05756">
        <ele>181.60059</ele>
        <time>2026-05-18T14:15:13+02:00</time>
      </trkpt>
      <trkpt lat="48.89207" lon="6.05762">
        <ele>181.7002</ele>
        <time>2026-05-18T14:15:14+02:00</time>
      </trkpt>
      <trkpt lat="48.89209" lon="6.05769">
        <ele>181.7002</ele>
        <time>2026-05-18T14:15:15+02:00</time>
      </trkpt>
      <trkpt lat="48.89211" lon="6.05776">
        <ele>181.60059</ele>
        <time>2026-05-18T14:15:16+02:00</time>
      </trkpt>
      <trkpt lat="48.89213" lon="6.05783">
        <ele>181.60059</ele>
        <time>2026-05-18T14:15:17+02:00</time>
      </trkpt>
      <trkpt lat="48.89216" lon="6.0579">
        <ele>181.5</ele>
        <time>2026-05-18T14:15:18+02:00</time>
      </trkpt>
      <trkpt lat="48.89218" lon="6.05798">
        <ele>181.60059</ele>
        <time>2026-05-18T14:15:19+02:00</time>
      </trkpt>
      <trkpt lat="48.89219" lon="6.05805">
        <ele>181.60059</ele>
        <time>2026-05-18T14:15:20+02:00</time>
      </trkpt>
      <trkpt lat="48.89222" lon="6.05812">
        <ele>181.60059</ele>
        <time>2026-05-18T14:15:21+02:00</time>
      </trkpt>
      <trkpt lat="48.89224" lon="6.0582">
        <ele>181.7002</ele>
        <time>2026-05-18T14:15:22+02:00</time>
      </trkpt>
      <trkpt lat="48.89226" lon="6.05827">
        <ele>181.60059</ele>
        <time>2026-05-18T14:15:23+02:00</time>
      </trkpt>
      <trkpt lat="48.89229" lon="6.05835">
        <ele>181.7002</ele>
        <time>2026-05-18T14:15:24+02:00</time>
      </trkpt>
      <trkpt lat="48.8923" lon="6.05843">
        <ele>181.90039</ele>
        <time>2026-05-18T14:15:25+02:00</time>
      </trkpt>
      <trkpt lat="48.89233" lon="6.05851">
        <ele>181.90039</ele>
        <time>2026-05-18T14:15:26+02:00</time>
      </trkpt>
      <trkpt lat="48.89235" lon="6.05858">
        <ele>182.10059</ele>
        <time>2026-05-18T14:15:27+02:00</time>
      </trkpt>
      <trkpt lat="48.89236" lon="6.05865">
        <ele>182.2998</ele>
        <time>2026-05-18T14:15:28+02:00</time>
      </trkpt>
      <trkpt lat="48.89238" lon="6.05872">
        <ele>182.2998</ele>
        <time>2026-05-18T14:15:29+02:00</time>
      </trkpt>
      <trkpt lat="48.8924" lon="6.05879">
        <ele>182.5</ele>
        <time>2026-05-18T14:15:30+02:00</time>
      </trkpt>
      <trkpt lat="48.89242" lon="6.05884">
        <ele>182.5</ele>
        <time>2026-05-18T14:15:31+02:00</time>
      </trkpt>
      <trkpt lat="48.89246" lon="6.05888">
        <ele>182.60059</ele>
        <time>2026-05-18T14:15:32+02:00</time>
      </trkpt>
      <trkpt lat="48.89251" lon="6.05888">
        <ele>182.5</ele>
        <time>2026-05-18T14:15:33+02:00</time>
      </trkpt>
      <trkpt lat="48.89256" lon="6.05886">
        <ele>182.2998</ele>
        <time>2026-05-18T14:15:34+02:00</time>
      </trkpt>
      <trkpt lat="48.89261" lon="6.05885">
        <ele>182.2002</ele>
        <time>2026-05-18T14:15:35+02:00</time>
      </trkpt>
      <trkpt lat="48.89266" lon="6.05884">
        <ele>182.10059</ele>
        <time>2026-05-18T14:15:36+02:00</time>
      </trkpt>
      <trkpt lat="48.89271" lon="6.05882">
        <ele>182.10059</ele>
        <time>2026-05-18T14:15:37+02:00</time>
      </trkpt>
      <trkpt lat="48.89276" lon="6.05881">
        <ele>182</ele>
        <time>2026-05-18T14:15:38+02:00</time>
      </trkpt>
      <trkpt lat="48.89282" lon="6.05879">
        <ele>182</ele>
        <time>2026-05-18T14:15:39+02:00</time>
      </trkpt>
      <trkpt lat="48.89287" lon="6.05878">
        <ele>181.7998</ele>
        <time>2026-05-18T14:15:40+02:00</time>
      </trkpt>
      <trkpt lat="48.89293" lon="6.05877">
        <ele>181.7002</ele>
        <time>2026-05-18T14:15:41+02:00</time>
      </trkpt>
      <trkpt lat="48.89298" lon="6.05876">
        <ele>181.60059</ele>
        <time>2026-05-18T14:15:42+02:00</time>
      </trkpt>
      <trkpt lat="48.89303" lon="6.05874">
        <ele>181.60059</ele>
        <time>2026-05-18T14:15:43+02:00</time>
      </trkpt>
      <trkpt lat="48.89309" lon="6.05872">
        <ele>181.5</ele>
        <time>2026-05-18T14:15:44+02:00</time>
      </trkpt>
      <trkpt lat="48.89314" lon="6.0587">
        <ele>181.40039</ele>
        <time>2026-05-18T14:15:45+02:00</time>
      </trkpt>
      <trkpt lat="48.89319" lon="6.05868">
        <ele>181.40039</ele>
        <time>2026-05-18T14:15:46+02:00</time>
      </trkpt>
      <trkpt lat="48.89324" lon="6.05867">
        <ele>181.40039</ele>
        <time>2026-05-18T14:15:47+02:00</time>
      </trkpt>
      <trkpt lat="48.89329" lon="6.05866">
        <ele>181.40039</ele>
        <time>2026-05-18T14:15:48+02:00</time>
      </trkpt>
      <trkpt lat="48.89335" lon="6.05865">
        <ele>181.40039</ele>
        <time>2026-05-18T14:15:49+02:00</time>
      </trkpt>
      <trkpt lat="48.8934" lon="6.05864">
        <ele>181.40039</ele>
        <time>2026-05-18T14:15:50+02:00</time>
      </trkpt>
      <trkpt lat="48.89345" lon="6.05863">
        <ele>181.40039</ele>
        <time>2026-05-18T14:15:51+02:00</time>
      </trkpt>
      <trkpt lat="48.8935" lon="6.0586">
        <ele>181.40039</ele>
        <time>2026-05-18T14:15:52+02:00</time>
      </trkpt>
      <trkpt lat="48.89356" lon="6.05858">
        <ele>181.40039</ele>
        <time>2026-05-18T14:15:53+02:00</time>
      </trkpt>
      <trkpt lat="48.8936" lon="6.05856">
        <ele>181.5</ele>
        <time>2026-05-18T14:15:54+02:00</time>
      </trkpt>
      <trkpt lat="48.89365" lon="6.05857">
        <ele>181.5</ele>
        <time>2026-05-18T14:15:55+02:00</time>
      </trkpt>
      <trkpt lat="48.8937" lon="6.0586">
        <ele>181.5</ele>
        <time>2026-05-18T14:15:56+02:00</time>
      </trkpt>
      <trkpt lat="48.89373" lon="6.05862">
        <ele>181.5</ele>
        <time>2026-05-18T14:15:57+02:00</time>
      </trkpt>
      <trkpt lat="48.89376" lon="6.05864">
        <ele>181.5</ele>
        <time>2026-05-18T14:15:58+02:00</time>
      </trkpt>
      <trkpt lat="48.8938" lon="6.05866">
        <ele>181.60059</ele>
        <time>2026-05-18T14:15:59+02:00</time>
      </trkpt>
      <trkpt lat="48.89382" lon="6.05869">
        <ele>181.60059</ele>
        <time>2026-05-18T14:16:00+02:00</time>
      </trkpt>
      <trkpt lat="48.89383" lon="6.05874">
        <ele>181.5</ele>
        <time>2026-05-18T14:16:01+02:00</time>
      </trkpt>
      <trkpt lat="48.89385" lon="6.05879">
        <ele>181.40039</ele>
        <time>2026-05-18T14:16:02+02:00</time>
      </trkpt>
      <trkpt lat="48.89386" lon="6.05884">
        <ele>181.40039</ele>
        <time>2026-05-18T14:16:03+02:00</time>
      </trkpt>
      <trkpt lat="48.89386" lon="6.05888">
        <ele>181.40039</ele>
        <time>2026-05-18T14:16:04+02:00</time>
      </trkpt>
      <trkpt lat="48.89387" lon="6.05892">
        <ele>181.40039</ele>
        <time>2026-05-18T14:16:05+02:00</time>
      </trkpt>
      <trkpt lat="48.89388" lon="6.05895">
        <ele>181.40039</ele>
        <time>2026-05-18T14:16:06+02:00</time>
      </trkpt>
      <trkpt lat="48.89388" lon="6.05899">
        <ele>181.2998</ele>
        <time>2026-05-18T14:16:07+02:00</time>
      </trkpt>
      <trkpt lat="48.89389" lon="6.05902">
        <ele>181.2998</ele>
        <time>2026-05-18T14:16:08+02:00</time>
      </trkpt>
      <trkpt lat="48.89389" lon="6.05905">
        <ele>181.2002</ele>
        <time>2026-05-18T14:16:09+02:00</time>
      </trkpt>
      <trkpt lat="48.8939" lon="6.05909">
        <ele>181.2002</ele>
        <time>2026-05-18T14:16:10+02:00</time>
      </trkpt>
      <trkpt lat="48.8939" lon="6.05913">
        <ele>181.2002</ele>
        <time>2026-05-18T14:16:11+02:00</time>
      </trkpt>
      <trkpt lat="48.89391" lon="6.05917">
        <ele>181</ele>
        <time>2026-05-18T14:16:12+02:00</time>
      </trkpt>
      <trkpt lat="48.89393" lon="6.05921">
        <ele>181</ele>
        <time>2026-05-18T14:16:13+02:00</time>
      </trkpt>
      <trkpt lat="48.89394" lon="6.05925">
        <ele>180.60059</ele>
        <time>2026-05-18T14:16:14+02:00</time>
      </trkpt>
      <trkpt lat="48.89395" lon="6.05929">
        <ele>180.60059</ele>
        <time>2026-05-18T14:16:15+02:00</time>
      </trkpt>
      <trkpt lat="48.89395" lon="6.05933">
        <ele>180.10059</ele>
        <time>2026-05-18T14:16:16+02:00</time>
      </trkpt>
      <trkpt lat="48.89396" lon="6.05936">
        <ele>180.10059</ele>
        <time>2026-05-18T14:16:17+02:00</time>
      </trkpt>
      <trkpt lat="48.89397" lon="6.05939">
        <ele>179.5</ele>
        <time>2026-05-18T14:16:18+02:00</time>
      </trkpt>
      <trkpt lat="48.89398" lon="6.05943">
        <ele>179.5</ele>
        <time>2026-05-18T14:16:19+02:00</time>
      </trkpt>
      <trkpt lat="48.89398" lon="6.05947">
        <ele>179.5</ele>
        <time>2026-05-18T14:16:20+02:00</time>
      </trkpt>
      <trkpt lat="48.89399" lon="6.05952">
        <ele>178.90039</ele>
        <time>2026-05-18T14:16:21+02:00</time>
      </trkpt>
      <trkpt lat="48.894" lon="6.05956">
        <ele>178.90039</ele>
        <time>2026-05-18T14:16:22+02:00</time>
      </trkpt>
      <trkpt lat="48.89401" lon="6.05961">
        <ele>178.40039</ele>
        <time>2026-05-18T14:16:23+02:00</time>
      </trkpt>
      <trkpt lat="48.89402" lon="6.05966">
        <ele>177.7998</ele>
        <time>2026-05-18T14:16:24+02:00</time>
      </trkpt>
      <trkpt lat="48.89403" lon="6.05972">
        <ele>177.7998</ele>
        <time>2026-05-18T14:16:25+02:00</time>
      </trkpt>
      <trkpt lat="48.89404" lon="6.05977">
        <ele>177.40039</ele>
        <time>2026-05-18T14:16:26+02:00</time>
      </trkpt>
      <trkpt lat="48.89405" lon="6.05982">
        <ele>177.2002</ele>
        <time>2026-05-18T14:16:27+02:00</time>
      </trkpt>
      <trkpt lat="48.89406" lon="6.05989">
        <ele>177.2002</ele>
        <time>2026-05-18T14:16:28+02:00</time>
      </trkpt>
      <trkpt lat="48.89408" lon="6.05994">
        <ele>177.10059</ele>
        <time>2026-05-18T14:16:29+02:00</time>
      </trkpt>
      <trkpt lat="48.89411" lon="6.05998">
        <ele>177.10059</ele>
        <time>2026-05-18T14:16:30+02:00</time>
      </trkpt>
      <trkpt lat="48.89415" lon="6.06001">
        <ele>177.10059</ele>
        <time>2026-05-18T14:16:31+02:00</time>
      </trkpt>
      <trkpt lat="48.89419" lon="6.06001">
        <ele>177.10059</ele>
        <time>2026-05-18T14:16:32+02:00</time>
      </trkpt>
      <trkpt lat="48.89423" lon="6.06001">
        <ele>177.10059</ele>
        <time>2026-05-18T14:16:33+02:00</time>
      </trkpt>
      <trkpt lat="48.89427" lon="6.06002">
        <ele>177.10059</ele>
        <time>2026-05-18T14:16:34+02:00</time>
      </trkpt>
      <trkpt lat="48.89432" lon="6.06002">
        <ele>177.10059</ele>
        <time>2026-05-18T14:16:35+02:00</time>
      </trkpt>
      <trkpt lat="48.89436" lon="6.06002">
        <ele>177.10059</ele>
        <time>2026-05-18T14:16:36+02:00</time>
      </trkpt>
      <trkpt lat="48.89441" lon="6.06002">
        <ele>177.10059</ele>
        <time>2026-05-18T14:16:37+02:00</time>
      </trkpt>
      <trkpt lat="48.89445" lon="6.06002">
        <ele>177.10059</ele>
        <time>2026-05-18T14:16:38+02:00</time>
      </trkpt>
      <trkpt lat="48.8945" lon="6.06002">
        <ele>177.2002</ele>
        <time>2026-05-18T14:16:39+02:00</time>
      </trkpt>
      <trkpt lat="48.89454" lon="6.06001">
        <ele>177.2002</ele>
        <time>2026-05-18T14:16:40+02:00</time>
      </trkpt>
      <trkpt lat="48.89459" lon="6.06001">
        <ele>177.2002</ele>
        <time>2026-05-18T14:16:41+02:00</time>
      </trkpt>
      <trkpt lat="48.89464" lon="6.06">
        <ele>177.2002</ele>
        <time>2026-05-18T14:16:42+02:00</time>
      </trkpt>
      <trkpt lat="48.89468" lon="6.06">
        <ele>177.2002</ele>
        <time>2026-05-18T14:16:43+02:00</time>
      </trkpt>
      <trkpt lat="48.89473" lon="6.06">
        <ele>177.2002</ele>
        <time>2026-05-18T14:16:44+02:00</time>
      </trkpt>
      <trkpt lat="48.89477" lon="6.06">
        <ele>177.2002</ele>
        <time>2026-05-18T14:16:45+02:00</time>
      </trkpt>
      <trkpt lat="48.89482" lon="6.06">
        <ele>177.2002</ele>
        <time>2026-05-18T14:16:46+02:00</time>
      </trkpt>
      <trkpt lat="48.89486" lon="6.05999">
        <ele>177.10059</ele>
        <time>2026-05-18T14:16:47+02:00</time>
      </trkpt>
      <trkpt lat="48.89491" lon="6.05999">
        <ele>177.10059</ele>
        <time>2026-05-18T14:16:48+02:00</time>
      </trkpt>
      <trkpt lat="48.89496" lon="6.05998">
        <ele>177.10059</ele>
        <time>2026-05-18T14:16:49+02:00</time>
      </trkpt>
      <trkpt lat="48.89501" lon="6.05998">
        <ele>177.10059</ele>
        <time>2026-05-18T14:16:50+02:00</time>
      </trkpt>
      <trkpt lat="48.89506" lon="6.05997">
        <ele>177.10059</ele>
        <time>2026-05-18T14:16:51+02:00</time>
      </trkpt>
      <trkpt lat="48.8951" lon="6.05997">
        <ele>177.10059</ele>
        <time>2026-05-18T14:16:52+02:00</time>
      </trkpt>
      <trkpt lat="48.89515" lon="6.05996">
        <ele>177.10059</ele>
        <time>2026-05-18T14:16:53+02:00</time>
      </trkpt>
      <trkpt lat="48.8952" lon="6.05995">
        <ele>177.10059</ele>
        <time>2026-05-18T14:16:54+02:00</time>
      </trkpt>
      <trkpt lat="48.89525" lon="6.05995">
        <ele>177.10059</ele>
        <time>2026-05-18T14:16:55+02:00</time>
      </trkpt>
      <trkpt lat="48.8953" lon="6.05994">
        <ele>177.10059</ele>
        <time>2026-05-18T14:16:56+02:00</time>
      </trkpt>
      <trkpt lat="48.89535" lon="6.05993">
        <ele>177.10059</ele>
        <time>2026-05-18T14:16:57+02:00</time>
      </trkpt>
      <trkpt lat="48.89541" lon="6.05992">
        <ele>177.10059</ele>
        <time>2026-05-18T14:16:58+02:00</time>
      </trkpt>
      <trkpt lat="48.89546" lon="6.05992">
        <ele>177.2002</ele>
        <time>2026-05-18T14:16:59+02:00</time>
      </trkpt>
      <trkpt lat="48.89552" lon="6.05991">
        <ele>177.2002</ele>
        <time>2026-05-18T14:17:00+02:00</time>
      </trkpt>
      <trkpt lat="48.89557" lon="6.05991">
        <ele>177.2002</ele>
        <time>2026-05-18T14:17:01+02:00</time>
      </trkpt>
      <trkpt lat="48.89562" lon="6.0599">
        <ele>177.10059</ele>
        <time>2026-05-18T14:17:02+02:00</time>
      </trkpt>
      <trkpt lat="48.89568" lon="6.05989">
        <ele>177.10059</ele>
        <time>2026-05-18T14:17:03+02:00</time>
      </trkpt>
      <trkpt lat="48.89573" lon="6.05989">
        <ele>177.10059</ele>
        <time>2026-05-18T14:17:04+02:00</time>
      </trkpt>
      <trkpt lat="48.89578" lon="6.05988">
        <ele>177.10059</ele>
        <time>2026-05-18T14:17:05+02:00</time>
      </trkpt>
      <trkpt lat="48.89584" lon="6.05987">
        <ele>177.10059</ele>
        <time>2026-05-18T14:17:06+02:00</time>
      </trkpt>
      <trkpt lat="48.89589" lon="6.05986">
        <ele>177.10059</ele>
        <time>2026-05-18T14:17:07+02:00</time>
      </trkpt>
      <trkpt lat="48.89595" lon="6.05986">
        <ele>177.10059</ele>
        <time>2026-05-18T14:17:08+02:00</time>
      </trkpt>
      <trkpt lat="48.89601" lon="6.05985">
        <ele>177.10059</ele>
        <time>2026-05-18T14:17:09+02:00</time>
      </trkpt>
      <trkpt lat="48.89606" lon="6.05984">
        <ele>177.10059</ele>
        <time>2026-05-18T14:17:10+02:00</time>
      </trkpt>
      <trkpt lat="48.89612" lon="6.05983">
        <ele>177.10059</ele>
        <time>2026-05-18T14:17:11+02:00</time>
      </trkpt>
      <trkpt lat="48.89617" lon="6.05983">
        <ele>177.10059</ele>
        <time>2026-05-18T14:17:12+02:00</time>
      </trkpt>
      <trkpt lat="48.89623" lon="6.05982">
        <ele>177.10059</ele>
        <time>2026-05-18T14:17:13+02:00</time>
      </trkpt>
      <trkpt lat="48.89629" lon="6.05981">
        <ele>177.10059</ele>
        <time>2026-05-18T14:17:14+02:00</time>
      </trkpt>
      <trkpt lat="48.89634" lon="6.0598">
        <ele>177.10059</ele>
        <time>2026-05-18T14:17:15+02:00</time>
      </trkpt>
      <trkpt lat="48.8964" lon="6.05979">
        <ele>177.10059</ele>
        <time>2026-05-18T14:17:16+02:00</time>
      </trkpt>
      <trkpt lat="48.89646" lon="6.05978">
        <ele>177.10059</ele>
        <time>2026-05-18T14:17:17+02:00</time>
      </trkpt>
      <trkpt lat="48.89651" lon="6.05977">
        <ele>177.10059</ele>
        <time>2026-05-18T14:17:18+02:00</time>
      </trkpt>
      <trkpt lat="48.89656" lon="6.05976">
        <ele>177.10059</ele>
        <time>2026-05-18T14:17:19+02:00</time>
      </trkpt>
      <trkpt lat="48.89662" lon="6.05976">
        <ele>177.10059</ele>
        <time>2026-05-18T14:17:20+02:00</time>
      </trkpt>
      <trkpt lat="48.89667" lon="6.05975">
        <ele>177.10059</ele>
        <time>2026-05-18T14:17:21+02:00</time>
      </trkpt>
      <trkpt lat="48.89672" lon="6.05975">
        <ele>177.10059</ele>
        <time>2026-05-18T14:17:22+02:00</time>
      </trkpt>
      <trkpt lat="48.89677" lon="6.05974">
        <ele>177.10059</ele>
        <time>2026-05-18T14:17:23+02:00</time>
      </trkpt>
      <trkpt lat="48.89682" lon="6.05974">
        <ele>177.10059</ele>
        <time>2026-05-18T14:17:24+02:00</time>
      </trkpt>
      <trkpt lat="48.89687" lon="6.05972">
        <ele>177.10059</ele>
        <time>2026-05-18T14:17:25+02:00</time>
      </trkpt>
      <trkpt lat="48.89692" lon="6.05971">
        <ele>177.10059</ele>
        <time>2026-05-18T14:17:26+02:00</time>
      </trkpt>
      <trkpt lat="48.89697" lon="6.0597">
        <ele>177.10059</ele>
        <time>2026-05-18T14:17:27+02:00</time>
      </trkpt>
      <trkpt lat="48.89702" lon="6.05969">
        <ele>177.10059</ele>
        <time>2026-05-18T14:17:28+02:00</time>
      </trkpt>
      <trkpt lat="48.89707" lon="6.05968">
        <ele>177.10059</ele>
        <time>2026-05-18T14:17:29+02:00</time>
      </trkpt>
      <trkpt lat="48.89712" lon="6.05967">
        <ele>177.10059</ele>
        <time>2026-05-18T14:17:30+02:00</time>
      </trkpt>
      <trkpt lat="48.89717" lon="6.05966">
        <ele>177.10059</ele>
        <time>2026-05-18T14:17:31+02:00</time>
      </trkpt>
      <trkpt lat="48.89722" lon="6.05965">
        <ele>177.10059</ele>
        <time>2026-05-18T14:17:32+02:00</time>
      </trkpt>
      <trkpt lat="48.89727" lon="6.05963">
        <ele>177.2002</ele>
        <time>2026-05-18T14:17:33+02:00</time>
      </trkpt>
      <trkpt lat="48.89732" lon="6.0596">
        <ele>177.2002</ele>
        <time>2026-05-18T14:17:34+02:00</time>
      </trkpt>
      <trkpt lat="48.89737" lon="6.05957">
        <ele>177.2002</ele>
        <time>2026-05-18T14:17:35+02:00</time>
      </trkpt>
      <trkpt lat="48.89741" lon="6.05953">
        <ele>177.2998</ele>
        <time>2026-05-18T14:17:36+02:00</time>
      </trkpt>
      <trkpt lat="48.89745" lon="6.0595">
        <ele>177.2998</ele>
        <time>2026-05-18T14:17:37+02:00</time>
      </trkpt>
      <trkpt lat="48.8975" lon="6.05947">
        <ele>177.7002</ele>
        <time>2026-05-18T14:17:38+02:00</time>
      </trkpt>
      <trkpt lat="48.89755" lon="6.05945">
        <ele>177.7002</ele>
        <time>2026-05-18T14:17:39+02:00</time>
      </trkpt>
      <trkpt lat="48.8976" lon="6.05944">
        <ele>177.60059</ele>
        <time>2026-05-18T14:17:40+02:00</time>
      </trkpt>
      <trkpt lat="48.89765" lon="6.05944">
        <ele>177.60059</ele>
        <time>2026-05-18T14:17:41+02:00</time>
      </trkpt>
      <trkpt lat="48.8977" lon="6.05943">
        <ele>177.60059</ele>
        <time>2026-05-18T14:17:42+02:00</time>
      </trkpt>
      <trkpt lat="48.89774" lon="6.05943">
        <ele>177.60059</ele>
        <time>2026-05-18T14:17:43+02:00</time>
      </trkpt>
      <trkpt lat="48.89779" lon="6.05943">
        <ele>177.60059</ele>
        <time>2026-05-18T14:17:44+02:00</time>
      </trkpt>
      <trkpt lat="48.89784" lon="6.05942">
        <ele>177.60059</ele>
        <time>2026-05-18T14:17:45+02:00</time>
      </trkpt>
      <trkpt lat="48.89788" lon="6.05942">
        <ele>177.5</ele>
        <time>2026-05-18T14:17:46+02:00</time>
      </trkpt>
      <trkpt lat="48.89793" lon="6.0594">
        <ele>177.5</ele>
        <time>2026-05-18T14:17:47+02:00</time>
      </trkpt>
      <trkpt lat="48.89798" lon="6.05939">
        <ele>177.5</ele>
        <time>2026-05-18T14:17:48+02:00</time>
      </trkpt>
      <trkpt lat="48.89803" lon="6.05937">
        <ele>178</ele>
        <time>2026-05-18T14:17:49+02:00</time>
      </trkpt>
      <trkpt lat="48.89808" lon="6.05935">
        <ele>178</ele>
        <time>2026-05-18T14:17:50+02:00</time>
      </trkpt>
      <trkpt lat="48.89812" lon="6.05933">
        <ele>178</ele>
        <time>2026-05-18T14:17:51+02:00</time>
      </trkpt>
      <trkpt lat="48.89816" lon="6.05931">
        <ele>177.90039</ele>
        <time>2026-05-18T14:17:52+02:00</time>
      </trkpt>
      <trkpt lat="48.89819" lon="6.05928">
        <ele>178.5</ele>
        <time>2026-05-18T14:17:53+02:00</time>
      </trkpt>
      <trkpt lat="48.89823" lon="6.05927">
        <ele>178.5</ele>
        <time>2026-05-18T14:17:54+02:00</time>
      </trkpt>
      <trkpt lat="48.89828" lon="6.05924">
        <ele>178.5</ele>
        <time>2026-05-18T14:17:55+02:00</time>
      </trkpt>
      <trkpt lat="48.89832" lon="6.05921">
        <ele>179</ele>
        <time>2026-05-18T14:17:56+02:00</time>
      </trkpt>
      <trkpt lat="48.89836" lon="6.05918">
        <ele>179</ele>
        <time>2026-05-18T14:17:57+02:00</time>
      </trkpt>
      <trkpt lat="48.8984" lon="6.05915">
        <ele>179</ele>
        <time>2026-05-18T14:17:58+02:00</time>
      </trkpt>
      <trkpt lat="48.89843" lon="6.05912">
        <ele>179.5</ele>
        <time>2026-05-18T14:17:59+02:00</time>
      </trkpt>
      <trkpt lat="48.89845" lon="6.0591">
        <ele>179.5</ele>
        <time>2026-05-18T14:18:00+02:00</time>
      </trkpt>
      <trkpt lat="48.89847" lon="6.05908">
        <ele>179.40039</ele>
        <time>2026-05-18T14:18:01+02:00</time>
      </trkpt>
      <trkpt lat="48.89849" lon="6.05905">
        <ele>179.40039</ele>
        <time>2026-05-18T14:18:02+02:00</time>
      </trkpt>
      <trkpt lat="48.89851" lon="6.05901">
        <ele>180</ele>
        <time>2026-05-18T14:18:03+02:00</time>
      </trkpt>
      <trkpt lat="48.89853" lon="6.05898">
        <ele>180</ele>
        <time>2026-05-18T14:18:04+02:00</time>
      </trkpt>
      <trkpt lat="48.89856" lon="6.05895">
        <ele>180.5</ele>
        <time>2026-05-18T14:18:05+02:00</time>
      </trkpt>
      <trkpt lat="48.89857" lon="6.05891">
        <ele>180.5</ele>
        <time>2026-05-18T14:18:06+02:00</time>
      </trkpt>
      <trkpt lat="48.89858" lon="6.05886">
        <ele>180.90039</ele>
        <time>2026-05-18T14:18:07+02:00</time>
      </trkpt>
      <trkpt lat="48.89856" lon="6.05881">
        <ele>180.90039</ele>
        <time>2026-05-18T14:18:08+02:00</time>
      </trkpt>
      <trkpt lat="48.89855" lon="6.05876">
        <ele>181.2002</ele>
        <time>2026-05-18T14:18:09+02:00</time>
      </trkpt>
      <trkpt lat="48.89852" lon="6.05872">
        <ele>181.2002</ele>
        <time>2026-05-18T14:18:10+02:00</time>
      </trkpt>
      <trkpt lat="48.8985" lon="6.05868">
        <ele>181.2998</ele>
        <time>2026-05-18T14:18:11+02:00</time>
      </trkpt>
      <trkpt lat="48.89847" lon="6.05863">
        <ele>181.2998</ele>
        <time>2026-05-18T14:18:12+02:00</time>
      </trkpt>
      <trkpt lat="48.89844" lon="6.0586">
        <ele>181</ele>
        <time>2026-05-18T14:18:13+02:00</time>
      </trkpt>
      <trkpt lat="48.89842" lon="6.05856">
        <ele>181</ele>
        <time>2026-05-18T14:18:14+02:00</time>
      </trkpt>
      <trkpt lat="48.89839" lon="6.05852">
        <ele>180.7998</ele>
        <time>2026-05-18T14:18:15+02:00</time>
      </trkpt>
      <trkpt lat="48.89837" lon="6.05848">
        <ele>180.7998</ele>
        <time>2026-05-18T14:18:16+02:00</time>
      </trkpt>
      <trkpt lat="48.89835" lon="6.05844">
        <ele>180.7002</ele>
        <time>2026-05-18T14:18:17+02:00</time>
      </trkpt>
      <trkpt lat="48.89834" lon="6.05841">
        <ele>180.7002</ele>
        <time>2026-05-18T14:18:18+02:00</time>
      </trkpt>
      <trkpt lat="48.89832" lon="6.05837">
        <ele>180.7002</ele>
        <time>2026-05-18T14:18:19+02:00</time>
      </trkpt>
      <trkpt lat="48.89832" lon="6.05833">
        <ele>180.7002</ele>
        <time>2026-05-18T14:18:20+02:00</time>
      </trkpt>
      <trkpt lat="48.89833" lon="6.05828">
        <ele>180.7002</ele>
        <time>2026-05-18T14:18:21+02:00</time>
      </trkpt>
      <trkpt lat="48.89834" lon="6.05824">
        <ele>180.60059</ele>
        <time>2026-05-18T14:18:22+02:00</time>
      </trkpt>
      <trkpt lat="48.89836" lon="6.05821">
        <ele>180.7002</ele>
        <time>2026-05-18T14:18:23+02:00</time>
      </trkpt>
      <trkpt lat="48.89838" lon="6.05818">
        <ele>180.60059</ele>
        <time>2026-05-18T14:18:24+02:00</time>
      </trkpt>
      <trkpt lat="48.8984" lon="6.05815">
        <ele>180.60059</ele>
        <time>2026-05-18T14:18:25+02:00</time>
      </trkpt>
      <trkpt lat="48.89842" lon="6.05811">
        <ele>180.60059</ele>
        <time>2026-05-18T14:18:26+02:00</time>
      </trkpt>
      <trkpt lat="48.89844" lon="6.05807">
        <ele>180.40039</ele>
        <time>2026-05-18T14:18:27+02:00</time>
      </trkpt>
      <trkpt lat="48.89846" lon="6.05804">
        <ele>180.40039</ele>
        <time>2026-05-18T14:18:28+02:00</time>
      </trkpt>
      <trkpt lat="48.89849" lon="6.05801">
        <ele>180.2002</ele>
        <time>2026-05-18T14:18:29+02:00</time>
      </trkpt>
      <trkpt lat="48.89853" lon="6.05799">
        <ele>180.10059</ele>
        <time>2026-05-18T14:18:30+02:00</time>
      </trkpt>
      <trkpt lat="48.89856" lon="6.05796">
        <ele>180.10059</ele>
        <time>2026-05-18T14:18:31+02:00</time>
      </trkpt>
      <trkpt lat="48.8986" lon="6.05793">
        <ele>179.90039</ele>
        <time>2026-05-18T14:18:32+02:00</time>
      </trkpt>
      <trkpt lat="48.89865" lon="6.0579">
        <ele>179.40039</ele>
        <time>2026-05-18T14:18:33+02:00</time>
      </trkpt>
      <trkpt lat="48.89869" lon="6.05787">
        <ele>179.40039</ele>
        <time>2026-05-18T14:18:34+02:00</time>
      </trkpt>
      <trkpt lat="48.89872" lon="6.05783">
        <ele>178.2998</ele>
        <time>2026-05-18T14:18:35+02:00</time>
      </trkpt>
      <trkpt lat="48.89876" lon="6.0578">
        <ele>177.7002</ele>
        <time>2026-05-18T14:18:36+02:00</time>
      </trkpt>
      <trkpt lat="48.89879" lon="6.05776">
        <ele>177.7002</ele>
        <time>2026-05-18T14:18:37+02:00</time>
      </trkpt>
      <trkpt lat="48.89882" lon="6.05773">
        <ele>177.5</ele>
        <time>2026-05-18T14:18:38+02:00</time>
      </trkpt>
      <trkpt lat="48.89886" lon="6.0577">
        <ele>177.5</ele>
        <time>2026-05-18T14:18:39+02:00</time>
      </trkpt>
      <trkpt lat="48.8989" lon="6.05767">
        <ele>178.5</ele>
        <time>2026-05-18T14:18:40+02:00</time>
      </trkpt>
      <trkpt lat="48.89892" lon="6.05767">
        <ele>178.5</ele>
        <time>2026-05-18T14:18:41+02:00</time>
      </trkpt>
      <trkpt lat="48.89895" lon="6.05769">
        <ele>178.90039</ele>
        <time>2026-05-18T14:18:42+02:00</time>
      </trkpt>
      <trkpt lat="48.89898" lon="6.05772">
        <ele>179.90039</ele>
        <time>2026-05-18T14:18:43+02:00</time>
      </trkpt>
      <trkpt lat="48.899" lon="6.05777">
        <ele>179.5</ele>
        <time>2026-05-18T14:18:44+02:00</time>
      </trkpt>
      <trkpt lat="48.89903" lon="6.05782">
        <ele>179.5</ele>
        <time>2026-05-18T14:18:45+02:00</time>
      </trkpt>
      <trkpt lat="48.89906" lon="6.05787">
        <ele>179</ele>
        <time>2026-05-18T14:18:46+02:00</time>
      </trkpt>
      <trkpt lat="48.89909" lon="6.05793">
        <ele>178.2998</ele>
        <time>2026-05-18T14:18:47+02:00</time>
      </trkpt>
      <trkpt lat="48.89912" lon="6.05798">
        <ele>178.2998</ele>
        <time>2026-05-18T14:18:48+02:00</time>
      </trkpt>
      <trkpt lat="48.89916" lon="6.05803">
        <ele>178.5</ele>
        <time>2026-05-18T14:18:49+02:00</time>
      </trkpt>
      <trkpt lat="48.89919" lon="6.05808">
        <ele>178.5</ele>
        <time>2026-05-18T14:18:50+02:00</time>
      </trkpt>
      <trkpt lat="48.89922" lon="6.05813">
        <ele>178.90039</ele>
        <time>2026-05-18T14:18:51+02:00</time>
      </trkpt>
      <trkpt lat="48.89926" lon="6.05819">
        <ele>178.60059</ele>
        <time>2026-05-18T14:18:52+02:00</time>
      </trkpt>
      <trkpt lat="48.89929" lon="6.05823">
        <ele>178.60059</ele>
        <time>2026-05-18T14:18:53+02:00</time>
      </trkpt>
      <trkpt lat="48.89932" lon="6.05828">
        <ele>177.60059</ele>
        <time>2026-05-18T14:18:54+02:00</time>
      </trkpt>
      <trkpt lat="48.89936" lon="6.05833">
        <ele>177.60059</ele>
        <time>2026-05-18T14:18:55+02:00</time>
      </trkpt>
      <trkpt lat="48.8994" lon="6.05837">
        <ele>176.7998</ele>
        <time>2026-05-18T14:18:56+02:00</time>
      </trkpt>
      <trkpt lat="48.89943" lon="6.05841">
        <ele>176.7998</ele>
        <time>2026-05-18T14:18:57+02:00</time>
      </trkpt>
      <trkpt lat="48.89946" lon="6.05846">
        <ele>176.60059</ele>
        <time>2026-05-18T14:18:58+02:00</time>
      </trkpt>
      <trkpt lat="48.89949" lon="6.0585">
        <ele>176.7998</ele>
        <time>2026-05-18T14:18:59+02:00</time>
      </trkpt>
      <trkpt lat="48.89952" lon="6.05854">
        <ele>176.7998</ele>
        <time>2026-05-18T14:19:00+02:00</time>
      </trkpt>
      <trkpt lat="48.89955" lon="6.05857">
        <ele>177.10059</ele>
        <time>2026-05-18T14:19:01+02:00</time>
      </trkpt>
      <trkpt lat="48.89957" lon="6.0586">
        <ele>177.10059</ele>
        <time>2026-05-18T14:19:02+02:00</time>
      </trkpt>
      <trkpt lat="48.89959" lon="6.05863">
        <ele>177.2002</ele>
        <time>2026-05-18T14:19:03+02:00</time>
      </trkpt>
      <trkpt lat="48.89962" lon="6.05866">
        <ele>178.5</ele>
        <time>2026-05-18T14:19:04+02:00</time>
      </trkpt>
      <trkpt lat="48.89964" lon="6.05868">
        <ele>178.5</ele>
        <time>2026-05-18T14:19:05+02:00</time>
      </trkpt>
      <trkpt lat="48.89967" lon="6.05871">
        <ele>180.40039</ele>
        <time>2026-05-18T14:19:06+02:00</time>
      </trkpt>
      <trkpt lat="48.89971" lon="6.05873">
        <ele>182</ele>
        <time>2026-05-18T14:19:07+02:00</time>
      </trkpt>
      <trkpt lat="48.89974" lon="6.05875">
        <ele>182</ele>
        <time>2026-05-18T14:19:08+02:00</time>
      </trkpt>
      <trkpt lat="48.89977" lon="6.05877">
        <ele>182.5</ele>
        <time>2026-05-18T14:19:09+02:00</time>
      </trkpt>
      <trkpt lat="48.89981" lon="6.05878">
        <ele>182.5</ele>
        <time>2026-05-18T14:19:10+02:00</time>
      </trkpt>
      <trkpt lat="48.89985" lon="6.0588">
        <ele>182.2998</ele>
        <time>2026-05-18T14:19:11+02:00</time>
      </trkpt>
      <trkpt lat="48.8999" lon="6.05882">
        <ele>182.5</ele>
        <time>2026-05-18T14:19:12+02:00</time>
      </trkpt>
      <trkpt lat="48.89994" lon="6.05884">
        <ele>182.7002</ele>
        <time>2026-05-18T14:19:13+02:00</time>
      </trkpt>
      <trkpt lat="48.89999" lon="6.05886">
        <ele>182.7002</ele>
        <time>2026-05-18T14:19:14+02:00</time>
      </trkpt>
      <trkpt lat="48.90003" lon="6.05887">
        <ele>182.7002</ele>
        <time>2026-05-18T14:19:15+02:00</time>
      </trkpt>
      <trkpt lat="48.90008" lon="6.05889">
        <ele>182.60059</ele>
        <time>2026-05-18T14:19:16+02:00</time>
      </trkpt>
      <trkpt lat="48.90013" lon="6.0589">
        <ele>182</ele>
        <time>2026-05-18T14:19:17+02:00</time>
      </trkpt>
      <trkpt lat="48.90019" lon="6.05892">
        <ele>181.40039</ele>
        <time>2026-05-18T14:19:18+02:00</time>
      </trkpt>
      <trkpt lat="48.90024" lon="6.05894">
        <ele>181.2002</ele>
        <time>2026-05-18T14:19:19+02:00</time>
      </trkpt>
      <trkpt lat="48.90029" lon="6.05897">
        <ele>180.2998</ele>
        <time>2026-05-18T14:19:20+02:00</time>
      </trkpt>
      <trkpt lat="48.90034" lon="6.05899">
        <ele>180.2002</ele>
        <time>2026-05-18T14:19:21+02:00</time>
      </trkpt>
      <trkpt lat="48.9004" lon="6.05901">
        <ele>180.2002</ele>
        <time>2026-05-18T14:19:22+02:00</time>
      </trkpt>
      <trkpt lat="48.90045" lon="6.05903">
        <ele>180.2002</ele>
        <time>2026-05-18T14:19:23+02:00</time>
      </trkpt>
      <trkpt lat="48.9005" lon="6.05905">
        <ele>179.2002</ele>
        <time>2026-05-18T14:19:24+02:00</time>
      </trkpt>
      <trkpt lat="48.90056" lon="6.05907">
        <ele>179.10059</ele>
        <time>2026-05-18T14:19:25+02:00</time>
      </trkpt>
      <trkpt lat="48.90061" lon="6.05909">
        <ele>179.10059</ele>
        <time>2026-05-18T14:19:26+02:00</time>
      </trkpt>
      <trkpt lat="48.90066" lon="6.0591">
        <ele>179.10059</ele>
        <time>2026-05-18T14:19:27+02:00</time>
      </trkpt>
      <trkpt lat="48.90071" lon="6.05912">
        <ele>179.10059</ele>
        <time>2026-05-18T14:19:28+02:00</time>
      </trkpt>
      <trkpt lat="48.90077" lon="6.05914">
        <ele>178</ele>
        <time>2026-05-18T14:19:29+02:00</time>
      </trkpt>
      <trkpt lat="48.90082" lon="6.05916">
        <ele>178</ele>
        <time>2026-05-18T14:19:30+02:00</time>
      </trkpt>
      <trkpt lat="48.90087" lon="6.05917">
        <ele>177.90039</ele>
        <time>2026-05-18T14:19:31+02:00</time>
      </trkpt>
      <trkpt lat="48.90092" lon="6.05919">
        <ele>177.90039</ele>
        <time>2026-05-18T14:19:32+02:00</time>
      </trkpt>
      <trkpt lat="48.90097" lon="6.05921">
        <ele>177.90039</ele>
        <time>2026-05-18T14:19:33+02:00</time>
      </trkpt>
      <trkpt lat="48.90102" lon="6.05922">
        <ele>177.2998</ele>
        <time>2026-05-18T14:19:34+02:00</time>
      </trkpt>
      <trkpt lat="48.90107" lon="6.05924">
        <ele>177.2998</ele>
        <time>2026-05-18T14:19:35+02:00</time>
      </trkpt>
      <trkpt lat="48.90112" lon="6.05925">
        <ele>177.2998</ele>
        <time>2026-05-18T14:19:36+02:00</time>
      </trkpt>
      <trkpt lat="48.90117" lon="6.05927">
        <ele>177.2002</ele>
        <time>2026-05-18T14:19:37+02:00</time>
      </trkpt>
      <trkpt lat="48.90122" lon="6.05929">
        <ele>177.2002</ele>
        <time>2026-05-18T14:19:38+02:00</time>
      </trkpt>
      <trkpt lat="48.90127" lon="6.0593">
        <ele>177.2002</ele>
        <time>2026-05-18T14:19:39+02:00</time>
      </trkpt>
      <trkpt lat="48.90132" lon="6.05932">
        <ele>177</ele>
        <time>2026-05-18T14:19:40+02:00</time>
      </trkpt>
      <trkpt lat="48.90136" lon="6.05934">
        <ele>177</ele>
        <time>2026-05-18T14:19:41+02:00</time>
      </trkpt>
      <trkpt lat="48.90141" lon="6.05935">
        <ele>177</ele>
        <time>2026-05-18T14:19:42+02:00</time>
      </trkpt>
      <trkpt lat="48.90146" lon="6.05936">
        <ele>177</ele>
        <time>2026-05-18T14:19:43+02:00</time>
      </trkpt>
      <trkpt lat="48.90151" lon="6.05938">
        <ele>177</ele>
        <time>2026-05-18T14:19:44+02:00</time>
      </trkpt>
      <trkpt lat="48.90156" lon="6.0594">
        <ele>177.10059</ele>
        <time>2026-05-18T14:19:45+02:00</time>
      </trkpt>
      <trkpt lat="48.90161" lon="6.05942">
        <ele>177.10059</ele>
        <time>2026-05-18T14:19:46+02:00</time>
      </trkpt>
      <trkpt lat="48.90166" lon="6.05943">
        <ele>177.10059</ele>
        <time>2026-05-18T14:19:47+02:00</time>
      </trkpt>
      <trkpt lat="48.90171" lon="6.05945">
        <ele>177.10059</ele>
        <time>2026-05-18T14:19:48+02:00</time>
      </trkpt>
      <trkpt lat="48.90176" lon="6.05947">
        <ele>177.10059</ele>
        <time>2026-05-18T14:19:49+02:00</time>
      </trkpt>
      <trkpt lat="48.90181" lon="6.05947">
        <ele>177.10059</ele>
        <time>2026-05-18T14:19:50+02:00</time>
      </trkpt>
      <trkpt lat="48.90186" lon="6.05946">
        <ele>177.10059</ele>
        <time>2026-05-18T14:19:51+02:00</time>
      </trkpt>
      <trkpt lat="48.9019" lon="6.05942">
        <ele>177.10059</ele>
        <time>2026-05-18T14:19:52+02:00</time>
      </trkpt>
      <trkpt lat="48.90194" lon="6.05938">
        <ele>177</ele>
        <time>2026-05-18T14:19:53+02:00</time>
      </trkpt>
      <trkpt lat="48.90197" lon="6.05934">
        <ele>177</ele>
        <time>2026-05-18T14:19:54+02:00</time>
      </trkpt>
      <trkpt lat="48.902" lon="6.05929">
        <ele>177.10059</ele>
        <time>2026-05-18T14:19:55+02:00</time>
      </trkpt>
      <trkpt lat="48.90203" lon="6.05924">
        <ele>177.10059</ele>
        <time>2026-05-18T14:19:56+02:00</time>
      </trkpt>
      <trkpt lat="48.90206" lon="6.05918">
        <ele>177.2998</ele>
        <time>2026-05-18T14:19:57+02:00</time>
      </trkpt>
      <trkpt lat="48.90208" lon="6.05912">
        <ele>177.7998</ele>
        <time>2026-05-18T14:19:58+02:00</time>
      </trkpt>
      <trkpt lat="48.90211" lon="6.05907">
        <ele>177.7998</ele>
        <time>2026-05-18T14:19:59+02:00</time>
      </trkpt>
      <trkpt lat="48.90214" lon="6.05903">
        <ele>178.60059</ele>
        <time>2026-05-18T14:20:00+02:00</time>
      </trkpt>
      <trkpt lat="48.90217" lon="6.05899">
        <ele>178.60059</ele>
        <time>2026-05-18T14:20:01+02:00</time>
      </trkpt>
      <trkpt lat="48.90219" lon="6.05894">
        <ele>179.60059</ele>
        <time>2026-05-18T14:20:02+02:00</time>
      </trkpt>
      <trkpt lat="48.90221" lon="6.05889">
        <ele>179.2998</ele>
        <time>2026-05-18T14:20:03+02:00</time>
      </trkpt>
      <trkpt lat="48.90223" lon="6.05884">
        <ele>180</ele>
        <time>2026-05-18T14:20:04+02:00</time>
      </trkpt>
      <trkpt lat="48.90225" lon="6.05879">
        <ele>180</ele>
        <time>2026-05-18T14:20:05+02:00</time>
      </trkpt>
      <trkpt lat="48.90228" lon="6.05874">
        <ele>180.2002</ele>
        <time>2026-05-18T14:20:06+02:00</time>
      </trkpt>
      <trkpt lat="48.9023" lon="6.05869">
        <ele>180.90039</ele>
        <time>2026-05-18T14:20:07+02:00</time>
      </trkpt>
      <trkpt lat="48.90233" lon="6.05864">
        <ele>180.2002</ele>
        <time>2026-05-18T14:20:08+02:00</time>
      </trkpt>
      <trkpt lat="48.90236" lon="6.05859">
        <ele>181</ele>
        <time>2026-05-18T14:20:09+02:00</time>
      </trkpt>
      <trkpt lat="48.90239" lon="6.05854">
        <ele>180.40039</ele>
        <time>2026-05-18T14:20:10+02:00</time>
      </trkpt>
      <trkpt lat="48.90241" lon="6.05848">
        <ele>181.10059</ele>
        <time>2026-05-18T14:20:11+02:00</time>
      </trkpt>
      <trkpt lat="48.90244" lon="6.05843">
        <ele>181</ele>
        <time>2026-05-18T14:20:12+02:00</time>
      </trkpt>
      <trkpt lat="48.90247" lon="6.05837">
        <ele>181</ele>
        <time>2026-05-18T14:20:13+02:00</time>
      </trkpt>
      <trkpt lat="48.90249" lon="6.05832">
        <ele>180.7002</ele>
        <time>2026-05-18T14:20:14+02:00</time>
      </trkpt>
      <trkpt lat="48.90252" lon="6.05827">
        <ele>181.2002</ele>
        <time>2026-05-18T14:20:15+02:00</time>
      </trkpt>
      <trkpt lat="48.90255" lon="6.05822">
        <ele>180.5</ele>
        <time>2026-05-18T14:20:16+02:00</time>
      </trkpt>
      <trkpt lat="48.90257" lon="6.05817">
        <ele>181.10059</ele>
        <time>2026-05-18T14:20:17+02:00</time>
      </trkpt>
      <trkpt lat="48.9026" lon="6.05811">
        <ele>180.5</ele>
        <time>2026-05-18T14:20:18+02:00</time>
      </trkpt>
      <trkpt lat="48.90263" lon="6.05806">
        <ele>181</ele>
        <time>2026-05-18T14:20:19+02:00</time>
      </trkpt>
      <trkpt lat="48.90267" lon="6.05802">
        <ele>180.2998</ele>
        <time>2026-05-18T14:20:20+02:00</time>
      </trkpt>
      <trkpt lat="48.90271" lon="6.05797">
        <ele>180.10059</ele>
        <time>2026-05-18T14:20:21+02:00</time>
      </trkpt>
      <trkpt lat="48.90275" lon="6.05794">
        <ele>180.10059</ele>
        <time>2026-05-18T14:20:22+02:00</time>
      </trkpt>
      <trkpt lat="48.90279" lon="6.05791">
        <ele>179.90039</ele>
        <time>2026-05-18T14:20:23+02:00</time>
      </trkpt>
      <trkpt lat="48.90284" lon="6.05789">
        <ele>179.2998</ele>
        <time>2026-05-18T14:20:24+02:00</time>
      </trkpt>
      <trkpt lat="48.90288" lon="6.05786">
        <ele>178.7002</ele>
        <time>2026-05-18T14:20:25+02:00</time>
      </trkpt>
      <trkpt lat="48.90292" lon="6.05783">
        <ele>179.40039</ele>
        <time>2026-05-18T14:20:26+02:00</time>
      </trkpt>
      <trkpt lat="48.90297" lon="6.0578">
        <ele>178.7998</ele>
        <time>2026-05-18T14:20:27+02:00</time>
      </trkpt>
      <trkpt lat="48.90301" lon="6.05777">
        <ele>178</ele>
        <time>2026-05-18T14:20:28+02:00</time>
      </trkpt>
      <trkpt lat="48.90305" lon="6.05773">
        <ele>177.7002</ele>
        <time>2026-05-18T14:20:29+02:00</time>
      </trkpt>
      <trkpt lat="48.90309" lon="6.05769">
        <ele>177.7002</ele>
        <time>2026-05-18T14:20:30+02:00</time>
      </trkpt>
      <trkpt lat="48.90312" lon="6.05765">
        <ele>177.7002</ele>
        <time>2026-05-18T14:20:31+02:00</time>
      </trkpt>
      <trkpt lat="48.90315" lon="6.0576">
        <ele>177.7002</ele>
        <time>2026-05-18T14:20:32+02:00</time>
      </trkpt>
      <trkpt lat="48.90318" lon="6.05755">
        <ele>177.90039</ele>
        <time>2026-05-18T14:20:33+02:00</time>
      </trkpt>
      <trkpt lat="48.90321" lon="6.0575">
        <ele>177.7998</ele>
        <time>2026-05-18T14:20:34+02:00</time>
      </trkpt>
      <trkpt lat="48.90325" lon="6.05744">
        <ele>177.7998</ele>
        <time>2026-05-18T14:20:35+02:00</time>
      </trkpt>
      <trkpt lat="48.90327" lon="6.05739">
        <ele>177.5</ele>
        <time>2026-05-18T14:20:36+02:00</time>
      </trkpt>
      <trkpt lat="48.9033" lon="6.05734">
        <ele>177.5</ele>
        <time>2026-05-18T14:20:37+02:00</time>
      </trkpt>
      <trkpt lat="48.90333" lon="6.0573">
        <ele>177.60059</ele>
        <time>2026-05-18T14:20:38+02:00</time>
      </trkpt>
      <trkpt lat="48.90336" lon="6.05725">
        <ele>177.60059</ele>
        <time>2026-05-18T14:20:39+02:00</time>
      </trkpt>
      <trkpt lat="48.90338" lon="6.05721">
        <ele>177.7998</ele>
        <time>2026-05-18T14:20:40+02:00</time>
      </trkpt>
      <trkpt lat="48.90341" lon="6.05717">
        <ele>177.7998</ele>
        <time>2026-05-18T14:20:41+02:00</time>
      </trkpt>
      <trkpt lat="48.90343" lon="6.05713">
        <ele>178.5</ele>
        <time>2026-05-18T14:20:42+02:00</time>
      </trkpt>
      <trkpt lat="48.90345" lon="6.05709">
        <ele>177.7002</ele>
        <time>2026-05-18T14:20:43+02:00</time>
      </trkpt>
      <trkpt lat="48.90347" lon="6.05705">
        <ele>178.10059</ele>
        <time>2026-05-18T14:20:44+02:00</time>
      </trkpt>
      <trkpt lat="48.9035" lon="6.05701">
        <ele>177.40039</ele>
        <time>2026-05-18T14:20:45+02:00</time>
      </trkpt>
      <trkpt lat="48.90352" lon="6.05697">
        <ele>177.90039</ele>
        <time>2026-05-18T14:20:46+02:00</time>
      </trkpt>
      <trkpt lat="48.90354" lon="6.05693">
        <ele>177.90039</ele>
        <time>2026-05-18T14:20:47+02:00</time>
      </trkpt>
      <trkpt lat="48.90357" lon="6.05689">
        <ele>178.2002</ele>
        <time>2026-05-18T14:20:48+02:00</time>
      </trkpt>
      <trkpt lat="48.9036" lon="6.05685">
        <ele>178.2002</ele>
        <time>2026-05-18T14:20:49+02:00</time>
      </trkpt>
      <trkpt lat="48.90364" lon="6.05681">
        <ele>178.2998</ele>
        <time>2026-05-18T14:20:50+02:00</time>
      </trkpt>
      <trkpt lat="48.90368" lon="6.05677">
        <ele>177.5</ele>
        <time>2026-05-18T14:20:51+02:00</time>
      </trkpt>
      <trkpt lat="48.90372" lon="6.05673">
        <ele>177</ele>
        <time>2026-05-18T14:20:52+02:00</time>
      </trkpt>
      <trkpt lat="48.90376" lon="6.05669">
        <ele>177.2002</ele>
        <time>2026-05-18T14:20:53+02:00</time>
      </trkpt>
      <trkpt lat="48.90379" lon="6.05664">
        <ele>177.40039</ele>
        <time>2026-05-18T14:20:54+02:00</time>
      </trkpt>
      <trkpt lat="48.90383" lon="6.05658">
        <ele>177.2002</ele>
        <time>2026-05-18T14:20:55+02:00</time>
      </trkpt>
      <trkpt lat="48.90386" lon="6.05653">
        <ele>177.5</ele>
        <time>2026-05-18T14:20:56+02:00</time>
      </trkpt>
      <trkpt lat="48.90389" lon="6.05647">
        <ele>177.2998</ele>
        <time>2026-05-18T14:20:57+02:00</time>
      </trkpt>
      <trkpt lat="48.90392" lon="6.05643">
        <ele>177.2998</ele>
        <time>2026-05-18T14:20:58+02:00</time>
      </trkpt>
      <trkpt lat="48.90394" lon="6.05638">
        <ele>177.60059</ele>
        <time>2026-05-18T14:20:59+02:00</time>
      </trkpt>
      <trkpt lat="48.90396" lon="6.05634">
        <ele>177.10059</ele>
        <time>2026-05-18T14:21:00+02:00</time>
      </trkpt>
      <trkpt lat="48.90397" lon="6.05629">
        <ele>177.5</ele>
        <time>2026-05-18T14:21:01+02:00</time>
      </trkpt>
      <trkpt lat="48.90396" lon="6.05624">
        <ele>177.5</ele>
        <time>2026-05-18T14:21:02+02:00</time>
      </trkpt>
      <trkpt lat="48.90395" lon="6.0562">
        <ele>178.60059</ele>
        <time>2026-05-18T14:21:03+02:00</time>
      </trkpt>
      <trkpt lat="48.90393" lon="6.05617">
        <ele>179.10059</ele>
        <time>2026-05-18T14:21:04+02:00</time>
      </trkpt>
      <trkpt lat="48.90391" lon="6.05613">
        <ele>179.10059</ele>
        <time>2026-05-18T14:21:05+02:00</time>
      </trkpt>
      <trkpt lat="48.90389" lon="6.0561">
        <ele>180.40039</ele>
        <time>2026-05-18T14:21:06+02:00</time>
      </trkpt>
      <trkpt lat="48.90387" lon="6.05607">
        <ele>180.90039</ele>
        <time>2026-05-18T14:21:07+02:00</time>
      </trkpt>
      <trkpt lat="48.90385" lon="6.05604">
        <ele>181.7998</ele>
        <time>2026-05-18T14:21:08+02:00</time>
      </trkpt>
      <trkpt lat="48.90383" lon="6.05601">
        <ele>181.7998</ele>
        <time>2026-05-18T14:21:09+02:00</time>
      </trkpt>
      <trkpt lat="48.90381" lon="6.05599">
        <ele>182.2002</ele>
        <time>2026-05-18T14:21:10+02:00</time>
      </trkpt>
      <trkpt lat="48.9038" lon="6.05597">
        <ele>182.2002</ele>
        <time>2026-05-18T14:21:11+02:00</time>
      </trkpt>
      <trkpt lat="48.90378" lon="6.05595">
        <ele>182.7002</ele>
        <time>2026-05-18T14:21:12+02:00</time>
      </trkpt>
      <trkpt lat="48.90377" lon="6.05592">
        <ele>183</ele>
        <time>2026-05-18T14:21:13+02:00</time>
      </trkpt>
      <trkpt lat="48.90375" lon="6.0559">
        <ele>183</ele>
        <time>2026-05-18T14:21:14+02:00</time>
      </trkpt>
      <trkpt lat="48.90374" lon="6.05587">
        <ele>183.40039</ele>
        <time>2026-05-18T14:21:15+02:00</time>
      </trkpt>
      <trkpt lat="48.90372" lon="6.05584">
        <ele>183.40039</ele>
        <time>2026-05-18T14:21:16+02:00</time>
      </trkpt>
      <trkpt lat="48.9037" lon="6.05582">
        <ele>183.7002</ele>
        <time>2026-05-18T14:21:17+02:00</time>
      </trkpt>
      <trkpt lat="48.90368" lon="6.0558">
        <ele>183.7002</ele>
        <time>2026-05-18T14:21:18+02:00</time>
      </trkpt>
      <trkpt lat="48.90366" lon="6.05577">
        <ele>183.90039</ele>
        <time>2026-05-18T14:21:19+02:00</time>
      </trkpt>
      <trkpt lat="48.90364" lon="6.05575">
        <ele>184.10059</ele>
        <time>2026-05-18T14:21:20+02:00</time>
      </trkpt>
      <trkpt lat="48.90362" lon="6.05572">
        <ele>184.10059</ele>
        <time>2026-05-18T14:21:21+02:00</time>
      </trkpt>
      <trkpt lat="48.90359" lon="6.05569">
        <ele>184.40039</ele>
        <time>2026-05-18T14:21:22+02:00</time>
      </trkpt>
      <trkpt lat="48.90357" lon="6.05567">
        <ele>184.40039</ele>
        <time>2026-05-18T14:21:23+02:00</time>
      </trkpt>
      <trkpt lat="48.90354" lon="6.05566">
        <ele>184.5</ele>
        <time>2026-05-18T14:21:24+02:00</time>
      </trkpt>
      <trkpt lat="48.90351" lon="6.05564">
        <ele>184.5</ele>
        <time>2026-05-18T14:21:25+02:00</time>
      </trkpt>
      <trkpt lat="48.90348" lon="6.05563">
        <ele>184.7002</ele>
        <time>2026-05-18T14:21:26+02:00</time>
      </trkpt>
      <trkpt lat="48.90345" lon="6.05563">
        <ele>184.7002</ele>
        <time>2026-05-18T14:21:27+02:00</time>
      </trkpt>
      <trkpt lat="48.90343" lon="6.05562">
        <ele>184.7998</ele>
        <time>2026-05-18T14:21:28+02:00</time>
      </trkpt>
      <trkpt lat="48.90342" lon="6.05561">
        <ele>184.7998</ele>
        <time>2026-05-18T14:21:29+02:00</time>
      </trkpt>
      <trkpt lat="48.9034" lon="6.0556">
        <ele>184.7998</ele>
        <time>2026-05-18T14:21:30+02:00</time>
      </trkpt>
      <trkpt lat="48.90339" lon="6.05559">
        <ele>184.7998</ele>
        <time>2026-05-18T14:21:31+02:00</time>
      </trkpt>
      <trkpt lat="48.90337" lon="6.05557">
        <ele>184.90039</ele>
        <time>2026-05-18T14:21:32+02:00</time>
      </trkpt>
      <trkpt lat="48.90336" lon="6.05555">
        <ele>184.90039</ele>
        <time>2026-05-18T14:21:33+02:00</time>
      </trkpt>
      <trkpt lat="48.90335" lon="6.05553">
        <ele>184.90039</ele>
        <time>2026-05-18T14:21:34+02:00</time>
      </trkpt>
      <trkpt lat="48.90334" lon="6.05552">
        <ele>184.90039</ele>
        <time>2026-05-18T14:21:35+02:00</time>
      </trkpt>
      <trkpt lat="48.90333" lon="6.05551">
        <ele>184.90039</ele>
        <time>2026-05-18T14:21:36+02:00</time>
      </trkpt>
      <trkpt lat="48.90333" lon="6.05551">
        <ele>184.90039</ele>
        <time>2026-05-18T14:21:37+02:00</time>
      </trkpt>
      <trkpt lat="48.90331" lon="6.05551">
        <ele>185.10059</ele>
        <time>2026-05-18T14:21:38+02:00</time>
      </trkpt>
      <trkpt lat="48.90331" lon="6.05551">
        <ele>185.10059</ele>
        <time>2026-05-18T14:59:42+02:00</time>
      </trkpt>
      <trkpt lat="48.90331" lon="6.05551">
        <ele>185.10059</ele>
        <time>2026-05-18T14:59:43+02:00</time>
      </trkpt>
      <trkpt lat="48.90331" lon="6.05551">
        <ele>185.10059</ele>
        <time>2026-05-18T14:59:44+02:00</time>
      </trkpt>
      <trkpt lat="48.90331" lon="6.05551">
        <ele>185.10059</ele>
        <time>2026-05-18T14:59:45+02:00</time>
      </trkpt>
      <trkpt lat="48.90331" lon="6.05551">
        <ele>185.10059</ele>
        <time>2026-05-18T14:59:46+02:00</time>
      </trkpt>
      <trkpt lat="48.90331" lon="6.05551">
        <ele>185.10059</ele>
        <time>2026-05-18T14:59:47+02:00</time>
      </trkpt>
      <trkpt lat="48.90331" lon="6.05551">
        <ele>185.10059</ele>
        <time>2026-05-18T14:59:48+02:00</time>
      </trkpt>
      <trkpt lat="48.90331" lon="6.05551">
        <ele>185.10059</ele>
        <time>2026-05-18T14:59:49+02:00</time>
      </trkpt>
      <trkpt lat="48.90331" lon="6.05551">
        <ele>185.10059</ele>
        <time>2026-05-18T14:59:50+02:00</time>
      </trkpt>
      <trkpt lat="48.90331" lon="6.05551">
        <ele>185.10059</ele>
        <time>2026-05-18T14:59:51+02:00</time>
      </trkpt>
      <trkpt lat="48.90331" lon="6.05551">
        <ele>185.10059</ele>
        <time>2026-05-18T14:59:52+02:00</time>
      </trkpt>
      <trkpt lat="48.90331" lon="6.05551">
        <ele>185.10059</ele>
        <time>2026-05-18T14:59:53+02:00</time>
      </trkpt>
      <trkpt lat="48.90331" lon="6.05551">
        <ele>185.10059</ele>
        <time>2026-05-18T14:59:54+02:00</time>
      </trkpt>
      <trkpt lat="48.90331" lon="6.05551">
        <ele>185.10059</ele>
        <time>2026-05-18T14:59:55+02:00</time>
      </trkpt>
      <trkpt lat="48.90331" lon="6.05551">
        <ele>185.10059</ele>
        <time>2026-05-18T14:59:56+02:00</time>
      </trkpt>
      <trkpt lat="48.90331" lon="6.05551">
        <ele>185.10059</ele>
        <time>2026-05-18T14:59:57+02:00</time>
      </trkpt>
      <trkpt lat="48.90331" lon="6.05551">
        <ele>185.10059</ele>
        <time>2026-05-18T14:59:58+02:00</time>
      </trkpt>
      <trkpt lat="48.90331" lon="6.05551">
        <ele>185.10059</ele>
        <time>2026-05-18T14:59:59+02:00</time>
      </trkpt>
      <trkpt lat="48.90331" lon="6.05551">
        <ele>185.10059</ele>
        <time>2026-05-18T15:00:00+02:00</time>
      </trkpt>
      <trkpt lat="48.90331" lon="6.05551">
        <ele>185.10059</ele>
        <time>2026-05-18T15:00:01+02:00</time>
      </trkpt>
      <trkpt lat="48.90331" lon="6.05551">
        <ele>185.10059</ele>
        <time>2026-05-18T15:00:02+02:00</time>
      </trkpt>
      <trkpt lat="48.90331" lon="6.05551">
        <ele>185.10059</ele>
        <time>2026-05-18T15:00:03+02:00</time>
      </trkpt>
      <trkpt lat="48.90331" lon="6.05551">
        <ele>185.10059</ele>
        <time>2026-05-18T15:00:04+02:00</time>
      </trkpt>
      <trkpt lat="48.90331" lon="6.05551">
        <ele>185.10059</ele>
        <time>2026-05-18T15:00:05+02:00</time>
      </trkpt>
      <trkpt lat="48.90331" lon="6.05551">
        <ele>185.10059</ele>
        <time>2026-05-18T15:00:06+02:00</time>
      </trkpt>
      <trkpt lat="48.90331" lon="6.05551">
        <ele>185.10059</ele>
        <time>2026-05-18T15:00:07+02:00</time>
      </trkpt>
      <trkpt lat="48.90331" lon="6.05551">
        <ele>185.10059</ele>
        <time>2026-05-18T15:00:08+02:00</time>
      </trkpt>
      <trkpt lat="48.90331" lon="6.05551">
        <ele>185.10059</ele>
        <time>2026-05-18T15:00:09+02:00</time>
      </trkpt>
      <trkpt lat="48.90331" lon="6.05551">
        <ele>185.10059</ele>
        <time>2026-05-18T15:00:10+02:00</time>
      </trkpt>
      <trkpt lat="48.90331" lon="6.05551">
        <ele>185.10059</ele>
        <time>2026-05-18T15:00:11+02:00</time>
      </trkpt>
      <trkpt lat="48.90331" lon="6.05551">
        <ele>185.10059</ele>
        <time>2026-05-18T15:00:12+02:00</time>
      </trkpt>
      <trkpt lat="48.90331" lon="6.05551">
        <ele>185.10059</ele>
        <time>2026-05-18T15:00:13+02:00</time>
      </trkpt>
      <trkpt lat="48.90331" lon="6.05551">
        <ele>185.10059</ele>
        <time>2026-05-18T15:00:14+02:00</time>
      </trkpt>
      <trkpt lat="48.90331" lon="6.05551">
        <ele>185.10059</ele>
        <time>2026-05-18T15:00:15+02:00</time>
      </trkpt>
      <trkpt lat="48.90331" lon="6.05551">
        <ele>185.10059</ele>
        <time>2026-05-18T15:00:16+02:00</time>
      </trkpt>
      <trkpt lat="48.90331" lon="6.05551">
        <ele>185.10059</ele>
        <time>2026-05-18T15:00:17+02:00</time>
      </trkpt>
      <trkpt lat="48.90331" lon="6.05551">
        <ele>185.10059</ele>
        <time>2026-05-18T15:00:18+02:00</time>
      </trkpt>
      <trkpt lat="48.90331" lon="6.05551">
        <ele>185.10059</ele>
        <time>2026-05-18T15:00:19+02:00</time>
      </trkpt>
      <trkpt lat="48.90331" lon="6.05551">
        <ele>185.10059</ele>
        <time>2026-05-18T15:00:20+02:00</time>
      </trkpt>
      <trkpt lat="48.90331" lon="6.05551">
        <ele>185.10059</ele>
        <time>2026-05-18T15:00:21+02:00</time>
      </trkpt>
      <trkpt lat="48.90331" lon="6.05551">
        <ele>185.10059</ele>
        <time>2026-05-18T15:00:22+02:00</time>
      </trkpt>
      <trkpt lat="48.90331" lon="6.05551">
        <ele>185.10059</ele>
        <time>2026-05-18T15:00:23+02:00</time>
      </trkpt>
      <trkpt lat="48.90331" lon="6.05551">
        <ele>185.10059</ele>
        <time>2026-05-18T15:00:24+02:00</time>
      </trkpt>
      <trkpt lat="48.90331" lon="6.05551">
        <ele>185.10059</ele>
        <time>2026-05-18T15:00:25+02:00</time>
      </trkpt>
      <trkpt lat="48.90331" lon="6.05551">
        <ele>185.10059</ele>
        <time>2026-05-18T15:00:26+02:00</time>
      </trkpt>
      <trkpt lat="48.90331" lon="6.05551">
        <ele>185.10059</ele>
        <time>2026-05-18T15:00:27+02:00</time>
      </trkpt>
      <trkpt lat="48.90331" lon="6.05551">
        <ele>185.10059</ele>
        <time>2026-05-18T15:00:28+02:00</time>
      </trkpt>
      <trkpt lat="48.90331" lon="6.05551">
        <ele>185.10059</ele>
        <time>2026-05-18T15:00:29+02:00</time>
      </trkpt>
      <trkpt lat="48.90331" lon="6.05551">
        <ele>185.10059</ele>
        <time>2026-05-18T15:00:30+02:00</time>
      </trkpt>
      <trkpt lat="48.90331" lon="6.05551">
        <ele>185.10059</ele>
        <time>2026-05-18T15:00:31+02:00</time>
      </trkpt>
      <trkpt lat="48.90331" lon="6.05551">
        <ele>185.10059</ele>
        <time>2026-05-18T15:00:32+02:00</time>
      </trkpt>
      <trkpt lat="48.90331" lon="6.05551">
        <ele>185.10059</ele>
        <time>2026-05-18T15:00:33+02:00</time>
      </trkpt>
      <trkpt lat="48.90331" lon="6.05551">
        <ele>185.10059</ele>
        <time>2026-05-18T15:00:34+02:00</time>
      </trkpt>
      <trkpt lat="48.90331" lon="6.05551">
        <ele>185.10059</ele>
        <time>2026-05-18T15:00:35+02:00</time>
      </trkpt>
      <trkpt lat="48.903" lon="6.05554">
        <ele>185.5</ele>
        <time>2026-05-18T15:00:36+02:00</time>
      </trkpt>
      <trkpt lat="48.90299" lon="6.0555">
        <ele>185.40039</ele>
        <time>2026-05-18T15:00:37+02:00</time>
      </trkpt>
      <trkpt lat="48.90299" lon="6.05546">
        <ele>185.40039</ele>
        <time>2026-05-18T15:00:38+02:00</time>
      </trkpt>
      <trkpt lat="48.90298" lon="6.05541">
        <ele>185.40039</ele>
        <time>2026-05-18T15:00:39+02:00</time>
      </trkpt>
      <trkpt lat="48.90297" lon="6.05536">
        <ele>185.40039</ele>
        <time>2026-05-18T15:00:40+02:00</time>
      </trkpt>
      <trkpt lat="48.90296" lon="6.0553">
        <ele>185.40039</ele>
        <time>2026-05-18T15:00:41+02:00</time>
      </trkpt>
      <trkpt lat="48.90295" lon="6.05525">
        <ele>185.40039</ele>
        <time>2026-05-18T15:00:42+02:00</time>
      </trkpt>
      <trkpt lat="48.90293" lon="6.0552">
        <ele>185.40039</ele>
        <time>2026-05-18T15:00:43+02:00</time>
      </trkpt>
      <trkpt lat="48.90289" lon="6.055">
        <ele>185.2002</ele>
        <time>2026-05-18T15:00:46+02:00</time>
      </trkpt>
      <trkpt lat="48.90289" lon="6.05495">
        <ele>185.2002</ele>
        <time>2026-05-18T15:00:47+02:00</time>
      </trkpt>
      <trkpt lat="48.90288" lon="6.05489">
        <ele>185.10059</ele>
        <time>2026-05-18T15:00:48+02:00</time>
      </trkpt>
      <trkpt lat="48.90287" lon="6.05485">
        <ele>185.10059</ele>
        <time>2026-05-18T15:00:49+02:00</time>
      </trkpt>
      <trkpt lat="48.90287" lon="6.05481">
        <ele>185</ele>
        <time>2026-05-18T15:00:50+02:00</time>
      </trkpt>
      <trkpt lat="48.90288" lon="6.05477">
        <ele>185</ele>
        <time>2026-05-18T15:00:51+02:00</time>
      </trkpt>
      <trkpt lat="48.90289" lon="6.05473">
        <ele>184.90039</ele>
        <time>2026-05-18T15:00:52+02:00</time>
      </trkpt>
      <trkpt lat="48.90292" lon="6.0547">
        <ele>184.90039</ele>
        <time>2026-05-18T15:00:53+02:00</time>
      </trkpt>
      <trkpt lat="48.90294" lon="6.05468">
        <ele>184.90039</ele>
        <time>2026-05-18T15:00:54+02:00</time>
      </trkpt>
      <trkpt lat="48.90297" lon="6.05465">
        <ele>184.7998</ele>
        <time>2026-05-18T15:00:55+02:00</time>
      </trkpt>
      <trkpt lat="48.903" lon="6.05462">
        <ele>184.7998</ele>
        <time>2026-05-18T15:00:56+02:00</time>
      </trkpt>
      <trkpt lat="48.90303" lon="6.0546">
        <ele>184.7998</ele>
        <time>2026-05-18T15:00:57+02:00</time>
      </trkpt>
      <trkpt lat="48.90306" lon="6.05457">
        <ele>184.7002</ele>
        <time>2026-05-18T15:00:58+02:00</time>
      </trkpt>
      <trkpt lat="48.90309" lon="6.05454">
        <ele>184.7002</ele>
        <time>2026-05-18T15:00:59+02:00</time>
      </trkpt>
      <trkpt lat="48.90312" lon="6.05451">
        <ele>184.7002</ele>
        <time>2026-05-18T15:01:00+02:00</time>
      </trkpt>
      <trkpt lat="48.90314" lon="6.05448">
        <ele>184.5</ele>
        <time>2026-05-18T15:01:01+02:00</time>
      </trkpt>
      <trkpt lat="48.90317" lon="6.05445">
        <ele>184.5</ele>
        <time>2026-05-18T15:01:02+02:00</time>
      </trkpt>
      <trkpt lat="48.9032" lon="6.05441">
        <ele>184.40039</ele>
        <time>2026-05-18T15:01:03+02:00</time>
      </trkpt>
      <trkpt lat="48.90323" lon="6.05438">
        <ele>184.2998</ele>
        <time>2026-05-18T15:01:04+02:00</time>
      </trkpt>
      <trkpt lat="48.90326" lon="6.05435">
        <ele>184.2998</ele>
        <time>2026-05-18T15:01:05+02:00</time>
      </trkpt>
      <trkpt lat="48.90329" lon="6.05432">
        <ele>184.2002</ele>
        <time>2026-05-18T15:01:06+02:00</time>
      </trkpt>
      <trkpt lat="48.90333" lon="6.05429">
        <ele>184.10059</ele>
        <time>2026-05-18T15:01:07+02:00</time>
      </trkpt>
      <trkpt lat="48.90336" lon="6.05426">
        <ele>184.10059</ele>
        <time>2026-05-18T15:01:08+02:00</time>
      </trkpt>
      <trkpt lat="48.90338" lon="6.05423">
        <ele>184</ele>
        <time>2026-05-18T15:01:09+02:00</time>
      </trkpt>
      <trkpt lat="48.90341" lon="6.05419">
        <ele>184</ele>
        <time>2026-05-18T15:01:10+02:00</time>
      </trkpt>
      <trkpt lat="48.90343" lon="6.05416">
        <ele>184</ele>
        <time>2026-05-18T15:01:11+02:00</time>
      </trkpt>
      <trkpt lat="48.90346" lon="6.05413">
        <ele>183.7998</ele>
        <time>2026-05-18T15:01:12+02:00</time>
      </trkpt>
      <trkpt lat="48.90348" lon="6.0541">
        <ele>183.7998</ele>
        <time>2026-05-18T15:01:13+02:00</time>
      </trkpt>
      <trkpt lat="48.90351" lon="6.05406">
        <ele>183.7002</ele>
        <time>2026-05-18T15:01:14+02:00</time>
      </trkpt>
      <trkpt lat="48.90354" lon="6.05402">
        <ele>183.7002</ele>
        <time>2026-05-18T15:01:15+02:00</time>
      </trkpt>
      <trkpt lat="48.90357" lon="6.05399">
        <ele>183.5</ele>
        <time>2026-05-18T15:01:16+02:00</time>
      </trkpt>
      <trkpt lat="48.9036" lon="6.05395">
        <ele>183.60059</ele>
        <time>2026-05-18T15:01:17+02:00</time>
      </trkpt>
      <trkpt lat="48.90363" lon="6.0539">
        <ele>183.40039</ele>
        <time>2026-05-18T15:01:18+02:00</time>
      </trkpt>
      <trkpt lat="48.90365" lon="6.05388">
        <ele>183.60059</ele>
        <time>2026-05-18T15:01:19+02:00</time>
      </trkpt>
      <trkpt lat="48.90368" lon="6.05384">
        <ele>183.40039</ele>
        <time>2026-05-18T15:01:20+02:00</time>
      </trkpt>
      <trkpt lat="48.90371" lon="6.0538">
        <ele>183.5</ele>
        <time>2026-05-18T15:01:21+02:00</time>
      </trkpt>
      <trkpt lat="48.90375" lon="6.05376">
        <ele>183.2998</ele>
        <time>2026-05-18T15:01:22+02:00</time>
      </trkpt>
      <trkpt lat="48.90378" lon="6.05372">
        <ele>183.2998</ele>
        <time>2026-05-18T15:01:23+02:00</time>
      </trkpt>
      <trkpt lat="48.90382" lon="6.05367">
        <ele>183.2998</ele>
        <time>2026-05-18T15:01:24+02:00</time>
      </trkpt>
      <trkpt lat="48.90385" lon="6.05363">
        <ele>183.2998</ele>
        <time>2026-05-18T15:01:25+02:00</time>
      </trkpt>
      <trkpt lat="48.90389" lon="6.05358">
        <ele>183.10059</ele>
        <time>2026-05-18T15:01:26+02:00</time>
      </trkpt>
      <trkpt lat="48.90393" lon="6.05352">
        <ele>183.2998</ele>
        <time>2026-05-18T15:01:27+02:00</time>
      </trkpt>
      <trkpt lat="48.90396" lon="6.05347">
        <ele>183.10059</ele>
        <time>2026-05-18T15:01:28+02:00</time>
      </trkpt>
      <trkpt lat="48.904" lon="6.05342">
        <ele>183.2002</ele>
        <time>2026-05-18T15:01:29+02:00</time>
      </trkpt>
      <trkpt lat="48.90404" lon="6.05337">
        <ele>183.2998</ele>
        <time>2026-05-18T15:01:30+02:00</time>
      </trkpt>
      <trkpt lat="48.90408" lon="6.05332">
        <ele>183.2002</ele>
        <time>2026-05-18T15:01:31+02:00</time>
      </trkpt>
      <trkpt lat="48.90412" lon="6.05327">
        <ele>183.2002</ele>
        <time>2026-05-18T15:01:32+02:00</time>
      </trkpt>
      <trkpt lat="48.90417" lon="6.05323">
        <ele>183.2002</ele>
        <time>2026-05-18T15:01:33+02:00</time>
      </trkpt>
      <trkpt lat="48.90421" lon="6.05318">
        <ele>183.2998</ele>
        <time>2026-05-18T15:01:34+02:00</time>
      </trkpt>
      <trkpt lat="48.90425" lon="6.05313">
        <ele>183.2002</ele>
        <time>2026-05-18T15:01:35+02:00</time>
      </trkpt>
      <trkpt lat="48.90429" lon="6.05308">
        <ele>183.2002</ele>
        <time>2026-05-18T15:01:36+02:00</time>
      </trkpt>
      <trkpt lat="48.90432" lon="6.05303">
        <ele>183.2002</ele>
        <time>2026-05-18T15:01:37+02:00</time>
      </trkpt>
      <trkpt lat="48.90435" lon="6.05298">
        <ele>183.2002</ele>
        <time>2026-05-18T15:01:38+02:00</time>
      </trkpt>
      <trkpt lat="48.90439" lon="6.05294">
        <ele>183.2002</ele>
        <time>2026-05-18T15:01:39+02:00</time>
      </trkpt>
      <trkpt lat="48.90442" lon="6.0529">
        <ele>183.2002</ele>
        <time>2026-05-18T15:01:40+02:00</time>
      </trkpt>
      <trkpt lat="48.90446" lon="6.05285">
        <ele>183.2002</ele>
        <time>2026-05-18T15:01:41+02:00</time>
      </trkpt>
      <trkpt lat="48.90449" lon="6.05281">
        <ele>183.2002</ele>
        <time>2026-05-18T15:01:42+02:00</time>
      </trkpt>
      <trkpt lat="48.90452" lon="6.05278">
        <ele>183.2002</ele>
        <time>2026-05-18T15:01:43+02:00</time>
      </trkpt>
      <trkpt lat="48.90456" lon="6.05273">
        <ele>183.2002</ele>
        <time>2026-05-18T15:01:44+02:00</time>
      </trkpt>
      <trkpt lat="48.9046" lon="6.05269">
        <ele>183.2002</ele>
        <time>2026-05-18T15:01:45+02:00</time>
      </trkpt>
      <trkpt lat="48.90464" lon="6.05265">
        <ele>183.2002</ele>
        <time>2026-05-18T15:01:46+02:00</time>
      </trkpt>
      <trkpt lat="48.90468" lon="6.0526">
        <ele>183.2002</ele>
        <time>2026-05-18T15:01:47+02:00</time>
      </trkpt>
      <trkpt lat="48.90471" lon="6.05256">
        <ele>183.2002</ele>
        <time>2026-05-18T15:01:48+02:00</time>
      </trkpt>
      <trkpt lat="48.90476" lon="6.05252">
        <ele>183.2002</ele>
        <time>2026-05-18T15:01:49+02:00</time>
      </trkpt>
      <trkpt lat="48.90479" lon="6.05248">
        <ele>183.2002</ele>
        <time>2026-05-18T15:01:50+02:00</time>
      </trkpt>
      <trkpt lat="48.90483" lon="6.05244">
        <ele>183.2002</ele>
        <time>2026-05-18T15:01:51+02:00</time>
      </trkpt>
      <trkpt lat="48.90487" lon="6.0524">
        <ele>183.2002</ele>
        <time>2026-05-18T15:01:52+02:00</time>
      </trkpt>
      <trkpt lat="48.90491" lon="6.05236">
        <ele>183.10059</ele>
        <time>2026-05-18T15:01:53+02:00</time>
      </trkpt>
      <trkpt lat="48.90494" lon="6.05232">
        <ele>183.10059</ele>
        <time>2026-05-18T15:01:54+02:00</time>
      </trkpt>
      <trkpt lat="48.90497" lon="6.05228">
        <ele>183.10059</ele>
        <time>2026-05-18T15:01:55+02:00</time>
      </trkpt>
      <trkpt lat="48.90501" lon="6.05223">
        <ele>183.10059</ele>
        <time>2026-05-18T15:01:56+02:00</time>
      </trkpt>
      <trkpt lat="48.90505" lon="6.05218">
        <ele>183</ele>
        <time>2026-05-18T15:01:57+02:00</time>
      </trkpt>
      <trkpt lat="48.90508" lon="6.05213">
        <ele>182.90039</ele>
        <time>2026-05-18T15:01:58+02:00</time>
      </trkpt>
      <trkpt lat="48.90511" lon="6.05208">
        <ele>182.90039</ele>
        <time>2026-05-18T15:01:59+02:00</time>
      </trkpt>
      <trkpt lat="48.90514" lon="6.05203">
        <ele>182.7998</ele>
        <time>2026-05-18T15:02:00+02:00</time>
      </trkpt>
      <trkpt lat="48.90518" lon="6.05197">
        <ele>182.7998</ele>
        <time>2026-05-18T15:02:01+02:00</time>
      </trkpt>
      <trkpt lat="48.90522" lon="6.05191">
        <ele>182.7002</ele>
        <time>2026-05-18T15:02:02+02:00</time>
      </trkpt>
      <trkpt lat="48.90524" lon="6.05185">
        <ele>182.60059</ele>
        <time>2026-05-18T15:02:03+02:00</time>
      </trkpt>
      <trkpt lat="48.90528" lon="6.05179">
        <ele>182.60059</ele>
        <time>2026-05-18T15:02:04+02:00</time>
      </trkpt>
      <trkpt lat="48.90532" lon="6.05174">
        <ele>182.40039</ele>
        <time>2026-05-18T15:02:05+02:00</time>
      </trkpt>
      <trkpt lat="48.90535" lon="6.05169">
        <ele>182.40039</ele>
        <time>2026-05-18T15:02:06+02:00</time>
      </trkpt>
      <trkpt lat="48.9054" lon="6.05164">
        <ele>182.2998</ele>
        <time>2026-05-18T15:02:07+02:00</time>
      </trkpt>
      <trkpt lat="48.90544" lon="6.05159">
        <ele>182.2002</ele>
        <time>2026-05-18T15:02:08+02:00</time>
      </trkpt>
      <trkpt lat="48.90548" lon="6.05155">
        <ele>182.10059</ele>
        <time>2026-05-18T15:02:09+02:00</time>
      </trkpt>
      <trkpt lat="48.90553" lon="6.05151">
        <ele>182</ele>
        <time>2026-05-18T15:02:10+02:00</time>
      </trkpt>
      <trkpt lat="48.90557" lon="6.05147">
        <ele>182</ele>
        <time>2026-05-18T15:02:11+02:00</time>
      </trkpt>
      <trkpt lat="48.90561" lon="6.05143">
        <ele>182</ele>
        <time>2026-05-18T15:02:12+02:00</time>
      </trkpt>
      <trkpt lat="48.90564" lon="6.05139">
        <ele>182</ele>
        <time>2026-05-18T15:02:13+02:00</time>
      </trkpt>
      <trkpt lat="48.90568" lon="6.05136">
        <ele>182</ele>
        <time>2026-05-18T15:02:14+02:00</time>
      </trkpt>
      <trkpt lat="48.90571" lon="6.05132">
        <ele>182</ele>
        <time>2026-05-18T15:02:15+02:00</time>
      </trkpt>
      <trkpt lat="48.90575" lon="6.05129">
        <ele>181.90039</ele>
        <time>2026-05-18T15:02:16+02:00</time>
      </trkpt>
      <trkpt lat="48.90579" lon="6.05126">
        <ele>181.90039</ele>
        <time>2026-05-18T15:02:17+02:00</time>
      </trkpt>
      <trkpt lat="48.90582" lon="6.05122">
        <ele>181.90039</ele>
        <time>2026-05-18T15:02:18+02:00</time>
      </trkpt>
      <trkpt lat="48.90586" lon="6.05119">
        <ele>181.90039</ele>
        <time>2026-05-18T15:02:19+02:00</time>
      </trkpt>
      <trkpt lat="48.9059" lon="6.05115">
        <ele>181.90039</ele>
        <time>2026-05-18T15:02:20+02:00</time>
      </trkpt>
      <trkpt lat="48.90594" lon="6.05111">
        <ele>181.7998</ele>
        <time>2026-05-18T15:02:21+02:00</time>
      </trkpt>
      <trkpt lat="48.90597" lon="6.05107">
        <ele>181.7998</ele>
        <time>2026-05-18T15:02:22+02:00</time>
      </trkpt>
      <trkpt lat="48.90601" lon="6.05104">
        <ele>181.90039</ele>
        <time>2026-05-18T15:02:23+02:00</time>
      </trkpt>
      <trkpt lat="48.90605" lon="6.05101">
        <ele>181.7998</ele>
        <time>2026-05-18T15:02:24+02:00</time>
      </trkpt>
      <trkpt lat="48.90609" lon="6.05098">
        <ele>181.7998</ele>
        <time>2026-05-18T15:02:25+02:00</time>
      </trkpt>
      <trkpt lat="48.90614" lon="6.05095">
        <ele>181.90039</ele>
        <time>2026-05-18T15:02:26+02:00</time>
      </trkpt>
      <trkpt lat="48.90618" lon="6.05091">
        <ele>181.90039</ele>
        <time>2026-05-18T15:02:27+02:00</time>
      </trkpt>
      <trkpt lat="48.90622" lon="6.05087">
        <ele>182</ele>
        <time>2026-05-18T15:02:28+02:00</time>
      </trkpt>
      <trkpt lat="48.90626" lon="6.05083">
        <ele>181.90039</ele>
        <time>2026-05-18T15:02:29+02:00</time>
      </trkpt>
      <trkpt lat="48.9063" lon="6.05079">
        <ele>182</ele>
        <time>2026-05-18T15:02:30+02:00</time>
      </trkpt>
      <trkpt lat="48.90635" lon="6.05075">
        <ele>181.90039</ele>
        <time>2026-05-18T15:02:31+02:00</time>
      </trkpt>
      <trkpt lat="48.90639" lon="6.05071">
        <ele>182</ele>
        <time>2026-05-18T15:02:32+02:00</time>
      </trkpt>
      <trkpt lat="48.90644" lon="6.05068">
        <ele>181.90039</ele>
        <time>2026-05-18T15:02:33+02:00</time>
      </trkpt>
      <trkpt lat="48.90648" lon="6.05064">
        <ele>181.90039</ele>
        <time>2026-05-18T15:02:34+02:00</time>
      </trkpt>
      <trkpt lat="48.90653" lon="6.0506">
        <ele>182</ele>
        <time>2026-05-18T15:02:35+02:00</time>
      </trkpt>
      <trkpt lat="48.90658" lon="6.05056">
        <ele>182</ele>
        <time>2026-05-18T15:02:36+02:00</time>
      </trkpt>
      <trkpt lat="48.90662" lon="6.05052">
        <ele>182.2002</ele>
        <time>2026-05-18T15:02:37+02:00</time>
      </trkpt>
      <trkpt lat="48.90666" lon="6.05047">
        <ele>182.2002</ele>
        <time>2026-05-18T15:02:38+02:00</time>
      </trkpt>
      <trkpt lat="48.9067" lon="6.05043">
        <ele>182.40039</ele>
        <time>2026-05-18T15:02:39+02:00</time>
      </trkpt>
      <trkpt lat="48.90674" lon="6.05039">
        <ele>182.2998</ele>
        <time>2026-05-18T15:02:40+02:00</time>
      </trkpt>
      <trkpt lat="48.90679" lon="6.05035">
        <ele>182.5</ele>
        <time>2026-05-18T15:02:41+02:00</time>
      </trkpt>
      <trkpt lat="48.90683" lon="6.05033">
        <ele>182.40039</ele>
        <time>2026-05-18T15:02:42+02:00</time>
      </trkpt>
      <trkpt lat="48.90688" lon="6.0503">
        <ele>182.2998</ele>
        <time>2026-05-18T15:02:43+02:00</time>
      </trkpt>
      <trkpt lat="48.90692" lon="6.05027">
        <ele>182.40039</ele>
        <time>2026-05-18T15:02:44+02:00</time>
      </trkpt>
      <trkpt lat="48.90695" lon="6.05024">
        <ele>182.2998</ele>
        <time>2026-05-18T15:02:45+02:00</time>
      </trkpt>
      <trkpt lat="48.907" lon="6.05021">
        <ele>182.2002</ele>
        <time>2026-05-18T15:02:46+02:00</time>
      </trkpt>
      <trkpt lat="48.90704" lon="6.05019">
        <ele>182.2998</ele>
        <time>2026-05-18T15:02:47+02:00</time>
      </trkpt>
      <trkpt lat="48.90708" lon="6.05016">
        <ele>182.2002</ele>
        <time>2026-05-18T15:02:48+02:00</time>
      </trkpt>
      <trkpt lat="48.90711" lon="6.05014">
        <ele>182</ele>
        <time>2026-05-18T15:02:49+02:00</time>
      </trkpt>
      <trkpt lat="48.90716" lon="6.05011">
        <ele>181.90039</ele>
        <time>2026-05-18T15:02:50+02:00</time>
      </trkpt>
      <trkpt lat="48.9072" lon="6.05008">
        <ele>181.90039</ele>
        <time>2026-05-18T15:02:51+02:00</time>
      </trkpt>
      <trkpt lat="48.90724" lon="6.05005">
        <ele>181.7998</ele>
        <time>2026-05-18T15:02:52+02:00</time>
      </trkpt>
      <trkpt lat="48.90727" lon="6.05003">
        <ele>181.7998</ele>
        <time>2026-05-18T15:02:53+02:00</time>
      </trkpt>
      <trkpt lat="48.90731" lon="6.05">
        <ele>181.7002</ele>
        <time>2026-05-18T15:02:54+02:00</time>
      </trkpt>
      <trkpt lat="48.90735" lon="6.04997">
        <ele>181.60059</ele>
        <time>2026-05-18T15:02:55+02:00</time>
      </trkpt>
      <trkpt lat="48.90738" lon="6.04993">
        <ele>181.60059</ele>
        <time>2026-05-18T15:02:56+02:00</time>
      </trkpt>
      <trkpt lat="48.90742" lon="6.04989">
        <ele>181.5</ele>
        <time>2026-05-18T15:02:57+02:00</time>
      </trkpt>
      <trkpt lat="48.90746" lon="6.04988">
        <ele>181.5</ele>
        <time>2026-05-18T15:02:58+02:00</time>
      </trkpt>
      <trkpt lat="48.90751" lon="6.04989">
        <ele>181.40039</ele>
        <time>2026-05-18T15:02:59+02:00</time>
      </trkpt>
      <trkpt lat="48.90754" lon="6.04992">
        <ele>181.40039</ele>
        <time>2026-05-18T15:03:00+02:00</time>
      </trkpt>
      <trkpt lat="48.90758" lon="6.04997">
        <ele>181.40039</ele>
        <time>2026-05-18T15:03:01+02:00</time>
      </trkpt>
      <trkpt lat="48.90761" lon="6.05003">
        <ele>181.40039</ele>
        <time>2026-05-18T15:03:02+02:00</time>
      </trkpt>
      <trkpt lat="48.90765" lon="6.05009">
        <ele>181.40039</ele>
        <time>2026-05-18T15:03:03+02:00</time>
      </trkpt>
      <trkpt lat="48.90769" lon="6.05015">
        <ele>181.2998</ele>
        <time>2026-05-18T15:03:04+02:00</time>
      </trkpt>
      <trkpt lat="48.90772" lon="6.05021">
        <ele>181.2998</ele>
        <time>2026-05-18T15:03:05+02:00</time>
      </trkpt>
      <trkpt lat="48.90776" lon="6.05027">
        <ele>181.2998</ele>
        <time>2026-05-18T15:03:06+02:00</time>
      </trkpt>
      <trkpt lat="48.9078" lon="6.05033">
        <ele>181.2002</ele>
        <time>2026-05-18T15:03:07+02:00</time>
      </trkpt>
      <trkpt lat="48.90783" lon="6.05038">
        <ele>181.10059</ele>
        <time>2026-05-18T15:03:08+02:00</time>
      </trkpt>
      <trkpt lat="48.90787" lon="6.05044">
        <ele>181.10059</ele>
        <time>2026-05-18T15:03:09+02:00</time>
      </trkpt>
      <trkpt lat="48.90791" lon="6.0505">
        <ele>181</ele>
        <time>2026-05-18T15:03:10+02:00</time>
      </trkpt>
      <trkpt lat="48.90795" lon="6.05056">
        <ele>180.90039</ele>
        <time>2026-05-18T15:03:11+02:00</time>
      </trkpt>
      <trkpt lat="48.90798" lon="6.05062">
        <ele>180.90039</ele>
        <time>2026-05-18T15:03:12+02:00</time>
      </trkpt>
      <trkpt lat="48.90802" lon="6.05068">
        <ele>180.7998</ele>
        <time>2026-05-18T15:03:13+02:00</time>
      </trkpt>
      <trkpt lat="48.90806" lon="6.05074">
        <ele>180.7002</ele>
        <time>2026-05-18T15:03:14+02:00</time>
      </trkpt>
      <trkpt lat="48.90819" lon="6.05095">
        <ele>180.40039</ele>
        <time>2026-05-18T15:03:15+02:00</time>
      </trkpt>
      <trkpt lat="48.90823" lon="6.05099">
        <ele>180.2998</ele>
        <time>2026-05-18T15:03:16+02:00</time>
      </trkpt>
      <trkpt lat="48.90826" lon="6.05103">
        <ele>180.2998</ele>
        <time>2026-05-18T15:03:17+02:00</time>
      </trkpt>
      <trkpt lat="48.90828" lon="6.05107">
        <ele>180.2998</ele>
        <time>2026-05-18T15:03:18+02:00</time>
      </trkpt>
      <trkpt lat="48.9083" lon="6.05111">
        <ele>180.10059</ele>
        <time>2026-05-18T15:03:19+02:00</time>
      </trkpt>
      <trkpt lat="48.90831" lon="6.05114">
        <ele>180.10059</ele>
        <time>2026-05-18T15:03:20+02:00</time>
      </trkpt>
      <trkpt lat="48.90833" lon="6.05116">
        <ele>180</ele>
        <time>2026-05-18T15:03:21+02:00</time>
      </trkpt>
      <trkpt lat="48.90835" lon="6.05116">
        <ele>179.7002</ele>
        <time>2026-05-18T15:03:22+02:00</time>
      </trkpt>
      <trkpt lat="48.90838" lon="6.05115">
        <ele>179.7002</ele>
        <time>2026-05-18T15:03:23+02:00</time>
      </trkpt>
      <trkpt lat="48.90841" lon="6.05112">
        <ele>179.60059</ele>
        <time>2026-05-18T15:03:24+02:00</time>
      </trkpt>
      <trkpt lat="48.90843" lon="6.0511">
        <ele>179.60059</ele>
        <time>2026-05-18T15:03:25+02:00</time>
      </trkpt>
      <trkpt lat="48.90846" lon="6.05106">
        <ele>179.60059</ele>
        <time>2026-05-18T15:03:26+02:00</time>
      </trkpt>
      <trkpt lat="48.90849" lon="6.05103">
        <ele>179.60059</ele>
        <time>2026-05-18T15:03:27+02:00</time>
      </trkpt>
      <trkpt lat="48.90851" lon="6.05099">
        <ele>179.60059</ele>
        <time>2026-05-18T15:03:28+02:00</time>
      </trkpt>
      <trkpt lat="48.90853" lon="6.05095">
        <ele>179.60059</ele>
        <time>2026-05-18T15:03:29+02:00</time>
      </trkpt>
      <trkpt lat="48.90856" lon="6.05091">
        <ele>179.60059</ele>
        <time>2026-05-18T15:03:30+02:00</time>
      </trkpt>
      <trkpt lat="48.90859" lon="6.05088">
        <ele>179.60059</ele>
        <time>2026-05-18T15:03:31+02:00</time>
      </trkpt>
      <trkpt lat="48.90861" lon="6.05086">
        <ele>179.60059</ele>
        <time>2026-05-18T15:03:32+02:00</time>
      </trkpt>
      <trkpt lat="48.90864" lon="6.05084">
        <ele>179.5</ele>
        <time>2026-05-18T15:03:33+02:00</time>
      </trkpt>
      <trkpt lat="48.90867" lon="6.05085">
        <ele>179.5</ele>
        <time>2026-05-18T15:03:34+02:00</time>
      </trkpt>
      <trkpt lat="48.9087" lon="6.05088">
        <ele>179.2998</ele>
        <time>2026-05-18T15:03:35+02:00</time>
      </trkpt>
      <trkpt lat="48.90872" lon="6.05092">
        <ele>179</ele>
        <time>2026-05-18T15:03:36+02:00</time>
      </trkpt>
      <trkpt lat="48.90873" lon="6.05095">
        <ele>179</ele>
        <time>2026-05-18T15:03:37+02:00</time>
      </trkpt>
      <trkpt lat="48.90875" lon="6.05099">
        <ele>178.5</ele>
        <time>2026-05-18T15:03:38+02:00</time>
      </trkpt>
      <trkpt lat="48.90877" lon="6.05102">
        <ele>178.5</ele>
        <time>2026-05-18T15:03:39+02:00</time>
      </trkpt>
      <trkpt lat="48.9088" lon="6.05104">
        <ele>178.2002</ele>
        <time>2026-05-18T15:03:40+02:00</time>
      </trkpt>
      <trkpt lat="48.90884" lon="6.05106">
        <ele>178.2002</ele>
        <time>2026-05-18T15:03:41+02:00</time>
      </trkpt>
      <trkpt lat="48.90888" lon="6.05106">
        <ele>177.90039</ele>
        <time>2026-05-18T15:03:42+02:00</time>
      </trkpt>
      <trkpt lat="48.90892" lon="6.05104">
        <ele>177.60059</ele>
        <time>2026-05-18T15:03:43+02:00</time>
      </trkpt>
      <trkpt lat="48.90896" lon="6.051">
        <ele>177.60059</ele>
        <time>2026-05-18T15:03:44+02:00</time>
      </trkpt>
      <trkpt lat="48.909" lon="6.05096">
        <ele>177.90039</ele>
        <time>2026-05-18T15:03:45+02:00</time>
      </trkpt>
      <trkpt lat="48.90904" lon="6.05091">
        <ele>177.7998</ele>
        <time>2026-05-18T15:03:46+02:00</time>
      </trkpt>
      <trkpt lat="48.90908" lon="6.05087">
        <ele>178.10059</ele>
        <time>2026-05-18T15:03:47+02:00</time>
      </trkpt>
      <trkpt lat="48.90912" lon="6.05082">
        <ele>178.10059</ele>
        <time>2026-05-18T15:03:48+02:00</time>
      </trkpt>
      <trkpt lat="48.90916" lon="6.05077">
        <ele>178.2998</ele>
        <time>2026-05-18T15:03:49+02:00</time>
      </trkpt>
      <trkpt lat="48.9092" lon="6.05072">
        <ele>178.10059</ele>
        <time>2026-05-18T15:03:50+02:00</time>
      </trkpt>
      <trkpt lat="48.90924" lon="6.05068">
        <ele>178.40039</ele>
        <time>2026-05-18T15:03:51+02:00</time>
      </trkpt>
      <trkpt lat="48.90928" lon="6.05063">
        <ele>178.40039</ele>
        <time>2026-05-18T15:03:52+02:00</time>
      </trkpt>
      <trkpt lat="48.90932" lon="6.05059">
        <ele>178.10059</ele>
        <time>2026-05-18T15:03:53+02:00</time>
      </trkpt>
      <trkpt lat="48.90936" lon="6.05054">
        <ele>178.2002</ele>
        <time>2026-05-18T15:03:54+02:00</time>
      </trkpt>
      <trkpt lat="48.90941" lon="6.05049">
        <ele>178.2002</ele>
        <time>2026-05-18T15:03:55+02:00</time>
      </trkpt>
      <trkpt lat="48.90945" lon="6.05044">
        <ele>178.2998</ele>
        <time>2026-05-18T15:03:56+02:00</time>
      </trkpt>
      <trkpt lat="48.90949" lon="6.05039">
        <ele>177.7998</ele>
        <time>2026-05-18T15:03:57+02:00</time>
      </trkpt>
      <trkpt lat="48.90954" lon="6.05035">
        <ele>177.60059</ele>
        <time>2026-05-18T15:03:58+02:00</time>
      </trkpt>
      <trkpt lat="48.90958" lon="6.0503">
        <ele>177.60059</ele>
        <time>2026-05-18T15:03:59+02:00</time>
      </trkpt>
      <trkpt lat="48.90962" lon="6.05024">
        <ele>177.90039</ele>
        <time>2026-05-18T15:04:00+02:00</time>
      </trkpt>
      <trkpt lat="48.90967" lon="6.0502">
        <ele>178.40039</ele>
        <time>2026-05-18T15:04:01+02:00</time>
      </trkpt>
      <trkpt lat="48.90971" lon="6.05015">
        <ele>178.2002</ele>
        <time>2026-05-18T15:04:02+02:00</time>
      </trkpt>
      <trkpt lat="48.90975" lon="6.0501">
        <ele>178.60059</ele>
        <time>2026-05-18T15:04:03+02:00</time>
      </trkpt>
      <trkpt lat="48.9098" lon="6.05005">
        <ele>178.60059</ele>
        <time>2026-05-18T15:04:04+02:00</time>
      </trkpt>
      <trkpt lat="48.90984" lon="6.05">
        <ele>178.7002</ele>
        <time>2026-05-18T15:04:05+02:00</time>
      </trkpt>
      <trkpt lat="48.90988" lon="6.04995">
        <ele>178.2998</ele>
        <time>2026-05-18T15:04:06+02:00</time>
      </trkpt>
      <trkpt lat="48.90992" lon="6.0499">
        <ele>178.7998</ele>
        <time>2026-05-18T15:04:07+02:00</time>
      </trkpt>
      <trkpt lat="48.90997" lon="6.04985">
        <ele>179</ele>
        <time>2026-05-18T15:04:08+02:00</time>
      </trkpt>
      <trkpt lat="48.91001" lon="6.0498">
        <ele>178.60059</ele>
        <time>2026-05-18T15:04:09+02:00</time>
      </trkpt>
      <trkpt lat="48.91006" lon="6.04975">
        <ele>178.90039</ele>
        <time>2026-05-18T15:04:10+02:00</time>
      </trkpt>
      <trkpt lat="48.9101" lon="6.0497">
        <ele>178.2998</ele>
        <time>2026-05-18T15:04:11+02:00</time>
      </trkpt>
      <trkpt lat="48.91015" lon="6.04965">
        <ele>178</ele>
        <time>2026-05-18T15:04:12+02:00</time>
      </trkpt>
      <trkpt lat="48.91019" lon="6.0496">
        <ele>178.60059</ele>
        <time>2026-05-18T15:04:13+02:00</time>
      </trkpt>
      <trkpt lat="48.91023" lon="6.04955">
        <ele>178</ele>
        <time>2026-05-18T15:04:14+02:00</time>
      </trkpt>
      <trkpt lat="48.91028" lon="6.0495">
        <ele>178.7998</ele>
        <time>2026-05-18T15:04:15+02:00</time>
      </trkpt>
      <trkpt lat="48.91032" lon="6.04945">
        <ele>178.60059</ele>
        <time>2026-05-18T15:04:16+02:00</time>
      </trkpt>
      <trkpt lat="48.91036" lon="6.0494">
        <ele>179.60059</ele>
        <time>2026-05-18T15:04:17+02:00</time>
      </trkpt>
      <trkpt lat="48.91041" lon="6.04935">
        <ele>179.2998</ele>
        <time>2026-05-18T15:04:18+02:00</time>
      </trkpt>
      <trkpt lat="48.91045" lon="6.0493">
        <ele>179.60059</ele>
        <time>2026-05-18T15:04:19+02:00</time>
      </trkpt>
      <trkpt lat="48.91049" lon="6.04925">
        <ele>179.7002</ele>
        <time>2026-05-18T15:04:20+02:00</time>
      </trkpt>
      <trkpt lat="48.91054" lon="6.0492">
        <ele>179.7002</ele>
        <time>2026-05-18T15:04:21+02:00</time>
      </trkpt>
      <trkpt lat="48.91058" lon="6.04915">
        <ele>179.7998</ele>
        <time>2026-05-18T15:04:22+02:00</time>
      </trkpt>
      <trkpt lat="48.91063" lon="6.0491">
        <ele>179.10059</ele>
        <time>2026-05-18T15:04:23+02:00</time>
      </trkpt>
      <trkpt lat="48.91067" lon="6.04905">
        <ele>179.5</ele>
        <time>2026-05-18T15:04:24+02:00</time>
      </trkpt>
      <trkpt lat="48.91071" lon="6.049">
        <ele>180.40039</ele>
        <time>2026-05-18T15:04:25+02:00</time>
      </trkpt>
      <trkpt lat="48.91076" lon="6.04895">
        <ele>179.60059</ele>
        <time>2026-05-18T15:04:26+02:00</time>
      </trkpt>
      <trkpt lat="48.9108" lon="6.0489">
        <ele>179.10059</ele>
        <time>2026-05-18T15:04:27+02:00</time>
      </trkpt>
      <trkpt lat="48.91084" lon="6.04886">
        <ele>178.10059</ele>
        <time>2026-05-18T15:04:28+02:00</time>
      </trkpt>
      <trkpt lat="48.91088" lon="6.04881">
        <ele>178.7002</ele>
        <time>2026-05-18T15:04:29+02:00</time>
      </trkpt>
      <trkpt lat="48.91092" lon="6.04876">
        <ele>178.7002</ele>
        <time>2026-05-18T15:04:30+02:00</time>
      </trkpt>
      <trkpt lat="48.91097" lon="6.04872">
        <ele>179.7002</ele>
        <time>2026-05-18T15:04:31+02:00</time>
      </trkpt>
      <trkpt lat="48.91101" lon="6.04867">
        <ele>179.2998</ele>
        <time>2026-05-18T15:04:32+02:00</time>
      </trkpt>
      <trkpt lat="48.91105" lon="6.04862">
        <ele>180.5</ele>
        <time>2026-05-18T15:04:33+02:00</time>
      </trkpt>
      <trkpt lat="48.9111" lon="6.04857">
        <ele>180.7002</ele>
        <time>2026-05-18T15:04:34+02:00</time>
      </trkpt>
      <trkpt lat="48.91115" lon="6.04853">
        <ele>180</ele>
        <time>2026-05-18T15:04:35+02:00</time>
      </trkpt>
      <trkpt lat="48.91119" lon="6.04848">
        <ele>179.90039</ele>
        <time>2026-05-18T15:04:36+02:00</time>
      </trkpt>
      <trkpt lat="48.91123" lon="6.04843">
        <ele>179.10059</ele>
        <time>2026-05-18T15:04:37+02:00</time>
      </trkpt>
      <trkpt lat="48.91128" lon="6.04838">
        <ele>179.5</ele>
        <time>2026-05-18T15:04:38+02:00</time>
      </trkpt>
      <trkpt lat="48.91132" lon="6.04833">
        <ele>179.5</ele>
        <time>2026-05-18T15:04:39+02:00</time>
      </trkpt>
      <trkpt lat="48.91137" lon="6.04828">
        <ele>180.10059</ele>
        <time>2026-05-18T15:04:40+02:00</time>
      </trkpt>
      <trkpt lat="48.91141" lon="6.04823">
        <ele>180.40039</ele>
        <time>2026-05-18T15:04:41+02:00</time>
      </trkpt>
      <trkpt lat="48.91146" lon="6.04818">
        <ele>179.90039</ele>
        <time>2026-05-18T15:04:42+02:00</time>
      </trkpt>
      <trkpt lat="48.9115" lon="6.04813">
        <ele>180.5</ele>
        <time>2026-05-18T15:04:43+02:00</time>
      </trkpt>
      <trkpt lat="48.91155" lon="6.04808">
        <ele>180</ele>
        <time>2026-05-18T15:04:44+02:00</time>
      </trkpt>
      <trkpt lat="48.91159" lon="6.04803">
        <ele>180.10059</ele>
        <time>2026-05-18T15:04:45+02:00</time>
      </trkpt>
      <trkpt lat="48.91164" lon="6.04798">
        <ele>179.5</ele>
        <time>2026-05-18T15:04:46+02:00</time>
      </trkpt>
      <trkpt lat="48.91169" lon="6.04793">
        <ele>179.7002</ele>
        <time>2026-05-18T15:04:47+02:00</time>
      </trkpt>
      <trkpt lat="48.91173" lon="6.04787">
        <ele>179.90039</ele>
        <time>2026-05-18T15:04:48+02:00</time>
      </trkpt>
      <trkpt lat="48.91178" lon="6.04782">
        <ele>179.90039</ele>
        <time>2026-05-18T15:04:49+02:00</time>
      </trkpt>
      <trkpt lat="48.91183" lon="6.04777">
        <ele>179.7002</ele>
        <time>2026-05-18T15:04:50+02:00</time>
      </trkpt>
      <trkpt lat="48.91187" lon="6.04771">
        <ele>179.7002</ele>
        <time>2026-05-18T15:04:51+02:00</time>
      </trkpt>
      <trkpt lat="48.91192" lon="6.04766">
        <ele>179</ele>
        <time>2026-05-18T15:04:52+02:00</time>
      </trkpt>
      <trkpt lat="48.91197" lon="6.0476">
        <ele>179.7002</ele>
        <time>2026-05-18T15:04:53+02:00</time>
      </trkpt>
      <trkpt lat="48.91202" lon="6.04754">
        <ele>180.2998</ele>
        <time>2026-05-18T15:04:54+02:00</time>
      </trkpt>
      <trkpt lat="48.91206" lon="6.04749">
        <ele>180.2998</ele>
        <time>2026-05-18T15:04:55+02:00</time>
      </trkpt>
      <trkpt lat="48.91211" lon="6.04743">
        <ele>180.40039</ele>
        <time>2026-05-18T15:04:56+02:00</time>
      </trkpt>
      <trkpt lat="48.91215" lon="6.04738">
        <ele>179.90039</ele>
        <time>2026-05-18T15:04:57+02:00</time>
      </trkpt>
      <trkpt lat="48.9122" lon="6.04732">
        <ele>179.90039</ele>
        <time>2026-05-18T15:04:58+02:00</time>
      </trkpt>
      <trkpt lat="48.91225" lon="6.04727">
        <ele>179.90039</ele>
        <time>2026-05-18T15:04:59+02:00</time>
      </trkpt>
      <trkpt lat="48.91229" lon="6.04722">
        <ele>179.90039</ele>
        <time>2026-05-18T15:05:00+02:00</time>
      </trkpt>
      <trkpt lat="48.91234" lon="6.04717">
        <ele>179.90039</ele>
        <time>2026-05-18T15:05:01+02:00</time>
      </trkpt>
      <trkpt lat="48.91239" lon="6.04711">
        <ele>179.7998</ele>
        <time>2026-05-18T15:05:02+02:00</time>
      </trkpt>
      <trkpt lat="48.91244" lon="6.04706">
        <ele>179.2998</ele>
        <time>2026-05-18T15:05:03+02:00</time>
      </trkpt>
      <trkpt lat="48.91249" lon="6.04701">
        <ele>178.90039</ele>
        <time>2026-05-18T15:05:04+02:00</time>
      </trkpt>
      <trkpt lat="48.91254" lon="6.04696">
        <ele>178.2998</ele>
        <time>2026-05-18T15:05:05+02:00</time>
      </trkpt>
      <trkpt lat="48.91259" lon="6.04691">
        <ele>178.2998</ele>
        <time>2026-05-18T15:05:06+02:00</time>
      </trkpt>
      <trkpt lat="48.91263" lon="6.04685">
        <ele>178.90039</ele>
        <time>2026-05-18T15:05:07+02:00</time>
      </trkpt>
      <trkpt lat="48.91268" lon="6.0468">
        <ele>178.60059</ele>
        <time>2026-05-18T15:05:08+02:00</time>
      </trkpt>
      <trkpt lat="48.91273" lon="6.04674">
        <ele>178.7998</ele>
        <time>2026-05-18T15:05:09+02:00</time>
      </trkpt>
      <trkpt lat="48.91277" lon="6.04669">
        <ele>178.60059</ele>
        <time>2026-05-18T15:05:10+02:00</time>
      </trkpt>
      <trkpt lat="48.91282" lon="6.04664">
        <ele>178.60059</ele>
        <time>2026-05-18T15:05:11+02:00</time>
      </trkpt>
      <trkpt lat="48.91287" lon="6.04658">
        <ele>178.60059</ele>
        <time>2026-05-18T15:05:12+02:00</time>
      </trkpt>
      <trkpt lat="48.91292" lon="6.04653">
        <ele>178.2998</ele>
        <time>2026-05-18T15:05:13+02:00</time>
      </trkpt>
      <trkpt lat="48.91296" lon="6.04648">
        <ele>178.60059</ele>
        <time>2026-05-18T15:05:14+02:00</time>
      </trkpt>
      <trkpt lat="48.91301" lon="6.04643">
        <ele>178.40039</ele>
        <time>2026-05-18T15:05:15+02:00</time>
      </trkpt>
      <trkpt lat="48.91305" lon="6.04637">
        <ele>178.40039</ele>
        <time>2026-05-18T15:05:16+02:00</time>
      </trkpt>
      <trkpt lat="48.9131" lon="6.04632">
        <ele>178.2998</ele>
        <time>2026-05-18T15:05:17+02:00</time>
      </trkpt>
      <trkpt lat="48.91314" lon="6.04627">
        <ele>177.90039</ele>
        <time>2026-05-18T15:05:18+02:00</time>
      </trkpt>
      <trkpt lat="48.91319" lon="6.04621">
        <ele>178.2998</ele>
        <time>2026-05-18T15:05:19+02:00</time>
      </trkpt>
      <trkpt lat="48.91324" lon="6.04616">
        <ele>178.40039</ele>
        <time>2026-05-18T15:05:20+02:00</time>
      </trkpt>
      <trkpt lat="48.91329" lon="6.04611">
        <ele>178.10059</ele>
        <time>2026-05-18T15:05:21+02:00</time>
      </trkpt>
      <trkpt lat="48.91333" lon="6.04606">
        <ele>178.40039</ele>
        <time>2026-05-18T15:05:22+02:00</time>
      </trkpt>
      <trkpt lat="48.91338" lon="6.046">
        <ele>178.2002</ele>
        <time>2026-05-18T15:05:23+02:00</time>
      </trkpt>
      <trkpt lat="48.91342" lon="6.04595">
        <ele>178.2998</ele>
        <time>2026-05-18T15:05:24+02:00</time>
      </trkpt>
      <trkpt lat="48.91347" lon="6.0459">
        <ele>178.60059</ele>
        <time>2026-05-18T15:05:25+02:00</time>
      </trkpt>
      <trkpt lat="48.91352" lon="6.04585">
        <ele>178.2998</ele>
        <time>2026-05-18T15:05:26+02:00</time>
      </trkpt>
      <trkpt lat="48.91357" lon="6.04579">
        <ele>178.2998</ele>
        <time>2026-05-18T15:05:27+02:00</time>
      </trkpt>
      <trkpt lat="48.91362" lon="6.04574">
        <ele>178.2998</ele>
        <time>2026-05-18T15:05:28+02:00</time>
      </trkpt>
      <trkpt lat="48.91366" lon="6.04569">
        <ele>178.10059</ele>
        <time>2026-05-18T15:05:29+02:00</time>
      </trkpt>
      <trkpt lat="48.91371" lon="6.04564">
        <ele>178.10059</ele>
        <time>2026-05-18T15:05:30+02:00</time>
      </trkpt>
      <trkpt lat="48.91375" lon="6.04559">
        <ele>178.10059</ele>
        <time>2026-05-18T15:05:31+02:00</time>
      </trkpt>
      <trkpt lat="48.9138" lon="6.04553">
        <ele>178</ele>
        <time>2026-05-18T15:05:32+02:00</time>
      </trkpt>
      <trkpt lat="48.91385" lon="6.04549">
        <ele>177.7002</ele>
        <time>2026-05-18T15:05:33+02:00</time>
      </trkpt>
      <trkpt lat="48.9139" lon="6.04543">
        <ele>177.7002</ele>
        <time>2026-05-18T15:05:34+02:00</time>
      </trkpt>
      <trkpt lat="48.91395" lon="6.04538">
        <ele>177.7998</ele>
        <time>2026-05-18T15:05:35+02:00</time>
      </trkpt>
      <trkpt lat="48.914" lon="6.04533">
        <ele>177.60059</ele>
        <time>2026-05-18T15:05:36+02:00</time>
      </trkpt>
      <trkpt lat="48.91404" lon="6.04527">
        <ele>177.7002</ele>
        <time>2026-05-18T15:05:37+02:00</time>
      </trkpt>
      <trkpt lat="48.91408" lon="6.04522">
        <ele>177.7998</ele>
        <time>2026-05-18T15:05:38+02:00</time>
      </trkpt>
      <trkpt lat="48.91413" lon="6.04516">
        <ele>177.7002</ele>
        <time>2026-05-18T15:05:39+02:00</time>
      </trkpt>
      <trkpt lat="48.91417" lon="6.04511">
        <ele>177.60059</ele>
        <time>2026-05-18T15:05:40+02:00</time>
      </trkpt>
      <trkpt lat="48.91422" lon="6.04505">
        <ele>177.60059</ele>
        <time>2026-05-18T15:05:41+02:00</time>
      </trkpt>
      <trkpt lat="48.91427" lon="6.045">
        <ele>177.5</ele>
        <time>2026-05-18T15:05:42+02:00</time>
      </trkpt>
      <trkpt lat="48.91432" lon="6.04495">
        <ele>177.5</ele>
        <time>2026-05-18T15:05:43+02:00</time>
      </trkpt>
      <trkpt lat="48.91436" lon="6.04489">
        <ele>177.5</ele>
        <time>2026-05-18T15:05:44+02:00</time>
      </trkpt>
      <trkpt lat="48.91441" lon="6.04484">
        <ele>177.5</ele>
        <time>2026-05-18T15:05:45+02:00</time>
      </trkpt>
      <trkpt lat="48.91446" lon="6.04479">
        <ele>177.5</ele>
        <time>2026-05-18T15:05:46+02:00</time>
      </trkpt>
      <trkpt lat="48.9145" lon="6.04474">
        <ele>177.40039</ele>
        <time>2026-05-18T15:05:47+02:00</time>
      </trkpt>
      <trkpt lat="48.91455" lon="6.04469">
        <ele>177.5</ele>
        <time>2026-05-18T15:05:48+02:00</time>
      </trkpt>
      <trkpt lat="48.91459" lon="6.04464">
        <ele>177.5</ele>
        <time>2026-05-18T15:05:49+02:00</time>
      </trkpt>
      <trkpt lat="48.91464" lon="6.04459">
        <ele>177.5</ele>
        <time>2026-05-18T15:05:50+02:00</time>
      </trkpt>
      <trkpt lat="48.91469" lon="6.04455">
        <ele>177.40039</ele>
        <time>2026-05-18T15:05:51+02:00</time>
      </trkpt>
      <trkpt lat="48.91474" lon="6.0445">
        <ele>177.2998</ele>
        <time>2026-05-18T15:05:52+02:00</time>
      </trkpt>
      <trkpt lat="48.91479" lon="6.04445">
        <ele>177.40039</ele>
        <time>2026-05-18T15:05:53+02:00</time>
      </trkpt>
      <trkpt lat="48.91483" lon="6.0444">
        <ele>177.40039</ele>
        <time>2026-05-18T15:05:54+02:00</time>
      </trkpt>
      <trkpt lat="48.91488" lon="6.04435">
        <ele>177.7998</ele>
        <time>2026-05-18T15:05:55+02:00</time>
      </trkpt>
      <trkpt lat="48.91493" lon="6.0443">
        <ele>177.7002</ele>
        <time>2026-05-18T15:05:56+02:00</time>
      </trkpt>
      <trkpt lat="48.91498" lon="6.04425">
        <ele>178</ele>
        <time>2026-05-18T15:05:57+02:00</time>
      </trkpt>
      <trkpt lat="48.91503" lon="6.0442">
        <ele>177.90039</ele>
        <time>2026-05-18T15:05:58+02:00</time>
      </trkpt>
      <trkpt lat="48.91508" lon="6.04416">
        <ele>177.90039</ele>
        <time>2026-05-18T15:05:59+02:00</time>
      </trkpt>
      <trkpt lat="48.91513" lon="6.04411">
        <ele>177.7998</ele>
        <time>2026-05-18T15:06:00+02:00</time>
      </trkpt>
      <trkpt lat="48.91518" lon="6.04406">
        <ele>177.5</ele>
        <time>2026-05-18T15:06:01+02:00</time>
      </trkpt>
      <trkpt lat="48.91523" lon="6.04402">
        <ele>177.7002</ele>
        <time>2026-05-18T15:06:02+02:00</time>
      </trkpt>
      <trkpt lat="48.91528" lon="6.04397">
        <ele>177.7002</ele>
        <time>2026-05-18T15:06:03+02:00</time>
      </trkpt>
      <trkpt lat="48.91533" lon="6.04393">
        <ele>177.7998</ele>
        <time>2026-05-18T15:06:04+02:00</time>
      </trkpt>
      <trkpt lat="48.91538" lon="6.04388">
        <ele>177.40039</ele>
        <time>2026-05-18T15:06:05+02:00</time>
      </trkpt>
      <trkpt lat="48.91543" lon="6.04384">
        <ele>177.2998</ele>
        <time>2026-05-18T15:06:06+02:00</time>
      </trkpt>
      <trkpt lat="48.91548" lon="6.04379">
        <ele>177.2002</ele>
        <time>2026-05-18T15:06:07+02:00</time>
      </trkpt>
      <trkpt lat="48.91553" lon="6.04375">
        <ele>177.2998</ele>
        <time>2026-05-18T15:06:08+02:00</time>
      </trkpt>
      <trkpt lat="48.91558" lon="6.04371">
        <ele>177.2998</ele>
        <time>2026-05-18T15:06:09+02:00</time>
      </trkpt>
      <trkpt lat="48.91563" lon="6.04366">
        <ele>177.5</ele>
        <time>2026-05-18T15:06:10+02:00</time>
      </trkpt>
      <trkpt lat="48.91568" lon="6.04362">
        <ele>177.40039</ele>
        <time>2026-05-18T15:06:11+02:00</time>
      </trkpt>
      <trkpt lat="48.91573" lon="6.04358">
        <ele>177.60059</ele>
        <time>2026-05-18T15:06:12+02:00</time>
      </trkpt>
      <trkpt lat="48.91578" lon="6.04354">
        <ele>177.40039</ele>
        <time>2026-05-18T15:06:13+02:00</time>
      </trkpt>
      <trkpt lat="48.91584" lon="6.0435">
        <ele>177.2998</ele>
        <time>2026-05-18T15:06:14+02:00</time>
      </trkpt>
      <trkpt lat="48.91588" lon="6.04346">
        <ele>177.2002</ele>
        <time>2026-05-18T15:06:15+02:00</time>
      </trkpt>
      <trkpt lat="48.91593" lon="6.04342">
        <ele>177.2002</ele>
        <time>2026-05-18T15:06:16+02:00</time>
      </trkpt>
      <trkpt lat="48.91598" lon="6.04338">
        <ele>177.2002</ele>
        <time>2026-05-18T15:06:17+02:00</time>
      </trkpt>
      <trkpt lat="48.91603" lon="6.04334">
        <ele>177.2002</ele>
        <time>2026-05-18T15:06:18+02:00</time>
      </trkpt>
      <trkpt lat="48.91608" lon="6.0433">
        <ele>177.2998</ele>
        <time>2026-05-18T15:06:19+02:00</time>
      </trkpt>
      <trkpt lat="48.91614" lon="6.04326">
        <ele>177.2998</ele>
        <time>2026-05-18T15:06:20+02:00</time>
      </trkpt>
      <trkpt lat="48.91618" lon="6.04322">
        <ele>177.5</ele>
        <time>2026-05-18T15:06:21+02:00</time>
      </trkpt>
      <trkpt lat="48.91624" lon="6.04318">
        <ele>177.5</ele>
        <time>2026-05-18T15:06:22+02:00</time>
      </trkpt>
      <trkpt lat="48.91629" lon="6.04314">
        <ele>177.60059</ele>
        <time>2026-05-18T15:06:23+02:00</time>
      </trkpt>
      <trkpt lat="48.91635" lon="6.0431">
        <ele>177.5</ele>
        <time>2026-05-18T15:06:24+02:00</time>
      </trkpt>
      <trkpt lat="48.9164" lon="6.04306">
        <ele>177.60059</ele>
        <time>2026-05-18T15:06:25+02:00</time>
      </trkpt>
      <trkpt lat="48.91645" lon="6.04302">
        <ele>177.40039</ele>
        <time>2026-05-18T15:06:26+02:00</time>
      </trkpt>
      <trkpt lat="48.9165" lon="6.04298">
        <ele>177.5</ele>
        <time>2026-05-18T15:06:27+02:00</time>
      </trkpt>
      <trkpt lat="48.91655" lon="6.04294">
        <ele>177.40039</ele>
        <time>2026-05-18T15:06:28+02:00</time>
      </trkpt>
      <trkpt lat="48.9166" lon="6.0429">
        <ele>177.60059</ele>
        <time>2026-05-18T15:06:29+02:00</time>
      </trkpt>
      <trkpt lat="48.91665" lon="6.04286">
        <ele>177.5</ele>
        <time>2026-05-18T15:06:30+02:00</time>
      </trkpt>
      <trkpt lat="48.9167" lon="6.04283">
        <ele>177.40039</ele>
        <time>2026-05-18T15:06:31+02:00</time>
      </trkpt>
      <trkpt lat="48.91675" lon="6.04279">
        <ele>177.5</ele>
        <time>2026-05-18T15:06:32+02:00</time>
      </trkpt>
      <trkpt lat="48.9168" lon="6.04275">
        <ele>177.5</ele>
        <time>2026-05-18T15:06:33+02:00</time>
      </trkpt>
      <trkpt lat="48.91685" lon="6.04272">
        <ele>177.2998</ele>
        <time>2026-05-18T15:06:34+02:00</time>
      </trkpt>
      <trkpt lat="48.91691" lon="6.04269">
        <ele>176.7998</ele>
        <time>2026-05-18T15:06:35+02:00</time>
      </trkpt>
      <trkpt lat="48.91696" lon="6.04266">
        <ele>176.40039</ele>
        <time>2026-05-18T15:06:36+02:00</time>
      </trkpt>
      <trkpt lat="48.917" lon="6.04263">
        <ele>176.40039</ele>
        <time>2026-05-18T15:06:37+02:00</time>
      </trkpt>
      <trkpt lat="48.91704" lon="6.0426">
        <ele>176.2998</ele>
        <time>2026-05-18T15:06:38+02:00</time>
      </trkpt>
      <trkpt lat="48.91709" lon="6.04257">
        <ele>176.2998</ele>
        <time>2026-05-18T15:06:39+02:00</time>
      </trkpt>
      <trkpt lat="48.91713" lon="6.04254">
        <ele>176.60059</ele>
        <time>2026-05-18T15:06:40+02:00</time>
      </trkpt>
      <trkpt lat="48.91718" lon="6.04251">
        <ele>176.5</ele>
        <time>2026-05-18T15:06:41+02:00</time>
      </trkpt>
      <trkpt lat="48.91723" lon="6.04248">
        <ele>176.7998</ele>
        <time>2026-05-18T15:06:42+02:00</time>
      </trkpt>
      <trkpt lat="48.91728" lon="6.04246">
        <ele>176.5</ele>
        <time>2026-05-18T15:06:43+02:00</time>
      </trkpt>
      <trkpt lat="48.91733" lon="6.04243">
        <ele>176.2998</ele>
        <time>2026-05-18T15:06:44+02:00</time>
      </trkpt>
      <trkpt lat="48.91737" lon="6.04241">
        <ele>176.10059</ele>
        <time>2026-05-18T15:06:45+02:00</time>
      </trkpt>
      <trkpt lat="48.91741" lon="6.0424">
        <ele>176.10059</ele>
        <time>2026-05-18T15:06:46+02:00</time>
      </trkpt>
      <trkpt lat="48.91745" lon="6.04239">
        <ele>176</ele>
        <time>2026-05-18T15:06:47+02:00</time>
      </trkpt>
      <trkpt lat="48.9175" lon="6.04237">
        <ele>176</ele>
        <time>2026-05-18T15:06:48+02:00</time>
      </trkpt>
      <trkpt lat="48.91755" lon="6.04236">
        <ele>176</ele>
        <time>2026-05-18T15:06:49+02:00</time>
      </trkpt>
      <trkpt lat="48.91759" lon="6.04235">
        <ele>176</ele>
        <time>2026-05-18T15:06:50+02:00</time>
      </trkpt>
      <trkpt lat="48.91764" lon="6.04232">
        <ele>176</ele>
        <time>2026-05-18T15:06:51+02:00</time>
      </trkpt>
      <trkpt lat="48.91769" lon="6.04229">
        <ele>176.2002</ele>
        <time>2026-05-18T15:06:52+02:00</time>
      </trkpt>
      <trkpt lat="48.91774" lon="6.04226">
        <ele>176.2002</ele>
        <time>2026-05-18T15:06:53+02:00</time>
      </trkpt>
      <trkpt lat="48.91778" lon="6.04223">
        <ele>176.10059</ele>
        <time>2026-05-18T15:06:54+02:00</time>
      </trkpt>
      <trkpt lat="48.91783" lon="6.0422">
        <ele>176.2998</ele>
        <time>2026-05-18T15:06:55+02:00</time>
      </trkpt>
      <trkpt lat="48.91788" lon="6.04218">
        <ele>176.2998</ele>
        <time>2026-05-18T15:06:56+02:00</time>
      </trkpt>
      <trkpt lat="48.91792" lon="6.04216">
        <ele>176.2998</ele>
        <time>2026-05-18T15:06:57+02:00</time>
      </trkpt>
      <trkpt lat="48.91797" lon="6.04212">
        <ele>176.5</ele>
        <time>2026-05-18T15:06:58+02:00</time>
      </trkpt>
      <trkpt lat="48.918" lon="6.04209">
        <ele>176.2002</ele>
        <time>2026-05-18T15:06:59+02:00</time>
      </trkpt>
      <trkpt lat="48.91803" lon="6.04206">
        <ele>176.2002</ele>
        <time>2026-05-18T15:07:00+02:00</time>
      </trkpt>
      <trkpt lat="48.91804" lon="6.04203">
        <ele>176.2998</ele>
        <time>2026-05-18T15:07:01+02:00</time>
      </trkpt>
      <trkpt lat="48.91805" lon="6.04199">
        <ele>176</ele>
        <time>2026-05-18T15:07:02+02:00</time>
      </trkpt>
      <trkpt lat="48.91805" lon="6.04196">
        <ele>176.10059</ele>
        <time>2026-05-18T15:07:03+02:00</time>
      </trkpt>
      <trkpt lat="48.91805" lon="6.04192">
        <ele>176.10059</ele>
        <time>2026-05-18T15:07:04+02:00</time>
      </trkpt>
      <trkpt lat="48.91805" lon="6.04187">
        <ele>176.40039</ele>
        <time>2026-05-18T15:07:05+02:00</time>
      </trkpt>
      <trkpt lat="48.91804" lon="6.04183">
        <ele>176.90039</ele>
        <time>2026-05-18T15:07:06+02:00</time>
      </trkpt>
      <trkpt lat="48.91803" lon="6.04177">
        <ele>177.60059</ele>
        <time>2026-05-18T15:07:07+02:00</time>
      </trkpt>
      <trkpt lat="48.91802" lon="6.04172">
        <ele>177.60059</ele>
        <time>2026-05-18T15:07:08+02:00</time>
      </trkpt>
      <trkpt lat="48.91802" lon="6.04167">
        <ele>178.60059</ele>
        <time>2026-05-18T15:07:09+02:00</time>
      </trkpt>
      <trkpt lat="48.91801" lon="6.0416">
        <ele>179.60059</ele>
        <time>2026-05-18T15:07:10+02:00</time>
      </trkpt>
      <trkpt lat="48.918" lon="6.04154">
        <ele>179.60059</ele>
        <time>2026-05-18T15:07:11+02:00</time>
      </trkpt>
      <trkpt lat="48.91798" lon="6.04147">
        <ele>180.5</ele>
        <time>2026-05-18T15:07:12+02:00</time>
      </trkpt>
      <trkpt lat="48.91797" lon="6.04139">
        <ele>181</ele>
        <time>2026-05-18T15:07:13+02:00</time>
      </trkpt>
      <trkpt lat="48.91795" lon="6.04131">
        <ele>181.5</ele>
        <time>2026-05-18T15:07:14+02:00</time>
      </trkpt>
      <trkpt lat="48.91794" lon="6.04122">
        <ele>181.7998</ele>
        <time>2026-05-18T15:07:15+02:00</time>
      </trkpt>
      <trkpt lat="48.91793" lon="6.04114">
        <ele>182</ele>
        <time>2026-05-18T15:07:16+02:00</time>
      </trkpt>
      <trkpt lat="48.91792" lon="6.04107">
        <ele>182.10059</ele>
        <time>2026-05-18T15:07:17+02:00</time>
      </trkpt>
      <trkpt lat="48.91791" lon="6.04099">
        <ele>182.10059</ele>
        <time>2026-05-18T15:07:18+02:00</time>
      </trkpt>
      <trkpt lat="48.91789" lon="6.04091">
        <ele>182</ele>
        <time>2026-05-18T15:07:19+02:00</time>
      </trkpt>
      <trkpt lat="48.91788" lon="6.04083">
        <ele>182</ele>
        <time>2026-05-18T15:07:20+02:00</time>
      </trkpt>
      <trkpt lat="48.91787" lon="6.04075">
        <ele>181.90039</ele>
        <time>2026-05-18T15:07:21+02:00</time>
      </trkpt>
      <trkpt lat="48.91787" lon="6.04068">
        <ele>181.90039</ele>
        <time>2026-05-18T15:07:22+02:00</time>
      </trkpt>
      <trkpt lat="48.91787" lon="6.04062">
        <ele>181.7998</ele>
        <time>2026-05-18T15:07:23+02:00</time>
      </trkpt>
      <trkpt lat="48.91789" lon="6.04057">
        <ele>181.7998</ele>
        <time>2026-05-18T15:07:24+02:00</time>
      </trkpt>
      <trkpt lat="48.91792" lon="6.04056">
        <ele>181.7998</ele>
        <time>2026-05-18T15:07:25+02:00</time>
      </trkpt>
      <trkpt lat="48.91794" lon="6.04055">
        <ele>181.7998</ele>
        <time>2026-05-18T15:07:26+02:00</time>
      </trkpt>
      <trkpt lat="48.91797" lon="6.04052">
        <ele>181.7998</ele>
        <time>2026-05-18T15:07:27+02:00</time>
      </trkpt>
      <trkpt lat="48.918" lon="6.0405">
        <ele>181.7002</ele>
        <time>2026-05-18T15:07:28+02:00</time>
      </trkpt>
      <trkpt lat="48.91803" lon="6.04046">
        <ele>181.7002</ele>
        <time>2026-05-18T15:07:29+02:00</time>
      </trkpt>
      <trkpt lat="48.91807" lon="6.04043">
        <ele>181.7002</ele>
        <time>2026-05-18T15:07:30+02:00</time>
      </trkpt>
      <trkpt lat="48.9181" lon="6.0404">
        <ele>181.5</ele>
        <time>2026-05-18T15:07:31+02:00</time>
      </trkpt>
      <trkpt lat="48.91814" lon="6.04036">
        <ele>181.60059</ele>
        <time>2026-05-18T15:07:32+02:00</time>
      </trkpt>
      <trkpt lat="48.91817" lon="6.04033">
        <ele>181.40039</ele>
        <time>2026-05-18T15:07:33+02:00</time>
      </trkpt>
      <trkpt lat="48.91821" lon="6.04029">
        <ele>181.40039</ele>
        <time>2026-05-18T15:07:34+02:00</time>
      </trkpt>
      <trkpt lat="48.91825" lon="6.04025">
        <ele>181.5</ele>
        <time>2026-05-18T15:07:35+02:00</time>
      </trkpt>
      <trkpt lat="48.91829" lon="6.04021">
        <ele>181.40039</ele>
        <time>2026-05-18T15:07:36+02:00</time>
      </trkpt>
      <trkpt lat="48.91832" lon="6.04017">
        <ele>181.40039</ele>
        <time>2026-05-18T15:07:37+02:00</time>
      </trkpt>
      <trkpt lat="48.91836" lon="6.04012">
        <ele>181.2998</ele>
        <time>2026-05-18T15:07:38+02:00</time>
      </trkpt>
      <trkpt lat="48.9184" lon="6.04008">
        <ele>181.2998</ele>
        <time>2026-05-18T15:07:39+02:00</time>
      </trkpt>
      <trkpt lat="48.91845" lon="6.04005">
        <ele>181.2002</ele>
        <time>2026-05-18T15:07:40+02:00</time>
      </trkpt>
      <trkpt lat="48.9185" lon="6.04003">
        <ele>181.2002</ele>
        <time>2026-05-18T15:07:41+02:00</time>
      </trkpt>
      <trkpt lat="48.91855" lon="6.04001">
        <ele>181.2002</ele>
        <time>2026-05-18T15:07:42+02:00</time>
      </trkpt>
      <trkpt lat="48.9186" lon="6.03999">
        <ele>181.10059</ele>
        <time>2026-05-18T15:07:43+02:00</time>
      </trkpt>
      <trkpt lat="48.91865" lon="6.03997">
        <ele>181.10059</ele>
        <time>2026-05-18T15:07:44+02:00</time>
      </trkpt>
      <trkpt lat="48.91869" lon="6.03996">
        <ele>181.10059</ele>
        <time>2026-05-18T15:07:45+02:00</time>
      </trkpt>
      <trkpt lat="48.91874" lon="6.03995">
        <ele>181.10059</ele>
        <time>2026-05-18T15:07:46+02:00</time>
      </trkpt>
      <trkpt lat="48.91879" lon="6.03993">
        <ele>181</ele>
        <time>2026-05-18T15:07:47+02:00</time>
      </trkpt>
      <trkpt lat="48.91885" lon="6.03993">
        <ele>181</ele>
        <time>2026-05-18T15:07:48+02:00</time>
      </trkpt>
      <trkpt lat="48.9189" lon="6.03992">
        <ele>180.90039</ele>
        <time>2026-05-18T15:07:49+02:00</time>
      </trkpt>
      <trkpt lat="48.91895" lon="6.03992">
        <ele>180.90039</ele>
        <time>2026-05-18T15:07:50+02:00</time>
      </trkpt>
      <trkpt lat="48.919" lon="6.03991">
        <ele>180.90039</ele>
        <time>2026-05-18T15:07:51+02:00</time>
      </trkpt>
      <trkpt lat="48.91905" lon="6.03991">
        <ele>180.7998</ele>
        <time>2026-05-18T15:07:52+02:00</time>
      </trkpt>
      <trkpt lat="48.9191" lon="6.03992">
        <ele>180.7002</ele>
        <time>2026-05-18T15:07:53+02:00</time>
      </trkpt>
      <trkpt lat="48.91915" lon="6.03994">
        <ele>180.60059</ele>
        <time>2026-05-18T15:07:54+02:00</time>
      </trkpt>
      <trkpt lat="48.91919" lon="6.03995">
        <ele>180.60059</ele>
        <time>2026-05-18T15:07:55+02:00</time>
      </trkpt>
      <trkpt lat="48.91924" lon="6.03995">
        <ele>180.5</ele>
        <time>2026-05-18T15:07:56+02:00</time>
      </trkpt>
      <trkpt lat="48.91929" lon="6.03995">
        <ele>180.40039</ele>
        <time>2026-05-18T15:07:57+02:00</time>
      </trkpt>
      <trkpt lat="48.91934" lon="6.03994">
        <ele>180.40039</ele>
        <time>2026-05-18T15:07:58+02:00</time>
      </trkpt>
      <trkpt lat="48.91938" lon="6.03994">
        <ele>180.2002</ele>
        <time>2026-05-18T15:07:59+02:00</time>
      </trkpt>
      <trkpt lat="48.91943" lon="6.03993">
        <ele>180.10059</ele>
        <time>2026-05-18T15:08:00+02:00</time>
      </trkpt>
      <trkpt lat="48.91948" lon="6.03993">
        <ele>179.90039</ele>
        <time>2026-05-18T15:08:01+02:00</time>
      </trkpt>
      <trkpt lat="48.91953" lon="6.03993">
        <ele>179.7002</ele>
        <time>2026-05-18T15:08:02+02:00</time>
      </trkpt>
      <trkpt lat="48.91958" lon="6.03992">
        <ele>179.5</ele>
        <time>2026-05-18T15:08:03+02:00</time>
      </trkpt>
      <trkpt lat="48.91963" lon="6.03992">
        <ele>179.2998</ele>
        <time>2026-05-18T15:08:04+02:00</time>
      </trkpt>
      <trkpt lat="48.91968" lon="6.03991">
        <ele>179.2002</ele>
        <time>2026-05-18T15:08:05+02:00</time>
      </trkpt>
      <trkpt lat="48.91973" lon="6.0399">
        <ele>179.2002</ele>
        <time>2026-05-18T15:08:06+02:00</time>
      </trkpt>
      <trkpt lat="48.91979" lon="6.03991">
        <ele>179</ele>
        <time>2026-05-18T15:08:07+02:00</time>
      </trkpt>
      <trkpt lat="48.91985" lon="6.03992">
        <ele>178.90039</ele>
        <time>2026-05-18T15:08:08+02:00</time>
      </trkpt>
      <trkpt lat="48.9199" lon="6.03993">
        <ele>178.90039</ele>
        <time>2026-05-18T15:08:09+02:00</time>
      </trkpt>
      <trkpt lat="48.91996" lon="6.03993">
        <ele>178.7998</ele>
        <time>2026-05-18T15:08:10+02:00</time>
      </trkpt>
      <trkpt lat="48.92001" lon="6.03992">
        <ele>178.90039</ele>
        <time>2026-05-18T15:08:11+02:00</time>
      </trkpt>
      <trkpt lat="48.92007" lon="6.03992">
        <ele>178.90039</ele>
        <time>2026-05-18T15:08:12+02:00</time>
      </trkpt>
      <trkpt lat="48.92012" lon="6.03991">
        <ele>179</ele>
        <time>2026-05-18T15:08:13+02:00</time>
      </trkpt>
      <trkpt lat="48.92017" lon="6.0399">
        <ele>179.2002</ele>
        <time>2026-05-18T15:08:14+02:00</time>
      </trkpt>
      <trkpt lat="48.92022" lon="6.0399">
        <ele>179.2998</ele>
        <time>2026-05-18T15:08:15+02:00</time>
      </trkpt>
      <trkpt lat="48.92027" lon="6.03989">
        <ele>179.40039</ele>
        <time>2026-05-18T15:08:16+02:00</time>
      </trkpt>
      <trkpt lat="48.92032" lon="6.03989">
        <ele>179.60059</ele>
        <time>2026-05-18T15:08:17+02:00</time>
      </trkpt>
      <trkpt lat="48.92037" lon="6.03989">
        <ele>179.7002</ele>
        <time>2026-05-18T15:08:18+02:00</time>
      </trkpt>
      <trkpt lat="48.92042" lon="6.03989">
        <ele>179.90039</ele>
        <time>2026-05-18T15:08:19+02:00</time>
      </trkpt>
      <trkpt lat="48.92047" lon="6.03988">
        <ele>180.10059</ele>
        <time>2026-05-18T15:08:20+02:00</time>
      </trkpt>
      <trkpt lat="48.92052" lon="6.03988">
        <ele>180.10059</ele>
        <time>2026-05-18T15:08:21+02:00</time>
      </trkpt>
      <trkpt lat="48.92057" lon="6.03988">
        <ele>180.2998</ele>
        <time>2026-05-18T15:08:22+02:00</time>
      </trkpt>
      <trkpt lat="48.92062" lon="6.03987">
        <ele>180.5</ele>
        <time>2026-05-18T15:08:23+02:00</time>
      </trkpt>
      <trkpt lat="48.92066" lon="6.03987">
        <ele>180.60059</ele>
        <time>2026-05-18T15:08:24+02:00</time>
      </trkpt>
      <trkpt lat="48.92071" lon="6.03986">
        <ele>180.7002</ele>
        <time>2026-05-18T15:08:25+02:00</time>
      </trkpt>
      <trkpt lat="48.92075" lon="6.03986">
        <ele>180.7002</ele>
        <time>2026-05-18T15:08:26+02:00</time>
      </trkpt>
      <trkpt lat="48.9208" lon="6.03986">
        <ele>180.60059</ele>
        <time>2026-05-18T15:08:27+02:00</time>
      </trkpt>
      <trkpt lat="48.92085" lon="6.03985">
        <ele>180.40039</ele>
        <time>2026-05-18T15:08:28+02:00</time>
      </trkpt>
      <trkpt lat="48.92089" lon="6.03985">
        <ele>180.2002</ele>
        <time>2026-05-18T15:08:29+02:00</time>
      </trkpt>
      <trkpt lat="48.92095" lon="6.03985">
        <ele>180.10059</ele>
        <time>2026-05-18T15:08:30+02:00</time>
      </trkpt>
      <trkpt lat="48.921" lon="6.03984">
        <ele>180</ele>
        <time>2026-05-18T15:08:31+02:00</time>
      </trkpt>
      <trkpt lat="48.92105" lon="6.03984">
        <ele>179.7998</ele>
        <time>2026-05-18T15:08:32+02:00</time>
      </trkpt>
      <trkpt lat="48.9211" lon="6.03983">
        <ele>179.7002</ele>
        <time>2026-05-18T15:08:33+02:00</time>
      </trkpt>
      <trkpt lat="48.92116" lon="6.03983">
        <ele>179.60059</ele>
        <time>2026-05-18T15:08:34+02:00</time>
      </trkpt>
      <trkpt lat="48.92121" lon="6.03982">
        <ele>179.40039</ele>
        <time>2026-05-18T15:08:35+02:00</time>
      </trkpt>
      <trkpt lat="48.92127" lon="6.03982">
        <ele>179.2998</ele>
        <time>2026-05-18T15:08:36+02:00</time>
      </trkpt>
      <trkpt lat="48.92131" lon="6.03984">
        <ele>179.2998</ele>
        <time>2026-05-18T15:08:37+02:00</time>
      </trkpt>
      <trkpt lat="48.92136" lon="6.03986">
        <ele>179.10059</ele>
        <time>2026-05-18T15:08:38+02:00</time>
      </trkpt>
      <trkpt lat="48.9214" lon="6.0399">
        <ele>179</ele>
        <time>2026-05-18T15:08:39+02:00</time>
      </trkpt>
      <trkpt lat="48.92144" lon="6.03996">
        <ele>178.2998</ele>
        <time>2026-05-18T15:08:40+02:00</time>
      </trkpt>
      <trkpt lat="48.92146" lon="6.04002">
        <ele>177.7002</ele>
        <time>2026-05-18T15:08:41+02:00</time>
      </trkpt>
      <trkpt lat="48.92148" lon="6.04007">
        <ele>177.7002</ele>
        <time>2026-05-18T15:08:42+02:00</time>
      </trkpt>
      <trkpt lat="48.92151" lon="6.04013">
        <ele>177</ele>
        <time>2026-05-18T15:08:43+02:00</time>
      </trkpt>
      <trkpt lat="48.92154" lon="6.04017">
        <ele>176.40039</ele>
        <time>2026-05-18T15:08:44+02:00</time>
      </trkpt>
      <trkpt lat="48.92157" lon="6.04019">
        <ele>176.40039</ele>
        <time>2026-05-18T15:08:45+02:00</time>
      </trkpt>
      <trkpt lat="48.92161" lon="6.0402">
        <ele>176.2998</ele>
        <time>2026-05-18T15:08:46+02:00</time>
      </trkpt>
      <trkpt lat="48.92164" lon="6.0402">
        <ele>176.2998</ele>
        <time>2026-05-18T15:08:47+02:00</time>
      </trkpt>
      <trkpt lat="48.92169" lon="6.0402">
        <ele>176.2002</ele>
        <time>2026-05-18T15:08:48+02:00</time>
      </trkpt>
      <trkpt lat="48.92173" lon="6.04019">
        <ele>175.90039</ele>
        <time>2026-05-18T15:08:49+02:00</time>
      </trkpt>
      <trkpt lat="48.92177" lon="6.04018">
        <ele>175.5</ele>
        <time>2026-05-18T15:08:50+02:00</time>
      </trkpt>
      <trkpt lat="48.92182" lon="6.04017">
        <ele>175.5</ele>
        <time>2026-05-18T15:08:51+02:00</time>
      </trkpt>
      <trkpt lat="48.92187" lon="6.04016">
        <ele>176</ele>
        <time>2026-05-18T15:08:52+02:00</time>
      </trkpt>
      <trkpt lat="48.92192" lon="6.04015">
        <ele>175.90039</ele>
        <time>2026-05-18T15:08:53+02:00</time>
      </trkpt>
      <trkpt lat="48.92197" lon="6.04014">
        <ele>175.90039</ele>
        <time>2026-05-18T15:08:54+02:00</time>
      </trkpt>
      <trkpt lat="48.92202" lon="6.04013">
        <ele>175.7998</ele>
        <time>2026-05-18T15:08:55+02:00</time>
      </trkpt>
      <trkpt lat="48.92207" lon="6.04012">
        <ele>175.7998</ele>
        <time>2026-05-18T15:08:56+02:00</time>
      </trkpt>
      <trkpt lat="48.92212" lon="6.04011">
        <ele>175.7002</ele>
        <time>2026-05-18T15:08:57+02:00</time>
      </trkpt>
      <trkpt lat="48.92217" lon="6.0401">
        <ele>175.7002</ele>
        <time>2026-05-18T15:08:58+02:00</time>
      </trkpt>
      <trkpt lat="48.92223" lon="6.04009">
        <ele>175.7002</ele>
        <time>2026-05-18T15:08:59+02:00</time>
      </trkpt>
      <trkpt lat="48.92228" lon="6.04008">
        <ele>175.60059</ele>
        <time>2026-05-18T15:09:00+02:00</time>
      </trkpt>
      <trkpt lat="48.92233" lon="6.04007">
        <ele>176.2998</ele>
        <time>2026-05-18T15:09:01+02:00</time>
      </trkpt>
      <trkpt lat="48.92239" lon="6.04006">
        <ele>176.2002</ele>
        <time>2026-05-18T15:09:02+02:00</time>
      </trkpt>
      <trkpt lat="48.92244" lon="6.04005">
        <ele>176.2002</ele>
        <time>2026-05-18T15:09:03+02:00</time>
      </trkpt>
      <trkpt lat="48.92249" lon="6.04005">
        <ele>176.2002</ele>
        <time>2026-05-18T15:09:04+02:00</time>
      </trkpt>
      <trkpt lat="48.92254" lon="6.04004">
        <ele>176.10059</ele>
        <time>2026-05-18T15:09:05+02:00</time>
      </trkpt>
      <trkpt lat="48.92259" lon="6.04003">
        <ele>176.10059</ele>
        <time>2026-05-18T15:09:06+02:00</time>
      </trkpt>
      <trkpt lat="48.92265" lon="6.04002">
        <ele>176.10059</ele>
        <time>2026-05-18T15:09:07+02:00</time>
      </trkpt>
      <trkpt lat="48.9227" lon="6.04002">
        <ele>176</ele>
        <time>2026-05-18T15:09:08+02:00</time>
      </trkpt>
      <trkpt lat="48.92275" lon="6.04002">
        <ele>176</ele>
        <time>2026-05-18T15:09:09+02:00</time>
      </trkpt>
      <trkpt lat="48.92281" lon="6.04001">
        <ele>175.90039</ele>
        <time>2026-05-18T15:09:10+02:00</time>
      </trkpt>
      <trkpt lat="48.92286" lon="6.04">
        <ele>175.90039</ele>
        <time>2026-05-18T15:09:11+02:00</time>
      </trkpt>
      <trkpt lat="48.92292" lon="6.03999">
        <ele>176.5</ele>
        <time>2026-05-18T15:09:12+02:00</time>
      </trkpt>
      <trkpt lat="48.92297" lon="6.03998">
        <ele>176.40039</ele>
        <time>2026-05-18T15:09:13+02:00</time>
      </trkpt>
      <trkpt lat="48.92303" lon="6.03998">
        <ele>176.2998</ele>
        <time>2026-05-18T15:09:14+02:00</time>
      </trkpt>
      <trkpt lat="48.92308" lon="6.03997">
        <ele>176.2998</ele>
        <time>2026-05-18T15:09:15+02:00</time>
      </trkpt>
      <trkpt lat="48.92314" lon="6.03997">
        <ele>176.2002</ele>
        <time>2026-05-18T15:09:16+02:00</time>
      </trkpt>
      <trkpt lat="48.9232" lon="6.03997">
        <ele>176.2002</ele>
        <time>2026-05-18T15:09:17+02:00</time>
      </trkpt>
      <trkpt lat="48.92325" lon="6.03996">
        <ele>176.10059</ele>
        <time>2026-05-18T15:09:18+02:00</time>
      </trkpt>
      <trkpt lat="48.92331" lon="6.03996">
        <ele>176</ele>
        <time>2026-05-18T15:09:19+02:00</time>
      </trkpt>
      <trkpt lat="48.92336" lon="6.03996">
        <ele>176</ele>
        <time>2026-05-18T15:09:20+02:00</time>
      </trkpt>
      <trkpt lat="48.92342" lon="6.03995">
        <ele>175.90039</ele>
        <time>2026-05-18T15:09:21+02:00</time>
      </trkpt>
      <trkpt lat="48.92348" lon="6.03995">
        <ele>175.90039</ele>
        <time>2026-05-18T15:09:22+02:00</time>
      </trkpt>
      <trkpt lat="48.92354" lon="6.03995">
        <ele>175.90039</ele>
        <time>2026-05-18T15:09:23+02:00</time>
      </trkpt>
      <trkpt lat="48.9236" lon="6.03995">
        <ele>175.7998</ele>
        <time>2026-05-18T15:09:24+02:00</time>
      </trkpt>
      <trkpt lat="48.92365" lon="6.03994">
        <ele>175.7998</ele>
        <time>2026-05-18T15:09:25+02:00</time>
      </trkpt>
      <trkpt lat="48.92371" lon="6.03994">
        <ele>175.7998</ele>
        <time>2026-05-18T15:09:26+02:00</time>
      </trkpt>
      <trkpt lat="48.92376" lon="6.03993">
        <ele>175.7002</ele>
        <time>2026-05-18T15:09:27+02:00</time>
      </trkpt>
      <trkpt lat="48.92381" lon="6.03993">
        <ele>175.7002</ele>
        <time>2026-05-18T15:09:28+02:00</time>
      </trkpt>
      <trkpt lat="48.92387" lon="6.03993">
        <ele>175.7002</ele>
        <time>2026-05-18T15:09:29+02:00</time>
      </trkpt>
      <trkpt lat="48.92392" lon="6.03993">
        <ele>175.7002</ele>
        <time>2026-05-18T15:09:30+02:00</time>
      </trkpt>
      <trkpt lat="48.92397" lon="6.03994">
        <ele>175.60059</ele>
        <time>2026-05-18T15:09:31+02:00</time>
      </trkpt>
      <trkpt lat="48.92403" lon="6.03994">
        <ele>175.60059</ele>
        <time>2026-05-18T15:09:32+02:00</time>
      </trkpt>
      <trkpt lat="48.92409" lon="6.03995">
        <ele>175.60059</ele>
        <time>2026-05-18T15:09:33+02:00</time>
      </trkpt>
      <trkpt lat="48.92414" lon="6.03995">
        <ele>175.60059</ele>
        <time>2026-05-18T15:09:34+02:00</time>
      </trkpt>
      <trkpt lat="48.9242" lon="6.03996">
        <ele>175.60059</ele>
        <time>2026-05-18T15:09:35+02:00</time>
      </trkpt>
      <trkpt lat="48.92425" lon="6.03997">
        <ele>175.60059</ele>
        <time>2026-05-18T15:09:36+02:00</time>
      </trkpt>
      <trkpt lat="48.92431" lon="6.03997">
        <ele>175.5</ele>
        <time>2026-05-18T15:09:37+02:00</time>
      </trkpt>
      <trkpt lat="48.92436" lon="6.03998">
        <ele>175.5</ele>
        <time>2026-05-18T15:09:38+02:00</time>
      </trkpt>
      <trkpt lat="48.92442" lon="6.03998">
        <ele>175.5</ele>
        <time>2026-05-18T15:09:39+02:00</time>
      </trkpt>
      <trkpt lat="48.92448" lon="6.03998">
        <ele>175.5</ele>
        <time>2026-05-18T15:09:40+02:00</time>
      </trkpt>
      <trkpt lat="48.92454" lon="6.03999">
        <ele>175.40039</ele>
        <time>2026-05-18T15:09:41+02:00</time>
      </trkpt>
      <trkpt lat="48.92459" lon="6.04">
        <ele>175</ele>
        <time>2026-05-18T15:09:42+02:00</time>
      </trkpt>
      <trkpt lat="48.92465" lon="6.04">
        <ele>175</ele>
        <time>2026-05-18T15:09:43+02:00</time>
      </trkpt>
      <trkpt lat="48.9247" lon="6.04">
        <ele>175</ele>
        <time>2026-05-18T15:09:44+02:00</time>
      </trkpt>
      <trkpt lat="48.92476" lon="6.04">
        <ele>175</ele>
        <time>2026-05-18T15:09:45+02:00</time>
      </trkpt>
      <trkpt lat="48.92481" lon="6.04">
        <ele>175</ele>
        <time>2026-05-18T15:09:46+02:00</time>
      </trkpt>
      <trkpt lat="48.92486" lon="6.04">
        <ele>175</ele>
        <time>2026-05-18T15:09:47+02:00</time>
      </trkpt>
      <trkpt lat="48.92492" lon="6.04">
        <ele>175</ele>
        <time>2026-05-18T15:09:48+02:00</time>
      </trkpt>
      <trkpt lat="48.92498" lon="6.04">
        <ele>174.90039</ele>
        <time>2026-05-18T15:09:49+02:00</time>
      </trkpt>
      <trkpt lat="48.92503" lon="6.04">
        <ele>174.90039</ele>
        <time>2026-05-18T15:09:50+02:00</time>
      </trkpt>
      <trkpt lat="48.92509" lon="6.03999">
        <ele>175.2002</ele>
        <time>2026-05-18T15:09:51+02:00</time>
      </trkpt>
      <trkpt lat="48.92515" lon="6.03999">
        <ele>175.2002</ele>
        <time>2026-05-18T15:09:52+02:00</time>
      </trkpt>
      <trkpt lat="48.9252" lon="6.03999">
        <ele>175.2002</ele>
        <time>2026-05-18T15:09:53+02:00</time>
      </trkpt>
      <trkpt lat="48.92526" lon="6.03999">
        <ele>175.2002</ele>
        <time>2026-05-18T15:09:54+02:00</time>
      </trkpt>
      <trkpt lat="48.92532" lon="6.03998">
        <ele>175.10059</ele>
        <time>2026-05-18T15:09:55+02:00</time>
      </trkpt>
      <trkpt lat="48.92538" lon="6.03998">
        <ele>175.10059</ele>
        <time>2026-05-18T15:09:56+02:00</time>
      </trkpt>
      <trkpt lat="48.92544" lon="6.03998">
        <ele>175.10059</ele>
        <time>2026-05-18T15:09:57+02:00</time>
      </trkpt>
      <trkpt lat="48.9255" lon="6.03997">
        <ele>175.10059</ele>
        <time>2026-05-18T15:09:58+02:00</time>
      </trkpt>
      <trkpt lat="48.92556" lon="6.03997">
        <ele>175</ele>
        <time>2026-05-18T15:09:59+02:00</time>
      </trkpt>
      <trkpt lat="48.92561" lon="6.03998">
        <ele>175</ele>
        <time>2026-05-18T15:10:00+02:00</time>
      </trkpt>
      <trkpt lat="48.92568" lon="6.03997">
        <ele>175</ele>
        <time>2026-05-18T15:10:01+02:00</time>
      </trkpt>
      <trkpt lat="48.92573" lon="6.03997">
        <ele>175</ele>
        <time>2026-05-18T15:10:02+02:00</time>
      </trkpt>
      <trkpt lat="48.92579" lon="6.03997">
        <ele>175</ele>
        <time>2026-05-18T15:10:03+02:00</time>
      </trkpt>
      <trkpt lat="48.92585" lon="6.03996">
        <ele>175</ele>
        <time>2026-05-18T15:10:04+02:00</time>
      </trkpt>
      <trkpt lat="48.9259" lon="6.03996">
        <ele>175</ele>
        <time>2026-05-18T15:10:05+02:00</time>
      </trkpt>
      <trkpt lat="48.92596" lon="6.03996">
        <ele>175</ele>
        <time>2026-05-18T15:10:06+02:00</time>
      </trkpt>
      <trkpt lat="48.92602" lon="6.03996">
        <ele>175</ele>
        <time>2026-05-18T15:10:07+02:00</time>
      </trkpt>
      <trkpt lat="48.92607" lon="6.03995">
        <ele>175</ele>
        <time>2026-05-18T15:10:08+02:00</time>
      </trkpt>
      <trkpt lat="48.92613" lon="6.03995">
        <ele>175</ele>
        <time>2026-05-18T15:10:09+02:00</time>
      </trkpt>
      <trkpt lat="48.92618" lon="6.03995">
        <ele>175</ele>
        <time>2026-05-18T15:10:10+02:00</time>
      </trkpt>
      <trkpt lat="48.92624" lon="6.03995">
        <ele>175</ele>
        <time>2026-05-18T15:10:11+02:00</time>
      </trkpt>
      <trkpt lat="48.9263" lon="6.03994">
        <ele>175</ele>
        <time>2026-05-18T15:10:12+02:00</time>
      </trkpt>
      <trkpt lat="48.92636" lon="6.03994">
        <ele>175</ele>
        <time>2026-05-18T15:10:13+02:00</time>
      </trkpt>
      <trkpt lat="48.92642" lon="6.03994">
        <ele>175</ele>
        <time>2026-05-18T15:10:14+02:00</time>
      </trkpt>
      <trkpt lat="48.92647" lon="6.03994">
        <ele>175</ele>
        <time>2026-05-18T15:10:15+02:00</time>
      </trkpt>
      <trkpt lat="48.92653" lon="6.03994">
        <ele>175</ele>
        <time>2026-05-18T15:10:16+02:00</time>
      </trkpt>
      <trkpt lat="48.92658" lon="6.03993">
        <ele>175</ele>
        <time>2026-05-18T15:10:17+02:00</time>
      </trkpt>
      <trkpt lat="48.92664" lon="6.03993">
        <ele>175</ele>
        <time>2026-05-18T15:10:18+02:00</time>
      </trkpt>
      <trkpt lat="48.9267" lon="6.03993">
        <ele>175</ele>
        <time>2026-05-18T15:10:19+02:00</time>
      </trkpt>
      <trkpt lat="48.92676" lon="6.03993">
        <ele>175</ele>
        <time>2026-05-18T15:10:20+02:00</time>
      </trkpt>
      <trkpt lat="48.92681" lon="6.03993">
        <ele>175</ele>
        <time>2026-05-18T15:10:21+02:00</time>
      </trkpt>
      <trkpt lat="48.92687" lon="6.03992">
        <ele>175</ele>
        <time>2026-05-18T15:10:22+02:00</time>
      </trkpt>
      <trkpt lat="48.92692" lon="6.03992">
        <ele>175</ele>
        <time>2026-05-18T15:10:23+02:00</time>
      </trkpt>
      <trkpt lat="48.92698" lon="6.03992">
        <ele>175</ele>
        <time>2026-05-18T15:10:24+02:00</time>
      </trkpt>
      <trkpt lat="48.92704" lon="6.03992">
        <ele>175</ele>
        <time>2026-05-18T15:10:25+02:00</time>
      </trkpt>
      <trkpt lat="48.92709" lon="6.03991">
        <ele>175</ele>
        <time>2026-05-18T15:10:26+02:00</time>
      </trkpt>
      <trkpt lat="48.92715" lon="6.03991">
        <ele>175</ele>
        <time>2026-05-18T15:10:27+02:00</time>
      </trkpt>
      <trkpt lat="48.92721" lon="6.0399">
        <ele>175</ele>
        <time>2026-05-18T15:10:28+02:00</time>
      </trkpt>
      <trkpt lat="48.92726" lon="6.0399">
        <ele>175</ele>
        <time>2026-05-18T15:10:29+02:00</time>
      </trkpt>
      <trkpt lat="48.92732" lon="6.0399">
        <ele>175</ele>
        <time>2026-05-18T15:10:30+02:00</time>
      </trkpt>
      <trkpt lat="48.92737" lon="6.0399">
        <ele>175</ele>
        <time>2026-05-18T15:10:31+02:00</time>
      </trkpt>
      <trkpt lat="48.92743" lon="6.03989">
        <ele>175</ele>
        <time>2026-05-18T15:10:32+02:00</time>
      </trkpt>
      <trkpt lat="48.92749" lon="6.03989">
        <ele>175</ele>
        <time>2026-05-18T15:10:33+02:00</time>
      </trkpt>
      <trkpt lat="48.92754" lon="6.03988">
        <ele>174.90039</ele>
        <time>2026-05-18T15:10:34+02:00</time>
      </trkpt>
      <trkpt lat="48.9276" lon="6.03988">
        <ele>174.7002</ele>
        <time>2026-05-18T15:10:35+02:00</time>
      </trkpt>
      <trkpt lat="48.92766" lon="6.03988">
        <ele>174.60059</ele>
        <time>2026-05-18T15:10:36+02:00</time>
      </trkpt>
      <trkpt lat="48.92771" lon="6.03987">
        <ele>174.5</ele>
        <time>2026-05-18T15:10:37+02:00</time>
      </trkpt>
      <trkpt lat="48.92777" lon="6.03987">
        <ele>174.5</ele>
        <time>2026-05-18T15:10:38+02:00</time>
      </trkpt>
      <trkpt lat="48.92782" lon="6.03987">
        <ele>174.60059</ele>
        <time>2026-05-18T15:10:39+02:00</time>
      </trkpt>
      <trkpt lat="48.92788" lon="6.03987">
        <ele>174.60059</ele>
        <time>2026-05-18T15:10:40+02:00</time>
      </trkpt>
      <trkpt lat="48.92794" lon="6.03987">
        <ele>174.5</ele>
        <time>2026-05-18T15:10:41+02:00</time>
      </trkpt>
      <trkpt lat="48.928" lon="6.03987">
        <ele>174.40039</ele>
        <time>2026-05-18T15:10:42+02:00</time>
      </trkpt>
      <trkpt lat="48.92806" lon="6.03986">
        <ele>174.2002</ele>
        <time>2026-05-18T15:10:43+02:00</time>
      </trkpt>
      <trkpt lat="48.92812" lon="6.03986">
        <ele>174.10059</ele>
        <time>2026-05-18T15:10:44+02:00</time>
      </trkpt>
      <trkpt lat="48.92817" lon="6.03985">
        <ele>174</ele>
        <time>2026-05-18T15:10:45+02:00</time>
      </trkpt>
      <trkpt lat="48.92824" lon="6.03985">
        <ele>173.90039</ele>
        <time>2026-05-18T15:10:46+02:00</time>
      </trkpt>
      <trkpt lat="48.92829" lon="6.03985">
        <ele>173.90039</ele>
        <time>2026-05-18T15:10:47+02:00</time>
      </trkpt>
      <trkpt lat="48.92835" lon="6.03984">
        <ele>173.90039</ele>
        <time>2026-05-18T15:10:48+02:00</time>
      </trkpt>
      <trkpt lat="48.92841" lon="6.03984">
        <ele>173.90039</ele>
        <time>2026-05-18T15:10:49+02:00</time>
      </trkpt>
      <trkpt lat="48.92848" lon="6.03984">
        <ele>173.90039</ele>
        <time>2026-05-18T15:10:50+02:00</time>
      </trkpt>
      <trkpt lat="48.92853" lon="6.03983">
        <ele>173.90039</ele>
        <time>2026-05-18T15:10:51+02:00</time>
      </trkpt>
      <trkpt lat="48.92859" lon="6.03983">
        <ele>173.90039</ele>
        <time>2026-05-18T15:10:52+02:00</time>
      </trkpt>
      <trkpt lat="48.92865" lon="6.03982">
        <ele>173.90039</ele>
        <time>2026-05-18T15:10:53+02:00</time>
      </trkpt>
      <trkpt lat="48.92871" lon="6.03982">
        <ele>173.90039</ele>
        <time>2026-05-18T15:10:54+02:00</time>
      </trkpt>
      <trkpt lat="48.92877" lon="6.03981">
        <ele>173.90039</ele>
        <time>2026-05-18T15:10:55+02:00</time>
      </trkpt>
      <trkpt lat="48.92883" lon="6.0398">
        <ele>173.90039</ele>
        <time>2026-05-18T15:10:56+02:00</time>
      </trkpt>
      <trkpt lat="48.92888" lon="6.03979">
        <ele>173.90039</ele>
        <time>2026-05-18T15:10:57+02:00</time>
      </trkpt>
      <trkpt lat="48.92894" lon="6.03978">
        <ele>173.90039</ele>
        <time>2026-05-18T15:10:58+02:00</time>
      </trkpt>
      <trkpt lat="48.929" lon="6.03977">
        <ele>173.90039</ele>
        <time>2026-05-18T15:10:59+02:00</time>
      </trkpt>
      <trkpt lat="48.92906" lon="6.03977">
        <ele>173.90039</ele>
        <time>2026-05-18T15:11:00+02:00</time>
      </trkpt>
      <trkpt lat="48.92912" lon="6.03976">
        <ele>173.90039</ele>
        <time>2026-05-18T15:11:01+02:00</time>
      </trkpt>
      <trkpt lat="48.92918" lon="6.03975">
        <ele>173.90039</ele>
        <time>2026-05-18T15:11:02+02:00</time>
      </trkpt>
      <trkpt lat="48.92923" lon="6.03974">
        <ele>173.90039</ele>
        <time>2026-05-18T15:11:03+02:00</time>
      </trkpt>
      <trkpt lat="48.9293" lon="6.03973">
        <ele>174</ele>
        <time>2026-05-18T15:11:04+02:00</time>
      </trkpt>
      <trkpt lat="48.92936" lon="6.03972">
        <ele>174</ele>
        <time>2026-05-18T15:11:05+02:00</time>
      </trkpt>
      <trkpt lat="48.92941" lon="6.03971">
        <ele>174</ele>
        <time>2026-05-18T15:11:06+02:00</time>
      </trkpt>
      <trkpt lat="48.92948" lon="6.0397">
        <ele>174</ele>
        <time>2026-05-18T15:11:07+02:00</time>
      </trkpt>
      <trkpt lat="48.92953" lon="6.03969">
        <ele>173.90039</ele>
        <time>2026-05-18T15:11:08+02:00</time>
      </trkpt>
      <trkpt lat="48.92959" lon="6.03968">
        <ele>173.90039</ele>
        <time>2026-05-18T15:11:09+02:00</time>
      </trkpt>
      <trkpt lat="48.92965" lon="6.03968">
        <ele>173.90039</ele>
        <time>2026-05-18T15:11:10+02:00</time>
      </trkpt>
      <trkpt lat="48.92971" lon="6.03967">
        <ele>173.90039</ele>
        <time>2026-05-18T15:11:11+02:00</time>
      </trkpt>
      <trkpt lat="48.92977" lon="6.03967">
        <ele>173.90039</ele>
        <time>2026-05-18T15:11:12+02:00</time>
      </trkpt>
      <trkpt lat="48.92983" lon="6.03966">
        <ele>173.90039</ele>
        <time>2026-05-18T15:11:13+02:00</time>
      </trkpt>
      <trkpt lat="48.92989" lon="6.03965">
        <ele>173.90039</ele>
        <time>2026-05-18T15:11:14+02:00</time>
      </trkpt>
      <trkpt lat="48.92995" lon="6.03964">
        <ele>174</ele>
        <time>2026-05-18T15:11:15+02:00</time>
      </trkpt>
      <trkpt lat="48.93001" lon="6.03964">
        <ele>174</ele>
        <time>2026-05-18T15:11:16+02:00</time>
      </trkpt>
      <trkpt lat="48.93007" lon="6.03963">
        <ele>174</ele>
        <time>2026-05-18T15:11:17+02:00</time>
      </trkpt>
      <trkpt lat="48.93012" lon="6.03962">
        <ele>174</ele>
        <time>2026-05-18T15:11:18+02:00</time>
      </trkpt>
      <trkpt lat="48.93018" lon="6.03962">
        <ele>174</ele>
        <time>2026-05-18T15:11:19+02:00</time>
      </trkpt>
      <trkpt lat="48.93024" lon="6.03962">
        <ele>174</ele>
        <time>2026-05-18T15:11:20+02:00</time>
      </trkpt>
      <trkpt lat="48.9303" lon="6.03961">
        <ele>173.90039</ele>
        <time>2026-05-18T15:11:21+02:00</time>
      </trkpt>
      <trkpt lat="48.93035" lon="6.03961">
        <ele>173.90039</ele>
        <time>2026-05-18T15:11:22+02:00</time>
      </trkpt>
      <trkpt lat="48.93041" lon="6.0396">
        <ele>173.90039</ele>
        <time>2026-05-18T15:11:23+02:00</time>
      </trkpt>
      <trkpt lat="48.93046" lon="6.0396">
        <ele>173.90039</ele>
        <time>2026-05-18T15:11:24+02:00</time>
      </trkpt>
      <trkpt lat="48.93052" lon="6.0396">
        <ele>173.90039</ele>
        <time>2026-05-18T15:11:25+02:00</time>
      </trkpt>
      <trkpt lat="48.93058" lon="6.03959">
        <ele>173.90039</ele>
        <time>2026-05-18T15:11:26+02:00</time>
      </trkpt>
      <trkpt lat="48.93063" lon="6.03959">
        <ele>173.90039</ele>
        <time>2026-05-18T15:11:27+02:00</time>
      </trkpt>
      <trkpt lat="48.93069" lon="6.0396">
        <ele>173.90039</ele>
        <time>2026-05-18T15:11:28+02:00</time>
      </trkpt>
      <trkpt lat="48.93075" lon="6.0396">
        <ele>173.90039</ele>
        <time>2026-05-18T15:11:29+02:00</time>
      </trkpt>
      <trkpt lat="48.9308" lon="6.03961">
        <ele>173.90039</ele>
        <time>2026-05-18T15:11:30+02:00</time>
      </trkpt>
      <trkpt lat="48.93085" lon="6.03961">
        <ele>173.90039</ele>
        <time>2026-05-18T15:11:31+02:00</time>
      </trkpt>
      <trkpt lat="48.93091" lon="6.03962">
        <ele>173.90039</ele>
        <time>2026-05-18T15:11:32+02:00</time>
      </trkpt>
      <trkpt lat="48.93096" lon="6.03963">
        <ele>173.90039</ele>
        <time>2026-05-18T15:11:33+02:00</time>
      </trkpt>
      <trkpt lat="48.93102" lon="6.03963">
        <ele>173.90039</ele>
        <time>2026-05-18T15:11:34+02:00</time>
      </trkpt>
      <trkpt lat="48.93108" lon="6.03963">
        <ele>173.90039</ele>
        <time>2026-05-18T15:11:35+02:00</time>
      </trkpt>
      <trkpt lat="48.93113" lon="6.03964">
        <ele>173.90039</ele>
        <time>2026-05-18T15:11:36+02:00</time>
      </trkpt>
      <trkpt lat="48.93119" lon="6.03964">
        <ele>173.90039</ele>
        <time>2026-05-18T15:11:37+02:00</time>
      </trkpt>
      <trkpt lat="48.93125" lon="6.03965">
        <ele>174</ele>
        <time>2026-05-18T15:11:38+02:00</time>
      </trkpt>
      <trkpt lat="48.93131" lon="6.03965">
        <ele>174</ele>
        <time>2026-05-18T15:11:39+02:00</time>
      </trkpt>
      <trkpt lat="48.93137" lon="6.03965">
        <ele>174</ele>
        <time>2026-05-18T15:11:40+02:00</time>
      </trkpt>
      <trkpt lat="48.93143" lon="6.03966">
        <ele>174</ele>
        <time>2026-05-18T15:11:41+02:00</time>
      </trkpt>
      <trkpt lat="48.93149" lon="6.03967">
        <ele>174</ele>
        <time>2026-05-18T15:11:42+02:00</time>
      </trkpt>
      <trkpt lat="48.93155" lon="6.03968">
        <ele>174.10059</ele>
        <time>2026-05-18T15:11:43+02:00</time>
      </trkpt>
      <trkpt lat="48.93161" lon="6.03969">
        <ele>174.10059</ele>
        <time>2026-05-18T15:11:44+02:00</time>
      </trkpt>
      <trkpt lat="48.93167" lon="6.0397">
        <ele>174.10059</ele>
        <time>2026-05-18T15:11:45+02:00</time>
      </trkpt>
      <trkpt lat="48.93173" lon="6.03971">
        <ele>174.10059</ele>
        <time>2026-05-18T15:11:46+02:00</time>
      </trkpt>
      <trkpt lat="48.93179" lon="6.03972">
        <ele>174.10059</ele>
        <time>2026-05-18T15:11:47+02:00</time>
      </trkpt>
      <trkpt lat="48.93185" lon="6.03973">
        <ele>174.10059</ele>
        <time>2026-05-18T15:11:48+02:00</time>
      </trkpt>
      <trkpt lat="48.93191" lon="6.03974">
        <ele>174.2002</ele>
        <time>2026-05-18T15:11:49+02:00</time>
      </trkpt>
      <trkpt lat="48.93197" lon="6.03975">
        <ele>174.2002</ele>
        <time>2026-05-18T15:11:50+02:00</time>
      </trkpt>
      <trkpt lat="48.93203" lon="6.03977">
        <ele>174.10059</ele>
        <time>2026-05-18T15:11:51+02:00</time>
      </trkpt>
      <trkpt lat="48.93209" lon="6.03978">
        <ele>174.10059</ele>
        <time>2026-05-18T15:11:52+02:00</time>
      </trkpt>
      <trkpt lat="48.93215" lon="6.03979">
        <ele>174</ele>
        <time>2026-05-18T15:11:53+02:00</time>
      </trkpt>
      <trkpt lat="48.9322" lon="6.03981">
        <ele>174</ele>
        <time>2026-05-18T15:11:54+02:00</time>
      </trkpt>
      <trkpt lat="48.93226" lon="6.03982">
        <ele>173.90039</ele>
        <time>2026-05-18T15:11:55+02:00</time>
      </trkpt>
      <trkpt lat="48.93232" lon="6.03984">
        <ele>173.90039</ele>
        <time>2026-05-18T15:11:56+02:00</time>
      </trkpt>
      <trkpt lat="48.93239" lon="6.03986">
        <ele>173.7998</ele>
        <time>2026-05-18T15:11:57+02:00</time>
      </trkpt>
      <trkpt lat="48.93244" lon="6.03987">
        <ele>173.7998</ele>
        <time>2026-05-18T15:11:58+02:00</time>
      </trkpt>
      <trkpt lat="48.9325" lon="6.03989">
        <ele>173.7998</ele>
        <time>2026-05-18T15:11:59+02:00</time>
      </trkpt>
      <trkpt lat="48.93257" lon="6.0399">
        <ele>173.7998</ele>
        <time>2026-05-18T15:12:00+02:00</time>
      </trkpt>
      <trkpt lat="48.93262" lon="6.03992">
        <ele>174</ele>
        <time>2026-05-18T15:12:01+02:00</time>
      </trkpt>
      <trkpt lat="48.93268" lon="6.03994">
        <ele>174</ele>
        <time>2026-05-18T15:12:02+02:00</time>
      </trkpt>
      <trkpt lat="48.93274" lon="6.03996">
        <ele>174</ele>
        <time>2026-05-18T15:12:03+02:00</time>
      </trkpt>
      <trkpt lat="48.9328" lon="6.03999">
        <ele>174</ele>
        <time>2026-05-18T15:12:04+02:00</time>
      </trkpt>
      <trkpt lat="48.93286" lon="6.04">
        <ele>174.2002</ele>
        <time>2026-05-18T15:12:05+02:00</time>
      </trkpt>
      <trkpt lat="48.93291" lon="6.04002">
        <ele>174.2002</ele>
        <time>2026-05-18T15:12:06+02:00</time>
      </trkpt>
      <trkpt lat="48.93297" lon="6.04003">
        <ele>174.2002</ele>
        <time>2026-05-18T15:12:07+02:00</time>
      </trkpt>
      <trkpt lat="48.93302" lon="6.04005">
        <ele>174.2002</ele>
        <time>2026-05-18T15:12:08+02:00</time>
      </trkpt>
      <trkpt lat="48.93308" lon="6.04007">
        <ele>174.2002</ele>
        <time>2026-05-18T15:12:09+02:00</time>
      </trkpt>
      <trkpt lat="48.93314" lon="6.04009">
        <ele>174.10059</ele>
        <time>2026-05-18T15:12:10+02:00</time>
      </trkpt>
      <trkpt lat="48.93319" lon="6.04012">
        <ele>174</ele>
        <time>2026-05-18T15:12:11+02:00</time>
      </trkpt>
      <trkpt lat="48.93325" lon="6.04014">
        <ele>173.90039</ele>
        <time>2026-05-18T15:12:12+02:00</time>
      </trkpt>
      <trkpt lat="48.93331" lon="6.04016">
        <ele>173.7998</ele>
        <time>2026-05-18T15:12:13+02:00</time>
      </trkpt>
      <trkpt lat="48.93336" lon="6.04018">
        <ele>173.90039</ele>
        <time>2026-05-18T15:12:14+02:00</time>
      </trkpt>
      <trkpt lat="48.93342" lon="6.0402">
        <ele>173.90039</ele>
        <time>2026-05-18T15:12:15+02:00</time>
      </trkpt>
      <trkpt lat="48.93347" lon="6.04023">
        <ele>173.90039</ele>
        <time>2026-05-18T15:12:16+02:00</time>
      </trkpt>
      <trkpt lat="48.93353" lon="6.04025">
        <ele>174.10059</ele>
        <time>2026-05-18T15:12:17+02:00</time>
      </trkpt>
      <trkpt lat="48.93358" lon="6.04028">
        <ele>174.10059</ele>
        <time>2026-05-18T15:12:18+02:00</time>
      </trkpt>
      <trkpt lat="48.93364" lon="6.0403">
        <ele>174.2002</ele>
        <time>2026-05-18T15:12:19+02:00</time>
      </trkpt>
      <trkpt lat="48.93369" lon="6.04033">
        <ele>174.2002</ele>
        <time>2026-05-18T15:12:20+02:00</time>
      </trkpt>
      <trkpt lat="48.93375" lon="6.04035">
        <ele>174.2002</ele>
        <time>2026-05-18T15:12:21+02:00</time>
      </trkpt>
      <trkpt lat="48.9338" lon="6.04038">
        <ele>174.10059</ele>
        <time>2026-05-18T15:12:22+02:00</time>
      </trkpt>
      <trkpt lat="48.93385" lon="6.04041">
        <ele>174.10059</ele>
        <time>2026-05-18T15:12:23+02:00</time>
      </trkpt>
      <trkpt lat="48.93391" lon="6.04043">
        <ele>174</ele>
        <time>2026-05-18T15:12:24+02:00</time>
      </trkpt>
      <trkpt lat="48.93397" lon="6.04046">
        <ele>173.90039</ele>
        <time>2026-05-18T15:12:25+02:00</time>
      </trkpt>
      <trkpt lat="48.93402" lon="6.04049">
        <ele>173.90039</ele>
        <time>2026-05-18T15:12:26+02:00</time>
      </trkpt>
      <trkpt lat="48.93408" lon="6.04052">
        <ele>174.10059</ele>
        <time>2026-05-18T15:12:27+02:00</time>
      </trkpt>
      <trkpt lat="48.93413" lon="6.04055">
        <ele>174.10059</ele>
        <time>2026-05-18T15:12:28+02:00</time>
      </trkpt>
      <trkpt lat="48.93419" lon="6.04058">
        <ele>174.10059</ele>
        <time>2026-05-18T15:12:29+02:00</time>
      </trkpt>
      <trkpt lat="48.93424" lon="6.04062">
        <ele>174.2002</ele>
        <time>2026-05-18T15:12:30+02:00</time>
      </trkpt>
      <trkpt lat="48.9343" lon="6.04065">
        <ele>174.10059</ele>
        <time>2026-05-18T15:12:31+02:00</time>
      </trkpt>
      <trkpt lat="48.93436" lon="6.04069">
        <ele>174</ele>
        <time>2026-05-18T15:12:32+02:00</time>
      </trkpt>
      <trkpt lat="48.93442" lon="6.04072">
        <ele>173.90039</ele>
        <time>2026-05-18T15:12:33+02:00</time>
      </trkpt>
      <trkpt lat="48.93448" lon="6.04076">
        <ele>173.90039</ele>
        <time>2026-05-18T15:12:34+02:00</time>
      </trkpt>
      <trkpt lat="48.93454" lon="6.04079">
        <ele>173.90039</ele>
        <time>2026-05-18T15:12:35+02:00</time>
      </trkpt>
      <trkpt lat="48.93461" lon="6.04083">
        <ele>173.90039</ele>
        <time>2026-05-18T15:12:36+02:00</time>
      </trkpt>
      <trkpt lat="48.93467" lon="6.04086">
        <ele>174.2002</ele>
        <time>2026-05-18T15:12:37+02:00</time>
      </trkpt>
      <trkpt lat="48.93473" lon="6.04089">
        <ele>174.2002</ele>
        <time>2026-05-18T15:12:38+02:00</time>
      </trkpt>
      <trkpt lat="48.93479" lon="6.04092">
        <ele>174.2002</ele>
        <time>2026-05-18T15:12:39+02:00</time>
      </trkpt>
      <trkpt lat="48.93485" lon="6.04094">
        <ele>174.10059</ele>
        <time>2026-05-18T15:12:40+02:00</time>
      </trkpt>
      <trkpt lat="48.93491" lon="6.04097">
        <ele>174</ele>
        <time>2026-05-18T15:12:41+02:00</time>
      </trkpt>
      <trkpt lat="48.93496" lon="6.04099">
        <ele>174</ele>
        <time>2026-05-18T15:12:42+02:00</time>
      </trkpt>
      <trkpt lat="48.93502" lon="6.04101">
        <ele>173.7002</ele>
        <time>2026-05-18T15:12:43+02:00</time>
      </trkpt>
      <trkpt lat="48.93507" lon="6.04103">
        <ele>173.90039</ele>
        <time>2026-05-18T15:12:44+02:00</time>
      </trkpt>
      <trkpt lat="48.93512" lon="6.04106">
        <ele>173.90039</ele>
        <time>2026-05-18T15:12:45+02:00</time>
      </trkpt>
      <trkpt lat="48.93517" lon="6.04108">
        <ele>174</ele>
        <time>2026-05-18T15:12:46+02:00</time>
      </trkpt>
      <trkpt lat="48.93522" lon="6.04111">
        <ele>174.2002</ele>
        <time>2026-05-18T15:12:47+02:00</time>
      </trkpt>
      <trkpt lat="48.93527" lon="6.04113">
        <ele>174.2002</ele>
        <time>2026-05-18T15:12:48+02:00</time>
      </trkpt>
      <trkpt lat="48.93531" lon="6.04116">
        <ele>174.2998</ele>
        <time>2026-05-18T15:12:49+02:00</time>
      </trkpt>
      <trkpt lat="48.93535" lon="6.04118">
        <ele>174.2998</ele>
        <time>2026-05-18T15:12:50+02:00</time>
      </trkpt>
      <trkpt lat="48.93539" lon="6.0412">
        <ele>174</ele>
        <time>2026-05-18T15:12:51+02:00</time>
      </trkpt>
      <trkpt lat="48.93543" lon="6.04122">
        <ele>174</ele>
        <time>2026-05-18T15:12:52+02:00</time>
      </trkpt>
      <trkpt lat="48.93546" lon="6.04124">
        <ele>174</ele>
        <time>2026-05-18T15:12:53+02:00</time>
      </trkpt>
      <trkpt lat="48.93551" lon="6.04128">
        <ele>173.90039</ele>
        <time>2026-05-18T15:12:54+02:00</time>
      </trkpt>
      <trkpt lat="48.93555" lon="6.04131">
        <ele>173.90039</ele>
        <time>2026-05-18T15:12:55+02:00</time>
      </trkpt>
      <trkpt lat="48.93561" lon="6.04134">
        <ele>173.90039</ele>
        <time>2026-05-18T15:12:56+02:00</time>
      </trkpt>
      <trkpt lat="48.93566" lon="6.04138">
        <ele>174.10059</ele>
        <time>2026-05-18T15:12:57+02:00</time>
      </trkpt>
      <trkpt lat="48.93572" lon="6.04142">
        <ele>174.10059</ele>
        <time>2026-05-18T15:12:58+02:00</time>
      </trkpt>
      <trkpt lat="48.93578" lon="6.04147">
        <ele>174.2002</ele>
        <time>2026-05-18T15:12:59+02:00</time>
      </trkpt>
      <trkpt lat="48.93585" lon="6.04152">
        <ele>174.2002</ele>
        <time>2026-05-18T15:13:00+02:00</time>
      </trkpt>
      <trkpt lat="48.93591" lon="6.04157">
        <ele>174.2002</ele>
        <time>2026-05-18T15:13:01+02:00</time>
      </trkpt>
      <trkpt lat="48.93598" lon="6.04163">
        <ele>174.10059</ele>
        <time>2026-05-18T15:13:02+02:00</time>
      </trkpt>
      <trkpt lat="48.93605" lon="6.04168">
        <ele>174</ele>
        <time>2026-05-18T15:13:03+02:00</time>
      </trkpt>
      <trkpt lat="48.93612" lon="6.04174">
        <ele>174.10059</ele>
        <time>2026-05-18T15:13:04+02:00</time>
      </trkpt>
      <trkpt lat="48.93619" lon="6.04178">
        <ele>174.10059</ele>
        <time>2026-05-18T15:13:05+02:00</time>
      </trkpt>
      <trkpt lat="48.93627" lon="6.04182">
        <ele>174.2002</ele>
        <time>2026-05-18T15:13:06+02:00</time>
      </trkpt>
      <trkpt lat="48.93633" lon="6.04186">
        <ele>174.2002</ele>
        <time>2026-05-18T15:13:07+02:00</time>
      </trkpt>
      <trkpt lat="48.9364" lon="6.0419">
        <ele>174.10059</ele>
        <time>2026-05-18T15:13:08+02:00</time>
      </trkpt>
      <trkpt lat="48.93647" lon="6.04192">
        <ele>174</ele>
        <time>2026-05-18T15:13:09+02:00</time>
      </trkpt>
      <trkpt lat="48.93653" lon="6.04195">
        <ele>174</ele>
        <time>2026-05-18T15:13:10+02:00</time>
      </trkpt>
      <trkpt lat="48.93659" lon="6.04198">
        <ele>174.10059</ele>
        <time>2026-05-18T15:13:11+02:00</time>
      </trkpt>
      <trkpt lat="48.93665" lon="6.042">
        <ele>174.10059</ele>
        <time>2026-05-18T15:13:12+02:00</time>
      </trkpt>
      <trkpt lat="48.93671" lon="6.04203">
        <ele>174.10059</ele>
        <time>2026-05-18T15:13:13+02:00</time>
      </trkpt>
      <trkpt lat="48.93677" lon="6.04205">
        <ele>174.10059</ele>
        <time>2026-05-18T15:13:14+02:00</time>
      </trkpt>
      <trkpt lat="48.93683" lon="6.04208">
        <ele>174.2002</ele>
        <time>2026-05-18T15:13:15+02:00</time>
      </trkpt>
      <trkpt lat="48.93689" lon="6.0421">
        <ele>174.2002</ele>
        <time>2026-05-18T15:13:16+02:00</time>
      </trkpt>
      <trkpt lat="48.93694" lon="6.04212">
        <ele>174.2002</ele>
        <time>2026-05-18T15:13:17+02:00</time>
      </trkpt>
      <trkpt lat="48.93701" lon="6.04214">
        <ele>174.2002</ele>
        <time>2026-05-18T15:13:18+02:00</time>
      </trkpt>
      <trkpt lat="48.93707" lon="6.04216">
        <ele>174.10059</ele>
        <time>2026-05-18T15:13:19+02:00</time>
      </trkpt>
      <trkpt lat="48.93713" lon="6.04218">
        <ele>174</ele>
        <time>2026-05-18T15:13:20+02:00</time>
      </trkpt>
      <trkpt lat="48.93719" lon="6.0422">
        <ele>173.90039</ele>
        <time>2026-05-18T15:13:21+02:00</time>
      </trkpt>
      <trkpt lat="48.93725" lon="6.04222">
        <ele>173.7998</ele>
        <time>2026-05-18T15:13:22+02:00</time>
      </trkpt>
      <trkpt lat="48.93731" lon="6.04224">
        <ele>173.90039</ele>
        <time>2026-05-18T15:13:23+02:00</time>
      </trkpt>
      <trkpt lat="48.93737" lon="6.04226">
        <ele>173.90039</ele>
        <time>2026-05-18T15:13:24+02:00</time>
      </trkpt>
      <trkpt lat="48.93743" lon="6.04228">
        <ele>173.90039</ele>
        <time>2026-05-18T15:13:25+02:00</time>
      </trkpt>
      <trkpt lat="48.93749" lon="6.04229">
        <ele>173.90039</ele>
        <time>2026-05-18T15:13:26+02:00</time>
      </trkpt>
      <trkpt lat="48.93755" lon="6.04231">
        <ele>174.2002</ele>
        <time>2026-05-18T15:13:27+02:00</time>
      </trkpt>
      <trkpt lat="48.93761" lon="6.04233">
        <ele>174.2002</ele>
        <time>2026-05-18T15:13:28+02:00</time>
      </trkpt>
      <trkpt lat="48.93767" lon="6.04235">
        <ele>174.2002</ele>
        <time>2026-05-18T15:13:29+02:00</time>
      </trkpt>
      <trkpt lat="48.93773" lon="6.04237">
        <ele>174.2002</ele>
        <time>2026-05-18T15:13:30+02:00</time>
      </trkpt>
      <trkpt lat="48.93779" lon="6.04238">
        <ele>174.2002</ele>
        <time>2026-05-18T15:13:31+02:00</time>
      </trkpt>
      <trkpt lat="48.93785" lon="6.0424">
        <ele>173.7002</ele>
        <time>2026-05-18T15:13:32+02:00</time>
      </trkpt>
      <trkpt lat="48.93791" lon="6.04242">
        <ele>173.60059</ele>
        <time>2026-05-18T15:13:33+02:00</time>
      </trkpt>
      <trkpt lat="48.93796" lon="6.04244">
        <ele>173.60059</ele>
        <time>2026-05-18T15:13:34+02:00</time>
      </trkpt>
      <trkpt lat="48.93802" lon="6.04246">
        <ele>173.5</ele>
        <time>2026-05-18T15:13:35+02:00</time>
      </trkpt>
      <trkpt lat="48.93808" lon="6.04247">
        <ele>173.5</ele>
        <time>2026-05-18T15:13:36+02:00</time>
      </trkpt>
      <trkpt lat="48.93814" lon="6.04249">
        <ele>173.7002</ele>
        <time>2026-05-18T15:13:37+02:00</time>
      </trkpt>
      <trkpt lat="48.9382" lon="6.0425">
        <ele>173.7002</ele>
        <time>2026-05-18T15:13:38+02:00</time>
      </trkpt>
      <trkpt lat="48.93826" lon="6.04252">
        <ele>173.7002</ele>
        <time>2026-05-18T15:13:39+02:00</time>
      </trkpt>
      <trkpt lat="48.93832" lon="6.04254">
        <ele>173.7002</ele>
        <time>2026-05-18T15:13:40+02:00</time>
      </trkpt>
      <trkpt lat="48.93838" lon="6.04255">
        <ele>173.7998</ele>
        <time>2026-05-18T15:13:41+02:00</time>
      </trkpt>
      <trkpt lat="48.93844" lon="6.04256">
        <ele>173.7998</ele>
        <time>2026-05-18T15:13:42+02:00</time>
      </trkpt>
      <trkpt lat="48.9385" lon="6.04258">
        <ele>174.10059</ele>
        <time>2026-05-18T15:13:43+02:00</time>
      </trkpt>
      <trkpt lat="48.93855" lon="6.04259">
        <ele>174.2002</ele>
        <time>2026-05-18T15:13:44+02:00</time>
      </trkpt>
      <trkpt lat="48.93862" lon="6.04261">
        <ele>174.2002</ele>
        <time>2026-05-18T15:13:45+02:00</time>
      </trkpt>
      <trkpt lat="48.93868" lon="6.04262">
        <ele>174.2002</ele>
        <time>2026-05-18T15:13:46+02:00</time>
      </trkpt>
      <trkpt lat="48.93874" lon="6.04263">
        <ele>174.2002</ele>
        <time>2026-05-18T15:13:47+02:00</time>
      </trkpt>
      <trkpt lat="48.93879" lon="6.04264">
        <ele>174.2002</ele>
        <time>2026-05-18T15:13:48+02:00</time>
      </trkpt>
      <trkpt lat="48.93886" lon="6.04265">
        <ele>174.2002</ele>
        <time>2026-05-18T15:13:49+02:00</time>
      </trkpt>
      <trkpt lat="48.93892" lon="6.04266">
        <ele>174</ele>
        <time>2026-05-18T15:13:50+02:00</time>
      </trkpt>
      <trkpt lat="48.93898" lon="6.04267">
        <ele>173.90039</ele>
        <time>2026-05-18T15:13:51+02:00</time>
      </trkpt>
      <trkpt lat="48.93904" lon="6.04268">
        <ele>173.7002</ele>
        <time>2026-05-18T15:13:52+02:00</time>
      </trkpt>
      <trkpt lat="48.9391" lon="6.04269">
        <ele>173.60059</ele>
        <time>2026-05-18T15:13:53+02:00</time>
      </trkpt>
      <trkpt lat="48.93916" lon="6.0427">
        <ele>173.5</ele>
        <time>2026-05-18T15:13:54+02:00</time>
      </trkpt>
      <trkpt lat="48.93922" lon="6.04271">
        <ele>173.40039</ele>
        <time>2026-05-18T15:13:55+02:00</time>
      </trkpt>
      <trkpt lat="48.93928" lon="6.04272">
        <ele>173.2998</ele>
        <time>2026-05-18T15:13:56+02:00</time>
      </trkpt>
      <trkpt lat="48.93934" lon="6.04273">
        <ele>173.2002</ele>
        <time>2026-05-18T15:13:57+02:00</time>
      </trkpt>
      <trkpt lat="48.9394" lon="6.04274">
        <ele>173.2002</ele>
        <time>2026-05-18T15:13:58+02:00</time>
      </trkpt>
      <trkpt lat="48.93946" lon="6.04274">
        <ele>173</ele>
        <time>2026-05-18T15:13:59+02:00</time>
      </trkpt>
      <trkpt lat="48.93952" lon="6.04275">
        <ele>172.90039</ele>
        <time>2026-05-18T15:14:00+02:00</time>
      </trkpt>
      <trkpt lat="48.93958" lon="6.04275">
        <ele>172.90039</ele>
        <time>2026-05-18T15:14:01+02:00</time>
      </trkpt>
      <trkpt lat="48.93964" lon="6.04276">
        <ele>172.7998</ele>
        <time>2026-05-18T15:14:02+02:00</time>
      </trkpt>
      <trkpt lat="48.9397" lon="6.04276">
        <ele>172.7998</ele>
        <time>2026-05-18T15:14:03+02:00</time>
      </trkpt>
      <trkpt lat="48.93976" lon="6.04277">
        <ele>172.90039</ele>
        <time>2026-05-18T15:14:04+02:00</time>
      </trkpt>
      <trkpt lat="48.93982" lon="6.04277">
        <ele>172.90039</ele>
        <time>2026-05-18T15:14:05+02:00</time>
      </trkpt>
      <trkpt lat="48.93988" lon="6.04278">
        <ele>172.90039</ele>
        <time>2026-05-18T15:14:06+02:00</time>
      </trkpt>
      <trkpt lat="48.93994" lon="6.04278">
        <ele>173</ele>
        <time>2026-05-18T15:14:07+02:00</time>
      </trkpt>
      <trkpt lat="48.94" lon="6.04278">
        <ele>173</ele>
        <time>2026-05-18T15:14:08+02:00</time>
      </trkpt>
      <trkpt lat="48.94006" lon="6.04279">
        <ele>173</ele>
        <time>2026-05-18T15:14:09+02:00</time>
      </trkpt>
      <trkpt lat="48.94011" lon="6.04279">
        <ele>173.10059</ele>
        <time>2026-05-18T15:14:10+02:00</time>
      </trkpt>
      <trkpt lat="48.94018" lon="6.04279">
        <ele>173.10059</ele>
        <time>2026-05-18T15:14:11+02:00</time>
      </trkpt>
      <trkpt lat="48.94024" lon="6.04279">
        <ele>173.10059</ele>
        <time>2026-05-18T15:14:12+02:00</time>
      </trkpt>
      <trkpt lat="48.94029" lon="6.0428">
        <ele>173.10059</ele>
        <time>2026-05-18T15:14:13+02:00</time>
      </trkpt>
      <trkpt lat="48.94035" lon="6.0428">
        <ele>173.10059</ele>
        <time>2026-05-18T15:14:14+02:00</time>
      </trkpt>
      <trkpt lat="48.94042" lon="6.0428">
        <ele>173.10059</ele>
        <time>2026-05-18T15:14:15+02:00</time>
      </trkpt>
      <trkpt lat="48.94047" lon="6.0428">
        <ele>173.10059</ele>
        <time>2026-05-18T15:14:16+02:00</time>
      </trkpt>
      <trkpt lat="48.94053" lon="6.04281">
        <ele>173.10059</ele>
        <time>2026-05-18T15:14:17+02:00</time>
      </trkpt>
      <trkpt lat="48.9406" lon="6.04281">
        <ele>173.2002</ele>
        <time>2026-05-18T15:14:18+02:00</time>
      </trkpt>
      <trkpt lat="48.94066" lon="6.04281">
        <ele>173.2002</ele>
        <time>2026-05-18T15:14:19+02:00</time>
      </trkpt>
      <trkpt lat="48.94072" lon="6.04281">
        <ele>173.2002</ele>
        <time>2026-05-18T15:14:20+02:00</time>
      </trkpt>
      <trkpt lat="48.94078" lon="6.04281">
        <ele>173.2002</ele>
        <time>2026-05-18T15:14:21+02:00</time>
      </trkpt>
      <trkpt lat="48.94084" lon="6.04281">
        <ele>173.2002</ele>
        <time>2026-05-18T15:14:22+02:00</time>
      </trkpt>
      <trkpt lat="48.9409" lon="6.04282">
        <ele>173.2002</ele>
        <time>2026-05-18T15:14:23+02:00</time>
      </trkpt>
      <trkpt lat="48.94096" lon="6.04282">
        <ele>173.2002</ele>
        <time>2026-05-18T15:14:24+02:00</time>
      </trkpt>
      <trkpt lat="48.94102" lon="6.04282">
        <ele>173.2002</ele>
        <time>2026-05-18T15:14:25+02:00</time>
      </trkpt>
      <trkpt lat="48.94108" lon="6.04282">
        <ele>173.2002</ele>
        <time>2026-05-18T15:14:26+02:00</time>
      </trkpt>
      <trkpt lat="48.94114" lon="6.04282">
        <ele>173.2002</ele>
        <time>2026-05-18T15:14:27+02:00</time>
      </trkpt>
      <trkpt lat="48.9412" lon="6.04282">
        <ele>173.2002</ele>
        <time>2026-05-18T15:14:28+02:00</time>
      </trkpt>
      <trkpt lat="48.94126" lon="6.04282">
        <ele>173.2002</ele>
        <time>2026-05-18T15:14:29+02:00</time>
      </trkpt>
      <trkpt lat="48.94132" lon="6.04282">
        <ele>173.2002</ele>
        <time>2026-05-18T15:14:30+02:00</time>
      </trkpt>
      <trkpt lat="48.94138" lon="6.04282">
        <ele>173.2002</ele>
        <time>2026-05-18T15:14:31+02:00</time>
      </trkpt>
      <trkpt lat="48.94145" lon="6.04282">
        <ele>173.2002</ele>
        <time>2026-05-18T15:14:32+02:00</time>
      </trkpt>
      <trkpt lat="48.94151" lon="6.04283">
        <ele>173.2002</ele>
        <time>2026-05-18T15:14:33+02:00</time>
      </trkpt>
      <trkpt lat="48.94156" lon="6.04283">
        <ele>173.10059</ele>
        <time>2026-05-18T15:14:34+02:00</time>
      </trkpt>
      <trkpt lat="48.94163" lon="6.04283">
        <ele>173</ele>
        <time>2026-05-18T15:14:35+02:00</time>
      </trkpt>
      <trkpt lat="48.94169" lon="6.04283">
        <ele>172.7998</ele>
        <time>2026-05-18T15:14:36+02:00</time>
      </trkpt>
      <trkpt lat="48.94175" lon="6.04283">
        <ele>172.7002</ele>
        <time>2026-05-18T15:14:37+02:00</time>
      </trkpt>
      <trkpt lat="48.9418" lon="6.04283">
        <ele>172.60059</ele>
        <time>2026-05-18T15:14:38+02:00</time>
      </trkpt>
      <trkpt lat="48.94187" lon="6.04283">
        <ele>172.60059</ele>
        <time>2026-05-18T15:14:39+02:00</time>
      </trkpt>
      <trkpt lat="48.94192" lon="6.04283">
        <ele>172.60059</ele>
        <time>2026-05-18T15:14:40+02:00</time>
      </trkpt>
      <trkpt lat="48.94198" lon="6.04283">
        <ele>172.60059</ele>
        <time>2026-05-18T15:14:41+02:00</time>
      </trkpt>
      <trkpt lat="48.94204" lon="6.04283">
        <ele>172.60059</ele>
        <time>2026-05-18T15:14:42+02:00</time>
      </trkpt>
      <trkpt lat="48.9421" lon="6.04284">
        <ele>172.60059</ele>
        <time>2026-05-18T15:14:43+02:00</time>
      </trkpt>
      <trkpt lat="48.94216" lon="6.04284">
        <ele>172.60059</ele>
        <time>2026-05-18T15:14:44+02:00</time>
      </trkpt>
      <trkpt lat="48.94222" lon="6.04284">
        <ele>172.7002</ele>
        <time>2026-05-18T15:14:45+02:00</time>
      </trkpt>
      <trkpt lat="48.94228" lon="6.04284">
        <ele>172.7002</ele>
        <time>2026-05-18T15:14:46+02:00</time>
      </trkpt>
      <trkpt lat="48.94234" lon="6.04284">
        <ele>172.7002</ele>
        <time>2026-05-18T15:14:47+02:00</time>
      </trkpt>
      <trkpt lat="48.9424" lon="6.04283">
        <ele>172.7002</ele>
        <time>2026-05-18T15:14:48+02:00</time>
      </trkpt>
      <trkpt lat="48.94246" lon="6.04283">
        <ele>172.7998</ele>
        <time>2026-05-18T15:14:49+02:00</time>
      </trkpt>
      <trkpt lat="48.94252" lon="6.04284">
        <ele>172.7998</ele>
        <time>2026-05-18T15:14:50+02:00</time>
      </trkpt>
      <trkpt lat="48.94258" lon="6.04284">
        <ele>172.7998</ele>
        <time>2026-05-18T15:14:51+02:00</time>
      </trkpt>
      <trkpt lat="48.94264" lon="6.04284">
        <ele>172.90039</ele>
        <time>2026-05-18T15:14:52+02:00</time>
      </trkpt>
      <trkpt lat="48.9427" lon="6.04284">
        <ele>172.90039</ele>
        <time>2026-05-18T15:14:53+02:00</time>
      </trkpt>
      <trkpt lat="48.94276" lon="6.04285">
        <ele>172.90039</ele>
        <time>2026-05-18T15:14:54+02:00</time>
      </trkpt>
      <trkpt lat="48.94282" lon="6.04285">
        <ele>172.90039</ele>
        <time>2026-05-18T15:14:55+02:00</time>
      </trkpt>
      <trkpt lat="48.94288" lon="6.04285">
        <ele>173</ele>
        <time>2026-05-18T15:14:56+02:00</time>
      </trkpt>
      <trkpt lat="48.94294" lon="6.04285">
        <ele>173</ele>
        <time>2026-05-18T15:14:57+02:00</time>
      </trkpt>
      <trkpt lat="48.943" lon="6.04285">
        <ele>173</ele>
        <time>2026-05-18T15:14:58+02:00</time>
      </trkpt>
      <trkpt lat="48.94306" lon="6.04285">
        <ele>173</ele>
        <time>2026-05-18T15:14:59+02:00</time>
      </trkpt>
      <trkpt lat="48.94312" lon="6.04285">
        <ele>173</ele>
        <time>2026-05-18T15:15:00+02:00</time>
      </trkpt>
      <trkpt lat="48.94318" lon="6.04285">
        <ele>173.10059</ele>
        <time>2026-05-18T15:15:01+02:00</time>
      </trkpt>
      <trkpt lat="48.94324" lon="6.04285">
        <ele>173.10059</ele>
        <time>2026-05-18T15:15:02+02:00</time>
      </trkpt>
      <trkpt lat="48.94331" lon="6.04285">
        <ele>173.10059</ele>
        <time>2026-05-18T15:15:03+02:00</time>
      </trkpt>
      <trkpt lat="48.94336" lon="6.04285">
        <ele>173.10059</ele>
        <time>2026-05-18T15:15:04+02:00</time>
      </trkpt>
      <trkpt lat="48.94343" lon="6.04285">
        <ele>173.10059</ele>
        <time>2026-05-18T15:15:05+02:00</time>
      </trkpt>
      <trkpt lat="48.94349" lon="6.04285">
        <ele>173.10059</ele>
        <time>2026-05-18T15:15:06+02:00</time>
      </trkpt>
      <trkpt lat="48.94355" lon="6.04285">
        <ele>173.10059</ele>
        <time>2026-05-18T15:15:07+02:00</time>
      </trkpt>
      <trkpt lat="48.94361" lon="6.04285">
        <ele>173.10059</ele>
        <time>2026-05-18T15:15:08+02:00</time>
      </trkpt>
      <trkpt lat="48.94367" lon="6.04285">
        <ele>173.10059</ele>
        <time>2026-05-18T15:15:09+02:00</time>
      </trkpt>
      <trkpt lat="48.94373" lon="6.04284">
        <ele>173.2002</ele>
        <time>2026-05-18T15:15:10+02:00</time>
      </trkpt>
      <trkpt lat="48.94379" lon="6.04284">
        <ele>173.2002</ele>
        <time>2026-05-18T15:15:11+02:00</time>
      </trkpt>
      <trkpt lat="48.94385" lon="6.04284">
        <ele>173.2002</ele>
        <time>2026-05-18T15:15:12+02:00</time>
      </trkpt>
      <trkpt lat="48.94391" lon="6.04284">
        <ele>173.2002</ele>
        <time>2026-05-18T15:15:13+02:00</time>
      </trkpt>
      <trkpt lat="48.94397" lon="6.04283">
        <ele>173.2002</ele>
        <time>2026-05-18T15:15:14+02:00</time>
      </trkpt>
      <trkpt lat="48.94402" lon="6.04283">
        <ele>173.2002</ele>
        <time>2026-05-18T15:15:15+02:00</time>
      </trkpt>
      <trkpt lat="48.94409" lon="6.04282">
        <ele>173.10059</ele>
        <time>2026-05-18T15:15:16+02:00</time>
      </trkpt>
      <trkpt lat="48.94414" lon="6.04282">
        <ele>173.10059</ele>
        <time>2026-05-18T15:15:17+02:00</time>
      </trkpt>
      <trkpt lat="48.9442" lon="6.04281">
        <ele>173.10059</ele>
        <time>2026-05-18T15:15:18+02:00</time>
      </trkpt>
      <trkpt lat="48.94426" lon="6.04281">
        <ele>173.10059</ele>
        <time>2026-05-18T15:15:19+02:00</time>
      </trkpt>
      <trkpt lat="48.94432" lon="6.0428">
        <ele>173.10059</ele>
        <time>2026-05-18T15:15:20+02:00</time>
      </trkpt>
      <trkpt lat="48.94438" lon="6.04279">
        <ele>173.10059</ele>
        <time>2026-05-18T15:15:21+02:00</time>
      </trkpt>
      <trkpt lat="48.94444" lon="6.04278">
        <ele>173.10059</ele>
        <time>2026-05-18T15:15:22+02:00</time>
      </trkpt>
      <trkpt lat="48.94449" lon="6.04278">
        <ele>173.10059</ele>
        <time>2026-05-18T15:15:23+02:00</time>
      </trkpt>
      <trkpt lat="48.94455" lon="6.04277">
        <ele>173.2002</ele>
        <time>2026-05-18T15:15:24+02:00</time>
      </trkpt>
      <trkpt lat="48.94461" lon="6.04276">
        <ele>173.2998</ele>
        <time>2026-05-18T15:15:25+02:00</time>
      </trkpt>
      <trkpt lat="48.94467" lon="6.04275">
        <ele>173.2002</ele>
        <time>2026-05-18T15:15:26+02:00</time>
      </trkpt>
      <trkpt lat="48.94473" lon="6.04274">
        <ele>173</ele>
        <time>2026-05-18T15:15:27+02:00</time>
      </trkpt>
      <trkpt lat="48.94479" lon="6.04273">
        <ele>172.7002</ele>
        <time>2026-05-18T15:15:28+02:00</time>
      </trkpt>
      <trkpt lat="48.94485" lon="6.04272">
        <ele>172.2998</ele>
        <time>2026-05-18T15:15:29+02:00</time>
      </trkpt>
      <trkpt lat="48.94491" lon="6.04271">
        <ele>172.2002</ele>
        <time>2026-05-18T15:15:30+02:00</time>
      </trkpt>
      <trkpt lat="48.94497" lon="6.0427">
        <ele>172.10059</ele>
        <time>2026-05-18T15:15:31+02:00</time>
      </trkpt>
      <trkpt lat="48.94503" lon="6.04269">
        <ele>172.10059</ele>
        <time>2026-05-18T15:15:32+02:00</time>
      </trkpt>
      <trkpt lat="48.94508" lon="6.04268">
        <ele>172.10059</ele>
        <time>2026-05-18T15:15:33+02:00</time>
      </trkpt>
      <trkpt lat="48.94514" lon="6.04267">
        <ele>172.10059</ele>
        <time>2026-05-18T15:15:34+02:00</time>
      </trkpt>
      <trkpt lat="48.9452" lon="6.04266">
        <ele>172.10059</ele>
        <time>2026-05-18T15:15:35+02:00</time>
      </trkpt>
      <trkpt lat="48.94526" lon="6.04265">
        <ele>172.10059</ele>
        <time>2026-05-18T15:15:36+02:00</time>
      </trkpt>
      <trkpt lat="48.94532" lon="6.04264">
        <ele>172.10059</ele>
        <time>2026-05-18T15:15:37+02:00</time>
      </trkpt>
      <trkpt lat="48.94538" lon="6.04263">
        <ele>172.10059</ele>
        <time>2026-05-18T15:15:38+02:00</time>
      </trkpt>
      <trkpt lat="48.94544" lon="6.04262">
        <ele>172.10059</ele>
        <time>2026-05-18T15:15:39+02:00</time>
      </trkpt>
      <trkpt lat="48.9455" lon="6.04261">
        <ele>172.10059</ele>
        <time>2026-05-18T15:15:40+02:00</time>
      </trkpt>
      <trkpt lat="48.94556" lon="6.0426">
        <ele>172</ele>
        <time>2026-05-18T15:15:41+02:00</time>
      </trkpt>
      <trkpt lat="48.94562" lon="6.04259">
        <ele>172</ele>
        <time>2026-05-18T15:15:42+02:00</time>
      </trkpt>
      <trkpt lat="48.94568" lon="6.04258">
        <ele>172</ele>
        <time>2026-05-18T15:15:43+02:00</time>
      </trkpt>
      <trkpt lat="48.94574" lon="6.04257">
        <ele>172</ele>
        <time>2026-05-18T15:15:44+02:00</time>
      </trkpt>
      <trkpt lat="48.9458" lon="6.04256">
        <ele>172</ele>
        <time>2026-05-18T15:15:45+02:00</time>
      </trkpt>
      <trkpt lat="48.94586" lon="6.04255">
        <ele>172</ele>
        <time>2026-05-18T15:15:46+02:00</time>
      </trkpt>
      <trkpt lat="48.94592" lon="6.04254">
        <ele>172</ele>
        <time>2026-05-18T15:15:47+02:00</time>
      </trkpt>
      <trkpt lat="48.94598" lon="6.04253">
        <ele>172</ele>
        <time>2026-05-18T15:15:48+02:00</time>
      </trkpt>
      <trkpt lat="48.94603" lon="6.04252">
        <ele>172</ele>
        <time>2026-05-18T15:15:49+02:00</time>
      </trkpt>
      <trkpt lat="48.94609" lon="6.0425">
        <ele>172</ele>
        <time>2026-05-18T15:15:50+02:00</time>
      </trkpt>
      <trkpt lat="48.94615" lon="6.04249">
        <ele>172</ele>
        <time>2026-05-18T15:15:51+02:00</time>
      </trkpt>
      <trkpt lat="48.94621" lon="6.04248">
        <ele>172</ele>
        <time>2026-05-18T15:15:52+02:00</time>
      </trkpt>
      <trkpt lat="48.94626" lon="6.04247">
        <ele>172</ele>
        <time>2026-05-18T15:15:53+02:00</time>
      </trkpt>
      <trkpt lat="48.94632" lon="6.04245">
        <ele>172</ele>
        <time>2026-05-18T15:15:54+02:00</time>
      </trkpt>
      <trkpt lat="48.94638" lon="6.04244">
        <ele>172</ele>
        <time>2026-05-18T15:15:55+02:00</time>
      </trkpt>
      <trkpt lat="48.94644" lon="6.04243">
        <ele>172</ele>
        <time>2026-05-18T15:15:56+02:00</time>
      </trkpt>
      <trkpt lat="48.94649" lon="6.04241">
        <ele>172</ele>
        <time>2026-05-18T15:15:57+02:00</time>
      </trkpt>
      <trkpt lat="48.94655" lon="6.04239">
        <ele>172.10059</ele>
        <time>2026-05-18T15:15:58+02:00</time>
      </trkpt>
      <trkpt lat="48.94661" lon="6.04237">
        <ele>172.10059</ele>
        <time>2026-05-18T15:15:59+02:00</time>
      </trkpt>
      <trkpt lat="48.94666" lon="6.04236">
        <ele>172.10059</ele>
        <time>2026-05-18T15:16:00+02:00</time>
      </trkpt>
      <trkpt lat="48.94672" lon="6.04234">
        <ele>172.10059</ele>
        <time>2026-05-18T15:16:01+02:00</time>
      </trkpt>
      <trkpt lat="48.94677" lon="6.04232">
        <ele>172.10059</ele>
        <time>2026-05-18T15:16:02+02:00</time>
      </trkpt>
      <trkpt lat="48.94683" lon="6.0423">
        <ele>172.2002</ele>
        <time>2026-05-18T15:16:03+02:00</time>
      </trkpt>
      <trkpt lat="48.94689" lon="6.04229">
        <ele>172.2002</ele>
        <time>2026-05-18T15:16:04+02:00</time>
      </trkpt>
      <trkpt lat="48.94695" lon="6.04227">
        <ele>172.10059</ele>
        <time>2026-05-18T15:16:05+02:00</time>
      </trkpt>
      <trkpt lat="48.947" lon="6.04225">
        <ele>172.2002</ele>
        <time>2026-05-18T15:16:06+02:00</time>
      </trkpt>
      <trkpt lat="48.94706" lon="6.04223">
        <ele>172.2002</ele>
        <time>2026-05-18T15:16:07+02:00</time>
      </trkpt>
      <trkpt lat="48.94711" lon="6.04221">
        <ele>172.10059</ele>
        <time>2026-05-18T15:16:08+02:00</time>
      </trkpt>
      <trkpt lat="48.94716" lon="6.04219">
        <ele>172.10059</ele>
        <time>2026-05-18T15:16:09+02:00</time>
      </trkpt>
      <trkpt lat="48.94722" lon="6.04217">
        <ele>172</ele>
        <time>2026-05-18T15:16:10+02:00</time>
      </trkpt>
      <trkpt lat="48.94727" lon="6.04215">
        <ele>172</ele>
        <time>2026-05-18T15:16:11+02:00</time>
      </trkpt>
      <trkpt lat="48.94733" lon="6.04213">
        <ele>171.90039</ele>
        <time>2026-05-18T15:16:12+02:00</time>
      </trkpt>
      <trkpt lat="48.94738" lon="6.04211">
        <ele>171.90039</ele>
        <time>2026-05-18T15:16:13+02:00</time>
      </trkpt>
      <trkpt lat="48.94743" lon="6.04209">
        <ele>171.90039</ele>
        <time>2026-05-18T15:16:14+02:00</time>
      </trkpt>
      <trkpt lat="48.94749" lon="6.04207">
        <ele>171.90039</ele>
        <time>2026-05-18T15:16:15+02:00</time>
      </trkpt>
      <trkpt lat="48.94755" lon="6.04205">
        <ele>172</ele>
        <time>2026-05-18T15:16:16+02:00</time>
      </trkpt>
      <trkpt lat="48.9476" lon="6.04203">
        <ele>172</ele>
        <time>2026-05-18T15:16:17+02:00</time>
      </trkpt>
      <trkpt lat="48.94766" lon="6.04201">
        <ele>172.10059</ele>
        <time>2026-05-18T15:16:18+02:00</time>
      </trkpt>
      <trkpt lat="48.94771" lon="6.04199">
        <ele>172.10059</ele>
        <time>2026-05-18T15:16:19+02:00</time>
      </trkpt>
      <trkpt lat="48.94776" lon="6.04196">
        <ele>172.2002</ele>
        <time>2026-05-18T15:16:20+02:00</time>
      </trkpt>
      <trkpt lat="48.94782" lon="6.04194">
        <ele>172.2002</ele>
        <time>2026-05-18T15:16:21+02:00</time>
      </trkpt>
      <trkpt lat="48.94788" lon="6.04192">
        <ele>172.2002</ele>
        <time>2026-05-18T15:16:22+02:00</time>
      </trkpt>
      <trkpt lat="48.94793" lon="6.0419">
        <ele>172.2002</ele>
        <time>2026-05-18T15:16:23+02:00</time>
      </trkpt>
      <trkpt lat="48.94799" lon="6.04188">
        <ele>172.2002</ele>
        <time>2026-05-18T15:16:24+02:00</time>
      </trkpt>
      <trkpt lat="48.94805" lon="6.04185">
        <ele>172.10059</ele>
        <time>2026-05-18T15:16:25+02:00</time>
      </trkpt>
      <trkpt lat="48.9481" lon="6.04183">
        <ele>172.10059</ele>
        <time>2026-05-18T15:16:26+02:00</time>
      </trkpt>
      <trkpt lat="48.94816" lon="6.0418">
        <ele>172.10059</ele>
        <time>2026-05-18T15:16:27+02:00</time>
      </trkpt>
      <trkpt lat="48.94821" lon="6.04178">
        <ele>172</ele>
        <time>2026-05-18T15:16:28+02:00</time>
      </trkpt>
      <trkpt lat="48.94827" lon="6.04176">
        <ele>172</ele>
        <time>2026-05-18T15:16:29+02:00</time>
      </trkpt>
      <trkpt lat="48.94832" lon="6.04174">
        <ele>172</ele>
        <time>2026-05-18T15:16:30+02:00</time>
      </trkpt>
      <trkpt lat="48.94838" lon="6.04171">
        <ele>172</ele>
        <time>2026-05-18T15:16:31+02:00</time>
      </trkpt>
      <trkpt lat="48.94843" lon="6.04169">
        <ele>171.90039</ele>
        <time>2026-05-18T15:16:32+02:00</time>
      </trkpt>
      <trkpt lat="48.94849" lon="6.04167">
        <ele>171.90039</ele>
        <time>2026-05-18T15:16:33+02:00</time>
      </trkpt>
      <trkpt lat="48.94854" lon="6.04165">
        <ele>171.90039</ele>
        <time>2026-05-18T15:16:34+02:00</time>
      </trkpt>
      <trkpt lat="48.9486" lon="6.04162">
        <ele>171.90039</ele>
        <time>2026-05-18T15:16:35+02:00</time>
      </trkpt>
      <trkpt lat="48.94866" lon="6.0416">
        <ele>171.90039</ele>
        <time>2026-05-18T15:16:36+02:00</time>
      </trkpt>
      <trkpt lat="48.94871" lon="6.04157">
        <ele>171.90039</ele>
        <time>2026-05-18T15:16:37+02:00</time>
      </trkpt>
      <trkpt lat="48.94877" lon="6.04155">
        <ele>171.90039</ele>
        <time>2026-05-18T15:16:38+02:00</time>
      </trkpt>
      <trkpt lat="48.94883" lon="6.04152">
        <ele>172.10059</ele>
        <time>2026-05-18T15:16:39+02:00</time>
      </trkpt>
      <trkpt lat="48.94888" lon="6.04149">
        <ele>172.10059</ele>
        <time>2026-05-18T15:16:40+02:00</time>
      </trkpt>
      <trkpt lat="48.94894" lon="6.04146">
        <ele>172.10059</ele>
        <time>2026-05-18T15:16:41+02:00</time>
      </trkpt>
      <trkpt lat="48.94899" lon="6.04144">
        <ele>172.40039</ele>
        <time>2026-05-18T15:16:42+02:00</time>
      </trkpt>
      <trkpt lat="48.94905" lon="6.04141">
        <ele>172.2998</ele>
        <time>2026-05-18T15:16:43+02:00</time>
      </trkpt>
      <trkpt lat="48.94911" lon="6.04139">
        <ele>172.2002</ele>
        <time>2026-05-18T15:16:44+02:00</time>
      </trkpt>
      <trkpt lat="48.94917" lon="6.04136">
        <ele>171.90039</ele>
        <time>2026-05-18T15:16:45+02:00</time>
      </trkpt>
      <trkpt lat="48.94922" lon="6.04134">
        <ele>171.90039</ele>
        <time>2026-05-18T15:16:46+02:00</time>
      </trkpt>
      <trkpt lat="48.94928" lon="6.04131">
        <ele>171.90039</ele>
        <time>2026-05-18T15:16:47+02:00</time>
      </trkpt>
      <trkpt lat="48.94933" lon="6.04129">
        <ele>171.90039</ele>
        <time>2026-05-18T15:16:48+02:00</time>
      </trkpt>
      <trkpt lat="48.94939" lon="6.04127">
        <ele>171.7998</ele>
        <time>2026-05-18T15:16:49+02:00</time>
      </trkpt>
      <trkpt lat="48.94945" lon="6.04125">
        <ele>171.7998</ele>
        <time>2026-05-18T15:16:50+02:00</time>
      </trkpt>
      <trkpt lat="48.9495" lon="6.04122">
        <ele>171.7998</ele>
        <time>2026-05-18T15:16:51+02:00</time>
      </trkpt>
      <trkpt lat="48.94956" lon="6.04119">
        <ele>171.90039</ele>
        <time>2026-05-18T15:16:52+02:00</time>
      </trkpt>
      <trkpt lat="48.94961" lon="6.04117">
        <ele>171.90039</ele>
        <time>2026-05-18T15:16:53+02:00</time>
      </trkpt>
      <trkpt lat="48.94966" lon="6.04114">
        <ele>171.7998</ele>
        <time>2026-05-18T15:16:54+02:00</time>
      </trkpt>
      <trkpt lat="48.9497" lon="6.04112">
        <ele>171.7998</ele>
        <time>2026-05-18T15:16:55+02:00</time>
      </trkpt>
      <trkpt lat="48.94974" lon="6.0411">
        <ele>172.10059</ele>
        <time>2026-05-18T15:16:56+02:00</time>
      </trkpt>
      <trkpt lat="48.94978" lon="6.04108">
        <ele>172.10059</ele>
        <time>2026-05-18T15:16:57+02:00</time>
      </trkpt>
      <trkpt lat="48.94982" lon="6.04106">
        <ele>172.10059</ele>
        <time>2026-05-18T15:16:58+02:00</time>
      </trkpt>
      <trkpt lat="48.94986" lon="6.04104">
        <ele>172.10059</ele>
        <time>2026-05-18T15:16:59+02:00</time>
      </trkpt>
      <trkpt lat="48.94991" lon="6.04103">
        <ele>172.10059</ele>
        <time>2026-05-18T15:17:00+02:00</time>
      </trkpt>
      <trkpt lat="48.94995" lon="6.04101">
        <ele>172.60059</ele>
        <time>2026-05-18T15:17:01+02:00</time>
      </trkpt>
      <trkpt lat="48.95" lon="6.04099">
        <ele>172.5</ele>
        <time>2026-05-18T15:17:02+02:00</time>
      </trkpt>
      <trkpt lat="48.95006" lon="6.04098">
        <ele>172.40039</ele>
        <time>2026-05-18T15:17:03+02:00</time>
      </trkpt>
      <trkpt lat="48.95011" lon="6.04095">
        <ele>172.2998</ele>
        <time>2026-05-18T15:17:04+02:00</time>
      </trkpt>
      <trkpt lat="48.95016" lon="6.04093">
        <ele>172.2998</ele>
        <time>2026-05-18T15:17:05+02:00</time>
      </trkpt>
      <trkpt lat="48.95022" lon="6.04091">
        <ele>172.10059</ele>
        <time>2026-05-18T15:17:06+02:00</time>
      </trkpt>
      <trkpt lat="48.95027" lon="6.04089">
        <ele>172</ele>
        <time>2026-05-18T15:17:07+02:00</time>
      </trkpt>
      <trkpt lat="48.95033" lon="6.04086">
        <ele>172</ele>
        <time>2026-05-18T15:17:08+02:00</time>
      </trkpt>
      <trkpt lat="48.95038" lon="6.04084">
        <ele>171.90039</ele>
        <time>2026-05-18T15:17:09+02:00</time>
      </trkpt>
      <trkpt lat="48.95044" lon="6.04081">
        <ele>171.90039</ele>
        <time>2026-05-18T15:17:10+02:00</time>
      </trkpt>
      <trkpt lat="48.95049" lon="6.04079">
        <ele>171.90039</ele>
        <time>2026-05-18T15:17:11+02:00</time>
      </trkpt>
      <trkpt lat="48.95072" lon="6.0407">
        <ele>171.90039</ele>
        <time>2026-05-18T15:17:12+02:00</time>
      </trkpt>
      <trkpt lat="48.95078" lon="6.04067">
        <ele>172.10059</ele>
        <time>2026-05-18T15:17:13+02:00</time>
      </trkpt>
      <trkpt lat="48.95083" lon="6.04065">
        <ele>172.10059</ele>
        <time>2026-05-18T15:17:14+02:00</time>
      </trkpt>
      <trkpt lat="48.95089" lon="6.04063">
        <ele>172.2002</ele>
        <time>2026-05-18T15:17:15+02:00</time>
      </trkpt>
      <trkpt lat="48.95094" lon="6.04059">
        <ele>172.10059</ele>
        <time>2026-05-18T15:17:16+02:00</time>
      </trkpt>
      <trkpt lat="48.95099" lon="6.04055">
        <ele>172.10059</ele>
        <time>2026-05-18T15:17:17+02:00</time>
      </trkpt>
      <trkpt lat="48.95104" lon="6.04049">
        <ele>171.90039</ele>
        <time>2026-05-18T15:17:18+02:00</time>
      </trkpt>
      <trkpt lat="48.95107" lon="6.04042">
        <ele>171.90039</ele>
        <time>2026-05-18T15:17:19+02:00</time>
      </trkpt>
      <trkpt lat="48.95111" lon="6.04035">
        <ele>171.90039</ele>
        <time>2026-05-18T15:17:20+02:00</time>
      </trkpt>
      <trkpt lat="48.95114" lon="6.04027">
        <ele>172</ele>
        <time>2026-05-18T15:17:21+02:00</time>
      </trkpt>
      <trkpt lat="48.95117" lon="6.04019">
        <ele>172.40039</ele>
        <time>2026-05-18T15:17:22+02:00</time>
      </trkpt>
      <trkpt lat="48.9512" lon="6.04011">
        <ele>173.2998</ele>
        <time>2026-05-18T15:17:23+02:00</time>
      </trkpt>
      <trkpt lat="48.95125" lon="6.04005">
        <ele>174.2002</ele>
        <time>2026-05-18T15:17:24+02:00</time>
      </trkpt>
      <trkpt lat="48.95129" lon="6.04001">
        <ele>174.10059</ele>
        <time>2026-05-18T15:17:25+02:00</time>
      </trkpt>
      <trkpt lat="48.95134" lon="6.03998">
        <ele>174.60059</ele>
        <time>2026-05-18T15:17:26+02:00</time>
      </trkpt>
      <trkpt lat="48.9514" lon="6.03996">
        <ele>174</ele>
        <time>2026-05-18T15:17:27+02:00</time>
      </trkpt>
      <trkpt lat="48.95146" lon="6.03994">
        <ele>173.2002</ele>
        <time>2026-05-18T15:17:28+02:00</time>
      </trkpt>
      <trkpt lat="48.95152" lon="6.03992">
        <ele>172.40039</ele>
        <time>2026-05-18T15:17:29+02:00</time>
      </trkpt>
      <trkpt lat="48.95157" lon="6.0399">
        <ele>172.2002</ele>
        <time>2026-05-18T15:17:30+02:00</time>
      </trkpt>
      <trkpt lat="48.95163" lon="6.03988">
        <ele>172.2002</ele>
        <time>2026-05-18T15:17:31+02:00</time>
      </trkpt>
      <trkpt lat="48.95169" lon="6.03987">
        <ele>172.2002</ele>
        <time>2026-05-18T15:17:32+02:00</time>
      </trkpt>
      <trkpt lat="48.95175" lon="6.03985">
        <ele>172.2002</ele>
        <time>2026-05-18T15:17:33+02:00</time>
      </trkpt>
      <trkpt lat="48.95181" lon="6.03983">
        <ele>172.2002</ele>
        <time>2026-05-18T15:17:34+02:00</time>
      </trkpt>
      <trkpt lat="48.95186" lon="6.03981">
        <ele>172.5</ele>
        <time>2026-05-18T15:17:35+02:00</time>
      </trkpt>
      <trkpt lat="48.95192" lon="6.03979">
        <ele>172.5</ele>
        <time>2026-05-18T15:17:36+02:00</time>
      </trkpt>
      <trkpt lat="48.95198" lon="6.03977">
        <ele>172.40039</ele>
        <time>2026-05-18T15:17:37+02:00</time>
      </trkpt>
      <trkpt lat="48.95204" lon="6.03975">
        <ele>172.40039</ele>
        <time>2026-05-18T15:17:38+02:00</time>
      </trkpt>
      <trkpt lat="48.9521" lon="6.03974">
        <ele>172.2998</ele>
        <time>2026-05-18T15:17:39+02:00</time>
      </trkpt>
      <trkpt lat="48.95216" lon="6.03972">
        <ele>172.10059</ele>
        <time>2026-05-18T15:17:40+02:00</time>
      </trkpt>
      <trkpt lat="48.95221" lon="6.0397">
        <ele>172.10059</ele>
        <time>2026-05-18T15:17:41+02:00</time>
      </trkpt>
      <trkpt lat="48.95227" lon="6.03968">
        <ele>172</ele>
        <time>2026-05-18T15:17:42+02:00</time>
      </trkpt>
      <trkpt lat="48.95233" lon="6.03967">
        <ele>172</ele>
        <time>2026-05-18T15:17:43+02:00</time>
      </trkpt>
      <trkpt lat="48.95239" lon="6.03966">
        <ele>172</ele>
        <time>2026-05-18T15:17:44+02:00</time>
      </trkpt>
      <trkpt lat="48.95244" lon="6.03965">
        <ele>172</ele>
        <time>2026-05-18T15:17:45+02:00</time>
      </trkpt>
      <trkpt lat="48.95249" lon="6.03963">
        <ele>171.90039</ele>
        <time>2026-05-18T15:17:46+02:00</time>
      </trkpt>
      <trkpt lat="48.95255" lon="6.03962">
        <ele>171.90039</ele>
        <time>2026-05-18T15:17:47+02:00</time>
      </trkpt>
      <trkpt lat="48.9526" lon="6.03963">
        <ele>171.90039</ele>
        <time>2026-05-18T15:17:48+02:00</time>
      </trkpt>
      <trkpt lat="48.95265" lon="6.03964">
        <ele>171.90039</ele>
        <time>2026-05-18T15:17:49+02:00</time>
      </trkpt>
      <trkpt lat="48.9527" lon="6.03965">
        <ele>172.10059</ele>
        <time>2026-05-18T15:17:50+02:00</time>
      </trkpt>
      <trkpt lat="48.95275" lon="6.03966">
        <ele>172.10059</ele>
        <time>2026-05-18T15:17:51+02:00</time>
      </trkpt>
      <trkpt lat="48.95281" lon="6.03967">
        <ele>172.10059</ele>
        <time>2026-05-18T15:17:52+02:00</time>
      </trkpt>
      <trkpt lat="48.95286" lon="6.03969">
        <ele>172.10059</ele>
        <time>2026-05-18T15:17:53+02:00</time>
      </trkpt>
      <trkpt lat="48.95291" lon="6.0397">
        <ele>172.10059</ele>
        <time>2026-05-18T15:17:54+02:00</time>
      </trkpt>
      <trkpt lat="48.95297" lon="6.0397">
        <ele>172.10059</ele>
        <time>2026-05-18T15:17:55+02:00</time>
      </trkpt>
      <trkpt lat="48.95302" lon="6.03968">
        <ele>172.10059</ele>
        <time>2026-05-18T15:17:56+02:00</time>
      </trkpt>
      <trkpt lat="48.95308" lon="6.03966">
        <ele>172.10059</ele>
        <time>2026-05-18T15:17:57+02:00</time>
      </trkpt>
      <trkpt lat="48.95313" lon="6.03963">
        <ele>172</ele>
        <time>2026-05-18T15:17:58+02:00</time>
      </trkpt>
      <trkpt lat="48.95319" lon="6.03961">
        <ele>172</ele>
        <time>2026-05-18T15:17:59+02:00</time>
      </trkpt>
      <trkpt lat="48.95324" lon="6.03958">
        <ele>172</ele>
        <time>2026-05-18T15:18:00+02:00</time>
      </trkpt>
      <trkpt lat="48.9533" lon="6.03956">
        <ele>171.90039</ele>
        <time>2026-05-18T15:18:01+02:00</time>
      </trkpt>
      <trkpt lat="48.95335" lon="6.03953">
        <ele>171.90039</ele>
        <time>2026-05-18T15:18:02+02:00</time>
      </trkpt>
      <trkpt lat="48.9534" lon="6.03951">
        <ele>171.90039</ele>
        <time>2026-05-18T15:18:03+02:00</time>
      </trkpt>
      <trkpt lat="48.95346" lon="6.03949">
        <ele>171.90039</ele>
        <time>2026-05-18T15:18:04+02:00</time>
      </trkpt>
      <trkpt lat="48.95352" lon="6.03946">
        <ele>172</ele>
        <time>2026-05-18T15:18:05+02:00</time>
      </trkpt>
      <trkpt lat="48.95357" lon="6.03944">
        <ele>172</ele>
        <time>2026-05-18T15:18:06+02:00</time>
      </trkpt>
      <trkpt lat="48.95363" lon="6.03941">
        <ele>172</ele>
        <time>2026-05-18T15:18:07+02:00</time>
      </trkpt>
      <trkpt lat="48.95368" lon="6.03939">
        <ele>172.2998</ele>
        <time>2026-05-18T15:18:08+02:00</time>
      </trkpt>
      <trkpt lat="48.95374" lon="6.03936">
        <ele>172.2998</ele>
        <time>2026-05-18T15:18:09+02:00</time>
      </trkpt>
      <trkpt lat="48.95379" lon="6.03933">
        <ele>172.2998</ele>
        <time>2026-05-18T15:18:10+02:00</time>
      </trkpt>
      <trkpt lat="48.95385" lon="6.03931">
        <ele>172.2002</ele>
        <time>2026-05-18T15:18:11+02:00</time>
      </trkpt>
      <trkpt lat="48.9539" lon="6.03928">
        <ele>172.5</ele>
        <time>2026-05-18T15:18:12+02:00</time>
      </trkpt>
      <trkpt lat="48.95396" lon="6.03926">
        <ele>172.10059</ele>
        <time>2026-05-18T15:18:13+02:00</time>
      </trkpt>
      <trkpt lat="48.95402" lon="6.03923">
        <ele>172</ele>
        <time>2026-05-18T15:18:14+02:00</time>
      </trkpt>
      <trkpt lat="48.95407" lon="6.03921">
        <ele>171.7998</ele>
        <time>2026-05-18T15:18:15+02:00</time>
      </trkpt>
      <trkpt lat="48.95413" lon="6.03918">
        <ele>171.7998</ele>
        <time>2026-05-18T15:18:16+02:00</time>
      </trkpt>
      <trkpt lat="48.95419" lon="6.03915">
        <ele>171.7002</ele>
        <time>2026-05-18T15:18:17+02:00</time>
      </trkpt>
      <trkpt lat="48.95425" lon="6.03913">
        <ele>171.60059</ele>
        <time>2026-05-18T15:18:18+02:00</time>
      </trkpt>
      <trkpt lat="48.9543" lon="6.0391">
        <ele>171.2002</ele>
        <time>2026-05-18T15:18:19+02:00</time>
      </trkpt>
      <trkpt lat="48.95436" lon="6.03908">
        <ele>170.7998</ele>
        <time>2026-05-18T15:18:20+02:00</time>
      </trkpt>
      <trkpt lat="48.95442" lon="6.03905">
        <ele>170.60059</ele>
        <time>2026-05-18T15:18:21+02:00</time>
      </trkpt>
      <trkpt lat="48.95448" lon="6.03902">
        <ele>170.90039</ele>
        <time>2026-05-18T15:18:22+02:00</time>
      </trkpt>
      <trkpt lat="48.95453" lon="6.039">
        <ele>170.90039</ele>
        <time>2026-05-18T15:18:23+02:00</time>
      </trkpt>
      <trkpt lat="48.95459" lon="6.03898">
        <ele>171.10059</ele>
        <time>2026-05-18T15:18:24+02:00</time>
      </trkpt>
      <trkpt lat="48.95465" lon="6.03896">
        <ele>171.2002</ele>
        <time>2026-05-18T15:18:25+02:00</time>
      </trkpt>
      <trkpt lat="48.95471" lon="6.03893">
        <ele>171.2002</ele>
        <time>2026-05-18T15:18:26+02:00</time>
      </trkpt>
      <trkpt lat="48.95477" lon="6.0389">
        <ele>171.2002</ele>
        <time>2026-05-18T15:18:27+02:00</time>
      </trkpt>
      <trkpt lat="48.95482" lon="6.03888">
        <ele>171.2002</ele>
        <time>2026-05-18T15:18:28+02:00</time>
      </trkpt>
      <trkpt lat="48.95488" lon="6.03885">
        <ele>171.10059</ele>
        <time>2026-05-18T15:18:29+02:00</time>
      </trkpt>
      <trkpt lat="48.95494" lon="6.03883">
        <ele>171.10059</ele>
        <time>2026-05-18T15:18:30+02:00</time>
      </trkpt>
      <trkpt lat="48.95499" lon="6.03881">
        <ele>171.10059</ele>
        <time>2026-05-18T15:18:31+02:00</time>
      </trkpt>
      <trkpt lat="48.95505" lon="6.03878">
        <ele>170.90039</ele>
        <time>2026-05-18T15:18:32+02:00</time>
      </trkpt>
      <trkpt lat="48.9551" lon="6.03877">
        <ele>170.90039</ele>
        <time>2026-05-18T15:18:33+02:00</time>
      </trkpt>
      <trkpt lat="48.95515" lon="6.03875">
        <ele>170.90039</ele>
        <time>2026-05-18T15:18:34+02:00</time>
      </trkpt>
      <trkpt lat="48.9552" lon="6.03876">
        <ele>170.90039</ele>
        <time>2026-05-18T15:18:35+02:00</time>
      </trkpt>
      <trkpt lat="48.95525" lon="6.03877">
        <ele>170.90039</ele>
        <time>2026-05-18T15:18:36+02:00</time>
      </trkpt>
      <trkpt lat="48.95531" lon="6.03875">
        <ele>170.90039</ele>
        <time>2026-05-18T15:18:37+02:00</time>
      </trkpt>
      <trkpt lat="48.95535" lon="6.03871">
        <ele>170.90039</ele>
        <time>2026-05-18T15:18:38+02:00</time>
      </trkpt>
      <trkpt lat="48.9554" lon="6.03866">
        <ele>171</ele>
        <time>2026-05-18T15:18:39+02:00</time>
      </trkpt>
      <trkpt lat="48.95545" lon="6.03863">
        <ele>171</ele>
        <time>2026-05-18T15:18:40+02:00</time>
      </trkpt>
      <trkpt lat="48.9555" lon="6.03859">
        <ele>171.2002</ele>
        <time>2026-05-18T15:18:41+02:00</time>
      </trkpt>
      <trkpt lat="48.95555" lon="6.03857">
        <ele>171.2002</ele>
        <time>2026-05-18T15:18:42+02:00</time>
      </trkpt>
      <trkpt lat="48.95561" lon="6.03855">
        <ele>171.2002</ele>
        <time>2026-05-18T15:18:43+02:00</time>
      </trkpt>
      <trkpt lat="48.95566" lon="6.03853">
        <ele>171.10059</ele>
        <time>2026-05-18T15:18:44+02:00</time>
      </trkpt>
      <trkpt lat="48.95572" lon="6.0385">
        <ele>171.10059</ele>
        <time>2026-05-18T15:18:45+02:00</time>
      </trkpt>
      <trkpt lat="48.95577" lon="6.03847">
        <ele>171.2002</ele>
        <time>2026-05-18T15:18:46+02:00</time>
      </trkpt>
      <trkpt lat="48.95582" lon="6.03844">
        <ele>171</ele>
        <time>2026-05-18T15:18:47+02:00</time>
      </trkpt>
      <trkpt lat="48.95587" lon="6.03841">
        <ele>171</ele>
        <time>2026-05-18T15:18:48+02:00</time>
      </trkpt>
      <trkpt lat="48.95592" lon="6.03837">
        <ele>171</ele>
        <time>2026-05-18T15:18:49+02:00</time>
      </trkpt>
      <trkpt lat="48.95596" lon="6.03834">
        <ele>170.90039</ele>
        <time>2026-05-18T15:18:50+02:00</time>
      </trkpt>
      <trkpt lat="48.95601" lon="6.03831">
        <ele>170.90039</ele>
        <time>2026-05-18T15:18:51+02:00</time>
      </trkpt>
      <trkpt lat="48.95606" lon="6.03829">
        <ele>170.90039</ele>
        <time>2026-05-18T15:18:52+02:00</time>
      </trkpt>
      <trkpt lat="48.95611" lon="6.03827">
        <ele>170.90039</ele>
        <time>2026-05-18T15:18:53+02:00</time>
      </trkpt>
      <trkpt lat="48.95617" lon="6.03825">
        <ele>170.90039</ele>
        <time>2026-05-18T15:18:54+02:00</time>
      </trkpt>
      <trkpt lat="48.95623" lon="6.03824">
        <ele>170.90039</ele>
        <time>2026-05-18T15:18:55+02:00</time>
      </trkpt>
      <trkpt lat="48.95629" lon="6.03823">
        <ele>171</ele>
        <time>2026-05-18T15:18:56+02:00</time>
      </trkpt>
      <trkpt lat="48.95635" lon="6.03822">
        <ele>171.10059</ele>
        <time>2026-05-18T15:18:57+02:00</time>
      </trkpt>
      <trkpt lat="48.95641" lon="6.03821">
        <ele>171.10059</ele>
        <time>2026-05-18T15:18:58+02:00</time>
      </trkpt>
      <trkpt lat="48.95647" lon="6.03819">
        <ele>171.2002</ele>
        <time>2026-05-18T15:18:59+02:00</time>
      </trkpt>
      <trkpt lat="48.95653" lon="6.03817">
        <ele>171.2002</ele>
        <time>2026-05-18T15:19:00+02:00</time>
      </trkpt>
      <trkpt lat="48.95659" lon="6.03815">
        <ele>171.2002</ele>
        <time>2026-05-18T15:19:01+02:00</time>
      </trkpt>
      <trkpt lat="48.95665" lon="6.03812">
        <ele>171.2002</ele>
        <time>2026-05-18T15:19:02+02:00</time>
      </trkpt>
      <trkpt lat="48.95671" lon="6.0381">
        <ele>171.10059</ele>
        <time>2026-05-18T15:19:03+02:00</time>
      </trkpt>
      <trkpt lat="48.95677" lon="6.03808">
        <ele>171.10059</ele>
        <time>2026-05-18T15:19:04+02:00</time>
      </trkpt>
      <trkpt lat="48.95682" lon="6.03805">
        <ele>171.2002</ele>
        <time>2026-05-18T15:19:05+02:00</time>
      </trkpt>
      <trkpt lat="48.95688" lon="6.03803">
        <ele>171.2002</ele>
        <time>2026-05-18T15:19:06+02:00</time>
      </trkpt>
      <trkpt lat="48.95693" lon="6.03801">
        <ele>171</ele>
        <time>2026-05-18T15:19:07+02:00</time>
      </trkpt>
      <trkpt lat="48.95699" lon="6.03799">
        <ele>171</ele>
        <time>2026-05-18T15:19:08+02:00</time>
      </trkpt>
      <trkpt lat="48.95704" lon="6.03797">
        <ele>171</ele>
        <time>2026-05-18T15:19:09+02:00</time>
      </trkpt>
      <trkpt lat="48.9571" lon="6.03795">
        <ele>171</ele>
        <time>2026-05-18T15:19:10+02:00</time>
      </trkpt>
      <trkpt lat="48.95715" lon="6.03793">
        <ele>170.90039</ele>
        <time>2026-05-18T15:19:11+02:00</time>
      </trkpt>
      <trkpt lat="48.9572" lon="6.03791">
        <ele>171</ele>
        <time>2026-05-18T15:19:12+02:00</time>
      </trkpt>
      <trkpt lat="48.95726" lon="6.03789">
        <ele>171.10059</ele>
        <time>2026-05-18T15:19:13+02:00</time>
      </trkpt>
      <trkpt lat="48.95731" lon="6.03786">
        <ele>171.2002</ele>
        <time>2026-05-18T15:19:14+02:00</time>
      </trkpt>
      <trkpt lat="48.95737" lon="6.03784">
        <ele>171.2002</ele>
        <time>2026-05-18T15:19:15+02:00</time>
      </trkpt>
      <trkpt lat="48.95743" lon="6.03782">
        <ele>171.2002</ele>
        <time>2026-05-18T15:19:16+02:00</time>
      </trkpt>
      <trkpt lat="48.95748" lon="6.0378">
        <ele>171.2002</ele>
        <time>2026-05-18T15:19:17+02:00</time>
      </trkpt>
      <trkpt lat="48.95753" lon="6.03778">
        <ele>171.2002</ele>
        <time>2026-05-18T15:19:18+02:00</time>
      </trkpt>
      <trkpt lat="48.95759" lon="6.03775">
        <ele>171.2002</ele>
        <time>2026-05-18T15:19:19+02:00</time>
      </trkpt>
      <trkpt lat="48.95765" lon="6.03773">
        <ele>171.2002</ele>
        <time>2026-05-18T15:19:20+02:00</time>
      </trkpt>
      <trkpt lat="48.9577" lon="6.03771">
        <ele>171.2002</ele>
        <time>2026-05-18T15:19:21+02:00</time>
      </trkpt>
      <trkpt lat="48.95775" lon="6.03768">
        <ele>171.2002</ele>
        <time>2026-05-18T15:19:22+02:00</time>
      </trkpt>
      <trkpt lat="48.95781" lon="6.03766">
        <ele>171.10059</ele>
        <time>2026-05-18T15:19:23+02:00</time>
      </trkpt>
      <trkpt lat="48.95786" lon="6.03764">
        <ele>171.10059</ele>
        <time>2026-05-18T15:19:24+02:00</time>
      </trkpt>
      <trkpt lat="48.95792" lon="6.03761">
        <ele>171.10059</ele>
        <time>2026-05-18T15:19:25+02:00</time>
      </trkpt>
      <trkpt lat="48.95797" lon="6.03759">
        <ele>171.10059</ele>
        <time>2026-05-18T15:19:26+02:00</time>
      </trkpt>
      <trkpt lat="48.95803" lon="6.03756">
        <ele>171</ele>
        <time>2026-05-18T15:19:27+02:00</time>
      </trkpt>
      <trkpt lat="48.95808" lon="6.03754">
        <ele>171.10059</ele>
        <time>2026-05-18T15:19:28+02:00</time>
      </trkpt>
      <trkpt lat="48.95814" lon="6.03751">
        <ele>171.10059</ele>
        <time>2026-05-18T15:19:29+02:00</time>
      </trkpt>
      <trkpt lat="48.95819" lon="6.03748">
        <ele>171.2002</ele>
        <time>2026-05-18T15:19:30+02:00</time>
      </trkpt>
      <trkpt lat="48.95825" lon="6.03746">
        <ele>171.2002</ele>
        <time>2026-05-18T15:19:31+02:00</time>
      </trkpt>
      <trkpt lat="48.9583" lon="6.03743">
        <ele>171.2002</ele>
        <time>2026-05-18T15:19:32+02:00</time>
      </trkpt>
      <trkpt lat="48.95835" lon="6.0374">
        <ele>171.2002</ele>
        <time>2026-05-18T15:19:33+02:00</time>
      </trkpt>
      <trkpt lat="48.95841" lon="6.03738">
        <ele>171.2002</ele>
        <time>2026-05-18T15:19:34+02:00</time>
      </trkpt>
      <trkpt lat="48.95846" lon="6.03735">
        <ele>171.2002</ele>
        <time>2026-05-18T15:19:35+02:00</time>
      </trkpt>
      <trkpt lat="48.95852" lon="6.03732">
        <ele>171.2002</ele>
        <time>2026-05-18T15:19:36+02:00</time>
      </trkpt>
      <trkpt lat="48.95857" lon="6.03729">
        <ele>171.2002</ele>
        <time>2026-05-18T15:19:37+02:00</time>
      </trkpt>
      <trkpt lat="48.95863" lon="6.03726">
        <ele>171.10059</ele>
        <time>2026-05-18T15:19:38+02:00</time>
      </trkpt>
      <trkpt lat="48.95868" lon="6.03724">
        <ele>171.10059</ele>
        <time>2026-05-18T15:19:39+02:00</time>
      </trkpt>
      <trkpt lat="48.95874" lon="6.03721">
        <ele>171.10059</ele>
        <time>2026-05-18T15:19:40+02:00</time>
      </trkpt>
      <trkpt lat="48.95879" lon="6.03719">
        <ele>171.10059</ele>
        <time>2026-05-18T15:19:41+02:00</time>
      </trkpt>
      <trkpt lat="48.95885" lon="6.03717">
        <ele>171.10059</ele>
        <time>2026-05-18T15:19:42+02:00</time>
      </trkpt>
      <trkpt lat="48.9589" lon="6.03714">
        <ele>171</ele>
        <time>2026-05-18T15:19:43+02:00</time>
      </trkpt>
      <trkpt lat="48.95896" lon="6.03712">
        <ele>171</ele>
        <time>2026-05-18T15:19:44+02:00</time>
      </trkpt>
      <trkpt lat="48.95901" lon="6.03709">
        <ele>171</ele>
        <time>2026-05-18T15:19:45+02:00</time>
      </trkpt>
      <trkpt lat="48.95907" lon="6.03705">
        <ele>170.90039</ele>
        <time>2026-05-18T15:19:46+02:00</time>
      </trkpt>
      <trkpt lat="48.95912" lon="6.03702">
        <ele>170.90039</ele>
        <time>2026-05-18T15:19:47+02:00</time>
      </trkpt>
      <trkpt lat="48.95918" lon="6.03699">
        <ele>171</ele>
        <time>2026-05-18T15:19:48+02:00</time>
      </trkpt>
      <trkpt lat="48.95923" lon="6.03696">
        <ele>171.10059</ele>
        <time>2026-05-18T15:19:49+02:00</time>
      </trkpt>
      <trkpt lat="48.95928" lon="6.03692">
        <ele>171.10059</ele>
        <time>2026-05-18T15:19:50+02:00</time>
      </trkpt>
      <trkpt lat="48.95933" lon="6.03688">
        <ele>171.10059</ele>
        <time>2026-05-18T15:19:51+02:00</time>
      </trkpt>
      <trkpt lat="48.95939" lon="6.03685">
        <ele>171.10059</ele>
        <time>2026-05-18T15:19:52+02:00</time>
      </trkpt>
      <trkpt lat="48.95944" lon="6.03682">
        <ele>171.10059</ele>
        <time>2026-05-18T15:19:53+02:00</time>
      </trkpt>
      <trkpt lat="48.9595" lon="6.03679">
        <ele>171.10059</ele>
        <time>2026-05-18T15:19:54+02:00</time>
      </trkpt>
      <trkpt lat="48.95955" lon="6.03676">
        <ele>171.10059</ele>
        <time>2026-05-18T15:19:55+02:00</time>
      </trkpt>
      <trkpt lat="48.95961" lon="6.03673">
        <ele>171.10059</ele>
        <time>2026-05-18T15:19:56+02:00</time>
      </trkpt>
      <trkpt lat="48.95966" lon="6.0367">
        <ele>171</ele>
        <time>2026-05-18T15:19:57+02:00</time>
      </trkpt>
      <trkpt lat="48.95972" lon="6.03668">
        <ele>171</ele>
        <time>2026-05-18T15:19:58+02:00</time>
      </trkpt>
      <trkpt lat="48.95978" lon="6.03665">
        <ele>171</ele>
        <time>2026-05-18T15:19:59+02:00</time>
      </trkpt>
      <trkpt lat="48.95984" lon="6.03663">
        <ele>171</ele>
        <time>2026-05-18T15:20:00+02:00</time>
      </trkpt>
      <trkpt lat="48.95989" lon="6.0366">
        <ele>171</ele>
        <time>2026-05-18T15:20:01+02:00</time>
      </trkpt>
      <trkpt lat="48.95995" lon="6.03658">
        <ele>171</ele>
        <time>2026-05-18T15:20:02+02:00</time>
      </trkpt>
      <trkpt lat="48.96001" lon="6.03655">
        <ele>171.10059</ele>
        <time>2026-05-18T15:20:03+02:00</time>
      </trkpt>
      <trkpt lat="48.96006" lon="6.03653">
        <ele>171.10059</ele>
        <time>2026-05-18T15:20:04+02:00</time>
      </trkpt>
      <trkpt lat="48.96012" lon="6.0365">
        <ele>171.10059</ele>
        <time>2026-05-18T15:20:05+02:00</time>
      </trkpt>
      <trkpt lat="48.96018" lon="6.03648">
        <ele>171.10059</ele>
        <time>2026-05-18T15:20:06+02:00</time>
      </trkpt>
      <trkpt lat="48.96023" lon="6.03646">
        <ele>171.10059</ele>
        <time>2026-05-18T15:20:07+02:00</time>
      </trkpt>
      <trkpt lat="48.96029" lon="6.03644">
        <ele>171.10059</ele>
        <time>2026-05-18T15:20:08+02:00</time>
      </trkpt>
      <trkpt lat="48.96035" lon="6.03641">
        <ele>171.10059</ele>
        <time>2026-05-18T15:20:09+02:00</time>
      </trkpt>
      <trkpt lat="48.9604" lon="6.03639">
        <ele>171.10059</ele>
        <time>2026-05-18T15:20:10+02:00</time>
      </trkpt>
      <trkpt lat="48.96046" lon="6.03637">
        <ele>171.10059</ele>
        <time>2026-05-18T15:20:11+02:00</time>
      </trkpt>
      <trkpt lat="48.96052" lon="6.03634">
        <ele>171.10059</ele>
        <time>2026-05-18T15:20:12+02:00</time>
      </trkpt>
      <trkpt lat="48.96058" lon="6.03632">
        <ele>171.10059</ele>
        <time>2026-05-18T15:20:13+02:00</time>
      </trkpt>
      <trkpt lat="48.96064" lon="6.03629">
        <ele>171</ele>
        <time>2026-05-18T15:20:14+02:00</time>
      </trkpt>
      <trkpt lat="48.9607" lon="6.03627">
        <ele>171</ele>
        <time>2026-05-18T15:20:15+02:00</time>
      </trkpt>
      <trkpt lat="48.96076" lon="6.03624">
        <ele>170.90039</ele>
        <time>2026-05-18T15:20:16+02:00</time>
      </trkpt>
      <trkpt lat="48.96082" lon="6.03622">
        <ele>170.90039</ele>
        <time>2026-05-18T15:20:17+02:00</time>
      </trkpt>
      <trkpt lat="48.96087" lon="6.03619">
        <ele>170.90039</ele>
        <time>2026-05-18T15:20:18+02:00</time>
      </trkpt>
      <trkpt lat="48.96094" lon="6.03617">
        <ele>170.90039</ele>
        <time>2026-05-18T15:20:19+02:00</time>
      </trkpt>
      <trkpt lat="48.961" lon="6.03614">
        <ele>170.90039</ele>
        <time>2026-05-18T15:20:20+02:00</time>
      </trkpt>
      <trkpt lat="48.96105" lon="6.03612">
        <ele>171</ele>
        <time>2026-05-18T15:20:21+02:00</time>
      </trkpt>
      <trkpt lat="48.96111" lon="6.03609">
        <ele>171</ele>
        <time>2026-05-18T15:20:22+02:00</time>
      </trkpt>
      <trkpt lat="48.96117" lon="6.03607">
        <ele>171</ele>
        <time>2026-05-18T15:20:23+02:00</time>
      </trkpt>
      <trkpt lat="48.96123" lon="6.03604">
        <ele>171.2002</ele>
        <time>2026-05-18T15:20:24+02:00</time>
      </trkpt>
      <trkpt lat="48.96129" lon="6.03602">
        <ele>171.10059</ele>
        <time>2026-05-18T15:20:25+02:00</time>
      </trkpt>
      <trkpt lat="48.96135" lon="6.03599">
        <ele>171.10059</ele>
        <time>2026-05-18T15:20:26+02:00</time>
      </trkpt>
      <trkpt lat="48.9614" lon="6.03597">
        <ele>171.10059</ele>
        <time>2026-05-18T15:20:27+02:00</time>
      </trkpt>
      <trkpt lat="48.96147" lon="6.03595">
        <ele>171</ele>
        <time>2026-05-18T15:20:28+02:00</time>
      </trkpt>
      <trkpt lat="48.96152" lon="6.03592">
        <ele>170.90039</ele>
        <time>2026-05-18T15:20:29+02:00</time>
      </trkpt>
      <trkpt lat="48.96158" lon="6.03589">
        <ele>171</ele>
        <time>2026-05-18T15:20:30+02:00</time>
      </trkpt>
      <trkpt lat="48.96164" lon="6.03586">
        <ele>170.7998</ele>
        <time>2026-05-18T15:20:31+02:00</time>
      </trkpt>
      <trkpt lat="48.9617" lon="6.03583">
        <ele>170.7998</ele>
        <time>2026-05-18T15:20:32+02:00</time>
      </trkpt>
      <trkpt lat="48.96176" lon="6.0358">
        <ele>170.7998</ele>
        <time>2026-05-18T15:20:33+02:00</time>
      </trkpt>
      <trkpt lat="48.96181" lon="6.03576">
        <ele>170.90039</ele>
        <time>2026-05-18T15:20:34+02:00</time>
      </trkpt>
      <trkpt lat="48.96186" lon="6.03573">
        <ele>170.90039</ele>
        <time>2026-05-18T15:20:35+02:00</time>
      </trkpt>
      <trkpt lat="48.96192" lon="6.0357">
        <ele>170.90039</ele>
        <time>2026-05-18T15:20:36+02:00</time>
      </trkpt>
      <trkpt lat="48.96198" lon="6.03568">
        <ele>171.10059</ele>
        <time>2026-05-18T15:20:37+02:00</time>
      </trkpt>
      <trkpt lat="48.96204" lon="6.03567">
        <ele>171.10059</ele>
        <time>2026-05-18T15:20:38+02:00</time>
      </trkpt>
      <trkpt lat="48.9621" lon="6.03565">
        <ele>171.10059</ele>
        <time>2026-05-18T15:20:39+02:00</time>
      </trkpt>
      <trkpt lat="48.96216" lon="6.03563">
        <ele>171.10059</ele>
        <time>2026-05-18T15:20:40+02:00</time>
      </trkpt>
      <trkpt lat="48.96221" lon="6.03561">
        <ele>171.10059</ele>
        <time>2026-05-18T15:20:41+02:00</time>
      </trkpt>
      <trkpt lat="48.96227" lon="6.03559">
        <ele>171.10059</ele>
        <time>2026-05-18T15:20:42+02:00</time>
      </trkpt>
      <trkpt lat="48.96233" lon="6.03557">
        <ele>171.10059</ele>
        <time>2026-05-18T15:20:43+02:00</time>
      </trkpt>
      <trkpt lat="48.96238" lon="6.03554">
        <ele>171.10059</ele>
        <time>2026-05-18T15:20:44+02:00</time>
      </trkpt>
      <trkpt lat="48.96244" lon="6.03552">
        <ele>170.90039</ele>
        <time>2026-05-18T15:20:45+02:00</time>
      </trkpt>
      <trkpt lat="48.9625" lon="6.03549">
        <ele>170.90039</ele>
        <time>2026-05-18T15:20:46+02:00</time>
      </trkpt>
      <trkpt lat="48.96255" lon="6.03547">
        <ele>170.90039</ele>
        <time>2026-05-18T15:20:47+02:00</time>
      </trkpt>
      <trkpt lat="48.96261" lon="6.03544">
        <ele>170.7998</ele>
        <time>2026-05-18T15:20:48+02:00</time>
      </trkpt>
      <trkpt lat="48.96267" lon="6.03542">
        <ele>170.7998</ele>
        <time>2026-05-18T15:20:49+02:00</time>
      </trkpt>
      <trkpt lat="48.96273" lon="6.03539">
        <ele>170.7998</ele>
        <time>2026-05-18T15:20:50+02:00</time>
      </trkpt>
      <trkpt lat="48.96279" lon="6.03537">
        <ele>170.7998</ele>
        <time>2026-05-18T15:20:51+02:00</time>
      </trkpt>
      <trkpt lat="48.96285" lon="6.03534">
        <ele>170.90039</ele>
        <time>2026-05-18T15:20:52+02:00</time>
      </trkpt>
      <trkpt lat="48.9629" lon="6.03532">
        <ele>170.90039</ele>
        <time>2026-05-18T15:20:53+02:00</time>
      </trkpt>
      <trkpt lat="48.96296" lon="6.03529">
        <ele>171</ele>
        <time>2026-05-18T15:20:54+02:00</time>
      </trkpt>
      <trkpt lat="48.96302" lon="6.03527">
        <ele>171.10059</ele>
        <time>2026-05-18T15:20:55+02:00</time>
      </trkpt>
      <trkpt lat="48.96308" lon="6.03524">
        <ele>171.10059</ele>
        <time>2026-05-18T15:20:56+02:00</time>
      </trkpt>
      <trkpt lat="48.96314" lon="6.03522">
        <ele>171.10059</ele>
        <time>2026-05-18T15:20:57+02:00</time>
      </trkpt>
      <trkpt lat="48.9632" lon="6.03519">
        <ele>171.10059</ele>
        <time>2026-05-18T15:20:58+02:00</time>
      </trkpt>
      <trkpt lat="48.96325" lon="6.03517">
        <ele>171.10059</ele>
        <time>2026-05-18T15:20:59+02:00</time>
      </trkpt>
      <trkpt lat="48.96331" lon="6.03515">
        <ele>171.10059</ele>
        <time>2026-05-18T15:21:00+02:00</time>
      </trkpt>
      <trkpt lat="48.96337" lon="6.03512">
        <ele>171.10059</ele>
        <time>2026-05-18T15:21:01+02:00</time>
      </trkpt>
      <trkpt lat="48.96343" lon="6.0351">
        <ele>171.10059</ele>
        <time>2026-05-18T15:21:02+02:00</time>
      </trkpt>
      <trkpt lat="48.96349" lon="6.03507">
        <ele>171</ele>
        <time>2026-05-18T15:21:03+02:00</time>
      </trkpt>
      <trkpt lat="48.96354" lon="6.03504">
        <ele>171</ele>
        <time>2026-05-18T15:21:04+02:00</time>
      </trkpt>
      <trkpt lat="48.9636" lon="6.03502">
        <ele>171</ele>
        <time>2026-05-18T15:21:05+02:00</time>
      </trkpt>
      <trkpt lat="48.96366" lon="6.03499">
        <ele>170.90039</ele>
        <time>2026-05-18T15:21:06+02:00</time>
      </trkpt>
      <trkpt lat="48.96372" lon="6.03496">
        <ele>170.90039</ele>
        <time>2026-05-18T15:21:07+02:00</time>
      </trkpt>
      <trkpt lat="48.96378" lon="6.03494">
        <ele>170.7998</ele>
        <time>2026-05-18T15:21:08+02:00</time>
      </trkpt>
      <trkpt lat="48.96383" lon="6.03491">
        <ele>170.90039</ele>
        <time>2026-05-18T15:21:09+02:00</time>
      </trkpt>
      <trkpt lat="48.96389" lon="6.03488">
        <ele>170.90039</ele>
        <time>2026-05-18T15:21:10+02:00</time>
      </trkpt>
      <trkpt lat="48.96395" lon="6.03486">
        <ele>170.90039</ele>
        <time>2026-05-18T15:21:11+02:00</time>
      </trkpt>
      <trkpt lat="48.96401" lon="6.03484">
        <ele>171.10059</ele>
        <time>2026-05-18T15:21:12+02:00</time>
      </trkpt>
      <trkpt lat="48.96406" lon="6.03482">
        <ele>171.10059</ele>
        <time>2026-05-18T15:21:13+02:00</time>
      </trkpt>
      <trkpt lat="48.96412" lon="6.03479">
        <ele>171.10059</ele>
        <time>2026-05-18T15:21:14+02:00</time>
      </trkpt>
      <trkpt lat="48.96418" lon="6.03476">
        <ele>171.10059</ele>
        <time>2026-05-18T15:21:15+02:00</time>
      </trkpt>
      <trkpt lat="48.96424" lon="6.03474">
        <ele>171.10059</ele>
        <time>2026-05-18T15:21:16+02:00</time>
      </trkpt>
      <trkpt lat="48.9643" lon="6.03471">
        <ele>171.10059</ele>
        <time>2026-05-18T15:21:17+02:00</time>
      </trkpt>
      <trkpt lat="48.96435" lon="6.03468">
        <ele>171.10059</ele>
        <time>2026-05-18T15:21:18+02:00</time>
      </trkpt>
      <trkpt lat="48.96441" lon="6.03466">
        <ele>170.90039</ele>
        <time>2026-05-18T15:21:19+02:00</time>
      </trkpt>
      <trkpt lat="48.96447" lon="6.03463">
        <ele>170.90039</ele>
        <time>2026-05-18T15:21:20+02:00</time>
      </trkpt>
      <trkpt lat="48.96453" lon="6.0346">
        <ele>170.90039</ele>
        <time>2026-05-18T15:21:21+02:00</time>
      </trkpt>
      <trkpt lat="48.96459" lon="6.03458">
        <ele>170.90039</ele>
        <time>2026-05-18T15:21:22+02:00</time>
      </trkpt>
      <trkpt lat="48.96465" lon="6.03455">
        <ele>170.90039</ele>
        <time>2026-05-18T15:21:23+02:00</time>
      </trkpt>
      <trkpt lat="48.96471" lon="6.03453">
        <ele>170.90039</ele>
        <time>2026-05-18T15:21:24+02:00</time>
      </trkpt>
      <trkpt lat="48.96477" lon="6.0345">
        <ele>170.90039</ele>
        <time>2026-05-18T15:21:25+02:00</time>
      </trkpt>
      <trkpt lat="48.96483" lon="6.03448">
        <ele>171</ele>
        <time>2026-05-18T15:21:26+02:00</time>
      </trkpt>
      <trkpt lat="48.96488" lon="6.03445">
        <ele>171</ele>
        <time>2026-05-18T15:21:27+02:00</time>
      </trkpt>
      <trkpt lat="48.96494" lon="6.03442">
        <ele>171</ele>
        <time>2026-05-18T15:21:28+02:00</time>
      </trkpt>
      <trkpt lat="48.965" lon="6.0344">
        <ele>171.10059</ele>
        <time>2026-05-18T15:21:29+02:00</time>
      </trkpt>
      <trkpt lat="48.96506" lon="6.03437">
        <ele>171.10059</ele>
        <time>2026-05-18T15:21:30+02:00</time>
      </trkpt>
      <trkpt lat="48.96512" lon="6.03435">
        <ele>171.10059</ele>
        <time>2026-05-18T15:21:31+02:00</time>
      </trkpt>
      <trkpt lat="48.96517" lon="6.03432">
        <ele>171.10059</ele>
        <time>2026-05-18T15:21:32+02:00</time>
      </trkpt>
      <trkpt lat="48.96523" lon="6.0343">
        <ele>171.10059</ele>
        <time>2026-05-18T15:21:33+02:00</time>
      </trkpt>
      <trkpt lat="48.96529" lon="6.03427">
        <ele>171.10059</ele>
        <time>2026-05-18T15:21:34+02:00</time>
      </trkpt>
      <trkpt lat="48.96535" lon="6.03425">
        <ele>171.10059</ele>
        <time>2026-05-18T15:21:35+02:00</time>
      </trkpt>
      <trkpt lat="48.96541" lon="6.03423">
        <ele>171</ele>
        <time>2026-05-18T15:21:36+02:00</time>
      </trkpt>
      <trkpt lat="48.96547" lon="6.0342">
        <ele>171</ele>
        <time>2026-05-18T15:21:37+02:00</time>
      </trkpt>
      <trkpt lat="48.96552" lon="6.03417">
        <ele>170.90039</ele>
        <time>2026-05-18T15:21:38+02:00</time>
      </trkpt>
      <trkpt lat="48.96559" lon="6.03415">
        <ele>170.90039</ele>
        <time>2026-05-18T15:21:39+02:00</time>
      </trkpt>
      <trkpt lat="48.96564" lon="6.03412">
        <ele>170.90039</ele>
        <time>2026-05-18T15:21:40+02:00</time>
      </trkpt>
      <trkpt lat="48.9657" lon="6.0341">
        <ele>170.90039</ele>
        <time>2026-05-18T15:21:41+02:00</time>
      </trkpt>
      <trkpt lat="48.96576" lon="6.03407">
        <ele>170.90039</ele>
        <time>2026-05-18T15:21:42+02:00</time>
      </trkpt>
      <trkpt lat="48.96582" lon="6.03404">
        <ele>171</ele>
        <time>2026-05-18T15:21:43+02:00</time>
      </trkpt>
      <trkpt lat="48.96588" lon="6.03402">
        <ele>170.90039</ele>
        <time>2026-05-18T15:21:44+02:00</time>
      </trkpt>
      <trkpt lat="48.96594" lon="6.03399">
        <ele>170.90039</ele>
        <time>2026-05-18T15:21:45+02:00</time>
      </trkpt>
      <trkpt lat="48.96599" lon="6.03396">
        <ele>171.10059</ele>
        <time>2026-05-18T15:21:46+02:00</time>
      </trkpt>
      <trkpt lat="48.96605" lon="6.03393">
        <ele>171.10059</ele>
        <time>2026-05-18T15:21:47+02:00</time>
      </trkpt>
      <trkpt lat="48.96611" lon="6.03391">
        <ele>171.10059</ele>
        <time>2026-05-18T15:21:48+02:00</time>
      </trkpt>
      <trkpt lat="48.96617" lon="6.03389">
        <ele>171.10059</ele>
        <time>2026-05-18T15:21:49+02:00</time>
      </trkpt>
      <trkpt lat="48.96623" lon="6.03386">
        <ele>171.10059</ele>
        <time>2026-05-18T15:21:50+02:00</time>
      </trkpt>
      <trkpt lat="48.96629" lon="6.03383">
        <ele>171.10059</ele>
        <time>2026-05-18T15:21:51+02:00</time>
      </trkpt>
      <trkpt lat="48.96634" lon="6.03381">
        <ele>170.90039</ele>
        <time>2026-05-18T15:21:52+02:00</time>
      </trkpt>
      <trkpt lat="48.96641" lon="6.03378">
        <ele>170.90039</ele>
        <time>2026-05-18T15:21:53+02:00</time>
      </trkpt>
      <trkpt lat="48.96646" lon="6.03375">
        <ele>170.90039</ele>
        <time>2026-05-18T15:21:54+02:00</time>
      </trkpt>
      <trkpt lat="48.96652" lon="6.03373">
        <ele>170.90039</ele>
        <time>2026-05-18T15:21:55+02:00</time>
      </trkpt>
      <trkpt lat="48.96658" lon="6.0337">
        <ele>170.90039</ele>
        <time>2026-05-18T15:21:56+02:00</time>
      </trkpt>
      <trkpt lat="48.96664" lon="6.03368">
        <ele>170.90039</ele>
        <time>2026-05-18T15:21:57+02:00</time>
      </trkpt>
      <trkpt lat="48.9667" lon="6.03365">
        <ele>170.90039</ele>
        <time>2026-05-18T15:21:58+02:00</time>
      </trkpt>
      <trkpt lat="48.96676" lon="6.03363">
        <ele>171</ele>
        <time>2026-05-18T15:21:59+02:00</time>
      </trkpt>
      <trkpt lat="48.96682" lon="6.0336">
        <ele>171</ele>
        <time>2026-05-18T15:22:00+02:00</time>
      </trkpt>
      <trkpt lat="48.96687" lon="6.03357">
        <ele>171</ele>
        <time>2026-05-18T15:22:01+02:00</time>
      </trkpt>
      <trkpt lat="48.96694" lon="6.03355">
        <ele>171.2002</ele>
        <time>2026-05-18T15:22:02+02:00</time>
      </trkpt>
      <trkpt lat="48.96699" lon="6.03352">
        <ele>171.10059</ele>
        <time>2026-05-18T15:22:03+02:00</time>
      </trkpt>
      <trkpt lat="48.96705" lon="6.0335">
        <ele>171.10059</ele>
        <time>2026-05-18T15:22:04+02:00</time>
      </trkpt>
      <trkpt lat="48.96711" lon="6.03347">
        <ele>171.10059</ele>
        <time>2026-05-18T15:22:05+02:00</time>
      </trkpt>
      <trkpt lat="48.96717" lon="6.03345">
        <ele>171</ele>
        <time>2026-05-18T15:22:06+02:00</time>
      </trkpt>
      <trkpt lat="48.96723" lon="6.03342">
        <ele>171</ele>
        <time>2026-05-18T15:22:07+02:00</time>
      </trkpt>
      <trkpt lat="48.96729" lon="6.0334">
        <ele>171</ele>
        <time>2026-05-18T15:22:08+02:00</time>
      </trkpt>
      <trkpt lat="48.96735" lon="6.03337">
        <ele>170.90039</ele>
        <time>2026-05-18T15:22:09+02:00</time>
      </trkpt>
      <trkpt lat="48.96741" lon="6.03334">
        <ele>170.90039</ele>
        <time>2026-05-18T15:22:10+02:00</time>
      </trkpt>
      <trkpt lat="48.96747" lon="6.03332">
        <ele>170.90039</ele>
        <time>2026-05-18T15:22:11+02:00</time>
      </trkpt>
      <trkpt lat="48.96753" lon="6.03329">
        <ele>170.90039</ele>
        <time>2026-05-18T15:22:12+02:00</time>
      </trkpt>
      <trkpt lat="48.96759" lon="6.03326">
        <ele>170.90039</ele>
        <time>2026-05-18T15:22:13+02:00</time>
      </trkpt>
      <trkpt lat="48.96765" lon="6.03324">
        <ele>170.7998</ele>
        <time>2026-05-18T15:22:14+02:00</time>
      </trkpt>
      <trkpt lat="48.96771" lon="6.03321">
        <ele>170.90039</ele>
        <time>2026-05-18T15:22:15+02:00</time>
      </trkpt>
      <trkpt lat="48.96776" lon="6.03318">
        <ele>170.90039</ele>
        <time>2026-05-18T15:22:16+02:00</time>
      </trkpt>
      <trkpt lat="48.96782" lon="6.03316">
        <ele>170.90039</ele>
        <time>2026-05-18T15:22:17+02:00</time>
      </trkpt>
      <trkpt lat="48.96788" lon="6.03313">
        <ele>170.90039</ele>
        <time>2026-05-18T15:22:18+02:00</time>
      </trkpt>
      <trkpt lat="48.96794" lon="6.0331">
        <ele>171.2002</ele>
        <time>2026-05-18T15:22:19+02:00</time>
      </trkpt>
      <trkpt lat="48.968" lon="6.03308">
        <ele>171.10059</ele>
        <time>2026-05-18T15:22:20+02:00</time>
      </trkpt>
      <trkpt lat="48.96806" lon="6.03305">
        <ele>171.10059</ele>
        <time>2026-05-18T15:22:21+02:00</time>
      </trkpt>
      <trkpt lat="48.96812" lon="6.03302">
        <ele>171</ele>
        <time>2026-05-18T15:22:22+02:00</time>
      </trkpt>
      <trkpt lat="48.96818" lon="6.033">
        <ele>170.7998</ele>
        <time>2026-05-18T15:22:23+02:00</time>
      </trkpt>
      <trkpt lat="48.96825" lon="6.03297">
        <ele>170.7998</ele>
        <time>2026-05-18T15:22:24+02:00</time>
      </trkpt>
      <trkpt lat="48.96831" lon="6.03294">
        <ele>170.7002</ele>
        <time>2026-05-18T15:22:25+02:00</time>
      </trkpt>
      <trkpt lat="48.96837" lon="6.03291">
        <ele>170.7998</ele>
        <time>2026-05-18T15:22:26+02:00</time>
      </trkpt>
      <trkpt lat="48.96843" lon="6.03289">
        <ele>170.7998</ele>
        <time>2026-05-18T15:22:27+02:00</time>
      </trkpt>
      <trkpt lat="48.96849" lon="6.03286">
        <ele>170.7998</ele>
        <time>2026-05-18T15:22:28+02:00</time>
      </trkpt>
      <trkpt lat="48.96855" lon="6.03283">
        <ele>170.7998</ele>
        <time>2026-05-18T15:22:29+02:00</time>
      </trkpt>
      <trkpt lat="48.96861" lon="6.0328">
        <ele>170.7998</ele>
        <time>2026-05-18T15:22:30+02:00</time>
      </trkpt>
      <trkpt lat="48.96868" lon="6.03277">
        <ele>170.90039</ele>
        <time>2026-05-18T15:22:31+02:00</time>
      </trkpt>
      <trkpt lat="48.96873" lon="6.03274">
        <ele>170.90039</ele>
        <time>2026-05-18T15:22:32+02:00</time>
      </trkpt>
      <trkpt lat="48.96879" lon="6.03272">
        <ele>170.90039</ele>
        <time>2026-05-18T15:22:33+02:00</time>
      </trkpt>
      <trkpt lat="48.96885" lon="6.03269">
        <ele>171.2002</ele>
        <time>2026-05-18T15:22:34+02:00</time>
      </trkpt>
      <trkpt lat="48.96892" lon="6.03266">
        <ele>171.10059</ele>
        <time>2026-05-18T15:22:35+02:00</time>
      </trkpt>
      <trkpt lat="48.96898" lon="6.03263">
        <ele>171.10059</ele>
        <time>2026-05-18T15:22:36+02:00</time>
      </trkpt>
      <trkpt lat="48.96904" lon="6.03261">
        <ele>171</ele>
        <time>2026-05-18T15:22:37+02:00</time>
      </trkpt>
      <trkpt lat="48.9691" lon="6.03258">
        <ele>170.7998</ele>
        <time>2026-05-18T15:22:38+02:00</time>
      </trkpt>
      <trkpt lat="48.96917" lon="6.03255">
        <ele>170.90039</ele>
        <time>2026-05-18T15:22:39+02:00</time>
      </trkpt>
      <trkpt lat="48.96923" lon="6.03252">
        <ele>170.7002</ele>
        <time>2026-05-18T15:22:40+02:00</time>
      </trkpt>
      <trkpt lat="48.96929" lon="6.03249">
        <ele>170.7998</ele>
        <time>2026-05-18T15:22:41+02:00</time>
      </trkpt>
      <trkpt lat="48.96935" lon="6.03247">
        <ele>170.7002</ele>
        <time>2026-05-18T15:22:42+02:00</time>
      </trkpt>
      <trkpt lat="48.96942" lon="6.03244">
        <ele>170.7002</ele>
        <time>2026-05-18T15:22:43+02:00</time>
      </trkpt>
      <trkpt lat="48.96948" lon="6.03241">
        <ele>170.7002</ele>
        <time>2026-05-18T15:22:44+02:00</time>
      </trkpt>
      <trkpt lat="48.96954" lon="6.03239">
        <ele>170.7002</ele>
        <time>2026-05-18T15:22:45+02:00</time>
      </trkpt>
      <trkpt lat="48.9696" lon="6.03236">
        <ele>170.7002</ele>
        <time>2026-05-18T15:22:46+02:00</time>
      </trkpt>
      <trkpt lat="48.96966" lon="6.03233">
        <ele>170.90039</ele>
        <time>2026-05-18T15:22:47+02:00</time>
      </trkpt>
      <trkpt lat="48.96972" lon="6.03231">
        <ele>170.90039</ele>
        <time>2026-05-18T15:22:48+02:00</time>
      </trkpt>
      <trkpt lat="48.96979" lon="6.03228">
        <ele>170.90039</ele>
        <time>2026-05-18T15:22:49+02:00</time>
      </trkpt>
      <trkpt lat="48.96985" lon="6.03225">
        <ele>171.2002</ele>
        <time>2026-05-18T15:22:50+02:00</time>
      </trkpt>
      <trkpt lat="48.96991" lon="6.03223">
        <ele>171</ele>
        <time>2026-05-18T15:22:51+02:00</time>
      </trkpt>
      <trkpt lat="48.96997" lon="6.0322">
        <ele>171</ele>
        <time>2026-05-18T15:22:52+02:00</time>
      </trkpt>
      <trkpt lat="48.97003" lon="6.03218">
        <ele>170.7998</ele>
        <time>2026-05-18T15:22:53+02:00</time>
      </trkpt>
      <trkpt lat="48.97009" lon="6.03215">
        <ele>170.7998</ele>
        <time>2026-05-18T15:22:54+02:00</time>
      </trkpt>
      <trkpt lat="48.97016" lon="6.03213">
        <ele>170.7998</ele>
        <time>2026-05-18T15:22:55+02:00</time>
      </trkpt>
      <trkpt lat="48.97022" lon="6.0321">
        <ele>170.7998</ele>
        <time>2026-05-18T15:22:56+02:00</time>
      </trkpt>
      <trkpt lat="48.97028" lon="6.03208">
        <ele>170.7002</ele>
        <time>2026-05-18T15:22:57+02:00</time>
      </trkpt>
      <trkpt lat="48.97034" lon="6.03205">
        <ele>170.7002</ele>
        <time>2026-05-18T15:22:58+02:00</time>
      </trkpt>
      <trkpt lat="48.9704" lon="6.03202">
        <ele>170.7002</ele>
        <time>2026-05-18T15:22:59+02:00</time>
      </trkpt>
      <trkpt lat="48.97046" lon="6.032">
        <ele>170.7002</ele>
        <time>2026-05-18T15:23:00+02:00</time>
      </trkpt>
      <trkpt lat="48.97053" lon="6.03197">
        <ele>170.7002</ele>
        <time>2026-05-18T15:23:01+02:00</time>
      </trkpt>
      <trkpt lat="48.97059" lon="6.03194">
        <ele>170.7002</ele>
        <time>2026-05-18T15:23:02+02:00</time>
      </trkpt>
      <trkpt lat="48.97065" lon="6.03192">
        <ele>170.90039</ele>
        <time>2026-05-18T15:23:03+02:00</time>
      </trkpt>
      <trkpt lat="48.97071" lon="6.03189">
        <ele>170.90039</ele>
        <time>2026-05-18T15:23:04+02:00</time>
      </trkpt>
      <trkpt lat="48.97077" lon="6.03186">
        <ele>170.90039</ele>
        <time>2026-05-18T15:23:05+02:00</time>
      </trkpt>
      <trkpt lat="48.97083" lon="6.03183">
        <ele>171.2002</ele>
        <time>2026-05-18T15:23:06+02:00</time>
      </trkpt>
      <trkpt lat="48.9709" lon="6.03181">
        <ele>171.10059</ele>
        <time>2026-05-18T15:23:07+02:00</time>
      </trkpt>
      <trkpt lat="48.97096" lon="6.03178">
        <ele>171</ele>
        <time>2026-05-18T15:23:08+02:00</time>
      </trkpt>
      <trkpt lat="48.97102" lon="6.03175">
        <ele>171</ele>
        <time>2026-05-18T15:23:09+02:00</time>
      </trkpt>
      <trkpt lat="48.97108" lon="6.03172">
        <ele>170.7998</ele>
        <time>2026-05-18T15:23:10+02:00</time>
      </trkpt>
      <trkpt lat="48.97114" lon="6.0317">
        <ele>170.7002</ele>
        <time>2026-05-18T15:23:11+02:00</time>
      </trkpt>
      <trkpt lat="48.9712" lon="6.03167">
        <ele>170.7998</ele>
        <time>2026-05-18T15:23:12+02:00</time>
      </trkpt>
      <trkpt lat="48.97126" lon="6.03164">
        <ele>170.7002</ele>
        <time>2026-05-18T15:23:13+02:00</time>
      </trkpt>
      <trkpt lat="48.97132" lon="6.03161">
        <ele>170.7002</ele>
        <time>2026-05-18T15:23:14+02:00</time>
      </trkpt>
      <trkpt lat="48.97138" lon="6.03159">
        <ele>170.60059</ele>
        <time>2026-05-18T15:23:15+02:00</time>
      </trkpt>
      <trkpt lat="48.97144" lon="6.03157">
        <ele>170.7002</ele>
        <time>2026-05-18T15:23:16+02:00</time>
      </trkpt>
      <trkpt lat="48.97149" lon="6.03154">
        <ele>170.60059</ele>
        <time>2026-05-18T15:23:17+02:00</time>
      </trkpt>
      <trkpt lat="48.97155" lon="6.03151">
        <ele>170.60059</ele>
        <time>2026-05-18T15:23:18+02:00</time>
      </trkpt>
      <trkpt lat="48.97161" lon="6.03149">
        <ele>170.7998</ele>
        <time>2026-05-18T15:23:19+02:00</time>
      </trkpt>
      <trkpt lat="48.97167" lon="6.03146">
        <ele>170.7002</ele>
        <time>2026-05-18T15:23:20+02:00</time>
      </trkpt>
      <trkpt lat="48.97172" lon="6.03143">
        <ele>170.60059</ele>
        <time>2026-05-18T15:23:21+02:00</time>
      </trkpt>
      <trkpt lat="48.97178" lon="6.0314">
        <ele>170.90039</ele>
        <time>2026-05-18T15:23:22+02:00</time>
      </trkpt>
      <trkpt lat="48.97184" lon="6.03138">
        <ele>170.60059</ele>
        <time>2026-05-18T15:23:23+02:00</time>
      </trkpt>
      <trkpt lat="48.9719" lon="6.03135">
        <ele>170.2998</ele>
        <time>2026-05-18T15:23:24+02:00</time>
      </trkpt>
      <trkpt lat="48.97196" lon="6.03132">
        <ele>169.90039</ele>
        <time>2026-05-18T15:23:25+02:00</time>
      </trkpt>
      <trkpt lat="48.97202" lon="6.0313">
        <ele>169.90039</ele>
        <time>2026-05-18T15:23:26+02:00</time>
      </trkpt>
      <trkpt lat="48.97208" lon="6.03127">
        <ele>170</ele>
        <time>2026-05-18T15:23:27+02:00</time>
      </trkpt>
      <trkpt lat="48.97214" lon="6.03124">
        <ele>170</ele>
        <time>2026-05-18T15:23:28+02:00</time>
      </trkpt>
      <trkpt lat="48.9722" lon="6.03121">
        <ele>169.90039</ele>
        <time>2026-05-18T15:23:29+02:00</time>
      </trkpt>
      <trkpt lat="48.97226" lon="6.03119">
        <ele>169.90039</ele>
        <time>2026-05-18T15:23:30+02:00</time>
      </trkpt>
      <trkpt lat="48.97232" lon="6.03116">
        <ele>169.7998</ele>
        <time>2026-05-18T15:23:31+02:00</time>
      </trkpt>
      <trkpt lat="48.97238" lon="6.03113">
        <ele>169.90039</ele>
        <time>2026-05-18T15:23:32+02:00</time>
      </trkpt>
      <trkpt lat="48.97244" lon="6.03111">
        <ele>169.90039</ele>
        <time>2026-05-18T15:23:33+02:00</time>
      </trkpt>
      <trkpt lat="48.9725" lon="6.03108">
        <ele>169.90039</ele>
        <time>2026-05-18T15:23:34+02:00</time>
      </trkpt>
      <trkpt lat="48.97255" lon="6.03105">
        <ele>170.2002</ele>
        <time>2026-05-18T15:23:35+02:00</time>
      </trkpt>
      <trkpt lat="48.97262" lon="6.03103">
        <ele>170.10059</ele>
        <time>2026-05-18T15:23:36+02:00</time>
      </trkpt>
      <trkpt lat="48.97267" lon="6.031">
        <ele>170.10059</ele>
        <time>2026-05-18T15:23:37+02:00</time>
      </trkpt>
      <trkpt lat="48.97273" lon="6.03098">
        <ele>170.10059</ele>
        <time>2026-05-18T15:23:38+02:00</time>
      </trkpt>
      <trkpt lat="48.97279" lon="6.03095">
        <ele>170.10059</ele>
        <time>2026-05-18T15:23:39+02:00</time>
      </trkpt>
      <trkpt lat="48.97286" lon="6.03093">
        <ele>170.10059</ele>
        <time>2026-05-18T15:23:40+02:00</time>
      </trkpt>
      <trkpt lat="48.97292" lon="6.0309">
        <ele>170.10059</ele>
        <time>2026-05-18T15:23:41+02:00</time>
      </trkpt>
      <trkpt lat="48.97298" lon="6.03088">
        <ele>169.90039</ele>
        <time>2026-05-18T15:23:42+02:00</time>
      </trkpt>
      <trkpt lat="48.97304" lon="6.03086">
        <ele>169.90039</ele>
        <time>2026-05-18T15:23:43+02:00</time>
      </trkpt>
      <trkpt lat="48.9731" lon="6.03084">
        <ele>170</ele>
        <time>2026-05-18T15:23:44+02:00</time>
      </trkpt>
      <trkpt lat="48.97316" lon="6.03081">
        <ele>170</ele>
        <time>2026-05-18T15:23:45+02:00</time>
      </trkpt>
      <trkpt lat="48.97322" lon="6.0308">
        <ele>169.7998</ele>
        <time>2026-05-18T15:23:46+02:00</time>
      </trkpt>
      <trkpt lat="48.97328" lon="6.03078">
        <ele>169.7998</ele>
        <time>2026-05-18T15:23:47+02:00</time>
      </trkpt>
      <trkpt lat="48.97334" lon="6.03077">
        <ele>169.7998</ele>
        <time>2026-05-18T15:23:48+02:00</time>
      </trkpt>
      <trkpt lat="48.9734" lon="6.03076">
        <ele>169.7998</ele>
        <time>2026-05-18T15:23:49+02:00</time>
      </trkpt>
      <trkpt lat="48.97346" lon="6.03074">
        <ele>169.90039</ele>
        <time>2026-05-18T15:23:50+02:00</time>
      </trkpt>
      <trkpt lat="48.97352" lon="6.03073">
        <ele>169.90039</ele>
        <time>2026-05-18T15:23:51+02:00</time>
      </trkpt>
      <trkpt lat="48.97358" lon="6.03071">
        <ele>169.7998</ele>
        <time>2026-05-18T15:23:52+02:00</time>
      </trkpt>
      <trkpt lat="48.97365" lon="6.0307">
        <ele>169.7998</ele>
        <time>2026-05-18T15:23:53+02:00</time>
      </trkpt>
      <trkpt lat="48.97371" lon="6.03069">
        <ele>169.7998</ele>
        <time>2026-05-18T15:23:54+02:00</time>
      </trkpt>
      <trkpt lat="48.97377" lon="6.03068">
        <ele>169.7998</ele>
        <time>2026-05-18T15:23:55+02:00</time>
      </trkpt>
      <trkpt lat="48.97383" lon="6.03068">
        <ele>169.7998</ele>
        <time>2026-05-18T15:23:56+02:00</time>
      </trkpt>
      <trkpt lat="48.97389" lon="6.03067">
        <ele>169.7998</ele>
        <time>2026-05-18T15:23:57+02:00</time>
      </trkpt>
      <trkpt lat="48.97395" lon="6.03067">
        <ele>169.7998</ele>
        <time>2026-05-18T15:23:58+02:00</time>
      </trkpt>
      <trkpt lat="48.97402" lon="6.03066">
        <ele>169.7998</ele>
        <time>2026-05-18T15:23:59+02:00</time>
      </trkpt>
      <trkpt lat="48.97408" lon="6.03066">
        <ele>169.7998</ele>
        <time>2026-05-18T15:24:00+02:00</time>
      </trkpt>
      <trkpt lat="48.97414" lon="6.03066">
        <ele>169.7998</ele>
        <time>2026-05-18T15:24:01+02:00</time>
      </trkpt>
      <trkpt lat="48.9742" lon="6.03066">
        <ele>169.7998</ele>
        <time>2026-05-18T15:24:02+02:00</time>
      </trkpt>
      <trkpt lat="48.97427" lon="6.03066">
        <ele>169.7998</ele>
        <time>2026-05-18T15:24:03+02:00</time>
      </trkpt>
      <trkpt lat="48.97433" lon="6.03067">
        <ele>169.7998</ele>
        <time>2026-05-18T15:24:04+02:00</time>
      </trkpt>
      <trkpt lat="48.97439" lon="6.03067">
        <ele>169.7998</ele>
        <time>2026-05-18T15:24:05+02:00</time>
      </trkpt>
      <trkpt lat="48.97445" lon="6.03067">
        <ele>169.7998</ele>
        <time>2026-05-18T15:24:06+02:00</time>
      </trkpt>
      <trkpt lat="48.97452" lon="6.03067">
        <ele>169.7002</ele>
        <time>2026-05-18T15:24:07+02:00</time>
      </trkpt>
      <trkpt lat="48.97457" lon="6.03068">
        <ele>169.60059</ele>
        <time>2026-05-18T15:24:08+02:00</time>
      </trkpt>
      <trkpt lat="48.97464" lon="6.03068">
        <ele>169.60059</ele>
        <time>2026-05-18T15:24:09+02:00</time>
      </trkpt>
      <trkpt lat="48.9747" lon="6.03068">
        <ele>169.7002</ele>
        <time>2026-05-18T15:24:10+02:00</time>
      </trkpt>
      <trkpt lat="48.97476" lon="6.03068">
        <ele>169.7998</ele>
        <time>2026-05-18T15:24:11+02:00</time>
      </trkpt>
      <trkpt lat="48.97482" lon="6.03068">
        <ele>169.90039</ele>
        <time>2026-05-18T15:24:12+02:00</time>
      </trkpt>
      <trkpt lat="48.97488" lon="6.03068">
        <ele>169.90039</ele>
        <time>2026-05-18T15:24:13+02:00</time>
      </trkpt>
      <trkpt lat="48.97493" lon="6.03068">
        <ele>169.90039</ele>
        <time>2026-05-18T15:24:14+02:00</time>
      </trkpt>
      <trkpt lat="48.975" lon="6.03069">
        <ele>169.90039</ele>
        <time>2026-05-18T15:24:15+02:00</time>
      </trkpt>
      <trkpt lat="48.97506" lon="6.03069">
        <ele>169.90039</ele>
        <time>2026-05-18T15:24:16+02:00</time>
      </trkpt>
      <trkpt lat="48.97512" lon="6.03069">
        <ele>170</ele>
        <time>2026-05-18T15:24:17+02:00</time>
      </trkpt>
      <trkpt lat="48.97518" lon="6.03069">
        <ele>170</ele>
        <time>2026-05-18T15:24:18+02:00</time>
      </trkpt>
      <trkpt lat="48.97524" lon="6.03069">
        <ele>170</ele>
        <time>2026-05-18T15:24:19+02:00</time>
      </trkpt>
      <trkpt lat="48.9753" lon="6.03068">
        <ele>170</ele>
        <time>2026-05-18T15:24:20+02:00</time>
      </trkpt>
      <trkpt lat="48.97537" lon="6.03069">
        <ele>170</ele>
        <time>2026-05-18T15:24:21+02:00</time>
      </trkpt>
      <trkpt lat="48.97543" lon="6.03069">
        <ele>170</ele>
        <time>2026-05-18T15:24:22+02:00</time>
      </trkpt>
      <trkpt lat="48.9755" lon="6.03069">
        <ele>170</ele>
        <time>2026-05-18T15:24:23+02:00</time>
      </trkpt>
      <trkpt lat="48.97556" lon="6.03069">
        <ele>170</ele>
        <time>2026-05-18T15:24:24+02:00</time>
      </trkpt>
      <trkpt lat="48.97562" lon="6.03069">
        <ele>170</ele>
        <time>2026-05-18T15:24:25+02:00</time>
      </trkpt>
      <trkpt lat="48.97567" lon="6.03069">
        <ele>170.10059</ele>
        <time>2026-05-18T15:24:26+02:00</time>
      </trkpt>
      <trkpt lat="48.97574" lon="6.03069">
        <ele>170.10059</ele>
        <time>2026-05-18T15:24:27+02:00</time>
      </trkpt>
      <trkpt lat="48.9758" lon="6.03069">
        <ele>170.10059</ele>
        <time>2026-05-18T15:24:28+02:00</time>
      </trkpt>
      <trkpt lat="48.97586" lon="6.03069">
        <ele>170.10059</ele>
        <time>2026-05-18T15:24:29+02:00</time>
      </trkpt>
      <trkpt lat="48.97592" lon="6.0307">
        <ele>170.10059</ele>
        <time>2026-05-18T15:24:30+02:00</time>
      </trkpt>
      <trkpt lat="48.97598" lon="6.0307">
        <ele>170.10059</ele>
        <time>2026-05-18T15:24:31+02:00</time>
      </trkpt>
      <trkpt lat="48.97604" lon="6.0307">
        <ele>170.10059</ele>
        <time>2026-05-18T15:24:32+02:00</time>
      </trkpt>
      <trkpt lat="48.9761" lon="6.0307">
        <ele>170.10059</ele>
        <time>2026-05-18T15:24:33+02:00</time>
      </trkpt>
      <trkpt lat="48.97617" lon="6.0307">
        <ele>170.10059</ele>
        <time>2026-05-18T15:24:34+02:00</time>
      </trkpt>
      <trkpt lat="48.97622" lon="6.0307">
        <ele>170.10059</ele>
        <time>2026-05-18T15:24:35+02:00</time>
      </trkpt>
      <trkpt lat="48.97629" lon="6.0307">
        <ele>170.10059</ele>
        <time>2026-05-18T15:24:36+02:00</time>
      </trkpt>
      <trkpt lat="48.97635" lon="6.0307">
        <ele>170.10059</ele>
        <time>2026-05-18T15:24:37+02:00</time>
      </trkpt>
      <trkpt lat="48.97641" lon="6.0307">
        <ele>170.10059</ele>
        <time>2026-05-18T15:24:38+02:00</time>
      </trkpt>
      <trkpt lat="48.97647" lon="6.0307">
        <ele>170.10059</ele>
        <time>2026-05-18T15:24:39+02:00</time>
      </trkpt>
      <trkpt lat="48.97653" lon="6.0307">
        <ele>170.10059</ele>
        <time>2026-05-18T15:24:40+02:00</time>
      </trkpt>
      <trkpt lat="48.97659" lon="6.0307">
        <ele>170.10059</ele>
        <time>2026-05-18T15:24:41+02:00</time>
      </trkpt>
      <trkpt lat="48.97664" lon="6.0307">
        <ele>170.10059</ele>
        <time>2026-05-18T15:24:42+02:00</time>
      </trkpt>
      <trkpt lat="48.9767" lon="6.0307">
        <ele>170.10059</ele>
        <time>2026-05-18T15:24:43+02:00</time>
      </trkpt>
      <trkpt lat="48.97676" lon="6.0307">
        <ele>170.10059</ele>
        <time>2026-05-18T15:24:44+02:00</time>
      </trkpt>
      <trkpt lat="48.97682" lon="6.0307">
        <ele>170.10059</ele>
        <time>2026-05-18T15:24:45+02:00</time>
      </trkpt>
      <trkpt lat="48.97687" lon="6.0307">
        <ele>170.10059</ele>
        <time>2026-05-18T15:24:46+02:00</time>
      </trkpt>
      <trkpt lat="48.97693" lon="6.0307">
        <ele>170.10059</ele>
        <time>2026-05-18T15:24:47+02:00</time>
      </trkpt>
      <trkpt lat="48.97697" lon="6.03068">
        <ele>170.10059</ele>
        <time>2026-05-18T15:24:48+02:00</time>
      </trkpt>
      <trkpt lat="48.977" lon="6.03066">
        <ele>170.10059</ele>
        <time>2026-05-18T15:24:49+02:00</time>
      </trkpt>
      <trkpt lat="48.97701" lon="6.03062">
        <ele>170.10059</ele>
        <time>2026-05-18T15:24:50+02:00</time>
      </trkpt>
      <trkpt lat="48.97701" lon="6.03057">
        <ele>170.10059</ele>
        <time>2026-05-18T15:24:51+02:00</time>
      </trkpt>
      <trkpt lat="48.977" lon="6.03052">
        <ele>169.90039</ele>
        <time>2026-05-18T15:24:52+02:00</time>
      </trkpt>
      <trkpt lat="48.977" lon="6.03047">
        <ele>169.90039</ele>
        <time>2026-05-18T15:24:53+02:00</time>
      </trkpt>
      <trkpt lat="48.97701" lon="6.03041">
        <ele>169.90039</ele>
        <time>2026-05-18T15:24:54+02:00</time>
      </trkpt>
      <trkpt lat="48.97702" lon="6.03036">
        <ele>170.10059</ele>
        <time>2026-05-18T15:24:55+02:00</time>
      </trkpt>
      <trkpt lat="48.97704" lon="6.03031">
        <ele>170.10059</ele>
        <time>2026-05-18T15:24:56+02:00</time>
      </trkpt>
      <trkpt lat="48.97708" lon="6.03026">
        <ele>170.40039</ele>
        <time>2026-05-18T15:24:57+02:00</time>
      </trkpt>
      <trkpt lat="48.97712" lon="6.03022">
        <ele>170.40039</ele>
        <time>2026-05-18T15:24:58+02:00</time>
      </trkpt>
      <trkpt lat="48.97717" lon="6.0302">
        <ele>171.2002</ele>
        <time>2026-05-18T15:24:59+02:00</time>
      </trkpt>
      <trkpt lat="48.97722" lon="6.03019">
        <ele>171.10059</ele>
        <time>2026-05-18T15:25:00+02:00</time>
      </trkpt>
      <trkpt lat="48.97727" lon="6.03018">
        <ele>171.10059</ele>
        <time>2026-05-18T15:25:01+02:00</time>
      </trkpt>
      <trkpt lat="48.97732" lon="6.03018">
        <ele>171</ele>
        <time>2026-05-18T15:25:02+02:00</time>
      </trkpt>
      <trkpt lat="48.97737" lon="6.03016">
        <ele>171</ele>
        <time>2026-05-18T15:25:03+02:00</time>
      </trkpt>
      <trkpt lat="48.97743" lon="6.03013">
        <ele>170.90039</ele>
        <time>2026-05-18T15:25:04+02:00</time>
      </trkpt>
      <trkpt lat="48.97748" lon="6.0301">
        <ele>171.90039</ele>
        <time>2026-05-18T15:25:05+02:00</time>
      </trkpt>
      <trkpt lat="48.97753" lon="6.03007">
        <ele>171.90039</ele>
        <time>2026-05-18T15:25:06+02:00</time>
      </trkpt>
      <trkpt lat="48.97759" lon="6.03003">
        <ele>173</ele>
        <time>2026-05-18T15:25:07+02:00</time>
      </trkpt>
      <trkpt lat="48.97764" lon="6.02999">
        <ele>173</ele>
        <time>2026-05-18T15:25:08+02:00</time>
      </trkpt>
      <trkpt lat="48.97769" lon="6.02995">
        <ele>172.90039</ele>
        <time>2026-05-18T15:25:09+02:00</time>
      </trkpt>
      <trkpt lat="48.97773" lon="6.02989">
        <ele>174</ele>
        <time>2026-05-18T15:25:10+02:00</time>
      </trkpt>
      <trkpt lat="48.97777" lon="6.02983">
        <ele>175</ele>
        <time>2026-05-18T15:25:11+02:00</time>
      </trkpt>
      <trkpt lat="48.9778" lon="6.02976">
        <ele>176</ele>
        <time>2026-05-18T15:25:12+02:00</time>
      </trkpt>
      <trkpt lat="48.97781" lon="6.02969">
        <ele>176.90039</ele>
        <time>2026-05-18T15:25:13+02:00</time>
      </trkpt>
      <trkpt lat="48.97781" lon="6.02961">
        <ele>176.90039</ele>
        <time>2026-05-18T15:25:14+02:00</time>
      </trkpt>
      <trkpt lat="48.97779" lon="6.02954">
        <ele>177.5</ele>
        <time>2026-05-18T15:25:15+02:00</time>
      </trkpt>
      <trkpt lat="48.97777" lon="6.02948">
        <ele>177.7998</ele>
        <time>2026-05-18T15:25:16+02:00</time>
      </trkpt>
      <trkpt lat="48.97775" lon="6.02942">
        <ele>177.7002</ele>
        <time>2026-05-18T15:25:17+02:00</time>
      </trkpt>
      <trkpt lat="48.97772" lon="6.02937">
        <ele>177.7002</ele>
        <time>2026-05-18T15:25:18+02:00</time>
      </trkpt>
      <trkpt lat="48.9777" lon="6.02933">
        <ele>177.5</ele>
        <time>2026-05-18T15:25:19+02:00</time>
      </trkpt>
      <trkpt lat="48.97767" lon="6.0293">
        <ele>177.40039</ele>
        <time>2026-05-18T15:25:20+02:00</time>
      </trkpt>
      <trkpt lat="48.97766" lon="6.02925">
        <ele>177.40039</ele>
        <time>2026-05-18T15:25:21+02:00</time>
      </trkpt>
      <trkpt lat="48.97765" lon="6.0292">
        <ele>177.40039</ele>
        <time>2026-05-18T15:25:22+02:00</time>
      </trkpt>
      <trkpt lat="48.97766" lon="6.02914">
        <ele>177.40039</ele>
        <time>2026-05-18T15:25:23+02:00</time>
      </trkpt>
      <trkpt lat="48.97769" lon="6.02908">
        <ele>177.5</ele>
        <time>2026-05-18T15:25:24+02:00</time>
      </trkpt>
      <trkpt lat="48.97772" lon="6.02902">
        <ele>177.5</ele>
        <time>2026-05-18T15:25:25+02:00</time>
      </trkpt>
      <trkpt lat="48.97776" lon="6.02896">
        <ele>177.60059</ele>
        <time>2026-05-18T15:25:26+02:00</time>
      </trkpt>
      <trkpt lat="48.97781" lon="6.02891">
        <ele>177.7002</ele>
        <time>2026-05-18T15:25:27+02:00</time>
      </trkpt>
      <trkpt lat="48.97786" lon="6.02885">
        <ele>177.7002</ele>
        <time>2026-05-18T15:25:28+02:00</time>
      </trkpt>
      <trkpt lat="48.97791" lon="6.0288">
        <ele>177.7998</ele>
        <time>2026-05-18T15:25:29+02:00</time>
      </trkpt>
      <trkpt lat="48.97798" lon="6.02875">
        <ele>177.90039</ele>
        <time>2026-05-18T15:25:30+02:00</time>
      </trkpt>
      <trkpt lat="48.97803" lon="6.02871">
        <ele>177.90039</ele>
        <time>2026-05-18T15:25:31+02:00</time>
      </trkpt>
      <trkpt lat="48.97809" lon="6.02867">
        <ele>177.90039</ele>
        <time>2026-05-18T15:25:32+02:00</time>
      </trkpt>
      <trkpt lat="48.97815" lon="6.02864">
        <ele>178</ele>
        <time>2026-05-18T15:25:33+02:00</time>
      </trkpt>
      <trkpt lat="48.97822" lon="6.02861">
        <ele>178</ele>
        <time>2026-05-18T15:25:34+02:00</time>
      </trkpt>
      <trkpt lat="48.97828" lon="6.02858">
        <ele>178</ele>
        <time>2026-05-18T15:25:35+02:00</time>
      </trkpt>
      <trkpt lat="48.97833" lon="6.02854">
        <ele>178</ele>
        <time>2026-05-18T15:25:36+02:00</time>
      </trkpt>
      <trkpt lat="48.97839" lon="6.02852">
        <ele>178</ele>
        <time>2026-05-18T15:25:37+02:00</time>
      </trkpt>
      <trkpt lat="48.97844" lon="6.02849">
        <ele>178</ele>
        <time>2026-05-18T15:25:38+02:00</time>
      </trkpt>
      <trkpt lat="48.9785" lon="6.02847">
        <ele>178</ele>
        <time>2026-05-18T15:25:39+02:00</time>
      </trkpt>
      <trkpt lat="48.97856" lon="6.02845">
        <ele>178</ele>
        <time>2026-05-18T15:25:40+02:00</time>
      </trkpt>
      <trkpt lat="48.97861" lon="6.02843">
        <ele>178</ele>
        <time>2026-05-18T15:25:41+02:00</time>
      </trkpt>
      <trkpt lat="48.97867" lon="6.02842">
        <ele>178</ele>
        <time>2026-05-18T15:25:42+02:00</time>
      </trkpt>
      <trkpt lat="48.97872" lon="6.02842">
        <ele>178</ele>
        <time>2026-05-18T15:25:43+02:00</time>
      </trkpt>
      <trkpt lat="48.97878" lon="6.02841">
        <ele>177.90039</ele>
        <time>2026-05-18T15:25:44+02:00</time>
      </trkpt>
      <trkpt lat="48.97884" lon="6.02841">
        <ele>177.90039</ele>
        <time>2026-05-18T15:25:45+02:00</time>
      </trkpt>
      <trkpt lat="48.97889" lon="6.02841">
        <ele>177.90039</ele>
        <time>2026-05-18T15:25:46+02:00</time>
      </trkpt>
      <trkpt lat="48.97896" lon="6.02841">
        <ele>177.90039</ele>
        <time>2026-05-18T15:25:47+02:00</time>
      </trkpt>
      <trkpt lat="48.97902" lon="6.02842">
        <ele>177.90039</ele>
        <time>2026-05-18T15:25:48+02:00</time>
      </trkpt>
      <trkpt lat="48.97908" lon="6.02842">
        <ele>177.90039</ele>
        <time>2026-05-18T15:25:49+02:00</time>
      </trkpt>
      <trkpt lat="48.97914" lon="6.02843">
        <ele>177.7998</ele>
        <time>2026-05-18T15:25:50+02:00</time>
      </trkpt>
      <trkpt lat="48.97921" lon="6.02843">
        <ele>177.7002</ele>
        <time>2026-05-18T15:25:51+02:00</time>
      </trkpt>
      <trkpt lat="48.97927" lon="6.02843">
        <ele>177.7002</ele>
        <time>2026-05-18T15:25:52+02:00</time>
      </trkpt>
      <trkpt lat="48.97933" lon="6.02843">
        <ele>177.7002</ele>
        <time>2026-05-18T15:25:53+02:00</time>
      </trkpt>
      <trkpt lat="48.9794" lon="6.02844">
        <ele>177.60059</ele>
        <time>2026-05-18T15:25:54+02:00</time>
      </trkpt>
      <trkpt lat="48.97946" lon="6.02844">
        <ele>177.5</ele>
        <time>2026-05-18T15:25:55+02:00</time>
      </trkpt>
      <trkpt lat="48.97952" lon="6.02844">
        <ele>177.5</ele>
        <time>2026-05-18T15:25:56+02:00</time>
      </trkpt>
      <trkpt lat="48.97959" lon="6.02844">
        <ele>177.40039</ele>
        <time>2026-05-18T15:25:57+02:00</time>
      </trkpt>
      <trkpt lat="48.97964" lon="6.02844">
        <ele>177.40039</ele>
        <time>2026-05-18T15:25:58+02:00</time>
      </trkpt>
      <trkpt lat="48.9797" lon="6.02845">
        <ele>177.2998</ele>
        <time>2026-05-18T15:25:59+02:00</time>
      </trkpt>
      <trkpt lat="48.97976" lon="6.02845">
        <ele>177.2998</ele>
        <time>2026-05-18T15:26:00+02:00</time>
      </trkpt>
      <trkpt lat="48.97982" lon="6.02845">
        <ele>177.2998</ele>
        <time>2026-05-18T15:26:01+02:00</time>
      </trkpt>
      <trkpt lat="48.97988" lon="6.02845">
        <ele>177.2002</ele>
        <time>2026-05-18T15:26:02+02:00</time>
      </trkpt>
      <trkpt lat="48.97994" lon="6.02845">
        <ele>177.2002</ele>
        <time>2026-05-18T15:26:03+02:00</time>
      </trkpt>
      <trkpt lat="48.98" lon="6.02844">
        <ele>177.2998</ele>
        <time>2026-05-18T15:26:04+02:00</time>
      </trkpt>
      <trkpt lat="48.98006" lon="6.02844">
        <ele>177.2998</ele>
        <time>2026-05-18T15:26:05+02:00</time>
      </trkpt>
      <trkpt lat="48.98012" lon="6.02843">
        <ele>177.40039</ele>
        <time>2026-05-18T15:26:06+02:00</time>
      </trkpt>
      <trkpt lat="48.98018" lon="6.02843">
        <ele>177.40039</ele>
        <time>2026-05-18T15:26:07+02:00</time>
      </trkpt>
      <trkpt lat="48.98024" lon="6.02843">
        <ele>177.5</ele>
        <time>2026-05-18T15:26:08+02:00</time>
      </trkpt>
      <trkpt lat="48.98029" lon="6.02843">
        <ele>177.60059</ele>
        <time>2026-05-18T15:26:09+02:00</time>
      </trkpt>
      <trkpt lat="48.98035" lon="6.02843">
        <ele>177.60059</ele>
        <time>2026-05-18T15:26:10+02:00</time>
      </trkpt>
      <trkpt lat="48.98041" lon="6.02843">
        <ele>177.7002</ele>
        <time>2026-05-18T15:26:11+02:00</time>
      </trkpt>
      <trkpt lat="48.98046" lon="6.02845">
        <ele>177.7998</ele>
        <time>2026-05-18T15:26:12+02:00</time>
      </trkpt>
      <trkpt lat="48.98052" lon="6.02846">
        <ele>177.90039</ele>
        <time>2026-05-18T15:26:13+02:00</time>
      </trkpt>
      <trkpt lat="48.98058" lon="6.02847">
        <ele>178</ele>
        <time>2026-05-18T15:26:14+02:00</time>
      </trkpt>
      <trkpt lat="48.98064" lon="6.02848">
        <ele>178.10059</ele>
        <time>2026-05-18T15:26:15+02:00</time>
      </trkpt>
      <trkpt lat="48.9807" lon="6.0285">
        <ele>178.2002</ele>
        <time>2026-05-18T15:26:16+02:00</time>
      </trkpt>
      <trkpt lat="48.98075" lon="6.02851">
        <ele>178.2998</ele>
        <time>2026-05-18T15:26:17+02:00</time>
      </trkpt>
      <trkpt lat="48.98081" lon="6.02853">
        <ele>178.40039</ele>
        <time>2026-05-18T15:26:18+02:00</time>
      </trkpt>
      <trkpt lat="48.98086" lon="6.02855">
        <ele>178.5</ele>
        <time>2026-05-18T15:26:19+02:00</time>
      </trkpt>
      <trkpt lat="48.98092" lon="6.02856">
        <ele>178.60059</ele>
        <time>2026-05-18T15:26:20+02:00</time>
      </trkpt>
      <trkpt lat="48.98097" lon="6.02858">
        <ele>178.7998</ele>
        <time>2026-05-18T15:26:21+02:00</time>
      </trkpt>
      <trkpt lat="48.98102" lon="6.0286">
        <ele>178.90039</ele>
        <time>2026-05-18T15:26:22+02:00</time>
      </trkpt>
      <trkpt lat="48.98108" lon="6.02862">
        <ele>179</ele>
        <time>2026-05-18T15:26:23+02:00</time>
      </trkpt>
      <trkpt lat="48.98113" lon="6.02864">
        <ele>179.10059</ele>
        <time>2026-05-18T15:26:24+02:00</time>
      </trkpt>
      <trkpt lat="48.98118" lon="6.02866">
        <ele>179.2002</ele>
        <time>2026-05-18T15:26:25+02:00</time>
      </trkpt>
      <trkpt lat="48.98123" lon="6.02867">
        <ele>179.40039</ele>
        <time>2026-05-18T15:26:26+02:00</time>
      </trkpt>
      <trkpt lat="48.98128" lon="6.02869">
        <ele>179.40039</ele>
        <time>2026-05-18T15:26:27+02:00</time>
      </trkpt>
      <trkpt lat="48.98132" lon="6.02871">
        <ele>179.5</ele>
        <time>2026-05-18T15:26:28+02:00</time>
      </trkpt>
      <trkpt lat="48.98136" lon="6.02872">
        <ele>179.60059</ele>
        <time>2026-05-18T15:26:29+02:00</time>
      </trkpt>
      <trkpt lat="48.9814" lon="6.02873">
        <ele>179.60059</ele>
        <time>2026-05-18T15:26:30+02:00</time>
      </trkpt>
      <trkpt lat="48.98142" lon="6.02874">
        <ele>179.7002</ele>
        <time>2026-05-18T15:26:31+02:00</time>
      </trkpt>
      <trkpt lat="48.98144" lon="6.02874">
        <ele>179.7002</ele>
        <time>2026-05-18T15:26:32+02:00</time>
      </trkpt>
      <trkpt lat="48.98147" lon="6.02873">
        <ele>179.7998</ele>
        <time>2026-05-18T15:26:33+02:00</time>
      </trkpt>
      <trkpt lat="48.98149" lon="6.02873">
        <ele>179.7998</ele>
        <time>2026-05-18T15:26:34+02:00</time>
      </trkpt>
      <trkpt lat="48.98152" lon="6.02874">
        <ele>179.7998</ele>
        <time>2026-05-18T15:26:35+02:00</time>
      </trkpt>
      <trkpt lat="48.98155" lon="6.02875">
        <ele>179.90039</ele>
        <time>2026-05-18T15:26:36+02:00</time>
      </trkpt>
      <trkpt lat="48.98159" lon="6.02878">
        <ele>179.90039</ele>
        <time>2026-05-18T15:26:37+02:00</time>
      </trkpt>
      <trkpt lat="48.98163" lon="6.0288">
        <ele>180</ele>
        <time>2026-05-18T15:26:38+02:00</time>
      </trkpt>
      <trkpt lat="48.98168" lon="6.02883">
        <ele>180.10059</ele>
        <time>2026-05-18T15:26:39+02:00</time>
      </trkpt>
      <trkpt lat="48.98173" lon="6.02886">
        <ele>180.10059</ele>
        <time>2026-05-18T15:26:40+02:00</time>
      </trkpt>
      <trkpt lat="48.98178" lon="6.02888">
        <ele>180.10059</ele>
        <time>2026-05-18T15:26:41+02:00</time>
      </trkpt>
      <trkpt lat="48.98184" lon="6.02891">
        <ele>180.2002</ele>
        <time>2026-05-18T15:26:42+02:00</time>
      </trkpt>
      <trkpt lat="48.98189" lon="6.02895">
        <ele>180.2002</ele>
        <time>2026-05-18T15:26:43+02:00</time>
      </trkpt>
      <trkpt lat="48.98195" lon="6.02898">
        <ele>180.2998</ele>
        <time>2026-05-18T15:26:44+02:00</time>
      </trkpt>
      <trkpt lat="48.982" lon="6.02901">
        <ele>180.2998</ele>
        <time>2026-05-18T15:26:45+02:00</time>
      </trkpt>
      <trkpt lat="48.98206" lon="6.02904">
        <ele>180.2998</ele>
        <time>2026-05-18T15:26:46+02:00</time>
      </trkpt>
      <trkpt lat="48.98212" lon="6.02906">
        <ele>180.40039</ele>
        <time>2026-05-18T15:26:47+02:00</time>
      </trkpt>
      <trkpt lat="48.98218" lon="6.02909">
        <ele>180.5</ele>
        <time>2026-05-18T15:26:48+02:00</time>
      </trkpt>
      <trkpt lat="48.98223" lon="6.02911">
        <ele>180.5</ele>
        <time>2026-05-18T15:26:49+02:00</time>
      </trkpt>
      <trkpt lat="48.98229" lon="6.02914">
        <ele>180.5</ele>
        <time>2026-05-18T15:26:50+02:00</time>
      </trkpt>
      <trkpt lat="48.98235" lon="6.02917">
        <ele>180.60059</ele>
        <time>2026-05-18T15:26:51+02:00</time>
      </trkpt>
      <trkpt lat="48.98241" lon="6.0292">
        <ele>180.60059</ele>
        <time>2026-05-18T15:26:52+02:00</time>
      </trkpt>
      <trkpt lat="48.98247" lon="6.02923">
        <ele>180.7002</ele>
        <time>2026-05-18T15:26:53+02:00</time>
      </trkpt>
      <trkpt lat="48.98252" lon="6.02925">
        <ele>180.7002</ele>
        <time>2026-05-18T15:26:54+02:00</time>
      </trkpt>
      <trkpt lat="48.98258" lon="6.02927">
        <ele>180.7998</ele>
        <time>2026-05-18T15:26:55+02:00</time>
      </trkpt>
      <trkpt lat="48.98263" lon="6.02929">
        <ele>180.7998</ele>
        <time>2026-05-18T15:26:56+02:00</time>
      </trkpt>
      <trkpt lat="48.98269" lon="6.02932">
        <ele>180.7998</ele>
        <time>2026-05-18T15:26:57+02:00</time>
      </trkpt>
      <trkpt lat="48.98275" lon="6.02935">
        <ele>180.7998</ele>
        <time>2026-05-18T15:26:58+02:00</time>
      </trkpt>
      <trkpt lat="48.9828" lon="6.02937">
        <ele>180.7998</ele>
        <time>2026-05-18T15:26:59+02:00</time>
      </trkpt>
      <trkpt lat="48.98286" lon="6.02939">
        <ele>180.7998</ele>
        <time>2026-05-18T15:27:00+02:00</time>
      </trkpt>
      <trkpt lat="48.98291" lon="6.02942">
        <ele>180.7002</ele>
        <time>2026-05-18T15:27:01+02:00</time>
      </trkpt>
      <trkpt lat="48.98297" lon="6.02944">
        <ele>180.40039</ele>
        <time>2026-05-18T15:27:02+02:00</time>
      </trkpt>
      <trkpt lat="48.98302" lon="6.02946">
        <ele>180.2998</ele>
        <time>2026-05-18T15:27:03+02:00</time>
      </trkpt>
      <trkpt lat="48.98307" lon="6.02949">
        <ele>180.2998</ele>
        <time>2026-05-18T15:27:04+02:00</time>
      </trkpt>
      <trkpt lat="48.98312" lon="6.02952">
        <ele>180.2998</ele>
        <time>2026-05-18T15:27:05+02:00</time>
      </trkpt>
      <trkpt lat="48.98316" lon="6.02957">
        <ele>179.10059</ele>
        <time>2026-05-18T15:27:06+02:00</time>
      </trkpt>
      <trkpt lat="48.98318" lon="6.02962">
        <ele>177.7998</ele>
        <time>2026-05-18T15:27:07+02:00</time>
      </trkpt>
      <trkpt lat="48.98321" lon="6.02968">
        <ele>177.60059</ele>
        <time>2026-05-18T15:27:08+02:00</time>
      </trkpt>
      <trkpt lat="48.98322" lon="6.02975">
        <ele>176</ele>
        <time>2026-05-18T15:27:09+02:00</time>
      </trkpt>
      <trkpt lat="48.98324" lon="6.02981">
        <ele>174.60059</ele>
        <time>2026-05-18T15:27:10+02:00</time>
      </trkpt>
      <trkpt lat="48.98324" lon="6.02986">
        <ele>174.60059</ele>
        <time>2026-05-18T15:27:11+02:00</time>
      </trkpt>
      <trkpt lat="48.98325" lon="6.02992">
        <ele>173.2002</ele>
        <time>2026-05-18T15:27:12+02:00</time>
      </trkpt>
      <trkpt lat="48.98326" lon="6.02996">
        <ele>171.7002</ele>
        <time>2026-05-18T15:27:13+02:00</time>
      </trkpt>
      <trkpt lat="48.98327" lon="6.03">
        <ele>171.7002</ele>
        <time>2026-05-18T15:27:14+02:00</time>
      </trkpt>
      <trkpt lat="48.98327" lon="6.03004">
        <ele>170.40039</ele>
        <time>2026-05-18T15:27:15+02:00</time>
      </trkpt>
      <trkpt lat="48.98329" lon="6.03008">
        <ele>170.40039</ele>
        <time>2026-05-18T15:27:16+02:00</time>
      </trkpt>
      <trkpt lat="48.9833" lon="6.03013">
        <ele>169.2002</ele>
        <time>2026-05-18T15:27:17+02:00</time>
      </trkpt>
      <trkpt lat="48.9833" lon="6.03018">
        <ele>169.2002</ele>
        <time>2026-05-18T15:27:18+02:00</time>
      </trkpt>
      <trkpt lat="48.98331" lon="6.03023">
        <ele>168.7998</ele>
        <time>2026-05-18T15:27:19+02:00</time>
      </trkpt>
      <trkpt lat="48.98332" lon="6.03027">
        <ele>168.7998</ele>
        <time>2026-05-18T15:27:20+02:00</time>
      </trkpt>
      <trkpt lat="48.98333" lon="6.03032">
        <ele>168.7998</ele>
        <time>2026-05-18T15:27:21+02:00</time>
      </trkpt>
      <trkpt lat="48.98334" lon="6.03036">
        <ele>168.7998</ele>
        <time>2026-05-18T15:27:22+02:00</time>
      </trkpt>
      <trkpt lat="48.98335" lon="6.03041">
        <ele>169</ele>
        <time>2026-05-18T15:27:23+02:00</time>
      </trkpt>
      <trkpt lat="48.98338" lon="6.03045">
        <ele>169</ele>
        <time>2026-05-18T15:27:24+02:00</time>
      </trkpt>
      <trkpt lat="48.98342" lon="6.03047">
        <ele>169.2002</ele>
        <time>2026-05-18T15:27:25+02:00</time>
      </trkpt>
      <trkpt lat="48.98347" lon="6.03048">
        <ele>169.2002</ele>
        <time>2026-05-18T15:27:26+02:00</time>
      </trkpt>
      <trkpt lat="48.98353" lon="6.03047">
        <ele>169.2002</ele>
        <time>2026-05-18T15:27:27+02:00</time>
      </trkpt>
      <trkpt lat="48.98359" lon="6.03046">
        <ele>169</ele>
        <time>2026-05-18T15:27:28+02:00</time>
      </trkpt>
      <trkpt lat="48.98365" lon="6.03044">
        <ele>169.10059</ele>
        <time>2026-05-18T15:27:29+02:00</time>
      </trkpt>
      <trkpt lat="48.98372" lon="6.03043">
        <ele>169.10059</ele>
        <time>2026-05-18T15:27:30+02:00</time>
      </trkpt>
      <trkpt lat="48.98379" lon="6.03041">
        <ele>169.10059</ele>
        <time>2026-05-18T15:27:31+02:00</time>
      </trkpt>
      <trkpt lat="48.98385" lon="6.0304">
        <ele>169.10059</ele>
        <time>2026-05-18T15:27:32+02:00</time>
      </trkpt>
      <trkpt lat="48.98391" lon="6.03039">
        <ele>169.10059</ele>
        <time>2026-05-18T15:27:33+02:00</time>
      </trkpt>
      <trkpt lat="48.98396" lon="6.03038">
        <ele>169.10059</ele>
        <time>2026-05-18T15:27:34+02:00</time>
      </trkpt>
      <trkpt lat="48.98402" lon="6.03037">
        <ele>168.90039</ele>
        <time>2026-05-18T15:27:35+02:00</time>
      </trkpt>
      <trkpt lat="48.98407" lon="6.03036">
        <ele>168.90039</ele>
        <time>2026-05-18T15:27:36+02:00</time>
      </trkpt>
      <trkpt lat="48.98412" lon="6.03035">
        <ele>168.90039</ele>
        <time>2026-05-18T15:27:37+02:00</time>
      </trkpt>
      <trkpt lat="48.98417" lon="6.03035">
        <ele>168.90039</ele>
        <time>2026-05-18T15:27:38+02:00</time>
      </trkpt>
      <trkpt lat="48.98421" lon="6.03035">
        <ele>168.90039</ele>
        <time>2026-05-18T15:27:39+02:00</time>
      </trkpt>
      <trkpt lat="48.98425" lon="6.03034">
        <ele>168.90039</ele>
        <time>2026-05-18T15:27:40+02:00</time>
      </trkpt>
      <trkpt lat="48.9843" lon="6.03033">
        <ele>169</ele>
        <time>2026-05-18T15:27:41+02:00</time>
      </trkpt>
      <trkpt lat="48.98434" lon="6.03031">
        <ele>169</ele>
        <time>2026-05-18T15:27:42+02:00</time>
      </trkpt>
      <trkpt lat="48.98439" lon="6.0303">
        <ele>169</ele>
        <time>2026-05-18T15:27:43+02:00</time>
      </trkpt>
      <trkpt lat="48.98444" lon="6.0303">
        <ele>169</ele>
        <time>2026-05-18T15:27:44+02:00</time>
      </trkpt>
      <trkpt lat="48.98449" lon="6.03029">
        <ele>168.7998</ele>
        <time>2026-05-18T15:27:45+02:00</time>
      </trkpt>
      <trkpt lat="48.98454" lon="6.03028">
        <ele>168.7998</ele>
        <time>2026-05-18T15:27:46+02:00</time>
      </trkpt>
      <trkpt lat="48.98459" lon="6.03028">
        <ele>168.7998</ele>
        <time>2026-05-18T15:27:47+02:00</time>
      </trkpt>
      <trkpt lat="48.98465" lon="6.03028">
        <ele>168.7998</ele>
        <time>2026-05-18T15:27:48+02:00</time>
      </trkpt>
      <trkpt lat="48.9847" lon="6.03027">
        <ele>168.7998</ele>
        <time>2026-05-18T15:27:49+02:00</time>
      </trkpt>
      <trkpt lat="48.98476" lon="6.03027">
        <ele>168.7998</ele>
        <time>2026-05-18T15:27:50+02:00</time>
      </trkpt>
      <trkpt lat="48.98481" lon="6.03027">
        <ele>168.7998</ele>
        <time>2026-05-18T15:27:51+02:00</time>
      </trkpt>
      <trkpt lat="48.98486" lon="6.03025">
        <ele>168.7998</ele>
        <time>2026-05-18T15:27:52+02:00</time>
      </trkpt>
      <trkpt lat="48.98492" lon="6.03022">
        <ele>168.90039</ele>
        <time>2026-05-18T15:27:53+02:00</time>
      </trkpt>
      <trkpt lat="48.98497" lon="6.03017">
        <ele>168.7998</ele>
        <time>2026-05-18T15:27:54+02:00</time>
      </trkpt>
      <trkpt lat="48.98502" lon="6.03012">
        <ele>168.90039</ele>
        <time>2026-05-18T15:27:55+02:00</time>
      </trkpt>
      <trkpt lat="48.98507" lon="6.03006">
        <ele>168.90039</ele>
        <time>2026-05-18T15:27:56+02:00</time>
      </trkpt>
      <trkpt lat="48.98511" lon="6.03002">
        <ele>169.40039</ele>
        <time>2026-05-18T15:27:57+02:00</time>
      </trkpt>
      <trkpt lat="48.98514" lon="6.02997">
        <ele>169.2998</ele>
        <time>2026-05-18T15:27:58+02:00</time>
      </trkpt>
      <trkpt lat="48.98516" lon="6.02991">
        <ele>170.2998</ele>
        <time>2026-05-18T15:27:59+02:00</time>
      </trkpt>
      <trkpt lat="48.98515" lon="6.02986">
        <ele>171.40039</ele>
        <time>2026-05-18T15:28:00+02:00</time>
      </trkpt>
      <trkpt lat="48.98514" lon="6.0298">
        <ele>171.40039</ele>
        <time>2026-05-18T15:28:01+02:00</time>
      </trkpt>
      <trkpt lat="48.98515" lon="6.02974">
        <ele>172.60059</ele>
        <time>2026-05-18T15:28:02+02:00</time>
      </trkpt>
      <trkpt lat="48.98517" lon="6.0297">
        <ele>172.60059</ele>
        <time>2026-05-18T15:28:03+02:00</time>
      </trkpt>
      <trkpt lat="48.98519" lon="6.02968">
        <ele>174.10059</ele>
        <time>2026-05-18T15:28:04+02:00</time>
      </trkpt>
      <trkpt lat="48.98523" lon="6.02966">
        <ele>174.10059</ele>
        <time>2026-05-18T15:28:05+02:00</time>
      </trkpt>
      <trkpt lat="48.98527" lon="6.02965">
        <ele>174.7998</ele>
        <time>2026-05-18T15:28:06+02:00</time>
      </trkpt>
      <trkpt lat="48.98531" lon="6.02963">
        <ele>176</ele>
        <time>2026-05-18T15:28:07+02:00</time>
      </trkpt>
      <trkpt lat="48.98536" lon="6.02961">
        <ele>177</ele>
        <time>2026-05-18T15:28:08+02:00</time>
      </trkpt>
      <trkpt lat="48.9854" lon="6.02959">
        <ele>177.2998</ele>
        <time>2026-05-18T15:28:09+02:00</time>
      </trkpt>
      <trkpt lat="48.98545" lon="6.02957">
        <ele>177.2998</ele>
        <time>2026-05-18T15:28:10+02:00</time>
      </trkpt>
      <trkpt lat="48.9855" lon="6.02955">
        <ele>176.7002</ele>
        <time>2026-05-18T15:28:11+02:00</time>
      </trkpt>
      <trkpt lat="48.98554" lon="6.02952">
        <ele>176.40039</ele>
        <time>2026-05-18T15:28:12+02:00</time>
      </trkpt>
      <trkpt lat="48.98559" lon="6.0295">
        <ele>175.90039</ele>
        <time>2026-05-18T15:28:13+02:00</time>
      </trkpt>
      <trkpt lat="48.98564" lon="6.02947">
        <ele>175.5</ele>
        <time>2026-05-18T15:28:14+02:00</time>
      </trkpt>
      <trkpt lat="48.98569" lon="6.02945">
        <ele>175.10059</ele>
        <time>2026-05-18T15:28:15+02:00</time>
      </trkpt>
      <trkpt lat="48.98575" lon="6.02943">
        <ele>175.90039</ele>
        <time>2026-05-18T15:28:16+02:00</time>
      </trkpt>
      <trkpt lat="48.9858" lon="6.02941">
        <ele>175.60059</ele>
        <time>2026-05-18T15:28:17+02:00</time>
      </trkpt>
      <trkpt lat="48.98585" lon="6.02939">
        <ele>175.40039</ele>
        <time>2026-05-18T15:28:18+02:00</time>
      </trkpt>
      <trkpt lat="48.9859" lon="6.02936">
        <ele>175.40039</ele>
        <time>2026-05-18T15:28:19+02:00</time>
      </trkpt>
      <trkpt lat="48.98595" lon="6.02934">
        <ele>176.2002</ele>
        <time>2026-05-18T15:28:20+02:00</time>
      </trkpt>
      <trkpt lat="48.98601" lon="6.02932">
        <ele>176.10059</ele>
        <time>2026-05-18T15:28:21+02:00</time>
      </trkpt>
      <trkpt lat="48.98605" lon="6.0293">
        <ele>176</ele>
        <time>2026-05-18T15:28:22+02:00</time>
      </trkpt>
      <trkpt lat="48.98611" lon="6.02928">
        <ele>176</ele>
        <time>2026-05-18T15:28:23+02:00</time>
      </trkpt>
      <trkpt lat="48.98616" lon="6.02926">
        <ele>176.60059</ele>
        <time>2026-05-18T15:28:24+02:00</time>
      </trkpt>
      <trkpt lat="48.98621" lon="6.02924">
        <ele>176.7002</ele>
        <time>2026-05-18T15:28:25+02:00</time>
      </trkpt>
      <trkpt lat="48.98626" lon="6.02922">
        <ele>176.7002</ele>
        <time>2026-05-18T15:28:26+02:00</time>
      </trkpt>
      <trkpt lat="48.98631" lon="6.02921">
        <ele>176.7998</ele>
        <time>2026-05-18T15:28:27+02:00</time>
      </trkpt>
      <trkpt lat="48.98636" lon="6.0292">
        <ele>176.90039</ele>
        <time>2026-05-18T15:28:28+02:00</time>
      </trkpt>
      <trkpt lat="48.98641" lon="6.02918">
        <ele>176.90039</ele>
        <time>2026-05-18T15:28:29+02:00</time>
      </trkpt>
      <trkpt lat="48.98646" lon="6.02916">
        <ele>177.40039</ele>
        <time>2026-05-18T15:28:30+02:00</time>
      </trkpt>
      <trkpt lat="48.9865" lon="6.02914">
        <ele>177.5</ele>
        <time>2026-05-18T15:28:31+02:00</time>
      </trkpt>
      <trkpt lat="48.98655" lon="6.02912">
        <ele>177.60059</ele>
        <time>2026-05-18T15:28:32+02:00</time>
      </trkpt>
      <trkpt lat="48.9866" lon="6.02909">
        <ele>177.7998</ele>
        <time>2026-05-18T15:28:33+02:00</time>
      </trkpt>
      <trkpt lat="48.98666" lon="6.02907">
        <ele>177.90039</ele>
        <time>2026-05-18T15:28:34+02:00</time>
      </trkpt>
      <trkpt lat="48.98671" lon="6.02904">
        <ele>178</ele>
        <time>2026-05-18T15:28:35+02:00</time>
      </trkpt>
      <trkpt lat="48.98676" lon="6.02902">
        <ele>178.10059</ele>
        <time>2026-05-18T15:28:36+02:00</time>
      </trkpt>
      <trkpt lat="48.98681" lon="6.02899">
        <ele>178.10059</ele>
        <time>2026-05-18T15:28:37+02:00</time>
      </trkpt>
      <trkpt lat="48.98686" lon="6.02897">
        <ele>178.10059</ele>
        <time>2026-05-18T15:28:38+02:00</time>
      </trkpt>
      <trkpt lat="48.98692" lon="6.02895">
        <ele>178.2002</ele>
        <time>2026-05-18T15:28:39+02:00</time>
      </trkpt>
      <trkpt lat="48.98697" lon="6.02893">
        <ele>178.2002</ele>
        <time>2026-05-18T15:28:40+02:00</time>
      </trkpt>
      <trkpt lat="48.98702" lon="6.02891">
        <ele>178.2998</ele>
        <time>2026-05-18T15:28:41+02:00</time>
      </trkpt>
      <trkpt lat="48.98707" lon="6.02889">
        <ele>178.40039</ele>
        <time>2026-05-18T15:28:42+02:00</time>
      </trkpt>
      <trkpt lat="48.98712" lon="6.02887">
        <ele>178.40039</ele>
        <time>2026-05-18T15:28:43+02:00</time>
      </trkpt>
      <trkpt lat="48.98717" lon="6.02885">
        <ele>178.40039</ele>
        <time>2026-05-18T15:28:44+02:00</time>
      </trkpt>
      <trkpt lat="48.98722" lon="6.02884">
        <ele>178.40039</ele>
        <time>2026-05-18T15:28:45+02:00</time>
      </trkpt>
      <trkpt lat="48.98728" lon="6.02882">
        <ele>178.5</ele>
        <time>2026-05-18T15:28:46+02:00</time>
      </trkpt>
      <trkpt lat="48.98733" lon="6.02881">
        <ele>178.5</ele>
        <time>2026-05-18T15:28:47+02:00</time>
      </trkpt>
      <trkpt lat="48.98737" lon="6.02879">
        <ele>178.5</ele>
        <time>2026-05-18T15:28:48+02:00</time>
      </trkpt>
      <trkpt lat="48.98742" lon="6.02877">
        <ele>178.5</ele>
        <time>2026-05-18T15:28:49+02:00</time>
      </trkpt>
      <trkpt lat="48.98747" lon="6.02875">
        <ele>178.5</ele>
        <time>2026-05-18T15:28:50+02:00</time>
      </trkpt>
      <trkpt lat="48.98753" lon="6.02873">
        <ele>178.5</ele>
        <time>2026-05-18T15:28:51+02:00</time>
      </trkpt>
      <trkpt lat="48.98758" lon="6.02871">
        <ele>178.5</ele>
        <time>2026-05-18T15:28:52+02:00</time>
      </trkpt>
      <trkpt lat="48.98763" lon="6.02869">
        <ele>178.5</ele>
        <time>2026-05-18T15:28:53+02:00</time>
      </trkpt>
      <trkpt lat="48.98768" lon="6.02867">
        <ele>178.5</ele>
        <time>2026-05-18T15:28:54+02:00</time>
      </trkpt>
      <trkpt lat="48.98774" lon="6.02866">
        <ele>178.60059</ele>
        <time>2026-05-18T15:28:55+02:00</time>
      </trkpt>
      <trkpt lat="48.98779" lon="6.02864">
        <ele>178.60059</ele>
        <time>2026-05-18T15:28:56+02:00</time>
      </trkpt>
      <trkpt lat="48.98785" lon="6.02863">
        <ele>178.60059</ele>
        <time>2026-05-18T15:28:57+02:00</time>
      </trkpt>
      <trkpt lat="48.9879" lon="6.02861">
        <ele>178.60059</ele>
        <time>2026-05-18T15:28:58+02:00</time>
      </trkpt>
      <trkpt lat="48.98796" lon="6.0286">
        <ele>178.60059</ele>
        <time>2026-05-18T15:28:59+02:00</time>
      </trkpt>
      <trkpt lat="48.98802" lon="6.02859">
        <ele>178.60059</ele>
        <time>2026-05-18T15:29:00+02:00</time>
      </trkpt>
      <trkpt lat="48.98808" lon="6.02858">
        <ele>178.60059</ele>
        <time>2026-05-18T15:29:01+02:00</time>
      </trkpt>
      <trkpt lat="48.98814" lon="6.02857">
        <ele>178.7002</ele>
        <time>2026-05-18T15:29:02+02:00</time>
      </trkpt>
      <trkpt lat="48.9882" lon="6.02856">
        <ele>178.7002</ele>
        <time>2026-05-18T15:29:03+02:00</time>
      </trkpt>
      <trkpt lat="48.98826" lon="6.02855">
        <ele>178.7002</ele>
        <time>2026-05-18T15:29:04+02:00</time>
      </trkpt>
      <trkpt lat="48.98831" lon="6.02854">
        <ele>178.7002</ele>
        <time>2026-05-18T15:29:05+02:00</time>
      </trkpt>
      <trkpt lat="48.98836" lon="6.02853">
        <ele>178.7002</ele>
        <time>2026-05-18T15:29:06+02:00</time>
      </trkpt>
      <trkpt lat="48.98842" lon="6.02853">
        <ele>178.7002</ele>
        <time>2026-05-18T15:29:07+02:00</time>
      </trkpt>
      <trkpt lat="48.98848" lon="6.02853">
        <ele>178.7002</ele>
        <time>2026-05-18T15:29:08+02:00</time>
      </trkpt>
      <trkpt lat="48.98855" lon="6.02853">
        <ele>178.7002</ele>
        <time>2026-05-18T15:29:09+02:00</time>
      </trkpt>
      <trkpt lat="48.9886" lon="6.02853">
        <ele>178.7002</ele>
        <time>2026-05-18T15:29:10+02:00</time>
      </trkpt>
      <trkpt lat="48.98866" lon="6.02854">
        <ele>178.7002</ele>
        <time>2026-05-18T15:29:11+02:00</time>
      </trkpt>
      <trkpt lat="48.98872" lon="6.02853">
        <ele>178.7002</ele>
        <time>2026-05-18T15:29:12+02:00</time>
      </trkpt>
      <trkpt lat="48.98877" lon="6.02852">
        <ele>178.7002</ele>
        <time>2026-05-18T15:29:13+02:00</time>
      </trkpt>
      <trkpt lat="48.98883" lon="6.02851">
        <ele>178.7002</ele>
        <time>2026-05-18T15:29:14+02:00</time>
      </trkpt>
      <trkpt lat="48.98889" lon="6.02851">
        <ele>178.7998</ele>
        <time>2026-05-18T15:29:15+02:00</time>
      </trkpt>
      <trkpt lat="48.98894" lon="6.02851">
        <ele>178.7998</ele>
        <time>2026-05-18T15:29:16+02:00</time>
      </trkpt>
      <trkpt lat="48.989" lon="6.02851">
        <ele>178.7998</ele>
        <time>2026-05-18T15:29:17+02:00</time>
      </trkpt>
      <trkpt lat="48.98906" lon="6.02852">
        <ele>178.7998</ele>
        <time>2026-05-18T15:29:18+02:00</time>
      </trkpt>
      <trkpt lat="48.98912" lon="6.02853">
        <ele>178.7998</ele>
        <time>2026-05-18T15:29:19+02:00</time>
      </trkpt>
      <trkpt lat="48.98917" lon="6.02854">
        <ele>178.7998</ele>
        <time>2026-05-18T15:29:20+02:00</time>
      </trkpt>
      <trkpt lat="48.98923" lon="6.02855">
        <ele>178.7002</ele>
        <time>2026-05-18T15:29:21+02:00</time>
      </trkpt>
      <trkpt lat="48.98928" lon="6.02855">
        <ele>178.7002</ele>
        <time>2026-05-18T15:29:22+02:00</time>
      </trkpt>
      <trkpt lat="48.98933" lon="6.02856">
        <ele>178.7002</ele>
        <time>2026-05-18T15:29:23+02:00</time>
      </trkpt>
      <trkpt lat="48.98939" lon="6.02857">
        <ele>178.7002</ele>
        <time>2026-05-18T15:29:24+02:00</time>
      </trkpt>
      <trkpt lat="48.98944" lon="6.02858">
        <ele>178.60059</ele>
        <time>2026-05-18T15:29:25+02:00</time>
      </trkpt>
      <trkpt lat="48.98949" lon="6.02858">
        <ele>178.60059</ele>
        <time>2026-05-18T15:29:26+02:00</time>
      </trkpt>
      <trkpt lat="48.98955" lon="6.02859">
        <ele>178.60059</ele>
        <time>2026-05-18T15:29:27+02:00</time>
      </trkpt>
      <trkpt lat="48.9896" lon="6.02859">
        <ele>178.60059</ele>
        <time>2026-05-18T15:29:28+02:00</time>
      </trkpt>
      <trkpt lat="48.98966" lon="6.0286">
        <ele>178.7002</ele>
        <time>2026-05-18T15:29:29+02:00</time>
      </trkpt>
      <trkpt lat="48.98972" lon="6.02862">
        <ele>178.7002</ele>
        <time>2026-05-18T15:29:30+02:00</time>
      </trkpt>
      <trkpt lat="48.98978" lon="6.02863">
        <ele>178.7002</ele>
        <time>2026-05-18T15:29:31+02:00</time>
      </trkpt>
      <trkpt lat="48.98984" lon="6.02865">
        <ele>178.7002</ele>
        <time>2026-05-18T15:29:32+02:00</time>
      </trkpt>
      <trkpt lat="48.9899" lon="6.02866">
        <ele>178.7002</ele>
        <time>2026-05-18T15:29:33+02:00</time>
      </trkpt>
      <trkpt lat="48.98996" lon="6.02867">
        <ele>178.60059</ele>
        <time>2026-05-18T15:29:34+02:00</time>
      </trkpt>
      <trkpt lat="48.99001" lon="6.02869">
        <ele>178.60059</ele>
        <time>2026-05-18T15:29:35+02:00</time>
      </trkpt>
      <trkpt lat="48.99007" lon="6.02871">
        <ele>178.7002</ele>
        <time>2026-05-18T15:29:36+02:00</time>
      </trkpt>
      <trkpt lat="48.99012" lon="6.02872">
        <ele>178.7002</ele>
        <time>2026-05-18T15:29:37+02:00</time>
      </trkpt>
      <trkpt lat="48.99017" lon="6.02874">
        <ele>178.7998</ele>
        <time>2026-05-18T15:29:38+02:00</time>
      </trkpt>
      <trkpt lat="48.99022" lon="6.02876">
        <ele>178.7002</ele>
        <time>2026-05-18T15:29:39+02:00</time>
      </trkpt>
      <trkpt lat="48.99028" lon="6.02878">
        <ele>178.7998</ele>
        <time>2026-05-18T15:29:40+02:00</time>
      </trkpt>
      <trkpt lat="48.99033" lon="6.02879">
        <ele>178.90039</ele>
        <time>2026-05-18T15:29:41+02:00</time>
      </trkpt>
      <trkpt lat="48.99039" lon="6.02881">
        <ele>178.90039</ele>
        <time>2026-05-18T15:29:42+02:00</time>
      </trkpt>
      <trkpt lat="48.99045" lon="6.02883">
        <ele>179</ele>
        <time>2026-05-18T15:29:43+02:00</time>
      </trkpt>
      <trkpt lat="48.9905" lon="6.02885">
        <ele>178.90039</ele>
        <time>2026-05-18T15:29:44+02:00</time>
      </trkpt>
      <trkpt lat="48.99055" lon="6.02887">
        <ele>178.90039</ele>
        <time>2026-05-18T15:29:45+02:00</time>
      </trkpt>
      <trkpt lat="48.99061" lon="6.02889">
        <ele>178.90039</ele>
        <time>2026-05-18T15:29:46+02:00</time>
      </trkpt>
      <trkpt lat="48.99066" lon="6.02891">
        <ele>178.7998</ele>
        <time>2026-05-18T15:29:47+02:00</time>
      </trkpt>
      <trkpt lat="48.99071" lon="6.02894">
        <ele>178.5</ele>
        <time>2026-05-18T15:29:48+02:00</time>
      </trkpt>
      <trkpt lat="48.99077" lon="6.02897">
        <ele>178.40039</ele>
        <time>2026-05-18T15:29:49+02:00</time>
      </trkpt>
      <trkpt lat="48.99082" lon="6.029">
        <ele>178.10059</ele>
        <time>2026-05-18T15:29:50+02:00</time>
      </trkpt>
      <trkpt lat="48.99088" lon="6.02903">
        <ele>177.5</ele>
        <time>2026-05-18T15:29:51+02:00</time>
      </trkpt>
      <trkpt lat="48.99093" lon="6.02905">
        <ele>177.2002</ele>
        <time>2026-05-18T15:29:52+02:00</time>
      </trkpt>
      <trkpt lat="48.99098" lon="6.02908">
        <ele>176.90039</ele>
        <time>2026-05-18T15:29:53+02:00</time>
      </trkpt>
      <trkpt lat="48.99103" lon="6.02911">
        <ele>176.2002</ele>
        <time>2026-05-18T15:29:54+02:00</time>
      </trkpt>
      <trkpt lat="48.99108" lon="6.02913">
        <ele>176.2002</ele>
        <time>2026-05-18T15:29:55+02:00</time>
      </trkpt>
      <trkpt lat="48.99113" lon="6.02916">
        <ele>175.90039</ele>
        <time>2026-05-18T15:29:56+02:00</time>
      </trkpt>
      <trkpt lat="48.99118" lon="6.02919">
        <ele>175.2998</ele>
        <time>2026-05-18T15:29:57+02:00</time>
      </trkpt>
      <trkpt lat="48.99123" lon="6.02921">
        <ele>175.10059</ele>
        <time>2026-05-18T15:29:58+02:00</time>
      </trkpt>
      <trkpt lat="48.99128" lon="6.02924">
        <ele>174.90039</ele>
        <time>2026-05-18T15:29:59+02:00</time>
      </trkpt>
      <trkpt lat="48.99133" lon="6.02927">
        <ele>174.5</ele>
        <time>2026-05-18T15:30:00+02:00</time>
      </trkpt>
      <trkpt lat="48.99138" lon="6.0293">
        <ele>174.40039</ele>
        <time>2026-05-18T15:30:01+02:00</time>
      </trkpt>
      <trkpt lat="48.99143" lon="6.02933">
        <ele>174.2998</ele>
        <time>2026-05-18T15:30:02+02:00</time>
      </trkpt>
      <trkpt lat="48.99148" lon="6.02936">
        <ele>174</ele>
        <time>2026-05-18T15:30:03+02:00</time>
      </trkpt>
      <trkpt lat="48.99153" lon="6.02939">
        <ele>174</ele>
        <time>2026-05-18T15:30:04+02:00</time>
      </trkpt>
      <trkpt lat="48.99158" lon="6.02942">
        <ele>173.90039</ele>
        <time>2026-05-18T15:30:05+02:00</time>
      </trkpt>
      <trkpt lat="48.99164" lon="6.02946">
        <ele>173.7002</ele>
        <time>2026-05-18T15:30:06+02:00</time>
      </trkpt>
      <trkpt lat="48.99169" lon="6.02949">
        <ele>173.7002</ele>
        <time>2026-05-18T15:30:07+02:00</time>
      </trkpt>
      <trkpt lat="48.99174" lon="6.02953">
        <ele>173.5</ele>
        <time>2026-05-18T15:30:08+02:00</time>
      </trkpt>
      <trkpt lat="48.99179" lon="6.02957">
        <ele>173.5</ele>
        <time>2026-05-18T15:30:09+02:00</time>
      </trkpt>
      <trkpt lat="48.99185" lon="6.02961">
        <ele>173.5</ele>
        <time>2026-05-18T15:30:10+02:00</time>
      </trkpt>
      <trkpt lat="48.9919" lon="6.02965">
        <ele>173.5</ele>
        <time>2026-05-18T15:30:11+02:00</time>
      </trkpt>
      <trkpt lat="48.99194" lon="6.0297">
        <ele>173.7002</ele>
        <time>2026-05-18T15:30:12+02:00</time>
      </trkpt>
      <trkpt lat="48.99199" lon="6.02974">
        <ele>173.7998</ele>
        <time>2026-05-18T15:30:13+02:00</time>
      </trkpt>
      <trkpt lat="48.99205" lon="6.02979">
        <ele>174.10059</ele>
        <time>2026-05-18T15:30:14+02:00</time>
      </trkpt>
      <trkpt lat="48.9921" lon="6.02984">
        <ele>174.10059</ele>
        <time>2026-05-18T15:30:15+02:00</time>
      </trkpt>
      <trkpt lat="48.99215" lon="6.02989">
        <ele>174.40039</ele>
        <time>2026-05-18T15:30:16+02:00</time>
      </trkpt>
      <trkpt lat="48.9922" lon="6.02994">
        <ele>174.60059</ele>
        <time>2026-05-18T15:30:17+02:00</time>
      </trkpt>
      <trkpt lat="48.99225" lon="6.02998">
        <ele>174.7998</ele>
        <time>2026-05-18T15:30:18+02:00</time>
      </trkpt>
      <trkpt lat="48.9923" lon="6.03003">
        <ele>174.90039</ele>
        <time>2026-05-18T15:30:19+02:00</time>
      </trkpt>
      <trkpt lat="48.99236" lon="6.03008">
        <ele>175.10059</ele>
        <time>2026-05-18T15:30:20+02:00</time>
      </trkpt>
      <trkpt lat="48.99241" lon="6.03013">
        <ele>175.40039</ele>
        <time>2026-05-18T15:30:21+02:00</time>
      </trkpt>
      <trkpt lat="48.99246" lon="6.03017">
        <ele>175.5</ele>
        <time>2026-05-18T15:30:22+02:00</time>
      </trkpt>
      <trkpt lat="48.99251" lon="6.03022">
        <ele>175.7998</ele>
        <time>2026-05-18T15:30:23+02:00</time>
      </trkpt>
      <trkpt lat="48.99256" lon="6.03026">
        <ele>175.90039</ele>
        <time>2026-05-18T15:30:24+02:00</time>
      </trkpt>
      <trkpt lat="48.99261" lon="6.03031">
        <ele>176.10059</ele>
        <time>2026-05-18T15:30:25+02:00</time>
      </trkpt>
      <trkpt lat="48.99266" lon="6.03036">
        <ele>176.10059</ele>
        <time>2026-05-18T15:30:26+02:00</time>
      </trkpt>
      <trkpt lat="48.99271" lon="6.0304">
        <ele>176.2002</ele>
        <time>2026-05-18T15:30:27+02:00</time>
      </trkpt>
      <trkpt lat="48.99275" lon="6.03045">
        <ele>176.2998</ele>
        <time>2026-05-18T15:30:28+02:00</time>
      </trkpt>
      <trkpt lat="48.9928" lon="6.03049">
        <ele>176.40039</ele>
        <time>2026-05-18T15:30:29+02:00</time>
      </trkpt>
      <trkpt lat="48.99285" lon="6.03053">
        <ele>176.5</ele>
        <time>2026-05-18T15:30:30+02:00</time>
      </trkpt>
      <trkpt lat="48.99289" lon="6.03056">
        <ele>176.60059</ele>
        <time>2026-05-18T15:30:31+02:00</time>
      </trkpt>
      <trkpt lat="48.99294" lon="6.0306">
        <ele>176.7002</ele>
        <time>2026-05-18T15:30:32+02:00</time>
      </trkpt>
      <trkpt lat="48.99298" lon="6.03064">
        <ele>176.7998</ele>
        <time>2026-05-18T15:30:33+02:00</time>
      </trkpt>
      <trkpt lat="48.99302" lon="6.03069">
        <ele>176.90039</ele>
        <time>2026-05-18T15:30:34+02:00</time>
      </trkpt>
      <trkpt lat="48.99305" lon="6.03074">
        <ele>176.7998</ele>
        <time>2026-05-18T15:30:35+02:00</time>
      </trkpt>
      <trkpt lat="48.99308" lon="6.03079">
        <ele>176.90039</ele>
        <time>2026-05-18T15:30:36+02:00</time>
      </trkpt>
      <trkpt lat="48.99312" lon="6.03084">
        <ele>177</ele>
        <time>2026-05-18T15:30:37+02:00</time>
      </trkpt>
      <trkpt lat="48.99313" lon="6.0309">
        <ele>176.90039</ele>
        <time>2026-05-18T15:30:38+02:00</time>
      </trkpt>
      <trkpt lat="48.99313" lon="6.03096">
        <ele>176.90039</ele>
        <time>2026-05-18T15:30:39+02:00</time>
      </trkpt>
      <trkpt lat="48.99312" lon="6.03102">
        <ele>176.90039</ele>
        <time>2026-05-18T15:30:40+02:00</time>
      </trkpt>
      <trkpt lat="48.9931" lon="6.03108">
        <ele>176.7998</ele>
        <time>2026-05-18T15:30:41+02:00</time>
      </trkpt>
      <trkpt lat="48.99308" lon="6.03114">
        <ele>176.7998</ele>
        <time>2026-05-18T15:30:42+02:00</time>
      </trkpt>
      <trkpt lat="48.99307" lon="6.0312">
        <ele>176.7002</ele>
        <time>2026-05-18T15:30:43+02:00</time>
      </trkpt>
      <trkpt lat="48.99306" lon="6.03127">
        <ele>176.5</ele>
        <time>2026-05-18T15:30:44+02:00</time>
      </trkpt>
      <trkpt lat="48.99306" lon="6.03135">
        <ele>176.40039</ele>
        <time>2026-05-18T15:30:45+02:00</time>
      </trkpt>
      <trkpt lat="48.99306" lon="6.03143">
        <ele>176.2998</ele>
        <time>2026-05-18T15:30:46+02:00</time>
      </trkpt>
      <trkpt lat="48.99308" lon="6.03151">
        <ele>176.10059</ele>
        <time>2026-05-18T15:30:47+02:00</time>
      </trkpt>
      <trkpt lat="48.9931" lon="6.0316">
        <ele>175.90039</ele>
        <time>2026-05-18T15:30:48+02:00</time>
      </trkpt>
      <trkpt lat="48.99313" lon="6.0317">
        <ele>175.7998</ele>
        <time>2026-05-18T15:30:49+02:00</time>
      </trkpt>
      <trkpt lat="48.99316" lon="6.0318">
        <ele>175.7002</ele>
        <time>2026-05-18T15:30:50+02:00</time>
      </trkpt>
      <trkpt lat="48.99318" lon="6.03189">
        <ele>175.60059</ele>
        <time>2026-05-18T15:30:51+02:00</time>
      </trkpt>
      <trkpt lat="48.99321" lon="6.03198">
        <ele>175.5</ele>
        <time>2026-05-18T15:30:52+02:00</time>
      </trkpt>
      <trkpt lat="48.99323" lon="6.03208">
        <ele>175.5</ele>
        <time>2026-05-18T15:30:53+02:00</time>
      </trkpt>
      <trkpt lat="48.99325" lon="6.03217">
        <ele>175.40039</ele>
        <time>2026-05-18T15:30:54+02:00</time>
      </trkpt>
      <trkpt lat="48.99328" lon="6.03226">
        <ele>175.2998</ele>
        <time>2026-05-18T15:30:55+02:00</time>
      </trkpt>
      <trkpt lat="48.99331" lon="6.03235">
        <ele>175.2002</ele>
        <time>2026-05-18T15:30:56+02:00</time>
      </trkpt>
      <trkpt lat="48.99334" lon="6.03243">
        <ele>175.10059</ele>
        <time>2026-05-18T15:30:57+02:00</time>
      </trkpt>
      <trkpt lat="48.99338" lon="6.03252">
        <ele>175</ele>
        <time>2026-05-18T15:30:58+02:00</time>
      </trkpt>
      <trkpt lat="48.99342" lon="6.0326">
        <ele>174.90039</ele>
        <time>2026-05-18T15:30:59+02:00</time>
      </trkpt>
      <trkpt lat="48.99346" lon="6.03268">
        <ele>174.90039</ele>
        <time>2026-05-18T15:31:00+02:00</time>
      </trkpt>
      <trkpt lat="48.9935" lon="6.03276">
        <ele>174.7002</ele>
        <time>2026-05-18T15:31:01+02:00</time>
      </trkpt>
      <trkpt lat="48.99354" lon="6.03284">
        <ele>174.60059</ele>
        <time>2026-05-18T15:31:02+02:00</time>
      </trkpt>
      <trkpt lat="48.99358" lon="6.03293">
        <ele>174.40039</ele>
        <time>2026-05-18T15:31:03+02:00</time>
      </trkpt>
      <trkpt lat="48.99362" lon="6.03302">
        <ele>174.2002</ele>
        <time>2026-05-18T15:31:04+02:00</time>
      </trkpt>
      <trkpt lat="48.99365" lon="6.03311">
        <ele>174.10059</ele>
        <time>2026-05-18T15:31:05+02:00</time>
      </trkpt>
      <trkpt lat="48.99369" lon="6.03319">
        <ele>174</ele>
        <time>2026-05-18T15:31:06+02:00</time>
      </trkpt>
      <trkpt lat="48.99373" lon="6.03328">
        <ele>173.90039</ele>
        <time>2026-05-18T15:31:07+02:00</time>
      </trkpt>
      <trkpt lat="48.99377" lon="6.03337">
        <ele>173.90039</ele>
        <time>2026-05-18T15:31:08+02:00</time>
      </trkpt>
      <trkpt lat="48.99392" lon="6.03374">
        <ele>172.5</ele>
        <time>2026-05-18T15:31:09+02:00</time>
      </trkpt>
      <trkpt lat="48.99395" lon="6.03383">
        <ele>172.60059</ele>
        <time>2026-05-18T15:31:10+02:00</time>
      </trkpt>
      <trkpt lat="48.99399" lon="6.03392">
        <ele>172.2002</ele>
        <time>2026-05-18T15:31:11+02:00</time>
      </trkpt>
      <trkpt lat="48.99402" lon="6.03401">
        <ele>172.7002</ele>
        <time>2026-05-18T15:31:12+02:00</time>
      </trkpt>
      <trkpt lat="48.99405" lon="6.0341">
        <ele>173</ele>
        <time>2026-05-18T15:31:13+02:00</time>
      </trkpt>
      <trkpt lat="48.99408" lon="6.0342">
        <ele>173.2002</ele>
        <time>2026-05-18T15:31:14+02:00</time>
      </trkpt>
      <trkpt lat="48.99411" lon="6.03429">
        <ele>173.2998</ele>
        <time>2026-05-18T15:31:15+02:00</time>
      </trkpt>
      <trkpt lat="48.99414" lon="6.03438">
        <ele>173.2002</ele>
        <time>2026-05-18T15:31:16+02:00</time>
      </trkpt>
      <trkpt lat="48.99418" lon="6.03446">
        <ele>173.2998</ele>
        <time>2026-05-18T15:31:17+02:00</time>
      </trkpt>
      <trkpt lat="48.99421" lon="6.03455">
        <ele>172.90039</ele>
        <time>2026-05-18T15:31:18+02:00</time>
      </trkpt>
      <trkpt lat="48.99424" lon="6.03464">
        <ele>173</ele>
        <time>2026-05-18T15:31:19+02:00</time>
      </trkpt>
      <trkpt lat="48.99426" lon="6.03473">
        <ele>171.7998</ele>
        <time>2026-05-18T15:31:20+02:00</time>
      </trkpt>
      <trkpt lat="48.99429" lon="6.03482">
        <ele>172.2002</ele>
        <time>2026-05-18T15:31:21+02:00</time>
      </trkpt>
      <trkpt lat="48.99432" lon="6.03491">
        <ele>172.2002</ele>
        <time>2026-05-18T15:31:22+02:00</time>
      </trkpt>
      <trkpt lat="48.99435" lon="6.035">
        <ele>173.5</ele>
        <time>2026-05-18T15:31:23+02:00</time>
      </trkpt>
      <trkpt lat="48.99438" lon="6.03508">
        <ele>174</ele>
        <time>2026-05-18T15:31:24+02:00</time>
      </trkpt>
      <trkpt lat="48.99442" lon="6.03516">
        <ele>174</ele>
        <time>2026-05-18T15:31:25+02:00</time>
      </trkpt>
      <trkpt lat="48.99445" lon="6.03524">
        <ele>174</ele>
        <time>2026-05-18T15:31:26+02:00</time>
      </trkpt>
      <trkpt lat="48.99448" lon="6.03533">
        <ele>173.7002</ele>
        <time>2026-05-18T15:31:27+02:00</time>
      </trkpt>
      <trkpt lat="48.99451" lon="6.03542">
        <ele>173.7002</ele>
        <time>2026-05-18T15:31:28+02:00</time>
      </trkpt>
      <trkpt lat="48.99454" lon="6.03551">
        <ele>173.60059</ele>
        <time>2026-05-18T15:31:29+02:00</time>
      </trkpt>
      <trkpt lat="48.99458" lon="6.0356">
        <ele>173.40039</ele>
        <time>2026-05-18T15:31:30+02:00</time>
      </trkpt>
      <trkpt lat="48.99461" lon="6.03568">
        <ele>173</ele>
        <time>2026-05-18T15:31:31+02:00</time>
      </trkpt>
      <trkpt lat="48.99465" lon="6.03577">
        <ele>172.7998</ele>
        <time>2026-05-18T15:31:32+02:00</time>
      </trkpt>
      <trkpt lat="48.99468" lon="6.03586">
        <ele>172.7002</ele>
        <time>2026-05-18T15:31:33+02:00</time>
      </trkpt>
      <trkpt lat="48.99471" lon="6.03594">
        <ele>172.60059</ele>
        <time>2026-05-18T15:31:34+02:00</time>
      </trkpt>
      <trkpt lat="48.99474" lon="6.03603">
        <ele>172.60059</ele>
        <time>2026-05-18T15:31:35+02:00</time>
      </trkpt>
      <trkpt lat="48.99477" lon="6.03613">
        <ele>172.60059</ele>
        <time>2026-05-18T15:31:36+02:00</time>
      </trkpt>
      <trkpt lat="48.9948" lon="6.03622">
        <ele>172.60059</ele>
        <time>2026-05-18T15:31:37+02:00</time>
      </trkpt>
      <trkpt lat="48.99482" lon="6.03632">
        <ele>172.60059</ele>
        <time>2026-05-18T15:31:38+02:00</time>
      </trkpt>
      <trkpt lat="48.99486" lon="6.03641">
        <ele>172.60059</ele>
        <time>2026-05-18T15:31:39+02:00</time>
      </trkpt>
      <trkpt lat="48.99489" lon="6.03651">
        <ele>172.60059</ele>
        <time>2026-05-18T15:31:40+02:00</time>
      </trkpt>
      <trkpt lat="48.99491" lon="6.0366">
        <ele>172.60059</ele>
        <time>2026-05-18T15:31:41+02:00</time>
      </trkpt>
      <trkpt lat="48.99494" lon="6.03669">
        <ele>172.60059</ele>
        <time>2026-05-18T15:31:42+02:00</time>
      </trkpt>
      <trkpt lat="48.99498" lon="6.03679">
        <ele>172.7002</ele>
        <time>2026-05-18T15:31:43+02:00</time>
      </trkpt>
      <trkpt lat="48.99501" lon="6.03687">
        <ele>172.7002</ele>
        <time>2026-05-18T15:31:44+02:00</time>
      </trkpt>
      <trkpt lat="48.99505" lon="6.03696">
        <ele>172.60059</ele>
        <time>2026-05-18T15:31:45+02:00</time>
      </trkpt>
      <trkpt lat="48.99509" lon="6.03704">
        <ele>172.40039</ele>
        <time>2026-05-18T15:31:46+02:00</time>
      </trkpt>
      <trkpt lat="48.99513" lon="6.03713">
        <ele>172.40039</ele>
        <time>2026-05-18T15:31:47+02:00</time>
      </trkpt>
      <trkpt lat="48.99516" lon="6.03721">
        <ele>172.2002</ele>
        <time>2026-05-18T15:31:48+02:00</time>
      </trkpt>
      <trkpt lat="48.9952" lon="6.0373">
        <ele>172.10059</ele>
        <time>2026-05-18T15:31:49+02:00</time>
      </trkpt>
      <trkpt lat="48.99524" lon="6.03738">
        <ele>172.10059</ele>
        <time>2026-05-18T15:31:50+02:00</time>
      </trkpt>
      <trkpt lat="48.99527" lon="6.03746">
        <ele>172</ele>
        <time>2026-05-18T15:31:51+02:00</time>
      </trkpt>
      <trkpt lat="48.99531" lon="6.03755">
        <ele>172</ele>
        <time>2026-05-18T15:31:52+02:00</time>
      </trkpt>
      <trkpt lat="48.99534" lon="6.03763">
        <ele>172</ele>
        <time>2026-05-18T15:31:53+02:00</time>
      </trkpt>
      <trkpt lat="48.99537" lon="6.03772">
        <ele>172</ele>
        <time>2026-05-18T15:31:54+02:00</time>
      </trkpt>
      <trkpt lat="48.9954" lon="6.03781">
        <ele>172</ele>
        <time>2026-05-18T15:31:55+02:00</time>
      </trkpt>
      <trkpt lat="48.99543" lon="6.0379">
        <ele>172</ele>
        <time>2026-05-18T15:31:56+02:00</time>
      </trkpt>
      <trkpt lat="48.99545" lon="6.038">
        <ele>171.90039</ele>
        <time>2026-05-18T15:31:57+02:00</time>
      </trkpt>
      <trkpt lat="48.99547" lon="6.0381">
        <ele>171.90039</ele>
        <time>2026-05-18T15:31:58+02:00</time>
      </trkpt>
      <trkpt lat="48.99548" lon="6.0382">
        <ele>171.40039</ele>
        <time>2026-05-18T15:31:59+02:00</time>
      </trkpt>
      <trkpt lat="48.99549" lon="6.03829">
        <ele>171.40039</ele>
        <time>2026-05-18T15:32:00+02:00</time>
      </trkpt>
      <trkpt lat="48.9955" lon="6.03839">
        <ele>171</ele>
        <time>2026-05-18T15:32:01+02:00</time>
      </trkpt>
      <trkpt lat="48.99552" lon="6.03849">
        <ele>170.60059</ele>
        <time>2026-05-18T15:32:02+02:00</time>
      </trkpt>
      <trkpt lat="48.99553" lon="6.03859">
        <ele>170</ele>
        <time>2026-05-18T15:32:03+02:00</time>
      </trkpt>
      <trkpt lat="48.99554" lon="6.03868">
        <ele>170</ele>
        <time>2026-05-18T15:32:04+02:00</time>
      </trkpt>
      <trkpt lat="48.99555" lon="6.03878">
        <ele>169.5</ele>
        <time>2026-05-18T15:32:05+02:00</time>
      </trkpt>
      <trkpt lat="48.99555" lon="6.03888">
        <ele>168.5</ele>
        <time>2026-05-18T15:32:06+02:00</time>
      </trkpt>
      <trkpt lat="48.99555" lon="6.03898">
        <ele>168.10059</ele>
        <time>2026-05-18T15:32:07+02:00</time>
      </trkpt>
      <trkpt lat="48.99556" lon="6.03908">
        <ele>168</ele>
        <time>2026-05-18T15:32:08+02:00</time>
      </trkpt>
      <trkpt lat="48.99557" lon="6.03918">
        <ele>167.90039</ele>
        <time>2026-05-18T15:32:09+02:00</time>
      </trkpt>
      <trkpt lat="48.9956" lon="6.03927">
        <ele>168</ele>
        <time>2026-05-18T15:32:10+02:00</time>
      </trkpt>
      <trkpt lat="48.99563" lon="6.03935">
        <ele>168.10059</ele>
        <time>2026-05-18T15:32:11+02:00</time>
      </trkpt>
      <trkpt lat="48.99566" lon="6.03943">
        <ele>168.10059</ele>
        <time>2026-05-18T15:32:12+02:00</time>
      </trkpt>
      <trkpt lat="48.99571" lon="6.0395">
        <ele>168.10059</ele>
        <time>2026-05-18T15:32:13+02:00</time>
      </trkpt>
      <trkpt lat="48.99575" lon="6.03957">
        <ele>168.10059</ele>
        <time>2026-05-18T15:32:14+02:00</time>
      </trkpt>
      <trkpt lat="48.99579" lon="6.03964">
        <ele>168</ele>
        <time>2026-05-18T15:32:15+02:00</time>
      </trkpt>
      <trkpt lat="48.99583" lon="6.0397">
        <ele>168.10059</ele>
        <time>2026-05-18T15:32:16+02:00</time>
      </trkpt>
      <trkpt lat="48.99588" lon="6.03977">
        <ele>168.10059</ele>
        <time>2026-05-18T15:32:17+02:00</time>
      </trkpt>
      <trkpt lat="48.99592" lon="6.03984">
        <ele>168.10059</ele>
        <time>2026-05-18T15:32:18+02:00</time>
      </trkpt>
      <trkpt lat="48.99596" lon="6.03991">
        <ele>168.10059</ele>
        <time>2026-05-18T15:32:19+02:00</time>
      </trkpt>
      <trkpt lat="48.99601" lon="6.03998">
        <ele>168.10059</ele>
        <time>2026-05-18T15:32:20+02:00</time>
      </trkpt>
      <trkpt lat="48.99605" lon="6.04004">
        <ele>168.10059</ele>
        <time>2026-05-18T15:32:21+02:00</time>
      </trkpt>
      <trkpt lat="48.9961" lon="6.04011">
        <ele>168.10059</ele>
        <time>2026-05-18T15:32:22+02:00</time>
      </trkpt>
      <trkpt lat="48.99614" lon="6.04019">
        <ele>168.10059</ele>
        <time>2026-05-18T15:32:23+02:00</time>
      </trkpt>
      <trkpt lat="48.99619" lon="6.04026">
        <ele>168.10059</ele>
        <time>2026-05-18T15:32:24+02:00</time>
      </trkpt>
      <trkpt lat="48.99623" lon="6.04033">
        <ele>168</ele>
        <time>2026-05-18T15:32:25+02:00</time>
      </trkpt>
      <trkpt lat="48.99627" lon="6.04041">
        <ele>168</ele>
        <time>2026-05-18T15:32:26+02:00</time>
      </trkpt>
      <trkpt lat="48.99632" lon="6.04048">
        <ele>168</ele>
        <time>2026-05-18T15:32:27+02:00</time>
      </trkpt>
      <trkpt lat="48.99637" lon="6.04056">
        <ele>168.10059</ele>
        <time>2026-05-18T15:32:28+02:00</time>
      </trkpt>
      <trkpt lat="48.99641" lon="6.04063">
        <ele>168.10059</ele>
        <time>2026-05-18T15:32:29+02:00</time>
      </trkpt>
      <trkpt lat="48.99646" lon="6.04071">
        <ele>168</ele>
        <time>2026-05-18T15:32:30+02:00</time>
      </trkpt>
      <trkpt lat="48.9965" lon="6.04079">
        <ele>168</ele>
        <time>2026-05-18T15:32:31+02:00</time>
      </trkpt>
      <trkpt lat="48.99655" lon="6.04086">
        <ele>168</ele>
        <time>2026-05-18T15:32:32+02:00</time>
      </trkpt>
      <trkpt lat="48.9966" lon="6.04093">
        <ele>168</ele>
        <time>2026-05-18T15:32:33+02:00</time>
      </trkpt>
      <trkpt lat="48.99665" lon="6.041">
        <ele>168.10059</ele>
        <time>2026-05-18T15:32:34+02:00</time>
      </trkpt>
      <trkpt lat="48.99669" lon="6.04107">
        <ele>168.10059</ele>
        <time>2026-05-18T15:32:35+02:00</time>
      </trkpt>
      <trkpt lat="48.99674" lon="6.04115">
        <ele>168</ele>
        <time>2026-05-18T15:32:36+02:00</time>
      </trkpt>
      <trkpt lat="48.99679" lon="6.04122">
        <ele>168</ele>
        <time>2026-05-18T15:32:37+02:00</time>
      </trkpt>
      <trkpt lat="48.99684" lon="6.04129">
        <ele>168.10059</ele>
        <time>2026-05-18T15:32:38+02:00</time>
      </trkpt>
      <trkpt lat="48.99688" lon="6.04136">
        <ele>168.10059</ele>
        <time>2026-05-18T15:32:39+02:00</time>
      </trkpt>
      <trkpt lat="48.99693" lon="6.04142">
        <ele>168.10059</ele>
        <time>2026-05-18T15:32:40+02:00</time>
      </trkpt>
      <trkpt lat="48.99697" lon="6.04149">
        <ele>167.90039</ele>
        <time>2026-05-18T15:32:41+02:00</time>
      </trkpt>
      <trkpt lat="48.99702" lon="6.04156">
        <ele>167.90039</ele>
        <time>2026-05-18T15:32:42+02:00</time>
      </trkpt>
      <trkpt lat="48.99707" lon="6.04163">
        <ele>168.10059</ele>
        <time>2026-05-18T15:32:43+02:00</time>
      </trkpt>
      <trkpt lat="48.99712" lon="6.0417">
        <ele>168.2998</ele>
        <time>2026-05-18T15:32:44+02:00</time>
      </trkpt>
      <trkpt lat="48.99716" lon="6.04177">
        <ele>168.2002</ele>
        <time>2026-05-18T15:32:45+02:00</time>
      </trkpt>
      <trkpt lat="48.99721" lon="6.04184">
        <ele>168.2998</ele>
        <time>2026-05-18T15:32:46+02:00</time>
      </trkpt>
      <trkpt lat="48.99725" lon="6.04191">
        <ele>168.2002</ele>
        <time>2026-05-18T15:32:47+02:00</time>
      </trkpt>
      <trkpt lat="48.9973" lon="6.04199">
        <ele>168</ele>
        <time>2026-05-18T15:32:48+02:00</time>
      </trkpt>
      <trkpt lat="48.99734" lon="6.04206">
        <ele>168.2002</ele>
        <time>2026-05-18T15:32:49+02:00</time>
      </trkpt>
      <trkpt lat="48.99738" lon="6.04213">
        <ele>168.2002</ele>
        <time>2026-05-18T15:32:50+02:00</time>
      </trkpt>
      <trkpt lat="48.99743" lon="6.04221">
        <ele>168.2998</ele>
        <time>2026-05-18T15:32:51+02:00</time>
      </trkpt>
      <trkpt lat="48.99747" lon="6.04228">
        <ele>168.2002</ele>
        <time>2026-05-18T15:32:52+02:00</time>
      </trkpt>
      <trkpt lat="48.99752" lon="6.04235">
        <ele>168</ele>
        <time>2026-05-18T15:32:53+02:00</time>
      </trkpt>
      <trkpt lat="48.99756" lon="6.04243">
        <ele>167.90039</ele>
        <time>2026-05-18T15:32:54+02:00</time>
      </trkpt>
      <trkpt lat="48.99761" lon="6.0425">
        <ele>168</ele>
        <time>2026-05-18T15:32:55+02:00</time>
      </trkpt>
      <trkpt lat="48.99765" lon="6.04257">
        <ele>168.10059</ele>
        <time>2026-05-18T15:32:56+02:00</time>
      </trkpt>
      <trkpt lat="48.9977" lon="6.04264">
        <ele>168.2002</ele>
        <time>2026-05-18T15:32:57+02:00</time>
      </trkpt>
      <trkpt lat="48.99775" lon="6.04271">
        <ele>168.10059</ele>
        <time>2026-05-18T15:32:58+02:00</time>
      </trkpt>
      <trkpt lat="48.99779" lon="6.04277">
        <ele>168</ele>
        <time>2026-05-18T15:32:59+02:00</time>
      </trkpt>
      <trkpt lat="48.99784" lon="6.04284">
        <ele>168</ele>
        <time>2026-05-18T15:33:00+02:00</time>
      </trkpt>
      <trkpt lat="48.9979" lon="6.04291">
        <ele>168.10059</ele>
        <time>2026-05-18T15:33:01+02:00</time>
      </trkpt>
      <trkpt lat="48.99795" lon="6.04298">
        <ele>168.10059</ele>
        <time>2026-05-18T15:33:02+02:00</time>
      </trkpt>
      <trkpt lat="48.998" lon="6.04305">
        <ele>168.10059</ele>
        <time>2026-05-18T15:33:03+02:00</time>
      </trkpt>
      <trkpt lat="48.99805" lon="6.04311">
        <ele>168.10059</ele>
        <time>2026-05-18T15:33:04+02:00</time>
      </trkpt>
      <trkpt lat="48.9981" lon="6.04318">
        <ele>168.10059</ele>
        <time>2026-05-18T15:33:05+02:00</time>
      </trkpt>
      <trkpt lat="48.99815" lon="6.04325">
        <ele>168</ele>
        <time>2026-05-18T15:33:06+02:00</time>
      </trkpt>
      <trkpt lat="48.9982" lon="6.04331">
        <ele>168.10059</ele>
        <time>2026-05-18T15:33:07+02:00</time>
      </trkpt>
      <trkpt lat="48.99826" lon="6.04337">
        <ele>168.10059</ele>
        <time>2026-05-18T15:33:08+02:00</time>
      </trkpt>
      <trkpt lat="48.99832" lon="6.04344">
        <ele>168.10059</ele>
        <time>2026-05-18T15:33:09+02:00</time>
      </trkpt>
      <trkpt lat="48.99837" lon="6.0435">
        <ele>168</ele>
        <time>2026-05-18T15:33:10+02:00</time>
      </trkpt>
      <trkpt lat="48.99843" lon="6.04356">
        <ele>168</ele>
        <time>2026-05-18T15:33:11+02:00</time>
      </trkpt>
      <trkpt lat="48.99848" lon="6.04361">
        <ele>168.10059</ele>
        <time>2026-05-18T15:33:12+02:00</time>
      </trkpt>
      <trkpt lat="48.99854" lon="6.04367">
        <ele>168.10059</ele>
        <time>2026-05-18T15:33:13+02:00</time>
      </trkpt>
      <trkpt lat="48.9986" lon="6.04372">
        <ele>168</ele>
        <time>2026-05-18T15:33:14+02:00</time>
      </trkpt>
      <trkpt lat="48.99865" lon="6.04377">
        <ele>168</ele>
        <time>2026-05-18T15:33:15+02:00</time>
      </trkpt>
      <trkpt lat="48.99871" lon="6.04382">
        <ele>168</ele>
        <time>2026-05-18T15:33:16+02:00</time>
      </trkpt>
      <trkpt lat="48.99877" lon="6.04387">
        <ele>168.10059</ele>
        <time>2026-05-18T15:33:17+02:00</time>
      </trkpt>
      <trkpt lat="48.99883" lon="6.04391">
        <ele>168.10059</ele>
        <time>2026-05-18T15:33:18+02:00</time>
      </trkpt>
      <trkpt lat="48.99889" lon="6.04396">
        <ele>168.10059</ele>
        <time>2026-05-18T15:33:19+02:00</time>
      </trkpt>
      <trkpt lat="48.99894" lon="6.044">
        <ele>168.10059</ele>
        <time>2026-05-18T15:33:20+02:00</time>
      </trkpt>
      <trkpt lat="48.999" lon="6.04404">
        <ele>168</ele>
        <time>2026-05-18T15:33:21+02:00</time>
      </trkpt>
      <trkpt lat="48.99906" lon="6.04409">
        <ele>167.90039</ele>
        <time>2026-05-18T15:33:22+02:00</time>
      </trkpt>
      <trkpt lat="48.99912" lon="6.04413">
        <ele>167.90039</ele>
        <time>2026-05-18T15:33:23+02:00</time>
      </trkpt>
      <trkpt lat="48.99918" lon="6.04417">
        <ele>167.90039</ele>
        <time>2026-05-18T15:33:24+02:00</time>
      </trkpt>
      <trkpt lat="48.99924" lon="6.04421">
        <ele>168.10059</ele>
        <time>2026-05-18T15:33:25+02:00</time>
      </trkpt>
      <trkpt lat="48.9993" lon="6.04425">
        <ele>168.10059</ele>
        <time>2026-05-18T15:33:26+02:00</time>
      </trkpt>
      <trkpt lat="48.99936" lon="6.04429">
        <ele>168.10059</ele>
        <time>2026-05-18T15:33:27+02:00</time>
      </trkpt>
      <trkpt lat="48.99942" lon="6.04433">
        <ele>168</ele>
        <time>2026-05-18T15:33:28+02:00</time>
      </trkpt>
      <trkpt lat="48.99948" lon="6.04436">
        <ele>167.90039</ele>
        <time>2026-05-18T15:33:29+02:00</time>
      </trkpt>
      <trkpt lat="48.99954" lon="6.0444">
        <ele>167.7998</ele>
        <time>2026-05-18T15:33:30+02:00</time>
      </trkpt>
      <trkpt lat="48.9996" lon="6.04443">
        <ele>167.7998</ele>
        <time>2026-05-18T15:33:31+02:00</time>
      </trkpt>
      <trkpt lat="48.99967" lon="6.04447">
        <ele>168</ele>
        <time>2026-05-18T15:33:32+02:00</time>
      </trkpt>
      <trkpt lat="48.99973" lon="6.0445">
        <ele>168.10059</ele>
        <time>2026-05-18T15:33:33+02:00</time>
      </trkpt>
      <trkpt lat="48.99979" lon="6.04453">
        <ele>168.2002</ele>
        <time>2026-05-18T15:33:34+02:00</time>
      </trkpt>
      <trkpt lat="48.99985" lon="6.04456">
        <ele>168.10059</ele>
        <time>2026-05-18T15:33:35+02:00</time>
      </trkpt>
      <trkpt lat="48.99992" lon="6.04458">
        <ele>168.10059</ele>
        <time>2026-05-18T15:33:36+02:00</time>
      </trkpt>
      <trkpt lat="48.99998" lon="6.0446">
        <ele>168</ele>
        <time>2026-05-18T15:33:37+02:00</time>
      </trkpt>
      <trkpt lat="49.00004" lon="6.04462">
        <ele>168</ele>
        <time>2026-05-18T15:33:38+02:00</time>
      </trkpt>
      <trkpt lat="49.0001" lon="6.04465">
        <ele>167.90039</ele>
        <time>2026-05-18T15:33:39+02:00</time>
      </trkpt>
      <trkpt lat="49.00016" lon="6.04467">
        <ele>167.7998</ele>
        <time>2026-05-18T15:33:40+02:00</time>
      </trkpt>
      <trkpt lat="49.00022" lon="6.04469">
        <ele>167.7998</ele>
        <time>2026-05-18T15:33:41+02:00</time>
      </trkpt>
      <trkpt lat="49.00028" lon="6.04471">
        <ele>167.7998</ele>
        <time>2026-05-18T15:33:42+02:00</time>
      </trkpt>
      <trkpt lat="49.00034" lon="6.04474">
        <ele>168</ele>
        <time>2026-05-18T15:33:43+02:00</time>
      </trkpt>
      <trkpt lat="49.00041" lon="6.04475">
        <ele>168.10059</ele>
        <time>2026-05-18T15:33:44+02:00</time>
      </trkpt>
      <trkpt lat="49.00047" lon="6.04477">
        <ele>168.2002</ele>
        <time>2026-05-18T15:33:45+02:00</time>
      </trkpt>
      <trkpt lat="49.00052" lon="6.04478">
        <ele>168.2998</ele>
        <time>2026-05-18T15:33:46+02:00</time>
      </trkpt>
      <trkpt lat="49.00059" lon="6.04479">
        <ele>168.40039</ele>
        <time>2026-05-18T15:33:47+02:00</time>
      </trkpt>
      <trkpt lat="49.00065" lon="6.0448">
        <ele>168.10059</ele>
        <time>2026-05-18T15:33:48+02:00</time>
      </trkpt>
      <trkpt lat="49.0007" lon="6.0448">
        <ele>168.10059</ele>
        <time>2026-05-18T15:33:49+02:00</time>
      </trkpt>
      <trkpt lat="49.00075" lon="6.0448">
        <ele>168.10059</ele>
        <time>2026-05-18T15:33:50+02:00</time>
      </trkpt>
      <trkpt lat="49.00081" lon="6.0448">
        <ele>168.10059</ele>
        <time>2026-05-18T15:33:51+02:00</time>
      </trkpt>
      <trkpt lat="49.00087" lon="6.0448">
        <ele>168.10059</ele>
        <time>2026-05-18T15:33:52+02:00</time>
      </trkpt>
      <trkpt lat="49.00092" lon="6.0448">
        <ele>168.10059</ele>
        <time>2026-05-18T15:33:53+02:00</time>
      </trkpt>
      <trkpt lat="49.00098" lon="6.0448">
        <ele>168.10059</ele>
        <time>2026-05-18T15:33:54+02:00</time>
      </trkpt>
      <trkpt lat="49.00104" lon="6.0448">
        <ele>168.10059</ele>
        <time>2026-05-18T15:33:55+02:00</time>
      </trkpt>
      <trkpt lat="49.00109" lon="6.0448">
        <ele>168.2002</ele>
        <time>2026-05-18T15:33:56+02:00</time>
      </trkpt>
      <trkpt lat="49.00115" lon="6.04479">
        <ele>168.40039</ele>
        <time>2026-05-18T15:33:57+02:00</time>
      </trkpt>
      <trkpt lat="49.00121" lon="6.04479">
        <ele>168.7002</ele>
        <time>2026-05-18T15:33:58+02:00</time>
      </trkpt>
      <trkpt lat="49.00128" lon="6.04478">
        <ele>169</ele>
        <time>2026-05-18T15:33:59+02:00</time>
      </trkpt>
      <trkpt lat="49.00134" lon="6.04477">
        <ele>169</ele>
        <time>2026-05-18T15:34:00+02:00</time>
      </trkpt>
      <trkpt lat="49.0014" lon="6.04476">
        <ele>169.10059</ele>
        <time>2026-05-18T15:34:01+02:00</time>
      </trkpt>
      <trkpt lat="49.00147" lon="6.04476">
        <ele>169.2002</ele>
        <time>2026-05-18T15:34:02+02:00</time>
      </trkpt>
      <trkpt lat="49.00153" lon="6.04476">
        <ele>169.2002</ele>
        <time>2026-05-18T15:34:03+02:00</time>
      </trkpt>
      <trkpt lat="49.0016" lon="6.04476">
        <ele>169.2002</ele>
        <time>2026-05-18T15:34:04+02:00</time>
      </trkpt>
      <trkpt lat="49.00166" lon="6.04475">
        <ele>169.2002</ele>
        <time>2026-05-18T15:34:05+02:00</time>
      </trkpt>
      <trkpt lat="49.00173" lon="6.04474">
        <ele>169.10059</ele>
        <time>2026-05-18T15:34:06+02:00</time>
      </trkpt>
      <trkpt lat="49.00179" lon="6.04473">
        <ele>169</ele>
        <time>2026-05-18T15:34:07+02:00</time>
      </trkpt>
      <trkpt lat="49.00186" lon="6.04472">
        <ele>168.90039</ele>
        <time>2026-05-18T15:34:08+02:00</time>
      </trkpt>
      <trkpt lat="49.00192" lon="6.04471">
        <ele>168.7998</ele>
        <time>2026-05-18T15:34:09+02:00</time>
      </trkpt>
      <trkpt lat="49.00199" lon="6.0447">
        <ele>168.60059</ele>
        <time>2026-05-18T15:34:10+02:00</time>
      </trkpt>
      <trkpt lat="49.00205" lon="6.04469">
        <ele>168.5</ele>
        <time>2026-05-18T15:34:11+02:00</time>
      </trkpt>
      <trkpt lat="49.00211" lon="6.04467">
        <ele>168.2998</ele>
        <time>2026-05-18T15:34:12+02:00</time>
      </trkpt>
      <trkpt lat="49.00218" lon="6.04466">
        <ele>168.2002</ele>
        <time>2026-05-18T15:34:13+02:00</time>
      </trkpt>
      <trkpt lat="49.00224" lon="6.04465">
        <ele>168.10059</ele>
        <time>2026-05-18T15:34:14+02:00</time>
      </trkpt>
      <trkpt lat="49.00231" lon="6.04463">
        <ele>168.10059</ele>
        <time>2026-05-18T15:34:15+02:00</time>
      </trkpt>
      <trkpt lat="49.00237" lon="6.04463">
        <ele>168.10059</ele>
        <time>2026-05-18T15:34:16+02:00</time>
      </trkpt>
      <trkpt lat="49.00244" lon="6.04461">
        <ele>168.2998</ele>
        <time>2026-05-18T15:34:17+02:00</time>
      </trkpt>
      <trkpt lat="49.0025" lon="6.0446">
        <ele>168.2998</ele>
        <time>2026-05-18T15:34:18+02:00</time>
      </trkpt>
      <trkpt lat="49.00256" lon="6.04459">
        <ele>168.2998</ele>
        <time>2026-05-18T15:34:19+02:00</time>
      </trkpt>
      <trkpt lat="49.00262" lon="6.04457">
        <ele>168.40039</ele>
        <time>2026-05-18T15:34:20+02:00</time>
      </trkpt>
      <trkpt lat="49.00268" lon="6.04455">
        <ele>168.2998</ele>
        <time>2026-05-18T15:34:21+02:00</time>
      </trkpt>
      <trkpt lat="49.00275" lon="6.04454">
        <ele>168.60059</ele>
        <time>2026-05-18T15:34:22+02:00</time>
      </trkpt>
      <trkpt lat="49.00281" lon="6.04453">
        <ele>168.60059</ele>
        <time>2026-05-18T15:34:23+02:00</time>
      </trkpt>
      <trkpt lat="49.00287" lon="6.04451">
        <ele>168.5</ele>
        <time>2026-05-18T15:34:24+02:00</time>
      </trkpt>
      <trkpt lat="49.00293" lon="6.0445">
        <ele>168.5</ele>
        <time>2026-05-18T15:34:25+02:00</time>
      </trkpt>
      <trkpt lat="49.003" lon="6.04449">
        <ele>168.40039</ele>
        <time>2026-05-18T15:34:26+02:00</time>
      </trkpt>
      <trkpt lat="49.00306" lon="6.04449">
        <ele>168.40039</ele>
        <time>2026-05-18T15:34:27+02:00</time>
      </trkpt>
      <trkpt lat="49.00313" lon="6.04449">
        <ele>168.2998</ele>
        <time>2026-05-18T15:34:28+02:00</time>
      </trkpt>
      <trkpt lat="49.00319" lon="6.04448">
        <ele>168.2998</ele>
        <time>2026-05-18T15:34:29+02:00</time>
      </trkpt>
      <trkpt lat="49.00326" lon="6.04447">
        <ele>168.2998</ele>
        <time>2026-05-18T15:34:30+02:00</time>
      </trkpt>
      <trkpt lat="49.00332" lon="6.04446">
        <ele>168.2998</ele>
        <time>2026-05-18T15:34:31+02:00</time>
      </trkpt>
      <trkpt lat="49.00339" lon="6.04445">
        <ele>168.40039</ele>
        <time>2026-05-18T15:34:32+02:00</time>
      </trkpt>
      <trkpt lat="49.00346" lon="6.04444">
        <ele>168.40039</ele>
        <time>2026-05-18T15:34:33+02:00</time>
      </trkpt>
      <trkpt lat="49.00352" lon="6.04442">
        <ele>168.40039</ele>
        <time>2026-05-18T15:34:34+02:00</time>
      </trkpt>
      <trkpt lat="49.00359" lon="6.04441">
        <ele>168.40039</ele>
        <time>2026-05-18T15:34:35+02:00</time>
      </trkpt>
      <trkpt lat="49.00365" lon="6.04439">
        <ele>168.40039</ele>
        <time>2026-05-18T15:34:36+02:00</time>
      </trkpt>
      <trkpt lat="49.00372" lon="6.04438">
        <ele>168.40039</ele>
        <time>2026-05-18T15:34:37+02:00</time>
      </trkpt>
      <trkpt lat="49.00379" lon="6.04438">
        <ele>168.2998</ele>
        <time>2026-05-18T15:34:38+02:00</time>
      </trkpt>
      <trkpt lat="49.00385" lon="6.04437">
        <ele>168.2002</ele>
        <time>2026-05-18T15:34:39+02:00</time>
      </trkpt>
      <trkpt lat="49.00392" lon="6.04436">
        <ele>168.2002</ele>
        <time>2026-05-18T15:34:40+02:00</time>
      </trkpt>
      <trkpt lat="49.00399" lon="6.04436">
        <ele>168.10059</ele>
        <time>2026-05-18T15:34:41+02:00</time>
      </trkpt>
      <trkpt lat="49.00406" lon="6.04435">
        <ele>168.10059</ele>
        <time>2026-05-18T15:34:42+02:00</time>
      </trkpt>
      <trkpt lat="49.00412" lon="6.04435">
        <ele>168.10059</ele>
        <time>2026-05-18T15:34:43+02:00</time>
      </trkpt>
      <trkpt lat="49.00418" lon="6.04434">
        <ele>168.10059</ele>
        <time>2026-05-18T15:34:44+02:00</time>
      </trkpt>
      <trkpt lat="49.00424" lon="6.04431">
        <ele>168.10059</ele>
        <time>2026-05-18T15:34:45+02:00</time>
      </trkpt>
      <trkpt lat="49.0043" lon="6.04429">
        <ele>168.10059</ele>
        <time>2026-05-18T15:34:46+02:00</time>
      </trkpt>
      <trkpt lat="49.00436" lon="6.04427">
        <ele>168.10059</ele>
        <time>2026-05-18T15:34:47+02:00</time>
      </trkpt>
      <trkpt lat="49.00442" lon="6.04425">
        <ele>168.10059</ele>
        <time>2026-05-18T15:34:48+02:00</time>
      </trkpt>
      <trkpt lat="49.00449" lon="6.04424">
        <ele>168.10059</ele>
        <time>2026-05-18T15:34:49+02:00</time>
      </trkpt>
      <trkpt lat="49.00455" lon="6.04424">
        <ele>168.10059</ele>
        <time>2026-05-18T15:34:50+02:00</time>
      </trkpt>
      <trkpt lat="49.00461" lon="6.04423">
        <ele>168.10059</ele>
        <time>2026-05-18T15:34:51+02:00</time>
      </trkpt>
      <trkpt lat="49.00467" lon="6.04423">
        <ele>168.10059</ele>
        <time>2026-05-18T15:34:52+02:00</time>
      </trkpt>
      <trkpt lat="49.00474" lon="6.04422">
        <ele>168.10059</ele>
        <time>2026-05-18T15:34:53+02:00</time>
      </trkpt>
      <trkpt lat="49.0048" lon="6.04422">
        <ele>168.10059</ele>
        <time>2026-05-18T15:34:54+02:00</time>
      </trkpt>
      <trkpt lat="49.00486" lon="6.04421">
        <ele>168.10059</ele>
        <time>2026-05-18T15:34:55+02:00</time>
      </trkpt>
      <trkpt lat="49.00492" lon="6.0442">
        <ele>168.10059</ele>
        <time>2026-05-18T15:34:56+02:00</time>
      </trkpt>
      <trkpt lat="49.00499" lon="6.04419">
        <ele>168.10059</ele>
        <time>2026-05-18T15:34:57+02:00</time>
      </trkpt>
      <trkpt lat="49.00505" lon="6.04418">
        <ele>168.10059</ele>
        <time>2026-05-18T15:34:58+02:00</time>
      </trkpt>
      <trkpt lat="49.00511" lon="6.04417">
        <ele>168.10059</ele>
        <time>2026-05-18T15:34:59+02:00</time>
      </trkpt>
      <trkpt lat="49.00517" lon="6.04416">
        <ele>168.10059</ele>
        <time>2026-05-18T15:35:00+02:00</time>
      </trkpt>
      <trkpt lat="49.00524" lon="6.04415">
        <ele>168.10059</ele>
        <time>2026-05-18T15:35:01+02:00</time>
      </trkpt>
      <trkpt lat="49.0053" lon="6.04414">
        <ele>168.10059</ele>
        <time>2026-05-18T15:35:02+02:00</time>
      </trkpt>
      <trkpt lat="49.00535" lon="6.04412">
        <ele>168.10059</ele>
        <time>2026-05-18T15:35:03+02:00</time>
      </trkpt>
      <trkpt lat="49.00541" lon="6.04411">
        <ele>168.2002</ele>
        <time>2026-05-18T15:35:04+02:00</time>
      </trkpt>
      <trkpt lat="49.00546" lon="6.04409">
        <ele>168.2002</ele>
        <time>2026-05-18T15:35:05+02:00</time>
      </trkpt>
      <trkpt lat="49.00551" lon="6.04407">
        <ele>168.2002</ele>
        <time>2026-05-18T15:35:06+02:00</time>
      </trkpt>
      <trkpt lat="49.00556" lon="6.04405">
        <ele>168.2002</ele>
        <time>2026-05-18T15:35:07+02:00</time>
      </trkpt>
      <trkpt lat="49.00562" lon="6.04404">
        <ele>168.10059</ele>
        <time>2026-05-18T15:35:08+02:00</time>
      </trkpt>
      <trkpt lat="49.00567" lon="6.04402">
        <ele>168.2002</ele>
        <time>2026-05-18T15:35:09+02:00</time>
      </trkpt>
      <trkpt lat="49.00572" lon="6.04401">
        <ele>168.2002</ele>
        <time>2026-05-18T15:35:10+02:00</time>
      </trkpt>
      <trkpt lat="49.00578" lon="6.044">
        <ele>168.2002</ele>
        <time>2026-05-18T15:35:11+02:00</time>
      </trkpt>
      <trkpt lat="49.00584" lon="6.04399">
        <ele>168.2002</ele>
        <time>2026-05-18T15:35:12+02:00</time>
      </trkpt>
      <trkpt lat="49.0059" lon="6.04398">
        <ele>168.2002</ele>
        <time>2026-05-18T15:35:13+02:00</time>
      </trkpt>
      <trkpt lat="49.00597" lon="6.04398">
        <ele>168.2002</ele>
        <time>2026-05-18T15:35:14+02:00</time>
      </trkpt>
      <trkpt lat="49.00603" lon="6.04397">
        <ele>168.2002</ele>
        <time>2026-05-18T15:35:15+02:00</time>
      </trkpt>
      <trkpt lat="49.00609" lon="6.04396">
        <ele>168.2998</ele>
        <time>2026-05-18T15:35:16+02:00</time>
      </trkpt>
      <trkpt lat="49.00615" lon="6.04395">
        <ele>168.2998</ele>
        <time>2026-05-18T15:35:17+02:00</time>
      </trkpt>
      <trkpt lat="49.00619" lon="6.04393">
        <ele>168.60059</ele>
        <time>2026-05-18T15:35:18+02:00</time>
      </trkpt>
      <trkpt lat="49.00624" lon="6.04393">
        <ele>168.60059</ele>
        <time>2026-05-18T15:35:19+02:00</time>
      </trkpt>
      <trkpt lat="49.00628" lon="6.04392">
        <ele>168.60059</ele>
        <time>2026-05-18T15:35:20+02:00</time>
      </trkpt>
      <trkpt lat="49.00633" lon="6.04391">
        <ele>168.7002</ele>
        <time>2026-05-18T15:35:21+02:00</time>
      </trkpt>
      <trkpt lat="49.00639" lon="6.0439">
        <ele>168.7002</ele>
        <time>2026-05-18T15:35:22+02:00</time>
      </trkpt>
      <trkpt lat="49.00644" lon="6.04389">
        <ele>168.7002</ele>
        <time>2026-05-18T15:35:23+02:00</time>
      </trkpt>
      <trkpt lat="49.00649" lon="6.04387">
        <ele>168.7002</ele>
        <time>2026-05-18T15:35:24+02:00</time>
      </trkpt>
      <trkpt lat="49.00654" lon="6.04385">
        <ele>169.5</ele>
        <time>2026-05-18T15:35:25+02:00</time>
      </trkpt>
      <trkpt lat="49.00659" lon="6.04383">
        <ele>169.60059</ele>
        <time>2026-05-18T15:35:26+02:00</time>
      </trkpt>
      <trkpt lat="49.00665" lon="6.0438">
        <ele>169.60059</ele>
        <time>2026-05-18T15:35:27+02:00</time>
      </trkpt>
      <trkpt lat="49.00671" lon="6.04377">
        <ele>169.7002</ele>
        <time>2026-05-18T15:35:28+02:00</time>
      </trkpt>
      <trkpt lat="49.00676" lon="6.04375">
        <ele>170.7002</ele>
        <time>2026-05-18T15:35:29+02:00</time>
      </trkpt>
      <trkpt lat="49.00683" lon="6.04374">
        <ele>170.7998</ele>
        <time>2026-05-18T15:35:30+02:00</time>
      </trkpt>
      <trkpt lat="49.00689" lon="6.04375">
        <ele>170.7998</ele>
        <time>2026-05-18T15:35:31+02:00</time>
      </trkpt>
      <trkpt lat="49.00696" lon="6.04377">
        <ele>169.7998</ele>
        <time>2026-05-18T15:35:32+02:00</time>
      </trkpt>
      <trkpt lat="49.00701" lon="6.04379">
        <ele>169.7002</ele>
        <time>2026-05-18T15:35:33+02:00</time>
      </trkpt>
      <trkpt lat="49.00707" lon="6.04381">
        <ele>169.7002</ele>
        <time>2026-05-18T15:35:34+02:00</time>
      </trkpt>
      <trkpt lat="49.00714" lon="6.04383">
        <ele>169.7998</ele>
        <time>2026-05-18T15:35:35+02:00</time>
      </trkpt>
      <trkpt lat="49.0072" lon="6.04385">
        <ele>169.90039</ele>
        <time>2026-05-18T15:35:36+02:00</time>
      </trkpt>
      <trkpt lat="49.00727" lon="6.04386">
        <ele>168.90039</ele>
        <time>2026-05-18T15:35:37+02:00</time>
      </trkpt>
      <trkpt lat="49.00733" lon="6.04387">
        <ele>168.90039</ele>
        <time>2026-05-18T15:35:38+02:00</time>
      </trkpt>
      <trkpt lat="49.00739" lon="6.04388">
        <ele>168.7002</ele>
        <time>2026-05-18T15:35:39+02:00</time>
      </trkpt>
      <trkpt lat="49.00746" lon="6.04389">
        <ele>168.60059</ele>
        <time>2026-05-18T15:35:40+02:00</time>
      </trkpt>
      <trkpt lat="49.00751" lon="6.0439">
        <ele>168.5</ele>
        <time>2026-05-18T15:35:41+02:00</time>
      </trkpt>
      <trkpt lat="49.00757" lon="6.04391">
        <ele>168.40039</ele>
        <time>2026-05-18T15:35:42+02:00</time>
      </trkpt>
      <trkpt lat="49.00762" lon="6.04391">
        <ele>168.5</ele>
        <time>2026-05-18T15:35:43+02:00</time>
      </trkpt>
      <trkpt lat="49.00767" lon="6.04391">
        <ele>168.5</ele>
        <time>2026-05-18T15:35:44+02:00</time>
      </trkpt>
      <trkpt lat="49.00771" lon="6.0439">
        <ele>168.5</ele>
        <time>2026-05-18T15:35:45+02:00</time>
      </trkpt>
      <trkpt lat="49.00775" lon="6.04389">
        <ele>168.5</ele>
        <time>2026-05-18T15:35:46+02:00</time>
      </trkpt>
      <trkpt lat="49.00779" lon="6.04387">
        <ele>168.2998</ele>
        <time>2026-05-18T15:35:47+02:00</time>
      </trkpt>
      <trkpt lat="49.00782" lon="6.04385">
        <ele>168.90039</ele>
        <time>2026-05-18T15:35:48+02:00</time>
      </trkpt>
      <trkpt lat="49.00785" lon="6.04384">
        <ele>168.90039</ele>
        <time>2026-05-18T15:35:49+02:00</time>
      </trkpt>
      <trkpt lat="49.00788" lon="6.04384">
        <ele>168.40039</ele>
        <time>2026-05-18T15:35:50+02:00</time>
      </trkpt>
      <trkpt lat="49.0079" lon="6.04384">
        <ele>168.40039</ele>
        <time>2026-05-18T15:35:51+02:00</time>
      </trkpt>
      <trkpt lat="49.00792" lon="6.04384">
        <ele>168.40039</ele>
        <time>2026-05-18T15:35:52+02:00</time>
      </trkpt>
      <trkpt lat="49.00794" lon="6.04384">
        <ele>168</ele>
        <time>2026-05-18T15:35:53+02:00</time>
      </trkpt>
      <trkpt lat="49.00796" lon="6.04384">
        <ele>168</ele>
        <time>2026-05-18T15:35:54+02:00</time>
      </trkpt>
      <trkpt lat="49.00798" lon="6.04384">
        <ele>168</ele>
        <time>2026-05-18T15:35:55+02:00</time>
      </trkpt>
      <trkpt lat="49.00799" lon="6.04384">
        <ele>167.7002</ele>
        <time>2026-05-18T15:35:56+02:00</time>
      </trkpt>
      <trkpt lat="49.008" lon="6.04384">
        <ele>167.7002</ele>
        <time>2026-05-18T15:35:57+02:00</time>
      </trkpt>
      <trkpt lat="49.008" lon="6.04384">
        <ele>167.7002</ele>
        <time>2026-05-18T15:35:58+02:00</time>
      </trkpt>
      <trkpt lat="49.008" lon="6.04384">
        <ele>167.7002</ele>
        <time>2026-05-18T15:35:59+02:00</time>
      </trkpt>
      <trkpt lat="49.00754" lon="6.04286">
        <ele>175.7998</ele>
        <time>2026-05-18T15:48:08+02:00</time>
      </trkpt>
      <trkpt lat="49.00752" lon="6.04282">
        <ele>175.7002</ele>
        <time>2026-05-18T15:48:09+02:00</time>
      </trkpt>
      <trkpt lat="49.00749" lon="6.04278">
        <ele>175.7002</ele>
        <time>2026-05-18T15:48:10+02:00</time>
      </trkpt>
      <trkpt lat="49.00747" lon="6.04274">
        <ele>175.7002</ele>
        <time>2026-05-18T15:48:11+02:00</time>
      </trkpt>
      <trkpt lat="49.00745" lon="6.0427">
        <ele>175.60059</ele>
        <time>2026-05-18T15:48:12+02:00</time>
      </trkpt>
      <trkpt lat="49.00743" lon="6.04266">
        <ele>175.60059</ele>
        <time>2026-05-18T15:48:13+02:00</time>
      </trkpt>
      <trkpt lat="49.00741" lon="6.04262">
        <ele>175.60059</ele>
        <time>2026-05-18T15:48:14+02:00</time>
      </trkpt>
      <trkpt lat="49.00739" lon="6.04258">
        <ele>175.60059</ele>
        <time>2026-05-18T15:48:15+02:00</time>
      </trkpt>
      <trkpt lat="49.00736" lon="6.04253">
        <ele>175.7002</ele>
        <time>2026-05-18T15:48:16+02:00</time>
      </trkpt>
      <trkpt lat="49.00734" lon="6.04249">
        <ele>175.7002</ele>
        <time>2026-05-18T15:48:17+02:00</time>
      </trkpt>
      <trkpt lat="49.00733" lon="6.04246">
        <ele>175.90039</ele>
        <time>2026-05-18T15:48:18+02:00</time>
      </trkpt>
      <trkpt lat="49.00731" lon="6.04241">
        <ele>175.90039</ele>
        <time>2026-05-18T15:48:19+02:00</time>
      </trkpt>
      <trkpt lat="49.00728" lon="6.04237">
        <ele>176.10059</ele>
        <time>2026-05-18T15:48:20+02:00</time>
      </trkpt>
      <trkpt lat="49.00726" lon="6.04233">
        <ele>176.10059</ele>
        <time>2026-05-18T15:48:21+02:00</time>
      </trkpt>
      <trkpt lat="49.00723" lon="6.0423">
        <ele>176.2998</ele>
        <time>2026-05-18T15:48:22+02:00</time>
      </trkpt>
      <trkpt lat="49.00721" lon="6.04226">
        <ele>176.2998</ele>
        <time>2026-05-18T15:48:23+02:00</time>
      </trkpt>
      <trkpt lat="49.00719" lon="6.04222">
        <ele>176.5</ele>
        <time>2026-05-18T15:48:24+02:00</time>
      </trkpt>
      <trkpt lat="49.00717" lon="6.04218">
        <ele>176.5</ele>
        <time>2026-05-18T15:48:25+02:00</time>
      </trkpt>
      <trkpt lat="49.00714" lon="6.04214">
        <ele>176.5</ele>
        <time>2026-05-18T15:48:26+02:00</time>
      </trkpt>
      <trkpt lat="49.00712" lon="6.0421">
        <ele>176.7002</ele>
        <time>2026-05-18T15:48:27+02:00</time>
      </trkpt>
      <trkpt lat="49.00709" lon="6.04206">
        <ele>176.7002</ele>
        <time>2026-05-18T15:48:28+02:00</time>
      </trkpt>
      <trkpt lat="49.00706" lon="6.042">
        <ele>177</ele>
        <time>2026-05-18T15:48:29+02:00</time>
      </trkpt>
      <trkpt lat="49.00703" lon="6.04195">
        <ele>177.2002</ele>
        <time>2026-05-18T15:48:30+02:00</time>
      </trkpt>
      <trkpt lat="49.00701" lon="6.0419">
        <ele>177.2998</ele>
        <time>2026-05-18T15:48:31+02:00</time>
      </trkpt>
      <trkpt lat="49.00699" lon="6.04185">
        <ele>177.5</ele>
        <time>2026-05-18T15:48:32+02:00</time>
      </trkpt>
      <trkpt lat="49.00697" lon="6.04179">
        <ele>177.7998</ele>
        <time>2026-05-18T15:48:33+02:00</time>
      </trkpt>
      <trkpt lat="49.00696" lon="6.04172">
        <ele>177.90039</ele>
        <time>2026-05-18T15:48:34+02:00</time>
      </trkpt>
      <trkpt lat="49.00695" lon="6.04165">
        <ele>178.10059</ele>
        <time>2026-05-18T15:48:35+02:00</time>
      </trkpt>
      <trkpt lat="49.00694" lon="6.04158">
        <ele>178.2998</ele>
        <time>2026-05-18T15:48:36+02:00</time>
      </trkpt>
      <trkpt lat="49.00694" lon="6.04151">
        <ele>178.2998</ele>
        <time>2026-05-18T15:48:37+02:00</time>
      </trkpt>
      <trkpt lat="49.00694" lon="6.04144">
        <ele>178.2998</ele>
        <time>2026-05-18T15:48:38+02:00</time>
      </trkpt>
      <trkpt lat="49.00693" lon="6.04138">
        <ele>178.2998</ele>
        <time>2026-05-18T15:48:39+02:00</time>
      </trkpt>
      <trkpt lat="49.00693" lon="6.04132">
        <ele>178.2002</ele>
        <time>2026-05-18T15:48:40+02:00</time>
      </trkpt>
      <trkpt lat="49.00692" lon="6.04126">
        <ele>178.10059</ele>
        <time>2026-05-18T15:48:41+02:00</time>
      </trkpt>
      <trkpt lat="49.00692" lon="6.0412">
        <ele>178.10059</ele>
        <time>2026-05-18T15:48:42+02:00</time>
      </trkpt>
      <trkpt lat="49.00692" lon="6.04114">
        <ele>178</ele>
        <time>2026-05-18T15:48:43+02:00</time>
      </trkpt>
      <trkpt lat="49.00691" lon="6.04108">
        <ele>178</ele>
        <time>2026-05-18T15:48:44+02:00</time>
      </trkpt>
      <trkpt lat="49.00691" lon="6.04101">
        <ele>177.90039</ele>
        <time>2026-05-18T15:48:45+02:00</time>
      </trkpt>
      <trkpt lat="49.00691" lon="6.04095">
        <ele>177.90039</ele>
        <time>2026-05-18T15:48:46+02:00</time>
      </trkpt>
      <trkpt lat="49.0069" lon="6.04087">
        <ele>177.7998</ele>
        <time>2026-05-18T15:48:47+02:00</time>
      </trkpt>
      <trkpt lat="49.00689" lon="6.04079">
        <ele>177.7002</ele>
        <time>2026-05-18T15:48:48+02:00</time>
      </trkpt>
      <trkpt lat="49.00689" lon="6.04071">
        <ele>177.7002</ele>
        <time>2026-05-18T15:48:49+02:00</time>
      </trkpt>
      <trkpt lat="49.00689" lon="6.04062">
        <ele>177.7002</ele>
        <time>2026-05-18T15:48:50+02:00</time>
      </trkpt>
      <trkpt lat="49.00689" lon="6.04053">
        <ele>177.7002</ele>
        <time>2026-05-18T15:48:51+02:00</time>
      </trkpt>
      <trkpt lat="49.00689" lon="6.04044">
        <ele>177.7998</ele>
        <time>2026-05-18T15:48:52+02:00</time>
      </trkpt>
      <trkpt lat="49.00689" lon="6.04034">
        <ele>177.90039</ele>
        <time>2026-05-18T15:48:53+02:00</time>
      </trkpt>
      <trkpt lat="49.00689" lon="6.04024">
        <ele>178</ele>
        <time>2026-05-18T15:48:54+02:00</time>
      </trkpt>
      <trkpt lat="49.00689" lon="6.04013">
        <ele>177.90039</ele>
        <time>2026-05-18T15:48:55+02:00</time>
      </trkpt>
      <trkpt lat="49.0069" lon="6.04003">
        <ele>177.7998</ele>
        <time>2026-05-18T15:48:56+02:00</time>
      </trkpt>
      <trkpt lat="49.00692" lon="6.03993">
        <ele>177.7002</ele>
        <time>2026-05-18T15:48:57+02:00</time>
      </trkpt>
      <trkpt lat="49.00696" lon="6.03984">
        <ele>177.60059</ele>
        <time>2026-05-18T15:48:58+02:00</time>
      </trkpt>
      <trkpt lat="49.00701" lon="6.03976">
        <ele>177.5</ele>
        <time>2026-05-18T15:48:59+02:00</time>
      </trkpt>
      <trkpt lat="49.00706" lon="6.03969">
        <ele>177.2998</ele>
        <time>2026-05-18T15:49:00+02:00</time>
      </trkpt>
      <trkpt lat="49.00713" lon="6.03963">
        <ele>177</ele>
        <time>2026-05-18T15:49:01+02:00</time>
      </trkpt>
      <trkpt lat="49.0072" lon="6.03958">
        <ele>176.60059</ele>
        <time>2026-05-18T15:49:02+02:00</time>
      </trkpt>
      <trkpt lat="49.00727" lon="6.03955">
        <ele>176.2998</ele>
        <time>2026-05-18T15:49:03+02:00</time>
      </trkpt>
      <trkpt lat="49.00734" lon="6.03952">
        <ele>175.90039</ele>
        <time>2026-05-18T15:49:04+02:00</time>
      </trkpt>
      <trkpt lat="49.00741" lon="6.0395">
        <ele>175.60059</ele>
        <time>2026-05-18T15:49:05+02:00</time>
      </trkpt>
      <trkpt lat="49.00747" lon="6.03948">
        <ele>175.40039</ele>
        <time>2026-05-18T15:49:06+02:00</time>
      </trkpt>
      <trkpt lat="49.00754" lon="6.03947">
        <ele>175</ele>
        <time>2026-05-18T15:49:07+02:00</time>
      </trkpt>
      <trkpt lat="49.0076" lon="6.03946">
        <ele>174.7998</ele>
        <time>2026-05-18T15:49:08+02:00</time>
      </trkpt>
      <trkpt lat="49.00767" lon="6.03946">
        <ele>174.60059</ele>
        <time>2026-05-18T15:49:09+02:00</time>
      </trkpt>
      <trkpt lat="49.00774" lon="6.03946">
        <ele>174.40039</ele>
        <time>2026-05-18T15:49:10+02:00</time>
      </trkpt>
      <trkpt lat="49.0078" lon="6.03947">
        <ele>174.2998</ele>
        <time>2026-05-18T15:49:11+02:00</time>
      </trkpt>
      <trkpt lat="49.00787" lon="6.03948">
        <ele>174.2002</ele>
        <time>2026-05-18T15:49:12+02:00</time>
      </trkpt>
      <trkpt lat="49.00794" lon="6.03949">
        <ele>174.2002</ele>
        <time>2026-05-18T15:49:13+02:00</time>
      </trkpt>
      <trkpt lat="49.00801" lon="6.0395">
        <ele>174.10059</ele>
        <time>2026-05-18T15:49:14+02:00</time>
      </trkpt>
      <trkpt lat="49.00808" lon="6.0395">
        <ele>174.10059</ele>
        <time>2026-05-18T15:49:15+02:00</time>
      </trkpt>
      <trkpt lat="49.00814" lon="6.03951">
        <ele>174.10059</ele>
        <time>2026-05-18T15:49:16+02:00</time>
      </trkpt>
      <trkpt lat="49.0082" lon="6.03954">
        <ele>174</ele>
        <time>2026-05-18T15:49:17+02:00</time>
      </trkpt>
      <trkpt lat="49.00827" lon="6.03956">
        <ele>174</ele>
        <time>2026-05-18T15:49:18+02:00</time>
      </trkpt>
      <trkpt lat="49.00832" lon="6.03956">
        <ele>174</ele>
        <time>2026-05-18T15:49:19+02:00</time>
      </trkpt>
      <trkpt lat="49.00836" lon="6.03958">
        <ele>174.2002</ele>
        <time>2026-05-18T15:49:20+02:00</time>
      </trkpt>
      <trkpt lat="49.00839" lon="6.03962">
        <ele>174.2002</ele>
        <time>2026-05-18T15:49:21+02:00</time>
      </trkpt>
      <trkpt lat="49.00841" lon="6.03968">
        <ele>174.40039</ele>
        <time>2026-05-18T15:49:22+02:00</time>
      </trkpt>
      <trkpt lat="49.00842" lon="6.03975">
        <ele>174.7002</ele>
        <time>2026-05-18T15:49:23+02:00</time>
      </trkpt>
      <trkpt lat="49.00842" lon="6.03981">
        <ele>174.7002</ele>
        <time>2026-05-18T15:49:24+02:00</time>
      </trkpt>
      <trkpt lat="49.00843" lon="6.03989">
        <ele>174.90039</ele>
        <time>2026-05-18T15:49:25+02:00</time>
      </trkpt>
      <trkpt lat="49.00843" lon="6.03997">
        <ele>175.10059</ele>
        <time>2026-05-18T15:49:26+02:00</time>
      </trkpt>
      <trkpt lat="49.00843" lon="6.04006">
        <ele>175.2998</ele>
        <time>2026-05-18T15:49:27+02:00</time>
      </trkpt>
      <trkpt lat="49.00844" lon="6.04015">
        <ele>175.5</ele>
        <time>2026-05-18T15:49:28+02:00</time>
      </trkpt>
      <trkpt lat="49.00844" lon="6.04024">
        <ele>175.60059</ele>
        <time>2026-05-18T15:49:29+02:00</time>
      </trkpt>
      <trkpt lat="49.00844" lon="6.04032">
        <ele>175.7998</ele>
        <time>2026-05-18T15:49:30+02:00</time>
      </trkpt>
      <trkpt lat="49.00845" lon="6.0404">
        <ele>176</ele>
        <time>2026-05-18T15:49:31+02:00</time>
      </trkpt>
      <trkpt lat="49.00847" lon="6.04046">
        <ele>176.10059</ele>
        <time>2026-05-18T15:49:32+02:00</time>
      </trkpt>
      <trkpt lat="49.00849" lon="6.04052">
        <ele>176.2002</ele>
        <time>2026-05-18T15:49:33+02:00</time>
      </trkpt>
      <trkpt lat="49.00852" lon="6.04058">
        <ele>176.2002</ele>
        <time>2026-05-18T15:49:34+02:00</time>
      </trkpt>
      <trkpt lat="49.00855" lon="6.04064">
        <ele>176.2998</ele>
        <time>2026-05-18T15:49:35+02:00</time>
      </trkpt>
      <trkpt lat="49.00858" lon="6.0407">
        <ele>176.40039</ele>
        <time>2026-05-18T15:49:36+02:00</time>
      </trkpt>
      <trkpt lat="49.00861" lon="6.04075">
        <ele>176.40039</ele>
        <time>2026-05-18T15:49:37+02:00</time>
      </trkpt>
      <trkpt lat="49.00865" lon="6.0408">
        <ele>176.5</ele>
        <time>2026-05-18T15:49:38+02:00</time>
      </trkpt>
      <trkpt lat="49.00868" lon="6.04084">
        <ele>176.40039</ele>
        <time>2026-05-18T15:49:39+02:00</time>
      </trkpt>
      <trkpt lat="49.00872" lon="6.04087">
        <ele>176.2998</ele>
        <time>2026-05-18T15:49:40+02:00</time>
      </trkpt>
      <trkpt lat="49.00876" lon="6.0409">
        <ele>176.2998</ele>
        <time>2026-05-18T15:49:41+02:00</time>
      </trkpt>
      <trkpt lat="49.00879" lon="6.04094">
        <ele>176</ele>
        <time>2026-05-18T15:49:42+02:00</time>
      </trkpt>
      <trkpt lat="49.00882" lon="6.04098">
        <ele>176</ele>
        <time>2026-05-18T15:49:43+02:00</time>
      </trkpt>
      <trkpt lat="49.00885" lon="6.041">
        <ele>175.7002</ele>
        <time>2026-05-18T15:49:44+02:00</time>
      </trkpt>
      <trkpt lat="49.00888" lon="6.04103">
        <ele>175.60059</ele>
        <time>2026-05-18T15:49:45+02:00</time>
      </trkpt>
      <trkpt lat="49.00892" lon="6.04106">
        <ele>175.2998</ele>
        <time>2026-05-18T15:49:46+02:00</time>
      </trkpt>
      <trkpt lat="49.00895" lon="6.0411">
        <ele>174.90039</ele>
        <time>2026-05-18T15:49:47+02:00</time>
      </trkpt>
      <trkpt lat="49.00898" lon="6.04113">
        <ele>174.90039</ele>
        <time>2026-05-18T15:49:48+02:00</time>
      </trkpt>
      <trkpt lat="49.00902" lon="6.04116">
        <ele>174.60059</ele>
        <time>2026-05-18T15:49:49+02:00</time>
      </trkpt>
      <trkpt lat="49.00907" lon="6.04117">
        <ele>174.2002</ele>
        <time>2026-05-18T15:49:50+02:00</time>
      </trkpt>
      <trkpt lat="49.0091" lon="6.04118">
        <ele>174.2002</ele>
        <time>2026-05-18T15:49:51+02:00</time>
      </trkpt>
      <trkpt lat="49.00913" lon="6.04117">
        <ele>173.7998</ele>
        <time>2026-05-18T15:49:52+02:00</time>
      </trkpt>
      <trkpt lat="49.00915" lon="6.04117">
        <ele>173.7998</ele>
        <time>2026-05-18T15:49:53+02:00</time>
      </trkpt>
      <trkpt lat="49.00916" lon="6.04117">
        <ele>173.7998</ele>
        <time>2026-05-18T15:49:54+02:00</time>
      </trkpt>
      <trkpt lat="49.00916" lon="6.04117">
        <ele>173.7998</ele>
        <time>2026-05-18T15:49:55+02:00</time>
      </trkpt>
      <trkpt lat="49.00916" lon="6.04117">
        <ele>173.7998</ele>
        <time>2026-05-18T15:49:56+02:00</time>
      </trkpt>
      <trkpt lat="49.00916" lon="6.04117">
        <ele>173.7998</ele>
        <time>2026-05-18T15:49:57+02:00</time>
      </trkpt>
      <trkpt lat="49.00916" lon="6.04117">
        <ele>173.7998</ele>
        <time>2026-05-18T15:49:58+02:00</time>
      </trkpt>
      <trkpt lat="49.0093" lon="6.0412">
        <ele>173.2002</ele>
        <time>2026-05-18T15:50:21+02:00</time>
      </trkpt>
      <trkpt lat="49.00933" lon="6.0412">
        <ele>173.2002</ele>
        <time>2026-05-18T15:50:22+02:00</time>
      </trkpt>
      <trkpt lat="49.00936" lon="6.04119">
        <ele>173</ele>
        <time>2026-05-18T15:50:23+02:00</time>
      </trkpt>
      <trkpt lat="49.0094" lon="6.04119">
        <ele>173.10059</ele>
        <time>2026-05-18T15:50:24+02:00</time>
      </trkpt>
      <trkpt lat="49.00943" lon="6.04118">
        <ele>173.10059</ele>
        <time>2026-05-18T15:50:25+02:00</time>
      </trkpt>
      <trkpt lat="49.00946" lon="6.04118">
        <ele>173.2002</ele>
        <time>2026-05-18T15:50:26+02:00</time>
      </trkpt>
      <trkpt lat="49.00949" lon="6.04118">
        <ele>173.2002</ele>
        <time>2026-05-18T15:50:27+02:00</time>
      </trkpt>
      <trkpt lat="49.00951" lon="6.04118">
        <ele>173.5</ele>
        <time>2026-05-18T15:50:28+02:00</time>
      </trkpt>
      <trkpt lat="49.00953" lon="6.04119">
        <ele>173.5</ele>
        <time>2026-05-18T15:50:29+02:00</time>
      </trkpt>
      <trkpt lat="49.00955" lon="6.04121">
        <ele>173.5</ele>
        <time>2026-05-18T15:50:30+02:00</time>
      </trkpt>
      <trkpt lat="49.00956" lon="6.04125">
        <ele>173.7002</ele>
        <time>2026-05-18T15:50:31+02:00</time>
      </trkpt>
      <trkpt lat="49.00956" lon="6.04128">
        <ele>173.60059</ele>
        <time>2026-05-18T15:50:32+02:00</time>
      </trkpt>
      <trkpt lat="49.00956" lon="6.04132">
        <ele>173.60059</ele>
        <time>2026-05-18T15:50:33+02:00</time>
      </trkpt>
      <trkpt lat="49.00957" lon="6.04136">
        <ele>173.60059</ele>
        <time>2026-05-18T15:50:34+02:00</time>
      </trkpt>
      <trkpt lat="49.0096" lon="6.04138">
        <ele>173.5</ele>
        <time>2026-05-18T15:50:35+02:00</time>
      </trkpt>
      <trkpt lat="49.00963" lon="6.04139">
        <ele>173.7002</ele>
        <time>2026-05-18T15:50:36+02:00</time>
      </trkpt>
      <trkpt lat="49.00967" lon="6.04141">
        <ele>173.7998</ele>
        <time>2026-05-18T15:50:37+02:00</time>
      </trkpt>
      <trkpt lat="49.00971" lon="6.04142">
        <ele>173.7998</ele>
        <time>2026-05-18T15:50:38+02:00</time>
      </trkpt>
      <trkpt lat="49.00976" lon="6.04142">
        <ele>174</ele>
        <time>2026-05-18T15:50:39+02:00</time>
      </trkpt>
      <trkpt lat="49.0098" lon="6.04143">
        <ele>174.2002</ele>
        <time>2026-05-18T15:50:40+02:00</time>
      </trkpt>
      <trkpt lat="49.00984" lon="6.04144">
        <ele>174.2002</ele>
        <time>2026-05-18T15:50:41+02:00</time>
      </trkpt>
      <trkpt lat="49.00989" lon="6.04145">
        <ele>174.40039</ele>
        <time>2026-05-18T15:50:42+02:00</time>
      </trkpt>
      <trkpt lat="49.00994" lon="6.04146">
        <ele>174.2998</ele>
        <time>2026-05-18T15:50:43+02:00</time>
      </trkpt>
      <trkpt lat="49.01" lon="6.04146">
        <ele>174.2998</ele>
        <time>2026-05-18T15:50:44+02:00</time>
      </trkpt>
      <trkpt lat="49.01005" lon="6.04147">
        <ele>174.2998</ele>
        <time>2026-05-18T15:50:45+02:00</time>
      </trkpt>
      <trkpt lat="49.0101" lon="6.04147">
        <ele>174.2002</ele>
        <time>2026-05-18T15:50:46+02:00</time>
      </trkpt>
      <trkpt lat="49.01016" lon="6.04147">
        <ele>174.2002</ele>
        <time>2026-05-18T15:50:47+02:00</time>
      </trkpt>
      <trkpt lat="49.01021" lon="6.04148">
        <ele>174.2002</ele>
        <time>2026-05-18T15:50:48+02:00</time>
      </trkpt>
      <trkpt lat="49.01026" lon="6.04148">
        <ele>174.2002</ele>
        <time>2026-05-18T15:50:49+02:00</time>
      </trkpt>
      <trkpt lat="49.01031" lon="6.04148">
        <ele>174.2002</ele>
        <time>2026-05-18T15:50:50+02:00</time>
      </trkpt>
      <trkpt lat="49.01037" lon="6.04148">
        <ele>174.2002</ele>
        <time>2026-05-18T15:50:51+02:00</time>
      </trkpt>
      <trkpt lat="49.01042" lon="6.04149">
        <ele>174.10059</ele>
        <time>2026-05-18T15:50:52+02:00</time>
      </trkpt>
      <trkpt lat="49.01048" lon="6.0415">
        <ele>174.10059</ele>
        <time>2026-05-18T15:50:53+02:00</time>
      </trkpt>
      <trkpt lat="49.01053" lon="6.04151">
        <ele>174.10059</ele>
        <time>2026-05-18T15:50:54+02:00</time>
      </trkpt>
      <trkpt lat="49.01059" lon="6.04152">
        <ele>174.10059</ele>
        <time>2026-05-18T15:50:55+02:00</time>
      </trkpt>
      <trkpt lat="49.01064" lon="6.04153">
        <ele>174.10059</ele>
        <time>2026-05-18T15:50:56+02:00</time>
      </trkpt>
      <trkpt lat="49.01069" lon="6.04154">
        <ele>174</ele>
        <time>2026-05-18T15:50:57+02:00</time>
      </trkpt>
      <trkpt lat="49.01074" lon="6.04155">
        <ele>174</ele>
        <time>2026-05-18T15:50:58+02:00</time>
      </trkpt>
      <trkpt lat="49.0108" lon="6.04156">
        <ele>174.10059</ele>
        <time>2026-05-18T15:50:59+02:00</time>
      </trkpt>
      <trkpt lat="49.01086" lon="6.04158">
        <ele>174.2002</ele>
        <time>2026-05-18T15:51:00+02:00</time>
      </trkpt>
      <trkpt lat="49.01092" lon="6.0416">
        <ele>174.2998</ele>
        <time>2026-05-18T15:51:01+02:00</time>
      </trkpt>
      <trkpt lat="49.01098" lon="6.04162">
        <ele>174.40039</ele>
        <time>2026-05-18T15:51:02+02:00</time>
      </trkpt>
      <trkpt lat="49.01104" lon="6.04164">
        <ele>174.5</ele>
        <time>2026-05-18T15:51:03+02:00</time>
      </trkpt>
      <trkpt lat="49.01109" lon="6.04166">
        <ele>174.60059</ele>
        <time>2026-05-18T15:51:04+02:00</time>
      </trkpt>
      <trkpt lat="49.01115" lon="6.04168">
        <ele>174.7002</ele>
        <time>2026-05-18T15:51:05+02:00</time>
      </trkpt>
      <trkpt lat="49.0112" lon="6.0417">
        <ele>174.90039</ele>
        <time>2026-05-18T15:51:06+02:00</time>
      </trkpt>
      <trkpt lat="49.01125" lon="6.04172">
        <ele>174.7998</ele>
        <time>2026-05-18T15:51:07+02:00</time>
      </trkpt>
      <trkpt lat="49.01131" lon="6.04175">
        <ele>175</ele>
        <time>2026-05-18T15:51:08+02:00</time>
      </trkpt>
      <trkpt lat="49.01136" lon="6.04177">
        <ele>175.10059</ele>
        <time>2026-05-18T15:51:09+02:00</time>
      </trkpt>
      <trkpt lat="49.01141" lon="6.0418">
        <ele>174.90039</ele>
        <time>2026-05-18T15:51:10+02:00</time>
      </trkpt>
      <trkpt lat="49.01146" lon="6.04182">
        <ele>175</ele>
        <time>2026-05-18T15:51:11+02:00</time>
      </trkpt>
      <trkpt lat="49.01152" lon="6.04184">
        <ele>175</ele>
        <time>2026-05-18T15:51:12+02:00</time>
      </trkpt>
      <trkpt lat="49.01157" lon="6.04187">
        <ele>175.10059</ele>
        <time>2026-05-18T15:51:13+02:00</time>
      </trkpt>
      <trkpt lat="49.01162" lon="6.0419">
        <ele>175</ele>
        <time>2026-05-18T15:51:14+02:00</time>
      </trkpt>
      <trkpt lat="49.01167" lon="6.04193">
        <ele>175</ele>
        <time>2026-05-18T15:51:15+02:00</time>
      </trkpt>
      <trkpt lat="49.01172" lon="6.04195">
        <ele>175.10059</ele>
        <time>2026-05-18T15:51:16+02:00</time>
      </trkpt>
      <trkpt lat="49.01177" lon="6.04198">
        <ele>174.90039</ele>
        <time>2026-05-18T15:51:17+02:00</time>
      </trkpt>
      <trkpt lat="49.01183" lon="6.04201">
        <ele>174.90039</ele>
        <time>2026-05-18T15:51:18+02:00</time>
      </trkpt>
      <trkpt lat="49.01187" lon="6.04204">
        <ele>174.90039</ele>
        <time>2026-05-18T15:51:19+02:00</time>
      </trkpt>
      <trkpt lat="49.01193" lon="6.04208">
        <ele>174.7002</ele>
        <time>2026-05-18T15:51:20+02:00</time>
      </trkpt>
      <trkpt lat="49.01198" lon="6.04211">
        <ele>174.7002</ele>
        <time>2026-05-18T15:51:21+02:00</time>
      </trkpt>
      <trkpt lat="49.01203" lon="6.04215">
        <ele>174.40039</ele>
        <time>2026-05-18T15:51:22+02:00</time>
      </trkpt>
      <trkpt lat="49.01208" lon="6.04219">
        <ele>174.40039</ele>
        <time>2026-05-18T15:51:23+02:00</time>
      </trkpt>
      <trkpt lat="49.01213" lon="6.04223">
        <ele>174.10059</ele>
        <time>2026-05-18T15:51:24+02:00</time>
      </trkpt>
      <trkpt lat="49.01217" lon="6.04226">
        <ele>174.10059</ele>
        <time>2026-05-18T15:51:25+02:00</time>
      </trkpt>
      <trkpt lat="49.01222" lon="6.04229">
        <ele>174</ele>
        <time>2026-05-18T15:51:26+02:00</time>
      </trkpt>
      <trkpt lat="49.01225" lon="6.04232">
        <ele>173.90039</ele>
        <time>2026-05-18T15:51:27+02:00</time>
      </trkpt>
      <trkpt lat="49.0123" lon="6.04235">
        <ele>173.90039</ele>
        <time>2026-05-18T15:51:28+02:00</time>
      </trkpt>
      <trkpt lat="49.01234" lon="6.04239">
        <ele>173.7998</ele>
        <time>2026-05-18T15:51:29+02:00</time>
      </trkpt>
      <trkpt lat="49.01238" lon="6.04243">
        <ele>173.7998</ele>
        <time>2026-05-18T15:51:30+02:00</time>
      </trkpt>
      <trkpt lat="49.01243" lon="6.04246">
        <ele>173.7998</ele>
        <time>2026-05-18T15:51:31+02:00</time>
      </trkpt>
      <trkpt lat="49.01247" lon="6.0425">
        <ele>173.7998</ele>
        <time>2026-05-18T15:51:32+02:00</time>
      </trkpt>
      <trkpt lat="49.01252" lon="6.04254">
        <ele>173.7998</ele>
        <time>2026-05-18T15:51:33+02:00</time>
      </trkpt>
      <trkpt lat="49.01256" lon="6.04258">
        <ele>173.7002</ele>
        <time>2026-05-18T15:51:34+02:00</time>
      </trkpt>
      <trkpt lat="49.0126" lon="6.04263">
        <ele>173.7002</ele>
        <time>2026-05-18T15:51:35+02:00</time>
      </trkpt>
      <trkpt lat="49.01265" lon="6.04268">
        <ele>173.7998</ele>
        <time>2026-05-18T15:51:36+02:00</time>
      </trkpt>
      <trkpt lat="49.01269" lon="6.04273">
        <ele>173.7998</ele>
        <time>2026-05-18T15:51:37+02:00</time>
      </trkpt>
      <trkpt lat="49.01273" lon="6.04278">
        <ele>173.90039</ele>
        <time>2026-05-18T15:51:38+02:00</time>
      </trkpt>
      <trkpt lat="49.01278" lon="6.04283">
        <ele>174</ele>
        <time>2026-05-18T15:51:39+02:00</time>
      </trkpt>
      <trkpt lat="49.01282" lon="6.04288">
        <ele>174</ele>
        <time>2026-05-18T15:51:40+02:00</time>
      </trkpt>
      <trkpt lat="49.01287" lon="6.04294">
        <ele>174</ele>
        <time>2026-05-18T15:51:41+02:00</time>
      </trkpt>
      <trkpt lat="49.01291" lon="6.04299">
        <ele>174.10059</ele>
        <time>2026-05-18T15:51:42+02:00</time>
      </trkpt>
      <trkpt lat="49.01296" lon="6.04304">
        <ele>174.2002</ele>
        <time>2026-05-18T15:51:43+02:00</time>
      </trkpt>
      <trkpt lat="49.013" lon="6.0431">
        <ele>174.2002</ele>
        <time>2026-05-18T15:51:44+02:00</time>
      </trkpt>
      <trkpt lat="49.01305" lon="6.04316">
        <ele>174.2998</ele>
        <time>2026-05-18T15:51:45+02:00</time>
      </trkpt>
      <trkpt lat="49.01309" lon="6.04321">
        <ele>174.10059</ele>
        <time>2026-05-18T15:51:46+02:00</time>
      </trkpt>
      <trkpt lat="49.01312" lon="6.04327">
        <ele>173.40039</ele>
        <time>2026-05-18T15:51:47+02:00</time>
      </trkpt>
      <trkpt lat="49.01317" lon="6.04333">
        <ele>173.5</ele>
        <time>2026-05-18T15:51:48+02:00</time>
      </trkpt>
      <trkpt lat="49.01321" lon="6.04339">
        <ele>172.60059</ele>
        <time>2026-05-18T15:51:49+02:00</time>
      </trkpt>
      <trkpt lat="49.01326" lon="6.04345">
        <ele>171.90039</ele>
        <time>2026-05-18T15:51:50+02:00</time>
      </trkpt>
      <trkpt lat="49.0133" lon="6.04351">
        <ele>172.2002</ele>
        <time>2026-05-18T15:51:51+02:00</time>
      </trkpt>
      <trkpt lat="49.01334" lon="6.04357">
        <ele>171.2998</ele>
        <time>2026-05-18T15:51:52+02:00</time>
      </trkpt>
      <trkpt lat="49.01338" lon="6.04362">
        <ele>169.5</ele>
        <time>2026-05-18T15:51:53+02:00</time>
      </trkpt>
      <trkpt lat="49.01343" lon="6.04368">
        <ele>170.2998</ele>
        <time>2026-05-18T15:51:54+02:00</time>
      </trkpt>
      <trkpt lat="49.01347" lon="6.04374">
        <ele>169.90039</ele>
        <time>2026-05-18T15:51:55+02:00</time>
      </trkpt>
      <trkpt lat="49.01351" lon="6.04379">
        <ele>170.2002</ele>
        <time>2026-05-18T15:51:56+02:00</time>
      </trkpt>
      <trkpt lat="49.01356" lon="6.04385">
        <ele>171.7998</ele>
        <time>2026-05-18T15:51:57+02:00</time>
      </trkpt>
      <trkpt lat="49.0136" lon="6.0439">
        <ele>170.40039</ele>
        <time>2026-05-18T15:51:58+02:00</time>
      </trkpt>
      <trkpt lat="49.01364" lon="6.04396">
        <ele>169.7998</ele>
        <time>2026-05-18T15:51:59+02:00</time>
      </trkpt>
      <trkpt lat="49.01368" lon="6.04402">
        <ele>171.2002</ele>
        <time>2026-05-18T15:52:00+02:00</time>
      </trkpt>
      <trkpt lat="49.01372" lon="6.04407">
        <ele>169.40039</ele>
        <time>2026-05-18T15:52:01+02:00</time>
      </trkpt>
      <trkpt lat="49.01376" lon="6.04413">
        <ele>169.7998</ele>
        <time>2026-05-18T15:52:02+02:00</time>
      </trkpt>
      <trkpt lat="49.01381" lon="6.04418">
        <ele>171.10059</ele>
        <time>2026-05-18T15:52:03+02:00</time>
      </trkpt>
      <trkpt lat="49.01386" lon="6.04424">
        <ele>170.40039</ele>
        <time>2026-05-18T15:52:04+02:00</time>
      </trkpt>
      <trkpt lat="49.0139" lon="6.0443">
        <ele>168.7002</ele>
        <time>2026-05-18T15:52:05+02:00</time>
      </trkpt>
      <trkpt lat="49.01394" lon="6.04436">
        <ele>168.7002</ele>
        <time>2026-05-18T15:52:06+02:00</time>
      </trkpt>
      <trkpt lat="49.01399" lon="6.04441">
        <ele>166.7998</ele>
        <time>2026-05-18T15:52:07+02:00</time>
      </trkpt>
      <trkpt lat="49.01402" lon="6.04447">
        <ele>166.2002</ele>
        <time>2026-05-18T15:52:08+02:00</time>
      </trkpt>
      <trkpt lat="49.01407" lon="6.04452">
        <ele>166.60059</ele>
        <time>2026-05-18T15:52:09+02:00</time>
      </trkpt>
      <trkpt lat="49.01411" lon="6.04459">
        <ele>166.40039</ele>
        <time>2026-05-18T15:52:10+02:00</time>
      </trkpt>
      <trkpt lat="49.01415" lon="6.04465">
        <ele>166.7998</ele>
        <time>2026-05-18T15:52:11+02:00</time>
      </trkpt>
      <trkpt lat="49.0142" lon="6.04471">
        <ele>167.2002</ele>
        <time>2026-05-18T15:52:12+02:00</time>
      </trkpt>
      <trkpt lat="49.01424" lon="6.04476">
        <ele>166.7002</ele>
        <time>2026-05-18T15:52:13+02:00</time>
      </trkpt>
      <trkpt lat="49.01428" lon="6.04482">
        <ele>166.2998</ele>
        <time>2026-05-18T15:52:14+02:00</time>
      </trkpt>
      <trkpt lat="49.01433" lon="6.04488">
        <ele>166.60059</ele>
        <time>2026-05-18T15:52:15+02:00</time>
      </trkpt>
      <trkpt lat="49.01437" lon="6.04493">
        <ele>166.90039</ele>
        <time>2026-05-18T15:52:16+02:00</time>
      </trkpt>
      <trkpt lat="49.01442" lon="6.04499">
        <ele>166.90039</ele>
        <time>2026-05-18T15:52:17+02:00</time>
      </trkpt>
      <trkpt lat="49.01446" lon="6.04504">
        <ele>167.2002</ele>
        <time>2026-05-18T15:52:18+02:00</time>
      </trkpt>
      <trkpt lat="49.0145" lon="6.0451">
        <ele>166.7002</ele>
        <time>2026-05-18T15:52:19+02:00</time>
      </trkpt>
      <trkpt lat="49.01455" lon="6.04516">
        <ele>166.60059</ele>
        <time>2026-05-18T15:52:20+02:00</time>
      </trkpt>
      <trkpt lat="49.01459" lon="6.04521">
        <ele>167.2998</ele>
        <time>2026-05-18T15:52:21+02:00</time>
      </trkpt>
      <trkpt lat="49.01463" lon="6.04527">
        <ele>167.2002</ele>
        <time>2026-05-18T15:52:22+02:00</time>
      </trkpt>
      <trkpt lat="49.01468" lon="6.04532">
        <ele>166.90039</ele>
        <time>2026-05-18T15:52:23+02:00</time>
      </trkpt>
      <trkpt lat="49.01472" lon="6.04538">
        <ele>166.90039</ele>
        <time>2026-05-18T15:52:24+02:00</time>
      </trkpt>
      <trkpt lat="49.01476" lon="6.04544">
        <ele>166.7998</ele>
        <time>2026-05-18T15:52:25+02:00</time>
      </trkpt>
      <trkpt lat="49.01481" lon="6.04549">
        <ele>167</ele>
        <time>2026-05-18T15:52:26+02:00</time>
      </trkpt>
      <trkpt lat="49.01485" lon="6.04555">
        <ele>167.7002</ele>
        <time>2026-05-18T15:52:27+02:00</time>
      </trkpt>
      <trkpt lat="49.01489" lon="6.04561">
        <ele>167.10059</ele>
        <time>2026-05-18T15:52:28+02:00</time>
      </trkpt>
      <trkpt lat="49.01493" lon="6.04566">
        <ele>166.90039</ele>
        <time>2026-05-18T15:52:29+02:00</time>
      </trkpt>
      <trkpt lat="49.01497" lon="6.0457">
        <ele>167</ele>
        <time>2026-05-18T15:52:30+02:00</time>
      </trkpt>
      <trkpt lat="49.01502" lon="6.04575">
        <ele>167</ele>
        <time>2026-05-18T15:52:31+02:00</time>
      </trkpt>
      <trkpt lat="49.01505" lon="6.04579">
        <ele>167</ele>
        <time>2026-05-18T15:52:32+02:00</time>
      </trkpt>
      <trkpt lat="49.0151" lon="6.04584">
        <ele>167.2998</ele>
        <time>2026-05-18T15:52:33+02:00</time>
      </trkpt>
      <trkpt lat="49.01513" lon="6.04589">
        <ele>167.2998</ele>
        <time>2026-05-18T15:52:34+02:00</time>
      </trkpt>
      <trkpt lat="49.01518" lon="6.04594">
        <ele>167.2002</ele>
        <time>2026-05-18T15:52:35+02:00</time>
      </trkpt>
      <trkpt lat="49.01522" lon="6.04598">
        <ele>167.60059</ele>
        <time>2026-05-18T15:52:36+02:00</time>
      </trkpt>
      <trkpt lat="49.01526" lon="6.04603">
        <ele>167.2002</ele>
        <time>2026-05-18T15:52:37+02:00</time>
      </trkpt>
      <trkpt lat="49.01529" lon="6.04607">
        <ele>167.2002</ele>
        <time>2026-05-18T15:52:38+02:00</time>
      </trkpt>
      <trkpt lat="49.01534" lon="6.04611">
        <ele>167.2998</ele>
        <time>2026-05-18T15:52:39+02:00</time>
      </trkpt>
      <trkpt lat="49.01537" lon="6.04616">
        <ele>168.10059</ele>
        <time>2026-05-18T15:52:40+02:00</time>
      </trkpt>
      <trkpt lat="49.01542" lon="6.0462">
        <ele>168.10059</ele>
        <time>2026-05-18T15:52:41+02:00</time>
      </trkpt>
      <trkpt lat="49.01546" lon="6.04624">
        <ele>168.10059</ele>
        <time>2026-05-18T15:52:42+02:00</time>
      </trkpt>
      <trkpt lat="49.0155" lon="6.04629">
        <ele>167.5</ele>
        <time>2026-05-18T15:52:43+02:00</time>
      </trkpt>
      <trkpt lat="49.01553" lon="6.04634">
        <ele>167.40039</ele>
        <time>2026-05-18T15:52:44+02:00</time>
      </trkpt>
      <trkpt lat="49.01558" lon="6.04639">
        <ele>167</ele>
        <time>2026-05-18T15:52:45+02:00</time>
      </trkpt>
      <trkpt lat="49.01562" lon="6.04643">
        <ele>166.40039</ele>
        <time>2026-05-18T15:52:46+02:00</time>
      </trkpt>
      <trkpt lat="49.01566" lon="6.04647">
        <ele>166.2998</ele>
        <time>2026-05-18T15:52:47+02:00</time>
      </trkpt>
      <trkpt lat="49.0157" lon="6.04652">
        <ele>166.7002</ele>
        <time>2026-05-18T15:52:48+02:00</time>
      </trkpt>
      <trkpt lat="49.01574" lon="6.04656">
        <ele>166.7002</ele>
        <time>2026-05-18T15:52:49+02:00</time>
      </trkpt>
      <trkpt lat="49.01579" lon="6.0466">
        <ele>167.2002</ele>
        <time>2026-05-18T15:52:50+02:00</time>
      </trkpt>
      <trkpt lat="49.01583" lon="6.04665">
        <ele>168.2998</ele>
        <time>2026-05-18T15:52:51+02:00</time>
      </trkpt>
      <trkpt lat="49.01587" lon="6.04669">
        <ele>168.90039</ele>
        <time>2026-05-18T15:52:52+02:00</time>
      </trkpt>
      <trkpt lat="49.01591" lon="6.04673">
        <ele>168.90039</ele>
        <time>2026-05-18T15:52:53+02:00</time>
      </trkpt>
      <trkpt lat="49.01596" lon="6.04678">
        <ele>168.7002</ele>
        <time>2026-05-18T15:52:54+02:00</time>
      </trkpt>
      <trkpt lat="49.016" lon="6.04682">
        <ele>169.5</ele>
        <time>2026-05-18T15:52:55+02:00</time>
      </trkpt>
      <trkpt lat="49.01605" lon="6.04687">
        <ele>169.2998</ele>
        <time>2026-05-18T15:52:56+02:00</time>
      </trkpt>
      <trkpt lat="49.01609" lon="6.04691">
        <ele>170.5</ele>
        <time>2026-05-18T15:52:57+02:00</time>
      </trkpt>
      <trkpt lat="49.01613" lon="6.04695">
        <ele>169.7002</ele>
        <time>2026-05-18T15:52:58+02:00</time>
      </trkpt>
      <trkpt lat="49.01616" lon="6.04699">
        <ele>170.90039</ele>
        <time>2026-05-18T15:52:59+02:00</time>
      </trkpt>
      <trkpt lat="49.01621" lon="6.04703">
        <ele>170.7002</ele>
        <time>2026-05-18T15:53:00+02:00</time>
      </trkpt>
      <trkpt lat="49.01625" lon="6.04707">
        <ele>170.7002</ele>
        <time>2026-05-18T15:53:01+02:00</time>
      </trkpt>
      <trkpt lat="49.01629" lon="6.04712">
        <ele>170.2998</ele>
        <time>2026-05-18T15:53:02+02:00</time>
      </trkpt>
      <trkpt lat="49.01633" lon="6.04716">
        <ele>171.2002</ele>
        <time>2026-05-18T15:53:03+02:00</time>
      </trkpt>
      <trkpt lat="49.01637" lon="6.04721">
        <ele>170.2002</ele>
        <time>2026-05-18T15:53:04+02:00</time>
      </trkpt>
      <trkpt lat="49.01641" lon="6.04725">
        <ele>171.2998</ele>
        <time>2026-05-18T15:53:05+02:00</time>
      </trkpt>
      <trkpt lat="49.01645" lon="6.0473">
        <ele>171.2998</ele>
        <time>2026-05-18T15:53:06+02:00</time>
      </trkpt>
      <trkpt lat="49.0165" lon="6.04734">
        <ele>171.90039</ele>
        <time>2026-05-18T15:53:07+02:00</time>
      </trkpt>
      <trkpt lat="49.01653" lon="6.04737">
        <ele>171.90039</ele>
        <time>2026-05-18T15:53:08+02:00</time>
      </trkpt>
      <trkpt lat="49.01658" lon="6.04741">
        <ele>171.7998</ele>
        <time>2026-05-18T15:53:09+02:00</time>
      </trkpt>
      <trkpt lat="49.01662" lon="6.04745">
        <ele>172.5</ele>
        <time>2026-05-18T15:53:10+02:00</time>
      </trkpt>
      <trkpt lat="49.01666" lon="6.04748">
        <ele>172.5</ele>
        <time>2026-05-18T15:53:11+02:00</time>
      </trkpt>
      <trkpt lat="49.0167" lon="6.04752">
        <ele>172.5</ele>
        <time>2026-05-18T15:53:12+02:00</time>
      </trkpt>
      <trkpt lat="49.01674" lon="6.04756">
        <ele>172.5</ele>
        <time>2026-05-18T15:53:13+02:00</time>
      </trkpt>
      <trkpt lat="49.01678" lon="6.0476">
        <ele>173.10059</ele>
        <time>2026-05-18T15:53:14+02:00</time>
      </trkpt>
      <trkpt lat="49.01683" lon="6.04763">
        <ele>173.7002</ele>
        <time>2026-05-18T15:53:15+02:00</time>
      </trkpt>
      <trkpt lat="49.01687" lon="6.04767">
        <ele>173.2002</ele>
        <time>2026-05-18T15:53:16+02:00</time>
      </trkpt>
      <trkpt lat="49.01691" lon="6.0477">
        <ele>173.90039</ele>
        <time>2026-05-18T15:53:17+02:00</time>
      </trkpt>
      <trkpt lat="49.01695" lon="6.04773">
        <ele>174.2998</ele>
        <time>2026-05-18T15:53:18+02:00</time>
      </trkpt>
      <trkpt lat="49.01698" lon="6.04776">
        <ele>174.2998</ele>
        <time>2026-05-18T15:53:19+02:00</time>
      </trkpt>
      <trkpt lat="49.01702" lon="6.04779">
        <ele>175.10059</ele>
        <time>2026-05-18T15:53:20+02:00</time>
      </trkpt>
      <trkpt lat="49.01706" lon="6.04782">
        <ele>175.7002</ele>
        <time>2026-05-18T15:53:21+02:00</time>
      </trkpt>
      <trkpt lat="49.0171" lon="6.04786">
        <ele>176.2002</ele>
        <time>2026-05-18T15:53:22+02:00</time>
      </trkpt>
      <trkpt lat="49.01714" lon="6.04789">
        <ele>176.2002</ele>
        <time>2026-05-18T15:53:23+02:00</time>
      </trkpt>
      <trkpt lat="49.01718" lon="6.04792">
        <ele>176.5</ele>
        <time>2026-05-18T15:53:24+02:00</time>
      </trkpt>
      <trkpt lat="49.01722" lon="6.04796">
        <ele>176.7002</ele>
        <time>2026-05-18T15:53:25+02:00</time>
      </trkpt>
      <trkpt lat="49.01727" lon="6.04799">
        <ele>176.7002</ele>
        <time>2026-05-18T15:53:26+02:00</time>
      </trkpt>
      <trkpt lat="49.01731" lon="6.04802">
        <ele>176.90039</ele>
        <time>2026-05-18T15:53:27+02:00</time>
      </trkpt>
      <trkpt lat="49.01736" lon="6.04806">
        <ele>177.10059</ele>
        <time>2026-05-18T15:53:28+02:00</time>
      </trkpt>
      <trkpt lat="49.0174" lon="6.04809">
        <ele>177.10059</ele>
        <time>2026-05-18T15:53:29+02:00</time>
      </trkpt>
      <trkpt lat="49.01745" lon="6.04812">
        <ele>177.2002</ele>
        <time>2026-05-18T15:53:30+02:00</time>
      </trkpt>
      <trkpt lat="49.0175" lon="6.04815">
        <ele>177.2998</ele>
        <time>2026-05-18T15:53:31+02:00</time>
      </trkpt>
      <trkpt lat="49.01754" lon="6.04818">
        <ele>177.2998</ele>
        <time>2026-05-18T15:53:32+02:00</time>
      </trkpt>
      <trkpt lat="49.01759" lon="6.04821">
        <ele>177.2998</ele>
        <time>2026-05-18T15:53:33+02:00</time>
      </trkpt>
      <trkpt lat="49.01764" lon="6.04824">
        <ele>177.40039</ele>
        <time>2026-05-18T15:53:34+02:00</time>
      </trkpt>
      <trkpt lat="49.01768" lon="6.04828">
        <ele>177.40039</ele>
        <time>2026-05-18T15:53:35+02:00</time>
      </trkpt>
      <trkpt lat="49.01773" lon="6.04832">
        <ele>177.5</ele>
        <time>2026-05-18T15:53:36+02:00</time>
      </trkpt>
      <trkpt lat="49.01778" lon="6.04835">
        <ele>177.40039</ele>
        <time>2026-05-18T15:53:37+02:00</time>
      </trkpt>
      <trkpt lat="49.01783" lon="6.04838">
        <ele>177.40039</ele>
        <time>2026-05-18T15:53:38+02:00</time>
      </trkpt>
      <trkpt lat="49.01787" lon="6.04842">
        <ele>177.40039</ele>
        <time>2026-05-18T15:53:39+02:00</time>
      </trkpt>
      <trkpt lat="49.01792" lon="6.04845">
        <ele>177.2998</ele>
        <time>2026-05-18T15:53:40+02:00</time>
      </trkpt>
      <trkpt lat="49.01797" lon="6.04849">
        <ele>177.40039</ele>
        <time>2026-05-18T15:53:41+02:00</time>
      </trkpt>
      <trkpt lat="49.01802" lon="6.04853">
        <ele>177.2998</ele>
        <time>2026-05-18T15:53:42+02:00</time>
      </trkpt>
      <trkpt lat="49.01807" lon="6.04857">
        <ele>177.2002</ele>
        <time>2026-05-18T15:53:43+02:00</time>
      </trkpt>
      <trkpt lat="49.01812" lon="6.0486">
        <ele>177.2998</ele>
        <time>2026-05-18T15:53:44+02:00</time>
      </trkpt>
      <trkpt lat="49.01817" lon="6.04863">
        <ele>177.2998</ele>
        <time>2026-05-18T15:53:45+02:00</time>
      </trkpt>
      <trkpt lat="49.01822" lon="6.04866">
        <ele>177.2002</ele>
        <time>2026-05-18T15:53:46+02:00</time>
      </trkpt>
      <trkpt lat="49.01827" lon="6.0487">
        <ele>177.40039</ele>
        <time>2026-05-18T15:53:47+02:00</time>
      </trkpt>
      <trkpt lat="49.01832" lon="6.04873">
        <ele>177.2998</ele>
        <time>2026-05-18T15:53:48+02:00</time>
      </trkpt>
      <trkpt lat="49.01837" lon="6.04877">
        <ele>177.5</ele>
        <time>2026-05-18T15:53:49+02:00</time>
      </trkpt>
      <trkpt lat="49.01842" lon="6.04879">
        <ele>177.40039</ele>
        <time>2026-05-18T15:53:50+02:00</time>
      </trkpt>
      <trkpt lat="49.01846" lon="6.04882">
        <ele>177.2998</ele>
        <time>2026-05-18T15:53:51+02:00</time>
      </trkpt>
      <trkpt lat="49.01851" lon="6.04885">
        <ele>177.5</ele>
        <time>2026-05-18T15:53:52+02:00</time>
      </trkpt>
      <trkpt lat="49.01856" lon="6.04887">
        <ele>177.5</ele>
        <time>2026-05-18T15:53:53+02:00</time>
      </trkpt>
      <trkpt lat="49.01861" lon="6.0489">
        <ele>177.40039</ele>
        <time>2026-05-18T15:53:54+02:00</time>
      </trkpt>
      <trkpt lat="49.01866" lon="6.04892">
        <ele>177.5</ele>
        <time>2026-05-18T15:53:55+02:00</time>
      </trkpt>
      <trkpt lat="49.0187" lon="6.04895">
        <ele>177.40039</ele>
        <time>2026-05-18T15:53:56+02:00</time>
      </trkpt>
      <trkpt lat="49.01875" lon="6.04898">
        <ele>177.2002</ele>
        <time>2026-05-18T15:53:57+02:00</time>
      </trkpt>
      <trkpt lat="49.0188" lon="6.049">
        <ele>177.10059</ele>
        <time>2026-05-18T15:53:58+02:00</time>
      </trkpt>
      <trkpt lat="49.01885" lon="6.04903">
        <ele>177.10059</ele>
        <time>2026-05-18T15:53:59+02:00</time>
      </trkpt>
      <trkpt lat="49.0189" lon="6.04906">
        <ele>177.10059</ele>
        <time>2026-05-18T15:54:00+02:00</time>
      </trkpt>
      <trkpt lat="49.01895" lon="6.04909">
        <ele>177</ele>
        <time>2026-05-18T15:54:01+02:00</time>
      </trkpt>
      <trkpt lat="49.019" lon="6.04912">
        <ele>176.7998</ele>
        <time>2026-05-18T15:54:02+02:00</time>
      </trkpt>
      <trkpt lat="49.01905" lon="6.04915">
        <ele>176.60059</ele>
        <time>2026-05-18T15:54:03+02:00</time>
      </trkpt>
      <trkpt lat="49.0191" lon="6.04917">
        <ele>176.40039</ele>
        <time>2026-05-18T15:54:04+02:00</time>
      </trkpt>
      <trkpt lat="49.01915" lon="6.0492">
        <ele>176.2998</ele>
        <time>2026-05-18T15:54:05+02:00</time>
      </trkpt>
      <trkpt lat="49.0192" lon="6.04922">
        <ele>176.10059</ele>
        <time>2026-05-18T15:54:06+02:00</time>
      </trkpt>
      <trkpt lat="49.01926" lon="6.04925">
        <ele>175.90039</ele>
        <time>2026-05-18T15:54:07+02:00</time>
      </trkpt>
      <trkpt lat="49.01932" lon="6.04928">
        <ele>175.90039</ele>
        <time>2026-05-18T15:54:08+02:00</time>
      </trkpt>
      <trkpt lat="49.01937" lon="6.04931">
        <ele>175.7998</ele>
        <time>2026-05-18T15:54:09+02:00</time>
      </trkpt>
      <trkpt lat="49.01941" lon="6.04933">
        <ele>175.7002</ele>
        <time>2026-05-18T15:54:10+02:00</time>
      </trkpt>
      <trkpt lat="49.01946" lon="6.04936">
        <ele>175.7998</ele>
        <time>2026-05-18T15:54:11+02:00</time>
      </trkpt>
      <trkpt lat="49.01951" lon="6.0494">
        <ele>175.7002</ele>
        <time>2026-05-18T15:54:12+02:00</time>
      </trkpt>
      <trkpt lat="49.01956" lon="6.04944">
        <ele>175.7002</ele>
        <time>2026-05-18T15:54:13+02:00</time>
      </trkpt>
      <trkpt lat="49.0196" lon="6.04949">
        <ele>175.7002</ele>
        <time>2026-05-18T15:54:14+02:00</time>
      </trkpt>
      <trkpt lat="49.01964" lon="6.04954">
        <ele>175.7002</ele>
        <time>2026-05-18T15:54:15+02:00</time>
      </trkpt>
      <trkpt lat="49.01967" lon="6.04961">
        <ele>175.7998</ele>
        <time>2026-05-18T15:54:16+02:00</time>
      </trkpt>
      <trkpt lat="49.0197" lon="6.04967">
        <ele>175.7002</ele>
        <time>2026-05-18T15:54:17+02:00</time>
      </trkpt>
      <trkpt lat="49.01974" lon="6.04973">
        <ele>175.7998</ele>
        <time>2026-05-18T15:54:18+02:00</time>
      </trkpt>
      <trkpt lat="49.01978" lon="6.04978">
        <ele>175.7998</ele>
        <time>2026-05-18T15:54:19+02:00</time>
      </trkpt>
      <trkpt lat="49.01981" lon="6.04983">
        <ele>175.7998</ele>
        <time>2026-05-18T15:54:20+02:00</time>
      </trkpt>
      <trkpt lat="49.01986" lon="6.04987">
        <ele>175.7998</ele>
        <time>2026-05-18T15:54:21+02:00</time>
      </trkpt>
      <trkpt lat="49.0199" lon="6.04991">
        <ele>175.7998</ele>
        <time>2026-05-18T15:54:22+02:00</time>
      </trkpt>
      <trkpt lat="49.01994" lon="6.04995">
        <ele>175.7998</ele>
        <time>2026-05-18T15:54:23+02:00</time>
      </trkpt>
      <trkpt lat="49.01998" lon="6.04998">
        <ele>175.7002</ele>
        <time>2026-05-18T15:54:24+02:00</time>
      </trkpt>
      <trkpt lat="49.02002" lon="6.05">
        <ele>175.7002</ele>
        <time>2026-05-18T15:54:25+02:00</time>
      </trkpt>
      <trkpt lat="49.02006" lon="6.05004">
        <ele>175.5</ele>
        <time>2026-05-18T15:54:26+02:00</time>
      </trkpt>
      <trkpt lat="49.0201" lon="6.05006">
        <ele>175.40039</ele>
        <time>2026-05-18T15:54:27+02:00</time>
      </trkpt>
      <trkpt lat="49.02015" lon="6.05009">
        <ele>175.2002</ele>
        <time>2026-05-18T15:54:28+02:00</time>
      </trkpt>
      <trkpt lat="49.02019" lon="6.05011">
        <ele>175.2002</ele>
        <time>2026-05-18T15:54:29+02:00</time>
      </trkpt>
      <trkpt lat="49.02023" lon="6.05014">
        <ele>174.7998</ele>
        <time>2026-05-18T15:54:30+02:00</time>
      </trkpt>
      <trkpt lat="49.02028" lon="6.05016">
        <ele>174.60059</ele>
        <time>2026-05-18T15:54:31+02:00</time>
      </trkpt>
      <trkpt lat="49.02033" lon="6.0502">
        <ele>174.40039</ele>
        <time>2026-05-18T15:54:32+02:00</time>
      </trkpt>
      <trkpt lat="49.02038" lon="6.05023">
        <ele>174</ele>
        <time>2026-05-18T15:54:33+02:00</time>
      </trkpt>
      <trkpt lat="49.02042" lon="6.05026">
        <ele>174</ele>
        <time>2026-05-18T15:54:34+02:00</time>
      </trkpt>
      <trkpt lat="49.02047" lon="6.05029">
        <ele>173.7002</ele>
        <time>2026-05-18T15:54:35+02:00</time>
      </trkpt>
      <trkpt lat="49.02052" lon="6.05032">
        <ele>173.2002</ele>
        <time>2026-05-18T15:54:36+02:00</time>
      </trkpt>
      <trkpt lat="49.02057" lon="6.05036">
        <ele>173</ele>
        <time>2026-05-18T15:54:37+02:00</time>
      </trkpt>
      <trkpt lat="49.02063" lon="6.05039">
        <ele>172.5</ele>
        <time>2026-05-18T15:54:38+02:00</time>
      </trkpt>
      <trkpt lat="49.02068" lon="6.05043">
        <ele>172.2998</ele>
        <time>2026-05-18T15:54:39+02:00</time>
      </trkpt>
      <trkpt lat="49.02073" lon="6.05047">
        <ele>171.90039</ele>
        <time>2026-05-18T15:54:40+02:00</time>
      </trkpt>
      <trkpt lat="49.02078" lon="6.0505">
        <ele>171.7998</ele>
        <time>2026-05-18T15:54:41+02:00</time>
      </trkpt>
      <trkpt lat="49.02083" lon="6.05054">
        <ele>171.7998</ele>
        <time>2026-05-18T15:54:42+02:00</time>
      </trkpt>
      <trkpt lat="49.02088" lon="6.05057">
        <ele>171.5</ele>
        <time>2026-05-18T15:54:43+02:00</time>
      </trkpt>
      <trkpt lat="49.02094" lon="6.05061">
        <ele>171.60059</ele>
        <time>2026-05-18T15:54:44+02:00</time>
      </trkpt>
      <trkpt lat="49.02099" lon="6.05064">
        <ele>171.40039</ele>
        <time>2026-05-18T15:54:45+02:00</time>
      </trkpt>
      <trkpt lat="49.02104" lon="6.05066">
        <ele>171.60059</ele>
        <time>2026-05-18T15:54:46+02:00</time>
      </trkpt>
      <trkpt lat="49.0211" lon="6.05067">
        <ele>171.7998</ele>
        <time>2026-05-18T15:54:47+02:00</time>
      </trkpt>
      <trkpt lat="49.02116" lon="6.05066">
        <ele>172</ele>
        <time>2026-05-18T15:54:48+02:00</time>
      </trkpt>
      <trkpt lat="49.02121" lon="6.05065">
        <ele>172</ele>
        <time>2026-05-18T15:54:49+02:00</time>
      </trkpt>
      <trkpt lat="49.02126" lon="6.05063">
        <ele>172.40039</ele>
        <time>2026-05-18T15:54:50+02:00</time>
      </trkpt>
      <trkpt lat="49.02131" lon="6.05061">
        <ele>172.60059</ele>
        <time>2026-05-18T15:54:51+02:00</time>
      </trkpt>
      <trkpt lat="49.02134" lon="6.05057">
        <ele>172.7998</ele>
        <time>2026-05-18T15:54:52+02:00</time>
      </trkpt>
      <trkpt lat="49.02136" lon="6.05053">
        <ele>173</ele>
        <time>2026-05-18T15:54:53+02:00</time>
      </trkpt>
      <trkpt lat="49.02138" lon="6.05049">
        <ele>173.2998</ele>
        <time>2026-05-18T15:54:54+02:00</time>
      </trkpt>
      <trkpt lat="49.0214" lon="6.05045">
        <ele>173.5</ele>
        <time>2026-05-18T15:54:55+02:00</time>
      </trkpt>
      <trkpt lat="49.02142" lon="6.05042">
        <ele>173.5</ele>
        <time>2026-05-18T15:54:56+02:00</time>
      </trkpt>
      <trkpt lat="49.02144" lon="6.05038">
        <ele>173.7002</ele>
        <time>2026-05-18T15:54:57+02:00</time>
      </trkpt>
      <trkpt lat="49.02146" lon="6.05035">
        <ele>174</ele>
        <time>2026-05-18T15:54:58+02:00</time>
      </trkpt>
      <trkpt lat="49.02147" lon="6.0503">
        <ele>174</ele>
        <time>2026-05-18T15:54:59+02:00</time>
      </trkpt>
      <trkpt lat="49.02149" lon="6.05026">
        <ele>174.2998</ele>
        <time>2026-05-18T15:55:00+02:00</time>
      </trkpt>
      <trkpt lat="49.02152" lon="6.05021">
        <ele>174.5</ele>
        <time>2026-05-18T15:55:01+02:00</time>
      </trkpt>
      <trkpt lat="49.02155" lon="6.05017">
        <ele>175</ele>
        <time>2026-05-18T15:55:02+02:00</time>
      </trkpt>
      <trkpt lat="49.02159" lon="6.05016">
        <ele>175</ele>
        <time>2026-05-18T15:55:03+02:00</time>
      </trkpt>
      <trkpt lat="49.02164" lon="6.05016">
        <ele>175.2002</ele>
        <time>2026-05-18T15:55:04+02:00</time>
      </trkpt>
      <trkpt lat="49.02169" lon="6.05019">
        <ele>175.2998</ele>
        <time>2026-05-18T15:55:05+02:00</time>
      </trkpt>
      <trkpt lat="49.02174" lon="6.05021">
        <ele>175.2002</ele>
        <time>2026-05-18T15:55:06+02:00</time>
      </trkpt>
      <trkpt lat="49.02179" lon="6.05024">
        <ele>175.2998</ele>
        <time>2026-05-18T15:55:07+02:00</time>
      </trkpt>
      <trkpt lat="49.02184" lon="6.05026">
        <ele>175.40039</ele>
        <time>2026-05-18T15:55:08+02:00</time>
      </trkpt>
      <trkpt lat="49.02189" lon="6.0503">
        <ele>175.40039</ele>
        <time>2026-05-18T15:55:09+02:00</time>
      </trkpt>
      <trkpt lat="49.02194" lon="6.05033">
        <ele>175.40039</ele>
        <time>2026-05-18T15:55:10+02:00</time>
      </trkpt>
      <trkpt lat="49.022" lon="6.05037">
        <ele>175.60059</ele>
        <time>2026-05-18T15:55:11+02:00</time>
      </trkpt>
      <trkpt lat="49.02205" lon="6.05041">
        <ele>175.5</ele>
        <time>2026-05-18T15:55:12+02:00</time>
      </trkpt>
      <trkpt lat="49.02211" lon="6.05047">
        <ele>175.40039</ele>
        <time>2026-05-18T15:55:13+02:00</time>
      </trkpt>
      <trkpt lat="49.02215" lon="6.05055">
        <ele>175.40039</ele>
        <time>2026-05-18T15:55:14+02:00</time>
      </trkpt>
      <trkpt lat="49.02219" lon="6.05063">
        <ele>175.60059</ele>
        <time>2026-05-18T15:55:15+02:00</time>
      </trkpt>
      <trkpt lat="49.02224" lon="6.05071">
        <ele>175.60059</ele>
        <time>2026-05-18T15:55:16+02:00</time>
      </trkpt>
      <trkpt lat="49.02229" lon="6.05077">
        <ele>175.60059</ele>
        <time>2026-05-18T15:55:17+02:00</time>
      </trkpt>
      <trkpt lat="49.02235" lon="6.05082">
        <ele>175.60059</ele>
        <time>2026-05-18T15:55:18+02:00</time>
      </trkpt>
      <trkpt lat="49.0224" lon="6.05086">
        <ele>175.60059</ele>
        <time>2026-05-18T15:55:19+02:00</time>
      </trkpt>
      <trkpt lat="49.02245" lon="6.0509">
        <ele>175.40039</ele>
        <time>2026-05-18T15:55:20+02:00</time>
      </trkpt>
      <trkpt lat="49.02249" lon="6.05094">
        <ele>175.40039</ele>
        <time>2026-05-18T15:55:21+02:00</time>
      </trkpt>
      <trkpt lat="49.02253" lon="6.05098">
        <ele>175.2998</ele>
        <time>2026-05-18T15:55:22+02:00</time>
      </trkpt>
      <trkpt lat="49.02258" lon="6.05102">
        <ele>175.2002</ele>
        <time>2026-05-18T15:55:23+02:00</time>
      </trkpt>
      <trkpt lat="49.02262" lon="6.05106">
        <ele>175.10059</ele>
        <time>2026-05-18T15:55:24+02:00</time>
      </trkpt>
      <trkpt lat="49.02267" lon="6.0511">
        <ele>175.10059</ele>
        <time>2026-05-18T15:55:25+02:00</time>
      </trkpt>
      <trkpt lat="49.02272" lon="6.05114">
        <ele>174.90039</ele>
        <time>2026-05-18T15:55:26+02:00</time>
      </trkpt>
      <trkpt lat="49.02277" lon="6.05118">
        <ele>174.7998</ele>
        <time>2026-05-18T15:55:27+02:00</time>
      </trkpt>
      <trkpt lat="49.02282" lon="6.05121">
        <ele>174.7002</ele>
        <time>2026-05-18T15:55:28+02:00</time>
      </trkpt>
      <trkpt lat="49.02287" lon="6.05124">
        <ele>174.5</ele>
        <time>2026-05-18T15:55:29+02:00</time>
      </trkpt>
      <trkpt lat="49.02292" lon="6.05127">
        <ele>174.40039</ele>
        <time>2026-05-18T15:55:30+02:00</time>
      </trkpt>
      <trkpt lat="49.02297" lon="6.0513">
        <ele>174.40039</ele>
        <time>2026-05-18T15:55:31+02:00</time>
      </trkpt>
      <trkpt lat="49.02302" lon="6.05133">
        <ele>174.2002</ele>
        <time>2026-05-18T15:55:32+02:00</time>
      </trkpt>
      <trkpt lat="49.02307" lon="6.05137">
        <ele>174.10059</ele>
        <time>2026-05-18T15:55:33+02:00</time>
      </trkpt>
      <trkpt lat="49.02312" lon="6.05141">
        <ele>173.90039</ele>
        <time>2026-05-18T15:55:34+02:00</time>
      </trkpt>
      <trkpt lat="49.02317" lon="6.05145">
        <ele>173.90039</ele>
        <time>2026-05-18T15:55:35+02:00</time>
      </trkpt>
      <trkpt lat="49.02323" lon="6.05148">
        <ele>173.90039</ele>
        <time>2026-05-18T15:55:36+02:00</time>
      </trkpt>
      <trkpt lat="49.02327" lon="6.05151">
        <ele>173.7998</ele>
        <time>2026-05-18T15:55:37+02:00</time>
      </trkpt>
      <trkpt lat="49.02332" lon="6.05154">
        <ele>173.90039</ele>
        <time>2026-05-18T15:55:38+02:00</time>
      </trkpt>
      <trkpt lat="49.02337" lon="6.05158">
        <ele>173.7998</ele>
        <time>2026-05-18T15:55:39+02:00</time>
      </trkpt>
      <trkpt lat="49.02342" lon="6.05161">
        <ele>173.7998</ele>
        <time>2026-05-18T15:55:40+02:00</time>
      </trkpt>
      <trkpt lat="49.02346" lon="6.05165">
        <ele>173.7998</ele>
        <time>2026-05-18T15:55:41+02:00</time>
      </trkpt>
      <trkpt lat="49.02351" lon="6.05168">
        <ele>173.7002</ele>
        <time>2026-05-18T15:55:42+02:00</time>
      </trkpt>
      <trkpt lat="49.02355" lon="6.05171">
        <ele>173.7002</ele>
        <time>2026-05-18T15:55:43+02:00</time>
      </trkpt>
      <trkpt lat="49.0236" lon="6.05175">
        <ele>173.60059</ele>
        <time>2026-05-18T15:55:44+02:00</time>
      </trkpt>
      <trkpt lat="49.02364" lon="6.05178">
        <ele>173.7002</ele>
        <time>2026-05-18T15:55:45+02:00</time>
      </trkpt>
      <trkpt lat="49.02369" lon="6.05182">
        <ele>173.7002</ele>
        <time>2026-05-18T15:55:46+02:00</time>
      </trkpt>
      <trkpt lat="49.02374" lon="6.05186">
        <ele>173.7002</ele>
        <time>2026-05-18T15:55:47+02:00</time>
      </trkpt>
      <trkpt lat="49.02379" lon="6.0519">
        <ele>173.7998</ele>
        <time>2026-05-18T15:55:48+02:00</time>
      </trkpt>
      <trkpt lat="49.02384" lon="6.05194">
        <ele>173.7002</ele>
        <time>2026-05-18T15:55:49+02:00</time>
      </trkpt>
      <trkpt lat="49.02389" lon="6.05198">
        <ele>173.60059</ele>
        <time>2026-05-18T15:55:50+02:00</time>
      </trkpt>
      <trkpt lat="49.02394" lon="6.05201">
        <ele>173.5</ele>
        <time>2026-05-18T15:55:51+02:00</time>
      </trkpt>
      <trkpt lat="49.02399" lon="6.05205">
        <ele>173.2998</ele>
        <time>2026-05-18T15:55:52+02:00</time>
      </trkpt>
      <trkpt lat="49.02404" lon="6.05208">
        <ele>173.2002</ele>
        <time>2026-05-18T15:55:53+02:00</time>
      </trkpt>
      <trkpt lat="49.02408" lon="6.05211">
        <ele>173.10059</ele>
        <time>2026-05-18T15:55:54+02:00</time>
      </trkpt>
      <trkpt lat="49.02411" lon="6.05213">
        <ele>173</ele>
        <time>2026-05-18T15:55:55+02:00</time>
      </trkpt>
      <trkpt lat="49.02414" lon="6.05214">
        <ele>172.7998</ele>
        <time>2026-05-18T15:55:56+02:00</time>
      </trkpt>
      <trkpt lat="49.02416" lon="6.05214">
        <ele>172.7998</ele>
        <time>2026-05-18T15:55:57+02:00</time>
      </trkpt>
      <trkpt lat="49.02418" lon="6.05214">
        <ele>172.7998</ele>
        <time>2026-05-18T15:55:58+02:00</time>
      </trkpt>
      <trkpt lat="49.0242" lon="6.05212">
        <ele>172.7002</ele>
        <time>2026-05-18T15:55:59+02:00</time>
      </trkpt>
      <trkpt lat="49.02421" lon="6.05211">
        <ele>172.7002</ele>
        <time>2026-05-18T15:56:00+02:00</time>
      </trkpt>
      <trkpt lat="49.02422" lon="6.05211">
        <ele>172.7002</ele>
        <time>2026-05-18T15:56:01+02:00</time>
      </trkpt>
      <trkpt lat="49.02424" lon="6.0521">
        <ele>172.7002</ele>
        <time>2026-05-18T15:56:02+02:00</time>
      </trkpt>
      <trkpt lat="49.02425" lon="6.0521">
        <ele>172.60059</ele>
        <time>2026-05-18T15:56:03+02:00</time>
      </trkpt>
      <trkpt lat="49.02427" lon="6.05209">
        <ele>172.7998</ele>
        <time>2026-05-18T15:56:04+02:00</time>
      </trkpt>
      <trkpt lat="49.02429" lon="6.05208">
        <ele>172.7998</ele>
        <time>2026-05-18T15:56:05+02:00</time>
      </trkpt>
      <trkpt lat="49.02432" lon="6.05207">
        <ele>172.7002</ele>
        <time>2026-05-18T15:56:06+02:00</time>
      </trkpt>
      <trkpt lat="49.02435" lon="6.05207">
        <ele>172.7002</ele>
        <time>2026-05-18T15:56:07+02:00</time>
      </trkpt>
      <trkpt lat="49.02439" lon="6.05206">
        <ele>172.60059</ele>
        <time>2026-05-18T15:56:08+02:00</time>
      </trkpt>
      <trkpt lat="49.02443" lon="6.05206">
        <ele>172.5</ele>
        <time>2026-05-18T15:56:09+02:00</time>
      </trkpt>
      <trkpt lat="49.02447" lon="6.05205">
        <ele>172.5</ele>
        <time>2026-05-18T15:56:10+02:00</time>
      </trkpt>
      <trkpt lat="49.02452" lon="6.05205">
        <ele>172.40039</ele>
        <time>2026-05-18T15:56:11+02:00</time>
      </trkpt>
      <trkpt lat="49.02456" lon="6.05205">
        <ele>172.40039</ele>
        <time>2026-05-18T15:56:12+02:00</time>
      </trkpt>
      <trkpt lat="49.02462" lon="6.05205">
        <ele>172.2998</ele>
        <time>2026-05-18T15:56:13+02:00</time>
      </trkpt>
      <trkpt lat="49.02467" lon="6.05205">
        <ele>172.2998</ele>
        <time>2026-05-18T15:56:14+02:00</time>
      </trkpt>
      <trkpt lat="49.02472" lon="6.05206">
        <ele>172.2002</ele>
        <time>2026-05-18T15:56:15+02:00</time>
      </trkpt>
      <trkpt lat="49.02477" lon="6.05207">
        <ele>172.10059</ele>
        <time>2026-05-18T15:56:16+02:00</time>
      </trkpt>
      <trkpt lat="49.02482" lon="6.05208">
        <ele>172.10059</ele>
        <time>2026-05-18T15:56:17+02:00</time>
      </trkpt>
      <trkpt lat="49.02487" lon="6.05209">
        <ele>172.10059</ele>
        <time>2026-05-18T15:56:18+02:00</time>
      </trkpt>
      <trkpt lat="49.02492" lon="6.0521">
        <ele>172</ele>
        <time>2026-05-18T15:56:19+02:00</time>
      </trkpt>
      <trkpt lat="49.02497" lon="6.05212">
        <ele>172</ele>
        <time>2026-05-18T15:56:20+02:00</time>
      </trkpt>
      <trkpt lat="49.02503" lon="6.05214">
        <ele>172</ele>
        <time>2026-05-18T15:56:21+02:00</time>
      </trkpt>
      <trkpt lat="49.02508" lon="6.05215">
        <ele>172.10059</ele>
        <time>2026-05-18T15:56:22+02:00</time>
      </trkpt>
      <trkpt lat="49.02514" lon="6.05216">
        <ele>172.10059</ele>
        <time>2026-05-18T15:56:23+02:00</time>
      </trkpt>
      <trkpt lat="49.02519" lon="6.05217">
        <ele>172.2002</ele>
        <time>2026-05-18T15:56:24+02:00</time>
      </trkpt>
      <trkpt lat="49.02525" lon="6.05218">
        <ele>171.7998</ele>
        <time>2026-05-18T15:56:25+02:00</time>
      </trkpt>
      <trkpt lat="49.02531" lon="6.05219">
        <ele>171.7998</ele>
        <time>2026-05-18T15:56:26+02:00</time>
      </trkpt>
      <trkpt lat="49.02537" lon="6.05221">
        <ele>171.7002</ele>
        <time>2026-05-18T15:56:27+02:00</time>
      </trkpt>
      <trkpt lat="49.02542" lon="6.05222">
        <ele>171.7998</ele>
        <time>2026-05-18T15:56:28+02:00</time>
      </trkpt>
      <trkpt lat="49.02547" lon="6.05225">
        <ele>171.7998</ele>
        <time>2026-05-18T15:56:29+02:00</time>
      </trkpt>
      <trkpt lat="49.02553" lon="6.05228">
        <ele>171.40039</ele>
        <time>2026-05-18T15:56:30+02:00</time>
      </trkpt>
      <trkpt lat="49.02558" lon="6.05231">
        <ele>171.5</ele>
        <time>2026-05-18T15:56:31+02:00</time>
      </trkpt>
      <trkpt lat="49.02563" lon="6.05235">
        <ele>171.60059</ele>
        <time>2026-05-18T15:56:32+02:00</time>
      </trkpt>
      <trkpt lat="49.02569" lon="6.05238">
        <ele>171.2998</ele>
        <time>2026-05-18T15:56:33+02:00</time>
      </trkpt>
      <trkpt lat="49.02574" lon="6.05241">
        <ele>171.5</ele>
        <time>2026-05-18T15:56:34+02:00</time>
      </trkpt>
      <trkpt lat="49.02579" lon="6.05244">
        <ele>171.2998</ele>
        <time>2026-05-18T15:56:35+02:00</time>
      </trkpt>
      <trkpt lat="49.02584" lon="6.05247">
        <ele>171.60059</ele>
        <time>2026-05-18T15:56:36+02:00</time>
      </trkpt>
      <trkpt lat="49.02589" lon="6.0525">
        <ele>171.90039</ele>
        <time>2026-05-18T15:56:37+02:00</time>
      </trkpt>
      <trkpt lat="49.02594" lon="6.05252">
        <ele>172.10059</ele>
        <time>2026-05-18T15:56:38+02:00</time>
      </trkpt>
      <trkpt lat="49.02599" lon="6.05254">
        <ele>171.60059</ele>
        <time>2026-05-18T15:56:39+02:00</time>
      </trkpt>
      <trkpt lat="49.02605" lon="6.05256">
        <ele>171.7002</ele>
        <time>2026-05-18T15:56:40+02:00</time>
      </trkpt>
      <trkpt lat="49.02611" lon="6.05257">
        <ele>171.7002</ele>
        <time>2026-05-18T15:56:41+02:00</time>
      </trkpt>
      <trkpt lat="49.02616" lon="6.05259">
        <ele>171.7002</ele>
        <time>2026-05-18T15:56:42+02:00</time>
      </trkpt>
      <trkpt lat="49.02622" lon="6.05261">
        <ele>170.7998</ele>
        <time>2026-05-18T15:56:43+02:00</time>
      </trkpt>
      <trkpt lat="49.02628" lon="6.05263">
        <ele>170.7002</ele>
        <time>2026-05-18T15:56:44+02:00</time>
      </trkpt>
      <trkpt lat="49.02634" lon="6.05265">
        <ele>170.60059</ele>
        <time>2026-05-18T15:56:45+02:00</time>
      </trkpt>
      <trkpt lat="49.0264" lon="6.05267">
        <ele>170.60059</ele>
        <time>2026-05-18T15:56:46+02:00</time>
      </trkpt>
      <trkpt lat="49.02645" lon="6.05268">
        <ele>170.5</ele>
        <time>2026-05-18T15:56:47+02:00</time>
      </trkpt>
      <trkpt lat="49.02651" lon="6.0527">
        <ele>169.7998</ele>
        <time>2026-05-18T15:56:48+02:00</time>
      </trkpt>
      <trkpt lat="49.02657" lon="6.05271">
        <ele>169.7002</ele>
        <time>2026-05-18T15:56:49+02:00</time>
      </trkpt>
      <trkpt lat="49.02664" lon="6.05273">
        <ele>169.60059</ele>
        <time>2026-05-18T15:56:50+02:00</time>
      </trkpt>
      <trkpt lat="49.02669" lon="6.05274">
        <ele>169.60059</ele>
        <time>2026-05-18T15:56:51+02:00</time>
      </trkpt>
      <trkpt lat="49.02675" lon="6.05276">
        <ele>169.60059</ele>
        <time>2026-05-18T15:56:52+02:00</time>
      </trkpt>
      <trkpt lat="49.02681" lon="6.05277">
        <ele>169.60059</ele>
        <time>2026-05-18T15:56:53+02:00</time>
      </trkpt>
      <trkpt lat="49.02688" lon="6.05279">
        <ele>168.7998</ele>
        <time>2026-05-18T15:56:54+02:00</time>
      </trkpt>
      <trkpt lat="49.02694" lon="6.0528">
        <ele>168.7998</ele>
        <time>2026-05-18T15:56:55+02:00</time>
      </trkpt>
      <trkpt lat="49.027" lon="6.05282">
        <ele>168.90039</ele>
        <time>2026-05-18T15:56:56+02:00</time>
      </trkpt>
      <trkpt lat="49.02706" lon="6.05284">
        <ele>169.2002</ele>
        <time>2026-05-18T15:56:57+02:00</time>
      </trkpt>
      <trkpt lat="49.02713" lon="6.05285">
        <ele>170.2998</ele>
        <time>2026-05-18T15:56:58+02:00</time>
      </trkpt>
      <trkpt lat="49.02718" lon="6.05286">
        <ele>170.7998</ele>
        <time>2026-05-18T15:56:59+02:00</time>
      </trkpt>
      <trkpt lat="49.02724" lon="6.05286">
        <ele>171.10059</ele>
        <time>2026-05-18T15:57:00+02:00</time>
      </trkpt>
      <trkpt lat="49.0273" lon="6.05286">
        <ele>171.40039</ele>
        <time>2026-05-18T15:57:01+02:00</time>
      </trkpt>
      <trkpt lat="49.02735" lon="6.05287">
        <ele>171</ele>
        <time>2026-05-18T15:57:02+02:00</time>
      </trkpt>
      <trkpt lat="49.0274" lon="6.05287">
        <ele>171</ele>
        <time>2026-05-18T15:57:03+02:00</time>
      </trkpt>
      <trkpt lat="49.02746" lon="6.05287">
        <ele>171</ele>
        <time>2026-05-18T15:57:04+02:00</time>
      </trkpt>
      <trkpt lat="49.0275" lon="6.05287">
        <ele>171</ele>
        <time>2026-05-18T15:57:05+02:00</time>
      </trkpt>
      <trkpt lat="49.02754" lon="6.05287">
        <ele>170.7998</ele>
        <time>2026-05-18T15:57:06+02:00</time>
      </trkpt>
      <trkpt lat="49.02759" lon="6.05287">
        <ele>170.5</ele>
        <time>2026-05-18T15:57:07+02:00</time>
      </trkpt>
      <trkpt lat="49.02765" lon="6.05287">
        <ele>170.40039</ele>
        <time>2026-05-18T15:57:08+02:00</time>
      </trkpt>
      <trkpt lat="49.02771" lon="6.05288">
        <ele>170.40039</ele>
        <time>2026-05-18T15:57:09+02:00</time>
      </trkpt>
      <trkpt lat="49.02776" lon="6.05288">
        <ele>170.40039</ele>
        <time>2026-05-18T15:57:10+02:00</time>
      </trkpt>
      <trkpt lat="49.02783" lon="6.05288">
        <ele>170.40039</ele>
        <time>2026-05-18T15:57:11+02:00</time>
      </trkpt>
      <trkpt lat="49.0279" lon="6.05288">
        <ele>170.40039</ele>
        <time>2026-05-18T15:57:12+02:00</time>
      </trkpt>
      <trkpt lat="49.02797" lon="6.05288">
        <ele>170.40039</ele>
        <time>2026-05-18T15:57:13+02:00</time>
      </trkpt>
      <trkpt lat="49.02804" lon="6.05286">
        <ele>171.40039</ele>
        <time>2026-05-18T15:57:14+02:00</time>
      </trkpt>
      <trkpt lat="49.0281" lon="6.05286">
        <ele>171.40039</ele>
        <time>2026-05-18T15:57:15+02:00</time>
      </trkpt>
      <trkpt lat="49.02817" lon="6.05285">
        <ele>171.40039</ele>
        <time>2026-05-18T15:57:16+02:00</time>
      </trkpt>
      <trkpt lat="49.02823" lon="6.05286">
        <ele>171.40039</ele>
        <time>2026-05-18T15:57:17+02:00</time>
      </trkpt>
      <trkpt lat="49.02829" lon="6.05288">
        <ele>170.40039</ele>
        <time>2026-05-18T15:57:18+02:00</time>
      </trkpt>
      <trkpt lat="49.02835" lon="6.05289">
        <ele>170.40039</ele>
        <time>2026-05-18T15:57:19+02:00</time>
      </trkpt>
      <trkpt lat="49.02841" lon="6.0529">
        <ele>170.2998</ele>
        <time>2026-05-18T15:57:20+02:00</time>
      </trkpt>
      <trkpt lat="49.02847" lon="6.05291">
        <ele>170.2002</ele>
        <time>2026-05-18T15:57:21+02:00</time>
      </trkpt>
      <trkpt lat="49.02854" lon="6.05291">
        <ele>170</ele>
        <time>2026-05-18T15:57:22+02:00</time>
      </trkpt>
      <trkpt lat="49.0286" lon="6.05291">
        <ele>169.90039</ele>
        <time>2026-05-18T15:57:23+02:00</time>
      </trkpt>
      <trkpt lat="49.02867" lon="6.0529">
        <ele>169.7002</ele>
        <time>2026-05-18T15:57:24+02:00</time>
      </trkpt>
      <trkpt lat="49.02873" lon="6.05289">
        <ele>169.60059</ele>
        <time>2026-05-18T15:57:25+02:00</time>
      </trkpt>
      <trkpt lat="49.02878" lon="6.05287">
        <ele>169.5</ele>
        <time>2026-05-18T15:57:26+02:00</time>
      </trkpt>
      <trkpt lat="49.02884" lon="6.05286">
        <ele>170.2998</ele>
        <time>2026-05-18T15:57:27+02:00</time>
      </trkpt>
      <trkpt lat="49.02889" lon="6.05285">
        <ele>170.10059</ele>
        <time>2026-05-18T15:57:28+02:00</time>
      </trkpt>
      <trkpt lat="49.02893" lon="6.05282">
        <ele>170</ele>
        <time>2026-05-18T15:57:29+02:00</time>
      </trkpt>
      <trkpt lat="49.02896" lon="6.0528">
        <ele>170</ele>
        <time>2026-05-18T15:57:30+02:00</time>
      </trkpt>
      <trkpt lat="49.02899" lon="6.05278">
        <ele>169.90039</ele>
        <time>2026-05-18T15:57:31+02:00</time>
      </trkpt>
      <trkpt lat="49.02902" lon="6.05276">
        <ele>170.7998</ele>
        <time>2026-05-18T15:57:32+02:00</time>
      </trkpt>
      <trkpt lat="49.02905" lon="6.05276">
        <ele>170.7002</ele>
        <time>2026-05-18T15:57:33+02:00</time>
      </trkpt>
      <trkpt lat="49.02908" lon="6.05276">
        <ele>170.7002</ele>
        <time>2026-05-18T15:57:34+02:00</time>
      </trkpt>
      <trkpt lat="49.02911" lon="6.05277">
        <ele>170.60059</ele>
        <time>2026-05-18T15:57:35+02:00</time>
      </trkpt>
      <trkpt lat="49.02925" lon="6.05278">
        <ele>169.7002</ele>
        <time>2026-05-18T15:57:36+02:00</time>
      </trkpt>
      <trkpt lat="49.02929" lon="6.05278">
        <ele>169.60059</ele>
        <time>2026-05-18T15:57:37+02:00</time>
      </trkpt>
      <trkpt lat="49.02932" lon="6.05278">
        <ele>169.40039</ele>
        <time>2026-05-18T15:57:38+02:00</time>
      </trkpt>
      <trkpt lat="49.02935" lon="6.05278">
        <ele>169.40039</ele>
        <time>2026-05-18T15:57:39+02:00</time>
      </trkpt>
      <trkpt lat="49.02938" lon="6.05279">
        <ele>169.2002</ele>
        <time>2026-05-18T15:57:40+02:00</time>
      </trkpt>
      <trkpt lat="49.02941" lon="6.05281">
        <ele>169.2002</ele>
        <time>2026-05-18T15:57:41+02:00</time>
      </trkpt>
      <trkpt lat="49.02945" lon="6.05282">
        <ele>168.90039</ele>
        <time>2026-05-18T15:57:42+02:00</time>
      </trkpt>
      <trkpt lat="49.02948" lon="6.05283">
        <ele>168.90039</ele>
        <time>2026-05-18T15:57:43+02:00</time>
      </trkpt>
      <trkpt lat="49.02952" lon="6.05283">
        <ele>168.5</ele>
        <time>2026-05-18T15:57:44+02:00</time>
      </trkpt>
      <trkpt lat="49.02955" lon="6.05283">
        <ele>167.90039</ele>
        <time>2026-05-18T15:57:45+02:00</time>
      </trkpt>
      <trkpt lat="49.02958" lon="6.05283">
        <ele>167.90039</ele>
        <time>2026-05-18T15:57:46+02:00</time>
      </trkpt>
      <trkpt lat="49.02961" lon="6.05283">
        <ele>167.40039</ele>
        <time>2026-05-18T15:57:47+02:00</time>
      </trkpt>
      <trkpt lat="49.02965" lon="6.05283">
        <ele>167.40039</ele>
        <time>2026-05-18T15:57:48+02:00</time>
      </trkpt>
      <trkpt lat="49.02968" lon="6.05282">
        <ele>167</ele>
        <time>2026-05-18T15:57:49+02:00</time>
      </trkpt>
      <trkpt lat="49.02971" lon="6.05282">
        <ele>166.90039</ele>
        <time>2026-05-18T15:57:50+02:00</time>
      </trkpt>
      <trkpt lat="49.02975" lon="6.05281">
        <ele>166.90039</ele>
        <time>2026-05-18T15:57:51+02:00</time>
      </trkpt>
      <trkpt lat="49.02978" lon="6.0528">
        <ele>166.90039</ele>
        <time>2026-05-18T15:57:52+02:00</time>
      </trkpt>
      <trkpt lat="49.02981" lon="6.05279">
        <ele>166.90039</ele>
        <time>2026-05-18T15:57:53+02:00</time>
      </trkpt>
      <trkpt lat="49.02984" lon="6.05278">
        <ele>166.90039</ele>
        <time>2026-05-18T15:57:54+02:00</time>
      </trkpt>
      <trkpt lat="49.02987" lon="6.05277">
        <ele>167.2002</ele>
        <time>2026-05-18T15:57:55+02:00</time>
      </trkpt>
      <trkpt lat="49.02989" lon="6.05276">
        <ele>167.2002</ele>
        <time>2026-05-18T15:57:56+02:00</time>
      </trkpt>
      <trkpt lat="49.02991" lon="6.05276">
        <ele>167.2002</ele>
        <time>2026-05-18T15:57:57+02:00</time>
      </trkpt>
      <trkpt lat="49.02992" lon="6.05277">
        <ele>167.2002</ele>
        <time>2026-05-18T15:57:58+02:00</time>
      </trkpt>
      <trkpt lat="49.02993" lon="6.0528">
        <ele>166.90039</ele>
        <time>2026-05-18T15:57:59+02:00</time>
      </trkpt>
      <trkpt lat="49.02994" lon="6.05284">
        <ele>166.90039</ele>
        <time>2026-05-18T15:58:00+02:00</time>
      </trkpt>
      <trkpt lat="49.02994" lon="6.05289">
        <ele>166.90039</ele>
        <time>2026-05-18T15:58:01+02:00</time>
      </trkpt>
      <trkpt lat="49.02994" lon="6.05293">
        <ele>166.90039</ele>
        <time>2026-05-18T15:58:02+02:00</time>
      </trkpt>
      <trkpt lat="49.02995" lon="6.05298">
        <ele>167</ele>
        <time>2026-05-18T15:58:03+02:00</time>
      </trkpt>
      <trkpt lat="49.02995" lon="6.05303">
        <ele>167</ele>
        <time>2026-05-18T15:58:04+02:00</time>
      </trkpt>
      <trkpt lat="49.02995" lon="6.05308">
        <ele>167.10059</ele>
        <time>2026-05-18T15:58:05+02:00</time>
      </trkpt>
      <trkpt lat="49.02996" lon="6.05312">
        <ele>167.10059</ele>
        <time>2026-05-18T15:58:06+02:00</time>
      </trkpt>
      <trkpt lat="49.02996" lon="6.05317">
        <ele>167.10059</ele>
        <time>2026-05-18T15:58:07+02:00</time>
      </trkpt>
      <trkpt lat="49.02996" lon="6.05321">
        <ele>167.10059</ele>
        <time>2026-05-18T15:58:08+02:00</time>
      </trkpt>
      <trkpt lat="49.02997" lon="6.05326">
        <ele>167.10059</ele>
        <time>2026-05-18T15:58:09+02:00</time>
      </trkpt>
      <trkpt lat="49.02997" lon="6.0533">
        <ele>167.10059</ele>
        <time>2026-05-18T15:58:10+02:00</time>
      </trkpt>
      <trkpt lat="49.02997" lon="6.05335">
        <ele>167.10059</ele>
        <time>2026-05-18T15:58:11+02:00</time>
      </trkpt>
      <trkpt lat="49.02997" lon="6.05339">
        <ele>167.10059</ele>
        <time>2026-05-18T15:58:12+02:00</time>
      </trkpt>
      <trkpt lat="49.02997" lon="6.05343">
        <ele>167.10059</ele>
        <time>2026-05-18T15:58:13+02:00</time>
      </trkpt>
      <trkpt lat="49.02997" lon="6.05347">
        <ele>167.10059</ele>
        <time>2026-05-18T15:58:14+02:00</time>
      </trkpt>
      <trkpt lat="49.02997" lon="6.05351">
        <ele>167.10059</ele>
        <time>2026-05-18T15:58:15+02:00</time>
      </trkpt>
      <trkpt lat="49.02998" lon="6.05356">
        <ele>167.10059</ele>
        <time>2026-05-18T15:58:16+02:00</time>
      </trkpt>
      <trkpt lat="49.02998" lon="6.0536">
        <ele>167.10059</ele>
        <time>2026-05-18T15:58:17+02:00</time>
      </trkpt>
      <trkpt lat="49.02998" lon="6.05364">
        <ele>167.10059</ele>
        <time>2026-05-18T15:58:18+02:00</time>
      </trkpt>
      <trkpt lat="49.02999" lon="6.05369">
        <ele>167.10059</ele>
        <time>2026-05-18T15:58:19+02:00</time>
      </trkpt>
      <trkpt lat="49.03" lon="6.05373">
        <ele>167.10059</ele>
        <time>2026-05-18T15:58:20+02:00</time>
      </trkpt>
      <trkpt lat="49.03" lon="6.05377">
        <ele>167.10059</ele>
        <time>2026-05-18T15:58:21+02:00</time>
      </trkpt>
      <trkpt lat="49.03" lon="6.05383">
        <ele>167.2998</ele>
        <time>2026-05-18T15:58:22+02:00</time>
      </trkpt>
      <trkpt lat="49.03" lon="6.05388">
        <ele>167.2998</ele>
        <time>2026-05-18T15:58:23+02:00</time>
      </trkpt>
      <trkpt lat="49.03001" lon="6.05394">
        <ele>167.60059</ele>
        <time>2026-05-18T15:58:24+02:00</time>
      </trkpt>
      <trkpt lat="49.03001" lon="6.05401">
        <ele>168.10059</ele>
        <time>2026-05-18T15:58:25+02:00</time>
      </trkpt>
      <trkpt lat="49.03001" lon="6.05407">
        <ele>168.60059</ele>
        <time>2026-05-18T15:58:26+02:00</time>
      </trkpt>
      <trkpt lat="49.03002" lon="6.05414">
        <ele>168.60059</ele>
        <time>2026-05-18T15:58:27+02:00</time>
      </trkpt>
      <trkpt lat="49.03002" lon="6.05421">
        <ele>169.7002</ele>
        <time>2026-05-18T15:58:28+02:00</time>
      </trkpt>
      <trkpt lat="49.03002" lon="6.05428">
        <ele>171.2002</ele>
        <time>2026-05-18T15:58:29+02:00</time>
      </trkpt>
      <trkpt lat="49.03003" lon="6.05435">
        <ele>172.7002</ele>
        <time>2026-05-18T15:58:30+02:00</time>
      </trkpt>
      <trkpt lat="49.03003" lon="6.05443">
        <ele>173.60059</ele>
        <time>2026-05-18T15:58:31+02:00</time>
      </trkpt>
      <trkpt lat="49.03004" lon="6.0545">
        <ele>173.90039</ele>
        <time>2026-05-18T15:58:32+02:00</time>
      </trkpt>
      <trkpt lat="49.03005" lon="6.05459">
        <ele>173.90039</ele>
        <time>2026-05-18T15:58:33+02:00</time>
      </trkpt>
      <trkpt lat="49.03005" lon="6.05467">
        <ele>173.7998</ele>
        <time>2026-05-18T15:58:34+02:00</time>
      </trkpt>
      <trkpt lat="49.03005" lon="6.05475">
        <ele>173.7998</ele>
        <time>2026-05-18T15:58:35+02:00</time>
      </trkpt>
      <trkpt lat="49.03006" lon="6.05484">
        <ele>173.7002</ele>
        <time>2026-05-18T15:58:36+02:00</time>
      </trkpt>
      <trkpt lat="49.03006" lon="6.05491">
        <ele>173.7002</ele>
        <time>2026-05-18T15:58:37+02:00</time>
      </trkpt>
      <trkpt lat="49.03006" lon="6.05498">
        <ele>173.7002</ele>
        <time>2026-05-18T15:58:38+02:00</time>
      </trkpt>
      <trkpt lat="49.03006" lon="6.05505">
        <ele>173.7998</ele>
        <time>2026-05-18T15:58:39+02:00</time>
      </trkpt>
      <trkpt lat="49.03007" lon="6.05511">
        <ele>173.7998</ele>
        <time>2026-05-18T15:58:40+02:00</time>
      </trkpt>
      <trkpt lat="49.03007" lon="6.05517">
        <ele>173.7998</ele>
        <time>2026-05-18T15:58:41+02:00</time>
      </trkpt>
      <trkpt lat="49.03007" lon="6.05524">
        <ele>173.90039</ele>
        <time>2026-05-18T15:58:42+02:00</time>
      </trkpt>
      <trkpt lat="49.03008" lon="6.0553">
        <ele>174.10059</ele>
        <time>2026-05-18T15:58:43+02:00</time>
      </trkpt>
      <trkpt lat="49.03011" lon="6.05536">
        <ele>174.2998</ele>
        <time>2026-05-18T15:58:44+02:00</time>
      </trkpt>
      <trkpt lat="49.03014" lon="6.05541">
        <ele>174.2998</ele>
        <time>2026-05-18T15:58:45+02:00</time>
      </trkpt>
      <trkpt lat="49.03018" lon="6.05546">
        <ele>174.60059</ele>
        <time>2026-05-18T15:58:46+02:00</time>
      </trkpt>
      <trkpt lat="49.03023" lon="6.0555">
        <ele>174.7002</ele>
        <time>2026-05-18T15:58:47+02:00</time>
      </trkpt>
      <trkpt lat="49.03028" lon="6.05553">
        <ele>175</ele>
        <time>2026-05-18T15:58:48+02:00</time>
      </trkpt>
      <trkpt lat="49.03033" lon="6.05556">
        <ele>175.10059</ele>
        <time>2026-05-18T15:58:49+02:00</time>
      </trkpt>
      <trkpt lat="49.03038" lon="6.05559">
        <ele>175.10059</ele>
        <time>2026-05-18T15:58:50+02:00</time>
      </trkpt>
      <trkpt lat="49.03043" lon="6.05561">
        <ele>175.2002</ele>
        <time>2026-05-18T15:58:51+02:00</time>
      </trkpt>
      <trkpt lat="49.03048" lon="6.05562">
        <ele>175.5</ele>
        <time>2026-05-18T15:58:52+02:00</time>
      </trkpt>
      <trkpt lat="49.03053" lon="6.05565">
        <ele>175.7002</ele>
        <time>2026-05-18T15:58:53+02:00</time>
      </trkpt>
      <trkpt lat="49.03058" lon="6.05567">
        <ele>175.7998</ele>
        <time>2026-05-18T15:58:54+02:00</time>
      </trkpt>
      <trkpt lat="49.03063" lon="6.05568">
        <ele>175.90039</ele>
        <time>2026-05-18T15:58:55+02:00</time>
      </trkpt>
      <trkpt lat="49.03069" lon="6.0557">
        <ele>176.2002</ele>
        <time>2026-05-18T15:58:56+02:00</time>
      </trkpt>
      <trkpt lat="49.03074" lon="6.05572">
        <ele>176.2002</ele>
        <time>2026-05-18T15:58:57+02:00</time>
      </trkpt>
      <trkpt lat="49.0308" lon="6.05573">
        <ele>176.2998</ele>
        <time>2026-05-18T15:58:58+02:00</time>
      </trkpt>
      <trkpt lat="49.03085" lon="6.05575">
        <ele>176.2998</ele>
        <time>2026-05-18T15:58:59+02:00</time>
      </trkpt>
      <trkpt lat="49.03091" lon="6.05576">
        <ele>176.2998</ele>
        <time>2026-05-18T15:59:00+02:00</time>
      </trkpt>
      <trkpt lat="49.03097" lon="6.05577">
        <ele>176.2998</ele>
        <time>2026-05-18T15:59:01+02:00</time>
      </trkpt>
      <trkpt lat="49.03102" lon="6.05578">
        <ele>176.2002</ele>
        <time>2026-05-18T15:59:02+02:00</time>
      </trkpt>
      <trkpt lat="49.03108" lon="6.05579">
        <ele>176.2002</ele>
        <time>2026-05-18T15:59:03+02:00</time>
      </trkpt>
      <trkpt lat="49.03113" lon="6.0558">
        <ele>176.2002</ele>
        <time>2026-05-18T15:59:04+02:00</time>
      </trkpt>
      <trkpt lat="49.03119" lon="6.05581">
        <ele>176.10059</ele>
        <time>2026-05-18T15:59:05+02:00</time>
      </trkpt>
      <trkpt lat="49.03124" lon="6.05582">
        <ele>176</ele>
        <time>2026-05-18T15:59:06+02:00</time>
      </trkpt>
      <trkpt lat="49.0313" lon="6.05583">
        <ele>175.90039</ele>
        <time>2026-05-18T15:59:07+02:00</time>
      </trkpt>
      <trkpt lat="49.03135" lon="6.05584">
        <ele>175.90039</ele>
        <time>2026-05-18T15:59:08+02:00</time>
      </trkpt>
      <trkpt lat="49.0314" lon="6.05585">
        <ele>175.7998</ele>
        <time>2026-05-18T15:59:09+02:00</time>
      </trkpt>
      <trkpt lat="49.03145" lon="6.05585">
        <ele>175.7998</ele>
        <time>2026-05-18T15:59:10+02:00</time>
      </trkpt>
      <trkpt lat="49.0315" lon="6.05586">
        <ele>175.7002</ele>
        <time>2026-05-18T15:59:11+02:00</time>
      </trkpt>
      <trkpt lat="49.03155" lon="6.05587">
        <ele>175.7002</ele>
        <time>2026-05-18T15:59:12+02:00</time>
      </trkpt>
      <trkpt lat="49.03159" lon="6.05588">
        <ele>175.7002</ele>
        <time>2026-05-18T15:59:13+02:00</time>
      </trkpt>
      <trkpt lat="49.03164" lon="6.05589">
        <ele>175.7002</ele>
        <time>2026-05-18T15:59:14+02:00</time>
      </trkpt>
      <trkpt lat="49.03169" lon="6.0559">
        <ele>175.7002</ele>
        <time>2026-05-18T15:59:15+02:00</time>
      </trkpt>
      <trkpt lat="49.03174" lon="6.05591">
        <ele>175.7002</ele>
        <time>2026-05-18T15:59:16+02:00</time>
      </trkpt>
      <trkpt lat="49.03179" lon="6.05593">
        <ele>175.7998</ele>
        <time>2026-05-18T15:59:17+02:00</time>
      </trkpt>
      <trkpt lat="49.03184" lon="6.05596">
        <ele>175.90039</ele>
        <time>2026-05-18T15:59:18+02:00</time>
      </trkpt>
      <trkpt lat="49.03189" lon="6.05598">
        <ele>175.90039</ele>
        <time>2026-05-18T15:59:19+02:00</time>
      </trkpt>
      <trkpt lat="49.03194" lon="6.056">
        <ele>176</ele>
        <time>2026-05-18T15:59:20+02:00</time>
      </trkpt>
      <trkpt lat="49.03199" lon="6.05603">
        <ele>176.10059</ele>
        <time>2026-05-18T15:59:21+02:00</time>
      </trkpt>
      <trkpt lat="49.03203" lon="6.05605">
        <ele>176.2998</ele>
        <time>2026-05-18T15:59:22+02:00</time>
      </trkpt>
      <trkpt lat="49.03208" lon="6.05607">
        <ele>176.2998</ele>
        <time>2026-05-18T15:59:23+02:00</time>
      </trkpt>
      <trkpt lat="49.03213" lon="6.0561">
        <ele>176.2998</ele>
        <time>2026-05-18T15:59:24+02:00</time>
      </trkpt>
      <trkpt lat="49.03217" lon="6.05612">
        <ele>176.2998</ele>
        <time>2026-05-18T15:59:25+02:00</time>
      </trkpt>
      <trkpt lat="49.03222" lon="6.05614">
        <ele>176.5</ele>
        <time>2026-05-18T15:59:26+02:00</time>
      </trkpt>
      <trkpt lat="49.03227" lon="6.05615">
        <ele>176.5</ele>
        <time>2026-05-18T15:59:27+02:00</time>
      </trkpt>
      <trkpt lat="49.03232" lon="6.05617">
        <ele>176.5</ele>
        <time>2026-05-18T15:59:28+02:00</time>
      </trkpt>
      <trkpt lat="49.03236" lon="6.05619">
        <ele>176.5</ele>
        <time>2026-05-18T15:59:29+02:00</time>
      </trkpt>
      <trkpt lat="49.0324" lon="6.05622">
        <ele>176.60059</ele>
        <time>2026-05-18T15:59:30+02:00</time>
      </trkpt>
      <trkpt lat="49.03243" lon="6.05626">
        <ele>176.60059</ele>
        <time>2026-05-18T15:59:31+02:00</time>
      </trkpt>
      <trkpt lat="49.03246" lon="6.05631">
        <ele>176.7998</ele>
        <time>2026-05-18T15:59:32+02:00</time>
      </trkpt>
      <trkpt lat="49.03249" lon="6.05636">
        <ele>176.7002</ele>
        <time>2026-05-18T15:59:33+02:00</time>
      </trkpt>
      <trkpt lat="49.03251" lon="6.05641">
        <ele>176.90039</ele>
        <time>2026-05-18T15:59:34+02:00</time>
      </trkpt>
      <trkpt lat="49.03254" lon="6.05644">
        <ele>176.7998</ele>
        <time>2026-05-18T15:59:35+02:00</time>
      </trkpt>
      <trkpt lat="49.03258" lon="6.05644">
        <ele>176.7998</ele>
        <time>2026-05-18T15:59:36+02:00</time>
      </trkpt>
      <trkpt lat="49.03261" lon="6.05642">
        <ele>176.7998</ele>
        <time>2026-05-18T15:59:37+02:00</time>
      </trkpt>
      <trkpt lat="49.03264" lon="6.05638">
        <ele>176.60059</ele>
        <time>2026-05-18T15:59:38+02:00</time>
      </trkpt>
      <trkpt lat="49.03267" lon="6.05634">
        <ele>176.60059</ele>
        <time>2026-05-18T15:59:39+02:00</time>
      </trkpt>
      <trkpt lat="49.03272" lon="6.05632">
        <ele>176.60059</ele>
        <time>2026-05-18T15:59:40+02:00</time>
      </trkpt>
      <trkpt lat="49.03277" lon="6.05632">
        <ele>176.5</ele>
        <time>2026-05-18T15:59:41+02:00</time>
      </trkpt>
      <trkpt lat="49.03282" lon="6.05633">
        <ele>176.5</ele>
        <time>2026-05-18T15:59:42+02:00</time>
      </trkpt>
      <trkpt lat="49.03286" lon="6.05635">
        <ele>176.5</ele>
        <time>2026-05-18T15:59:43+02:00</time>
      </trkpt>
      <trkpt lat="49.03292" lon="6.05636">
        <ele>176.5</ele>
        <time>2026-05-18T15:59:44+02:00</time>
      </trkpt>
      <trkpt lat="49.03297" lon="6.05638">
        <ele>176.5</ele>
        <time>2026-05-18T15:59:45+02:00</time>
      </trkpt>
      <trkpt lat="49.03302" lon="6.05639">
        <ele>176.40039</ele>
        <time>2026-05-18T15:59:46+02:00</time>
      </trkpt>
      <trkpt lat="49.03307" lon="6.0564">
        <ele>176.40039</ele>
        <time>2026-05-18T15:59:47+02:00</time>
      </trkpt>
      <trkpt lat="49.03312" lon="6.05642">
        <ele>176.2998</ele>
        <time>2026-05-18T15:59:48+02:00</time>
      </trkpt>
      <trkpt lat="49.03318" lon="6.05643">
        <ele>176.2998</ele>
        <time>2026-05-18T15:59:49+02:00</time>
      </trkpt>
      <trkpt lat="49.03323" lon="6.05644">
        <ele>176.2998</ele>
        <time>2026-05-18T15:59:50+02:00</time>
      </trkpt>
      <trkpt lat="49.03328" lon="6.05646">
        <ele>176.2002</ele>
        <time>2026-05-18T15:59:51+02:00</time>
      </trkpt>
      <trkpt lat="49.03333" lon="6.05647">
        <ele>176.2002</ele>
        <time>2026-05-18T15:59:52+02:00</time>
      </trkpt>
      <trkpt lat="49.03338" lon="6.05649">
        <ele>176</ele>
        <time>2026-05-18T15:59:53+02:00</time>
      </trkpt>
      <trkpt lat="49.03343" lon="6.05651">
        <ele>176</ele>
        <time>2026-05-18T15:59:54+02:00</time>
      </trkpt>
      <trkpt lat="49.03348" lon="6.05652">
        <ele>175.90039</ele>
        <time>2026-05-18T15:59:55+02:00</time>
      </trkpt>
      <trkpt lat="49.03353" lon="6.05653">
        <ele>175.90039</ele>
        <time>2026-05-18T15:59:56+02:00</time>
      </trkpt>
      <trkpt lat="49.03358" lon="6.05655">
        <ele>175.90039</ele>
        <time>2026-05-18T15:59:57+02:00</time>
      </trkpt>
      <trkpt lat="49.03363" lon="6.05656">
        <ele>175.7998</ele>
        <time>2026-05-18T15:59:58+02:00</time>
      </trkpt>
      <trkpt lat="49.03367" lon="6.05657">
        <ele>175.7002</ele>
        <time>2026-05-18T15:59:59+02:00</time>
      </trkpt>
      <trkpt lat="49.03372" lon="6.05658">
        <ele>175.60059</ele>
        <time>2026-05-18T16:00:00+02:00</time>
      </trkpt>
      <trkpt lat="49.03377" lon="6.05658">
        <ele>175.60059</ele>
        <time>2026-05-18T16:00:01+02:00</time>
      </trkpt>
      <trkpt lat="49.03381" lon="6.05658">
        <ele>175.60059</ele>
        <time>2026-05-18T16:00:02+02:00</time>
      </trkpt>
      <trkpt lat="49.03386" lon="6.05659">
        <ele>175.5</ele>
        <time>2026-05-18T16:00:03+02:00</time>
      </trkpt>
      <trkpt lat="49.03391" lon="6.05659">
        <ele>175.5</ele>
        <time>2026-05-18T16:00:04+02:00</time>
      </trkpt>
      <trkpt lat="49.03397" lon="6.0566">
        <ele>175.40039</ele>
        <time>2026-05-18T16:00:05+02:00</time>
      </trkpt>
      <trkpt lat="49.03402" lon="6.05661">
        <ele>175.40039</ele>
        <time>2026-05-18T16:00:06+02:00</time>
      </trkpt>
      <trkpt lat="49.03407" lon="6.05662">
        <ele>175.2998</ele>
        <time>2026-05-18T16:00:07+02:00</time>
      </trkpt>
      <trkpt lat="49.03413" lon="6.05664">
        <ele>175.2998</ele>
        <time>2026-05-18T16:00:08+02:00</time>
      </trkpt>
      <trkpt lat="49.03418" lon="6.05665">
        <ele>175.2998</ele>
        <time>2026-05-18T16:00:09+02:00</time>
      </trkpt>
      <trkpt lat="49.03423" lon="6.05665">
        <ele>175.2998</ele>
        <time>2026-05-18T16:00:10+02:00</time>
      </trkpt>
      <trkpt lat="49.03428" lon="6.05664">
        <ele>175.2002</ele>
        <time>2026-05-18T16:00:11+02:00</time>
      </trkpt>
      <trkpt lat="49.03433" lon="6.05664">
        <ele>175.2002</ele>
        <time>2026-05-18T16:00:12+02:00</time>
      </trkpt>
      <trkpt lat="49.03437" lon="6.05664">
        <ele>175.2002</ele>
        <time>2026-05-18T16:00:13+02:00</time>
      </trkpt>
      <trkpt lat="49.03442" lon="6.05665">
        <ele>175.2998</ele>
        <time>2026-05-18T16:00:14+02:00</time>
      </trkpt>
      <trkpt lat="49.03446" lon="6.05665">
        <ele>175.2998</ele>
        <time>2026-05-18T16:00:15+02:00</time>
      </trkpt>
      <trkpt lat="49.03451" lon="6.05666">
        <ele>175.2002</ele>
        <time>2026-05-18T16:00:16+02:00</time>
      </trkpt>
      <trkpt lat="49.03456" lon="6.05667">
        <ele>175.2002</ele>
        <time>2026-05-18T16:00:17+02:00</time>
      </trkpt>
      <trkpt lat="49.03461" lon="6.05667">
        <ele>175.10059</ele>
        <time>2026-05-18T16:00:18+02:00</time>
      </trkpt>
      <trkpt lat="49.03466" lon="6.05668">
        <ele>175.10059</ele>
        <time>2026-05-18T16:00:19+02:00</time>
      </trkpt>
      <trkpt lat="49.03471" lon="6.05668">
        <ele>175</ele>
        <time>2026-05-18T16:00:20+02:00</time>
      </trkpt>
      <trkpt lat="49.03476" lon="6.05668">
        <ele>174.90039</ele>
        <time>2026-05-18T16:00:21+02:00</time>
      </trkpt>
      <trkpt lat="49.03481" lon="6.05668">
        <ele>174.7998</ele>
        <time>2026-05-18T16:00:22+02:00</time>
      </trkpt>
      <trkpt lat="49.03486" lon="6.05669">
        <ele>174.7002</ele>
        <time>2026-05-18T16:00:23+02:00</time>
      </trkpt>
      <trkpt lat="49.03492" lon="6.0567">
        <ele>174.60059</ele>
        <time>2026-05-18T16:00:24+02:00</time>
      </trkpt>
      <trkpt lat="49.03497" lon="6.05671">
        <ele>174.5</ele>
        <time>2026-05-18T16:00:25+02:00</time>
      </trkpt>
      <trkpt lat="49.03502" lon="6.05671">
        <ele>174.40039</ele>
        <time>2026-05-18T16:00:26+02:00</time>
      </trkpt>
      <trkpt lat="49.03507" lon="6.05673">
        <ele>174.7998</ele>
        <time>2026-05-18T16:00:27+02:00</time>
      </trkpt>
      <trkpt lat="49.03513" lon="6.05673">
        <ele>174.7998</ele>
        <time>2026-05-18T16:00:28+02:00</time>
      </trkpt>
      <trkpt lat="49.03518" lon="6.05674">
        <ele>174.7998</ele>
        <time>2026-05-18T16:00:29+02:00</time>
      </trkpt>
      <trkpt lat="49.03524" lon="6.05676">
        <ele>174.7998</ele>
        <time>2026-05-18T16:00:30+02:00</time>
      </trkpt>
      <trkpt lat="49.03528" lon="6.05677">
        <ele>174.7998</ele>
        <time>2026-05-18T16:00:31+02:00</time>
      </trkpt>
      <trkpt lat="49.03534" lon="6.05678">
        <ele>174.7002</ele>
        <time>2026-05-18T16:00:32+02:00</time>
      </trkpt>
      <trkpt lat="49.0354" lon="6.05679">
        <ele>174.7002</ele>
        <time>2026-05-18T16:00:33+02:00</time>
      </trkpt>
      <trkpt lat="49.03546" lon="6.0568">
        <ele>174.60059</ele>
        <time>2026-05-18T16:00:34+02:00</time>
      </trkpt>
      <trkpt lat="49.03551" lon="6.05681">
        <ele>174.60059</ele>
        <time>2026-05-18T16:00:35+02:00</time>
      </trkpt>
      <trkpt lat="49.03556" lon="6.05682">
        <ele>175</ele>
        <time>2026-05-18T16:00:36+02:00</time>
      </trkpt>
      <trkpt lat="49.03562" lon="6.05683">
        <ele>174.90039</ele>
        <time>2026-05-18T16:00:37+02:00</time>
      </trkpt>
      <trkpt lat="49.03567" lon="6.05684">
        <ele>174.90039</ele>
        <time>2026-05-18T16:00:38+02:00</time>
      </trkpt>
      <trkpt lat="49.03573" lon="6.05685">
        <ele>174.7998</ele>
        <time>2026-05-18T16:00:39+02:00</time>
      </trkpt>
      <trkpt lat="49.03578" lon="6.05686">
        <ele>174.7998</ele>
        <time>2026-05-18T16:00:40+02:00</time>
      </trkpt>
      <trkpt lat="49.03583" lon="6.05686">
        <ele>174.7002</ele>
        <time>2026-05-18T16:00:41+02:00</time>
      </trkpt>
      <trkpt lat="49.03588" lon="6.05687">
        <ele>174.7002</ele>
        <time>2026-05-18T16:00:42+02:00</time>
      </trkpt>
      <trkpt lat="49.03594" lon="6.05687">
        <ele>174.60059</ele>
        <time>2026-05-18T16:00:43+02:00</time>
      </trkpt>
      <trkpt lat="49.036" lon="6.05688">
        <ele>174.60059</ele>
        <time>2026-05-18T16:00:44+02:00</time>
      </trkpt>
      <trkpt lat="49.03605" lon="6.05688">
        <ele>174.60059</ele>
        <time>2026-05-18T16:00:45+02:00</time>
      </trkpt>
      <trkpt lat="49.03611" lon="6.05688">
        <ele>174.60059</ele>
        <time>2026-05-18T16:00:46+02:00</time>
      </trkpt>
      <trkpt lat="49.03617" lon="6.05688">
        <ele>174.60059</ele>
        <time>2026-05-18T16:00:47+02:00</time>
      </trkpt>
      <trkpt lat="49.03622" lon="6.05688">
        <ele>174.7998</ele>
        <time>2026-05-18T16:00:48+02:00</time>
      </trkpt>
      <trkpt lat="49.03628" lon="6.05688">
        <ele>175</ele>
        <time>2026-05-18T16:00:49+02:00</time>
      </trkpt>
      <trkpt lat="49.03632" lon="6.05689">
        <ele>175</ele>
        <time>2026-05-18T16:00:50+02:00</time>
      </trkpt>
      <trkpt lat="49.03637" lon="6.05689">
        <ele>174.7998</ele>
        <time>2026-05-18T16:00:51+02:00</time>
      </trkpt>
      <trkpt lat="49.03642" lon="6.05691">
        <ele>174.7998</ele>
        <time>2026-05-18T16:00:52+02:00</time>
      </trkpt>
      <trkpt lat="49.03647" lon="6.05692">
        <ele>174.60059</ele>
        <time>2026-05-18T16:00:53+02:00</time>
      </trkpt>
      <trkpt lat="49.03652" lon="6.05694">
        <ele>174.40039</ele>
        <time>2026-05-18T16:00:54+02:00</time>
      </trkpt>
      <trkpt lat="49.03657" lon="6.05696">
        <ele>174.40039</ele>
        <time>2026-05-18T16:00:55+02:00</time>
      </trkpt>
      <trkpt lat="49.03663" lon="6.05697">
        <ele>174.40039</ele>
        <time>2026-05-18T16:00:56+02:00</time>
      </trkpt>
      <trkpt lat="49.03668" lon="6.057">
        <ele>175.7998</ele>
        <time>2026-05-18T16:00:57+02:00</time>
      </trkpt>
      <trkpt lat="49.03674" lon="6.05702">
        <ele>175.90039</ele>
        <time>2026-05-18T16:00:58+02:00</time>
      </trkpt>
      <trkpt lat="49.03679" lon="6.05705">
        <ele>175.7998</ele>
        <time>2026-05-18T16:00:59+02:00</time>
      </trkpt>
      <trkpt lat="49.03685" lon="6.05707">
        <ele>175.60059</ele>
        <time>2026-05-18T16:01:00+02:00</time>
      </trkpt>
      <trkpt lat="49.0369" lon="6.05709">
        <ele>175.5</ele>
        <time>2026-05-18T16:01:01+02:00</time>
      </trkpt>
      <trkpt lat="49.03696" lon="6.05712">
        <ele>174.90039</ele>
        <time>2026-05-18T16:01:02+02:00</time>
      </trkpt>
      <trkpt lat="49.03702" lon="6.05714">
        <ele>174.2998</ele>
        <time>2026-05-18T16:01:03+02:00</time>
      </trkpt>
      <trkpt lat="49.03707" lon="6.05716">
        <ele>174.7998</ele>
        <time>2026-05-18T16:01:04+02:00</time>
      </trkpt>
      <trkpt lat="49.03713" lon="6.05718">
        <ele>174.7002</ele>
        <time>2026-05-18T16:01:05+02:00</time>
      </trkpt>
      <trkpt lat="49.03718" lon="6.05719">
        <ele>174.60059</ele>
        <time>2026-05-18T16:01:06+02:00</time>
      </trkpt>
      <trkpt lat="49.03724" lon="6.0572">
        <ele>174.60059</ele>
        <time>2026-05-18T16:01:07+02:00</time>
      </trkpt>
      <trkpt lat="49.03729" lon="6.05721">
        <ele>174.5</ele>
        <time>2026-05-18T16:01:08+02:00</time>
      </trkpt>
      <trkpt lat="49.03735" lon="6.05722">
        <ele>174.5</ele>
        <time>2026-05-18T16:01:09+02:00</time>
      </trkpt>
      <trkpt lat="49.03741" lon="6.05723">
        <ele>174.60059</ele>
        <time>2026-05-18T16:01:10+02:00</time>
      </trkpt>
      <trkpt lat="49.03747" lon="6.05724">
        <ele>174.5</ele>
        <time>2026-05-18T16:01:11+02:00</time>
      </trkpt>
      <trkpt lat="49.03752" lon="6.05725">
        <ele>175.10059</ele>
        <time>2026-05-18T16:01:12+02:00</time>
      </trkpt>
      <trkpt lat="49.03758" lon="6.05727">
        <ele>174.10059</ele>
        <time>2026-05-18T16:01:13+02:00</time>
      </trkpt>
      <trkpt lat="49.03763" lon="6.05729">
        <ele>172.2998</ele>
        <time>2026-05-18T16:01:14+02:00</time>
      </trkpt>
      <trkpt lat="49.03768" lon="6.0573">
        <ele>170.5</ele>
        <time>2026-05-18T16:01:15+02:00</time>
      </trkpt>
      <trkpt lat="49.03774" lon="6.05732">
        <ele>169.40039</ele>
        <time>2026-05-18T16:01:16+02:00</time>
      </trkpt>
      <trkpt lat="49.03779" lon="6.05734">
        <ele>170.7002</ele>
        <time>2026-05-18T16:01:17+02:00</time>
      </trkpt>
      <trkpt lat="49.03784" lon="6.05736">
        <ele>170.60059</ele>
        <time>2026-05-18T16:01:18+02:00</time>
      </trkpt>
      <trkpt lat="49.03789" lon="6.05737">
        <ele>170.60059</ele>
        <time>2026-05-18T16:01:19+02:00</time>
      </trkpt>
      <trkpt lat="49.03794" lon="6.05739">
        <ele>170.7002</ele>
        <time>2026-05-18T16:01:20+02:00</time>
      </trkpt>
      <trkpt lat="49.03799" lon="6.0574">
        <ele>170.90039</ele>
        <time>2026-05-18T16:01:21+02:00</time>
      </trkpt>
      <trkpt lat="49.03805" lon="6.05741">
        <ele>171.2002</ele>
        <time>2026-05-18T16:01:22+02:00</time>
      </trkpt>
      <trkpt lat="49.0381" lon="6.05743">
        <ele>173.2998</ele>
        <time>2026-05-18T16:01:23+02:00</time>
      </trkpt>
      <trkpt lat="49.03816" lon="6.05745">
        <ele>173.2002</ele>
        <time>2026-05-18T16:01:24+02:00</time>
      </trkpt>
      <trkpt lat="49.03821" lon="6.05747">
        <ele>172.7998</ele>
        <time>2026-05-18T16:01:25+02:00</time>
      </trkpt>
      <trkpt lat="49.03826" lon="6.05749">
        <ele>172.7998</ele>
        <time>2026-05-18T16:01:26+02:00</time>
      </trkpt>
      <trkpt lat="49.03832" lon="6.05751">
        <ele>172.7998</ele>
        <time>2026-05-18T16:01:27+02:00</time>
      </trkpt>
      <trkpt lat="49.03837" lon="6.05752">
        <ele>172.7998</ele>
        <time>2026-05-18T16:01:28+02:00</time>
      </trkpt>
      <trkpt lat="49.03842" lon="6.05754">
        <ele>172.10059</ele>
        <time>2026-05-18T16:01:29+02:00</time>
      </trkpt>
      <trkpt lat="49.03848" lon="6.05755">
        <ele>171.2998</ele>
        <time>2026-05-18T16:01:30+02:00</time>
      </trkpt>
      <trkpt lat="49.03853" lon="6.05757">
        <ele>170.2002</ele>
        <time>2026-05-18T16:01:31+02:00</time>
      </trkpt>
      <trkpt lat="49.03858" lon="6.05759">
        <ele>170.40039</ele>
        <time>2026-05-18T16:01:32+02:00</time>
      </trkpt>
      <trkpt lat="49.03864" lon="6.0576">
        <ele>170</ele>
        <time>2026-05-18T16:01:33+02:00</time>
      </trkpt>
      <trkpt lat="49.03869" lon="6.05761">
        <ele>170</ele>
        <time>2026-05-18T16:01:34+02:00</time>
      </trkpt>
      <trkpt lat="49.03874" lon="6.05763">
        <ele>170.5</ele>
        <time>2026-05-18T16:01:35+02:00</time>
      </trkpt>
      <trkpt lat="49.03879" lon="6.05765">
        <ele>171.10059</ele>
        <time>2026-05-18T16:01:36+02:00</time>
      </trkpt>
      <trkpt lat="49.03884" lon="6.05766">
        <ele>171.60059</ele>
        <time>2026-05-18T16:01:37+02:00</time>
      </trkpt>
      <trkpt lat="49.03889" lon="6.05768">
        <ele>173.60059</ele>
        <time>2026-05-18T16:01:38+02:00</time>
      </trkpt>
      <trkpt lat="49.03894" lon="6.0577">
        <ele>173.90039</ele>
        <time>2026-05-18T16:01:39+02:00</time>
      </trkpt>
      <trkpt lat="49.03899" lon="6.05771">
        <ele>173.90039</ele>
        <time>2026-05-18T16:01:40+02:00</time>
      </trkpt>
      <trkpt lat="49.03904" lon="6.05773">
        <ele>174.10059</ele>
        <time>2026-05-18T16:01:41+02:00</time>
      </trkpt>
      <trkpt lat="49.03909" lon="6.05775">
        <ele>174</ele>
        <time>2026-05-18T16:01:42+02:00</time>
      </trkpt>
      <trkpt lat="49.03914" lon="6.05777">
        <ele>175.2002</ele>
        <time>2026-05-18T16:01:43+02:00</time>
      </trkpt>
      <trkpt lat="49.0392" lon="6.05779">
        <ele>173.90039</ele>
        <time>2026-05-18T16:01:44+02:00</time>
      </trkpt>
      <trkpt lat="49.03925" lon="6.05781">
        <ele>172.2002</ele>
        <time>2026-05-18T16:01:45+02:00</time>
      </trkpt>
      <trkpt lat="49.03929" lon="6.05783">
        <ele>170.90039</ele>
        <time>2026-05-18T16:01:46+02:00</time>
      </trkpt>
      <trkpt lat="49.03934" lon="6.05786">
        <ele>171.7002</ele>
        <time>2026-05-18T16:01:47+02:00</time>
      </trkpt>
      <trkpt lat="49.0394" lon="6.05788">
        <ele>171.5</ele>
        <time>2026-05-18T16:01:48+02:00</time>
      </trkpt>
      <trkpt lat="49.03944" lon="6.0579">
        <ele>171.5</ele>
        <time>2026-05-18T16:01:49+02:00</time>
      </trkpt>
      <trkpt lat="49.03949" lon="6.05792">
        <ele>171.40039</ele>
        <time>2026-05-18T16:01:50+02:00</time>
      </trkpt>
      <trkpt lat="49.03954" lon="6.05794">
        <ele>172.90039</ele>
        <time>2026-05-18T16:01:51+02:00</time>
      </trkpt>
      <trkpt lat="49.03958" lon="6.05797">
        <ele>172.7998</ele>
        <time>2026-05-18T16:01:52+02:00</time>
      </trkpt>
      <trkpt lat="49.03963" lon="6.05799">
        <ele>172.7998</ele>
        <time>2026-05-18T16:01:53+02:00</time>
      </trkpt>
      <trkpt lat="49.03967" lon="6.058">
        <ele>172.7002</ele>
        <time>2026-05-18T16:01:54+02:00</time>
      </trkpt>
      <trkpt lat="49.03972" lon="6.05802">
        <ele>174.2998</ele>
        <time>2026-05-18T16:01:55+02:00</time>
      </trkpt>
      <trkpt lat="49.03977" lon="6.05804">
        <ele>174.2002</ele>
        <time>2026-05-18T16:01:56+02:00</time>
      </trkpt>
      <trkpt lat="49.03981" lon="6.05806">
        <ele>174.10059</ele>
        <time>2026-05-18T16:01:57+02:00</time>
      </trkpt>
      <trkpt lat="49.03986" lon="6.05808">
        <ele>174</ele>
        <time>2026-05-18T16:01:58+02:00</time>
      </trkpt>
      <trkpt lat="49.0399" lon="6.05809">
        <ele>173.7998</ele>
        <time>2026-05-18T16:01:59+02:00</time>
      </trkpt>
      <trkpt lat="49.03994" lon="6.05811">
        <ele>174.60059</ele>
        <time>2026-05-18T16:02:00+02:00</time>
      </trkpt>
      <trkpt lat="49.03999" lon="6.05812">
        <ele>174.2002</ele>
        <time>2026-05-18T16:02:01+02:00</time>
      </trkpt>
      <trkpt lat="49.04003" lon="6.05814">
        <ele>173.60059</ele>
        <time>2026-05-18T16:02:02+02:00</time>
      </trkpt>
      <trkpt lat="49.04007" lon="6.05815">
        <ele>172.2998</ele>
        <time>2026-05-18T16:02:03+02:00</time>
      </trkpt>
      <trkpt lat="49.04012" lon="6.05816">
        <ele>170.7998</ele>
        <time>2026-05-18T16:02:04+02:00</time>
      </trkpt>
      <trkpt lat="49.04016" lon="6.05818">
        <ele>170.7998</ele>
        <time>2026-05-18T16:02:05+02:00</time>
      </trkpt>
      <trkpt lat="49.0402" lon="6.05819">
        <ele>171.2998</ele>
        <time>2026-05-18T16:02:06+02:00</time>
      </trkpt>
      <trkpt lat="49.04024" lon="6.0582">
        <ele>171.10059</ele>
        <time>2026-05-18T16:02:07+02:00</time>
      </trkpt>
      <trkpt lat="49.04028" lon="6.05821">
        <ele>171.10059</ele>
        <time>2026-05-18T16:02:08+02:00</time>
      </trkpt>
      <trkpt lat="49.04033" lon="6.05822">
        <ele>171.2998</ele>
        <time>2026-05-18T16:02:09+02:00</time>
      </trkpt>
      <trkpt lat="49.04037" lon="6.05823">
        <ele>171.60059</ele>
        <time>2026-05-18T16:02:10+02:00</time>
      </trkpt>
      <trkpt lat="49.0404" lon="6.05825">
        <ele>171.7998</ele>
        <time>2026-05-18T16:02:11+02:00</time>
      </trkpt>
      <trkpt lat="49.04043" lon="6.05829">
        <ele>173.2998</ele>
        <time>2026-05-18T16:02:12+02:00</time>
      </trkpt>
      <trkpt lat="49.04044" lon="6.05834">
        <ele>173.2998</ele>
        <time>2026-05-18T16:02:13+02:00</time>
      </trkpt>
      <trkpt lat="49.04045" lon="6.0584">
        <ele>174.2002</ele>
        <time>2026-05-18T16:02:14+02:00</time>
      </trkpt>
      <trkpt lat="49.04044" lon="6.05846">
        <ele>174.60059</ele>
        <time>2026-05-18T16:02:15+02:00</time>
      </trkpt>
      <trkpt lat="49.04044" lon="6.05852">
        <ele>174.60059</ele>
        <time>2026-05-18T16:02:16+02:00</time>
      </trkpt>
      <trkpt lat="49.04043" lon="6.05858">
        <ele>174.7002</ele>
        <time>2026-05-18T16:02:17+02:00</time>
      </trkpt>
      <trkpt lat="49.04042" lon="6.05864">
        <ele>174.60059</ele>
        <time>2026-05-18T16:02:18+02:00</time>
      </trkpt>
      <trkpt lat="49.04041" lon="6.0587">
        <ele>174.60059</ele>
        <time>2026-05-18T16:02:19+02:00</time>
      </trkpt>
      <trkpt lat="49.04041" lon="6.05876">
        <ele>174.40039</ele>
        <time>2026-05-18T16:02:20+02:00</time>
      </trkpt>
      <trkpt lat="49.04041" lon="6.05882">
        <ele>174.2998</ele>
        <time>2026-05-18T16:02:21+02:00</time>
      </trkpt>
      <trkpt lat="49.04041" lon="6.05887">
        <ele>174.2998</ele>
        <time>2026-05-18T16:02:22+02:00</time>
      </trkpt>
      <trkpt lat="49.04042" lon="6.05892">
        <ele>174.2998</ele>
        <time>2026-05-18T16:02:23+02:00</time>
      </trkpt>
      <trkpt lat="49.04043" lon="6.05897">
        <ele>174.2002</ele>
        <time>2026-05-18T16:02:24+02:00</time>
      </trkpt>
      <trkpt lat="49.04043" lon="6.05902">
        <ele>174.2002</ele>
        <time>2026-05-18T16:02:25+02:00</time>
      </trkpt>
      <trkpt lat="49.04044" lon="6.05907">
        <ele>174.2002</ele>
        <time>2026-05-18T16:02:26+02:00</time>
      </trkpt>
      <trkpt lat="49.04044" lon="6.05911">
        <ele>174.2002</ele>
        <time>2026-05-18T16:02:27+02:00</time>
      </trkpt>
      <trkpt lat="49.04043" lon="6.05916">
        <ele>174.10059</ele>
        <time>2026-05-18T16:02:28+02:00</time>
      </trkpt>
      <trkpt lat="49.04041" lon="6.05919">
        <ele>174.10059</ele>
        <time>2026-05-18T16:02:29+02:00</time>
      </trkpt>
      <trkpt lat="49.04039" lon="6.05919">
        <ele>174.2998</ele>
        <time>2026-05-18T16:02:30+02:00</time>
      </trkpt>
      <trkpt lat="49.04036" lon="6.05919">
        <ele>174.2998</ele>
        <time>2026-05-18T16:02:31+02:00</time>
      </trkpt>
      <trkpt lat="49.04036" lon="6.0592">
        <ele>174.2998</ele>
        <time>2026-05-18T16:02:32+02:00</time>
      </trkpt>
      <trkpt lat="49.04036" lon="6.0592">
        <ele>174.2998</ele>
        <time>2026-05-18T16:02:33+02:00</time>
      </trkpt>
      <trkpt lat="49.04036" lon="6.0592">
        <ele>174.2998</ele>
        <time>2026-05-18T16:02:34+02:00</time>
      </trkpt>
      <trkpt lat="49.04036" lon="6.0592">
        <ele>174.2998</ele>
        <time>2026-05-18T16:02:35+02:00</time>
      </trkpt>
      <trkpt lat="49.04036" lon="6.0592">
        <ele>174.2998</ele>
        <time>2026-05-18T16:02:36+02:00</time>
      </trkpt>
    </trkseg>
  </trk>
</gpx>